<?xml version='1.0' encoding='UTF-8'?><gpx version="1.1" creator="JPX - https://github.com/jenetics/jpx" xmlns="http://www.topografix.com/GPX/1/1"><trk><trkseg><trkpt lat="43.7816651" lon="12.3365982"><ele>751.0</ele><time>2026-05-01T09:18:38.783Z</time></trkpt><trkpt lat="43.7816037" lon="12.3365763"><ele>751.0</ele><time>2026-05-01T09:18:50.811Z</time></trkpt><trkpt lat="43.781533" lon="12.336554"><ele>751.0</ele><time>2026-05-01T09:27:31.807Z</time></trkpt><trkpt lat="43.7814453" lon="12.3365397"><ele>751.0</ele><time>2026-05-01T09:27:34.802Z</time></trkpt><trkpt lat="43.7813497" lon="12.3365216"><ele>751.0</ele><time>2026-05-01T09:27:36.82Z</time></trkpt><trkpt lat="43.7812564" lon="12.3364801"><ele>751.0</ele><time>2026-05-01T09:27:38.808Z</time></trkpt><trkpt lat="43.7811953" lon="12.3364539"><ele>751.0</ele><time>2026-05-01T09:27:40.796Z</time></trkpt><trkpt lat="43.7811276" lon="12.3364081"><ele>751.0</ele><time>2026-05-01T09:27:43.815Z</time></trkpt><trkpt lat="43.7810728" lon="12.33633"><ele>751.0</ele><time>2026-05-01T09:27:46.807Z</time></trkpt><trkpt lat="43.7810034" lon="12.3362389"><ele>751.0</ele><time>2026-05-01T09:27:49.805Z</time></trkpt><trkpt lat="43.7809479" lon="12.3361529"><ele>751.0</ele><time>2026-05-01T09:27:51.802Z</time></trkpt><trkpt lat="43.7808966" lon="12.3360595"><ele>751.0</ele><time>2026-05-01T09:27:53.805Z</time></trkpt><trkpt lat="43.7808465" lon="12.3359683"><ele>750.3333333333334</ele><time>2026-05-01T09:27:55.81Z</time></trkpt><trkpt lat="43.7807954" lon="12.3358842"><ele>749.6666666666667</ele><time>2026-05-01T09:27:57.812Z</time></trkpt><trkpt lat="43.7807395" lon="12.3358011"><ele>749.0</ele><time>2026-05-01T09:27:59.824Z</time></trkpt><trkpt lat="43.7806847" lon="12.3357431"><ele>748.3333333333334</ele><time>2026-05-01T09:28:11.802Z</time></trkpt><trkpt lat="43.7806076" lon="12.3357839"><ele>747.6666666666666</ele><time>2026-05-01T09:28:17.81Z</time></trkpt><trkpt lat="43.7805636" lon="12.3358616"><ele>747.0</ele><time>2026-05-01T09:28:19.805Z</time></trkpt><trkpt lat="43.7804993" lon="12.3359528"><ele>747.0</ele><time>2026-05-01T09:28:21.798Z</time></trkpt><trkpt lat="43.7804292" lon="12.3360483"><ele>747.0</ele><time>2026-05-01T09:28:23.813Z</time></trkpt><trkpt lat="43.7803714" lon="12.3361262"><ele>747.0</ele><time>2026-05-01T09:28:25.803Z</time></trkpt><trkpt lat="43.7803174" lon="12.3362273"><ele>747.0</ele><time>2026-05-01T09:28:28.819Z</time></trkpt><trkpt lat="43.7802847" lon="12.336304"><ele>747.0</ele><time>2026-05-01T09:28:30.801Z</time></trkpt><trkpt lat="43.7802265" lon="12.3364005"><ele>747.0</ele><time>2026-05-01T09:28:32.806Z</time></trkpt><trkpt lat="43.7801621" lon="12.3365161"><ele>744.8333333333334</ele><time>2026-05-01T09:28:34.804Z</time></trkpt><trkpt lat="43.7800945" lon="12.3366495"><ele>742.6666666666666</ele><time>2026-05-01T09:28:36.812Z</time></trkpt><trkpt lat="43.7800627" lon="12.3367272"><ele>740.5</ele><time>2026-05-01T09:28:37.806Z</time></trkpt><trkpt lat="43.7800281" lon="12.3368018"><ele>738.3333333333333</ele><time>2026-05-01T09:28:38.803Z</time></trkpt><trkpt lat="43.7799867" lon="12.3368789"><ele>736.1666666666666</ele><time>2026-05-01T09:28:39.792Z</time></trkpt><trkpt lat="43.7799154" lon="12.337017"><ele>734.0</ele><time>2026-05-01T09:28:41.813Z</time></trkpt><trkpt lat="43.7798577" lon="12.3371423"><ele>732.2</ele><time>2026-05-01T09:28:43.815Z</time></trkpt><trkpt lat="43.779802" lon="12.3372713"><ele>730.4000000000001</ele><time>2026-05-01T09:28:45.812Z</time></trkpt><trkpt lat="43.7797475" lon="12.3373895"><ele>728.6</ele><time>2026-05-01T09:28:47.801Z</time></trkpt><trkpt lat="43.7797003" lon="12.3374899"><ele>726.8</ele><time>2026-05-01T09:28:49.809Z</time></trkpt><trkpt lat="43.7796501" lon="12.337559"><ele>725.0</ele><time>2026-05-01T09:28:52.806Z</time></trkpt><trkpt lat="43.7795354" lon="12.3375212"><ele>725.0</ele><time>2026-05-01T09:28:58.8Z</time></trkpt><trkpt lat="43.7794568" lon="12.3374535"><ele>725.0</ele><time>2026-05-01T09:28:59.814Z</time></trkpt><trkpt lat="43.7793772" lon="12.337385"><ele>725.0</ele><time>2026-05-01T09:29:00.801Z</time></trkpt><trkpt lat="43.7792863" lon="12.3373202"><ele>725.0</ele><time>2026-05-01T09:29:01.817Z</time></trkpt><trkpt lat="43.7791887" lon="12.337248"><ele>725.0</ele><time>2026-05-01T09:29:02.801Z</time></trkpt><trkpt lat="43.7790785" lon="12.3371657"><ele>724.75</ele><time>2026-05-01T09:29:03.809Z</time></trkpt><trkpt lat="43.778965" lon="12.3370719"><ele>724.5</ele><time>2026-05-01T09:29:04.8Z</time></trkpt><trkpt lat="43.7788472" lon="12.3369875"><ele>724.25</ele><time>2026-05-01T09:29:05.82Z</time></trkpt><trkpt lat="43.7787349" lon="12.3369055"><ele>724.0</ele><time>2026-05-01T09:29:06.8Z</time></trkpt><trkpt lat="43.7786314" lon="12.3368279"><ele>724.0</ele><time>2026-05-01T09:29:07.807Z</time></trkpt><trkpt lat="43.7785383" lon="12.336757"><ele>724.0</ele><time>2026-05-01T09:29:08.799Z</time></trkpt><trkpt lat="43.7784498" lon="12.3366931"><ele>724.0</ele><time>2026-05-01T09:29:09.797Z</time></trkpt><trkpt lat="43.7783597" lon="12.3366213"><ele>724.0</ele><time>2026-05-01T09:29:10.799Z</time></trkpt><trkpt lat="43.7782869" lon="12.3365393"><ele>724.0</ele><time>2026-05-01T09:29:11.811Z</time></trkpt><trkpt lat="43.7782265" lon="12.3364527"><ele>724.5</ele><time>2026-05-01T09:29:12.811Z</time></trkpt><trkpt lat="43.7781664" lon="12.3363748"><ele>725.0</ele><time>2026-05-01T09:29:13.828Z</time></trkpt><trkpt lat="43.7781007" lon="12.3363221"><ele>725.5</ele><time>2026-05-01T09:29:14.798Z</time></trkpt><trkpt lat="43.7780162" lon="12.3363054"><ele>726.0</ele><time>2026-05-01T09:29:15.809Z</time></trkpt><trkpt lat="43.7779244" lon="12.3363075"><ele>726.5</ele><time>2026-05-01T09:29:16.799Z</time></trkpt><trkpt lat="43.7778166" lon="12.336321"><ele>727.0</ele><time>2026-05-01T09:29:17.805Z</time></trkpt><trkpt lat="43.7776962" lon="12.3363311"><ele>727.25</ele><time>2026-05-01T09:29:18.804Z</time></trkpt><trkpt lat="43.7775627" lon="12.3363261"><ele>727.5</ele><time>2026-05-01T09:29:19.803Z</time></trkpt><trkpt lat="43.7774168" lon="12.336318"><ele>727.75</ele><time>2026-05-01T09:29:20.808Z</time></trkpt><trkpt lat="43.7772654" lon="12.3363153"><ele>728.0</ele><time>2026-05-01T09:29:21.818Z</time></trkpt><trkpt lat="43.7771125" lon="12.3363173"><ele>728.0</ele><time>2026-05-01T09:29:22.811Z</time></trkpt><trkpt lat="43.7769598" lon="12.3363223"><ele>728.0</ele><time>2026-05-01T09:29:23.811Z</time></trkpt><trkpt lat="43.7768118" lon="12.336322"><ele>728.0</ele><time>2026-05-01T09:29:24.808Z</time></trkpt><trkpt lat="43.776672" lon="12.3363217"><ele>728.0</ele><time>2026-05-01T09:29:25.823Z</time></trkpt><trkpt lat="43.7765347" lon="12.3363253"><ele>726.75</ele><time>2026-05-01T09:29:26.804Z</time></trkpt><trkpt lat="43.7763993" lon="12.3363285"><ele>725.5</ele><time>2026-05-01T09:29:27.802Z</time></trkpt><trkpt lat="43.7762654" lon="12.3363309"><ele>724.25</ele><time>2026-05-01T09:29:28.808Z</time></trkpt><trkpt lat="43.7761374" lon="12.3363328"><ele>723.0</ele><time>2026-05-01T09:29:29.806Z</time></trkpt><trkpt lat="43.7760076" lon="12.3363325"><ele>721.75</ele><time>2026-05-01T09:29:30.806Z</time></trkpt><trkpt lat="43.7758737" lon="12.3363249"><ele>720.5</ele><time>2026-05-01T09:29:31.807Z</time></trkpt><trkpt lat="43.7757318" lon="12.3363169"><ele>719.25</ele><time>2026-05-01T09:29:32.818Z</time></trkpt><trkpt lat="43.7755882" lon="12.3363062"><ele>718.0</ele><time>2026-05-01T09:29:33.808Z</time></trkpt><trkpt lat="43.7754531" lon="12.3363029"><ele>718.0</ele><time>2026-05-01T09:29:34.814Z</time></trkpt><trkpt lat="43.7753222" lon="12.3362911"><ele>718.0</ele><time>2026-05-01T09:29:35.802Z</time></trkpt><trkpt lat="43.775189" lon="12.3362881"><ele>718.0</ele><time>2026-05-01T09:29:36.809Z</time></trkpt><trkpt lat="43.7750677" lon="12.3363035"><ele>718.0</ele><time>2026-05-01T09:29:37.807Z</time></trkpt><trkpt lat="43.7749433" lon="12.3363511"><ele>717.25</ele><time>2026-05-01T09:29:38.806Z</time></trkpt><trkpt lat="43.7748241" lon="12.3364214"><ele>716.5</ele><time>2026-05-01T09:29:39.805Z</time></trkpt><trkpt lat="43.7747081" lon="12.3364949"><ele>715.75</ele><time>2026-05-01T09:29:40.807Z</time></trkpt><trkpt lat="43.7745945" lon="12.3365759"><ele>715.0</ele><time>2026-05-01T09:29:41.825Z</time></trkpt><trkpt lat="43.7744718" lon="12.3366664"><ele>717.0</ele><time>2026-05-01T09:29:42.808Z</time></trkpt><trkpt lat="43.77435" lon="12.3367638"><ele>719.0</ele><time>2026-05-01T09:29:43.809Z</time></trkpt><trkpt lat="43.7742259" lon="12.3368684"><ele>721.0</ele><time>2026-05-01T09:29:44.808Z</time></trkpt><trkpt lat="43.7741088" lon="12.3369784"><ele>723.0</ele><time>2026-05-01T09:29:45.807Z</time></trkpt><trkpt lat="43.7739955" lon="12.3370981"><ele>720.75</ele><time>2026-05-01T09:29:46.809Z</time></trkpt><trkpt lat="43.7738877" lon="12.3372212"><ele>718.5</ele><time>2026-05-01T09:29:47.805Z</time></trkpt><trkpt lat="43.7737731" lon="12.3373475"><ele>716.25</ele><time>2026-05-01T09:29:48.8Z</time></trkpt><trkpt lat="43.7736533" lon="12.3374712"><ele>714.0</ele><time>2026-05-01T09:29:49.807Z</time></trkpt><trkpt lat="43.7735349" lon="12.3375945"><ele>714.25</ele><time>2026-05-01T09:29:50.801Z</time></trkpt><trkpt lat="43.773424" lon="12.3377144"><ele>714.5</ele><time>2026-05-01T09:29:51.81Z</time></trkpt><trkpt lat="43.7733275" lon="12.3378351"><ele>714.75</ele><time>2026-05-01T09:29:52.81Z</time></trkpt><trkpt lat="43.773243" lon="12.3379666"><ele>715.0</ele><time>2026-05-01T09:29:53.814Z</time></trkpt><trkpt lat="43.7731722" lon="12.3381138"><ele>715.0</ele><time>2026-05-01T09:29:54.807Z</time></trkpt><trkpt lat="43.7731201" lon="12.3382746"><ele>715.0</ele><time>2026-05-01T09:29:55.809Z</time></trkpt><trkpt lat="43.7730804" lon="12.3384441"><ele>715.0</ele><time>2026-05-01T09:29:56.803Z</time></trkpt><trkpt lat="43.7730536" lon="12.3386199"><ele>715.0</ele><time>2026-05-01T09:29:57.813Z</time></trkpt><trkpt lat="43.7730276" lon="12.338789"><ele>714.5</ele><time>2026-05-01T09:29:58.814Z</time></trkpt><trkpt lat="43.7730037" lon="12.3389494"><ele>714.0</ele><time>2026-05-01T09:29:59.808Z</time></trkpt><trkpt lat="43.7729783" lon="12.3391085"><ele>713.5</ele><time>2026-05-01T09:30:00.806Z</time></trkpt><trkpt lat="43.7729411" lon="12.3392597"><ele>713.0</ele><time>2026-05-01T09:30:01.809Z</time></trkpt><trkpt lat="43.7728965" lon="12.3393967"><ele>713.0</ele><time>2026-05-01T09:30:02.815Z</time></trkpt><trkpt lat="43.7728396" lon="12.3395251"><ele>713.0</ele><time>2026-05-01T09:30:03.808Z</time></trkpt><trkpt lat="43.7727629" lon="12.3396392"><ele>713.0</ele><time>2026-05-01T09:30:04.806Z</time></trkpt><trkpt lat="43.7726814" lon="12.3397348"><ele>713.0</ele><time>2026-05-01T09:30:05.81Z</time></trkpt><trkpt lat="43.7725905" lon="12.3398161"><ele>713.0</ele><time>2026-05-01T09:30:06.815Z</time></trkpt><trkpt lat="43.7724925" lon="12.3398789"><ele>715.5</ele><time>2026-05-01T09:30:07.811Z</time></trkpt><trkpt lat="43.772377" lon="12.3399262"><ele>718.0</ele><time>2026-05-01T09:30:08.795Z</time></trkpt><trkpt lat="43.7722557" lon="12.3399619"><ele>720.5</ele><time>2026-05-01T09:30:09.8Z</time></trkpt><trkpt lat="43.7721308" lon="12.3400016"><ele>723.0</ele><time>2026-05-01T09:30:10.792Z</time></trkpt><trkpt lat="43.772004" lon="12.3400513"><ele>723.0</ele><time>2026-05-01T09:30:11.801Z</time></trkpt><trkpt lat="43.7718784" lon="12.3401032"><ele>723.0</ele><time>2026-05-01T09:30:12.806Z</time></trkpt><trkpt lat="43.7717486" lon="12.3401587"><ele>723.0</ele><time>2026-05-01T09:30:13.797Z</time></trkpt><trkpt lat="43.7716082" lon="12.3402101"><ele>723.0</ele><time>2026-05-01T09:30:14.811Z</time></trkpt><trkpt lat="43.7714644" lon="12.3402699"><ele>723.0</ele><time>2026-05-01T09:30:15.811Z</time></trkpt><trkpt lat="43.7713093" lon="12.3403294"><ele>723.0</ele><time>2026-05-01T09:30:16.81Z</time></trkpt><trkpt lat="43.7711536" lon="12.3403889"><ele>723.0</ele><time>2026-05-01T09:30:17.812Z</time></trkpt><trkpt lat="43.7709955" lon="12.3404505"><ele>723.0</ele><time>2026-05-01T09:30:18.8Z</time></trkpt><trkpt lat="43.7708374" lon="12.3405126"><ele>723.0</ele><time>2026-05-01T09:30:19.822Z</time></trkpt><trkpt lat="43.7706755" lon="12.3405765"><ele>723.0</ele><time>2026-05-01T09:30:20.805Z</time></trkpt><trkpt lat="43.7705114" lon="12.3406372"><ele>720.6666666666666</ele><time>2026-05-01T09:30:21.803Z</time></trkpt><trkpt lat="43.7703461" lon="12.3406932"><ele>718.3333333333333</ele><time>2026-05-01T09:30:22.812Z</time></trkpt><trkpt lat="43.7701821" lon="12.3407535"><ele>716.0</ele><time>2026-05-01T09:30:23.81Z</time></trkpt><trkpt lat="43.7700229" lon="12.3408155"><ele>715.0</ele><time>2026-05-01T09:30:24.81Z</time></trkpt><trkpt lat="43.7698658" lon="12.3408757"><ele>714.0</ele><time>2026-05-01T09:30:25.816Z</time></trkpt><trkpt lat="43.7697055" lon="12.3409364"><ele>713.0</ele><time>2026-05-01T09:30:26.798Z</time></trkpt><trkpt lat="43.7695418" lon="12.3409967"><ele>713.0</ele><time>2026-05-01T09:30:27.806Z</time></trkpt><trkpt lat="43.7693844" lon="12.341045"><ele>713.0</ele><time>2026-05-01T09:30:28.799Z</time></trkpt><trkpt lat="43.7692321" lon="12.3410904"><ele>713.0</ele><time>2026-05-01T09:30:29.801Z</time></trkpt><trkpt lat="43.7690834" lon="12.3411264"><ele>714.5</ele><time>2026-05-01T09:30:30.809Z</time></trkpt><trkpt lat="43.7689418" lon="12.3411619"><ele>716.0</ele><time>2026-05-01T09:30:31.804Z</time></trkpt><trkpt lat="43.7688193" lon="12.3411916"><ele>717.5</ele><time>2026-05-01T09:30:32.808Z</time></trkpt><trkpt lat="43.7687156" lon="12.3412069"><ele>719.0</ele><time>2026-05-01T09:30:33.799Z</time></trkpt><trkpt lat="43.7686322" lon="12.3412001"><ele>719.0</ele><time>2026-05-01T09:30:34.794Z</time></trkpt><trkpt lat="43.7685661" lon="12.3411786"><ele>719.0</ele><time>2026-05-01T09:30:35.81Z</time></trkpt><trkpt lat="43.7684767" lon="12.3410717"><ele>719.0</ele><time>2026-05-01T09:30:37.799Z</time></trkpt><trkpt lat="43.7684356" lon="12.3409786"><ele>719.0</ele><time>2026-05-01T09:30:38.792Z</time></trkpt><trkpt lat="43.7684013" lon="12.3408745"><ele>719.0</ele><time>2026-05-01T09:30:39.802Z</time></trkpt><trkpt lat="43.7683691" lon="12.340768"><ele>719.0</ele><time>2026-05-01T09:30:40.805Z</time></trkpt><trkpt lat="43.7683372" lon="12.340645"><ele>720.4000000000001</ele><time>2026-05-01T09:30:41.803Z</time></trkpt><trkpt lat="43.7683044" lon="12.3405153"><ele>721.8</ele><time>2026-05-01T09:30:42.809Z</time></trkpt><trkpt lat="43.7682712" lon="12.3403783"><ele>723.2</ele><time>2026-05-01T09:30:43.813Z</time></trkpt><trkpt lat="43.7682426" lon="12.3402304"><ele>724.5999999999999</ele><time>2026-05-01T09:30:44.805Z</time></trkpt><trkpt lat="43.7682162" lon="12.3400842"><ele>726.0</ele><time>2026-05-01T09:30:45.806Z</time></trkpt><trkpt lat="43.7681813" lon="12.3399346"><ele>726.0</ele><time>2026-05-01T09:30:46.807Z</time></trkpt><trkpt lat="43.7681349" lon="12.3397883"><ele>726.0</ele><time>2026-05-01T09:30:47.806Z</time></trkpt><trkpt lat="43.7680808" lon="12.3396451"><ele>726.0</ele><time>2026-05-01T09:30:48.801Z</time></trkpt><trkpt lat="43.7680197" lon="12.3394923"><ele>726.0</ele><time>2026-05-01T09:30:49.801Z</time></trkpt><trkpt lat="43.767962" lon="12.339355"><ele>726.8</ele><time>2026-05-01T09:30:50.796Z</time></trkpt><trkpt lat="43.7679078" lon="12.3392248"><ele>727.5999999999999</ele><time>2026-05-01T09:30:51.808Z</time></trkpt><trkpt lat="43.7678503" lon="12.3390981"><ele>728.4</ele><time>2026-05-01T09:30:52.803Z</time></trkpt><trkpt lat="43.7677879" lon="12.3389819"><ele>729.2</ele><time>2026-05-01T09:30:53.808Z</time></trkpt><trkpt lat="43.7677212" lon="12.3388692"><ele>730.0</ele><time>2026-05-01T09:30:54.804Z</time></trkpt><trkpt lat="43.7676379" lon="12.3387634"><ele>732.75</ele><time>2026-05-01T09:30:55.8Z</time></trkpt><trkpt lat="43.7675521" lon="12.3386719"><ele>735.5</ele><time>2026-05-01T09:30:56.809Z</time></trkpt><trkpt lat="43.7674662" lon="12.338568"><ele>738.25</ele><time>2026-05-01T09:30:57.815Z</time></trkpt><trkpt lat="43.7673835" lon="12.3384658"><ele>741.0</ele><time>2026-05-01T09:30:58.821Z</time></trkpt><trkpt lat="43.7673019" lon="12.3383477"><ele>741.0</ele><time>2026-05-01T09:30:59.804Z</time></trkpt><trkpt lat="43.7672131" lon="12.3382235"><ele>741.0</ele><time>2026-05-01T09:31:00.808Z</time></trkpt><trkpt lat="43.7671224" lon="12.3381128"><ele>741.0</ele><time>2026-05-01T09:31:01.805Z</time></trkpt><trkpt lat="43.7670295" lon="12.3380077"><ele>741.0</ele><time>2026-05-01T09:31:02.794Z</time></trkpt><trkpt lat="43.7669363" lon="12.3379041"><ele>744.0</ele><time>2026-05-01T09:31:03.799Z</time></trkpt><trkpt lat="43.766844" lon="12.3378018"><ele>747.0</ele><time>2026-05-01T09:31:04.816Z</time></trkpt><trkpt lat="43.7667485" lon="12.3377054"><ele>750.0</ele><time>2026-05-01T09:31:05.806Z</time></trkpt><trkpt lat="43.7666485" lon="12.3376159"><ele>753.0</ele><time>2026-05-01T09:31:06.801Z</time></trkpt><trkpt lat="43.7665576" lon="12.3375474"><ele>753.0</ele><time>2026-05-01T09:31:07.807Z</time></trkpt><trkpt lat="43.7664798" lon="12.3375003"><ele>753.0</ele><time>2026-05-01T09:31:08.815Z</time></trkpt><trkpt lat="43.7664176" lon="12.3374463"><ele>753.0</ele><time>2026-05-01T09:31:09.798Z</time></trkpt><trkpt lat="43.7663604" lon="12.3373818"><ele>753.0</ele><time>2026-05-01T09:31:10.807Z</time></trkpt><trkpt lat="43.7663018" lon="12.3372928"><ele>753.0</ele><time>2026-05-01T09:31:11.814Z</time></trkpt><trkpt lat="43.7662434" lon="12.3372024"><ele>753.0</ele><time>2026-05-01T09:31:12.803Z</time></trkpt><trkpt lat="43.7661741" lon="12.3371039"><ele>752.3333333333334</ele><time>2026-05-01T09:31:13.802Z</time></trkpt><trkpt lat="43.7661065" lon="12.3370048"><ele>751.6666666666666</ele><time>2026-05-01T09:31:14.8Z</time></trkpt><trkpt lat="43.7660355" lon="12.3368962"><ele>751.0</ele><time>2026-05-01T09:31:15.809Z</time></trkpt><trkpt lat="43.7659703" lon="12.3367952"><ele>750.3333333333333</ele><time>2026-05-01T09:31:16.807Z</time></trkpt><trkpt lat="43.7659161" lon="12.3367143"><ele>749.6666666666666</ele><time>2026-05-01T09:31:17.813Z</time></trkpt><trkpt lat="43.7658672" lon="12.3366552"><ele>749.0</ele><time>2026-05-01T09:31:18.805Z</time></trkpt><trkpt lat="43.7658123" lon="12.336603"><ele>750.6666666666666</ele><time>2026-05-01T09:31:19.818Z</time></trkpt><trkpt lat="43.7656926" lon="12.3365656"><ele>752.3333333333333</ele><time>2026-05-01T09:31:21.808Z</time></trkpt><trkpt lat="43.765626" lon="12.3365694"><ele>754.0</ele><time>2026-05-01T09:31:22.806Z</time></trkpt><trkpt lat="43.7655579" lon="12.3365775"><ele>755.6666666666666</ele><time>2026-05-01T09:31:23.814Z</time></trkpt><trkpt lat="43.7654871" lon="12.3365754"><ele>757.3333333333334</ele><time>2026-05-01T09:31:24.809Z</time></trkpt><trkpt lat="43.7654074" lon="12.3365618"><ele>759.0</ele><time>2026-05-01T09:31:25.805Z</time></trkpt><trkpt lat="43.7653343" lon="12.3365415"><ele>759.0</ele><time>2026-05-01T09:31:26.798Z</time></trkpt><trkpt lat="43.7652604" lon="12.3365123"><ele>759.0</ele><time>2026-05-01T09:31:27.806Z</time></trkpt><trkpt lat="43.7651886" lon="12.3364941"><ele>759.0</ele><time>2026-05-01T09:31:28.797Z</time></trkpt><trkpt lat="43.7651222" lon="12.3364579"><ele>759.0</ele><time>2026-05-01T09:31:29.807Z</time></trkpt><trkpt lat="43.7650493" lon="12.3364196"><ele>759.0</ele><time>2026-05-01T09:31:30.807Z</time></trkpt><trkpt lat="43.7649776" lon="12.3363767"><ele>759.0</ele><time>2026-05-01T09:31:31.809Z</time></trkpt><trkpt lat="43.7649061" lon="12.3363304"><ele>760.8571428571429</ele><time>2026-05-01T09:31:32.808Z</time></trkpt><trkpt lat="43.7648397" lon="12.3362759"><ele>762.7142857142857</ele><time>2026-05-01T09:31:33.82Z</time></trkpt><trkpt lat="43.7647836" lon="12.3362198"><ele>764.5714285714287</ele><time>2026-05-01T09:31:34.8Z</time></trkpt><trkpt lat="43.7647318" lon="12.3361626"><ele>766.4285714285714</ele><time>2026-05-01T09:31:35.804Z</time></trkpt><trkpt lat="43.7646769" lon="12.3361066"><ele>768.2857142857143</ele><time>2026-05-01T09:31:36.819Z</time></trkpt><trkpt lat="43.7646252" lon="12.3360449"><ele>770.1428571428572</ele><time>2026-05-01T09:31:37.81Z</time></trkpt><trkpt lat="43.764576" lon="12.3359787"><ele>772.0</ele><time>2026-05-01T09:31:38.801Z</time></trkpt><trkpt lat="43.7645309" lon="12.335899"><ele>772.0000000000001</ele><time>2026-05-01T09:31:39.807Z</time></trkpt><trkpt lat="43.76449" lon="12.3358257"><ele>772.0</ele><time>2026-05-01T09:31:40.804Z</time></trkpt><trkpt lat="43.7644481" lon="12.335753"><ele>772.0</ele><time>2026-05-01T09:31:41.807Z</time></trkpt><trkpt lat="43.7644009" lon="12.3356809"><ele>772.0</ele><time>2026-05-01T09:31:42.806Z</time></trkpt><trkpt lat="43.7643483" lon="12.3356145"><ele>772.0</ele><time>2026-05-01T09:31:43.807Z</time></trkpt><trkpt lat="43.7642937" lon="12.3355438"><ele>772.0000000000001</ele><time>2026-05-01T09:31:44.795Z</time></trkpt><trkpt lat="43.7642406" lon="12.3354795"><ele>772.0</ele><time>2026-05-01T09:31:45.8Z</time></trkpt><trkpt lat="43.7641875" lon="12.3354084"><ele>773.2857142857143</ele><time>2026-05-01T09:31:46.799Z</time></trkpt><trkpt lat="43.764132" lon="12.335337"><ele>774.5714285714286</ele><time>2026-05-01T09:31:47.8Z</time></trkpt><trkpt lat="43.7640878" lon="12.3352707"><ele>775.8571428571429</ele><time>2026-05-01T09:31:48.803Z</time></trkpt><trkpt lat="43.7640383" lon="12.3352121"><ele>777.1428571428571</ele><time>2026-05-01T09:31:51.809Z</time></trkpt><trkpt lat="43.7639877" lon="12.3351454"><ele>778.4285714285714</ele><time>2026-05-01T09:31:57.804Z</time></trkpt><trkpt lat="43.7639158" lon="12.3350537"><ele>779.7142857142858</ele><time>2026-05-01T09:31:59.805Z</time></trkpt><trkpt lat="43.7638727" lon="12.334975"><ele>781.0</ele><time>2026-05-01T09:32:05.807Z</time></trkpt><trkpt lat="43.763828" lon="12.3349019"><ele>780.9999999999999</ele><time>2026-05-01T09:32:08.805Z</time></trkpt><trkpt lat="43.7637528" lon="12.3348071"><ele>781.0</ele><time>2026-05-01T09:32:40.803Z</time></trkpt><trkpt lat="43.7636617" lon="12.3346985"><ele>781.0</ele><time>2026-05-01T09:32:42.815Z</time></trkpt><trkpt lat="43.7636099" lon="12.3346396"><ele>781.0</ele><time>2026-05-01T09:32:43.805Z</time></trkpt><trkpt lat="43.7635528" lon="12.3345753"><ele>780.9999999999999</ele><time>2026-05-01T09:32:44.817Z</time></trkpt><trkpt lat="43.7634915" lon="12.3345055"><ele>781.0</ele><time>2026-05-01T09:32:45.802Z</time></trkpt><trkpt lat="43.7634356" lon="12.3344251"><ele>783.1999999999999</ele><time>2026-05-01T09:32:46.807Z</time></trkpt><trkpt lat="43.7633731" lon="12.3343304"><ele>785.4</ele><time>2026-05-01T09:32:47.806Z</time></trkpt><trkpt lat="43.7633134" lon="12.3342446"><ele>787.6</ele><time>2026-05-01T09:32:48.805Z</time></trkpt><trkpt lat="43.7632452" lon="12.3341617"><ele>789.8</ele><time>2026-05-01T09:32:49.809Z</time></trkpt><trkpt lat="43.7631864" lon="12.334065"><ele>792.0</ele><time>2026-05-01T09:32:50.807Z</time></trkpt><trkpt lat="43.7631216" lon="12.3339686"><ele>792.0</ele><time>2026-05-01T09:32:51.811Z</time></trkpt><trkpt lat="43.7630559" lon="12.3338776"><ele>792.0</ele><time>2026-05-01T09:32:52.816Z</time></trkpt><trkpt lat="43.7630012" lon="12.3337853"><ele>792.0</ele><time>2026-05-01T09:32:53.809Z</time></trkpt><trkpt lat="43.7629501" lon="12.333697"><ele>792.0</ele><time>2026-05-01T09:32:54.809Z</time></trkpt><trkpt lat="43.7629003" lon="12.3336207"><ele>792.0</ele><time>2026-05-01T09:32:55.815Z</time></trkpt><trkpt lat="43.7628505" lon="12.3335411"><ele>792.0</ele><time>2026-05-01T09:32:56.807Z</time></trkpt><trkpt lat="43.7628122" lon="12.3334627"><ele>792.0</ele><time>2026-05-01T09:32:57.821Z</time></trkpt><trkpt lat="43.7627564" lon="12.3333474"><ele>792.0</ele><time>2026-05-01T09:32:59.811Z</time></trkpt><trkpt lat="43.7627316" lon="12.3332236"><ele>792.0</ele><time>2026-05-01T09:33:01.8Z</time></trkpt><trkpt lat="43.7627227" lon="12.3331135"><ele>792.0</ele><time>2026-05-01T09:38:13.806Z</time></trkpt><trkpt lat="43.7626655" lon="12.333151"><ele>792.0</ele><time>2026-05-01T09:38:16.798Z</time></trkpt><trkpt lat="43.762713" lon="12.3332446"><ele>792.0</ele><time>2026-05-01T09:38:19.815Z</time></trkpt><trkpt lat="43.7627624" lon="12.3333526"><ele>792.0</ele><time>2026-05-01T09:38:22.816Z</time></trkpt><trkpt lat="43.7628272" lon="12.3334715"><ele>792.0</ele><time>2026-05-01T09:38:24.811Z</time></trkpt><trkpt lat="43.7629072" lon="12.3336188"><ele>792.0</ele><time>2026-05-01T09:38:26.805Z</time></trkpt><trkpt lat="43.7629531" lon="12.3336999"><ele>792.0</ele><time>2026-05-01T09:38:27.816Z</time></trkpt><trkpt lat="43.7630121" lon="12.3337893"><ele>792.0</ele><time>2026-05-01T09:38:28.804Z</time></trkpt><trkpt lat="43.7630753" lon="12.3338837"><ele>792.0</ele><time>2026-05-01T09:38:29.8Z</time></trkpt><trkpt lat="43.7631439" lon="12.3339813"><ele>792.0</ele><time>2026-05-01T09:38:30.817Z</time></trkpt><trkpt lat="43.7632196" lon="12.3340898"><ele>792.0</ele><time>2026-05-01T09:38:31.824Z</time></trkpt><trkpt lat="43.7632967" lon="12.3342047"><ele>792.0</ele><time>2026-05-01T09:38:32.812Z</time></trkpt><trkpt lat="43.7633727" lon="12.3343081"><ele>792.0</ele><time>2026-05-01T09:38:33.802Z</time></trkpt><trkpt lat="43.763452" lon="12.3344132"><ele>792.0</ele><time>2026-05-01T09:38:34.825Z</time></trkpt><trkpt lat="43.7635269" lon="12.334511"><ele>792.0</ele><time>2026-05-01T09:38:35.812Z</time></trkpt><trkpt lat="43.7636009" lon="12.3346041"><ele>792.0</ele><time>2026-05-01T09:38:36.812Z</time></trkpt><trkpt lat="43.7636786" lon="12.3346981"><ele>792.0</ele><time>2026-05-01T09:38:37.812Z</time></trkpt><trkpt lat="43.7637581" lon="12.334797"><ele>792.0</ele><time>2026-05-01T09:38:38.806Z</time></trkpt><trkpt lat="43.7638358" lon="12.3349043"><ele>790.1666666666666</ele><time>2026-05-01T09:38:39.809Z</time></trkpt><trkpt lat="43.7639105" lon="12.3350074"><ele>788.3333333333333</ele><time>2026-05-01T09:38:40.808Z</time></trkpt><trkpt lat="43.7639725" lon="12.3351055"><ele>786.5</ele><time>2026-05-01T09:38:41.82Z</time></trkpt><trkpt lat="43.7640298" lon="12.3351941"><ele>784.6666666666666</ele><time>2026-05-01T09:38:42.822Z</time></trkpt><trkpt lat="43.7640836" lon="12.3352728"><ele>782.8333333333333</ele><time>2026-05-01T09:38:43.815Z</time></trkpt><trkpt lat="43.7641395" lon="12.3353482"><ele>781.0</ele><time>2026-05-01T09:38:44.806Z</time></trkpt><trkpt lat="43.7641951" lon="12.3354275"><ele>781.0</ele><time>2026-05-01T09:38:45.821Z</time></trkpt><trkpt lat="43.7642434" lon="12.3355058"><ele>781.0</ele><time>2026-05-01T09:38:46.795Z</time></trkpt><trkpt lat="43.7642978" lon="12.335577"><ele>781.0</ele><time>2026-05-01T09:38:47.805Z</time></trkpt><trkpt lat="43.7643576" lon="12.3356404"><ele>781.0</ele><time>2026-05-01T09:38:48.822Z</time></trkpt><trkpt lat="43.7644164" lon="12.3357043"><ele>781.0</ele><time>2026-05-01T09:38:49.826Z</time></trkpt><trkpt lat="43.7644674" lon="12.3357748"><ele>781.0</ele><time>2026-05-01T09:38:50.809Z</time></trkpt><trkpt lat="43.7645124" lon="12.3358443"><ele>781.0</ele><time>2026-05-01T09:38:51.809Z</time></trkpt><trkpt lat="43.7646009" lon="12.3359663"><ele>779.1999999999999</ele><time>2026-05-01T09:38:53.806Z</time></trkpt><trkpt lat="43.7646776" lon="12.3360876"><ele>777.4</ele><time>2026-05-01T09:38:55.819Z</time></trkpt><trkpt lat="43.7647676" lon="12.3361998"><ele>775.6</ele><time>2026-05-01T09:38:57.802Z</time></trkpt><trkpt lat="43.7648215" lon="12.3362461"><ele>773.8</ele><time>2026-05-01T09:38:58.793Z</time></trkpt><trkpt lat="43.7649197" lon="12.3363214"><ele>772.0</ele><time>2026-05-01T09:39:00.812Z</time></trkpt><trkpt lat="43.765019" lon="12.3363942"><ele>770.4999999999999</ele><time>2026-05-01T09:39:02.814Z</time></trkpt><trkpt lat="43.7651121" lon="12.3364636"><ele>769.0</ele><time>2026-05-01T09:39:04.791Z</time></trkpt><trkpt lat="43.7652316" lon="12.3365293"><ele>767.5</ele><time>2026-05-01T09:39:06.803Z</time></trkpt><trkpt lat="43.7652997" lon="12.3365508"><ele>766.0</ele><time>2026-05-01T09:39:07.825Z</time></trkpt><trkpt lat="43.7653661" lon="12.3365685"><ele>764.5</ele><time>2026-05-01T09:39:08.806Z</time></trkpt><trkpt lat="43.7654391" lon="12.3365852"><ele>763.0</ele><time>2026-05-01T09:39:09.824Z</time></trkpt><trkpt lat="43.7655116" lon="12.3365847"><ele>762.3333333333334</ele><time>2026-05-01T09:39:10.803Z</time></trkpt><trkpt lat="43.7655881" lon="12.3365845"><ele>761.6666666666667</ele><time>2026-05-01T09:39:11.813Z</time></trkpt><trkpt lat="43.7656545" lon="12.3365717"><ele>761.0</ele><time>2026-05-01T09:39:12.816Z</time></trkpt><trkpt lat="43.7657695" lon="12.3365877"><ele>760.3333333333334</ele><time>2026-05-01T09:39:14.804Z</time></trkpt><trkpt lat="43.7658702" lon="12.3366853"><ele>759.6666666666666</ele><time>2026-05-01T09:39:16.804Z</time></trkpt><trkpt lat="43.7659125" lon="12.3367537"><ele>759.0</ele><time>2026-05-01T09:39:17.806Z</time></trkpt><trkpt lat="43.7659718" lon="12.3368386"><ele>757.8000000000001</ele><time>2026-05-01T09:39:18.822Z</time></trkpt><trkpt lat="43.7660365" lon="12.3369386"><ele>756.6</ele><time>2026-05-01T09:39:19.825Z</time></trkpt><trkpt lat="43.7660972" lon="12.3370323"><ele>755.4</ele><time>2026-05-01T09:39:20.824Z</time></trkpt><trkpt lat="43.7661603" lon="12.3371267"><ele>754.2</ele><time>2026-05-01T09:39:21.808Z</time></trkpt><trkpt lat="43.7662181" lon="12.3372153"><ele>753.0</ele><time>2026-05-01T09:39:22.816Z</time></trkpt><trkpt lat="43.7662789" lon="12.3373059"><ele>753.0</ele><time>2026-05-01T09:39:23.806Z</time></trkpt><trkpt lat="43.7663361" lon="12.3373872"><ele>753.0</ele><time>2026-05-01T09:39:24.81Z</time></trkpt><trkpt lat="43.7663946" lon="12.3374599"><ele>753.0</ele><time>2026-05-01T09:39:25.806Z</time></trkpt><trkpt lat="43.7664665" lon="12.3375294"><ele>753.0</ele><time>2026-05-01T09:39:26.799Z</time></trkpt><trkpt lat="43.7665422" lon="12.3375886"><ele>753.0</ele><time>2026-05-01T09:39:27.811Z</time></trkpt><trkpt lat="43.7666184" lon="12.3376485"><ele>753.0</ele><time>2026-05-01T09:39:28.792Z</time></trkpt><trkpt lat="43.7666919" lon="12.3377154"><ele>753.0</ele><time>2026-05-01T09:39:29.806Z</time></trkpt><trkpt lat="43.7667706" lon="12.3377909"><ele>753.0</ele><time>2026-05-01T09:39:30.804Z</time></trkpt><trkpt lat="43.7668461" lon="12.337869"><ele>753.0</ele><time>2026-05-01T09:39:31.806Z</time></trkpt><trkpt lat="43.7669258" lon="12.3379475"><ele>753.0</ele><time>2026-05-01T09:39:32.816Z</time></trkpt><trkpt lat="43.7670036" lon="12.3380322"><ele>753.0</ele><time>2026-05-01T09:39:33.804Z</time></trkpt><trkpt lat="43.7670786" lon="12.3381168"><ele>750.5999999999999</ele><time>2026-05-01T09:39:34.808Z</time></trkpt><trkpt lat="43.7671555" lon="12.3382064"><ele>748.1999999999999</ele><time>2026-05-01T09:39:35.824Z</time></trkpt><trkpt lat="43.7672295" lon="12.3383028"><ele>745.8</ele><time>2026-05-01T09:39:36.814Z</time></trkpt><trkpt lat="43.7673053" lon="12.3384115"><ele>743.4</ele><time>2026-05-01T09:39:37.804Z</time></trkpt><trkpt lat="43.7673877" lon="12.3385301"><ele>741.0</ele><time>2026-05-01T09:39:38.815Z</time></trkpt><trkpt lat="43.7674685" lon="12.3386394"><ele>741.0</ele><time>2026-05-01T09:39:39.817Z</time></trkpt><trkpt lat="43.7675496" lon="12.3387355"><ele>741.0</ele><time>2026-05-01T09:39:40.828Z</time></trkpt><trkpt lat="43.7676253" lon="12.3388327"><ele>741.0</ele><time>2026-05-01T09:39:41.803Z</time></trkpt><trkpt lat="43.7677009" lon="12.3389248"><ele>741.0</ele><time>2026-05-01T09:39:42.797Z</time></trkpt><trkpt lat="43.7677729" lon="12.3390378"><ele>741.0</ele><time>2026-05-01T09:39:43.808Z</time></trkpt><trkpt lat="43.7678371" lon="12.3391639"><ele>738.25</ele><time>2026-05-01T09:39:44.802Z</time></trkpt><trkpt lat="43.7678986" lon="12.3392897"><ele>735.5</ele><time>2026-05-01T09:39:45.832Z</time></trkpt><trkpt lat="43.7679489" lon="12.3394242"><ele>732.75</ele><time>2026-05-01T09:39:46.812Z</time></trkpt><trkpt lat="43.7680057" lon="12.3395667"><ele>730.0</ele><time>2026-05-01T09:39:47.807Z</time></trkpt><trkpt lat="43.7680717" lon="12.3397161"><ele>729.0</ele><time>2026-05-01T09:39:48.812Z</time></trkpt><trkpt lat="43.768131" lon="12.3398771"><ele>728.0</ele><time>2026-05-01T09:39:49.815Z</time></trkpt><trkpt lat="43.7681781" lon="12.3400253"><ele>727.0</ele><time>2026-05-01T09:39:50.806Z</time></trkpt><trkpt lat="43.7682114" lon="12.3401721"><ele>726.0</ele><time>2026-05-01T09:39:51.809Z</time></trkpt><trkpt lat="43.7682327" lon="12.3403089"><ele>726.0</ele><time>2026-05-01T09:39:52.808Z</time></trkpt><trkpt lat="43.7682516" lon="12.3404303"><ele>726.0</ele><time>2026-05-01T09:39:53.805Z</time></trkpt><trkpt lat="43.7682759" lon="12.3405464"><ele>726.0</ele><time>2026-05-01T09:39:54.816Z</time></trkpt><trkpt lat="43.7683089" lon="12.3406511"><ele>726.0</ele><time>2026-05-01T09:39:55.811Z</time></trkpt><trkpt lat="43.7683445" lon="12.340754"><ele>726.0</ele><time>2026-05-01T09:39:56.801Z</time></trkpt><trkpt lat="43.7683775" lon="12.3408537"><ele>726.0</ele><time>2026-05-01T09:39:57.807Z</time></trkpt><trkpt lat="43.7684077" lon="12.340949"><ele>725.1666666666666</ele><time>2026-05-01T09:39:58.797Z</time></trkpt><trkpt lat="43.7684427" lon="12.3410274"><ele>724.3333333333334</ele><time>2026-05-01T09:39:59.804Z</time></trkpt><trkpt lat="43.7684895" lon="12.3411474"><ele>723.5</ele><time>2026-05-01T09:40:01.81Z</time></trkpt><trkpt lat="43.7684657" lon="12.341237"><ele>722.6666666666667</ele><time>2026-05-01T09:40:03.815Z</time></trkpt><trkpt lat="43.7683599" lon="12.341281"><ele>721.8333333333334</ele><time>2026-05-01T09:40:05.808Z</time></trkpt><trkpt lat="43.7682854" lon="12.3412766"><ele>721.0</ele><time>2026-05-01T09:40:06.816Z</time></trkpt><trkpt lat="43.7682119" lon="12.3412435"><ele>721.0</ele><time>2026-05-01T09:40:07.815Z</time></trkpt><trkpt lat="43.7681296" lon="12.3412535"><ele>721.0</ele><time>2026-05-01T09:40:08.801Z</time></trkpt><trkpt lat="43.76803" lon="12.3412791"><ele>721.0</ele><time>2026-05-01T09:40:09.822Z</time></trkpt><trkpt lat="43.7679224" lon="12.3412981"><ele>721.0</ele><time>2026-05-01T09:40:10.798Z</time></trkpt><trkpt lat="43.7678111" lon="12.3413163"><ele>721.0</ele><time>2026-05-01T09:40:11.812Z</time></trkpt><trkpt lat="43.7676995" lon="12.341328"><ele>720.4</ele><time>2026-05-01T09:40:12.809Z</time></trkpt><trkpt lat="43.7675869" lon="12.3413384"><ele>719.8</ele><time>2026-05-01T09:40:13.806Z</time></trkpt><trkpt lat="43.7674832" lon="12.3413567"><ele>719.1999999999999</ele><time>2026-05-01T09:40:14.803Z</time></trkpt><trkpt lat="43.7673775" lon="12.3413731"><ele>718.5999999999999</ele><time>2026-05-01T09:40:15.807Z</time></trkpt><trkpt lat="43.7672638" lon="12.3413873"><ele>718.0</ele><time>2026-05-01T09:40:16.813Z</time></trkpt><trkpt lat="43.7671476" lon="12.3414056"><ele>717.0</ele><time>2026-05-01T09:40:17.796Z</time></trkpt><trkpt lat="43.767025" lon="12.3414256"><ele>716.0</ele><time>2026-05-01T09:40:18.805Z</time></trkpt><trkpt lat="43.7668989" lon="12.341441"><ele>715.0</ele><time>2026-05-01T09:40:19.81Z</time></trkpt><trkpt lat="43.7667697" lon="12.3414592"><ele>714.0</ele><time>2026-05-01T09:40:20.805Z</time></trkpt><trkpt lat="43.766635" lon="12.3414698"><ele>713.5</ele><time>2026-05-01T09:40:21.814Z</time></trkpt><trkpt lat="43.7665002" lon="12.3414772"><ele>713.0</ele><time>2026-05-01T09:40:22.807Z</time></trkpt><trkpt lat="43.7663678" lon="12.3414939"><ele>712.5</ele><time>2026-05-01T09:40:23.82Z</time></trkpt><trkpt lat="43.7662305" lon="12.3415182"><ele>712.0</ele><time>2026-05-01T09:40:24.81Z</time></trkpt><trkpt lat="43.7660969" lon="12.3415592"><ele>712.0</ele><time>2026-05-01T09:40:25.807Z</time></trkpt><trkpt lat="43.7659675" lon="12.3416155"><ele>712.0</ele><time>2026-05-01T09:40:26.796Z</time></trkpt><trkpt lat="43.765833" lon="12.3417011"><ele>712.0</ele><time>2026-05-01T09:40:27.807Z</time></trkpt><trkpt lat="43.7657145" lon="12.3418079"><ele>712.0</ele><time>2026-05-01T09:40:28.817Z</time></trkpt><trkpt lat="43.7656027" lon="12.34192"><ele>712.0</ele><time>2026-05-01T09:40:29.825Z</time></trkpt><trkpt lat="43.7654941" lon="12.3420314"><ele>712.0</ele><time>2026-05-01T09:40:30.804Z</time></trkpt><trkpt lat="43.7653937" lon="12.3421467"><ele>712.0</ele><time>2026-05-01T09:40:31.799Z</time></trkpt><trkpt lat="43.7653064" lon="12.3422667"><ele>712.0</ele><time>2026-05-01T09:40:32.823Z</time></trkpt><trkpt lat="43.7652302" lon="12.3424024"><ele>711.75</ele><time>2026-05-01T09:40:33.818Z</time></trkpt><trkpt lat="43.7651672" lon="12.3425614"><ele>711.5</ele><time>2026-05-01T09:40:34.802Z</time></trkpt><trkpt lat="43.7651266" lon="12.3427402"><ele>711.25</ele><time>2026-05-01T09:40:35.807Z</time></trkpt><trkpt lat="43.7651077" lon="12.3429292"><ele>711.0</ele><time>2026-05-01T09:40:36.822Z</time></trkpt><trkpt lat="43.7651028" lon="12.3431282"><ele>711.75</ele><time>2026-05-01T09:40:37.801Z</time></trkpt><trkpt lat="43.7651194" lon="12.3433397"><ele>712.5</ele><time>2026-05-01T09:40:38.791Z</time></trkpt><trkpt lat="43.7651546" lon="12.3435451"><ele>713.25</ele><time>2026-05-01T09:40:39.813Z</time></trkpt><trkpt lat="43.7651769" lon="12.3437335"><ele>714.0</ele><time>2026-05-01T09:40:40.797Z</time></trkpt><trkpt lat="43.7651833" lon="12.3438972"><ele>714.75</ele><time>2026-05-01T09:40:41.8Z</time></trkpt><trkpt lat="43.7651712" lon="12.3440475"><ele>715.5</ele><time>2026-05-01T09:40:42.809Z</time></trkpt><trkpt lat="43.7651381" lon="12.3441922"><ele>716.25</ele><time>2026-05-01T09:40:43.813Z</time></trkpt><trkpt lat="43.7650845" lon="12.3443373"><ele>717.0</ele><time>2026-05-01T09:40:44.809Z</time></trkpt><trkpt lat="43.7650155" lon="12.344487"><ele>717.0</ele><time>2026-05-01T09:40:45.801Z</time></trkpt><trkpt lat="43.7649214" lon="12.3446356"><ele>717.0</ele><time>2026-05-01T09:40:46.806Z</time></trkpt><trkpt lat="43.7648161" lon="12.3447706"><ele>717.0</ele><time>2026-05-01T09:40:47.804Z</time></trkpt><trkpt lat="43.7647034" lon="12.3448855"><ele>717.0</ele><time>2026-05-01T09:40:48.817Z</time></trkpt><trkpt lat="43.7645773" lon="12.3449763"><ele>715.25</ele><time>2026-05-01T09:40:49.815Z</time></trkpt><trkpt lat="43.7644446" lon="12.3450516"><ele>713.5</ele><time>2026-05-01T09:40:50.796Z</time></trkpt><trkpt lat="43.7643061" lon="12.345129"><ele>711.75</ele><time>2026-05-01T09:40:51.801Z</time></trkpt><trkpt lat="43.7641791" lon="12.3452222"><ele>710.0</ele><time>2026-05-01T09:40:52.81Z</time></trkpt><trkpt lat="43.7640753" lon="12.3453537"><ele>713.0</ele><time>2026-05-01T09:40:53.811Z</time></trkpt><trkpt lat="43.7639891" lon="12.3454868"><ele>716.0</ele><time>2026-05-01T09:40:54.801Z</time></trkpt><trkpt lat="43.7639225" lon="12.3456417"><ele>719.0</ele><time>2026-05-01T09:40:55.814Z</time></trkpt><trkpt lat="43.7638839" lon="12.3458114"><ele>722.0</ele><time>2026-05-01T09:40:56.805Z</time></trkpt><trkpt lat="43.7638774" lon="12.3459855"><ele>722.0</ele><time>2026-05-01T09:40:57.807Z</time></trkpt><trkpt lat="43.7638856" lon="12.3461633"><ele>722.0</ele><time>2026-05-01T09:40:58.816Z</time></trkpt><trkpt lat="43.7639209" lon="12.3463322"><ele>722.0</ele><time>2026-05-01T09:40:59.804Z</time></trkpt><trkpt lat="43.7639694" lon="12.346501"><ele>722.0</ele><time>2026-05-01T09:41:00.805Z</time></trkpt><trkpt lat="43.7640399" lon="12.3466616"><ele>722.6</ele><time>2026-05-01T09:41:01.81Z</time></trkpt><trkpt lat="43.7640932" lon="12.346817"><ele>723.2</ele><time>2026-05-01T09:41:02.797Z</time></trkpt><trkpt lat="43.7641156" lon="12.346966"><ele>723.8</ele><time>2026-05-01T09:41:03.814Z</time></trkpt><trkpt lat="43.7641144" lon="12.3471139"><ele>724.4</ele><time>2026-05-01T09:41:04.805Z</time></trkpt><trkpt lat="43.7640875" lon="12.3472563"><ele>725.0</ele><time>2026-05-01T09:41:05.801Z</time></trkpt><trkpt lat="43.7640308" lon="12.3473941"><ele>725.0</ele><time>2026-05-01T09:41:06.803Z</time></trkpt><trkpt lat="43.7639545" lon="12.347498"><ele>725.0</ele><time>2026-05-01T09:41:07.813Z</time></trkpt><trkpt lat="43.7638476" lon="12.3475895"><ele>725.0</ele><time>2026-05-01T09:41:08.792Z</time></trkpt><trkpt lat="43.7637348" lon="12.3476691"><ele>725.0</ele><time>2026-05-01T09:41:09.804Z</time></trkpt><trkpt lat="43.7636192" lon="12.3477461"><ele>724.4</ele><time>2026-05-01T09:41:10.8Z</time></trkpt><trkpt lat="43.7635267" lon="12.347835"><ele>723.8</ele><time>2026-05-01T09:41:11.799Z</time></trkpt><trkpt lat="43.7634356" lon="12.3479019"><ele>723.2</ele><time>2026-05-01T09:41:12.797Z</time></trkpt><trkpt lat="43.7633473" lon="12.3479801"><ele>722.6</ele><time>2026-05-01T09:41:13.802Z</time></trkpt><trkpt lat="43.7632649" lon="12.3480504"><ele>722.0</ele><time>2026-05-01T09:41:14.798Z</time></trkpt><trkpt lat="43.7631882" lon="12.3481182"><ele>722.0</ele><time>2026-05-01T09:41:15.799Z</time></trkpt><trkpt lat="43.7631283" lon="12.3481742"><ele>722.0</ele><time>2026-05-01T09:41:16.788Z</time></trkpt><trkpt lat="43.7630479" lon="12.3482445"><ele>722.0</ele><time>2026-05-01T09:41:18.796Z</time></trkpt><trkpt lat="43.7629944" lon="12.3482919"><ele>722.0</ele><time>2026-05-01T09:41:31.806Z</time></trkpt><trkpt lat="43.7629329" lon="12.3482726"><ele>722.0</ele><time>2026-05-01T09:41:35.797Z</time></trkpt><trkpt lat="43.7629378" lon="12.3483829"><ele>722.0</ele><time>2026-05-01T09:41:47.805Z</time></trkpt><trkpt lat="43.7628387" lon="12.3484982"><ele>722.0</ele><time>2026-05-01T09:41:49.795Z</time></trkpt><trkpt lat="43.7627732" lon="12.3485636"><ele>722.0</ele><time>2026-05-01T09:41:50.795Z</time></trkpt><trkpt lat="43.7626998" lon="12.3486326"><ele>722.0</ele><time>2026-05-01T09:41:51.805Z</time></trkpt><trkpt lat="43.7626175" lon="12.3487061"><ele>722.0</ele><time>2026-05-01T09:41:52.802Z</time></trkpt><trkpt lat="43.7625319" lon="12.3487871"><ele>722.0</ele><time>2026-05-01T09:41:53.801Z</time></trkpt><trkpt lat="43.7624444" lon="12.3488529"><ele>723.6</ele><time>2026-05-01T09:41:54.788Z</time></trkpt><trkpt lat="43.7623522" lon="12.3489015"><ele>725.2</ele><time>2026-05-01T09:41:55.8Z</time></trkpt><trkpt lat="43.7622509" lon="12.348936"><ele>726.8</ele><time>2026-05-01T09:41:56.796Z</time></trkpt><trkpt lat="43.7621318" lon="12.34895"><ele>728.4</ele><time>2026-05-01T09:41:57.802Z</time></trkpt><trkpt lat="43.7620188" lon="12.3489572"><ele>730.0</ele><time>2026-05-01T09:41:58.79Z</time></trkpt><trkpt lat="43.7618936" lon="12.348953"><ele>728.75</ele><time>2026-05-01T09:41:59.796Z</time></trkpt><trkpt lat="43.7617621" lon="12.3489516"><ele>727.5</ele><time>2026-05-01T09:42:00.789Z</time></trkpt><trkpt lat="43.7616283" lon="12.3489542"><ele>726.25</ele><time>2026-05-01T09:42:01.797Z</time></trkpt><trkpt lat="43.7614926" lon="12.348954"><ele>725.0</ele><time>2026-05-01T09:42:02.792Z</time></trkpt><trkpt lat="43.7613563" lon="12.3489572"><ele>725.0</ele><time>2026-05-01T09:42:03.803Z</time></trkpt><trkpt lat="43.7612238" lon="12.3489542"><ele>725.0</ele><time>2026-05-01T09:42:04.798Z</time></trkpt><trkpt lat="43.7611032" lon="12.3489505"><ele>725.0</ele><time>2026-05-01T09:42:05.799Z</time></trkpt><trkpt lat="43.7609887" lon="12.3489603"><ele>725.0</ele><time>2026-05-01T09:42:06.8Z</time></trkpt><trkpt lat="43.7608791" lon="12.3489969"><ele>725.5</ele><time>2026-05-01T09:42:07.813Z</time></trkpt><trkpt lat="43.7607595" lon="12.3490507"><ele>726.0</ele><time>2026-05-01T09:42:08.8Z</time></trkpt><trkpt lat="43.7606414" lon="12.349125"><ele>726.5</ele><time>2026-05-01T09:42:09.802Z</time></trkpt><trkpt lat="43.7605254" lon="12.3492028"><ele>727.0</ele><time>2026-05-01T09:42:10.804Z</time></trkpt><trkpt lat="43.7604118" lon="12.3492578"><ele>727.0</ele><time>2026-05-01T09:42:11.809Z</time></trkpt><trkpt lat="43.7603041" lon="12.3492786"><ele>727.0</ele><time>2026-05-01T09:42:12.793Z</time></trkpt><trkpt lat="43.760182" lon="12.3492724"><ele>727.0</ele><time>2026-05-01T09:42:13.797Z</time></trkpt><trkpt lat="43.7600686" lon="12.3492454"><ele>727.0</ele><time>2026-05-01T09:42:14.798Z</time></trkpt><trkpt lat="43.7599496" lon="12.3492106"><ele>728.75</ele><time>2026-05-01T09:42:15.802Z</time></trkpt><trkpt lat="43.7598209" lon="12.3491615"><ele>730.5</ele><time>2026-05-01T09:42:16.791Z</time></trkpt><trkpt lat="43.7596901" lon="12.3491018"><ele>732.25</ele><time>2026-05-01T09:42:17.796Z</time></trkpt><trkpt lat="43.7595561" lon="12.3490521"><ele>734.0</ele><time>2026-05-01T09:42:18.787Z</time></trkpt><trkpt lat="43.7594215" lon="12.3490099"><ele>733.0</ele><time>2026-05-01T09:42:19.799Z</time></trkpt><trkpt lat="43.7592918" lon="12.3489952"><ele>732.0</ele><time>2026-05-01T09:42:20.803Z</time></trkpt><trkpt lat="43.7591643" lon="12.349006"><ele>731.0</ele><time>2026-05-01T09:42:21.8Z</time></trkpt><trkpt lat="43.7590289" lon="12.3490427"><ele>730.0</ele><time>2026-05-01T09:42:22.808Z</time></trkpt><trkpt lat="43.7588975" lon="12.3490976"><ele>730.0</ele><time>2026-05-01T09:42:23.802Z</time></trkpt><trkpt lat="43.758766" lon="12.3491772"><ele>730.0</ele><time>2026-05-01T09:42:24.8Z</time></trkpt><trkpt lat="43.7586476" lon="12.3492806"><ele>730.0</ele><time>2026-05-01T09:42:25.798Z</time></trkpt><trkpt lat="43.7585385" lon="12.3494024"><ele>730.0</ele><time>2026-05-01T09:42:26.812Z</time></trkpt><trkpt lat="43.7584291" lon="12.3495574"><ele>730.75</ele><time>2026-05-01T09:42:27.812Z</time></trkpt><trkpt lat="43.7583242" lon="12.3497174"><ele>731.5</ele><time>2026-05-01T09:42:28.798Z</time></trkpt><trkpt lat="43.7582244" lon="12.3498661"><ele>732.25</ele><time>2026-05-01T09:42:29.793Z</time></trkpt><trkpt lat="43.7581363" lon="12.3499972"><ele>733.0</ele><time>2026-05-01T09:42:30.793Z</time></trkpt><trkpt lat="43.7580442" lon="12.3501281"><ele>733.0</ele><time>2026-05-01T09:42:31.805Z</time></trkpt><trkpt lat="43.7579353" lon="12.3502527"><ele>733.0</ele><time>2026-05-01T09:42:32.801Z</time></trkpt><trkpt lat="43.7578181" lon="12.3503662"><ele>733.0</ele><time>2026-05-01T09:42:33.802Z</time></trkpt><trkpt lat="43.7576906" lon="12.3504623"><ele>733.0</ele><time>2026-05-01T09:42:34.803Z</time></trkpt><trkpt lat="43.7575686" lon="12.3505387"><ele>731.75</ele><time>2026-05-01T09:42:35.795Z</time></trkpt><trkpt lat="43.7574393" lon="12.3505954"><ele>730.5</ele><time>2026-05-01T09:42:36.799Z</time></trkpt><trkpt lat="43.7572988" lon="12.3506302"><ele>729.25</ele><time>2026-05-01T09:42:37.799Z</time></trkpt><trkpt lat="43.757155" lon="12.350649"><ele>728.0</ele><time>2026-05-01T09:42:38.804Z</time></trkpt><trkpt lat="43.7570194" lon="12.3506624"><ele>728.0</ele><time>2026-05-01T09:42:39.8Z</time></trkpt><trkpt lat="43.7568871" lon="12.3506769"><ele>728.0</ele><time>2026-05-01T09:42:40.796Z</time></trkpt><trkpt lat="43.75676" lon="12.3506887"><ele>728.0</ele><time>2026-05-01T09:42:41.799Z</time></trkpt><trkpt lat="43.7566294" lon="12.3507005"><ele>728.0</ele><time>2026-05-01T09:42:42.808Z</time></trkpt><trkpt lat="43.7564923" lon="12.3506866"><ele>727.25</ele><time>2026-05-01T09:42:43.793Z</time></trkpt><trkpt lat="43.7563559" lon="12.3506469"><ele>726.5</ele><time>2026-05-01T09:42:44.81Z</time></trkpt><trkpt lat="43.7562191" lon="12.3505866"><ele>725.75</ele><time>2026-05-01T09:42:45.797Z</time></trkpt><trkpt lat="43.756087" lon="12.3505175"><ele>725.0</ele><time>2026-05-01T09:42:46.798Z</time></trkpt><trkpt lat="43.7559507" lon="12.3504566"><ele>727.0</ele><time>2026-05-01T09:42:47.806Z</time></trkpt><trkpt lat="43.7558181" lon="12.3504192"><ele>729.0</ele><time>2026-05-01T09:42:48.801Z</time></trkpt><trkpt lat="43.7556922" lon="12.3504089"><ele>731.0</ele><time>2026-05-01T09:42:49.803Z</time></trkpt><trkpt lat="43.7555688" lon="12.350409"><ele>733.0</ele><time>2026-05-01T09:42:50.805Z</time></trkpt><trkpt lat="43.7554508" lon="12.3504173"><ele>733.0</ele><time>2026-05-01T09:42:51.798Z</time></trkpt><trkpt lat="43.7553256" lon="12.3504277"><ele>733.0</ele><time>2026-05-01T09:42:52.805Z</time></trkpt><trkpt lat="43.7551987" lon="12.350436"><ele>733.0</ele><time>2026-05-01T09:42:53.805Z</time></trkpt><trkpt lat="43.7550681" lon="12.3504301"><ele>733.0</ele><time>2026-05-01T09:42:54.802Z</time></trkpt><trkpt lat="43.7549376" lon="12.3504258"><ele>732.0</ele><time>2026-05-01T09:42:55.804Z</time></trkpt><trkpt lat="43.75481" lon="12.350431"><ele>731.0</ele><time>2026-05-01T09:42:56.798Z</time></trkpt><trkpt lat="43.7546803" lon="12.3504509"><ele>730.0</ele><time>2026-05-01T09:42:57.807Z</time></trkpt><trkpt lat="43.7545528" lon="12.3504881"><ele>729.0</ele><time>2026-05-01T09:42:58.793Z</time></trkpt><trkpt lat="43.7544337" lon="12.350531"><ele>722.0</ele><time>2026-05-01T09:42:59.805Z</time></trkpt><trkpt lat="43.7543144" lon="12.3505781"><ele>715.0</ele><time>2026-05-01T09:43:00.8Z</time></trkpt><trkpt lat="43.7541907" lon="12.3506238"><ele>708.0</ele><time>2026-05-01T09:43:01.791Z</time></trkpt><trkpt lat="43.7540633" lon="12.3506642"><ele>701.0</ele><time>2026-05-01T09:43:02.8Z</time></trkpt><trkpt lat="43.7539301" lon="12.3507183"><ele>701.0</ele><time>2026-05-01T09:43:03.808Z</time></trkpt><trkpt lat="43.753792" lon="12.3507836"><ele>701.0</ele><time>2026-05-01T09:43:04.806Z</time></trkpt><trkpt lat="43.7536476" lon="12.3508471"><ele>701.0</ele><time>2026-05-01T09:43:05.798Z</time></trkpt><trkpt lat="43.7534975" lon="12.3509146"><ele>701.25</ele><time>2026-05-01T09:43:06.807Z</time></trkpt><trkpt lat="43.7533518" lon="12.3509818"><ele>701.5</ele><time>2026-05-01T09:43:07.806Z</time></trkpt><trkpt lat="43.7532161" lon="12.3510338"><ele>701.75</ele><time>2026-05-01T09:43:08.803Z</time></trkpt><trkpt lat="43.7530886" lon="12.3510891"><ele>702.0</ele><time>2026-05-01T09:43:09.806Z</time></trkpt><trkpt lat="43.7529719" lon="12.351118"><ele>702.0</ele><time>2026-05-01T09:43:10.8Z</time></trkpt><trkpt lat="43.7528707" lon="12.3511131"><ele>702.0</ele><time>2026-05-01T09:43:11.804Z</time></trkpt><trkpt lat="43.7527828" lon="12.3510767"><ele>702.0</ele><time>2026-05-01T09:43:12.805Z</time></trkpt><trkpt lat="43.7527109" lon="12.3510058"><ele>702.0</ele><time>2026-05-01T09:43:13.807Z</time></trkpt><trkpt lat="43.7526443" lon="12.3508997"><ele>702.0</ele><time>2026-05-01T09:43:14.802Z</time></trkpt><trkpt lat="43.7525687" lon="12.3507666"><ele>702.0</ele><time>2026-05-01T09:43:15.804Z</time></trkpt><trkpt lat="43.7524899" lon="12.3506197"><ele>702.0</ele><time>2026-05-01T09:43:16.806Z</time></trkpt><trkpt lat="43.752414" lon="12.3504713"><ele>702.0</ele><time>2026-05-01T09:43:17.809Z</time></trkpt><trkpt lat="43.7523432" lon="12.3503285"><ele>702.0</ele><time>2026-05-01T09:43:18.796Z</time></trkpt><trkpt lat="43.7522801" lon="12.3501933"><ele>702.0</ele><time>2026-05-01T09:43:19.813Z</time></trkpt><trkpt lat="43.7522396" lon="12.3500639"><ele>702.0</ele><time>2026-05-01T09:43:20.828Z</time></trkpt><trkpt lat="43.7522311" lon="12.3499293"><ele>702.0</ele><time>2026-05-01T09:43:21.802Z</time></trkpt><trkpt lat="43.7522429" lon="12.3497865"><ele>702.0</ele><time>2026-05-01T09:43:22.792Z</time></trkpt><trkpt lat="43.752268" lon="12.3496276"><ele>702.0</ele><time>2026-05-01T09:43:23.798Z</time></trkpt><trkpt lat="43.7522872" lon="12.34945"><ele>702.25</ele><time>2026-05-01T09:43:24.801Z</time></trkpt><trkpt lat="43.7523063" lon="12.3492701"><ele>702.5</ele><time>2026-05-01T09:43:25.801Z</time></trkpt><trkpt lat="43.7523265" lon="12.3491066"><ele>702.75</ele><time>2026-05-01T09:43:26.801Z</time></trkpt><trkpt lat="43.7523465" lon="12.3489602"><ele>703.0</ele><time>2026-05-01T09:43:27.806Z</time></trkpt><trkpt lat="43.7523608" lon="12.3488223"><ele>703.8333333333334</ele><time>2026-05-01T09:43:28.805Z</time></trkpt><trkpt lat="43.752363" lon="12.3486947"><ele>704.6666666666667</ele><time>2026-05-01T09:43:29.8Z</time></trkpt><trkpt lat="43.7523595" lon="12.3485776"><ele>705.5</ele><time>2026-05-01T09:43:30.799Z</time></trkpt><trkpt lat="43.7523329" lon="12.3484864"><ele>706.3333333333334</ele><time>2026-05-01T09:43:31.804Z</time></trkpt><trkpt lat="43.7522812" lon="12.3484104"><ele>707.1666666666666</ele><time>2026-05-01T09:43:32.797Z</time></trkpt><trkpt lat="43.7522133" lon="12.3483532"><ele>708.0</ele><time>2026-05-01T09:43:33.824Z</time></trkpt><trkpt lat="43.7521459" lon="12.3483287"><ele>708.0</ele><time>2026-05-01T09:43:34.806Z</time></trkpt><trkpt lat="43.7520726" lon="12.3483418"><ele>708.0</ele><time>2026-05-01T09:43:35.803Z</time></trkpt><trkpt lat="43.7519971" lon="12.3483942"><ele>708.0</ele><time>2026-05-01T09:43:36.805Z</time></trkpt><trkpt lat="43.75192" lon="12.3484616"><ele>708.0</ele><time>2026-05-01T09:43:37.798Z</time></trkpt><trkpt lat="43.7518341" lon="12.348525"><ele>708.0</ele><time>2026-05-01T09:43:38.793Z</time></trkpt><trkpt lat="43.7517289" lon="12.3485655"><ele>707.25</ele><time>2026-05-01T09:43:39.822Z</time></trkpt><trkpt lat="43.7516167" lon="12.3485948"><ele>706.5</ele><time>2026-05-01T09:43:40.802Z</time></trkpt><trkpt lat="43.7514969" lon="12.3486229"><ele>705.75</ele><time>2026-05-01T09:43:41.803Z</time></trkpt><trkpt lat="43.7513761" lon="12.3486584"><ele>705.0</ele><time>2026-05-01T09:43:42.794Z</time></trkpt><trkpt lat="43.7512543" lon="12.3486927"><ele>705.0</ele><time>2026-05-01T09:43:43.804Z</time></trkpt><trkpt lat="43.7511381" lon="12.3487302"><ele>705.0</ele><time>2026-05-01T09:43:44.802Z</time></trkpt><trkpt lat="43.7510216" lon="12.3487627"><ele>705.0</ele><time>2026-05-01T09:43:45.8Z</time></trkpt><trkpt lat="43.7509033" lon="12.3487932"><ele>705.0</ele><time>2026-05-01T09:43:46.799Z</time></trkpt><trkpt lat="43.7507887" lon="12.3488213"><ele>705.4</ele><time>2026-05-01T09:43:47.791Z</time></trkpt><trkpt lat="43.7506813" lon="12.3488544"><ele>705.8</ele><time>2026-05-01T09:43:48.792Z</time></trkpt><trkpt lat="43.7505825" lon="12.3488954"><ele>706.2</ele><time>2026-05-01T09:43:49.802Z</time></trkpt><trkpt lat="43.750492" lon="12.3489644"><ele>706.6</ele><time>2026-05-01T09:43:50.805Z</time></trkpt><trkpt lat="43.7504115" lon="12.3490719"><ele>707.0</ele><time>2026-05-01T09:43:51.8Z</time></trkpt><trkpt lat="43.7503369" lon="12.3492007"><ele>702.5</ele><time>2026-05-01T09:43:52.794Z</time></trkpt><trkpt lat="43.7502799" lon="12.3493513"><ele>698.0</ele><time>2026-05-01T09:43:53.801Z</time></trkpt><trkpt lat="43.7502258" lon="12.3494886"><ele>693.5</ele><time>2026-05-01T09:43:54.807Z</time></trkpt><trkpt lat="43.7501619" lon="12.3496235"><ele>689.0</ele><time>2026-05-01T09:43:55.812Z</time></trkpt><trkpt lat="43.7501001" lon="12.3497477"><ele>684.8000000000001</ele><time>2026-05-01T09:43:56.808Z</time></trkpt><trkpt lat="43.7500268" lon="12.3498556"><ele>680.6</ele><time>2026-05-01T09:43:57.807Z</time></trkpt><trkpt lat="43.749948" lon="12.3499553"><ele>676.4</ele><time>2026-05-01T09:43:58.809Z</time></trkpt><trkpt lat="43.749854" lon="12.3500386"><ele>672.2</ele><time>2026-05-01T09:43:59.803Z</time></trkpt><trkpt lat="43.7497556" lon="12.3501158"><ele>668.0</ele><time>2026-05-01T09:44:00.804Z</time></trkpt><trkpt lat="43.7496556" lon="12.350192"><ele>668.0</ele><time>2026-05-01T09:44:01.789Z</time></trkpt><trkpt lat="43.7495518" lon="12.3502716"><ele>668.0</ele><time>2026-05-01T09:44:02.801Z</time></trkpt><trkpt lat="43.7494487" lon="12.3503394"><ele>668.0</ele><time>2026-05-01T09:44:03.8Z</time></trkpt><trkpt lat="43.7493419" lon="12.3503827"><ele>668.0</ele><time>2026-05-01T09:44:04.806Z</time></trkpt><trkpt lat="43.7492253" lon="12.3504081"><ele>669.0</ele><time>2026-05-01T09:44:05.805Z</time></trkpt><trkpt lat="43.7491141" lon="12.3504201"><ele>670.0</ele><time>2026-05-01T09:44:06.805Z</time></trkpt><trkpt lat="43.7489936" lon="12.3504031"><ele>671.0</ele><time>2026-05-01T09:44:07.799Z</time></trkpt><trkpt lat="43.7488708" lon="12.3503707"><ele>672.0</ele><time>2026-05-01T09:44:08.791Z</time></trkpt><trkpt lat="43.7487446" lon="12.3503061"><ele>672.0</ele><time>2026-05-01T09:44:09.801Z</time></trkpt><trkpt lat="43.748605" lon="12.3502365"><ele>672.0</ele><time>2026-05-01T09:44:10.808Z</time></trkpt><trkpt lat="43.7484623" lon="12.3501773"><ele>672.0</ele><time>2026-05-01T09:44:11.807Z</time></trkpt><trkpt lat="43.7483265" lon="12.3501079"><ele>672.0</ele><time>2026-05-01T09:44:12.808Z</time></trkpt><trkpt lat="43.7481983" lon="12.3500254"><ele>672.25</ele><time>2026-05-01T09:44:13.817Z</time></trkpt><trkpt lat="43.7480764" lon="12.3499391"><ele>672.5</ele><time>2026-05-01T09:44:14.796Z</time></trkpt><trkpt lat="43.7479535" lon="12.3498543"><ele>672.75</ele><time>2026-05-01T09:44:15.806Z</time></trkpt><trkpt lat="43.747833" lon="12.3497748"><ele>673.0</ele><time>2026-05-01T09:44:16.811Z</time></trkpt><trkpt lat="43.7477174" lon="12.3496896"><ele>669.5</ele><time>2026-05-01T09:44:17.798Z</time></trkpt><trkpt lat="43.7476096" lon="12.3496028"><ele>666.0</ele><time>2026-05-01T09:44:18.799Z</time></trkpt><trkpt lat="43.7474977" lon="12.3495216"><ele>662.5</ele><time>2026-05-01T09:44:19.812Z</time></trkpt><trkpt lat="43.7473838" lon="12.3494414"><ele>659.0</ele><time>2026-05-01T09:44:20.803Z</time></trkpt><trkpt lat="43.7472696" lon="12.3493719"><ele>659.0</ele><time>2026-05-01T09:44:21.806Z</time></trkpt><trkpt lat="43.7471567" lon="12.3492969"><ele>659.0</ele><time>2026-05-01T09:44:22.797Z</time></trkpt><trkpt lat="43.7470393" lon="12.3492381"><ele>659.0</ele><time>2026-05-01T09:44:23.814Z</time></trkpt><trkpt lat="43.7469209" lon="12.3492001"><ele>659.0</ele><time>2026-05-01T09:44:24.804Z</time></trkpt><trkpt lat="43.7468023" lon="12.3491833"><ele>655.0</ele><time>2026-05-01T09:44:25.812Z</time></trkpt><trkpt lat="43.7466891" lon="12.3491933"><ele>651.0</ele><time>2026-05-01T09:44:26.819Z</time></trkpt><trkpt lat="43.7465766" lon="12.349223"><ele>647.0</ele><time>2026-05-01T09:44:27.808Z</time></trkpt><trkpt lat="43.7464675" lon="12.3492723"><ele>643.0</ele><time>2026-05-01T09:44:28.795Z</time></trkpt><trkpt lat="43.7463583" lon="12.3493351"><ele>643.0</ele><time>2026-05-01T09:44:29.805Z</time></trkpt><trkpt lat="43.7462578" lon="12.3494115"><ele>643.0</ele><time>2026-05-01T09:44:30.804Z</time></trkpt><trkpt lat="43.746171" lon="12.3495003"><ele>643.0</ele><time>2026-05-01T09:44:31.796Z</time></trkpt><trkpt lat="43.746088" lon="12.3496122"><ele>643.0</ele><time>2026-05-01T09:44:32.8Z</time></trkpt><trkpt lat="43.7460115" lon="12.3497448"><ele>640.5</ele><time>2026-05-01T09:44:33.812Z</time></trkpt><trkpt lat="43.7459392" lon="12.3498846"><ele>638.0</ele><time>2026-05-01T09:44:34.792Z</time></trkpt><trkpt lat="43.7458635" lon="12.3500288"><ele>635.5</ele><time>2026-05-01T09:44:35.813Z</time></trkpt><trkpt lat="43.7457808" lon="12.3501815"><ele>633.0</ele><time>2026-05-01T09:44:36.811Z</time></trkpt><trkpt lat="43.7456942" lon="12.350314"><ele>633.0</ele><time>2026-05-01T09:44:37.815Z</time></trkpt><trkpt lat="43.7456044" lon="12.3504473"><ele>633.0</ele><time>2026-05-01T09:44:38.807Z</time></trkpt><trkpt lat="43.7455177" lon="12.350567"><ele>633.0</ele><time>2026-05-01T09:44:39.808Z</time></trkpt><trkpt lat="43.7454358" lon="12.3506769"><ele>633.0</ele><time>2026-05-01T09:44:40.8Z</time></trkpt><trkpt lat="43.7453518" lon="12.3507943"><ele>632.25</ele><time>2026-05-01T09:44:41.8Z</time></trkpt><trkpt lat="43.7452617" lon="12.3509331"><ele>631.5</ele><time>2026-05-01T09:44:42.804Z</time></trkpt><trkpt lat="43.7451599" lon="12.3510667"><ele>630.75</ele><time>2026-05-01T09:44:43.8Z</time></trkpt><trkpt lat="43.7450682" lon="12.3512019"><ele>630.0</ele><time>2026-05-01T09:44:44.8Z</time></trkpt><trkpt lat="43.7449737" lon="12.3513338"><ele>628.5</ele><time>2026-05-01T09:44:45.811Z</time></trkpt><trkpt lat="43.7448738" lon="12.351474"><ele>627.0</ele><time>2026-05-01T09:44:46.806Z</time></trkpt><trkpt lat="43.7447767" lon="12.3516122"><ele>625.5</ele><time>2026-05-01T09:44:47.811Z</time></trkpt><trkpt lat="43.7446869" lon="12.3517443"><ele>624.0</ele><time>2026-05-01T09:44:48.799Z</time></trkpt><trkpt lat="43.7445978" lon="12.3518732"><ele>624.0</ele><time>2026-05-01T09:44:49.802Z</time></trkpt><trkpt lat="43.7445096" lon="12.3519992"><ele>624.0</ele><time>2026-05-01T09:44:50.81Z</time></trkpt><trkpt lat="43.7444248" lon="12.3521159"><ele>624.0</ele><time>2026-05-01T09:44:51.807Z</time></trkpt><trkpt lat="43.7443509" lon="12.3522267"><ele>624.0</ele><time>2026-05-01T09:44:52.811Z</time></trkpt><trkpt lat="43.7442801" lon="12.352331"><ele>623.5</ele><time>2026-05-01T09:44:53.813Z</time></trkpt><trkpt lat="43.7442224" lon="12.3524209"><ele>623.0</ele><time>2026-05-01T09:44:54.807Z</time></trkpt><trkpt lat="43.7441735" lon="12.3524876"><ele>622.5</ele><time>2026-05-01T09:44:55.807Z</time></trkpt><trkpt lat="43.7441206" lon="12.3526083"><ele>622.0</ele><time>2026-05-01T09:44:57.799Z</time></trkpt><trkpt lat="43.7441582" lon="12.3527174"><ele>621.5</ele><time>2026-05-01T09:44:59.814Z</time></trkpt><trkpt lat="43.7442047" lon="12.3527819"><ele>621.0</ele><time>2026-05-01T09:45:00.807Z</time></trkpt><trkpt lat="43.7442583" lon="12.3528592"><ele>621.0</ele><time>2026-05-01T09:45:01.805Z</time></trkpt><trkpt lat="43.7443121" lon="12.3529519"><ele>621.0</ele><time>2026-05-01T09:45:02.796Z</time></trkpt><trkpt lat="43.744368" lon="12.3530421"><ele>621.0</ele><time>2026-05-01T09:45:03.805Z</time></trkpt><trkpt lat="43.7444262" lon="12.3531139"><ele>621.0</ele><time>2026-05-01T09:45:04.815Z</time></trkpt><trkpt lat="43.744489" lon="12.3531506"><ele>621.0</ele><time>2026-05-01T09:45:05.812Z</time></trkpt><trkpt lat="43.7446077" lon="12.3531111"><ele>621.0</ele><time>2026-05-01T09:45:07.81Z</time></trkpt><trkpt lat="43.744674" lon="12.3530677"><ele>620.3333333333334</ele><time>2026-05-01T09:45:08.799Z</time></trkpt><trkpt lat="43.7447351" lon="12.353007"><ele>619.6666666666666</ele><time>2026-05-01T09:45:09.798Z</time></trkpt><trkpt lat="43.7448423" lon="12.3529334"><ele>619.0</ele><time>2026-05-01T09:45:11.803Z</time></trkpt><trkpt lat="43.7449238" lon="12.3528994"><ele>618.3333333333333</ele><time>2026-05-01T09:45:13.805Z</time></trkpt><trkpt lat="43.7450026" lon="12.352872"><ele>617.6666666666666</ele><time>2026-05-01T09:45:16.801Z</time></trkpt><trkpt lat="43.7450809" lon="12.3528881"><ele>617.0</ele><time>2026-05-01T09:45:19.799Z</time></trkpt><trkpt lat="43.7449848" lon="12.3528905"><ele>617.0</ele><time>2026-05-01T09:45:24.798Z</time></trkpt><trkpt lat="43.7449001" lon="12.352895"><ele>617.0</ele><time>2026-05-01T09:45:25.802Z</time></trkpt><trkpt lat="43.744824" lon="12.3529186"><ele>617.0</ele><time>2026-05-01T09:45:26.808Z</time></trkpt><trkpt lat="43.7447354" lon="12.3529849"><ele>617.0</ele><time>2026-05-01T09:45:27.805Z</time></trkpt><trkpt lat="43.7446627" lon="12.3530657"><ele>617.0</ele><time>2026-05-01T09:45:28.803Z</time></trkpt><trkpt lat="43.7445974" lon="12.3531165"><ele>617.0</ele><time>2026-05-01T09:45:29.809Z</time></trkpt><trkpt lat="43.7445137" lon="12.3531697"><ele>615.6</ele><time>2026-05-01T09:45:31.797Z</time></trkpt><trkpt lat="43.7444791" lon="12.3533009"><ele>614.2</ele><time>2026-05-01T09:45:38.798Z</time></trkpt><trkpt lat="43.7444676" lon="12.3534428"><ele>612.8</ele><time>2026-05-01T09:45:40.811Z</time></trkpt><trkpt lat="43.7444663" lon="12.3535604"><ele>611.4</ele><time>2026-05-01T09:45:42.801Z</time></trkpt><trkpt lat="43.7444806" lon="12.3536518"><ele>610.0</ele><time>2026-05-01T10:00:13.802Z</time></trkpt><trkpt lat="43.7444927" lon="12.3537868"><ele>608.6666666666667</ele><time>2026-05-01T10:00:15.8Z</time></trkpt><trkpt lat="43.7445147" lon="12.3539689"><ele>607.3333333333334</ele><time>2026-05-01T10:00:17.797Z</time></trkpt><trkpt lat="43.7445303" lon="12.354064"><ele>606.0</ele><time>2026-05-01T10:00:18.795Z</time></trkpt><trkpt lat="43.7445455" lon="12.3541692"><ele>604.6666666666666</ele><time>2026-05-01T10:00:19.795Z</time></trkpt><trkpt lat="43.7445653" lon="12.3542612"><ele>603.3333333333333</ele><time>2026-05-01T10:00:20.799Z</time></trkpt><trkpt lat="43.7445912" lon="12.3543532"><ele>602.0</ele><time>2026-05-01T10:00:21.805Z</time></trkpt><trkpt lat="43.7446277" lon="12.3545274"><ele>602.0</ele><time>2026-05-01T10:00:23.816Z</time></trkpt><trkpt lat="43.7446468" lon="12.3546422"><ele>602.0</ele><time>2026-05-01T10:00:24.799Z</time></trkpt><trkpt lat="43.7446651" lon="12.3547581"><ele>602.0</ele><time>2026-05-01T10:00:25.817Z</time></trkpt><trkpt lat="43.7446859" lon="12.3548672"><ele>602.0</ele><time>2026-05-01T10:00:26.792Z</time></trkpt><trkpt lat="43.7447054" lon="12.3549638"><ele>602.0</ele><time>2026-05-01T10:00:27.793Z</time></trkpt><trkpt lat="43.7447185" lon="12.3550672"><ele>602.0</ele><time>2026-05-01T10:00:28.805Z</time></trkpt><trkpt lat="43.744722" lon="12.3551756"><ele>601.0</ele><time>2026-05-01T10:00:29.813Z</time></trkpt><trkpt lat="43.7447074" lon="12.3552939"><ele>600.0</ele><time>2026-05-01T10:00:30.792Z</time></trkpt><trkpt lat="43.7446849" lon="12.3554061"><ele>599.0</ele><time>2026-05-01T10:00:31.798Z</time></trkpt><trkpt lat="43.744672" lon="12.3555095"><ele>598.0</ele><time>2026-05-01T10:00:32.796Z</time></trkpt><trkpt lat="43.7446857" lon="12.3556131"><ele>597.0</ele><time>2026-05-01T10:00:33.785Z</time></trkpt><trkpt lat="43.7447008" lon="12.355735"><ele>596.0</ele><time>2026-05-01T10:00:34.802Z</time></trkpt><trkpt lat="43.7447094" lon="12.3558716"><ele>594.6</ele><time>2026-05-01T10:00:35.813Z</time></trkpt><trkpt lat="43.7447195" lon="12.3559861"><ele>593.2</ele><time>2026-05-01T10:00:36.798Z</time></trkpt><trkpt lat="43.7447317" lon="12.3561046"><ele>591.8</ele><time>2026-05-01T10:00:37.818Z</time></trkpt><trkpt lat="43.7447396" lon="12.3562063"><ele>590.4</ele><time>2026-05-01T10:00:38.788Z</time></trkpt><trkpt lat="43.7447169" lon="12.356368"><ele>589.0</ele><time>2026-05-01T10:00:40.802Z</time></trkpt><trkpt lat="43.744649" lon="12.3564783"><ele>587.6</ele><time>2026-05-01T10:00:42.789Z</time></trkpt><trkpt lat="43.744556" lon="12.3565774"><ele>586.2</ele><time>2026-05-01T10:00:44.785Z</time></trkpt><trkpt lat="43.7444904" lon="12.35672"><ele>584.8000000000001</ele><time>2026-05-01T10:00:46.798Z</time></trkpt><trkpt lat="43.7444642" lon="12.3568224"><ele>583.4</ele><time>2026-05-01T10:00:47.808Z</time></trkpt><trkpt lat="43.7444327" lon="12.3569484"><ele>582.0</ele><time>2026-05-01T10:00:48.8Z</time></trkpt><trkpt lat="43.7444047" lon="12.3570614"><ele>582.0</ele><time>2026-05-01T10:00:49.802Z</time></trkpt><trkpt lat="43.7443912" lon="12.3571699"><ele>582.0</ele><time>2026-05-01T10:00:50.799Z</time></trkpt><trkpt lat="43.7443846" lon="12.3572796"><ele>582.0</ele><time>2026-05-01T10:00:51.804Z</time></trkpt><trkpt lat="43.7443826" lon="12.3573947"><ele>582.0</ele><time>2026-05-01T10:00:52.805Z</time></trkpt><trkpt lat="43.7443886" lon="12.3575245"><ele>582.0</ele><time>2026-05-01T10:00:53.803Z</time></trkpt><trkpt lat="43.7443974" lon="12.357644"><ele>582.0</ele><time>2026-05-01T10:00:54.796Z</time></trkpt><trkpt lat="43.744408" lon="12.3577657"><ele>580.5</ele><time>2026-05-01T10:00:55.814Z</time></trkpt><trkpt lat="43.7444259" lon="12.3578815"><ele>579.0</ele><time>2026-05-01T10:00:56.787Z</time></trkpt><trkpt lat="43.7444616" lon="12.3580067"><ele>577.5</ele><time>2026-05-01T10:00:57.813Z</time></trkpt><trkpt lat="43.7444821" lon="12.3581156"><ele>576.0</ele><time>2026-05-01T10:00:58.788Z</time></trkpt><trkpt lat="43.7444817" lon="12.3582351"><ele>574.5</ele><time>2026-05-01T10:00:59.803Z</time></trkpt><trkpt lat="43.7444676" lon="12.3583511"><ele>573.0</ele><time>2026-05-01T10:01:00.787Z</time></trkpt><trkpt lat="43.7444462" lon="12.3584589"><ele>572.1666666666666</ele><time>2026-05-01T10:01:01.787Z</time></trkpt><trkpt lat="43.7444169" lon="12.358567"><ele>571.3333333333334</ele><time>2026-05-01T10:01:02.798Z</time></trkpt><trkpt lat="43.7443714" lon="12.3586765"><ele>570.5</ele><time>2026-05-01T10:01:03.817Z</time></trkpt><trkpt lat="43.7443281" lon="12.358774"><ele>569.6666666666667</ele><time>2026-05-01T10:01:04.799Z</time></trkpt><trkpt lat="43.7442841" lon="12.3588638"><ele>568.8333333333334</ele><time>2026-05-01T10:01:05.803Z</time></trkpt><trkpt lat="43.7442488" lon="12.3589503"><ele>568.0</ele><time>2026-05-01T10:01:06.792Z</time></trkpt><trkpt lat="43.7442353" lon="12.3590408"><ele>567.1428571428571</ele><time>2026-05-01T10:01:07.804Z</time></trkpt><trkpt lat="43.7442245" lon="12.3591342"><ele>566.2857142857142</ele><time>2026-05-01T10:01:08.794Z</time></trkpt><trkpt lat="43.744221" lon="12.3592289"><ele>565.4285714285714</ele><time>2026-05-01T10:01:09.804Z</time></trkpt><trkpt lat="43.744215" lon="12.3593258"><ele>564.5714285714286</ele><time>2026-05-01T10:01:10.798Z</time></trkpt><trkpt lat="43.7442122" lon="12.3594284"><ele>563.7142857142858</ele><time>2026-05-01T10:01:11.8Z</time></trkpt><trkpt lat="43.7442121" lon="12.3595323"><ele>562.8571428571429</ele><time>2026-05-01T10:01:12.796Z</time></trkpt><trkpt lat="43.7442033" lon="12.3596342"><ele>562.0</ele><time>2026-05-01T10:01:13.798Z</time></trkpt><trkpt lat="43.7441808" lon="12.3597262"><ele>561.1428571428572</ele><time>2026-05-01T10:01:14.786Z</time></trkpt><trkpt lat="43.7441306" lon="12.3598"><ele>560.2857142857143</ele><time>2026-05-01T10:01:15.791Z</time></trkpt><trkpt lat="43.7440634" lon="12.3598564"><ele>559.4285714285714</ele><time>2026-05-01T10:01:16.797Z</time></trkpt><trkpt lat="43.7439959" lon="12.359905"><ele>558.5714285714287</ele><time>2026-05-01T10:01:17.797Z</time></trkpt><trkpt lat="43.7439265" lon="12.3599415"><ele>557.7142857142858</ele><time>2026-05-01T10:01:18.8Z</time></trkpt><trkpt lat="43.7438641" lon="12.3599746"><ele>556.8571428571429</ele><time>2026-05-01T10:01:19.804Z</time></trkpt><trkpt lat="43.7438096" lon="12.360024"><ele>556.0</ele><time>2026-05-01T10:01:20.797Z</time></trkpt><trkpt lat="43.7437665" lon="12.3601757"><ele>556.0</ele><time>2026-05-01T10:01:22.791Z</time></trkpt><trkpt lat="43.7437749" lon="12.3602724"><ele>556.0</ele><time>2026-05-01T10:01:23.813Z</time></trkpt><trkpt lat="43.7437914" lon="12.3603832"><ele>556.0</ele><time>2026-05-01T10:01:24.793Z</time></trkpt><trkpt lat="43.7438103" lon="12.3605006"><ele>556.0</ele><time>2026-05-01T10:01:25.804Z</time></trkpt><trkpt lat="43.7438315" lon="12.3606251"><ele>556.0</ele><time>2026-05-01T10:01:26.79Z</time></trkpt><trkpt lat="43.7438436" lon="12.3607477"><ele>556.0</ele><time>2026-05-01T10:01:27.805Z</time></trkpt><trkpt lat="43.7438502" lon="12.3608866"><ele>554.1666666666667</ele><time>2026-05-01T10:01:28.794Z</time></trkpt><trkpt lat="43.7438638" lon="12.3610181"><ele>552.3333333333334</ele><time>2026-05-01T10:01:29.794Z</time></trkpt><trkpt lat="43.7438813" lon="12.3611323"><ele>550.5</ele><time>2026-05-01T10:01:30.796Z</time></trkpt><trkpt lat="43.7439071" lon="12.3612407"><ele>548.6666666666666</ele><time>2026-05-01T10:01:31.799Z</time></trkpt><trkpt lat="43.7439402" lon="12.3613327"><ele>546.8333333333333</ele><time>2026-05-01T10:01:32.792Z</time></trkpt><trkpt lat="43.7439634" lon="12.3614144"><ele>545.0</ele><time>2026-05-01T10:01:33.799Z</time></trkpt><trkpt lat="43.7439519" lon="12.3615684"><ele>542.6</ele><time>2026-05-01T10:01:35.795Z</time></trkpt><trkpt lat="43.7439179" lon="12.3616433"><ele>540.2</ele><time>2026-05-01T10:01:36.792Z</time></trkpt><trkpt lat="43.7438059" lon="12.3617558"><ele>537.8</ele><time>2026-05-01T10:01:38.785Z</time></trkpt><trkpt lat="43.7437285" lon="12.3618183"><ele>535.4</ele><time>2026-05-01T10:01:39.797Z</time></trkpt><trkpt lat="43.7436492" lon="12.3619042"><ele>533.0</ele><time>2026-05-01T10:01:40.793Z</time></trkpt><trkpt lat="43.7435764" lon="12.3619823"><ele>532.8</ele><time>2026-05-01T10:01:41.801Z</time></trkpt><trkpt lat="43.7435004" lon="12.3620567"><ele>532.5999999999999</ele><time>2026-05-01T10:01:42.802Z</time></trkpt><trkpt lat="43.7434319" lon="12.3621263"><ele>532.4000000000001</ele><time>2026-05-01T10:01:43.801Z</time></trkpt><trkpt lat="43.7433731" lon="12.362214"><ele>532.2</ele><time>2026-05-01T10:01:44.797Z</time></trkpt><trkpt lat="43.7433249" lon="12.3623343"><ele>532.0</ele><time>2026-05-01T10:01:45.802Z</time></trkpt><trkpt lat="43.7432658" lon="12.3624322"><ele>532.0</ele><time>2026-05-01T10:01:46.805Z</time></trkpt><trkpt lat="43.7432031" lon="12.3625399"><ele>532.0</ele><time>2026-05-01T10:01:47.797Z</time></trkpt><trkpt lat="43.7431318" lon="12.3626267"><ele>532.0</ele><time>2026-05-01T10:01:48.804Z</time></trkpt><trkpt lat="43.7430749" lon="12.3627241"><ele>532.0</ele><time>2026-05-01T10:01:49.793Z</time></trkpt><trkpt lat="43.7430319" lon="12.3628371"><ele>532.0</ele><time>2026-05-01T10:01:50.794Z</time></trkpt><trkpt lat="43.7429845" lon="12.3629432"><ele>529.8000000000001</ele><time>2026-05-01T10:01:51.799Z</time></trkpt><trkpt lat="43.7429118" lon="12.3630359"><ele>527.6</ele><time>2026-05-01T10:01:52.805Z</time></trkpt><trkpt lat="43.7428536" lon="12.3631385"><ele>525.4000000000001</ele><time>2026-05-01T10:01:53.798Z</time></trkpt><trkpt lat="43.7428026" lon="12.3632241"><ele>523.2</ele><time>2026-05-01T10:01:54.801Z</time></trkpt><trkpt lat="43.7427209" lon="12.3633049"><ele>521.0</ele><time>2026-05-01T10:01:56.809Z</time></trkpt><trkpt lat="43.7426349" lon="12.3634118"><ele>521.0</ele><time>2026-05-01T10:01:58.794Z</time></trkpt><trkpt lat="43.7426045" lon="12.3634885"><ele>521.0</ele><time>2026-05-01T10:01:59.801Z</time></trkpt><trkpt lat="43.742578" lon="12.3635736"><ele>521.0</ele><time>2026-05-01T10:02:00.796Z</time></trkpt><trkpt lat="43.7425487" lon="12.3636593"><ele>521.0</ele><time>2026-05-01T10:02:01.805Z</time></trkpt><trkpt lat="43.7425095" lon="12.3637342"><ele>521.0</ele><time>2026-05-01T10:02:02.784Z</time></trkpt><trkpt lat="43.7424691" lon="12.3638021"><ele>521.0</ele><time>2026-05-01T10:02:03.805Z</time></trkpt><trkpt lat="43.7424075" lon="12.363926"><ele>521.0</ele><time>2026-05-01T10:02:05.805Z</time></trkpt><trkpt lat="43.7423403" lon="12.3640566"><ele>518.5</ele><time>2026-05-01T10:02:07.815Z</time></trkpt><trkpt lat="43.7422624" lon="12.3641898"><ele>516.0</ele><time>2026-05-01T10:02:09.807Z</time></trkpt><trkpt lat="43.7421961" lon="12.3643095"><ele>513.5</ele><time>2026-05-01T10:02:11.802Z</time></trkpt><trkpt lat="43.7421117" lon="12.3644134"><ele>511.0</ele><time>2026-05-01T10:02:13.807Z</time></trkpt><trkpt lat="43.7420143" lon="12.3645003"><ele>511.0</ele><time>2026-05-01T10:02:15.792Z</time></trkpt><trkpt lat="43.7419537" lon="12.3645361"><ele>511.0</ele><time>2026-05-01T10:02:16.793Z</time></trkpt><trkpt lat="43.7418472" lon="12.3645998"><ele>511.0</ele><time>2026-05-01T10:02:18.801Z</time></trkpt><trkpt lat="43.7417187" lon="12.364648"><ele>511.0</ele><time>2026-05-01T10:02:20.791Z</time></trkpt><trkpt lat="43.7416364" lon="12.3646747"><ele>511.0</ele><time>2026-05-01T10:02:21.802Z</time></trkpt><trkpt lat="43.741556" lon="12.3647024"><ele>508.6666666666667</ele><time>2026-05-01T10:02:22.801Z</time></trkpt><trkpt lat="43.7414881" lon="12.3647133"><ele>506.33333333333337</ele><time>2026-05-01T10:02:23.805Z</time></trkpt><trkpt lat="43.7414141" lon="12.364716"><ele>504.0</ele><time>2026-05-01T10:02:24.804Z</time></trkpt><trkpt lat="43.7413341" lon="12.3647136"><ele>501.66666666666663</ele><time>2026-05-01T10:02:25.802Z</time></trkpt><trkpt lat="43.7412577" lon="12.3647127"><ele>499.3333333333333</ele><time>2026-05-01T10:02:26.804Z</time></trkpt><trkpt lat="43.7411935" lon="12.364716"><ele>497.0</ele><time>2026-05-01T10:02:27.789Z</time></trkpt><trkpt lat="43.7410853" lon="12.3647992"><ele>497.16666666666663</ele><time>2026-05-01T10:02:29.801Z</time></trkpt><trkpt lat="43.7410308" lon="12.3648672"><ele>497.3333333333333</ele><time>2026-05-01T10:02:30.782Z</time></trkpt><trkpt lat="43.7409752" lon="12.364938"><ele>497.5</ele><time>2026-05-01T10:02:31.806Z</time></trkpt><trkpt lat="43.7409285" lon="12.365007"><ele>497.66666666666663</ele><time>2026-05-01T10:02:32.792Z</time></trkpt><trkpt lat="43.7408497" lon="12.3651367"><ele>497.8333333333333</ele><time>2026-05-01T10:02:34.788Z</time></trkpt><trkpt lat="43.7407931" lon="12.3652539"><ele>498.0</ele><time>2026-05-01T10:02:36.8Z</time></trkpt><trkpt lat="43.740743" lon="12.3653486"><ele>498.0</ele><time>2026-05-01T10:02:38.799Z</time></trkpt><trkpt lat="43.7406881" lon="12.3654349"><ele>498.0</ele><time>2026-05-01T10:02:40.795Z</time></trkpt><trkpt lat="43.7406489" lon="12.3655092"><ele>498.0</ele><time>2026-05-01T10:02:50.801Z</time></trkpt><trkpt lat="43.7405882" lon="12.3656072"><ele>498.0</ele><time>2026-05-01T10:02:52.799Z</time></trkpt><trkpt lat="43.7405045" lon="12.3657357"><ele>498.0</ele><time>2026-05-01T10:02:54.796Z</time></trkpt><trkpt lat="43.7404567" lon="12.3658021"><ele>498.0</ele><time>2026-05-01T10:02:55.801Z</time></trkpt><trkpt lat="43.7404123" lon="12.3658679"><ele>496.0</ele><time>2026-05-01T10:02:56.796Z</time></trkpt><trkpt lat="43.7403173" lon="12.36597"><ele>493.99999999999994</ele><time>2026-05-01T10:02:58.803Z</time></trkpt><trkpt lat="43.740207" lon="12.366019"><ele>491.99999999999994</ele><time>2026-05-01T10:03:00.809Z</time></trkpt><trkpt lat="43.7401419" lon="12.3660237"><ele>490.0</ele><time>2026-05-01T10:03:01.824Z</time></trkpt><trkpt lat="43.7400139" lon="12.3660197"><ele>488.0</ele><time>2026-05-01T10:03:03.815Z</time></trkpt><trkpt lat="43.7399052" lon="12.3660757"><ele>487.99999999999994</ele><time>2026-05-01T10:03:05.801Z</time></trkpt><trkpt lat="43.7398614" lon="12.3661407"><ele>488.0</ele><time>2026-05-01T10:03:06.801Z</time></trkpt><trkpt lat="43.7397913" lon="12.3662608"><ele>488.0</ele><time>2026-05-01T10:03:08.797Z</time></trkpt><trkpt lat="43.7397182" lon="12.3663741"><ele>488.0</ele><time>2026-05-01T10:03:10.802Z</time></trkpt><trkpt lat="43.7396709" lon="12.3664338"><ele>487.99999999999994</ele><time>2026-05-01T10:03:11.802Z</time></trkpt><trkpt lat="43.7396157" lon="12.3665015"><ele>488.0</ele><time>2026-05-01T10:03:12.797Z</time></trkpt><trkpt lat="43.7395613" lon="12.3665804"><ele>486.16666666666663</ele><time>2026-05-01T10:03:13.809Z</time></trkpt><trkpt lat="43.7395071" lon="12.3666754"><ele>484.3333333333333</ele><time>2026-05-01T10:03:14.797Z</time></trkpt><trkpt lat="43.7394547" lon="12.3667593"><ele>482.5</ele><time>2026-05-01T10:03:15.804Z</time></trkpt><trkpt lat="43.7393986" lon="12.3668399"><ele>480.66666666666663</ele><time>2026-05-01T10:03:16.798Z</time></trkpt><trkpt lat="43.7393364" lon="12.366917"><ele>478.8333333333333</ele><time>2026-05-01T10:03:17.805Z</time></trkpt><trkpt lat="43.7392778" lon="12.3669811"><ele>477.0</ele><time>2026-05-01T10:03:18.797Z</time></trkpt><trkpt lat="43.7392311" lon="12.3670425"><ele>477.0</ele><time>2026-05-01T10:03:19.806Z</time></trkpt><trkpt lat="43.7391599" lon="12.3671438"><ele>477.0</ele><time>2026-05-01T10:03:21.805Z</time></trkpt><trkpt lat="43.7391005" lon="12.3672248"><ele>477.0</ele><time>2026-05-01T10:03:23.797Z</time></trkpt><trkpt lat="43.7390598" lon="12.3673091"><ele>477.0</ele><time>2026-05-01T10:03:25.806Z</time></trkpt><trkpt lat="43.7390129" lon="12.3673778"><ele>477.0</ele><time>2026-05-01T10:03:27.808Z</time></trkpt><trkpt lat="43.7389439" lon="12.3674665"><ele>477.0</ele><time>2026-05-01T10:03:29.803Z</time></trkpt><trkpt lat="43.7388747" lon="12.3675719"><ele>475.0</ele><time>2026-05-01T10:03:31.813Z</time></trkpt><trkpt lat="43.7387813" lon="12.3676389"><ele>473.00000000000006</ele><time>2026-05-01T10:03:33.811Z</time></trkpt><trkpt lat="43.738668" lon="12.3677182"><ele>471.00000000000006</ele><time>2026-05-01T10:03:35.803Z</time></trkpt><trkpt lat="43.7386087" lon="12.3677666"><ele>469.0</ele><time>2026-05-01T10:03:36.807Z</time></trkpt><trkpt lat="43.7385088" lon="12.3678475"><ele>467.0</ele><time>2026-05-01T10:03:38.803Z</time></trkpt><trkpt lat="43.7384199" lon="12.3679163"><ele>466.99999999999994</ele><time>2026-05-01T10:03:40.801Z</time></trkpt><trkpt lat="43.7383264" lon="12.3679826"><ele>467.0</ele><time>2026-05-01T10:03:42.795Z</time></trkpt><trkpt lat="43.7382403" lon="12.3680552"><ele>467.0</ele><time>2026-05-01T10:03:44.816Z</time></trkpt><trkpt lat="43.7381692" lon="12.368117"><ele>467.0</ele><time>2026-05-01T10:03:46.812Z</time></trkpt><trkpt lat="43.7381027" lon="12.3681616"><ele>466.99999999999994</ele><time>2026-05-01T10:03:48.815Z</time></trkpt><trkpt lat="43.7380408" lon="12.3681792"><ele>467.0</ele><time>2026-05-01T10:03:50.796Z</time></trkpt><trkpt lat="43.7379675" lon="12.3682132"><ele>462.0</ele><time>2026-05-01T10:03:53.801Z</time></trkpt><trkpt lat="43.7391005" lon="12.3672248"><ele>462.0</ele><time>2026-05-01T10:03:23.797Z</time></trkpt><trkpt lat="43.7390598" lon="12.3673091"><ele>462.0</ele><time>2026-05-01T10:03:25.806Z</time></trkpt><trkpt lat="43.7390129" lon="12.3673778"><ele>462.0</ele><time>2026-05-01T10:03:27.808Z</time></trkpt><trkpt lat="43.7389439" lon="12.3674665"><ele>462.0</ele><time>2026-05-01T10:03:29.803Z</time></trkpt><trkpt lat="43.7388747" lon="12.3675719"><ele>462.0</ele><time>2026-05-01T10:03:31.813Z</time></trkpt><trkpt lat="43.7387813" lon="12.3676389"><ele>462.0</ele><time>2026-05-01T10:03:33.811Z</time></trkpt><trkpt lat="43.738668" lon="12.3677182"><ele>462.0</ele><time>2026-05-01T10:03:35.803Z</time></trkpt><trkpt lat="43.7386087" lon="12.3677666"><ele>462.00000000000006</ele><time>2026-05-01T10:03:36.807Z</time></trkpt><trkpt lat="43.7385088" lon="12.3678475"><ele>462.00000000000006</ele><time>2026-05-01T10:03:38.803Z</time></trkpt><trkpt lat="43.7384199" lon="12.3679163"><ele>462.0</ele><time>2026-05-01T10:03:40.801Z</time></trkpt><trkpt lat="43.7383264" lon="12.3679826"><ele>462.0</ele><time>2026-05-01T10:03:42.795Z</time></trkpt><trkpt lat="43.7382403" lon="12.3680552"><ele>461.2857142857143</ele><time>2026-05-01T10:03:44.816Z</time></trkpt><trkpt lat="43.7381692" lon="12.368117"><ele>460.57142857142856</ele><time>2026-05-01T10:03:46.812Z</time></trkpt><trkpt lat="43.7381027" lon="12.3681616"><ele>459.8571428571429</ele><time>2026-05-01T10:03:48.815Z</time></trkpt><trkpt lat="43.7380408" lon="12.3681792"><ele>459.14285714285717</ele><time>2026-05-01T10:03:50.796Z</time></trkpt><trkpt lat="43.7379675" lon="12.3682132"><ele>458.42857142857144</ele><time>2026-05-01T10:03:53.801Z</time></trkpt><trkpt lat="43.7379034" lon="12.3682243"><ele>457.7142857142858</ele><time>2026-05-01T10:03:58.784Z</time></trkpt><trkpt lat="43.7378404" lon="12.3681737"><ele>457.00000000000006</ele><time>2026-05-01T10:05:02.802Z</time></trkpt><trkpt lat="43.7378686" lon="12.3680717"><ele>457.00000000000006</ele><time>2026-05-01T10:05:05.8Z</time></trkpt><trkpt lat="43.7379435" lon="12.3680999"><ele>457.0</ele><time>2026-05-01T10:05:07.798Z</time></trkpt><trkpt lat="43.7379596" lon="12.3681974"><ele>457.0</ele><time>2026-05-01T10:05:14.785Z</time></trkpt><trkpt lat="43.7379256" lon="12.3682896"><ele>457.0</ele><time>2026-05-01T10:05:17.795Z</time></trkpt><trkpt lat="43.7378739" lon="12.368371"><ele>457.00000000000006</ele><time>2026-05-01T10:05:20.796Z</time></trkpt><trkpt lat="43.7378089" lon="12.3684281"><ele>457.0</ele><time>2026-05-01T10:05:22.789Z</time></trkpt><trkpt lat="43.7377361" lon="12.3684972"><ele>457.00000000000006</ele><time>2026-05-01T10:05:24.807Z</time></trkpt><trkpt lat="43.7376413" lon="12.3685918"><ele>457.0</ele><time>2026-05-01T10:05:26.789Z</time></trkpt><trkpt lat="43.7375901" lon="12.3686542"><ele>457.0</ele><time>2026-05-01T10:05:27.796Z</time></trkpt><trkpt lat="43.7375413" lon="12.3687188"><ele>457.0</ele><time>2026-05-01T10:05:28.798Z</time></trkpt><trkpt lat="43.7374944" lon="12.3687835"><ele>457.00000000000006</ele><time>2026-05-01T10:05:29.805Z</time></trkpt><trkpt lat="43.7374523" lon="12.3688537"><ele>457.0</ele><time>2026-05-01T10:05:30.805Z</time></trkpt><trkpt lat="43.7374057" lon="12.368921"><ele>455.00000000000006</ele><time>2026-05-01T10:05:31.811Z</time></trkpt><trkpt lat="43.7373617" lon="12.3689892"><ele>453.0</ele><time>2026-05-01T10:05:32.792Z</time></trkpt><trkpt lat="43.737323" lon="12.3690626"><ele>451.0</ele><time>2026-05-01T10:05:33.799Z</time></trkpt><trkpt lat="43.7372858" lon="12.3691338"><ele>449.0</ele><time>2026-05-01T10:05:34.79Z</time></trkpt><trkpt lat="43.7372531" lon="12.3692147"><ele>447.0</ele><time>2026-05-01T10:05:35.798Z</time></trkpt><trkpt lat="43.737227" lon="12.3692951"><ele>445.0</ele><time>2026-05-01T10:05:36.797Z</time></trkpt><trkpt lat="43.7372045" lon="12.3693768"><ele>443.0</ele><time>2026-05-01T10:05:37.799Z</time></trkpt><trkpt lat="43.7371735" lon="12.3694537"><ele>442.99999999999994</ele><time>2026-05-01T10:05:38.789Z</time></trkpt><trkpt lat="43.7371368" lon="12.3695307"><ele>443.0</ele><time>2026-05-01T10:05:39.8Z</time></trkpt><trkpt lat="43.7370919" lon="12.3696011"><ele>443.0</ele><time>2026-05-01T10:05:40.789Z</time></trkpt><trkpt lat="43.7370369" lon="12.3696788"><ele>443.0</ele><time>2026-05-01T10:05:41.815Z</time></trkpt><trkpt lat="43.7369749" lon="12.3697524"><ele>442.99999999999994</ele><time>2026-05-01T10:05:42.79Z</time></trkpt><trkpt lat="43.7369188" lon="12.369841"><ele>443.0</ele><time>2026-05-01T10:05:43.811Z</time></trkpt><trkpt lat="43.7368602" lon="12.3699394"><ele>441.79999999999995</ele><time>2026-05-01T10:05:44.792Z</time></trkpt><trkpt lat="43.7368066" lon="12.3700396"><ele>440.59999999999997</ele><time>2026-05-01T10:05:45.793Z</time></trkpt><trkpt lat="43.7367539" lon="12.3701486"><ele>439.40000000000003</ele><time>2026-05-01T10:05:46.796Z</time></trkpt><trkpt lat="43.7367027" lon="12.3702687"><ele>438.20000000000005</ele><time>2026-05-01T10:05:47.812Z</time></trkpt><trkpt lat="43.7366489" lon="12.3703861"><ele>437.0</ele><time>2026-05-01T10:05:48.796Z</time></trkpt><trkpt lat="43.7365961" lon="12.3705004"><ele>435.16666666666663</ele><time>2026-05-01T10:05:49.8Z</time></trkpt><trkpt lat="43.7365478" lon="12.3706106"><ele>433.3333333333333</ele><time>2026-05-01T10:05:50.806Z</time></trkpt><trkpt lat="43.7365051" lon="12.3707102"><ele>431.5</ele><time>2026-05-01T10:05:51.799Z</time></trkpt><trkpt lat="43.7364576" lon="12.3708014"><ele>429.66666666666663</ele><time>2026-05-01T10:05:52.792Z</time></trkpt><trkpt lat="43.7363829" lon="12.3708841"><ele>427.8333333333333</ele><time>2026-05-01T10:05:53.792Z</time></trkpt><trkpt lat="43.7363084" lon="12.3709534"><ele>426.0</ele><time>2026-05-01T10:05:54.823Z</time></trkpt><trkpt lat="43.7362274" lon="12.3710019"><ele>426.0</ele><time>2026-05-01T10:05:55.805Z</time></trkpt><trkpt lat="43.7361294" lon="12.3710448"><ele>426.0</ele><time>2026-05-01T10:05:56.821Z</time></trkpt><trkpt lat="43.7360401" lon="12.3710852"><ele>426.0</ele><time>2026-05-01T10:05:57.809Z</time></trkpt><trkpt lat="43.7359571" lon="12.3711427"><ele>426.0</ele><time>2026-05-01T10:05:58.797Z</time></trkpt><trkpt lat="43.735871" lon="12.3712093"><ele>426.0</ele><time>2026-05-01T10:05:59.802Z</time></trkpt><trkpt lat="43.7357873" lon="12.3712681"><ele>426.4</ele><time>2026-05-01T10:06:00.804Z</time></trkpt><trkpt lat="43.7356918" lon="12.371316"><ele>426.8</ele><time>2026-05-01T10:06:01.802Z</time></trkpt><trkpt lat="43.7355941" lon="12.3713611"><ele>427.19999999999993</ele><time>2026-05-01T10:06:02.801Z</time></trkpt><trkpt lat="43.7354912" lon="12.3714026"><ele>427.59999999999997</ele><time>2026-05-01T10:06:03.803Z</time></trkpt><trkpt lat="43.7353851" lon="12.3714399"><ele>428.0</ele><time>2026-05-01T10:06:04.82Z</time></trkpt><trkpt lat="43.7352828" lon="12.3714731"><ele>428.8333333333333</ele><time>2026-05-01T10:06:05.821Z</time></trkpt><trkpt lat="43.7351877" lon="12.371505"><ele>429.66666666666663</ele><time>2026-05-01T10:06:06.805Z</time></trkpt><trkpt lat="43.7351086" lon="12.3715398"><ele>430.5</ele><time>2026-05-01T10:06:07.807Z</time></trkpt><trkpt lat="43.7350484" lon="12.3715655"><ele>431.33333333333337</ele><time>2026-05-01T10:06:08.796Z</time></trkpt><trkpt lat="43.7349722" lon="12.3715883"><ele>432.1666666666667</ele><time>2026-05-01T10:06:10.803Z</time></trkpt><trkpt lat="43.7349141" lon="12.371652"><ele>433.0</ele><time>2026-05-01T10:06:14.806Z</time></trkpt><trkpt lat="43.7349261" lon="12.3717504"><ele>433.0</ele><time>2026-05-01T10:06:16.808Z</time></trkpt><trkpt lat="43.7349123" lon="12.3718942"><ele>432.99999999999994</ele><time>2026-05-01T10:06:18.793Z</time></trkpt><trkpt lat="43.7348896" lon="12.3720244"><ele>432.99999999999994</ele><time>2026-05-01T10:06:20.807Z</time></trkpt><trkpt lat="43.7348335" lon="12.3721562"><ele>433.0</ele><time>2026-05-01T10:06:22.799Z</time></trkpt><trkpt lat="43.7347939" lon="12.372231"><ele>433.0</ele><time>2026-05-01T10:06:23.801Z</time></trkpt><trkpt lat="43.7347085" lon="12.3723388"><ele>431.00000000000006</ele><time>2026-05-01T10:06:25.806Z</time></trkpt><trkpt lat="43.7346249" lon="12.3723664"><ele>429.0</ele><time>2026-05-01T10:06:27.801Z</time></trkpt><trkpt lat="43.7345358" lon="12.3723345"><ele>427.0</ele><time>2026-05-01T10:06:30.797Z</time></trkpt><trkpt lat="43.7344462" lon="12.3723697"><ele>425.0</ele><time>2026-05-01T10:06:33.804Z</time></trkpt><trkpt lat="43.7343942" lon="12.37244"><ele>423.00000000000006</ele><time>2026-05-01T10:06:35.806Z</time></trkpt><trkpt lat="43.7343421" lon="12.3725429"><ele>421.0</ele><time>2026-05-01T10:06:37.798Z</time></trkpt><trkpt lat="43.7343094" lon="12.3726774"><ele>420.7142857142857</ele><time>2026-05-01T10:06:39.801Z</time></trkpt><trkpt lat="43.7342966" lon="12.3727635"><ele>420.42857142857144</ele><time>2026-05-01T10:06:40.797Z</time></trkpt><trkpt lat="43.7342951" lon="12.3728558"><ele>420.1428571428571</ele><time>2026-05-01T10:06:41.795Z</time></trkpt><trkpt lat="43.7342792" lon="12.3729467"><ele>419.8571428571429</ele><time>2026-05-01T10:06:42.79Z</time></trkpt><trkpt lat="43.7342452" lon="12.3730329"><ele>419.57142857142856</ele><time>2026-05-01T10:06:43.802Z</time></trkpt><trkpt lat="43.7342066" lon="12.3731093"><ele>419.2857142857143</ele><time>2026-05-01T10:06:44.783Z</time></trkpt><trkpt lat="43.7341563" lon="12.373172"><ele>419.0</ele><time>2026-05-01T10:06:45.796Z</time></trkpt><trkpt lat="43.734097" lon="12.3732038"><ele>418.99999999999994</ele><time>2026-05-01T10:06:46.787Z</time></trkpt><trkpt lat="43.7340297" lon="12.3732071"><ele>419.0</ele><time>2026-05-01T10:06:47.799Z</time></trkpt><trkpt lat="43.7339559" lon="12.3731665"><ele>419.0</ele><time>2026-05-01T10:06:48.803Z</time></trkpt><trkpt lat="43.7338799" lon="12.3731151"><ele>419.0</ele><time>2026-05-01T10:06:49.803Z</time></trkpt><trkpt lat="43.7338005" lon="12.373058"><ele>418.99999999999994</ele><time>2026-05-01T10:06:50.794Z</time></trkpt><trkpt lat="43.7337314" lon="12.3730035"><ele>419.0</ele><time>2026-05-01T10:06:51.798Z</time></trkpt><trkpt lat="43.7336601" lon="12.3729465"><ele>418.99999999999994</ele><time>2026-05-01T10:06:52.79Z</time></trkpt><trkpt lat="43.733592" lon="12.3729094"><ele>419.0</ele><time>2026-05-01T10:06:53.795Z</time></trkpt><trkpt lat="43.7335198" lon="12.3729006"><ele>419.0</ele><time>2026-05-01T10:06:54.796Z</time></trkpt><trkpt lat="43.7334363" lon="12.372935"><ele>419.0</ele><time>2026-05-01T10:06:55.801Z</time></trkpt><trkpt lat="43.7333553" lon="12.3730066"><ele>418.99999999999994</ele><time>2026-05-01T10:06:56.791Z</time></trkpt><trkpt lat="43.7332762" lon="12.3731031"><ele>419.0</ele><time>2026-05-01T10:06:57.816Z</time></trkpt><trkpt lat="43.7331819" lon="12.3732073"><ele>414.75</ele><time>2026-05-01T10:06:58.786Z</time></trkpt><trkpt lat="43.7330826" lon="12.3733064"><ele>410.5</ele><time>2026-05-01T10:06:59.818Z</time></trkpt><trkpt lat="43.7329825" lon="12.3733977"><ele>406.25</ele><time>2026-05-01T10:07:00.794Z</time></trkpt><trkpt lat="43.7328911" lon="12.3734905"><ele>402.0</ele><time>2026-05-01T10:07:01.805Z</time></trkpt><trkpt lat="43.7328072" lon="12.3735758"><ele>402.0</ele><time>2026-05-01T10:07:02.797Z</time></trkpt><trkpt lat="43.7327254" lon="12.3736661"><ele>402.0</ele><time>2026-05-01T10:07:03.804Z</time></trkpt><trkpt lat="43.7326477" lon="12.3737505"><ele>402.0</ele><time>2026-05-01T10:07:04.799Z</time></trkpt><trkpt lat="43.732565" lon="12.3738316"><ele>402.0</ele><time>2026-05-01T10:07:05.797Z</time></trkpt><trkpt lat="43.7324821" lon="12.3739041"><ele>402.0</ele><time>2026-05-01T10:07:06.796Z</time></trkpt><trkpt lat="43.7323913" lon="12.3739509"><ele>400.6</ele><time>2026-05-01T10:07:07.815Z</time></trkpt><trkpt lat="43.7323015" lon="12.3739675"><ele>399.20000000000005</ele><time>2026-05-01T10:07:08.796Z</time></trkpt><trkpt lat="43.7322099" lon="12.3739413"><ele>397.8</ele><time>2026-05-01T10:07:09.823Z</time></trkpt><trkpt lat="43.7321202" lon="12.3739044"><ele>396.4</ele><time>2026-05-01T10:07:10.812Z</time></trkpt><trkpt lat="43.7320346" lon="12.3738794"><ele>395.0</ele><time>2026-05-01T10:07:11.801Z</time></trkpt><trkpt lat="43.7319463" lon="12.3738593"><ele>396.0</ele><time>2026-05-01T10:07:12.793Z</time></trkpt><trkpt lat="43.7318379" lon="12.3738333"><ele>397.0</ele><time>2026-05-01T10:07:13.803Z</time></trkpt><trkpt lat="43.7317115" lon="12.3737837"><ele>398.0</ele><time>2026-05-01T10:07:14.794Z</time></trkpt><trkpt lat="43.7315838" lon="12.3737223"><ele>399.0</ele><time>2026-05-01T10:07:15.819Z</time></trkpt><trkpt lat="43.7314611" lon="12.3736602"><ele>399.0</ele><time>2026-05-01T10:07:16.789Z</time></trkpt><trkpt lat="43.7313322" lon="12.3735984"><ele>399.0</ele><time>2026-05-01T10:07:17.805Z</time></trkpt><trkpt lat="43.7311988" lon="12.3735601"><ele>399.0</ele><time>2026-05-01T10:07:18.795Z</time></trkpt><trkpt lat="43.7310685" lon="12.3735447"><ele>399.0</ele><time>2026-05-01T10:07:19.804Z</time></trkpt><trkpt lat="43.7309485" lon="12.3735432"><ele>398.4</ele><time>2026-05-01T10:07:20.795Z</time></trkpt><trkpt lat="43.7308386" lon="12.3735488"><ele>397.79999999999995</ele><time>2026-05-01T10:07:21.794Z</time></trkpt><trkpt lat="43.7307364" lon="12.3735413"><ele>397.20000000000005</ele><time>2026-05-01T10:07:22.8Z</time></trkpt><trkpt lat="43.7306374" lon="12.3735268"><ele>396.6</ele><time>2026-05-01T10:07:23.799Z</time></trkpt><trkpt lat="43.730532" lon="12.3734883"><ele>396.0</ele><time>2026-05-01T10:07:24.797Z</time></trkpt><trkpt lat="43.7304331" lon="12.3734334"><ele>396.0</ele><time>2026-05-01T10:07:25.794Z</time></trkpt><trkpt lat="43.7303353" lon="12.3733729"><ele>396.0</ele><time>2026-05-01T10:07:26.798Z</time></trkpt><trkpt lat="43.730238" lon="12.3732982"><ele>396.0</ele><time>2026-05-01T10:07:27.795Z</time></trkpt><trkpt lat="43.7301282" lon="12.3732223"><ele>396.0</ele><time>2026-05-01T10:07:28.786Z</time></trkpt><trkpt lat="43.7299969" lon="12.3731572"><ele>395.33333333333337</ele><time>2026-05-01T10:07:29.805Z</time></trkpt><trkpt lat="43.7298486" lon="12.3731012"><ele>394.6666666666667</ele><time>2026-05-01T10:07:30.792Z</time></trkpt><trkpt lat="43.7296959" lon="12.3730551"><ele>394.0</ele><time>2026-05-01T10:07:31.813Z</time></trkpt><trkpt lat="43.7295449" lon="12.3730106"><ele>392.33333333333337</ele><time>2026-05-01T10:07:32.795Z</time></trkpt><trkpt lat="43.7293844" lon="12.3729687"><ele>390.66666666666663</ele><time>2026-05-01T10:07:33.792Z</time></trkpt><trkpt lat="43.7292237" lon="12.3729314"><ele>389.0</ele><time>2026-05-01T10:07:34.795Z</time></trkpt><trkpt lat="43.7290619" lon="12.3728866"><ele>389.0</ele><time>2026-05-01T10:07:35.804Z</time></trkpt><trkpt lat="43.7288949" lon="12.3728318"><ele>389.0</ele><time>2026-05-01T10:07:36.795Z</time></trkpt><trkpt lat="43.7287267" lon="12.372782"><ele>389.0</ele><time>2026-05-01T10:07:37.798Z</time></trkpt><trkpt lat="43.7285518" lon="12.372734"><ele>385.66666666666663</ele><time>2026-05-01T10:07:38.799Z</time></trkpt><trkpt lat="43.7283772" lon="12.3726868"><ele>382.3333333333333</ele><time>2026-05-01T10:07:39.795Z</time></trkpt><trkpt lat="43.7282024" lon="12.3726408"><ele>379.0</ele><time>2026-05-01T10:07:40.794Z</time></trkpt><trkpt lat="43.7280368" lon="12.3725944"><ele>379.0</ele><time>2026-05-01T10:07:41.802Z</time></trkpt><trkpt lat="43.7278788" lon="12.372548"><ele>379.0</ele><time>2026-05-01T10:07:42.788Z</time></trkpt><trkpt lat="43.7277305" lon="12.3724967"><ele>379.0</ele><time>2026-05-01T10:07:43.795Z</time></trkpt><trkpt lat="43.7275891" lon="12.3724568"><ele>377.0</ele><time>2026-05-01T10:07:44.793Z</time></trkpt><trkpt lat="43.7274472" lon="12.3724388"><ele>375.0</ele><time>2026-05-01T10:07:45.799Z</time></trkpt><trkpt lat="43.7273017" lon="12.372439"><ele>373.0</ele><time>2026-05-01T10:07:46.797Z</time></trkpt><trkpt lat="43.7271567" lon="12.3724642"><ele>371.0</ele><time>2026-05-01T10:07:47.799Z</time></trkpt><trkpt lat="43.7270004" lon="12.3724946"><ele>372.33333333333337</ele><time>2026-05-01T10:07:48.821Z</time></trkpt><trkpt lat="43.726829" lon="12.3725256"><ele>373.6666666666667</ele><time>2026-05-01T10:07:49.805Z</time></trkpt><trkpt lat="43.7266484" lon="12.3725603"><ele>375.0</ele><time>2026-05-01T10:07:50.814Z</time></trkpt><trkpt lat="43.7264606" lon="12.3725952"><ele>375.0</ele><time>2026-05-01T10:07:51.798Z</time></trkpt><trkpt lat="43.7262727" lon="12.3726311"><ele>375.0</ele><time>2026-05-01T10:07:52.807Z</time></trkpt><trkpt lat="43.7261015" lon="12.3726654"><ele>375.0</ele><time>2026-05-01T10:07:53.817Z</time></trkpt><trkpt lat="43.725949" lon="12.3726957"><ele>376.75</ele><time>2026-05-01T10:07:54.792Z</time></trkpt><trkpt lat="43.725814" lon="12.3727146"><ele>378.5</ele><time>2026-05-01T10:07:55.8Z</time></trkpt><trkpt lat="43.7256946" lon="12.3727341"><ele>380.25</ele><time>2026-05-01T10:07:56.795Z</time></trkpt><trkpt lat="43.7255867" lon="12.3727553"><ele>382.0</ele><time>2026-05-01T10:07:57.796Z</time></trkpt><trkpt lat="43.725495" lon="12.3727756"><ele>382.0</ele><time>2026-05-01T10:07:58.801Z</time></trkpt><trkpt lat="43.7254284" lon="12.3727921"><ele>382.0</ele><time>2026-05-01T10:07:59.803Z</time></trkpt><trkpt lat="43.7253476" lon="12.3728097"><ele>382.0</ele><time>2026-05-01T10:08:01.801Z</time></trkpt><trkpt lat="43.7252897" lon="12.3727688"><ele>382.0</ele><time>2026-05-01T10:08:04.803Z</time></trkpt><trkpt lat="43.7253418" lon="12.3726523"><ele>382.0</ele><time>2026-05-01T10:08:06.819Z</time></trkpt><trkpt lat="43.7254623" lon="12.3725257"><ele>382.0</ele><time>2026-05-01T10:08:08.795Z</time></trkpt><trkpt lat="43.7255251" lon="12.3724093"><ele>382.0</ele><time>2026-05-01T10:08:09.817Z</time></trkpt><trkpt lat="43.725593" lon="12.372275"><ele>382.0</ele><time>2026-05-01T10:08:10.792Z</time></trkpt><trkpt lat="43.7256742" lon="12.3721187"><ele>382.0</ele><time>2026-05-01T10:08:11.807Z</time></trkpt><trkpt lat="43.7257642" lon="12.3719588"><ele>384.75</ele><time>2026-05-01T10:08:12.795Z</time></trkpt><trkpt lat="43.7258458" lon="12.3718138"><ele>387.5</ele><time>2026-05-01T10:08:13.808Z</time></trkpt><trkpt lat="43.7259177" lon="12.3716783"><ele>390.25</ele><time>2026-05-01T10:08:14.793Z</time></trkpt><trkpt lat="43.7259854" lon="12.3715417"><ele>393.0</ele><time>2026-05-01T10:08:15.808Z</time></trkpt><trkpt lat="43.7260483" lon="12.3714115"><ele>393.6666666666667</ele><time>2026-05-01T10:08:16.796Z</time></trkpt><trkpt lat="43.7261095" lon="12.3713003"><ele>394.33333333333337</ele><time>2026-05-01T10:08:17.801Z</time></trkpt><trkpt lat="43.7261577" lon="12.3712266"><ele>395.0</ele><time>2026-05-01T10:08:18.811Z</time></trkpt><trkpt lat="43.7262427" lon="12.37113"><ele>395.6666666666667</ele><time>2026-05-01T10:08:20.812Z</time></trkpt><trkpt lat="43.7262852" lon="12.3710426"><ele>396.33333333333337</ele><time>2026-05-01T10:08:22.796Z</time></trkpt><trkpt lat="43.7262412" lon="12.3709588"><ele>397.0</ele><time>2026-05-01T10:08:35.792Z</time></trkpt><trkpt lat="43.726182" lon="12.3709069"><ele>397.00000000000006</ele><time>2026-05-01T10:08:37.801Z</time></trkpt><trkpt lat="43.7260697" lon="12.370888"><ele>397.0</ele><time>2026-05-01T10:08:39.816Z</time></trkpt><trkpt lat="43.7260027" lon="12.3708819"><ele>397.0</ele><time>2026-05-01T10:08:40.802Z</time></trkpt><trkpt lat="43.7259228" lon="12.3708812"><ele>397.0</ele><time>2026-05-01T10:08:41.807Z</time></trkpt><trkpt lat="43.7258329" lon="12.3708654"><ele>397.00000000000006</ele><time>2026-05-01T10:08:42.799Z</time></trkpt><trkpt lat="43.7257408" lon="12.3708468"><ele>397.0</ele><time>2026-05-01T10:08:43.802Z</time></trkpt><trkpt lat="43.725649" lon="12.3708136"><ele>398.20000000000005</ele><time>2026-05-01T10:08:44.789Z</time></trkpt><trkpt lat="43.7255614" lon="12.3707605"><ele>399.4</ele><time>2026-05-01T10:08:45.811Z</time></trkpt><trkpt lat="43.7254725" lon="12.3707047"><ele>400.6</ele><time>2026-05-01T10:08:46.796Z</time></trkpt><trkpt lat="43.7253781" lon="12.3706489"><ele>401.79999999999995</ele><time>2026-05-01T10:08:47.796Z</time></trkpt><trkpt lat="43.7252893" lon="12.3705939"><ele>403.0</ele><time>2026-05-01T10:08:48.794Z</time></trkpt><trkpt lat="43.7252188" lon="12.3705394"><ele>404.50000000000006</ele><time>2026-05-01T10:08:49.806Z</time></trkpt><trkpt lat="43.7251456" lon="12.3705086"><ele>406.0</ele><time>2026-05-01T10:08:50.801Z</time></trkpt><trkpt lat="43.7250725" lon="12.3705017"><ele>407.5</ele><time>2026-05-01T10:08:51.802Z</time></trkpt><trkpt lat="43.7249992" lon="12.3705223"><ele>409.0</ele><time>2026-05-01T10:08:52.789Z</time></trkpt><trkpt lat="43.7249223" lon="12.3705845"><ele>410.50000000000006</ele><time>2026-05-01T10:08:53.811Z</time></trkpt><trkpt lat="43.7248471" lon="12.370669"><ele>412.0</ele><time>2026-05-01T10:08:54.812Z</time></trkpt><trkpt lat="43.7247736" lon="12.3707578"><ele>412.0</ele><time>2026-05-01T10:08:55.818Z</time></trkpt><trkpt lat="43.7246967" lon="12.370834"><ele>412.0</ele><time>2026-05-01T10:08:56.795Z</time></trkpt><trkpt lat="43.7246149" lon="12.3708663"><ele>412.0</ele><time>2026-05-01T10:08:57.795Z</time></trkpt><trkpt lat="43.724517" lon="12.370863"><ele>412.0</ele><time>2026-05-01T10:08:58.784Z</time></trkpt><trkpt lat="43.7244047" lon="12.3708516"><ele>412.0</ele><time>2026-05-01T10:08:59.807Z</time></trkpt><trkpt lat="43.7242794" lon="12.370845"><ele>413.40000000000003</ele><time>2026-05-01T10:09:00.794Z</time></trkpt><trkpt lat="43.7241573" lon="12.3708589"><ele>414.8</ele><time>2026-05-01T10:09:01.796Z</time></trkpt><trkpt lat="43.7240471" lon="12.3708878"><ele>416.2</ele><time>2026-05-01T10:09:02.79Z</time></trkpt><trkpt lat="43.7239578" lon="12.3709071"><ele>417.6</ele><time>2026-05-01T10:09:03.801Z</time></trkpt><trkpt lat="43.7238746" lon="12.3709064"><ele>419.0</ele><time>2026-05-01T10:09:04.797Z</time></trkpt><trkpt lat="43.7237785" lon="12.3708905"><ele>418.99999999999994</ele><time>2026-05-01T10:09:05.811Z</time></trkpt><trkpt lat="43.7236863" lon="12.3708782"><ele>419.0</ele><time>2026-05-01T10:09:06.8Z</time></trkpt><trkpt lat="43.7236075" lon="12.370848"><ele>419.0</ele><time>2026-05-01T10:09:07.797Z</time></trkpt><trkpt lat="43.723534" lon="12.3707858"><ele>419.0</ele><time>2026-05-01T10:09:08.797Z</time></trkpt><trkpt lat="43.7234621" lon="12.3707009"><ele>418.99999999999994</ele><time>2026-05-01T10:09:09.81Z</time></trkpt><trkpt lat="43.7234085" lon="12.3705947"><ele>419.0</ele><time>2026-05-01T10:09:10.797Z</time></trkpt><trkpt lat="43.7233613" lon="12.370461"><ele>422.79999999999995</ele><time>2026-05-01T10:09:11.819Z</time></trkpt><trkpt lat="43.7233136" lon="12.3703328"><ele>426.59999999999997</ele><time>2026-05-01T10:09:12.788Z</time></trkpt><trkpt lat="43.7232567" lon="12.3702217"><ele>430.4</ele><time>2026-05-01T10:09:13.796Z</time></trkpt><trkpt lat="43.7231895" lon="12.3701399"><ele>434.2</ele><time>2026-05-01T10:09:14.797Z</time></trkpt><trkpt lat="43.7231027" lon="12.370079"><ele>438.0</ele><time>2026-05-01T10:09:15.819Z</time></trkpt><trkpt lat="43.7230134" lon="12.3700134"><ele>438.0</ele><time>2026-05-01T10:09:16.791Z</time></trkpt><trkpt lat="43.7229084" lon="12.3699449"><ele>438.0</ele><time>2026-05-01T10:09:17.803Z</time></trkpt><trkpt lat="43.7228132" lon="12.3698919"><ele>438.0</ele><time>2026-05-01T10:09:18.798Z</time></trkpt><trkpt lat="43.7227575" lon="12.3698291"><ele>438.0</ele><time>2026-05-01T10:09:19.803Z</time></trkpt><trkpt lat="43.7227122" lon="12.3697685"><ele>438.0</ele><time>2026-05-01T10:09:20.793Z</time></trkpt><trkpt lat="43.7226659" lon="12.3696981"><ele>438.0</ele><time>2026-05-01T10:09:21.805Z</time></trkpt><trkpt lat="43.7225911" lon="12.3695842"><ele>440.3333333333333</ele><time>2026-05-01T10:09:23.819Z</time></trkpt><trkpt lat="43.7225454" lon="12.3695019"><ele>442.66666666666663</ele><time>2026-05-01T10:09:24.802Z</time></trkpt><trkpt lat="43.7224916" lon="12.3694098"><ele>445.0</ele><time>2026-05-01T10:09:25.8Z</time></trkpt><trkpt lat="43.7224479" lon="12.3693245"><ele>447.3333333333333</ele><time>2026-05-01T10:09:26.794Z</time></trkpt><trkpt lat="43.7223887" lon="12.3692286"><ele>449.66666666666663</ele><time>2026-05-01T10:09:28.802Z</time></trkpt><trkpt lat="43.7223316" lon="12.3691633"><ele>452.0</ele><time>2026-05-01T10:09:31.808Z</time></trkpt><trkpt lat="43.7222514" lon="12.3691655"><ele>452.0</ele><time>2026-05-01T10:09:35.821Z</time></trkpt><trkpt lat="43.722137" lon="12.3691729"><ele>452.00000000000006</ele><time>2026-05-01T10:09:41.808Z</time></trkpt><trkpt lat="43.7220063" lon="12.3691644"><ele>452.00000000000006</ele><time>2026-05-01T10:09:43.798Z</time></trkpt><trkpt lat="43.7219336" lon="12.3691387"><ele>452.0</ele><time>2026-05-01T10:09:44.798Z</time></trkpt><trkpt lat="43.7218702" lon="12.3690912"><ele>452.0</ele><time>2026-05-01T10:09:45.802Z</time></trkpt><trkpt lat="43.721814" lon="12.3690203"><ele>452.16666666666663</ele><time>2026-05-01T10:09:46.791Z</time></trkpt><trkpt lat="43.7217691" lon="12.3689339"><ele>452.3333333333333</ele><time>2026-05-01T10:09:47.828Z</time></trkpt><trkpt lat="43.7217232" lon="12.3688426"><ele>452.5</ele><time>2026-05-01T10:09:48.807Z</time></trkpt><trkpt lat="43.7216944" lon="12.3687354"><ele>452.66666666666663</ele><time>2026-05-01T10:09:49.811Z</time></trkpt><trkpt lat="43.7216819" lon="12.3686196"><ele>452.8333333333333</ele><time>2026-05-01T10:09:50.799Z</time></trkpt><trkpt lat="43.721681" lon="12.3685128"><ele>453.0</ele><time>2026-05-01T10:09:51.8Z</time></trkpt><trkpt lat="43.7216842" lon="12.3684032"><ele>453.6666666666667</ele><time>2026-05-01T10:09:52.801Z</time></trkpt><trkpt lat="43.7216912" lon="12.3682851"><ele>454.33333333333337</ele><time>2026-05-01T10:09:53.802Z</time></trkpt><trkpt lat="43.7217002" lon="12.3681719"><ele>455.0</ele><time>2026-05-01T10:09:54.791Z</time></trkpt><trkpt lat="43.7217083" lon="12.3680635"><ele>455.6666666666667</ele><time>2026-05-01T10:09:55.797Z</time></trkpt><trkpt lat="43.7217176" lon="12.3679611"><ele>456.33333333333337</ele><time>2026-05-01T10:09:56.802Z</time></trkpt><trkpt lat="43.7217155" lon="12.3678586"><ele>457.0</ele><time>2026-05-01T10:09:57.794Z</time></trkpt><trkpt lat="43.7217045" lon="12.3677415"><ele>458.00000000000006</ele><time>2026-05-01T10:09:58.793Z</time></trkpt><trkpt lat="43.7216935" lon="12.3676216"><ele>459.0</ele><time>2026-05-01T10:09:59.793Z</time></trkpt><trkpt lat="43.7216855" lon="12.3675092"><ele>460.0</ele><time>2026-05-01T10:10:00.795Z</time></trkpt><trkpt lat="43.7216912" lon="12.3673939"><ele>461.0</ele><time>2026-05-01T10:10:01.803Z</time></trkpt><trkpt lat="43.7217058" lon="12.3672712"><ele>462.00000000000006</ele><time>2026-05-01T10:10:02.802Z</time></trkpt><trkpt lat="43.7217257" lon="12.3671579"><ele>463.0</ele><time>2026-05-01T10:10:03.797Z</time></trkpt><trkpt lat="43.7217485" lon="12.3670552"><ele>465.33333333333337</ele><time>2026-05-01T10:10:04.788Z</time></trkpt><trkpt lat="43.7217684" lon="12.3669703"><ele>467.6666666666667</ele><time>2026-05-01T10:10:05.803Z</time></trkpt><trkpt lat="43.7218272" lon="12.3668346"><ele>470.0</ele><time>2026-05-01T10:10:07.8Z</time></trkpt><trkpt lat="43.7218787" lon="12.3667271"><ele>472.33333333333337</ele><time>2026-05-01T10:10:09.804Z</time></trkpt><trkpt lat="43.7219193" lon="12.366617"><ele>474.6666666666667</ele><time>2026-05-01T10:10:12.798Z</time></trkpt><trkpt lat="43.7219536" lon="12.3665185"><ele>477.0</ele><time>2026-05-01T10:10:14.789Z</time></trkpt><trkpt lat="43.7219877" lon="12.36642"><ele>480.5</ele><time>2026-05-01T10:10:16.793Z</time></trkpt><trkpt lat="43.7220363" lon="12.3663318"><ele>484.0</ele><time>2026-05-01T10:10:18.795Z</time></trkpt><trkpt lat="43.7220985" lon="12.3662299"><ele>487.5</ele><time>2026-05-01T10:10:32.795Z</time></trkpt><trkpt lat="43.7221544" lon="12.3661648"><ele>491.0</ele><time>2026-05-01T10:10:34.796Z</time></trkpt><trkpt lat="43.722231" lon="12.3661085"><ele>494.5</ele><time>2026-05-01T10:10:36.8Z</time></trkpt><trkpt lat="43.7223064" lon="12.3660031"><ele>498.0</ele><time>2026-05-01T10:10:38.801Z</time></trkpt><trkpt lat="43.7223632" lon="12.3659008"><ele>498.0</ele><time>2026-05-01T10:10:40.789Z</time></trkpt><trkpt lat="43.7224253" lon="12.3658031"><ele>497.99999999999994</ele><time>2026-05-01T10:10:42.785Z</time></trkpt><trkpt lat="43.7224915" lon="12.3656993"><ele>497.99999999999994</ele><time>2026-05-01T10:10:44.79Z</time></trkpt><trkpt lat="43.7225535" lon="12.3655809"><ele>498.0</ele><time>2026-05-01T10:10:46.794Z</time></trkpt><trkpt lat="43.7225798" lon="12.365449"><ele>498.0</ele><time>2026-05-01T10:10:48.8Z</time></trkpt><trkpt lat="43.7225916" lon="12.3653387"><ele>500.5</ele><time>2026-05-01T10:10:50.787Z</time></trkpt><trkpt lat="43.7226104" lon="12.3652518"><ele>503.0</ele><time>2026-05-01T10:10:52.789Z</time></trkpt><trkpt lat="43.7226262" lon="12.3651369"><ele>505.5</ele><time>2026-05-01T10:10:54.791Z</time></trkpt><trkpt lat="43.7226455" lon="12.3650084"><ele>508.0</ele><time>2026-05-01T10:10:56.792Z</time></trkpt><trkpt lat="43.7226827" lon="12.3648364"><ele>510.5</ele><time>2026-05-01T10:10:58.802Z</time></trkpt><trkpt lat="43.7226987" lon="12.3647449"><ele>513.0</ele><time>2026-05-01T10:10:59.802Z</time></trkpt><trkpt lat="43.7227189" lon="12.364661"><ele>513.7142857142858</ele><time>2026-05-01T10:11:00.793Z</time></trkpt><trkpt lat="43.7227399" lon="12.3645758"><ele>514.4285714285714</ele><time>2026-05-01T10:11:01.797Z</time></trkpt><trkpt lat="43.7227731" lon="12.364489"><ele>515.1428571428571</ele><time>2026-05-01T10:11:02.795Z</time></trkpt><trkpt lat="43.7228153" lon="12.3644046"><ele>515.8571428571429</ele><time>2026-05-01T10:11:03.798Z</time></trkpt><trkpt lat="43.7228608" lon="12.3643182"><ele>516.5714285714286</ele><time>2026-05-01T10:11:04.789Z</time></trkpt><trkpt lat="43.7229102" lon="12.3642467"><ele>517.2857142857143</ele><time>2026-05-01T10:11:05.794Z</time></trkpt><trkpt lat="43.7229494" lon="12.364176"><ele>518.0</ele><time>2026-05-01T10:11:06.795Z</time></trkpt><trkpt lat="43.7229858" lon="12.3640884"><ele>518.0</ele><time>2026-05-01T10:11:07.792Z</time></trkpt><trkpt lat="43.7230276" lon="12.363979"><ele>518.0</ele><time>2026-05-01T10:11:08.797Z</time></trkpt><trkpt lat="43.7230607" lon="12.3638651"><ele>518.0</ele><time>2026-05-01T10:11:09.803Z</time></trkpt><trkpt lat="43.7230901" lon="12.3637517"><ele>518.0</ele><time>2026-05-01T10:11:10.787Z</time></trkpt><trkpt lat="43.723109" lon="12.3636545"><ele>518.0</ele><time>2026-05-01T10:11:11.796Z</time></trkpt><trkpt lat="43.7231154" lon="12.3635667"><ele>518.0</ele><time>2026-05-01T10:11:12.79Z</time></trkpt><trkpt lat="43.7231528" lon="12.3634252"><ele>522.5</ele><time>2026-05-01T10:11:14.785Z</time></trkpt><trkpt lat="43.7232097" lon="12.3633115"><ele>527.0</ele><time>2026-05-01T10:11:16.796Z</time></trkpt><trkpt lat="43.723314" lon="12.3632019"><ele>531.5</ele><time>2026-05-01T10:11:18.798Z</time></trkpt><trkpt lat="43.7233694" lon="12.3631493"><ele>536.0</ele><time>2026-05-01T10:11:19.802Z</time></trkpt><trkpt lat="43.7234315" lon="12.3631035"><ele>540.5</ele><time>2026-05-01T10:11:20.791Z</time></trkpt><trkpt lat="43.723499" lon="12.3630556"><ele>545.0</ele><time>2026-05-01T10:11:21.797Z</time></trkpt><trkpt lat="43.7235633" lon="12.3630081"><ele>545.8333333333333</ele><time>2026-05-01T10:11:22.799Z</time></trkpt><trkpt lat="43.7236241" lon="12.3629266"><ele>546.6666666666666</ele><time>2026-05-01T10:11:23.806Z</time></trkpt><trkpt lat="43.7236984" lon="12.3628309"><ele>547.5</ele><time>2026-05-01T10:11:24.803Z</time></trkpt><trkpt lat="43.7237706" lon="12.3627527"><ele>548.3333333333334</ele><time>2026-05-01T10:11:25.804Z</time></trkpt><trkpt lat="43.7238286" lon="12.3626949"><ele>549.1666666666667</ele><time>2026-05-01T10:11:26.798Z</time></trkpt><trkpt lat="43.723902" lon="12.3626293"><ele>550.0</ele><time>2026-05-01T10:11:28.803Z</time></trkpt><trkpt lat="43.723958" lon="12.3625826"><ele>550.0</ele><time>2026-05-01T10:11:30.801Z</time></trkpt><trkpt lat="43.7239512" lon="12.3624465"><ele>550.0</ele><time>2026-05-01T10:11:54.801Z</time></trkpt><trkpt lat="43.7239482" lon="12.3622708"><ele>550.0</ele><time>2026-05-01T10:11:56.808Z</time></trkpt><trkpt lat="43.7239434" lon="12.3621659"><ele>550.0</ele><time>2026-05-01T10:11:57.813Z</time></trkpt><trkpt lat="43.7239384" lon="12.3620548"><ele>550.0</ele><time>2026-05-01T10:11:58.793Z</time></trkpt><trkpt lat="43.7239327" lon="12.3619543"><ele>552.6666666666667</ele><time>2026-05-01T10:11:59.81Z</time></trkpt><trkpt lat="43.7239166" lon="12.3618673"><ele>555.3333333333334</ele><time>2026-05-01T10:12:00.799Z</time></trkpt><trkpt lat="43.7238642" lon="12.361774"><ele>558.0</ele><time>2026-05-01T10:12:02.804Z</time></trkpt><trkpt lat="43.7238111" lon="12.361699"><ele>560.6666666666666</ele><time>2026-05-01T10:12:08.783Z</time></trkpt><trkpt lat="43.7237611" lon="12.3615902"><ele>563.3333333333333</ele><time>2026-05-01T10:13:04.785Z</time></trkpt><trkpt lat="43.7237145" lon="12.3615249"><ele>566.0</ele><time>2026-05-01T10:13:05.796Z</time></trkpt><trkpt lat="43.7236644" lon="12.3614503"><ele>567.5</ele><time>2026-05-01T10:13:06.783Z</time></trkpt><trkpt lat="43.7236164" lon="12.3613653"><ele>569.0</ele><time>2026-05-01T10:13:07.784Z</time></trkpt><trkpt lat="43.7235832" lon="12.3612667"><ele>570.5</ele><time>2026-05-01T10:13:08.793Z</time></trkpt><trkpt lat="43.7235454" lon="12.3611588"><ele>572.0</ele><time>2026-05-01T10:13:09.793Z</time></trkpt><trkpt lat="43.7235019" lon="12.3610584"><ele>573.5</ele><time>2026-05-01T10:13:10.796Z</time></trkpt><trkpt lat="43.7234522" lon="12.3609621"><ele>575.0</ele><time>2026-05-01T10:13:11.791Z</time></trkpt><trkpt lat="43.7234111" lon="12.3608844"><ele>576.4285714285714</ele><time>2026-05-01T10:13:12.789Z</time></trkpt><trkpt lat="43.7233815" lon="12.3608043"><ele>577.8571428571428</ele><time>2026-05-01T10:13:13.793Z</time></trkpt><trkpt lat="43.7233639" lon="12.3607204"><ele>579.2857142857142</ele><time>2026-05-01T10:13:14.797Z</time></trkpt><trkpt lat="43.7233597" lon="12.3606306"><ele>580.7142857142857</ele><time>2026-05-01T10:13:15.813Z</time></trkpt><trkpt lat="43.7233584" lon="12.3605378"><ele>582.1428571428571</ele><time>2026-05-01T10:13:16.787Z</time></trkpt><trkpt lat="43.7233544" lon="12.3604388"><ele>583.5714285714286</ele><time>2026-05-01T10:13:17.795Z</time></trkpt><trkpt lat="43.7233542" lon="12.3603355"><ele>585.0</ele><time>2026-05-01T10:13:18.803Z</time></trkpt><trkpt lat="43.7233546" lon="12.3602388"><ele>586.8333333333334</ele><time>2026-05-01T10:13:19.8Z</time></trkpt><trkpt lat="43.7233949" lon="12.3601574"><ele>588.6666666666666</ele><time>2026-05-01T10:13:20.794Z</time></trkpt><trkpt lat="43.7234426" lon="12.3600813"><ele>590.5</ele><time>2026-05-01T10:13:21.795Z</time></trkpt><trkpt lat="43.7234912" lon="12.3599923"><ele>592.3333333333333</ele><time>2026-05-01T10:13:22.795Z</time></trkpt><trkpt lat="43.723532" lon="12.3599002"><ele>594.1666666666666</ele><time>2026-05-01T10:13:23.792Z</time></trkpt><trkpt lat="43.723562" lon="12.3597957"><ele>596.0</ele><time>2026-05-01T10:13:24.799Z</time></trkpt><trkpt lat="43.7235843" lon="12.3596916"><ele>597.6666666666666</ele><time>2026-05-01T10:13:25.794Z</time></trkpt><trkpt lat="43.7236075" lon="12.3596007"><ele>599.3333333333333</ele><time>2026-05-01T10:13:26.794Z</time></trkpt><trkpt lat="43.7236609" lon="12.3594691"><ele>601.0</ele><time>2026-05-01T10:13:28.799Z</time></trkpt><trkpt lat="43.7237117" lon="12.3593739"><ele>602.6666666666666</ele><time>2026-05-01T10:13:30.791Z</time></trkpt><trkpt lat="43.7237885" lon="12.3593412"><ele>604.3333333333334</ele><time>2026-05-01T10:13:33.805Z</time></trkpt><trkpt lat="43.7238267" lon="12.3592589"><ele>606.0</ele><time>2026-05-01T10:13:42.783Z</time></trkpt><trkpt lat="43.723857" lon="12.3591775"><ele>606.0</ele><time>2026-05-01T10:13:44.805Z</time></trkpt><trkpt lat="43.7238679" lon="12.3590818"><ele>606.0</ele><time>2026-05-01T10:13:49.796Z</time></trkpt><trkpt lat="43.7238338" lon="12.3589715"><ele>606.0</ele><time>2026-05-01T10:13:52.796Z</time></trkpt><trkpt lat="43.7237734" lon="12.3588734"><ele>606.0</ele><time>2026-05-01T10:13:54.792Z</time></trkpt><trkpt lat="43.7237042" lon="12.3587529"><ele>606.0</ele><time>2026-05-01T10:13:56.791Z</time></trkpt><trkpt lat="43.7236315" lon="12.3586357"><ele>608.6</ele><time>2026-05-01T10:13:58.804Z</time></trkpt><trkpt lat="43.7235799" lon="12.3585417"><ele>611.2</ele><time>2026-05-01T10:14:00.8Z</time></trkpt><trkpt lat="43.7235201" lon="12.3584121"><ele>613.8</ele><time>2026-05-01T10:14:02.79Z</time></trkpt><trkpt lat="43.7234515" lon="12.3582814"><ele>616.4</ele><time>2026-05-01T10:14:04.795Z</time></trkpt><trkpt lat="43.7233798" lon="12.3581477"><ele>619.0</ele><time>2026-05-01T10:14:06.793Z</time></trkpt><trkpt lat="43.7233356" lon="12.358027"><ele>619.5</ele><time>2026-05-01T10:14:08.786Z</time></trkpt><trkpt lat="43.7233165" lon="12.3579427"><ele>620.0</ele><time>2026-05-01T10:14:10.795Z</time></trkpt><trkpt lat="43.7232525" lon="12.3578832"><ele>620.5</ele><time>2026-05-01T10:14:14.795Z</time></trkpt><trkpt lat="43.7232163" lon="12.3579824"><ele>621.0</ele><time>2026-05-01T10:14:34.796Z</time></trkpt><trkpt lat="43.7232032" lon="12.3580754"><ele>621.5</ele><time>2026-05-01T10:14:37.81Z</time></trkpt><trkpt lat="43.7232747" lon="12.3581621"><ele>622.0</ele><time>2026-05-01T10:14:41.795Z</time></trkpt><trkpt lat="43.7233378" lon="12.3582292"><ele>622.0</ele><time>2026-05-01T10:14:43.8Z</time></trkpt><trkpt lat="43.7234114" lon="12.3583046"><ele>622.0</ele><time>2026-05-01T10:14:45.8Z</time></trkpt><trkpt lat="43.7234776" lon="12.3583792"><ele>622.0</ele><time>2026-05-01T10:14:47.791Z</time></trkpt><trkpt lat="43.7235388" lon="12.3584286"><ele>622.0</ele><time>2026-05-01T10:14:49.8Z</time></trkpt><trkpt lat="43.723616" lon="12.3584365"><ele>622.0</ele><time>2026-05-01T10:14:52.793Z</time></trkpt><trkpt lat="43.7236876" lon="12.3583715"><ele>622.0</ele><time>2026-05-01T10:14:55.795Z</time></trkpt><trkpt lat="43.7237423" lon="12.3583064"><ele>621.5</ele><time>2026-05-01T10:14:58.796Z</time></trkpt><trkpt lat="43.7237886" lon="12.3582384"><ele>621.0</ele><time>2026-05-01T10:15:00.796Z</time></trkpt><trkpt lat="43.7238539" lon="12.3581419"><ele>620.5</ele><time>2026-05-01T10:15:02.797Z</time></trkpt><trkpt lat="43.7238953" lon="12.3580424"><ele>620.0</ele><time>2026-05-01T10:15:04.797Z</time></trkpt><trkpt lat="43.7239137" lon="12.357936"><ele>619.5</ele><time>2026-05-01T10:15:06.788Z</time></trkpt><trkpt lat="43.7239281" lon="12.357811"><ele>619.0</ele><time>2026-05-01T10:15:08.796Z</time></trkpt><trkpt lat="43.7239321" lon="12.357661"><ele>621.2</ele><time>2026-05-01T10:15:10.791Z</time></trkpt><trkpt lat="43.7239298" lon="12.3575013"><ele>623.4</ele><time>2026-05-01T10:15:12.803Z</time></trkpt><trkpt lat="43.7239466" lon="12.3573312"><ele>625.6</ele><time>2026-05-01T10:15:14.793Z</time></trkpt><trkpt lat="43.7239678" lon="12.3572454"><ele>627.8</ele><time>2026-05-01T10:15:15.807Z</time></trkpt><trkpt lat="43.7239928" lon="12.3571642"><ele>630.0</ele><time>2026-05-01T10:15:16.794Z</time></trkpt><trkpt lat="43.7240465" lon="12.3570655"><ele>632.3333333333334</ele><time>2026-05-01T10:15:18.809Z</time></trkpt><trkpt lat="43.7240887" lon="12.3569994"><ele>634.6666666666666</ele><time>2026-05-01T10:15:29.801Z</time></trkpt><trkpt lat="43.7240523" lon="12.3569208"><ele>637.0</ele><time>2026-05-01T10:15:35.815Z</time></trkpt><trkpt lat="43.7239783" lon="12.3568519"><ele>639.3333333333333</ele><time>2026-05-01T10:15:37.796Z</time></trkpt><trkpt lat="43.7238766" lon="12.3567794"><ele>641.6666666666666</ele><time>2026-05-01T10:15:39.802Z</time></trkpt><trkpt lat="43.7238165" lon="12.356742"><ele>644.0</ele><time>2026-05-01T10:15:40.799Z</time></trkpt><trkpt lat="43.7237084" lon="12.3567133"><ele>644.0</ele><time>2026-05-01T10:15:42.795Z</time></trkpt><trkpt lat="43.7236021" lon="12.3567116"><ele>644.0</ele><time>2026-05-01T10:15:44.789Z</time></trkpt><trkpt lat="43.7235274" lon="12.3567099"><ele>644.0</ele><time>2026-05-01T10:15:46.808Z</time></trkpt><trkpt lat="43.7234597" lon="12.3566587"><ele>644.0</ele><time>2026-05-01T10:15:49.807Z</time></trkpt><trkpt lat="43.7234037" lon="12.3565725"><ele>644.0</ele><time>2026-05-01T10:15:51.795Z</time></trkpt><trkpt lat="43.7233679" lon="12.356494"><ele>644.0</ele><time>2026-05-01T10:15:53.806Z</time></trkpt><trkpt lat="43.7233415" lon="12.356404"><ele>648.4000000000001</ele><time>2026-05-01T10:15:55.8Z</time></trkpt><trkpt lat="43.7232963" lon="12.3562758"><ele>652.8</ele><time>2026-05-01T10:15:57.809Z</time></trkpt><trkpt lat="43.7232877" lon="12.3561638"><ele>657.2</ele><time>2026-05-01T10:15:59.798Z</time></trkpt><trkpt lat="43.7232794" lon="12.3560202"><ele>661.5999999999999</ele><time>2026-05-01T10:16:01.795Z</time></trkpt><trkpt lat="43.7232692" lon="12.3558562"><ele>666.0</ele><time>2026-05-01T10:16:03.8Z</time></trkpt><trkpt lat="43.723242" lon="12.3557229"><ele>666.0</ele><time>2026-05-01T10:16:05.809Z</time></trkpt><trkpt lat="43.723194" lon="12.3556521"><ele>666.0</ele><time>2026-05-01T10:16:09.807Z</time></trkpt><trkpt lat="43.7231344" lon="12.3555558"><ele>666.0</ele><time>2026-05-01T10:16:12.799Z</time></trkpt><trkpt lat="43.7230921" lon="12.3554704"><ele>666.0</ele><time>2026-05-01T10:16:14.789Z</time></trkpt><trkpt lat="43.7230352" lon="12.3553597"><ele>666.0</ele><time>2026-05-01T10:16:16.792Z</time></trkpt><trkpt lat="43.7229831" lon="12.3552833"><ele>666.0</ele><time>2026-05-01T10:16:18.791Z</time></trkpt><trkpt lat="43.7228977" lon="12.3552383"><ele>668.3333333333334</ele><time>2026-05-01T10:16:20.79Z</time></trkpt><trkpt lat="43.7227705" lon="12.3552238"><ele>670.6666666666666</ele><time>2026-05-01T10:16:22.791Z</time></trkpt><trkpt lat="43.7227037" lon="12.3552155"><ele>673.0</ele><time>2026-05-01T10:16:23.812Z</time></trkpt><trkpt lat="43.7226001" lon="12.3552119"><ele>675.3333333333333</ele><time>2026-05-01T10:16:25.811Z</time></trkpt><trkpt lat="43.7225258" lon="12.3552273"><ele>677.6666666666666</ele><time>2026-05-01T10:16:27.801Z</time></trkpt><trkpt lat="43.7224687" lon="12.3552751"><ele>680.0</ele><time>2026-05-01T10:16:31.793Z</time></trkpt><trkpt lat="43.7224147" lon="12.3553351"><ele>680.0</ele><time>2026-05-01T10:16:41.806Z</time></trkpt><trkpt lat="43.7223438" lon="12.3553262"><ele>680.0</ele><time>2026-05-01T10:16:44.793Z</time></trkpt><trkpt lat="43.7222763" lon="12.3553236"><ele>680.0</ele><time>2026-05-01T10:16:46.796Z</time></trkpt><trkpt lat="43.7221949" lon="12.355289"><ele>680.0</ele><time>2026-05-01T10:16:48.8Z</time></trkpt><trkpt lat="43.7221092" lon="12.3552031"><ele>680.0</ele><time>2026-05-01T10:16:50.783Z</time></trkpt><trkpt lat="43.7219927" lon="12.3551627"><ele>680.0</ele><time>2026-05-01T10:16:52.798Z</time></trkpt><trkpt lat="43.7219267" lon="12.355144"><ele>680.0</ele><time>2026-05-01T10:16:53.796Z</time></trkpt><trkpt lat="43.7217965" lon="12.3551018"><ele>680.0</ele><time>2026-05-01T10:16:55.795Z</time></trkpt><trkpt lat="43.7216856" lon="12.3550564"><ele>680.0</ele><time>2026-05-01T10:16:57.801Z</time></trkpt><trkpt lat="43.7216085" lon="12.3550083"><ele>680.0</ele><time>2026-05-01T10:16:59.81Z</time></trkpt><trkpt lat="43.7215407" lon="12.3549896"><ele>678.5</ele><time>2026-05-01T10:17:01.802Z</time></trkpt><trkpt lat="43.7214577" lon="12.354993"><ele>677.0</ele><time>2026-05-01T10:17:03.799Z</time></trkpt><trkpt lat="43.721365" lon="12.354966"><ele>675.5</ele><time>2026-05-01T10:17:05.812Z</time></trkpt><trkpt lat="43.7212971" lon="12.354939"><ele>674.0</ele><time>2026-05-01T10:17:07.789Z</time></trkpt><trkpt lat="43.7212221" lon="12.3549"><ele>672.5</ele><time>2026-05-01T10:17:10.8Z</time></trkpt><trkpt lat="43.7211682" lon="12.3548499"><ele>671.0</ele><time>2026-05-01T10:17:12.791Z</time></trkpt><trkpt lat="43.7211085" lon="12.3547803"><ele>669.1999999999999</ele><time>2026-05-01T10:17:14.793Z</time></trkpt><trkpt lat="43.7210297" lon="12.3547011"><ele>667.4</ele><time>2026-05-01T10:17:16.796Z</time></trkpt><trkpt lat="43.7209425" lon="12.3546173"><ele>665.6</ele><time>2026-05-01T10:17:18.796Z</time></trkpt><trkpt lat="43.7208608" lon="12.3545581"><ele>663.8</ele><time>2026-05-01T10:17:20.792Z</time></trkpt><trkpt lat="43.7207732" lon="12.354516"><ele>662.0</ele><time>2026-05-01T10:17:22.788Z</time></trkpt><trkpt lat="43.7206978" lon="12.354454"><ele>662.0</ele><time>2026-05-01T10:17:24.804Z</time></trkpt><trkpt lat="43.7206287" lon="12.3543243"><ele>662.0</ele><time>2026-05-01T10:17:26.788Z</time></trkpt><trkpt lat="43.7205948" lon="12.35416"><ele>662.0</ele><time>2026-05-01T10:17:28.795Z</time></trkpt><trkpt lat="43.7205823" lon="12.3540746"><ele>662.0</ele><time>2026-05-01T10:17:29.792Z</time></trkpt><trkpt lat="43.7205575" lon="12.3539573"><ele>662.0</ele><time>2026-05-01T10:17:31.8Z</time></trkpt><trkpt lat="43.7205237" lon="12.3538267"><ele>661.1666666666666</ele><time>2026-05-01T10:17:34.799Z</time></trkpt><trkpt lat="43.7205173" lon="12.3536967"><ele>660.3333333333333</ele><time>2026-05-01T10:17:36.792Z</time></trkpt><trkpt lat="43.7205125" lon="12.3535824"><ele>659.5</ele><time>2026-05-01T10:17:39.811Z</time></trkpt><trkpt lat="43.7204974" lon="12.3534921"><ele>658.6666666666666</ele><time>2026-05-01T10:17:42.801Z</time></trkpt><trkpt lat="43.7204846" lon="12.3533891"><ele>657.8333333333334</ele><time>2026-05-01T10:17:44.798Z</time></trkpt><trkpt lat="43.7204545" lon="12.3532986"><ele>657.0</ele><time>2026-05-01T10:17:46.787Z</time></trkpt><trkpt lat="43.7203939" lon="12.3532231"><ele>657.0</ele><time>2026-05-01T10:17:48.805Z</time></trkpt><trkpt lat="43.7203009" lon="12.3531901"><ele>657.0</ele><time>2026-05-01T10:17:50.799Z</time></trkpt><trkpt lat="43.7202062" lon="12.3531649"><ele>657.0</ele><time>2026-05-01T10:17:52.804Z</time></trkpt><trkpt lat="43.7201338" lon="12.3531508"><ele>657.0</ele><time>2026-05-01T10:17:55.798Z</time></trkpt><trkpt lat="43.7200692" lon="12.3531682"><ele>657.0</ele><time>2026-05-01T10:17:58.786Z</time></trkpt><trkpt lat="43.7199779" lon="12.3532091"><ele>657.0</ele><time>2026-05-01T10:18:01.798Z</time></trkpt><trkpt lat="43.7199025" lon="12.3532279"><ele>654.6666666666666</ele><time>2026-05-01T10:18:03.813Z</time></trkpt><trkpt lat="43.7198117" lon="12.3532544"><ele>652.3333333333334</ele><time>2026-05-01T10:18:06.796Z</time></trkpt><trkpt lat="43.7197422" lon="12.3532873"><ele>650.0</ele><time>2026-05-01T10:18:08.793Z</time></trkpt><trkpt lat="43.7196557" lon="12.3533148"><ele>647.6666666666667</ele><time>2026-05-01T10:18:10.789Z</time></trkpt><trkpt lat="43.7195836" lon="12.3533181"><ele>645.3333333333334</ele><time>2026-05-01T10:18:12.789Z</time></trkpt><trkpt lat="43.7195143" lon="12.3533232"><ele>643.0</ele><time>2026-05-01T10:18:15.8Z</time></trkpt><trkpt lat="43.7194398" lon="12.3533035"><ele>640.5</ele><time>2026-05-01T10:18:18.798Z</time></trkpt><trkpt lat="43.7193697" lon="12.3532609"><ele>638.0</ele><time>2026-05-01T10:18:20.8Z</time></trkpt><trkpt lat="43.7192998" lon="12.3532277"><ele>635.5</ele><time>2026-05-01T10:18:22.789Z</time></trkpt><trkpt lat="43.7192167" lon="12.3531908"><ele>633.0</ele><time>2026-05-01T10:18:24.792Z</time></trkpt><trkpt lat="43.719092" lon="12.3531553"><ele>630.5</ele><time>2026-05-01T10:18:26.792Z</time></trkpt><trkpt lat="43.7190254" lon="12.3531416"><ele>628.0</ele><time>2026-05-01T10:18:27.811Z</time></trkpt><trkpt lat="43.7189602" lon="12.3531238"><ele>628.0</ele><time>2026-05-01T10:18:28.796Z</time></trkpt><trkpt lat="43.7188515" lon="12.3530843"><ele>628.0</ele><time>2026-05-01T10:18:30.798Z</time></trkpt><trkpt lat="43.7187553" lon="12.3530686"><ele>628.0</ele><time>2026-05-01T10:18:32.796Z</time></trkpt><trkpt lat="43.7186925" lon="12.3530755"><ele>628.0</ele><time>2026-05-01T10:18:34.8Z</time></trkpt><trkpt lat="43.7186284" lon="12.3531"><ele>628.0</ele><time>2026-05-01T10:18:38.816Z</time></trkpt><trkpt lat="43.7185358" lon="12.3531022"><ele>628.0</ele><time>2026-05-01T10:18:40.797Z</time></trkpt><trkpt lat="43.7184297" lon="12.3530729"><ele>625.5</ele><time>2026-05-01T10:18:42.795Z</time></trkpt><trkpt lat="43.7183443" lon="12.3530481"><ele>623.0</ele><time>2026-05-01T10:18:44.792Z</time></trkpt><trkpt lat="43.7182801" lon="12.353037"><ele>620.5</ele><time>2026-05-01T10:18:47.803Z</time></trkpt><trkpt lat="43.718195" lon="12.3530243"><ele>618.0</ele><time>2026-05-01T10:18:49.803Z</time></trkpt><trkpt lat="43.7180993" lon="12.3529959"><ele>615.5</ele><time>2026-05-01T10:18:51.813Z</time></trkpt><trkpt lat="43.7180057" lon="12.3529814"><ele>613.0</ele><time>2026-05-01T10:18:54.804Z</time></trkpt><trkpt lat="43.7179399" lon="12.3530305"><ele>613.0</ele><time>2026-05-01T10:18:56.804Z</time></trkpt><trkpt lat="43.7178637" lon="12.3531132"><ele>613.0</ele><time>2026-05-01T10:18:58.814Z</time></trkpt><trkpt lat="43.7178068" lon="12.3531678"><ele>613.0</ele><time>2026-05-01T10:19:00.803Z</time></trkpt><trkpt lat="43.7176969" lon="12.3532299"><ele>613.0</ele><time>2026-05-01T10:19:03.794Z</time></trkpt><trkpt lat="43.7175904" lon="12.3532621"><ele>613.0</ele><time>2026-05-01T10:19:05.813Z</time></trkpt><trkpt lat="43.7174807" lon="12.353293"><ele>609.1999999999999</ele><time>2026-05-01T10:19:07.801Z</time></trkpt><trkpt lat="43.7173942" lon="12.3532982"><ele>605.4</ele><time>2026-05-01T10:19:09.8Z</time></trkpt><trkpt lat="43.7172776" lon="12.3532867"><ele>601.5999999999999</ele><time>2026-05-01T10:19:11.807Z</time></trkpt><trkpt lat="43.7171709" lon="12.3533221"><ele>597.8</ele><time>2026-05-01T10:19:13.801Z</time></trkpt><trkpt lat="43.7170812" lon="12.353283"><ele>594.0</ele><time>2026-05-01T10:19:15.802Z</time></trkpt><trkpt lat="43.7170227" lon="12.353184"><ele>594.0</ele><time>2026-05-01T10:19:17.798Z</time></trkpt><trkpt lat="43.7169245" lon="12.3530892"><ele>594.0</ele><time>2026-05-01T10:19:19.797Z</time></trkpt><trkpt lat="43.7168712" lon="12.3530358"><ele>594.0</ele><time>2026-05-01T10:19:20.794Z</time></trkpt><trkpt lat="43.7167787" lon="12.3529749"><ele>594.0</ele><time>2026-05-01T10:19:22.803Z</time></trkpt><trkpt lat="43.716675" lon="12.352996"><ele>594.0</ele><time>2026-05-01T10:19:24.793Z</time></trkpt><trkpt lat="43.7165764" lon="12.3529979"><ele>591.4</ele><time>2026-05-01T10:19:26.793Z</time></trkpt><trkpt lat="43.7165095" lon="12.3529115"><ele>588.8</ele><time>2026-05-01T10:19:28.801Z</time></trkpt><trkpt lat="43.7164634" lon="12.352766"><ele>586.2</ele><time>2026-05-01T10:19:30.799Z</time></trkpt><trkpt lat="43.7164155" lon="12.352605"><ele>583.6</ele><time>2026-05-01T10:19:32.798Z</time></trkpt><trkpt lat="43.7163725" lon="12.3524776"><ele>581.0</ele><time>2026-05-01T10:19:34.802Z</time></trkpt><trkpt lat="43.7163816" lon="12.3523773"><ele>581.0</ele><time>2026-05-01T10:19:42.799Z</time></trkpt><trkpt lat="43.7164218" lon="12.3522315"><ele>581.0</ele><time>2026-05-01T10:19:44.805Z</time></trkpt><trkpt lat="43.7164587" lon="12.3521251"><ele>581.0</ele><time>2026-05-01T10:19:45.793Z</time></trkpt><trkpt lat="43.7164944" lon="12.3520116"><ele>581.0</ele><time>2026-05-01T10:19:46.798Z</time></trkpt><trkpt lat="43.7165347" lon="12.3518873"><ele>581.0</ele><time>2026-05-01T10:19:47.799Z</time></trkpt><trkpt lat="43.7165768" lon="12.3517567"><ele>579.4</ele><time>2026-05-01T10:19:48.803Z</time></trkpt><trkpt lat="43.7166144" lon="12.3516251"><ele>577.8</ele><time>2026-05-01T10:19:49.793Z</time></trkpt><trkpt lat="43.7166567" lon="12.3514905"><ele>576.1999999999999</ele><time>2026-05-01T10:19:50.787Z</time></trkpt><trkpt lat="43.7167085" lon="12.3513628"><ele>574.6</ele><time>2026-05-01T10:19:51.804Z</time></trkpt><trkpt lat="43.7167613" lon="12.3512363"><ele>573.0</ele><time>2026-05-01T10:19:52.789Z</time></trkpt><trkpt lat="43.7168231" lon="12.3511168"><ele>573.5</ele><time>2026-05-01T10:19:53.797Z</time></trkpt><trkpt lat="43.7168793" lon="12.3509976"><ele>574.0</ele><time>2026-05-01T10:19:54.796Z</time></trkpt><trkpt lat="43.7169299" lon="12.3508968"><ele>574.5</ele><time>2026-05-01T10:19:55.797Z</time></trkpt><trkpt lat="43.7169628" lon="12.3508015"><ele>575.0</ele><time>2026-05-01T10:19:56.797Z</time></trkpt><trkpt lat="43.716977" lon="12.350703"><ele>575.5</ele><time>2026-05-01T10:19:57.787Z</time></trkpt><trkpt lat="43.7169639" lon="12.3505962"><ele>576.0</ele><time>2026-05-01T10:19:58.798Z</time></trkpt><trkpt lat="43.7169364" lon="12.3504933"><ele>572.4</ele><time>2026-05-01T10:19:59.793Z</time></trkpt><trkpt lat="43.7168923" lon="12.3503971"><ele>568.8</ele><time>2026-05-01T10:20:00.8Z</time></trkpt><trkpt lat="43.7168315" lon="12.3502892"><ele>565.1999999999999</ele><time>2026-05-01T10:20:01.791Z</time></trkpt><trkpt lat="43.7167581" lon="12.3501747"><ele>561.6</ele><time>2026-05-01T10:20:02.791Z</time></trkpt><trkpt lat="43.7166733" lon="12.3500465"><ele>558.0</ele><time>2026-05-01T10:20:03.787Z</time></trkpt><trkpt lat="43.7165876" lon="12.3499222"><ele>558.0</ele><time>2026-05-01T10:20:04.785Z</time></trkpt><trkpt lat="43.7164958" lon="12.3497991"><ele>558.0</ele><time>2026-05-01T10:20:05.789Z</time></trkpt><trkpt lat="43.7164014" lon="12.3496691"><ele>558.0</ele><time>2026-05-01T10:20:06.784Z</time></trkpt><trkpt lat="43.7163121" lon="12.3495459"><ele>558.0</ele><time>2026-05-01T10:20:07.789Z</time></trkpt><trkpt lat="43.7162324" lon="12.3494244"><ele>557.8</ele><time>2026-05-01T10:20:08.801Z</time></trkpt><trkpt lat="43.7161663" lon="12.3493128"><ele>557.5999999999999</ele><time>2026-05-01T10:20:09.798Z</time></trkpt><trkpt lat="43.7161083" lon="12.3492042"><ele>557.4000000000001</ele><time>2026-05-01T10:20:10.797Z</time></trkpt><trkpt lat="43.7160572" lon="12.349099"><ele>557.2</ele><time>2026-05-01T10:20:11.795Z</time></trkpt><trkpt lat="43.7160114" lon="12.3489638"><ele>557.0</ele><time>2026-05-01T10:20:12.793Z</time></trkpt><trkpt lat="43.7159789" lon="12.3488174"><ele>554.2</ele><time>2026-05-01T10:20:13.798Z</time></trkpt><trkpt lat="43.715938" lon="12.3486776"><ele>551.4000000000001</ele><time>2026-05-01T10:20:14.793Z</time></trkpt><trkpt lat="43.7158936" lon="12.3485567"><ele>548.5999999999999</ele><time>2026-05-01T10:20:15.797Z</time></trkpt><trkpt lat="43.7158525" lon="12.3484503"><ele>545.8</ele><time>2026-05-01T10:20:16.796Z</time></trkpt><trkpt lat="43.715815" lon="12.3483615"><ele>543.0</ele><time>2026-05-01T10:20:17.796Z</time></trkpt><trkpt lat="43.7157219" lon="12.348256"><ele>543.0</ele><time>2026-05-01T10:20:19.803Z</time></trkpt><trkpt lat="43.715606" lon="12.3482659"><ele>543.0</ele><time>2026-05-01T10:20:21.805Z</time></trkpt><trkpt lat="43.7154984" lon="12.3483057"><ele>543.0</ele><time>2026-05-01T10:20:23.795Z</time></trkpt><trkpt lat="43.715412" lon="12.3483005"><ele>543.0</ele><time>2026-05-01T10:20:25.797Z</time></trkpt><trkpt lat="43.7153319" lon="12.3482659"><ele>543.0</ele><time>2026-05-01T10:20:27.798Z</time></trkpt><trkpt lat="43.7152686" lon="12.3481628"><ele>542.8333333333334</ele><time>2026-05-01T10:20:29.811Z</time></trkpt><trkpt lat="43.7152273" lon="12.3480505"><ele>542.6666666666666</ele><time>2026-05-01T10:20:31.813Z</time></trkpt><trkpt lat="43.7152107" lon="12.3479415"><ele>542.5</ele><time>2026-05-01T10:20:33.797Z</time></trkpt><trkpt lat="43.7152146" lon="12.3478242"><ele>542.3333333333333</ele><time>2026-05-01T10:20:35.803Z</time></trkpt><trkpt lat="43.7152192" lon="12.3476914"><ele>542.1666666666666</ele><time>2026-05-01T10:20:37.792Z</time></trkpt><trkpt lat="43.715256" lon="12.3475686"><ele>542.0</ele><time>2026-05-01T10:20:39.798Z</time></trkpt><trkpt lat="43.7153244" lon="12.3474719"><ele>542.0</ele><time>2026-05-01T10:20:41.795Z</time></trkpt><trkpt lat="43.7153895" lon="12.3473884"><ele>542.0</ele><time>2026-05-01T10:20:43.794Z</time></trkpt><trkpt lat="43.715428" lon="12.3472853"><ele>542.0</ele><time>2026-05-01T10:20:45.798Z</time></trkpt><trkpt lat="43.7154133" lon="12.3471743"><ele>542.0</ele><time>2026-05-01T10:20:47.819Z</time></trkpt><trkpt lat="43.7153513" lon="12.3470926"><ele>542.0</ele><time>2026-05-01T10:20:49.788Z</time></trkpt><trkpt lat="43.7152609" lon="12.3470504"><ele>542.0</ele><time>2026-05-01T10:20:51.803Z</time></trkpt><trkpt lat="43.7151707" lon="12.3470209"><ele>538.0</ele><time>2026-05-01T10:20:53.802Z</time></trkpt><trkpt lat="43.7150794" lon="12.3469843"><ele>534.0</ele><time>2026-05-01T10:20:55.803Z</time></trkpt><trkpt lat="43.7149991" lon="12.3469373"><ele>530.0</ele><time>2026-05-01T10:20:57.806Z</time></trkpt><trkpt lat="43.7149215" lon="12.3468947"><ele>526.0</ele><time>2026-05-01T10:20:59.801Z</time></trkpt><trkpt lat="43.7148317" lon="12.3468144"><ele>522.0</ele><time>2026-05-01T10:21:01.802Z</time></trkpt><trkpt lat="43.7147696" lon="12.3466686"><ele>522.0</ele><time>2026-05-01T10:21:03.795Z</time></trkpt><trkpt lat="43.7147601" lon="12.3465717"><ele>522.0</ele><time>2026-05-01T10:21:04.793Z</time></trkpt><trkpt lat="43.7147506" lon="12.3464668"><ele>522.0</ele><time>2026-05-01T10:21:05.794Z</time></trkpt><trkpt lat="43.7147527" lon="12.3463565"><ele>522.0</ele><time>2026-05-01T10:21:06.839Z</time></trkpt><trkpt lat="43.7147255" lon="12.3462644"><ele>522.0</ele><time>2026-05-01T10:21:07.791Z</time></trkpt><trkpt lat="43.7146233" lon="12.3461691"><ele>522.0</ele><time>2026-05-01T10:21:09.794Z</time></trkpt><trkpt lat="43.7145618" lon="12.3461356"><ele>522.0</ele><time>2026-05-01T10:21:10.786Z</time></trkpt><trkpt lat="43.7144957" lon="12.346118"><ele>522.0</ele><time>2026-05-01T10:21:11.798Z</time></trkpt><trkpt lat="43.7144214" lon="12.3460983"><ele>522.0</ele><time>2026-05-01T10:21:12.793Z</time></trkpt><trkpt lat="43.7143484" lon="12.3460597"><ele>522.0</ele><time>2026-05-01T10:21:13.804Z</time></trkpt><trkpt lat="43.7142718" lon="12.3460002"><ele>522.0</ele><time>2026-05-01T10:21:14.798Z</time></trkpt><trkpt lat="43.7142021" lon="12.3459153"><ele>522.0</ele><time>2026-05-01T10:21:15.797Z</time></trkpt><trkpt lat="43.7141334" lon="12.3458008"><ele>519.6666666666666</ele><time>2026-05-01T10:21:16.789Z</time></trkpt><trkpt lat="43.7140771" lon="12.3456765"><ele>517.3333333333334</ele><time>2026-05-01T10:21:17.799Z</time></trkpt><trkpt lat="43.7140307" lon="12.3455659"><ele>515.0</ele><time>2026-05-01T10:21:18.798Z</time></trkpt><trkpt lat="43.7139853" lon="12.3454655"><ele>512.6666666666667</ele><time>2026-05-01T10:21:19.793Z</time></trkpt><trkpt lat="43.7139325" lon="12.3453904"><ele>510.33333333333337</ele><time>2026-05-01T10:21:20.797Z</time></trkpt><trkpt lat="43.7138585" lon="12.345353"><ele>508.0</ele><time>2026-05-01T10:21:21.804Z</time></trkpt><trkpt lat="43.7137747" lon="12.3453488"><ele>508.00000000000006</ele><time>2026-05-01T10:21:22.789Z</time></trkpt><trkpt lat="43.7136816" lon="12.3453672"><ele>508.0</ele><time>2026-05-01T10:21:23.805Z</time></trkpt><trkpt lat="43.7135929" lon="12.3454039"><ele>508.0</ele><time>2026-05-01T10:21:24.792Z</time></trkpt><trkpt lat="43.7134986" lon="12.3454376"><ele>508.0</ele><time>2026-05-01T10:21:25.798Z</time></trkpt><trkpt lat="43.7134212" lon="12.345474"><ele>508.00000000000006</ele><time>2026-05-01T10:21:26.793Z</time></trkpt><trkpt lat="43.7133512" lon="12.3455044"><ele>508.0</ele><time>2026-05-01T10:21:27.802Z</time></trkpt><trkpt lat="43.7132841" lon="12.3455314"><ele>505.6666666666667</ele><time>2026-05-01T10:21:28.792Z</time></trkpt><trkpt lat="43.7131756" lon="12.3455778"><ele>503.33333333333337</ele><time>2026-05-01T10:21:30.792Z</time></trkpt><trkpt lat="43.7131153" lon="12.3456105"><ele>501.0</ele><time>2026-05-01T10:21:31.799Z</time></trkpt><trkpt lat="43.7130596" lon="12.3456653"><ele>498.66666666666663</ele><time>2026-05-01T10:21:32.804Z</time></trkpt><trkpt lat="43.7130264" lon="12.3457406"><ele>496.3333333333333</ele><time>2026-05-01T10:21:33.798Z</time></trkpt><trkpt lat="43.7130134" lon="12.3458442"><ele>494.0</ele><time>2026-05-01T10:21:34.79Z</time></trkpt><trkpt lat="43.7130248" lon="12.3459667"><ele>494.0</ele><time>2026-05-01T10:21:35.795Z</time></trkpt><trkpt lat="43.7130434" lon="12.3460966"><ele>494.0</ele><time>2026-05-01T10:21:36.795Z</time></trkpt><trkpt lat="43.7130488" lon="12.3462379"><ele>494.0</ele><time>2026-05-01T10:21:37.793Z</time></trkpt><trkpt lat="43.7130639" lon="12.3463907"><ele>494.0</ele><time>2026-05-01T10:21:38.791Z</time></trkpt><trkpt lat="43.7130863" lon="12.3465642"><ele>494.0</ele><time>2026-05-01T10:21:39.797Z</time></trkpt><trkpt lat="43.7131093" lon="12.346736"><ele>493.0</ele><time>2026-05-01T10:21:40.798Z</time></trkpt><trkpt lat="43.7131228" lon="12.3468945"><ele>492.0</ele><time>2026-05-01T10:21:41.797Z</time></trkpt><trkpt lat="43.713136" lon="12.3470434"><ele>491.0</ele><time>2026-05-01T10:21:42.786Z</time></trkpt><trkpt lat="43.7131495" lon="12.3471801"><ele>490.0</ele><time>2026-05-01T10:21:43.796Z</time></trkpt><trkpt lat="43.713161" lon="12.3473063"><ele>489.0</ele><time>2026-05-01T10:21:44.789Z</time></trkpt><trkpt lat="43.7131576" lon="12.3474031"><ele>488.6</ele><time>2026-05-01T10:21:45.795Z</time></trkpt><trkpt lat="43.713134" lon="12.3474875"><ele>488.2</ele><time>2026-05-01T10:21:46.8Z</time></trkpt><trkpt lat="43.7130215" lon="12.3475685"><ele>487.80000000000007</ele><time>2026-05-01T10:21:48.799Z</time></trkpt><trkpt lat="43.7128894" lon="12.3475387"><ele>487.40000000000003</ele><time>2026-05-01T10:21:50.804Z</time></trkpt><trkpt lat="43.7128096" lon="12.3475145"><ele>487.0</ele><time>2026-05-01T10:21:51.813Z</time></trkpt><trkpt lat="43.7127371" lon="12.3475118"><ele>484.8571428571429</ele><time>2026-05-01T10:21:52.793Z</time></trkpt><trkpt lat="43.7126681" lon="12.3475344"><ele>482.71428571428567</ele><time>2026-05-01T10:21:53.8Z</time></trkpt><trkpt lat="43.7126036" lon="12.3475734"><ele>480.57142857142856</ele><time>2026-05-01T10:21:54.805Z</time></trkpt><trkpt lat="43.7125508" lon="12.3476358"><ele>478.42857142857144</ele><time>2026-05-01T10:21:55.801Z</time></trkpt><trkpt lat="43.7124979" lon="12.3476997"><ele>476.28571428571433</ele><time>2026-05-01T10:21:56.805Z</time></trkpt><trkpt lat="43.7124442" lon="12.3477722"><ele>474.1428571428571</ele><time>2026-05-01T10:21:57.794Z</time></trkpt><trkpt lat="43.7123901" lon="12.3478335"><ele>472.0</ele><time>2026-05-01T10:21:58.794Z</time></trkpt><trkpt lat="43.7122925" lon="12.3479082"><ele>472.0</ele><time>2026-05-01T10:22:00.792Z</time></trkpt><trkpt lat="43.7121924" lon="12.3478916"><ele>472.00000000000006</ele><time>2026-05-01T10:22:02.793Z</time></trkpt><trkpt lat="43.712119" lon="12.3477646"><ele>472.00000000000006</ele><time>2026-05-01T10:22:04.788Z</time></trkpt><trkpt lat="43.7121155" lon="12.3476071"><ele>472.0</ele><time>2026-05-01T10:22:06.788Z</time></trkpt><trkpt lat="43.7121414" lon="12.3475168"><ele>472.0</ele><time>2026-05-01T10:22:07.8Z</time></trkpt><trkpt lat="43.7121784" lon="12.3474044"><ele>472.0</ele><time>2026-05-01T10:22:08.788Z</time></trkpt><trkpt lat="43.7122038" lon="12.3472916"><ele>472.00000000000006</ele><time>2026-05-01T10:22:09.797Z</time></trkpt><trkpt lat="43.7122092" lon="12.3471701"><ele>472.00000000000006</ele><time>2026-05-01T10:22:10.794Z</time></trkpt><trkpt lat="43.7121899" lon="12.347038"><ele>472.0</ele><time>2026-05-01T10:22:11.798Z</time></trkpt><trkpt lat="43.7121518" lon="12.3469012"><ele>472.0</ele><time>2026-05-01T10:22:12.796Z</time></trkpt><trkpt lat="43.7120974" lon="12.346773"><ele>471.6</ele><time>2026-05-01T10:22:13.789Z</time></trkpt><trkpt lat="43.7120318" lon="12.3466369"><ele>471.20000000000005</ele><time>2026-05-01T10:22:14.794Z</time></trkpt><trkpt lat="43.711967" lon="12.3465073"><ele>470.8</ele><time>2026-05-01T10:22:15.801Z</time></trkpt><trkpt lat="43.7119206" lon="12.3463978"><ele>470.4</ele><time>2026-05-01T10:22:16.784Z</time></trkpt><trkpt lat="43.7118739" lon="12.3463073"><ele>470.0</ele><time>2026-05-01T10:22:17.797Z</time></trkpt><trkpt lat="43.7118329" lon="12.3462197"><ele>468.4285714285714</ele><time>2026-05-01T10:22:18.798Z</time></trkpt><trkpt lat="43.7117965" lon="12.346134"><ele>466.8571428571428</ele><time>2026-05-01T10:22:19.789Z</time></trkpt><trkpt lat="43.7117605" lon="12.3460523"><ele>465.2857142857143</ele><time>2026-05-01T10:22:20.788Z</time></trkpt><trkpt lat="43.7117343" lon="12.3459664"><ele>463.71428571428567</ele><time>2026-05-01T10:22:21.795Z</time></trkpt><trkpt lat="43.711718" lon="12.3458681"><ele>462.1428571428571</ele><time>2026-05-01T10:22:22.795Z</time></trkpt><trkpt lat="43.7117106" lon="12.345768"><ele>460.57142857142856</ele><time>2026-05-01T10:22:23.8Z</time></trkpt><trkpt lat="43.7116928" lon="12.3456716"><ele>459.0</ele><time>2026-05-01T10:22:24.793Z</time></trkpt><trkpt lat="43.7116659" lon="12.345589"><ele>459.0</ele><time>2026-05-01T10:22:25.805Z</time></trkpt><trkpt lat="43.7116154" lon="12.3455308"><ele>459.0</ele><time>2026-05-01T10:22:26.784Z</time></trkpt><trkpt lat="43.7115478" lon="12.345499"><ele>459.0</ele><time>2026-05-01T10:22:27.801Z</time></trkpt><trkpt lat="43.7114764" lon="12.3455132"><ele>459.0</ele><time>2026-05-01T10:22:28.798Z</time></trkpt><trkpt lat="43.7114088" lon="12.3455559"><ele>459.0</ele><time>2026-05-01T10:22:29.802Z</time></trkpt><trkpt lat="43.7113547" lon="12.3456211"><ele>459.0</ele><time>2026-05-01T10:22:30.794Z</time></trkpt><trkpt lat="43.7113072" lon="12.3457169"><ele>459.0</ele><time>2026-05-01T10:22:31.799Z</time></trkpt><trkpt lat="43.7112776" lon="12.3458212"><ele>459.0</ele><time>2026-05-01T10:22:32.806Z</time></trkpt><trkpt lat="43.7112571" lon="12.3459395"><ele>459.0</ele><time>2026-05-01T10:22:33.8Z</time></trkpt><trkpt lat="43.7112417" lon="12.346069"><ele>459.0</ele><time>2026-05-01T10:22:34.79Z</time></trkpt><trkpt lat="43.7112407" lon="12.3462259"><ele>459.0</ele><time>2026-05-01T10:22:35.8Z</time></trkpt><trkpt lat="43.7112523" lon="12.346407"><ele>459.0</ele><time>2026-05-01T10:22:36.785Z</time></trkpt><trkpt lat="43.711266" lon="12.3465994"><ele>457.75</ele><time>2026-05-01T10:22:37.797Z</time></trkpt><trkpt lat="43.7112752" lon="12.3467652"><ele>456.5</ele><time>2026-05-01T10:22:38.789Z</time></trkpt><trkpt lat="43.7112779" lon="12.3469159"><ele>455.25</ele><time>2026-05-01T10:22:39.796Z</time></trkpt><trkpt lat="43.7112694" lon="12.3470649"><ele>454.0</ele><time>2026-05-01T10:22:40.781Z</time></trkpt><trkpt lat="43.7112476" lon="12.3472174"><ele>453.50000000000006</ele><time>2026-05-01T10:22:41.813Z</time></trkpt><trkpt lat="43.7112309" lon="12.3473463"><ele>453.0</ele><time>2026-05-01T10:22:42.791Z</time></trkpt><trkpt lat="43.7112134" lon="12.3474589"><ele>452.5</ele><time>2026-05-01T10:22:43.799Z</time></trkpt><trkpt lat="43.7111818" lon="12.347547"><ele>452.0</ele><time>2026-05-01T10:22:44.793Z</time></trkpt><trkpt lat="43.7111247" lon="12.3476188"><ele>451.50000000000006</ele><time>2026-05-01T10:22:45.79Z</time></trkpt><trkpt lat="43.7110499" lon="12.3476596"><ele>451.0</ele><time>2026-05-01T10:22:46.799Z</time></trkpt><trkpt lat="43.7109614" lon="12.347665"><ele>448.20000000000005</ele><time>2026-05-01T10:22:47.804Z</time></trkpt><trkpt lat="43.7108796" lon="12.3476847"><ele>445.40000000000003</ele><time>2026-05-01T10:22:48.792Z</time></trkpt><trkpt lat="43.7107961" lon="12.3477243"><ele>442.6</ele><time>2026-05-01T10:22:49.796Z</time></trkpt><trkpt lat="43.7107327" lon="12.3478048"><ele>439.8</ele><time>2026-05-01T10:22:50.804Z</time></trkpt><trkpt lat="43.7106752" lon="12.3479098"><ele>437.0</ele><time>2026-05-01T10:22:51.804Z</time></trkpt><trkpt lat="43.7106301" lon="12.3480394"><ele>436.0</ele><time>2026-05-01T10:22:52.804Z</time></trkpt><trkpt lat="43.7105967" lon="12.3481823"><ele>435.0</ele><time>2026-05-01T10:22:53.83Z</time></trkpt><trkpt lat="43.710561" lon="12.3483571"><ele>434.0</ele><time>2026-05-01T10:22:54.797Z</time></trkpt><trkpt lat="43.7105327" lon="12.3485487"><ele>433.0</ele><time>2026-05-01T10:22:55.79Z</time></trkpt><trkpt lat="43.7105133" lon="12.3487388"><ele>433.2</ele><time>2026-05-01T10:22:56.793Z</time></trkpt><trkpt lat="43.7104792" lon="12.3489088"><ele>433.4</ele><time>2026-05-01T10:22:57.798Z</time></trkpt><trkpt lat="43.7104597" lon="12.3490584"><ele>433.59999999999997</ele><time>2026-05-01T10:22:58.8Z</time></trkpt><trkpt lat="43.7104407" lon="12.349197"><ele>433.79999999999995</ele><time>2026-05-01T10:22:59.802Z</time></trkpt><trkpt lat="43.7104084" lon="12.3493218"><ele>434.0</ele><time>2026-05-01T10:23:00.796Z</time></trkpt><trkpt lat="43.7103662" lon="12.3494334"><ele>434.0</ele><time>2026-05-01T10:23:01.803Z</time></trkpt><trkpt lat="43.7103143" lon="12.3495408"><ele>434.0</ele><time>2026-05-01T10:23:02.796Z</time></trkpt><trkpt lat="43.7102627" lon="12.3496588"><ele>434.0</ele><time>2026-05-01T10:23:03.806Z</time></trkpt><trkpt lat="43.7102244" lon="12.3497951"><ele>434.0</ele><time>2026-05-01T10:23:04.8Z</time></trkpt><trkpt lat="43.7101967" lon="12.3499637"><ele>434.0</ele><time>2026-05-01T10:23:05.794Z</time></trkpt><trkpt lat="43.710172" lon="12.3501355"><ele>430.4</ele><time>2026-05-01T10:23:06.785Z</time></trkpt><trkpt lat="43.7101551" lon="12.3503003"><ele>426.79999999999995</ele><time>2026-05-01T10:23:07.809Z</time></trkpt><trkpt lat="43.710146" lon="12.3504416"><ele>423.20000000000005</ele><time>2026-05-01T10:23:08.821Z</time></trkpt><trkpt lat="43.7101391" lon="12.350578"><ele>419.6</ele><time>2026-05-01T10:23:09.802Z</time></trkpt><trkpt lat="43.7101356" lon="12.3507118"><ele>416.0</ele><time>2026-05-01T10:23:10.79Z</time></trkpt><trkpt lat="43.7101375" lon="12.3508377"><ele>415.6</ele><time>2026-05-01T10:23:11.796Z</time></trkpt><trkpt lat="43.7101524" lon="12.3509616"><ele>415.20000000000005</ele><time>2026-05-01T10:23:12.799Z</time></trkpt><trkpt lat="43.7101804" lon="12.3510846"><ele>414.79999999999995</ele><time>2026-05-01T10:23:13.794Z</time></trkpt><trkpt lat="43.7102024" lon="12.3512073"><ele>414.4</ele><time>2026-05-01T10:23:14.807Z</time></trkpt><trkpt lat="43.7102014" lon="12.3513281"><ele>414.0</ele><time>2026-05-01T10:23:15.802Z</time></trkpt><trkpt lat="43.7101911" lon="12.3514497"><ele>413.3333333333333</ele><time>2026-05-01T10:23:16.805Z</time></trkpt><trkpt lat="43.7101748" lon="12.3515496"><ele>412.66666666666663</ele><time>2026-05-01T10:23:17.797Z</time></trkpt><trkpt lat="43.7101541" lon="12.3516355"><ele>412.0</ele><time>2026-05-01T10:23:18.81Z</time></trkpt><trkpt lat="43.7101085" lon="12.3517466"><ele>411.3333333333333</ele><time>2026-05-01T10:23:20.79Z</time></trkpt><trkpt lat="43.71005" lon="12.3517842"><ele>410.66666666666663</ele><time>2026-05-01T10:23:23.821Z</time></trkpt><trkpt lat="43.7100208" lon="12.3516916"><ele>410.0</ele><time>2026-05-01T10:23:27.811Z</time></trkpt><trkpt lat="43.7100058" lon="12.3515776"><ele>410.0</ele><time>2026-05-01T10:23:29.8Z</time></trkpt><trkpt lat="43.7099842" lon="12.3514854"><ele>410.0</ele><time>2026-05-01T10:23:30.807Z</time></trkpt><trkpt lat="43.7099601" lon="12.3513791"><ele>410.0</ele><time>2026-05-01T10:23:31.801Z</time></trkpt><trkpt lat="43.7099303" lon="12.3512492"><ele>410.0</ele><time>2026-05-01T10:23:32.787Z</time></trkpt><trkpt lat="43.7099101" lon="12.3511151"><ele>410.0</ele><time>2026-05-01T10:23:33.802Z</time></trkpt><trkpt lat="43.7098808" lon="12.3509683"><ele>411.0</ele><time>2026-05-01T10:23:34.801Z</time></trkpt><trkpt lat="43.7098517" lon="12.3508132"><ele>412.0</ele><time>2026-05-01T10:23:35.812Z</time></trkpt><trkpt lat="43.7098197" lon="12.3506508"><ele>413.0</ele><time>2026-05-01T10:23:36.794Z</time></trkpt><trkpt lat="43.7097888" lon="12.3504826"><ele>414.0</ele><time>2026-05-01T10:23:37.798Z</time></trkpt><trkpt lat="43.7097557" lon="12.3502973"><ele>414.5</ele><time>2026-05-01T10:23:38.799Z</time></trkpt><trkpt lat="43.7097252" lon="12.3501122"><ele>415.0</ele><time>2026-05-01T10:23:39.805Z</time></trkpt><trkpt lat="43.7097007" lon="12.3499527"><ele>415.5</ele><time>2026-05-01T10:23:40.807Z</time></trkpt><trkpt lat="43.7096777" lon="12.3498099"><ele>416.0</ele><time>2026-05-01T10:23:41.802Z</time></trkpt><trkpt lat="43.7096592" lon="12.3496796"><ele>416.3333333333333</ele><time>2026-05-01T10:23:42.802Z</time></trkpt><trkpt lat="43.709638" lon="12.3495702"><ele>416.66666666666663</ele><time>2026-05-01T10:23:43.805Z</time></trkpt><trkpt lat="43.7096074" lon="12.3494737"><ele>417.0</ele><time>2026-05-01T10:23:44.803Z</time></trkpt><trkpt lat="43.7095824" lon="12.3493665"><ele>417.33333333333337</ele><time>2026-05-01T10:23:45.796Z</time></trkpt><trkpt lat="43.7095664" lon="12.3492356"><ele>417.6666666666667</ele><time>2026-05-01T10:23:46.789Z</time></trkpt><trkpt lat="43.709553" lon="12.3490943"><ele>418.0</ele><time>2026-05-01T10:23:47.802Z</time></trkpt><trkpt lat="43.709541" lon="12.3489591"><ele>418.50000000000006</ele><time>2026-05-01T10:23:48.794Z</time></trkpt><trkpt lat="43.7095215" lon="12.3488431"><ele>419.0</ele><time>2026-05-01T10:23:49.808Z</time></trkpt><trkpt lat="43.7094988" lon="12.3487378"><ele>419.5</ele><time>2026-05-01T10:23:50.795Z</time></trkpt><trkpt lat="43.7094598" lon="12.3486395"><ele>420.0</ele><time>2026-05-01T10:23:51.799Z</time></trkpt><trkpt lat="43.7094042" lon="12.3485582"><ele>420.50000000000006</ele><time>2026-05-01T10:23:52.793Z</time></trkpt><trkpt lat="43.7093389" lon="12.3485166"><ele>421.0</ele><time>2026-05-01T10:23:53.797Z</time></trkpt><trkpt lat="43.7092717" lon="12.3485187"><ele>418.00000000000006</ele><time>2026-05-01T10:23:54.79Z</time></trkpt><trkpt lat="43.7092059" lon="12.3485596"><ele>415.0</ele><time>2026-05-01T10:23:55.818Z</time></trkpt><trkpt lat="43.7091556" lon="12.3486359"><ele>412.0</ele><time>2026-05-01T10:23:56.797Z</time></trkpt><trkpt lat="43.7091261" lon="12.3487428"><ele>409.0</ele><time>2026-05-01T10:23:57.809Z</time></trkpt><trkpt lat="43.7091093" lon="12.3488712"><ele>406.00000000000006</ele><time>2026-05-01T10:23:58.792Z</time></trkpt><trkpt lat="43.7091052" lon="12.3490071"><ele>403.0</ele><time>2026-05-01T10:23:59.799Z</time></trkpt><trkpt lat="43.709096" lon="12.3491506"><ele>402.2</ele><time>2026-05-01T10:24:00.791Z</time></trkpt><trkpt lat="43.7090992" lon="12.3492821"><ele>401.4</ele><time>2026-05-01T10:24:01.798Z</time></trkpt><trkpt lat="43.7090997" lon="12.3494128"><ele>400.59999999999997</ele><time>2026-05-01T10:24:02.794Z</time></trkpt><trkpt lat="43.7090984" lon="12.3495548"><ele>399.79999999999995</ele><time>2026-05-01T10:24:03.799Z</time></trkpt><trkpt lat="43.7090903" lon="12.3497"><ele>399.0</ele><time>2026-05-01T10:24:04.792Z</time></trkpt><trkpt lat="43.7090783" lon="12.3498526"><ele>398.6</ele><time>2026-05-01T10:24:05.806Z</time></trkpt><trkpt lat="43.7090525" lon="12.3500015"><ele>398.2</ele><time>2026-05-01T10:24:06.803Z</time></trkpt><trkpt lat="43.709013" lon="12.3501452"><ele>397.8</ele><time>2026-05-01T10:24:07.802Z</time></trkpt><trkpt lat="43.7089639" lon="12.3502758"><ele>397.40000000000003</ele><time>2026-05-01T10:24:08.795Z</time></trkpt><trkpt lat="43.7089124" lon="12.3503995"><ele>397.0</ele><time>2026-05-01T10:24:09.805Z</time></trkpt><trkpt lat="43.7088635" lon="12.3505143"><ele>396.8</ele><time>2026-05-01T10:24:10.8Z</time></trkpt><trkpt lat="43.7088133" lon="12.350629"><ele>396.6</ele><time>2026-05-01T10:24:11.8Z</time></trkpt><trkpt lat="43.7087565" lon="12.3507522"><ele>396.40000000000003</ele><time>2026-05-01T10:24:12.8Z</time></trkpt><trkpt lat="43.7086964" lon="12.3508828"><ele>396.20000000000005</ele><time>2026-05-01T10:24:13.801Z</time></trkpt><trkpt lat="43.7086383" lon="12.3510079"><ele>396.0</ele><time>2026-05-01T10:24:14.796Z</time></trkpt><trkpt lat="43.7085844" lon="12.3511225"><ele>393.5</ele><time>2026-05-01T10:24:15.822Z</time></trkpt><trkpt lat="43.7085395" lon="12.3512239"><ele>391.0</ele><time>2026-05-01T10:24:16.793Z</time></trkpt><trkpt lat="43.7084929" lon="12.3513025"><ele>388.5</ele><time>2026-05-01T10:24:17.802Z</time></trkpt><trkpt lat="43.7084407" lon="12.3513545"><ele>386.0</ele><time>2026-05-01T10:24:18.8Z</time></trkpt><trkpt lat="43.7083641" lon="12.3513724"><ele>383.5</ele><time>2026-05-01T10:24:19.809Z</time></trkpt><trkpt lat="43.7082898" lon="12.3513571"><ele>381.0</ele><time>2026-05-01T10:24:20.801Z</time></trkpt><trkpt lat="43.7081997" lon="12.3513074"><ele>381.0</ele><time>2026-05-01T10:24:21.811Z</time></trkpt><trkpt lat="43.7081045" lon="12.3512545"><ele>381.0</ele><time>2026-05-01T10:24:22.799Z</time></trkpt><trkpt lat="43.707996" lon="12.3511892"><ele>381.0</ele><time>2026-05-01T10:24:23.8Z</time></trkpt><trkpt lat="43.7078826" lon="12.3511242"><ele>381.0</ele><time>2026-05-01T10:24:24.791Z</time></trkpt><trkpt lat="43.7077735" lon="12.3510588"><ele>379.4</ele><time>2026-05-01T10:24:25.801Z</time></trkpt><trkpt lat="43.7076745" lon="12.3510018"><ele>377.8</ele><time>2026-05-01T10:24:26.781Z</time></trkpt><trkpt lat="43.707585" lon="12.350952"><ele>376.2</ele><time>2026-05-01T10:24:27.794Z</time></trkpt><trkpt lat="43.7074943" lon="12.3509053"><ele>374.59999999999997</ele><time>2026-05-01T10:24:28.799Z</time></trkpt><trkpt lat="43.7073982" lon="12.3508528"><ele>373.0</ele><time>2026-05-01T10:24:29.795Z</time></trkpt><trkpt lat="43.7073052" lon="12.3507998"><ele>373.0</ele><time>2026-05-01T10:24:30.793Z</time></trkpt><trkpt lat="43.7072143" lon="12.3507446"><ele>373.0</ele><time>2026-05-01T10:24:31.793Z</time></trkpt><trkpt lat="43.7071266" lon="12.3506897"><ele>373.0</ele><time>2026-05-01T10:24:32.791Z</time></trkpt><trkpt lat="43.7070336" lon="12.3506457"><ele>373.0</ele><time>2026-05-01T10:24:33.796Z</time></trkpt><trkpt lat="43.706942" lon="12.3505912"><ele>373.0</ele><time>2026-05-01T10:24:34.794Z</time></trkpt><trkpt lat="43.7068489" lon="12.3505387"><ele>374.2</ele><time>2026-05-01T10:24:35.797Z</time></trkpt><trkpt lat="43.7067562" lon="12.3504861"><ele>375.4</ele><time>2026-05-01T10:24:36.804Z</time></trkpt><trkpt lat="43.7066629" lon="12.3504272"><ele>376.59999999999997</ele><time>2026-05-01T10:24:37.809Z</time></trkpt><trkpt lat="43.706561" lon="12.350373"><ele>377.79999999999995</ele><time>2026-05-01T10:24:38.804Z</time></trkpt><trkpt lat="43.7064547" lon="12.3503126"><ele>379.0</ele><time>2026-05-01T10:24:39.796Z</time></trkpt><trkpt lat="43.7063426" lon="12.35024"><ele>379.0</ele><time>2026-05-01T10:24:40.795Z</time></trkpt><trkpt lat="43.7062381" lon="12.3501493"><ele>379.0</ele><time>2026-05-01T10:24:41.813Z</time></trkpt><trkpt lat="43.7061317" lon="12.3500418"><ele>379.0</ele><time>2026-05-01T10:24:42.8Z</time></trkpt><trkpt lat="43.7060258" lon="12.3499162"><ele>379.0</ele><time>2026-05-01T10:24:43.799Z</time></trkpt><trkpt lat="43.7059284" lon="12.3497786"><ele>384.0</ele><time>2026-05-01T10:24:44.795Z</time></trkpt><trkpt lat="43.7058415" lon="12.3496208"><ele>389.0</ele><time>2026-05-01T10:24:45.826Z</time></trkpt><trkpt lat="43.7057622" lon="12.3494431"><ele>394.0</ele><time>2026-05-01T10:24:46.793Z</time></trkpt><trkpt lat="43.705687" lon="12.3492327"><ele>394.0</ele><time>2026-05-01T10:24:47.809Z</time></trkpt><trkpt lat="43.7056102" lon="12.3490319"><ele>394.0</ele><time>2026-05-01T10:24:48.793Z</time></trkpt><trkpt lat="43.7055319" lon="12.3488225"><ele>394.0</ele><time>2026-05-01T10:24:49.816Z</time></trkpt><trkpt lat="43.7054521" lon="12.3486062"><ele>394.33333333333337</ele><time>2026-05-01T10:24:50.783Z</time></trkpt><trkpt lat="43.705371" lon="12.348392"><ele>394.66666666666663</ele><time>2026-05-01T10:24:51.792Z</time></trkpt><trkpt lat="43.7052894" lon="12.3481768"><ele>395.0</ele><time>2026-05-01T10:24:52.785Z</time></trkpt><trkpt lat="43.705218" lon="12.347973"><ele>398.5</ele><time>2026-05-01T10:24:53.796Z</time></trkpt><trkpt lat="43.7051444" lon="12.3478006"><ele>402.0</ele><time>2026-05-01T10:24:54.799Z</time></trkpt><trkpt lat="43.7050621" lon="12.3476588"><ele>405.5</ele><time>2026-05-01T10:24:55.805Z</time></trkpt><trkpt lat="43.7049669" lon="12.3475343"><ele>409.0</ele><time>2026-05-01T10:24:56.787Z</time></trkpt><trkpt lat="43.7048612" lon="12.3474131"><ele>409.0</ele><time>2026-05-01T10:24:57.8Z</time></trkpt><trkpt lat="43.7047364" lon="12.3472753"><ele>409.0</ele><time>2026-05-01T10:24:58.792Z</time></trkpt><trkpt lat="43.7046041" lon="12.3471177"><ele>409.0</ele><time>2026-05-01T10:24:59.804Z</time></trkpt><trkpt lat="43.7044749" lon="12.3469532"><ele>413.6666666666667</ele><time>2026-05-01T10:25:00.787Z</time></trkpt><trkpt lat="43.7043639" lon="12.3467739"><ele>418.33333333333337</ele><time>2026-05-01T10:25:01.788Z</time></trkpt><trkpt lat="43.7042642" lon="12.3466175"><ele>423.0</ele><time>2026-05-01T10:25:02.792Z</time></trkpt><trkpt lat="43.7041548" lon="12.3464864"><ele>423.0</ele><time>2026-05-01T10:25:03.788Z</time></trkpt><trkpt lat="43.7040288" lon="12.3463847"><ele>423.0</ele><time>2026-05-01T10:25:04.785Z</time></trkpt><trkpt lat="43.7038866" lon="12.3463056"><ele>423.0</ele><time>2026-05-01T10:25:05.801Z</time></trkpt><trkpt lat="43.7037365" lon="12.3462296"><ele>426.66666666666663</ele><time>2026-05-01T10:25:06.793Z</time></trkpt><trkpt lat="43.7035733" lon="12.3461536"><ele>430.3333333333333</ele><time>2026-05-01T10:25:07.804Z</time></trkpt><trkpt lat="43.7034195" lon="12.3460748"><ele>434.0</ele><time>2026-05-01T10:25:08.794Z</time></trkpt><trkpt lat="43.70328" lon="12.3460158"><ele>434.0</ele><time>2026-05-01T10:25:09.794Z</time></trkpt><trkpt lat="43.7031472" lon="12.3459932"><ele>434.0</ele><time>2026-05-01T10:25:10.789Z</time></trkpt><trkpt lat="43.7030097" lon="12.3459922"><ele>434.0</ele><time>2026-05-01T10:25:11.798Z</time></trkpt><trkpt lat="43.7028398" lon="12.3460153"><ele>434.0</ele><time>2026-05-01T10:25:12.787Z</time></trkpt><trkpt lat="43.7026674" lon="12.3460428"><ele>435.25</ele><time>2026-05-01T10:25:13.813Z</time></trkpt><trkpt lat="43.7025036" lon="12.3460639"><ele>436.5</ele><time>2026-05-01T10:25:14.798Z</time></trkpt><trkpt lat="43.7023624" lon="12.3460689"><ele>437.75</ele><time>2026-05-01T10:25:15.812Z</time></trkpt><trkpt lat="43.7022358" lon="12.3460627"><ele>439.0</ele><time>2026-05-01T10:25:16.809Z</time></trkpt><trkpt lat="43.7021217" lon="12.3460448"><ele>439.0</ele><time>2026-05-01T10:25:17.812Z</time></trkpt><trkpt lat="43.702018" lon="12.345992"><ele>439.0</ele><time>2026-05-01T10:25:18.788Z</time></trkpt><trkpt lat="43.7019404" lon="12.3458991"><ele>439.0</ele><time>2026-05-01T10:25:19.802Z</time></trkpt><trkpt lat="43.7018816" lon="12.3457805"><ele>439.0</ele><time>2026-05-01T10:25:20.8Z</time></trkpt><trkpt lat="43.701831" lon="12.3456248"><ele>439.0</ele><time>2026-05-01T10:25:21.799Z</time></trkpt><trkpt lat="43.7017663" lon="12.3454464"><ele>442.75</ele><time>2026-05-01T10:25:22.811Z</time></trkpt><trkpt lat="43.701699" lon="12.3452861"><ele>446.5</ele><time>2026-05-01T10:25:23.789Z</time></trkpt><trkpt lat="43.701631" lon="12.3451509"><ele>450.25</ele><time>2026-05-01T10:25:24.8Z</time></trkpt><trkpt lat="43.701543" lon="12.3450488"><ele>454.0</ele><time>2026-05-01T10:25:25.803Z</time></trkpt><trkpt lat="43.7014505" lon="12.3449732"><ele>454.0</ele><time>2026-05-01T10:25:26.789Z</time></trkpt><trkpt lat="43.7013477" lon="12.3449425"><ele>454.0</ele><time>2026-05-01T10:25:27.799Z</time></trkpt><trkpt lat="43.7012317" lon="12.3449428"><ele>454.0</ele><time>2026-05-01T10:25:28.787Z</time></trkpt><trkpt lat="43.7011085" lon="12.3449763"><ele>454.0</ele><time>2026-05-01T10:25:29.804Z</time></trkpt><trkpt lat="43.7009687" lon="12.3450156"><ele>456.4</ele><time>2026-05-01T10:25:30.795Z</time></trkpt><trkpt lat="43.7008451" lon="12.3450434"><ele>458.79999999999995</ele><time>2026-05-01T10:25:31.806Z</time></trkpt><trkpt lat="43.700765" lon="12.3450261"><ele>461.20000000000005</ele><time>2026-05-01T10:25:32.794Z</time></trkpt><trkpt lat="43.7006879" lon="12.3449771"><ele>463.6</ele><time>2026-05-01T10:25:33.811Z</time></trkpt><trkpt lat="43.7006326" lon="12.3448918"><ele>466.0</ele><time>2026-05-01T10:25:34.794Z</time></trkpt><trkpt lat="43.7005964" lon="12.3447904"><ele>466.6</ele><time>2026-05-01T10:25:35.795Z</time></trkpt><trkpt lat="43.7005769" lon="12.3446433"><ele>467.20000000000005</ele><time>2026-05-01T10:25:36.785Z</time></trkpt><trkpt lat="43.7005727" lon="12.344485"><ele>467.79999999999995</ele><time>2026-05-01T10:25:37.793Z</time></trkpt><trkpt lat="43.7005716" lon="12.3443443"><ele>468.4</ele><time>2026-05-01T10:25:38.783Z</time></trkpt><trkpt lat="43.7005455" lon="12.3442353"><ele>469.0</ele><time>2026-05-01T10:25:39.79Z</time></trkpt><trkpt lat="43.7005161" lon="12.3441346"><ele>469.0</ele><time>2026-05-01T10:25:40.786Z</time></trkpt><trkpt lat="43.7004706" lon="12.3440346"><ele>469.0</ele><time>2026-05-01T10:25:41.791Z</time></trkpt><trkpt lat="43.7004121" lon="12.3439223"><ele>469.0</ele><time>2026-05-01T10:25:42.795Z</time></trkpt><trkpt lat="43.7003485" lon="12.3438003"><ele>469.0</ele><time>2026-05-01T10:25:43.789Z</time></trkpt><trkpt lat="43.7002912" lon="12.3436832"><ele>469.0</ele><time>2026-05-01T10:25:44.786Z</time></trkpt><trkpt lat="43.7002376" lon="12.3435889"><ele>468.4</ele><time>2026-05-01T10:25:45.798Z</time></trkpt><trkpt lat="43.700171" lon="12.3434973"><ele>467.79999999999995</ele><time>2026-05-01T10:25:46.787Z</time></trkpt><trkpt lat="43.7000796" lon="12.3434149"><ele>467.20000000000005</ele><time>2026-05-01T10:25:47.794Z</time></trkpt><trkpt lat="43.6999832" lon="12.3433401"><ele>466.6</ele><time>2026-05-01T10:25:48.786Z</time></trkpt><trkpt lat="43.6998844" lon="12.343277"><ele>466.0</ele><time>2026-05-01T10:25:49.794Z</time></trkpt><trkpt lat="43.6997889" lon="12.3432253"><ele>466.0</ele><time>2026-05-01T10:25:50.79Z</time></trkpt><trkpt lat="43.699688" lon="12.3431909"><ele>466.0</ele><time>2026-05-01T10:25:51.803Z</time></trkpt><trkpt lat="43.6995771" lon="12.3431825"><ele>466.0</ele><time>2026-05-01T10:25:52.789Z</time></trkpt><trkpt lat="43.6994694" lon="12.3431985"><ele>466.0</ele><time>2026-05-01T10:25:53.792Z</time></trkpt><trkpt lat="43.6993535" lon="12.3432241"><ele>466.0</ele><time>2026-05-01T10:25:54.782Z</time></trkpt><trkpt lat="43.6992453" lon="12.3432376"><ele>466.1666666666667</ele><time>2026-05-01T10:25:55.794Z</time></trkpt><trkpt lat="43.6991594" lon="12.3432235"><ele>466.33333333333337</ele><time>2026-05-01T10:25:56.788Z</time></trkpt><trkpt lat="43.6990819" lon="12.343172"><ele>466.5</ele><time>2026-05-01T10:25:57.787Z</time></trkpt><trkpt lat="43.6990314" lon="12.3431078"><ele>466.66666666666663</ele><time>2026-05-01T10:25:58.79Z</time></trkpt><trkpt lat="43.6989971" lon="12.3430138"><ele>466.8333333333333</ele><time>2026-05-01T10:25:59.789Z</time></trkpt><trkpt lat="43.6989796" lon="12.3429137"><ele>467.0</ele><time>2026-05-01T10:26:00.787Z</time></trkpt><trkpt lat="43.6989755" lon="12.3427871"><ele>467.0</ele><time>2026-05-01T10:26:01.792Z</time></trkpt><trkpt lat="43.6989928" lon="12.34266"><ele>467.00000000000006</ele><time>2026-05-01T10:26:02.789Z</time></trkpt><trkpt lat="43.6990332" lon="12.3425401"><ele>467.00000000000006</ele><time>2026-05-01T10:26:03.796Z</time></trkpt><trkpt lat="43.6990988" lon="12.3424207"><ele>467.0</ele><time>2026-05-01T10:26:04.789Z</time></trkpt><trkpt lat="43.6991738" lon="12.3422902"><ele>467.0</ele><time>2026-05-01T10:26:05.793Z</time></trkpt><trkpt lat="43.6992547" lon="12.3421447"><ele>466.40000000000003</ele><time>2026-05-01T10:26:06.789Z</time></trkpt><trkpt lat="43.6993311" lon="12.3420015"><ele>465.80000000000007</ele><time>2026-05-01T10:26:07.793Z</time></trkpt><trkpt lat="43.6993906" lon="12.3418784"><ele>465.2</ele><time>2026-05-01T10:26:08.781Z</time></trkpt><trkpt lat="43.6994289" lon="12.3417495"><ele>464.6</ele><time>2026-05-01T10:26:09.792Z</time></trkpt><trkpt lat="43.6994618" lon="12.3416063"><ele>464.0</ele><time>2026-05-01T10:26:10.777Z</time></trkpt><trkpt lat="43.6994819" lon="12.3414584"><ele>463.8333333333333</ele><time>2026-05-01T10:26:11.785Z</time></trkpt><trkpt lat="43.6994977" lon="12.3413437"><ele>463.66666666666663</ele><time>2026-05-01T10:26:12.79Z</time></trkpt><trkpt lat="43.6994937" lon="12.3412231"><ele>463.5</ele><time>2026-05-01T10:26:14.796Z</time></trkpt><trkpt lat="43.6994295" lon="12.3411909"><ele>463.33333333333337</ele><time>2026-05-01T10:26:17.788Z</time></trkpt><trkpt lat="43.6993323" lon="12.3412734"><ele>463.1666666666667</ele><time>2026-05-01T10:26:40.797Z</time></trkpt><trkpt lat="43.6992528" lon="12.3413296"><ele>463.0</ele><time>2026-05-01T10:26:41.797Z</time></trkpt><trkpt lat="43.6991454" lon="12.3414024"><ele>466.33333333333337</ele><time>2026-05-01T10:26:42.786Z</time></trkpt><trkpt lat="43.6990249" lon="12.3414953"><ele>469.66666666666663</ele><time>2026-05-01T10:26:43.788Z</time></trkpt><trkpt lat="43.6988909" lon="12.3416022"><ele>473.0</ele><time>2026-05-01T10:26:44.788Z</time></trkpt><trkpt lat="43.6987467" lon="12.3417175"><ele>473.0</ele><time>2026-05-01T10:26:45.795Z</time></trkpt><trkpt lat="43.6986065" lon="12.3418381"><ele>473.0</ele><time>2026-05-01T10:26:46.783Z</time></trkpt><trkpt lat="43.698483" lon="12.3419391"><ele>473.0</ele><time>2026-05-01T10:26:47.794Z</time></trkpt><trkpt lat="43.6983733" lon="12.342027"><ele>473.0</ele><time>2026-05-01T10:26:48.782Z</time></trkpt><trkpt lat="43.6982747" lon="12.3421264"><ele>475.59999999999997</ele><time>2026-05-01T10:26:49.786Z</time></trkpt><trkpt lat="43.6981808" lon="12.3422428"><ele>478.19999999999993</ele><time>2026-05-01T10:26:50.78Z</time></trkpt><trkpt lat="43.6981041" lon="12.3423673"><ele>480.8</ele><time>2026-05-01T10:26:51.793Z</time></trkpt><trkpt lat="43.6980458" lon="12.3424844"><ele>483.4</ele><time>2026-05-01T10:26:52.783Z</time></trkpt><trkpt lat="43.6980083" lon="12.3425942"><ele>486.0</ele><time>2026-05-01T10:26:53.794Z</time></trkpt><trkpt lat="43.6980035" lon="12.3426993"><ele>486.0</ele><time>2026-05-01T10:26:54.788Z</time></trkpt><trkpt lat="43.6980317" lon="12.3428056"><ele>486.0</ele><time>2026-05-01T10:26:55.788Z</time></trkpt><trkpt lat="43.6980813" lon="12.3428998"><ele>486.0</ele><time>2026-05-01T10:26:56.787Z</time></trkpt><trkpt lat="43.6981351" lon="12.3430018"><ele>486.0</ele><time>2026-05-01T10:26:57.79Z</time></trkpt><trkpt lat="43.6981637" lon="12.3431175"><ele>486.0</ele><time>2026-05-01T10:26:58.792Z</time></trkpt><trkpt lat="43.6981511" lon="12.3432182"><ele>486.0</ele><time>2026-05-01T10:26:59.82Z</time></trkpt><trkpt lat="43.6981063" lon="12.3432981"><ele>487.20000000000005</ele><time>2026-05-01T10:27:00.789Z</time></trkpt><trkpt lat="43.6980384" lon="12.3433373"><ele>488.40000000000003</ele><time>2026-05-01T10:27:01.808Z</time></trkpt><trkpt lat="43.6979548" lon="12.3433463"><ele>489.6</ele><time>2026-05-01T10:27:02.784Z</time></trkpt><trkpt lat="43.6978806" lon="12.343298"><ele>490.8</ele><time>2026-05-01T10:27:03.802Z</time></trkpt><trkpt lat="43.6977997" lon="12.343197"><ele>492.0</ele><time>2026-05-01T10:27:04.802Z</time></trkpt><trkpt lat="43.6977172" lon="12.3430861"><ele>494.8</ele><time>2026-05-01T10:27:05.814Z</time></trkpt><trkpt lat="43.6976361" lon="12.3429626"><ele>497.6</ele><time>2026-05-01T10:27:06.793Z</time></trkpt><trkpt lat="43.6975896" lon="12.3428374"><ele>500.40000000000003</ele><time>2026-05-01T10:27:07.786Z</time></trkpt><trkpt lat="43.6975826" lon="12.3427128"><ele>503.20000000000005</ele><time>2026-05-01T10:27:08.788Z</time></trkpt><trkpt lat="43.6976176" lon="12.3425784"><ele>506.0</ele><time>2026-05-01T10:27:09.793Z</time></trkpt><trkpt lat="43.6976574" lon="12.3424497"><ele>506.0</ele><time>2026-05-01T10:27:10.786Z</time></trkpt><trkpt lat="43.6976756" lon="12.3423379"><ele>506.0</ele><time>2026-05-01T10:27:11.789Z</time></trkpt><trkpt lat="43.6976431" lon="12.342178"><ele>506.0</ele><time>2026-05-01T10:27:13.798Z</time></trkpt><trkpt lat="43.6975919" lon="12.3421093"><ele>506.0</ele><time>2026-05-01T10:27:14.787Z</time></trkpt><trkpt lat="43.6975191" lon="12.342065"><ele>506.0</ele><time>2026-05-01T10:27:15.796Z</time></trkpt><trkpt lat="43.697421" lon="12.3420317"><ele>505.0</ele><time>2026-05-01T10:27:16.8Z</time></trkpt><trkpt lat="43.6972987" lon="12.3420119"><ele>504.0</ele><time>2026-05-01T10:27:17.799Z</time></trkpt><trkpt lat="43.6971828" lon="12.3419969"><ele>503.0</ele><time>2026-05-01T10:27:18.783Z</time></trkpt><trkpt lat="43.697074" lon="12.3419802"><ele>502.0</ele><time>2026-05-01T10:27:19.809Z</time></trkpt><trkpt lat="43.6969881" lon="12.3419785"><ele>501.0</ele><time>2026-05-01T10:27:20.797Z</time></trkpt><trkpt lat="43.69692" lon="12.3419986"><ele>501.20000000000005</ele><time>2026-05-01T10:27:21.799Z</time></trkpt><trkpt lat="43.6968615" lon="12.34206"><ele>501.40000000000003</ele><time>2026-05-01T10:27:22.792Z</time></trkpt><trkpt lat="43.6968125" lon="12.3421518"><ele>501.6</ele><time>2026-05-01T10:27:23.801Z</time></trkpt><trkpt lat="43.6968025" lon="12.3422654"><ele>501.8</ele><time>2026-05-01T10:27:24.794Z</time></trkpt><trkpt lat="43.6968004" lon="12.3424079"><ele>502.0</ele><time>2026-05-01T10:27:25.794Z</time></trkpt><trkpt lat="43.696803" lon="12.3425797"><ele>503.0</ele><time>2026-05-01T10:27:26.793Z</time></trkpt><trkpt lat="43.6967884" lon="12.3427474"><ele>504.0</ele><time>2026-05-01T10:27:27.792Z</time></trkpt><trkpt lat="43.696743" lon="12.3429179"><ele>505.0</ele><time>2026-05-01T10:27:28.787Z</time></trkpt><trkpt lat="43.6966868" lon="12.3430723"><ele>506.0</ele><time>2026-05-01T10:27:29.796Z</time></trkpt><trkpt lat="43.696639" lon="12.3432152"><ele>507.0</ele><time>2026-05-01T10:27:30.789Z</time></trkpt><trkpt lat="43.6966075" lon="12.3433341"><ele>508.0</ele><time>2026-05-01T10:27:31.79Z</time></trkpt><trkpt lat="43.6965961" lon="12.3434515"><ele>509.0</ele><time>2026-05-01T10:27:32.788Z</time></trkpt><trkpt lat="43.6966053" lon="12.3435947"><ele>510.0</ele><time>2026-05-01T10:27:33.796Z</time></trkpt><trkpt lat="43.6966286" lon="12.3437625"><ele>511.0</ele><time>2026-05-01T10:27:34.788Z</time></trkpt><trkpt lat="43.6966282" lon="12.3439283"><ele>513.0</ele><time>2026-05-01T10:27:35.792Z</time></trkpt><trkpt lat="43.6966087" lon="12.3440831"><ele>515.0</ele><time>2026-05-01T10:27:36.793Z</time></trkpt><trkpt lat="43.6965632" lon="12.3442368"><ele>517.0</ele><time>2026-05-01T10:27:37.787Z</time></trkpt><trkpt lat="43.6964978" lon="12.3443876"><ele>519.0</ele><time>2026-05-01T10:27:38.786Z</time></trkpt><trkpt lat="43.6964142" lon="12.3445431"><ele>519.0</ele><time>2026-05-01T10:27:39.795Z</time></trkpt><trkpt lat="43.696323" lon="12.3447006"><ele>519.0</ele><time>2026-05-01T10:27:40.808Z</time></trkpt><trkpt lat="43.6962314" lon="12.3448619"><ele>519.0</ele><time>2026-05-01T10:27:41.799Z</time></trkpt><trkpt lat="43.6961421" lon="12.3450229"><ele>519.0</ele><time>2026-05-01T10:27:42.784Z</time></trkpt><trkpt lat="43.6960511" lon="12.3451801"><ele>518.0</ele><time>2026-05-01T10:27:43.805Z</time></trkpt><trkpt lat="43.6959691" lon="12.3453291"><ele>517.0</ele><time>2026-05-01T10:27:44.784Z</time></trkpt><trkpt lat="43.6959129" lon="12.3454684"><ele>516.0</ele><time>2026-05-01T10:27:45.79Z</time></trkpt><trkpt lat="43.695877" lon="12.3455976"><ele>515.0</ele><time>2026-05-01T10:27:46.786Z</time></trkpt><trkpt lat="43.6958416" lon="12.3457141"><ele>514.0</ele><time>2026-05-01T10:27:47.793Z</time></trkpt><trkpt lat="43.695792" lon="12.3458109"><ele>516.75</ele><time>2026-05-01T10:27:48.786Z</time></trkpt><trkpt lat="43.6957169" lon="12.3458706"><ele>519.5</ele><time>2026-05-01T10:27:49.786Z</time></trkpt><trkpt lat="43.6956104" lon="12.3459123"><ele>522.25</ele><time>2026-05-01T10:27:50.789Z</time></trkpt><trkpt lat="43.6954818" lon="12.3459391"><ele>525.0</ele><time>2026-05-01T10:27:51.802Z</time></trkpt><trkpt lat="43.6953501" lon="12.345969"><ele>525.0</ele><time>2026-05-01T10:27:52.787Z</time></trkpt><trkpt lat="43.6951962" lon="12.3460153"><ele>525.0</ele><time>2026-05-01T10:27:53.798Z</time></trkpt><trkpt lat="43.6950547" lon="12.346051"><ele>525.0</ele><time>2026-05-01T10:27:54.79Z</time></trkpt><trkpt lat="43.6949479" lon="12.3460783"><ele>525.0</ele><time>2026-05-01T10:27:55.805Z</time></trkpt><trkpt lat="43.6948751" lon="12.3460806"><ele>525.0</ele><time>2026-05-01T10:27:56.794Z</time></trkpt><trkpt lat="43.6948075" lon="12.3459794"><ele>525.0</ele><time>2026-05-01T10:27:58.798Z</time></trkpt><trkpt lat="43.694794" lon="12.3458201"><ele>525.0</ele><time>2026-05-01T10:28:00.784Z</time></trkpt><trkpt lat="43.6947678" lon="12.3457315"><ele>525.0</ele><time>2026-05-01T10:28:01.801Z</time></trkpt><trkpt lat="43.694723" lon="12.3456594"><ele>525.0</ele><time>2026-05-01T10:28:02.785Z</time></trkpt><trkpt lat="43.6946583" lon="12.345609"><ele>525.0</ele><time>2026-05-01T10:28:03.791Z</time></trkpt><trkpt lat="43.694583" lon="12.3455775"><ele>525.0</ele><time>2026-05-01T10:28:04.795Z</time></trkpt><trkpt lat="43.694496" lon="12.3455572"><ele>525.0</ele><time>2026-05-01T10:28:05.803Z</time></trkpt><trkpt lat="43.6944089" lon="12.3455602"><ele>525.0</ele><time>2026-05-01T10:28:06.783Z</time></trkpt><trkpt lat="43.6943184" lon="12.3455823"><ele>525.0</ele><time>2026-05-01T10:28:07.806Z</time></trkpt><trkpt lat="43.6942315" lon="12.3456025"><ele>525.0</ele><time>2026-05-01T10:28:08.795Z</time></trkpt><trkpt lat="43.6941424" lon="12.3455963"><ele>525.0</ele><time>2026-05-01T10:28:09.812Z</time></trkpt><trkpt lat="43.6940872" lon="12.3455448"><ele>527.3333333333334</ele><time>2026-05-01T10:28:10.791Z</time></trkpt><trkpt lat="43.6940684" lon="12.3454611"><ele>529.6666666666666</ele><time>2026-05-01T10:28:11.794Z</time></trkpt><trkpt lat="43.6940673" lon="12.3453367"><ele>532.0</ele><time>2026-05-01T10:28:12.786Z</time></trkpt><trkpt lat="43.6940583" lon="12.3451992"><ele>534.3333333333333</ele><time>2026-05-01T10:28:13.786Z</time></trkpt><trkpt lat="43.6940513" lon="12.3450827"><ele>536.6666666666666</ele><time>2026-05-01T10:28:14.785Z</time></trkpt><trkpt lat="43.6940155" lon="12.3449853"><ele>539.0</ele><time>2026-05-01T10:28:15.814Z</time></trkpt><trkpt lat="43.6939634" lon="12.3449147"><ele>539.0</ele><time>2026-05-01T10:28:16.79Z</time></trkpt><trkpt lat="43.6938389" lon="12.3448558"><ele>539.0</ele><time>2026-05-01T10:28:18.788Z</time></trkpt><trkpt lat="43.6937461" lon="12.3448832"><ele>539.0</ele><time>2026-05-01T10:28:19.793Z</time></trkpt><trkpt lat="43.693639" lon="12.3449139"><ele>539.0</ele><time>2026-05-01T10:28:20.784Z</time></trkpt><trkpt lat="43.6935245" lon="12.3449479"><ele>539.1666666666666</ele><time>2026-05-01T10:28:21.794Z</time></trkpt><trkpt lat="43.6934122" lon="12.3449561"><ele>539.3333333333333</ele><time>2026-05-01T10:28:22.789Z</time></trkpt><trkpt lat="43.6933218" lon="12.3449199"><ele>539.5</ele><time>2026-05-01T10:28:23.811Z</time></trkpt><trkpt lat="43.6932499" lon="12.3448638"><ele>539.6666666666666</ele><time>2026-05-01T10:28:24.795Z</time></trkpt><trkpt lat="43.6932147" lon="12.3447867"><ele>539.8333333333334</ele><time>2026-05-01T10:28:25.795Z</time></trkpt><trkpt lat="43.6932097" lon="12.3446723"><ele>540.0</ele><time>2026-05-01T10:28:26.783Z</time></trkpt><trkpt lat="43.6931908" lon="12.3445554"><ele>540.0</ele><time>2026-05-01T10:28:27.789Z</time></trkpt><trkpt lat="43.6931437" lon="12.3444569"><ele>540.0</ele><time>2026-05-01T10:28:28.789Z</time></trkpt><trkpt lat="43.6930565" lon="12.344351"><ele>540.0</ele><time>2026-05-01T10:28:29.798Z</time></trkpt><trkpt lat="43.6929482" lon="12.3442377"><ele>540.0</ele><time>2026-05-01T10:28:30.788Z</time></trkpt><trkpt lat="43.6928496" lon="12.3440951"><ele>543.5</ele><time>2026-05-01T10:28:31.802Z</time></trkpt><trkpt lat="43.6927539" lon="12.3439422"><ele>547.0</ele><time>2026-05-01T10:28:32.792Z</time></trkpt><trkpt lat="43.6926607" lon="12.3438006"><ele>550.5</ele><time>2026-05-01T10:28:33.786Z</time></trkpt><trkpt lat="43.6925706" lon="12.3436621"><ele>554.0</ele><time>2026-05-01T10:28:34.791Z</time></trkpt><trkpt lat="43.6924831" lon="12.3435219"><ele>554.0</ele><time>2026-05-01T10:28:35.793Z</time></trkpt><trkpt lat="43.6923996" lon="12.3433822"><ele>554.0</ele><time>2026-05-01T10:28:36.79Z</time></trkpt><trkpt lat="43.6923094" lon="12.3432559"><ele>554.0</ele><time>2026-05-01T10:28:37.798Z</time></trkpt><trkpt lat="43.6922046" lon="12.3431257"><ele>554.0</ele><time>2026-05-01T10:28:38.788Z</time></trkpt><trkpt lat="43.6921082" lon="12.3429841"><ele>552.0</ele><time>2026-05-01T10:28:39.805Z</time></trkpt><trkpt lat="43.6920309" lon="12.3428433"><ele>550.0</ele><time>2026-05-01T10:28:40.784Z</time></trkpt><trkpt lat="43.6919555" lon="12.3427185"><ele>548.0</ele><time>2026-05-01T10:28:41.788Z</time></trkpt><trkpt lat="43.6918561" lon="12.3426091"><ele>546.0</ele><time>2026-05-01T10:28:42.793Z</time></trkpt><trkpt lat="43.6917472" lon="12.3425058"><ele>549.0</ele><time>2026-05-01T10:28:43.792Z</time></trkpt><trkpt lat="43.6916314" lon="12.3424056"><ele>552.0</ele><time>2026-05-01T10:28:44.793Z</time></trkpt><trkpt lat="43.6915067" lon="12.3422996"><ele>555.0</ele><time>2026-05-01T10:28:45.786Z</time></trkpt><trkpt lat="43.6913969" lon="12.3421768"><ele>558.0</ele><time>2026-05-01T10:28:46.79Z</time></trkpt><trkpt lat="43.6913154" lon="12.3420713"><ele>558.0</ele><time>2026-05-01T10:28:47.804Z</time></trkpt><trkpt lat="43.6912532" lon="12.3419969"><ele>558.0</ele><time>2026-05-01T10:28:48.785Z</time></trkpt><trkpt lat="43.6911616" lon="12.341982"><ele>558.0</ele><time>2026-05-01T10:28:50.794Z</time></trkpt><trkpt lat="43.6911215" lon="12.3421067"><ele>558.0</ele><time>2026-05-01T10:28:52.777Z</time></trkpt><trkpt lat="43.6911584" lon="12.3422505"><ele>558.0</ele><time>2026-05-01T10:28:54.779Z</time></trkpt><trkpt lat="43.6912024" lon="12.3423396"><ele>560.3333333333334</ele><time>2026-05-01T10:28:55.791Z</time></trkpt><trkpt lat="43.6912638" lon="12.3424493"><ele>562.6666666666666</ele><time>2026-05-01T10:28:56.785Z</time></trkpt><trkpt lat="43.6913222" lon="12.3425655"><ele>565.0</ele><time>2026-05-01T10:28:57.793Z</time></trkpt><trkpt lat="43.6913631" lon="12.3426368"><ele>567.3333333333333</ele><time>2026-05-01T10:28:58.788Z</time></trkpt><trkpt lat="43.6913537" lon="12.3427449"><ele>569.6666666666666</ele><time>2026-05-01T10:29:00.792Z</time></trkpt><trkpt lat="43.6912714" lon="12.3426946"><ele>572.0</ele><time>2026-05-01T10:29:02.788Z</time></trkpt><trkpt lat="43.6912148" lon="12.3426067"><ele>572.0</ele><time>2026-05-01T10:29:03.789Z</time></trkpt><trkpt lat="43.6911389" lon="12.3425159"><ele>572.0</ele><time>2026-05-01T10:29:04.803Z</time></trkpt><trkpt lat="43.6910481" lon="12.3424137"><ele>572.0</ele><time>2026-05-01T10:29:05.791Z</time></trkpt><trkpt lat="43.6909433" lon="12.3422976"><ele>572.0</ele><time>2026-05-01T10:29:06.786Z</time></trkpt><trkpt lat="43.6908374" lon="12.3422134"><ele>575.0</ele><time>2026-05-01T10:29:07.793Z</time></trkpt><trkpt lat="43.6907458" lon="12.3421449"><ele>578.0</ele><time>2026-05-01T10:29:08.795Z</time></trkpt><trkpt lat="43.6906421" lon="12.342101"><ele>581.0</ele><time>2026-05-01T10:29:09.811Z</time></trkpt><trkpt lat="43.6905306" lon="12.3420699"><ele>584.0</ele><time>2026-05-01T10:29:10.794Z</time></trkpt><trkpt lat="43.6904014" lon="12.3420417"><ele>584.0</ele><time>2026-05-01T10:29:11.801Z</time></trkpt><trkpt lat="43.6902959" lon="12.3420019"><ele>584.0</ele><time>2026-05-01T10:29:12.792Z</time></trkpt><trkpt lat="43.690218" lon="12.3419266"><ele>584.0</ele><time>2026-05-01T10:29:13.787Z</time></trkpt><trkpt lat="43.6901663" lon="12.3418394"><ele>584.0</ele><time>2026-05-01T10:29:14.778Z</time></trkpt><trkpt lat="43.6901235" lon="12.3417317"><ele>584.0</ele><time>2026-05-01T10:29:15.8Z</time></trkpt><trkpt lat="43.6900844" lon="12.3416118"><ele>586.1666666666666</ele><time>2026-05-01T10:29:16.788Z</time></trkpt><trkpt lat="43.6900488" lon="12.34151"><ele>588.3333333333333</ele><time>2026-05-01T10:29:17.801Z</time></trkpt><trkpt lat="43.6900172" lon="12.341424"><ele>590.5</ele><time>2026-05-01T10:29:18.792Z</time></trkpt><trkpt lat="43.6899288" lon="12.3413748"><ele>592.6666666666666</ele><time>2026-05-01T10:29:20.788Z</time></trkpt><trkpt lat="43.689856" lon="12.3414491"><ele>594.8333333333334</ele><time>2026-05-01T10:29:22.793Z</time></trkpt><trkpt lat="43.6898363" lon="12.3415393"><ele>597.0</ele><time>2026-05-01T10:29:23.792Z</time></trkpt><trkpt lat="43.6898286" lon="12.3416602"><ele>598.0</ele><time>2026-05-01T10:29:24.783Z</time></trkpt><trkpt lat="43.6898217" lon="12.3418039"><ele>599.0</ele><time>2026-05-01T10:29:25.79Z</time></trkpt><trkpt lat="43.6898266" lon="12.3419635"><ele>600.0</ele><time>2026-05-01T10:29:26.794Z</time></trkpt><trkpt lat="43.6898536" lon="12.3421161"><ele>601.0</ele><time>2026-05-01T10:29:27.791Z</time></trkpt><trkpt lat="43.6899005" lon="12.3422738"><ele>603.75</ele><time>2026-05-01T10:29:28.783Z</time></trkpt><trkpt lat="43.6899502" lon="12.3424515"><ele>606.5</ele><time>2026-05-01T10:29:29.789Z</time></trkpt><trkpt lat="43.689988" lon="12.3426121"><ele>609.25</ele><time>2026-05-01T10:29:30.788Z</time></trkpt><trkpt lat="43.6900285" lon="12.3427545"><ele>612.0</ele><time>2026-05-01T10:29:31.799Z</time></trkpt><trkpt lat="43.6900871" lon="12.3428853"><ele>612.0</ele><time>2026-05-01T10:29:32.79Z</time></trkpt><trkpt lat="43.6901662" lon="12.3430125"><ele>612.0</ele><time>2026-05-01T10:29:33.806Z</time></trkpt><trkpt lat="43.6902532" lon="12.3431303"><ele>612.0</ele><time>2026-05-01T10:29:34.786Z</time></trkpt><trkpt lat="43.6903459" lon="12.3432555"><ele>612.0</ele><time>2026-05-01T10:29:35.798Z</time></trkpt><trkpt lat="43.6904497" lon="12.3433497"><ele>612.2</ele><time>2026-05-01T10:29:36.787Z</time></trkpt><trkpt lat="43.6905152" lon="12.3434697"><ele>612.4000000000001</ele><time>2026-05-01T10:29:37.789Z</time></trkpt><trkpt lat="43.6905687" lon="12.3436023"><ele>612.5999999999999</ele><time>2026-05-01T10:29:38.78Z</time></trkpt><trkpt lat="43.690608" lon="12.343732"><ele>612.8</ele><time>2026-05-01T10:29:39.796Z</time></trkpt><trkpt lat="43.6906373" lon="12.3438875"><ele>613.0</ele><time>2026-05-01T10:29:40.784Z</time></trkpt><trkpt lat="43.6906661" lon="12.3440679"><ele>616.25</ele><time>2026-05-01T10:29:41.791Z</time></trkpt><trkpt lat="43.6906988" lon="12.3442663"><ele>619.5</ele><time>2026-05-01T10:29:42.787Z</time></trkpt><trkpt lat="43.6907288" lon="12.3444663"><ele>622.75</ele><time>2026-05-01T10:29:43.787Z</time></trkpt><trkpt lat="43.6907425" lon="12.3446341"><ele>626.0</ele><time>2026-05-01T10:29:44.793Z</time></trkpt><trkpt lat="43.690755" lon="12.3447823"><ele>626.4</ele><time>2026-05-01T10:29:45.795Z</time></trkpt><trkpt lat="43.6907463" lon="12.344918"><ele>626.8</ele><time>2026-05-01T10:29:46.787Z</time></trkpt><trkpt lat="43.6907203" lon="12.345048"><ele>627.1999999999999</ele><time>2026-05-01T10:29:47.789Z</time></trkpt><trkpt lat="43.6906767" lon="12.3451581"><ele>627.6</ele><time>2026-05-01T10:29:48.795Z</time></trkpt><trkpt lat="43.6906101" lon="12.3452893"><ele>628.0</ele><time>2026-05-01T10:29:49.802Z</time></trkpt><trkpt lat="43.6905244" lon="12.345436"><ele>627.5</ele><time>2026-05-01T10:29:50.792Z</time></trkpt><trkpt lat="43.6904349" lon="12.3455848"><ele>627.0</ele><time>2026-05-01T10:29:51.798Z</time></trkpt><trkpt lat="43.6903394" lon="12.3457422"><ele>626.5</ele><time>2026-05-01T10:29:52.783Z</time></trkpt><trkpt lat="43.6902592" lon="12.3459098"><ele>626.0</ele><time>2026-05-01T10:29:53.805Z</time></trkpt><trkpt lat="43.690183" lon="12.3460631"><ele>628.25</ele><time>2026-05-01T10:29:54.779Z</time></trkpt><trkpt lat="43.6900982" lon="12.346201"><ele>630.5</ele><time>2026-05-01T10:29:55.807Z</time></trkpt><trkpt lat="43.690003" lon="12.3463175"><ele>632.75</ele><time>2026-05-01T10:29:56.796Z</time></trkpt><trkpt lat="43.6899191" lon="12.3464049"><ele>635.0</ele><time>2026-05-01T10:29:57.791Z</time></trkpt><trkpt lat="43.6898274" lon="12.3464772"><ele>635.0</ele><time>2026-05-01T10:29:58.796Z</time></trkpt><trkpt lat="43.6897262" lon="12.3465166"><ele>635.0</ele><time>2026-05-01T10:29:59.794Z</time></trkpt><trkpt lat="43.6896171" lon="12.3465478"><ele>635.0</ele><time>2026-05-01T10:30:00.795Z</time></trkpt><trkpt lat="43.6894987" lon="12.3465591"><ele>635.0</ele><time>2026-05-01T10:30:01.793Z</time></trkpt><trkpt lat="43.6893725" lon="12.3465549"><ele>636.5</ele><time>2026-05-01T10:30:02.789Z</time></trkpt><trkpt lat="43.6892538" lon="12.3465709"><ele>638.0</ele><time>2026-05-01T10:30:03.794Z</time></trkpt><trkpt lat="43.6891465" lon="12.3466072"><ele>639.5</ele><time>2026-05-01T10:30:04.787Z</time></trkpt><trkpt lat="43.6890462" lon="12.3466779"><ele>641.0</ele><time>2026-05-01T10:30:05.795Z</time></trkpt><trkpt lat="43.6889366" lon="12.3467699"><ele>641.0</ele><time>2026-05-01T10:30:06.79Z</time></trkpt><trkpt lat="43.6888061" lon="12.346881"><ele>641.0</ele><time>2026-05-01T10:30:07.799Z</time></trkpt><trkpt lat="43.6886739" lon="12.3469646"><ele>641.0</ele><time>2026-05-01T10:30:08.79Z</time></trkpt><trkpt lat="43.6885416" lon="12.3470382"><ele>641.0</ele><time>2026-05-01T10:30:09.808Z</time></trkpt><trkpt lat="43.6884095" lon="12.3471501"><ele>639.5</ele><time>2026-05-01T10:30:10.793Z</time></trkpt><trkpt lat="43.6882894" lon="12.3472608"><ele>638.0</ele><time>2026-05-01T10:30:11.803Z</time></trkpt><trkpt lat="43.6881783" lon="12.3473609"><ele>636.5</ele><time>2026-05-01T10:30:12.792Z</time></trkpt><trkpt lat="43.6880452" lon="12.3474299"><ele>635.0</ele><time>2026-05-01T10:30:13.8Z</time></trkpt><trkpt lat="43.687893" lon="12.3474957"><ele>640.0</ele><time>2026-05-01T10:30:14.792Z</time></trkpt><trkpt lat="43.6877375" lon="12.3475596"><ele>645.0</ele><time>2026-05-01T10:30:15.799Z</time></trkpt><trkpt lat="43.6876151" lon="12.3476178"><ele>650.0</ele><time>2026-05-01T10:30:16.789Z</time></trkpt><trkpt lat="43.6875215" lon="12.3477034"><ele>655.0</ele><time>2026-05-01T10:30:17.805Z</time></trkpt><trkpt lat="43.6874409" lon="12.3478147"><ele>655.0</ele><time>2026-05-01T10:30:18.792Z</time></trkpt><trkpt lat="43.6873756" lon="12.3479509"><ele>655.0</ele><time>2026-05-01T10:30:19.804Z</time></trkpt><trkpt lat="43.6873259" lon="12.3481032"><ele>655.0</ele><time>2026-05-01T10:30:20.782Z</time></trkpt><trkpt lat="43.6872962" lon="12.3482687"><ele>655.0</ele><time>2026-05-01T10:30:21.793Z</time></trkpt><trkpt lat="43.6872796" lon="12.348426"><ele>652.0</ele><time>2026-05-01T10:30:22.785Z</time></trkpt><trkpt lat="43.6872465" lon="12.3485651"><ele>649.0</ele><time>2026-05-01T10:30:23.812Z</time></trkpt><trkpt lat="43.6871928" lon="12.3486926"><ele>646.0</ele><time>2026-05-01T10:30:24.79Z</time></trkpt><trkpt lat="43.6871134" lon="12.3488105"><ele>643.0</ele><time>2026-05-01T10:30:25.793Z</time></trkpt><trkpt lat="43.6870214" lon="12.3489299"><ele>642.1999999999999</ele><time>2026-05-01T10:30:26.78Z</time></trkpt><trkpt lat="43.6869471" lon="12.3490631"><ele>641.4</ele><time>2026-05-01T10:30:27.806Z</time></trkpt><trkpt lat="43.6868994" lon="12.3492077"><ele>640.5999999999999</ele><time>2026-05-01T10:30:28.79Z</time></trkpt><trkpt lat="43.6868554" lon="12.349333"><ele>639.8</ele><time>2026-05-01T10:30:29.792Z</time></trkpt><trkpt lat="43.6868024" lon="12.3494466"><ele>639.0</ele><time>2026-05-01T10:30:30.783Z</time></trkpt><trkpt lat="43.6867137" lon="12.3495111"><ele>640.8</ele><time>2026-05-01T10:30:31.806Z</time></trkpt><trkpt lat="43.6866077" lon="12.3495407"><ele>642.5999999999999</ele><time>2026-05-01T10:30:32.793Z</time></trkpt><trkpt lat="43.686505" lon="12.3495957"><ele>644.4</ele><time>2026-05-01T10:30:33.793Z</time></trkpt><trkpt lat="43.6864307" lon="12.3496666"><ele>646.1999999999999</ele><time>2026-05-01T10:30:34.783Z</time></trkpt><trkpt lat="43.6863854" lon="12.3497541"><ele>648.0</ele><time>2026-05-01T10:30:35.788Z</time></trkpt><trkpt lat="43.6863414" lon="12.3498842"><ele>648.0</ele><time>2026-05-01T10:30:36.784Z</time></trkpt><trkpt lat="43.6862979" lon="12.3500328"><ele>648.0</ele><time>2026-05-01T10:30:37.793Z</time></trkpt><trkpt lat="43.6862597" lon="12.3501878"><ele>648.0</ele><time>2026-05-01T10:30:38.785Z</time></trkpt><trkpt lat="43.6862091" lon="12.3503237"><ele>648.0</ele><time>2026-05-01T10:30:39.796Z</time></trkpt><trkpt lat="43.6861409" lon="12.3504429"><ele>649.4</ele><time>2026-05-01T10:30:40.78Z</time></trkpt><trkpt lat="43.6860707" lon="12.350522"><ele>650.8</ele><time>2026-05-01T10:30:41.792Z</time></trkpt><trkpt lat="43.6859769" lon="12.3505683"><ele>652.2</ele><time>2026-05-01T10:30:42.793Z</time></trkpt><trkpt lat="43.6858636" lon="12.3505934"><ele>653.6</ele><time>2026-05-01T10:30:43.805Z</time></trkpt><trkpt lat="43.6857348" lon="12.3506112"><ele>655.0</ele><time>2026-05-01T10:30:44.791Z</time></trkpt><trkpt lat="43.6855978" lon="12.3506245"><ele>655.0</ele><time>2026-05-01T10:30:45.797Z</time></trkpt><trkpt lat="43.6854657" lon="12.3506366"><ele>655.0</ele><time>2026-05-01T10:30:46.786Z</time></trkpt><trkpt lat="43.6853302" lon="12.3506248"><ele>655.0</ele><time>2026-05-01T10:30:47.809Z</time></trkpt><trkpt lat="43.6851856" lon="12.350572"><ele>655.0</ele><time>2026-05-01T10:30:48.781Z</time></trkpt><trkpt lat="43.6850195" lon="12.3504963"><ele>665.0</ele><time>2026-05-01T10:30:49.801Z</time></trkpt><trkpt lat="43.6848503" lon="12.3504234"><ele>675.0</ele><time>2026-05-01T10:30:50.793Z</time></trkpt><trkpt lat="43.6847039" lon="12.3503674"><ele>685.0</ele><time>2026-05-01T10:30:51.786Z</time></trkpt><trkpt lat="43.6845757" lon="12.3503207"><ele>685.0</ele><time>2026-05-01T10:30:52.793Z</time></trkpt><trkpt lat="43.6844735" lon="12.3503006"><ele>685.0</ele><time>2026-05-01T10:30:53.794Z</time></trkpt><trkpt lat="43.6843784" lon="12.3503132"><ele>685.0</ele><time>2026-05-01T10:30:54.792Z</time></trkpt><trkpt lat="43.6842852" lon="12.3503571"><ele>685.0</ele><time>2026-05-01T10:30:55.794Z</time></trkpt><trkpt lat="43.6841929" lon="12.3504384"><ele>685.0</ele><time>2026-05-01T10:30:56.787Z</time></trkpt><trkpt lat="43.6841065" lon="12.3505361"><ele>680.75</ele><time>2026-05-01T10:30:57.802Z</time></trkpt><trkpt lat="43.684009" lon="12.3506186"><ele>676.5</ele><time>2026-05-01T10:30:58.784Z</time></trkpt><trkpt lat="43.6839042" lon="12.3506906"><ele>672.25</ele><time>2026-05-01T10:30:59.783Z</time></trkpt><trkpt lat="43.6837944" lon="12.3507473"><ele>668.0</ele><time>2026-05-01T10:31:00.777Z</time></trkpt><trkpt lat="43.6836945" lon="12.3507875"><ele>671.5999999999999</ele><time>2026-05-01T10:31:01.781Z</time></trkpt><trkpt lat="43.6835887" lon="12.3508036"><ele>675.1999999999999</ele><time>2026-05-01T10:31:02.779Z</time></trkpt><trkpt lat="43.6834806" lon="12.3507974"><ele>678.8</ele><time>2026-05-01T10:31:03.792Z</time></trkpt><trkpt lat="43.683377" lon="12.3508031"><ele>682.4</ele><time>2026-05-01T10:31:04.782Z</time></trkpt><trkpt lat="43.6832893" lon="12.3508491"><ele>686.0</ele><time>2026-05-01T10:31:05.78Z</time></trkpt><trkpt lat="43.6832155" lon="12.3509221"><ele>686.0</ele><time>2026-05-01T10:31:06.78Z</time></trkpt><trkpt lat="43.6831484" lon="12.351036"><ele>686.0</ele><time>2026-05-01T10:31:07.795Z</time></trkpt><trkpt lat="43.6830868" lon="12.3511735"><ele>686.0</ele><time>2026-05-01T10:31:08.785Z</time></trkpt><trkpt lat="43.6830324" lon="12.3513146"><ele>686.0</ele><time>2026-05-01T10:31:09.799Z</time></trkpt><trkpt lat="43.6829908" lon="12.3514512"><ele>686.0</ele><time>2026-05-01T10:31:10.782Z</time></trkpt><trkpt lat="43.6829517" lon="12.3515971"><ele>688.75</ele><time>2026-05-01T10:31:11.795Z</time></trkpt><trkpt lat="43.6829126" lon="12.3517411"><ele>691.5</ele><time>2026-05-01T10:31:12.783Z</time></trkpt><trkpt lat="43.6828629" lon="12.35189"><ele>694.25</ele><time>2026-05-01T10:31:13.799Z</time></trkpt><trkpt lat="43.6827974" lon="12.3520328"><ele>697.0</ele><time>2026-05-01T10:31:14.789Z</time></trkpt><trkpt lat="43.6827223" lon="12.3521704"><ele>695.75</ele><time>2026-05-01T10:31:15.784Z</time></trkpt><trkpt lat="43.682655" lon="12.3523131"><ele>694.5</ele><time>2026-05-01T10:31:16.781Z</time></trkpt><trkpt lat="43.6825991" lon="12.3524801"><ele>693.25</ele><time>2026-05-01T10:31:17.793Z</time></trkpt><trkpt lat="43.6825597" lon="12.3526519"><ele>692.0</ele><time>2026-05-01T10:31:18.786Z</time></trkpt><trkpt lat="43.6825378" lon="12.3528134"><ele>692.0</ele><time>2026-05-01T10:31:19.786Z</time></trkpt><trkpt lat="43.6825285" lon="12.3529703"><ele>692.0</ele><time>2026-05-01T10:31:20.782Z</time></trkpt><trkpt lat="43.6825331" lon="12.3531378"><ele>692.0</ele><time>2026-05-01T10:31:21.785Z</time></trkpt><trkpt lat="43.6825622" lon="12.3532914"><ele>692.0</ele><time>2026-05-01T10:31:22.787Z</time></trkpt><trkpt lat="43.6826026" lon="12.3534273"><ele>691.8333333333333</ele><time>2026-05-01T10:31:23.811Z</time></trkpt><trkpt lat="43.6826359" lon="12.353552"><ele>691.6666666666666</ele><time>2026-05-01T10:31:24.79Z</time></trkpt><trkpt lat="43.6826482" lon="12.3536617"><ele>691.5</ele><time>2026-05-01T10:31:25.788Z</time></trkpt><trkpt lat="43.6826463" lon="12.3537493"><ele>691.3333333333334</ele><time>2026-05-01T10:31:26.787Z</time></trkpt><trkpt lat="43.6826231" lon="12.353833"><ele>691.1666666666667</ele><time>2026-05-01T10:31:27.796Z</time></trkpt><trkpt lat="43.6825724" lon="12.3539058"><ele>691.0</ele><time>2026-05-01T10:31:28.795Z</time></trkpt><trkpt lat="43.6824869" lon="12.3539707"><ele>688.25</ele><time>2026-05-01T10:31:29.8Z</time></trkpt><trkpt lat="43.6823823" lon="12.3540561"><ele>685.5</ele><time>2026-05-01T10:31:30.788Z</time></trkpt><trkpt lat="43.6822882" lon="12.3541448"><ele>682.75</ele><time>2026-05-01T10:31:31.795Z</time></trkpt><trkpt lat="43.6821982" lon="12.3542555"><ele>680.0</ele><time>2026-05-01T10:31:32.788Z</time></trkpt><trkpt lat="43.6821074" lon="12.3544005"><ele>680.0</ele><time>2026-05-01T10:31:33.808Z</time></trkpt><trkpt lat="43.6820066" lon="12.3545469"><ele>680.0</ele><time>2026-05-01T10:31:34.793Z</time></trkpt><trkpt lat="43.6819033" lon="12.3546775"><ele>680.0</ele><time>2026-05-01T10:31:35.796Z</time></trkpt><trkpt lat="43.6818013" lon="12.3547923"><ele>680.0</ele><time>2026-05-01T10:31:36.798Z</time></trkpt><trkpt lat="43.6817295" lon="12.3549037"><ele>683.25</ele><time>2026-05-01T10:31:37.802Z</time></trkpt><trkpt lat="43.681676" lon="12.3550289"><ele>686.5</ele><time>2026-05-01T10:31:38.798Z</time></trkpt><trkpt lat="43.6816181" lon="12.3551805"><ele>689.75</ele><time>2026-05-01T10:31:39.808Z</time></trkpt><trkpt lat="43.6815722" lon="12.3553382"><ele>693.0</ele><time>2026-05-01T10:31:40.807Z</time></trkpt><trkpt lat="43.6815492" lon="12.355475"><ele>692.5999999999999</ele><time>2026-05-01T10:31:41.808Z</time></trkpt><trkpt lat="43.6815525" lon="12.3556073"><ele>692.1999999999999</ele><time>2026-05-01T10:31:42.806Z</time></trkpt><trkpt lat="43.6815648" lon="12.3557647"><ele>691.8</ele><time>2026-05-01T10:31:43.793Z</time></trkpt><trkpt lat="43.6815932" lon="12.3559249"><ele>691.4</ele><time>2026-05-01T10:31:44.804Z</time></trkpt><trkpt lat="43.6815895" lon="12.3560476"><ele>691.0</ele><time>2026-05-01T10:31:45.814Z</time></trkpt><trkpt lat="43.6815683" lon="12.3561646"><ele>691.0</ele><time>2026-05-01T10:31:46.788Z</time></trkpt><trkpt lat="43.6815383" lon="12.3562962"><ele>691.0</ele><time>2026-05-01T10:31:47.794Z</time></trkpt><trkpt lat="43.6814882" lon="12.3564083"><ele>691.0</ele><time>2026-05-01T10:31:48.807Z</time></trkpt><trkpt lat="43.6814307" lon="12.3565219"><ele>691.0</ele><time>2026-05-01T10:31:49.805Z</time></trkpt><trkpt lat="43.6813696" lon="12.3566302"><ele>691.0</ele><time>2026-05-01T10:31:50.788Z</time></trkpt><trkpt lat="43.6812914" lon="12.3567207"><ele>690.0</ele><time>2026-05-01T10:31:51.812Z</time></trkpt><trkpt lat="43.6812041" lon="12.3567892"><ele>689.0</ele><time>2026-05-01T10:31:52.792Z</time></trkpt><trkpt lat="43.6811142" lon="12.3568258"><ele>688.0</ele><time>2026-05-01T10:31:53.788Z</time></trkpt><trkpt lat="43.6810187" lon="12.3568338"><ele>687.0</ele><time>2026-05-01T10:31:54.799Z</time></trkpt><trkpt lat="43.6809326" lon="12.3568254"><ele>686.0</ele><time>2026-05-01T10:31:55.805Z</time></trkpt><trkpt lat="43.6808534" lon="12.3568146"><ele>689.5999999999999</ele><time>2026-05-01T10:31:56.789Z</time></trkpt><trkpt lat="43.6807775" lon="12.3568095"><ele>693.2</ele><time>2026-05-01T10:31:57.796Z</time></trkpt><trkpt lat="43.6806618" lon="12.3568272"><ele>696.8</ele><time>2026-05-01T10:31:59.79Z</time></trkpt><trkpt lat="43.6805524" lon="12.3568402"><ele>700.4000000000001</ele><time>2026-05-01T10:32:01.787Z</time></trkpt><trkpt lat="43.6804454" lon="12.3568162"><ele>704.0</ele><time>2026-05-01T10:32:03.794Z</time></trkpt><trkpt lat="43.6803481" lon="12.3567987"><ele>703.3333333333333</ele><time>2026-05-01T10:32:05.792Z</time></trkpt><trkpt lat="43.680257" lon="12.3567742"><ele>702.6666666666666</ele><time>2026-05-01T10:32:07.793Z</time></trkpt><trkpt lat="43.6801942" lon="12.3567125"><ele>702.0</ele><time>2026-05-01T10:32:09.807Z</time></trkpt><trkpt lat="43.6801567" lon="12.3566415"><ele>701.3333333333334</ele><time>2026-05-01T10:33:07.793Z</time></trkpt><trkpt lat="43.6800546" lon="12.356588"><ele>700.6666666666667</ele><time>2026-05-01T10:33:09.791Z</time></trkpt><trkpt lat="43.6799658" lon="12.3565709"><ele>700.0</ele><time>2026-05-01T10:33:10.784Z</time></trkpt><trkpt lat="43.6798572" lon="12.3565569"><ele>700.0</ele><time>2026-05-01T10:33:11.791Z</time></trkpt><trkpt lat="43.6797374" lon="12.3565383"><ele>700.0</ele><time>2026-05-01T10:33:12.783Z</time></trkpt><trkpt lat="43.6796203" lon="12.3565351"><ele>700.0</ele><time>2026-05-01T10:33:13.787Z</time></trkpt><trkpt lat="43.6795001" lon="12.3565457"><ele>700.0</ele><time>2026-05-01T10:33:14.789Z</time></trkpt><trkpt lat="43.6793762" lon="12.3565753"><ele>701.0</ele><time>2026-05-01T10:33:15.79Z</time></trkpt><trkpt lat="43.6792486" lon="12.3566118"><ele>702.0</ele><time>2026-05-01T10:33:16.785Z</time></trkpt><trkpt lat="43.6791177" lon="12.3566372"><ele>703.0</ele><time>2026-05-01T10:33:17.79Z</time></trkpt><trkpt lat="43.6789946" lon="12.3566566"><ele>704.0</ele><time>2026-05-01T10:33:18.784Z</time></trkpt><trkpt lat="43.678886" lon="12.3566678"><ele>704.0</ele><time>2026-05-01T10:33:19.801Z</time></trkpt><trkpt lat="43.6787983" lon="12.3566937"><ele>704.0</ele><time>2026-05-01T10:33:20.787Z</time></trkpt><trkpt lat="43.6787208" lon="12.3567353"><ele>704.0</ele><time>2026-05-01T10:33:21.795Z</time></trkpt><trkpt lat="43.6786545" lon="12.3568063"><ele>704.0</ele><time>2026-05-01T10:33:22.785Z</time></trkpt><trkpt lat="43.6786068" lon="12.3568958"><ele>704.0</ele><time>2026-05-01T10:33:23.787Z</time></trkpt><trkpt lat="43.6785796" lon="12.357009"><ele>704.0</ele><time>2026-05-01T10:33:24.781Z</time></trkpt><trkpt lat="43.6785677" lon="12.3571286"><ele>704.4000000000001</ele><time>2026-05-01T10:33:25.785Z</time></trkpt><trkpt lat="43.6785444" lon="12.3572518"><ele>704.8</ele><time>2026-05-01T10:33:26.784Z</time></trkpt><trkpt lat="43.6785063" lon="12.3573774"><ele>705.2</ele><time>2026-05-01T10:33:27.796Z</time></trkpt><trkpt lat="43.6784511" lon="12.3575124"><ele>705.5999999999999</ele><time>2026-05-01T10:33:28.782Z</time></trkpt><trkpt lat="43.6783916" lon="12.3576394"><ele>706.0</ele><time>2026-05-01T10:33:29.785Z</time></trkpt><trkpt lat="43.6783159" lon="12.3577553"><ele>706.0</ele><time>2026-05-01T10:33:30.785Z</time></trkpt><trkpt lat="43.6782218" lon="12.3578761"><ele>706.0</ele><time>2026-05-01T10:33:31.792Z</time></trkpt><trkpt lat="43.6781201" lon="12.3580041"><ele>706.0</ele><time>2026-05-01T10:33:32.784Z</time></trkpt><trkpt lat="43.6780124" lon="12.358142"><ele>706.0</ele><time>2026-05-01T10:33:33.803Z</time></trkpt><trkpt lat="43.6778927" lon="12.3583204"><ele>708.0</ele><time>2026-05-01T10:33:34.787Z</time></trkpt><trkpt lat="43.6777774" lon="12.3584892"><ele>710.0</ele><time>2026-05-01T10:33:35.803Z</time></trkpt><trkpt lat="43.6776789" lon="12.3586203"><ele>712.0</ele><time>2026-05-01T10:33:36.786Z</time></trkpt><trkpt lat="43.6775782" lon="12.3587329"><ele>714.0</ele><time>2026-05-01T10:33:37.794Z</time></trkpt><trkpt lat="43.6774791" lon="12.3588313"><ele>710.2</ele><time>2026-05-01T10:33:38.789Z</time></trkpt><trkpt lat="43.6773967" lon="12.3589094"><ele>706.4000000000001</ele><time>2026-05-01T10:33:39.787Z</time></trkpt><trkpt lat="43.6773164" lon="12.3589597"><ele>702.6</ele><time>2026-05-01T10:33:40.793Z</time></trkpt><trkpt lat="43.6772353" lon="12.3589702"><ele>698.8</ele><time>2026-05-01T10:33:41.79Z</time></trkpt><trkpt lat="43.6771365" lon="12.3589592"><ele>695.0</ele><time>2026-05-01T10:33:42.786Z</time></trkpt><trkpt lat="43.6770203" lon="12.3589315"><ele>696.2</ele><time>2026-05-01T10:33:43.793Z</time></trkpt><trkpt lat="43.6768931" lon="12.3589246"><ele>697.4</ele><time>2026-05-01T10:33:44.792Z</time></trkpt><trkpt lat="43.6767781" lon="12.3589376"><ele>698.5999999999999</ele><time>2026-05-01T10:33:45.79Z</time></trkpt><trkpt lat="43.6766829" lon="12.3589413"><ele>699.8</ele><time>2026-05-01T10:33:46.777Z</time></trkpt><trkpt lat="43.6766045" lon="12.3589387"><ele>701.0</ele><time>2026-05-01T10:33:47.82Z</time></trkpt><trkpt lat="43.6765274" lon="12.3589147"><ele>701.0</ele><time>2026-05-01T10:33:48.787Z</time></trkpt><trkpt lat="43.6764426" lon="12.3588735"><ele>701.0</ele><time>2026-05-01T10:33:49.794Z</time></trkpt><trkpt lat="43.6763729" lon="12.3588502"><ele>701.0</ele><time>2026-05-01T10:33:50.778Z</time></trkpt><trkpt lat="43.6763016" lon="12.358864"><ele>701.0</ele><time>2026-05-01T10:33:51.789Z</time></trkpt><trkpt lat="43.6762261" lon="12.358898"><ele>701.0</ele><time>2026-05-01T10:33:52.785Z</time></trkpt><trkpt lat="43.6761353" lon="12.3589626"><ele>701.0</ele><time>2026-05-01T10:33:53.797Z</time></trkpt><trkpt lat="43.6760254" lon="12.3590307"><ele>702.75</ele><time>2026-05-01T10:33:54.793Z</time></trkpt><trkpt lat="43.6759089" lon="12.3591006"><ele>704.5</ele><time>2026-05-01T10:33:55.797Z</time></trkpt><trkpt lat="43.6757916" lon="12.3591628"><ele>706.25</ele><time>2026-05-01T10:33:56.792Z</time></trkpt><trkpt lat="43.6756824" lon="12.3592107"><ele>708.0</ele><time>2026-05-01T10:33:57.785Z</time></trkpt><trkpt lat="43.6755784" lon="12.3592766"><ele>708.0</ele><time>2026-05-01T10:33:58.804Z</time></trkpt><trkpt lat="43.675483" lon="12.3593396"><ele>708.0</ele><time>2026-05-01T10:33:59.797Z</time></trkpt><trkpt lat="43.6753964" lon="12.3593917"><ele>708.0</ele><time>2026-05-01T10:34:00.787Z</time></trkpt><trkpt lat="43.6753255" lon="12.3594305"><ele>708.0</ele><time>2026-05-01T10:34:01.792Z</time></trkpt><trkpt lat="43.6752617" lon="12.3594994"><ele>708.0</ele><time>2026-05-01T10:34:02.787Z</time></trkpt><trkpt lat="43.6751925" lon="12.3595942"><ele>708.0</ele><time>2026-05-01T10:34:03.797Z</time></trkpt><trkpt lat="43.6751299" lon="12.3597161"><ele>708.0</ele><time>2026-05-01T10:34:04.784Z</time></trkpt><trkpt lat="43.6750878" lon="12.3598477"><ele>708.0</ele><time>2026-05-01T10:34:05.801Z</time></trkpt><trkpt lat="43.6750545" lon="12.3600093"><ele>708.0</ele><time>2026-05-01T10:34:06.785Z</time></trkpt><trkpt lat="43.6750276" lon="12.3601677"><ele>708.0</ele><time>2026-05-01T10:34:07.792Z</time></trkpt><trkpt lat="43.6749959" lon="12.3602981"><ele>708.0</ele><time>2026-05-01T10:34:08.788Z</time></trkpt><trkpt lat="43.6749594" lon="12.3603914"><ele>708.0</ele><time>2026-05-01T10:34:09.785Z</time></trkpt><trkpt lat="43.6749205" lon="12.3604873"><ele>708.0</ele><time>2026-05-01T10:34:10.792Z</time></trkpt><trkpt lat="43.6748962" lon="12.3605985"><ele>708.0</ele><time>2026-05-01T10:34:11.803Z</time></trkpt><trkpt lat="43.6748764" lon="12.360739"><ele>708.0</ele><time>2026-05-01T10:34:12.805Z</time></trkpt><trkpt lat="43.6748509" lon="12.3609032"><ele>704.75</ele><time>2026-05-01T10:34:13.78Z</time></trkpt><trkpt lat="43.6748157" lon="12.361099"><ele>701.5</ele><time>2026-05-01T10:34:14.788Z</time></trkpt><trkpt lat="43.6747872" lon="12.3613043"><ele>698.25</ele><time>2026-05-01T10:34:15.793Z</time></trkpt><trkpt lat="43.6747549" lon="12.3614938"><ele>695.0</ele><time>2026-05-01T10:34:16.787Z</time></trkpt><trkpt lat="43.6747231" lon="12.361675"><ele>693.25</ele><time>2026-05-01T10:34:17.8Z</time></trkpt><trkpt lat="43.6746834" lon="12.3618491"><ele>691.5</ele><time>2026-05-01T10:34:18.789Z</time></trkpt><trkpt lat="43.6746302" lon="12.3620474"><ele>689.75</ele><time>2026-05-01T10:34:19.797Z</time></trkpt><trkpt lat="43.6745711" lon="12.3622571"><ele>688.0</ele><time>2026-05-01T10:34:20.793Z</time></trkpt><trkpt lat="43.6745243" lon="12.362435"><ele>686.4</ele><time>2026-05-01T10:34:21.796Z</time></trkpt><trkpt lat="43.6744928" lon="12.3625787"><ele>684.8</ele><time>2026-05-01T10:34:22.792Z</time></trkpt><trkpt lat="43.6744587" lon="12.3626855"><ele>683.2</ele><time>2026-05-01T10:34:23.787Z</time></trkpt><trkpt lat="43.6744143" lon="12.362785"><ele>681.6</ele><time>2026-05-01T10:34:24.789Z</time></trkpt><trkpt lat="43.6743423" lon="12.3628823"><ele>680.0</ele><time>2026-05-01T10:34:25.797Z</time></trkpt><trkpt lat="43.6742764" lon="12.3629603"><ele>680.4</ele><time>2026-05-01T10:34:26.809Z</time></trkpt><trkpt lat="43.6742144" lon="12.3630187"><ele>680.8</ele><time>2026-05-01T10:34:27.818Z</time></trkpt><trkpt lat="43.6741052" lon="12.3630472"><ele>681.2</ele><time>2026-05-01T10:34:29.801Z</time></trkpt><trkpt lat="43.6740096" lon="12.3629815"><ele>681.6</ele><time>2026-05-01T10:34:31.813Z</time></trkpt><trkpt lat="43.6739525" lon="12.3628474"><ele>682.0</ele><time>2026-05-01T10:34:33.796Z</time></trkpt><trkpt lat="43.6739154" lon="12.3627523"><ele>685.6</ele><time>2026-05-01T10:34:34.786Z</time></trkpt><trkpt lat="43.6738701" lon="12.3626448"><ele>689.2</ele><time>2026-05-01T10:34:35.796Z</time></trkpt><trkpt lat="43.6738159" lon="12.3625215"><ele>692.8</ele><time>2026-05-01T10:34:36.791Z</time></trkpt><trkpt lat="43.6737598" lon="12.3623865"><ele>696.4</ele><time>2026-05-01T10:34:37.802Z</time></trkpt><trkpt lat="43.673708" lon="12.3622268"><ele>700.0</ele><time>2026-05-01T10:34:38.781Z</time></trkpt><trkpt lat="43.6736535" lon="12.362069"><ele>699.2</ele><time>2026-05-01T10:34:39.797Z</time></trkpt><trkpt lat="43.6735993" lon="12.3619398"><ele>698.4</ele><time>2026-05-01T10:34:40.789Z</time></trkpt><trkpt lat="43.6735405" lon="12.3618275"><ele>697.5999999999999</ele><time>2026-05-01T10:34:41.796Z</time></trkpt><trkpt lat="43.6734656" lon="12.3617143"><ele>696.8</ele><time>2026-05-01T10:34:42.79Z</time></trkpt><trkpt lat="43.6733653" lon="12.361602"><ele>696.0</ele><time>2026-05-01T10:34:43.801Z</time></trkpt><trkpt lat="43.6732595" lon="12.3615067"><ele>696.0</ele><time>2026-05-01T10:34:44.784Z</time></trkpt><trkpt lat="43.67316" lon="12.3614291"><ele>696.0</ele><time>2026-05-01T10:34:45.8Z</time></trkpt><trkpt lat="43.6730438" lon="12.3613558"><ele>696.0</ele><time>2026-05-01T10:34:46.789Z</time></trkpt><trkpt lat="43.6729174" lon="12.3612933"><ele>696.0</ele><time>2026-05-01T10:34:47.793Z</time></trkpt><trkpt lat="43.6727878" lon="12.3612372"><ele>697.0</ele><time>2026-05-01T10:34:48.787Z</time></trkpt><trkpt lat="43.672659" lon="12.3611887"><ele>698.0</ele><time>2026-05-01T10:34:49.812Z</time></trkpt><trkpt lat="43.6725486" lon="12.361163"><ele>699.0</ele><time>2026-05-01T10:34:50.79Z</time></trkpt><trkpt lat="43.6724508" lon="12.3611559"><ele>700.0</ele><time>2026-05-01T10:34:51.798Z</time></trkpt><trkpt lat="43.6723523" lon="12.3611624"><ele>701.0</ele><time>2026-05-01T10:34:52.787Z</time></trkpt><trkpt lat="43.6722457" lon="12.3611949"><ele>701.0</ele><time>2026-05-01T10:34:53.795Z</time></trkpt><trkpt lat="43.6721231" lon="12.3612525"><ele>701.0</ele><time>2026-05-01T10:34:54.791Z</time></trkpt><trkpt lat="43.6719758" lon="12.3613131"><ele>701.0</ele><time>2026-05-01T10:34:55.807Z</time></trkpt><trkpt lat="43.6718175" lon="12.3613784"><ele>701.0</ele><time>2026-05-01T10:34:56.792Z</time></trkpt><trkpt lat="43.6716528" lon="12.36142"><ele>697.0</ele><time>2026-05-01T10:34:57.803Z</time></trkpt><trkpt lat="43.6714801" lon="12.3614539"><ele>693.0</ele><time>2026-05-01T10:34:58.785Z</time></trkpt><trkpt lat="43.6713319" lon="12.3614701"><ele>689.0</ele><time>2026-05-01T10:34:59.799Z</time></trkpt><trkpt lat="43.6712155" lon="12.3614854"><ele>685.0</ele><time>2026-05-01T10:35:00.791Z</time></trkpt><trkpt lat="43.671117" lon="12.3615065"><ele>685.4</ele><time>2026-05-01T10:35:01.797Z</time></trkpt><trkpt lat="43.6710289" lon="12.3615288"><ele>685.8</ele><time>2026-05-01T10:35:02.788Z</time></trkpt><trkpt lat="43.6709392" lon="12.3615533"><ele>686.2</ele><time>2026-05-01T10:35:03.794Z</time></trkpt><trkpt lat="43.6708514" lon="12.3615906"><ele>686.6</ele><time>2026-05-01T10:35:04.806Z</time></trkpt><trkpt lat="43.6707691" lon="12.3616516"><ele>687.0</ele><time>2026-05-01T10:35:05.813Z</time></trkpt><trkpt lat="43.6706888" lon="12.3617186"><ele>687.0</ele><time>2026-05-01T10:35:06.787Z</time></trkpt><trkpt lat="43.6706119" lon="12.3617796"><ele>687.0</ele><time>2026-05-01T10:35:07.803Z</time></trkpt><trkpt lat="43.6705308" lon="12.3618331"><ele>687.0</ele><time>2026-05-01T10:35:08.805Z</time></trkpt><trkpt lat="43.6704481" lon="12.3618857"><ele>687.0</ele><time>2026-05-01T10:35:09.816Z</time></trkpt><trkpt lat="43.670364" lon="12.3619295"><ele>687.0</ele><time>2026-05-01T10:35:10.794Z</time></trkpt><trkpt lat="43.6702779" lon="12.3619703"><ele>686.6</ele><time>2026-05-01T10:35:11.802Z</time></trkpt><trkpt lat="43.6701907" lon="12.362001"><ele>686.2</ele><time>2026-05-01T10:35:12.808Z</time></trkpt><trkpt lat="43.6700959" lon="12.3620289"><ele>685.8</ele><time>2026-05-01T10:35:13.823Z</time></trkpt><trkpt lat="43.669997" lon="12.3620611"><ele>685.4</ele><time>2026-05-01T10:35:14.794Z</time></trkpt><trkpt lat="43.6699026" lon="12.3621023"><ele>685.0</ele><time>2026-05-01T10:35:15.806Z</time></trkpt><trkpt lat="43.6698182" lon="12.3621433"><ele>685.0</ele><time>2026-05-01T10:35:16.79Z</time></trkpt><trkpt lat="43.6697345" lon="12.3621863"><ele>685.0</ele><time>2026-05-01T10:35:17.799Z</time></trkpt><trkpt lat="43.6696496" lon="12.3622276"><ele>685.0</ele><time>2026-05-01T10:35:18.799Z</time></trkpt><trkpt lat="43.66957" lon="12.3622708"><ele>685.0</ele><time>2026-05-01T10:35:19.803Z</time></trkpt><trkpt lat="43.6694996" lon="12.3623163"><ele>685.0</ele><time>2026-05-01T10:35:20.791Z</time></trkpt><trkpt lat="43.6694328" lon="12.3623672"><ele>685.0</ele><time>2026-05-01T10:35:21.812Z</time></trkpt><trkpt lat="43.6693683" lon="12.362433"><ele>684.0</ele><time>2026-05-01T10:35:22.822Z</time></trkpt><trkpt lat="43.6693054" lon="12.3624988"><ele>683.0</ele><time>2026-05-01T10:35:23.815Z</time></trkpt><trkpt lat="43.6692502" lon="12.3625743"><ele>682.0</ele><time>2026-05-01T10:35:24.805Z</time></trkpt><trkpt lat="43.6691928" lon="12.3626586"><ele>681.0</ele><time>2026-05-01T10:35:25.804Z</time></trkpt><trkpt lat="43.6691262" lon="12.3627543"><ele>680.0</ele><time>2026-05-01T10:35:26.797Z</time></trkpt><trkpt lat="43.6690632" lon="12.3628561"><ele>679.0</ele><time>2026-05-01T10:35:27.798Z</time></trkpt><trkpt lat="43.6690056" lon="12.3629588"><ele>678.6666666666667</ele><time>2026-05-01T10:35:28.801Z</time></trkpt><trkpt lat="43.6689418" lon="12.3630535"><ele>678.3333333333334</ele><time>2026-05-01T10:35:29.803Z</time></trkpt><trkpt lat="43.6688809" lon="12.3631364"><ele>678.0</ele><time>2026-05-01T10:35:30.785Z</time></trkpt><trkpt lat="43.6688167" lon="12.3632136"><ele>677.6666666666666</ele><time>2026-05-01T10:35:31.801Z</time></trkpt><trkpt lat="43.668756" lon="12.363256"><ele>677.3333333333333</ele><time>2026-05-01T10:35:32.81Z</time></trkpt><trkpt lat="43.6686824" lon="12.3632751"><ele>677.0</ele><time>2026-05-01T10:35:33.79Z</time></trkpt><trkpt lat="43.668597" lon="12.3632766"><ele>677.0</ele><time>2026-05-01T10:35:34.805Z</time></trkpt><trkpt lat="43.6685028" lon="12.3632674"><ele>677.0</ele><time>2026-05-01T10:35:35.81Z</time></trkpt><trkpt lat="43.6684212" lon="12.3632749"><ele>677.0</ele><time>2026-05-01T10:35:36.793Z</time></trkpt><trkpt lat="43.6683524" lon="12.3632984"><ele>677.0</ele><time>2026-05-01T10:35:37.795Z</time></trkpt><trkpt lat="43.668275" lon="12.3633548"><ele>677.0</ele><time>2026-05-01T10:35:38.797Z</time></trkpt><trkpt lat="43.6681977" lon="12.3634396"><ele>677.0</ele><time>2026-05-01T10:35:39.807Z</time></trkpt><trkpt lat="43.6681198" lon="12.363531"><ele>677.0</ele><time>2026-05-01T10:35:40.809Z</time></trkpt><trkpt lat="43.668047" lon="12.3636269"><ele>677.0</ele><time>2026-05-01T10:35:41.788Z</time></trkpt><trkpt lat="43.6679812" lon="12.3637263"><ele>677.0</ele><time>2026-05-01T10:35:42.792Z</time></trkpt><trkpt lat="43.6679151" lon="12.3638295"><ele>677.0</ele><time>2026-05-01T10:35:43.802Z</time></trkpt><trkpt lat="43.6678539" lon="12.3639344"><ele>677.0</ele><time>2026-05-01T10:35:44.798Z</time></trkpt><trkpt lat="43.6677988" lon="12.364011"><ele>675.3333333333333</ele><time>2026-05-01T10:35:45.795Z</time></trkpt><trkpt lat="43.6677454" lon="12.3640743"><ele>673.6666666666666</ele><time>2026-05-01T10:35:46.8Z</time></trkpt><trkpt lat="43.6676804" lon="12.3640962"><ele>672.0</ele><time>2026-05-01T10:35:47.792Z</time></trkpt><trkpt lat="43.6676116" lon="12.3640995"><ele>670.3333333333334</ele><time>2026-05-01T10:35:48.797Z</time></trkpt><trkpt lat="43.6675255" lon="12.3640798"><ele>668.6666666666667</ele><time>2026-05-01T10:35:49.81Z</time></trkpt><trkpt lat="43.6674249" lon="12.3640386"><ele>667.0</ele><time>2026-05-01T10:35:50.809Z</time></trkpt><trkpt lat="43.6673178" lon="12.3639768"><ele>667.0</ele><time>2026-05-01T10:35:51.795Z</time></trkpt><trkpt lat="43.6672174" lon="12.3639159"><ele>667.0</ele><time>2026-05-01T10:35:52.795Z</time></trkpt><trkpt lat="43.6671264" lon="12.3638422"><ele>667.0</ele><time>2026-05-01T10:35:53.812Z</time></trkpt><trkpt lat="43.6670302" lon="12.3637769"><ele>667.0</ele><time>2026-05-01T10:35:54.804Z</time></trkpt><trkpt lat="43.6669401" lon="12.3637139"><ele>667.0</ele><time>2026-05-01T10:35:55.793Z</time></trkpt><trkpt lat="43.6668559" lon="12.3636438"><ele>665.0</ele><time>2026-05-01T10:35:56.791Z</time></trkpt><trkpt lat="43.6667836" lon="12.3635633"><ele>663.0</ele><time>2026-05-01T10:35:57.803Z</time></trkpt><trkpt lat="43.6667331" lon="12.3634642"><ele>661.0</ele><time>2026-05-01T10:35:58.785Z</time></trkpt><trkpt lat="43.6666974" lon="12.3633467"><ele>659.0</ele><time>2026-05-01T10:35:59.797Z</time></trkpt><trkpt lat="43.6666665" lon="12.3632169"><ele>657.0</ele><time>2026-05-01T10:36:00.788Z</time></trkpt><trkpt lat="43.6666421" lon="12.3630835"><ele>657.5</ele><time>2026-05-01T10:36:01.798Z</time></trkpt><trkpt lat="43.6666187" lon="12.3629434"><ele>658.0</ele><time>2026-05-01T10:36:02.788Z</time></trkpt><trkpt lat="43.6666027" lon="12.3628117"><ele>658.5</ele><time>2026-05-01T10:36:03.791Z</time></trkpt><trkpt lat="43.6665855" lon="12.362695"><ele>659.0</ele><time>2026-05-01T10:36:04.797Z</time></trkpt><trkpt lat="43.6665595" lon="12.36259"><ele>659.5</ele><time>2026-05-01T10:36:05.791Z</time></trkpt><trkpt lat="43.6665154" lon="12.3625135"><ele>660.0</ele><time>2026-05-01T10:36:06.791Z</time></trkpt><trkpt lat="43.666445" lon="12.3624607"><ele>660.0000000000001</ele><time>2026-05-01T10:36:07.799Z</time></trkpt><trkpt lat="43.6663752" lon="12.3624246"><ele>660.0</ele><time>2026-05-01T10:36:08.793Z</time></trkpt><trkpt lat="43.6662943" lon="12.3624173"><ele>660.0</ele><time>2026-05-01T10:36:09.802Z</time></trkpt><trkpt lat="43.666224" lon="12.3624317"><ele>660.0</ele><time>2026-05-01T10:36:10.793Z</time></trkpt><trkpt lat="43.6661546" lon="12.3624739"><ele>660.0</ele><time>2026-05-01T10:36:11.796Z</time></trkpt><trkpt lat="43.6661018" lon="12.3625407"><ele>660.0000000000001</ele><time>2026-05-01T10:36:12.792Z</time></trkpt><trkpt lat="43.6660645" lon="12.3626302"><ele>660.0</ele><time>2026-05-01T10:36:13.808Z</time></trkpt><trkpt lat="43.6660457" lon="12.3627277"><ele>659.5</ele><time>2026-05-01T10:36:14.787Z</time></trkpt><trkpt lat="43.6660435" lon="12.3628321"><ele>659.0</ele><time>2026-05-01T10:36:15.795Z</time></trkpt><trkpt lat="43.6660601" lon="12.362954"><ele>658.5</ele><time>2026-05-01T10:36:16.794Z</time></trkpt><trkpt lat="43.6660786" lon="12.3630724"><ele>658.0</ele><time>2026-05-01T10:36:17.805Z</time></trkpt><trkpt lat="43.6660954" lon="12.3631934"><ele>657.5</ele><time>2026-05-01T10:36:18.805Z</time></trkpt><trkpt lat="43.6661063" lon="12.3633223"><ele>657.0</ele><time>2026-05-01T10:36:19.794Z</time></trkpt><trkpt lat="43.6661197" lon="12.3634389"><ele>657.0</ele><time>2026-05-01T10:36:20.788Z</time></trkpt><trkpt lat="43.6661393" lon="12.3635475"><ele>657.0</ele><time>2026-05-01T10:36:21.799Z</time></trkpt><trkpt lat="43.6661432" lon="12.3636369"><ele>657.0</ele><time>2026-05-01T10:36:22.799Z</time></trkpt><trkpt lat="43.6661277" lon="12.3637224"><ele>657.0</ele><time>2026-05-01T10:36:23.801Z</time></trkpt><trkpt lat="43.6660265" lon="12.3638395"><ele>657.0</ele><time>2026-05-01T10:36:25.808Z</time></trkpt><trkpt lat="43.6659593" lon="12.363889"><ele>657.0</ele><time>2026-05-01T10:36:26.782Z</time></trkpt><trkpt lat="43.6658985" lon="12.3639363"><ele>654.2857142857142</ele><time>2026-05-01T10:36:27.793Z</time></trkpt><trkpt lat="43.6658403" lon="12.363987"><ele>651.5714285714287</ele><time>2026-05-01T10:36:28.796Z</time></trkpt><trkpt lat="43.665785" lon="12.3640319"><ele>648.8571428571429</ele><time>2026-05-01T10:36:29.802Z</time></trkpt><trkpt lat="43.6657303" lon="12.3640808"><ele>646.1428571428571</ele><time>2026-05-01T10:36:30.787Z</time></trkpt><trkpt lat="43.6656718" lon="12.3641213"><ele>643.4285714285713</ele><time>2026-05-01T10:36:31.804Z</time></trkpt><trkpt lat="43.6656084" lon="12.3641547"><ele>640.7142857142858</ele><time>2026-05-01T10:36:32.812Z</time></trkpt><trkpt lat="43.6655301" lon="12.364174"><ele>638.0</ele><time>2026-05-01T10:36:33.796Z</time></trkpt><trkpt lat="43.6654421" lon="12.3641977"><ele>638.0</ele><time>2026-05-01T10:36:34.789Z</time></trkpt><trkpt lat="43.6653607" lon="12.3642103"><ele>638.0</ele><time>2026-05-01T10:36:35.804Z</time></trkpt><trkpt lat="43.665276" lon="12.3642214"><ele>638.0</ele><time>2026-05-01T10:36:36.8Z</time></trkpt><trkpt lat="43.6651958" lon="12.3642275"><ele>638.0</ele><time>2026-05-01T10:36:37.796Z</time></trkpt><trkpt lat="43.6651078" lon="12.3642417"><ele>638.0</ele><time>2026-05-01T10:36:38.789Z</time></trkpt><trkpt lat="43.6650127" lon="12.364259"><ele>638.0</ele><time>2026-05-01T10:36:39.797Z</time></trkpt><trkpt lat="43.6649176" lon="12.3642757"><ele>635.6666666666666</ele><time>2026-05-01T10:36:40.788Z</time></trkpt><trkpt lat="43.6648265" lon="12.3642865"><ele>633.3333333333333</ele><time>2026-05-01T10:36:41.788Z</time></trkpt><trkpt lat="43.6647474" lon="12.3642985"><ele>631.0</ele><time>2026-05-01T10:36:42.788Z</time></trkpt><trkpt lat="43.6646741" lon="12.3643197"><ele>628.6666666666666</ele><time>2026-05-01T10:36:43.787Z</time></trkpt><trkpt lat="43.6646129" lon="12.3643477"><ele>626.3333333333334</ele><time>2026-05-01T10:36:44.788Z</time></trkpt><trkpt lat="43.6645121" lon="12.3643756"><ele>624.0</ele><time>2026-05-01T10:36:46.79Z</time></trkpt><trkpt lat="43.6644431" lon="12.3642938"><ele>624.0</ele><time>2026-05-01T10:36:48.785Z</time></trkpt><trkpt lat="43.6644685" lon="12.3641596"><ele>624.0</ele><time>2026-05-01T10:36:50.788Z</time></trkpt><trkpt lat="43.6645643" lon="12.3640496"><ele>624.0</ele><time>2026-05-01T10:36:52.783Z</time></trkpt><trkpt lat="43.6646214" lon="12.3639937"><ele>624.0</ele><time>2026-05-01T10:36:53.802Z</time></trkpt><trkpt lat="43.664678" lon="12.363913"><ele>624.0</ele><time>2026-05-01T10:36:54.784Z</time></trkpt><trkpt lat="43.664734" lon="12.3638158"><ele>621.8</ele><time>2026-05-01T10:36:55.781Z</time></trkpt><trkpt lat="43.6647922" lon="12.3637167"><ele>619.5999999999999</ele><time>2026-05-01T10:36:56.793Z</time></trkpt><trkpt lat="43.6648473" lon="12.363612"><ele>617.4</ele><time>2026-05-01T10:36:57.792Z</time></trkpt><trkpt lat="43.6648962" lon="12.3635036"><ele>615.1999999999999</ele><time>2026-05-01T10:36:58.802Z</time></trkpt><trkpt lat="43.6649383" lon="12.3633959"><ele>613.0</ele><time>2026-05-01T10:36:59.8Z</time></trkpt><trkpt lat="43.6649784" lon="12.3632941"><ele>613.0</ele><time>2026-05-01T10:37:00.795Z</time></trkpt><trkpt lat="43.6650151" lon="12.3631928"><ele>613.0</ele><time>2026-05-01T10:37:01.805Z</time></trkpt><trkpt lat="43.6650457" lon="12.3630898"><ele>613.0</ele><time>2026-05-01T10:37:02.787Z</time></trkpt><trkpt lat="43.6650659" lon="12.3629893"><ele>613.0</ele><time>2026-05-01T10:37:03.799Z</time></trkpt><trkpt lat="43.6650779" lon="12.3628841"><ele>613.0</ele><time>2026-05-01T10:37:04.793Z</time></trkpt><trkpt lat="43.6650789" lon="12.3627742"><ele>613.0</ele><time>2026-05-01T10:37:05.804Z</time></trkpt><trkpt lat="43.6650767" lon="12.3626665"><ele>612.8333333333334</ele><time>2026-05-01T10:37:06.799Z</time></trkpt><trkpt lat="43.6650651" lon="12.3625566"><ele>612.6666666666667</ele><time>2026-05-01T10:37:07.792Z</time></trkpt><trkpt lat="43.6650341" lon="12.3624445"><ele>612.5</ele><time>2026-05-01T10:37:08.79Z</time></trkpt><trkpt lat="43.6650062" lon="12.362344"><ele>612.3333333333334</ele><time>2026-05-01T10:37:09.792Z</time></trkpt><trkpt lat="43.6649773" lon="12.3622576"><ele>612.1666666666666</ele><time>2026-05-01T10:37:10.789Z</time></trkpt><trkpt lat="43.6649159" lon="12.3621118"><ele>612.0</ele><time>2026-05-01T10:37:12.783Z</time></trkpt><trkpt lat="43.664851" lon="12.3619841"><ele>612.0</ele><time>2026-05-01T10:37:14.785Z</time></trkpt><trkpt lat="43.6648216" lon="12.3619033"><ele>612.0</ele><time>2026-05-01T10:37:15.794Z</time></trkpt><trkpt lat="43.6647563" lon="12.3617735"><ele>612.0</ele><time>2026-05-01T10:37:17.786Z</time></trkpt><trkpt lat="43.6646913" lon="12.3616411"><ele>612.0</ele><time>2026-05-01T10:37:19.787Z</time></trkpt><trkpt lat="43.6646183" lon="12.3615215"><ele>612.0</ele><time>2026-05-01T10:37:21.79Z</time></trkpt><trkpt lat="43.6645426" lon="12.3614139"><ele>606.4</ele><time>2026-05-01T10:37:23.789Z</time></trkpt><trkpt lat="43.6644424" lon="12.361293"><ele>600.8000000000001</ele><time>2026-05-01T10:37:25.781Z</time></trkpt><trkpt lat="43.6643591" lon="12.361212"><ele>595.2</ele><time>2026-05-01T10:37:26.777Z</time></trkpt><trkpt lat="43.6642713" lon="12.3611318"><ele>589.6</ele><time>2026-05-01T10:37:27.79Z</time></trkpt><trkpt lat="43.6642005" lon="12.3610668"><ele>584.0</ele><time>2026-05-01T10:37:28.784Z</time></trkpt><trkpt lat="43.6641434" lon="12.3609987"><ele>584.0</ele><time>2026-05-01T10:37:29.794Z</time></trkpt><trkpt lat="43.6640979" lon="12.3609268"><ele>584.0</ele><time>2026-05-01T10:37:30.786Z</time></trkpt><trkpt lat="43.6640624" lon="12.3608368"><ele>584.0</ele><time>2026-05-01T10:37:31.794Z</time></trkpt><trkpt lat="43.6640482" lon="12.3607426"><ele>584.0</ele><time>2026-05-01T10:37:32.78Z</time></trkpt><trkpt lat="43.664051" lon="12.3606419"><ele>584.0</ele><time>2026-05-01T10:37:33.788Z</time></trkpt><trkpt lat="43.6640824" lon="12.3605199"><ele>584.0</ele><time>2026-05-01T10:37:34.781Z</time></trkpt><trkpt lat="43.6641159" lon="12.3604052"><ele>583.5</ele><time>2026-05-01T10:37:35.787Z</time></trkpt><trkpt lat="43.6641436" lon="12.3602935"><ele>583.0</ele><time>2026-05-01T10:37:36.786Z</time></trkpt><trkpt lat="43.6641654" lon="12.3601822"><ele>582.5</ele><time>2026-05-01T10:37:37.79Z</time></trkpt><trkpt lat="43.664175" lon="12.3600694"><ele>582.0</ele><time>2026-05-01T10:37:38.778Z</time></trkpt><trkpt lat="43.6641741" lon="12.3599467"><ele>581.5</ele><time>2026-05-01T10:37:39.789Z</time></trkpt><trkpt lat="43.6641556" lon="12.3598196"><ele>581.0</ele><time>2026-05-01T10:37:40.788Z</time></trkpt><trkpt lat="43.6641155" lon="12.3597066"><ele>581.3333333333333</ele><time>2026-05-01T10:37:41.793Z</time></trkpt><trkpt lat="43.6640548" lon="12.3596036"><ele>581.6666666666666</ele><time>2026-05-01T10:37:42.783Z</time></trkpt><trkpt lat="43.6639833" lon="12.3595028"><ele>582.0</ele><time>2026-05-01T10:37:43.788Z</time></trkpt><trkpt lat="43.6639139" lon="12.3594234"><ele>582.3333333333334</ele><time>2026-05-01T10:37:44.784Z</time></trkpt><trkpt lat="43.6638441" lon="12.3593647"><ele>582.6666666666667</ele><time>2026-05-01T10:37:45.789Z</time></trkpt><trkpt lat="43.6637789" lon="12.359306"><ele>583.0</ele><time>2026-05-01T10:37:46.782Z</time></trkpt><trkpt lat="43.6637041" lon="12.3592557"><ele>583.0</ele><time>2026-05-01T10:37:47.796Z</time></trkpt><trkpt lat="43.6636272" lon="12.3591927"><ele>583.0</ele><time>2026-05-01T10:37:48.777Z</time></trkpt><trkpt lat="43.6635582" lon="12.3591264"><ele>583.0</ele><time>2026-05-01T10:37:49.793Z</time></trkpt><trkpt lat="43.6635065" lon="12.3590514"><ele>583.0</ele><time>2026-05-01T10:37:50.782Z</time></trkpt><trkpt lat="43.6634552" lon="12.3589672"><ele>583.0</ele><time>2026-05-01T10:37:51.786Z</time></trkpt><trkpt lat="43.6634079" lon="12.3588852"><ele>583.0</ele><time>2026-05-01T10:37:52.789Z</time></trkpt><trkpt lat="43.6633615" lon="12.3587955"><ele>580.0</ele><time>2026-05-01T10:37:53.791Z</time></trkpt><trkpt lat="43.6633172" lon="12.3587043"><ele>577.0</ele><time>2026-05-01T10:37:54.784Z</time></trkpt><trkpt lat="43.6632806" lon="12.3586062"><ele>574.0</ele><time>2026-05-01T10:37:55.779Z</time></trkpt><trkpt lat="43.6632483" lon="12.3584966"><ele>571.0</ele><time>2026-05-01T10:37:56.789Z</time></trkpt><trkpt lat="43.663225" lon="12.3583833"><ele>568.0</ele><time>2026-05-01T10:37:57.793Z</time></trkpt><trkpt lat="43.6632277" lon="12.3582604"><ele>565.0</ele><time>2026-05-01T10:37:58.778Z</time></trkpt><trkpt lat="43.6632428" lon="12.3581318"><ele>563.2</ele><time>2026-05-01T10:37:59.783Z</time></trkpt><trkpt lat="43.6632661" lon="12.3580149"><ele>561.4</ele><time>2026-05-01T10:38:00.785Z</time></trkpt><trkpt lat="43.6632836" lon="12.3578799"><ele>559.6</ele><time>2026-05-01T10:38:01.789Z</time></trkpt><trkpt lat="43.6632949" lon="12.3577319"><ele>557.8</ele><time>2026-05-01T10:38:02.78Z</time></trkpt><trkpt lat="43.6633109" lon="12.3575773"><ele>556.0</ele><time>2026-05-01T10:38:03.792Z</time></trkpt><trkpt lat="43.6633223" lon="12.3574205"><ele>556.0</ele><time>2026-05-01T10:38:04.779Z</time></trkpt><trkpt lat="43.6633308" lon="12.3572874"><ele>556.0</ele><time>2026-05-01T10:38:05.788Z</time></trkpt><trkpt lat="43.6633485" lon="12.3571583"><ele>556.0</ele><time>2026-05-01T10:38:06.787Z</time></trkpt><trkpt lat="43.6633746" lon="12.3570254"><ele>556.0</ele><time>2026-05-01T10:38:07.785Z</time></trkpt><trkpt lat="43.6634083" lon="12.3568929"><ele>556.0</ele><time>2026-05-01T10:38:08.78Z</time></trkpt><trkpt lat="43.6634483" lon="12.3567592"><ele>554.4</ele><time>2026-05-01T10:38:09.784Z</time></trkpt><trkpt lat="43.6634977" lon="12.3566203"><ele>552.8</ele><time>2026-05-01T10:38:10.784Z</time></trkpt><trkpt lat="43.6635523" lon="12.3564819"><ele>551.1999999999999</ele><time>2026-05-01T10:38:11.792Z</time></trkpt><trkpt lat="43.6636032" lon="12.3563496"><ele>549.6</ele><time>2026-05-01T10:38:12.789Z</time></trkpt><trkpt lat="43.6636436" lon="12.3562108"><ele>548.0</ele><time>2026-05-01T10:38:13.792Z</time></trkpt><trkpt lat="43.6636777" lon="12.3560874"><ele>548.0</ele><time>2026-05-01T10:38:14.784Z</time></trkpt><trkpt lat="43.6637272" lon="12.3559867"><ele>548.0</ele><time>2026-05-01T10:38:15.803Z</time></trkpt><trkpt lat="43.6637923" lon="12.3558968"><ele>548.0</ele><time>2026-05-01T10:38:16.779Z</time></trkpt><trkpt lat="43.6638669" lon="12.3558234"><ele>548.0</ele><time>2026-05-01T10:38:17.796Z</time></trkpt><trkpt lat="43.6639409" lon="12.355766"><ele>548.0</ele><time>2026-05-01T10:38:18.79Z</time></trkpt><trkpt lat="43.6640089" lon="12.3557117"><ele>548.0</ele><time>2026-05-01T10:38:19.791Z</time></trkpt><trkpt lat="43.6640622" lon="12.3556335"><ele>545.0</ele><time>2026-05-01T10:38:20.787Z</time></trkpt><trkpt lat="43.6640956" lon="12.3555361"><ele>542.0</ele><time>2026-05-01T10:38:21.789Z</time></trkpt><trkpt lat="43.6640967" lon="12.3554156"><ele>539.0</ele><time>2026-05-01T10:38:22.787Z</time></trkpt><trkpt lat="43.6640827" lon="12.355274"><ele>536.0</ele><time>2026-05-01T10:38:23.788Z</time></trkpt><trkpt lat="43.6640644" lon="12.3551196"><ele>533.0</ele><time>2026-05-01T10:38:24.787Z</time></trkpt><trkpt lat="43.6640501" lon="12.3549775"><ele>533.0</ele><time>2026-05-01T10:38:25.788Z</time></trkpt><trkpt lat="43.6640499" lon="12.3548595"><ele>533.0</ele><time>2026-05-01T10:38:26.786Z</time></trkpt><trkpt lat="43.6640539" lon="12.3547584"><ele>533.0</ele><time>2026-05-01T10:38:27.788Z</time></trkpt><trkpt lat="43.6640976" lon="12.3545977"><ele>533.0</ele><time>2026-05-01T10:38:29.785Z</time></trkpt><trkpt lat="43.664152" lon="12.3545489"><ele>533.0</ele><time>2026-05-01T10:38:30.781Z</time></trkpt><trkpt lat="43.6642209" lon="12.3545445"><ele>533.0</ele><time>2026-05-01T10:38:31.794Z</time></trkpt><trkpt lat="43.6642892" lon="12.3545758"><ele>532.0</ele><time>2026-05-01T10:38:32.781Z</time></trkpt><trkpt lat="43.6643471" lon="12.3546286"><ele>531.0</ele><time>2026-05-01T10:38:33.789Z</time></trkpt><trkpt lat="43.6644528" lon="12.3546877"><ele>530.0</ele><time>2026-05-01T10:38:35.79Z</time></trkpt><trkpt lat="43.6645142" lon="12.3546457"><ele>529.0</ele><time>2026-05-01T10:38:36.801Z</time></trkpt><trkpt lat="43.6645597" lon="12.3545793"><ele>528.0</ele><time>2026-05-01T10:38:37.785Z</time></trkpt><trkpt lat="43.6646017" lon="12.3545012"><ele>527.0</ele><time>2026-05-01T10:38:38.793Z</time></trkpt><trkpt lat="43.664636" lon="12.354393"><ele>527.0</ele><time>2026-05-01T10:38:39.784Z</time></trkpt><trkpt lat="43.6646652" lon="12.3542724"><ele>527.0</ele><time>2026-05-01T10:38:40.779Z</time></trkpt><trkpt lat="43.6646875" lon="12.3541399"><ele>527.0</ele><time>2026-05-01T10:38:41.789Z</time></trkpt><trkpt lat="43.664705" lon="12.3540232"><ele>527.0</ele><time>2026-05-01T10:38:42.781Z</time></trkpt><trkpt lat="43.6647223" lon="12.3539184"><ele>527.0</ele><time>2026-05-01T10:38:43.796Z</time></trkpt><trkpt lat="43.6647341" lon="12.3538124"><ele>527.0</ele><time>2026-05-01T10:38:44.782Z</time></trkpt><trkpt lat="43.6647504" lon="12.353721"><ele>523.6666666666666</ele><time>2026-05-01T10:38:45.791Z</time></trkpt><trkpt lat="43.6648114" lon="12.3535856"><ele>520.3333333333333</ele><time>2026-05-01T10:38:47.793Z</time></trkpt><trkpt lat="43.664867" lon="12.3535412"><ele>517.0</ele><time>2026-05-01T10:38:48.782Z</time></trkpt><trkpt lat="43.6649316" lon="12.3535104"><ele>513.6666666666666</ele><time>2026-05-01T10:38:49.786Z</time></trkpt><trkpt lat="43.6650139" lon="12.3534972"><ele>510.3333333333333</ele><time>2026-05-01T10:38:50.784Z</time></trkpt><trkpt lat="43.665109" lon="12.353487"><ele>507.0</ele><time>2026-05-01T10:38:51.789Z</time></trkpt><trkpt lat="43.6651982" lon="12.3534751"><ele>508.8333333333333</ele><time>2026-05-01T10:38:52.796Z</time></trkpt><trkpt lat="43.6652825" lon="12.353451"><ele>510.66666666666663</ele><time>2026-05-01T10:38:53.79Z</time></trkpt><trkpt lat="43.6653628" lon="12.3534011"><ele>512.5</ele><time>2026-05-01T10:38:54.788Z</time></trkpt><trkpt lat="43.6654396" lon="12.3533325"><ele>514.3333333333333</ele><time>2026-05-01T10:38:55.807Z</time></trkpt><trkpt lat="43.665505" lon="12.3532709"><ele>516.1666666666666</ele><time>2026-05-01T10:38:56.787Z</time></trkpt><trkpt lat="43.6655587" lon="12.3532138"><ele>518.0</ele><time>2026-05-01T10:38:57.784Z</time></trkpt><trkpt lat="43.6655944" lon="12.3531372"><ele>516.8</ele><time>2026-05-01T10:38:58.784Z</time></trkpt><trkpt lat="43.6656033" lon="12.3530279"><ele>515.5999999999999</ele><time>2026-05-01T10:38:59.794Z</time></trkpt><trkpt lat="43.6655992" lon="12.3528716"><ele>514.4000000000001</ele><time>2026-05-01T10:39:00.788Z</time></trkpt><trkpt lat="43.6656008" lon="12.3527103"><ele>513.2</ele><time>2026-05-01T10:39:01.788Z</time></trkpt><trkpt lat="43.6656055" lon="12.3525637"><ele>512.0</ele><time>2026-05-01T10:39:02.781Z</time></trkpt><trkpt lat="43.6656218" lon="12.3524274"><ele>511.99999999999994</ele><time>2026-05-01T10:39:03.804Z</time></trkpt><trkpt lat="43.6656449" lon="12.3522976"><ele>512.0</ele><time>2026-05-01T10:39:04.788Z</time></trkpt><trkpt lat="43.665671" lon="12.3521722"><ele>512.0</ele><time>2026-05-01T10:39:05.789Z</time></trkpt><trkpt lat="43.6656789" lon="12.3520584"><ele>512.0</ele><time>2026-05-01T10:39:06.788Z</time></trkpt><trkpt lat="43.6656545" lon="12.3519591"><ele>511.99999999999994</ele><time>2026-05-01T10:39:07.793Z</time></trkpt><trkpt lat="43.6656091" lon="12.3518669"><ele>512.0</ele><time>2026-05-01T10:39:08.782Z</time></trkpt><trkpt lat="43.6655442" lon="12.3517863"><ele>512.2</ele><time>2026-05-01T10:39:09.798Z</time></trkpt><trkpt lat="43.6654573" lon="12.3517402"><ele>512.4000000000001</ele><time>2026-05-01T10:39:10.782Z</time></trkpt><trkpt lat="43.6653677" lon="12.3517342"><ele>512.5999999999999</ele><time>2026-05-01T10:39:11.816Z</time></trkpt><trkpt lat="43.6652712" lon="12.3517541"><ele>512.8</ele><time>2026-05-01T10:39:12.782Z</time></trkpt><trkpt lat="43.6651627" lon="12.3517948"><ele>513.0</ele><time>2026-05-01T10:39:13.793Z</time></trkpt><trkpt lat="43.6650438" lon="12.3518353"><ele>513.0</ele><time>2026-05-01T10:39:14.79Z</time></trkpt><trkpt lat="43.6649145" lon="12.3518805"><ele>513.0</ele><time>2026-05-01T10:39:15.805Z</time></trkpt><trkpt lat="43.664799" lon="12.3519158"><ele>513.0</ele><time>2026-05-01T10:39:16.807Z</time></trkpt><trkpt lat="43.6646871" lon="12.3519345"><ele>513.0</ele><time>2026-05-01T10:39:17.792Z</time></trkpt><trkpt lat="43.6645734" lon="12.3519387"><ele>513.0</ele><time>2026-05-01T10:39:18.813Z</time></trkpt><trkpt lat="43.6644591" lon="12.351915"><ele>513.0</ele><time>2026-05-01T10:39:19.816Z</time></trkpt><trkpt lat="43.6643405" lon="12.3518674"><ele>513.0</ele><time>2026-05-01T10:39:20.79Z</time></trkpt><trkpt lat="43.6642139" lon="12.3518174"><ele>513.0</ele><time>2026-05-01T10:39:21.797Z</time></trkpt><trkpt lat="43.6640864" lon="12.351788"><ele>517.0</ele><time>2026-05-01T10:39:22.785Z</time></trkpt><trkpt lat="43.6639586" lon="12.3518068"><ele>521.0</ele><time>2026-05-01T10:39:23.801Z</time></trkpt><trkpt lat="43.6638269" lon="12.3518535"><ele>525.0</ele><time>2026-05-01T10:39:24.783Z</time></trkpt><trkpt lat="43.6637097" lon="12.351891"><ele>529.0</ele><time>2026-05-01T10:39:25.79Z</time></trkpt><trkpt lat="43.663601" lon="12.3519123"><ele>532.5</ele><time>2026-05-01T10:39:26.783Z</time></trkpt><trkpt lat="43.6634917" lon="12.3519095"><ele>536.0</ele><time>2026-05-01T10:39:27.792Z</time></trkpt><trkpt lat="43.6633701" lon="12.3519082"><ele>539.5</ele><time>2026-05-01T10:39:28.782Z</time></trkpt><trkpt lat="43.6632359" lon="12.3519076"><ele>543.0</ele><time>2026-05-01T10:39:29.781Z</time></trkpt><trkpt lat="43.6631134" lon="12.3519068"><ele>543.0</ele><time>2026-05-01T10:39:30.793Z</time></trkpt><trkpt lat="43.6629933" lon="12.3518909"><ele>543.0</ele><time>2026-05-01T10:39:31.793Z</time></trkpt><trkpt lat="43.6628674" lon="12.3518628"><ele>543.0</ele><time>2026-05-01T10:39:32.789Z</time></trkpt><trkpt lat="43.6627402" lon="12.3518153"><ele>543.0</ele><time>2026-05-01T10:39:33.79Z</time></trkpt><trkpt lat="43.6626205" lon="12.3517495"><ele>541.4</ele><time>2026-05-01T10:39:34.789Z</time></trkpt><trkpt lat="43.6625179" lon="12.3516801"><ele>539.8</ele><time>2026-05-01T10:39:35.786Z</time></trkpt><trkpt lat="43.6624354" lon="12.351597"><ele>538.2</ele><time>2026-05-01T10:39:36.787Z</time></trkpt><trkpt lat="43.6623539" lon="12.3514977"><ele>536.6</ele><time>2026-05-01T10:39:37.795Z</time></trkpt><trkpt lat="43.6622718" lon="12.3513736"><ele>535.0</ele><time>2026-05-01T10:39:38.788Z</time></trkpt><trkpt lat="43.6621893" lon="12.351263"><ele>537.75</ele><time>2026-05-01T10:39:39.793Z</time></trkpt><trkpt lat="43.6620917" lon="12.3511807"><ele>540.5</ele><time>2026-05-01T10:39:40.796Z</time></trkpt><trkpt lat="43.6619734" lon="12.3511209"><ele>543.25</ele><time>2026-05-01T10:39:41.8Z</time></trkpt><trkpt lat="43.6618585" lon="12.3510901"><ele>546.0</ele><time>2026-05-01T10:39:42.797Z</time></trkpt><trkpt lat="43.6617394" lon="12.3510901"><ele>546.0</ele><time>2026-05-01T10:39:43.809Z</time></trkpt><trkpt lat="43.6616315" lon="12.3511004"><ele>546.0</ele><time>2026-05-01T10:39:44.788Z</time></trkpt><trkpt lat="43.6615377" lon="12.3511258"><ele>546.0</ele><time>2026-05-01T10:39:45.807Z</time></trkpt><trkpt lat="43.6614637" lon="12.3511802"><ele>546.0</ele><time>2026-05-01T10:39:46.796Z</time></trkpt><trkpt lat="43.6614241" lon="12.3512702"><ele>546.0</ele><time>2026-05-01T10:39:47.798Z</time></trkpt><trkpt lat="43.6614044" lon="12.3513858"><ele>542.4</ele><time>2026-05-01T10:39:48.784Z</time></trkpt><trkpt lat="43.661411" lon="12.351499"><ele>538.8</ele><time>2026-05-01T10:39:49.788Z</time></trkpt><trkpt lat="43.6614243" lon="12.3516208"><ele>535.1999999999999</ele><time>2026-05-01T10:39:50.792Z</time></trkpt><trkpt lat="43.6614309" lon="12.3517485"><ele>531.6</ele><time>2026-05-01T10:39:51.806Z</time></trkpt><trkpt lat="43.6614239" lon="12.3518832"><ele>528.0</ele><time>2026-05-01T10:39:52.791Z</time></trkpt><trkpt lat="43.6614031" lon="12.3520165"><ele>528.0</ele><time>2026-05-01T10:39:53.795Z</time></trkpt><trkpt lat="43.6613785" lon="12.3521278"><ele>528.0</ele><time>2026-05-01T10:39:54.79Z</time></trkpt><trkpt lat="43.6613798" lon="12.3522353"><ele>528.0</ele><time>2026-05-01T10:39:55.799Z</time></trkpt><trkpt lat="43.6614153" lon="12.3523281"><ele>528.0</ele><time>2026-05-01T10:39:56.803Z</time></trkpt><trkpt lat="43.6614677" lon="12.3524252"><ele>528.0</ele><time>2026-05-01T10:39:57.791Z</time></trkpt><trkpt lat="43.6615181" lon="12.352526"><ele>528.0</ele><time>2026-05-01T10:39:58.782Z</time></trkpt><trkpt lat="43.6615316" lon="12.3526172"><ele>526.6666666666666</ele><time>2026-05-01T10:39:59.798Z</time></trkpt><trkpt lat="43.6615046" lon="12.3527142"><ele>525.3333333333334</ele><time>2026-05-01T10:40:00.786Z</time></trkpt><trkpt lat="43.6614615" lon="12.3527904"><ele>524.0</ele><time>2026-05-01T10:40:01.788Z</time></trkpt><trkpt lat="43.6613868" lon="12.3528551"><ele>522.6666666666667</ele><time>2026-05-01T10:40:02.79Z</time></trkpt><trkpt lat="43.6613073" lon="12.3528915"><ele>521.3333333333334</ele><time>2026-05-01T10:40:03.795Z</time></trkpt><trkpt lat="43.6612102" lon="12.3529174"><ele>520.0</ele><time>2026-05-01T10:40:04.784Z</time></trkpt><trkpt lat="43.6611058" lon="12.3529478"><ele>521.25</ele><time>2026-05-01T10:40:05.804Z</time></trkpt><trkpt lat="43.660988" lon="12.3529929"><ele>522.5</ele><time>2026-05-01T10:40:06.796Z</time></trkpt><trkpt lat="43.6608728" lon="12.3530606"><ele>523.75</ele><time>2026-05-01T10:40:07.809Z</time></trkpt><trkpt lat="43.6607592" lon="12.3531337"><ele>525.0</ele><time>2026-05-01T10:40:08.785Z</time></trkpt><trkpt lat="43.6606591" lon="12.3532206"><ele>525.0</ele><time>2026-05-01T10:40:09.802Z</time></trkpt><trkpt lat="43.6605668" lon="12.353338"><ele>525.0</ele><time>2026-05-01T10:40:10.784Z</time></trkpt><trkpt lat="43.6604819" lon="12.3534744"><ele>525.0</ele><time>2026-05-01T10:40:11.807Z</time></trkpt><trkpt lat="43.6604008" lon="12.3536098"><ele>525.0</ele><time>2026-05-01T10:40:12.786Z</time></trkpt><trkpt lat="43.6603201" lon="12.3537244"><ele>524.0</ele><time>2026-05-01T10:40:13.801Z</time></trkpt><trkpt lat="43.660227" lon="12.3538205"><ele>523.0</ele><time>2026-05-01T10:40:14.797Z</time></trkpt><trkpt lat="43.6601249" lon="12.3539004"><ele>522.0</ele><time>2026-05-01T10:40:15.789Z</time></trkpt><trkpt lat="43.6600364" lon="12.3539879"><ele>521.0</ele><time>2026-05-01T10:40:16.787Z</time></trkpt><trkpt lat="43.659953" lon="12.3540807"><ele>520.0</ele><time>2026-05-01T10:40:17.799Z</time></trkpt><trkpt lat="43.6598571" lon="12.354161"><ele>520.0</ele><time>2026-05-01T10:40:18.787Z</time></trkpt><trkpt lat="43.6597498" lon="12.3542153"><ele>520.0</ele><time>2026-05-01T10:40:19.797Z</time></trkpt><trkpt lat="43.6596494" lon="12.3542538"><ele>520.0</ele><time>2026-05-01T10:40:20.785Z</time></trkpt><trkpt lat="43.6595666" lon="12.3543257"><ele>520.0</ele><time>2026-05-01T10:40:21.812Z</time></trkpt><trkpt lat="43.659499" lon="12.3544345"><ele>520.0</ele><time>2026-05-01T10:40:22.796Z</time></trkpt><trkpt lat="43.6594438" lon="12.3545314"><ele>520.75</ele><time>2026-05-01T10:40:23.795Z</time></trkpt><trkpt lat="43.6593676" lon="12.3546161"><ele>521.5</ele><time>2026-05-01T10:40:24.785Z</time></trkpt><trkpt lat="43.6592632" lon="12.3546624"><ele>522.25</ele><time>2026-05-01T10:40:25.809Z</time></trkpt><trkpt lat="43.6591447" lon="12.3546825"><ele>523.0</ele><time>2026-05-01T10:40:26.793Z</time></trkpt><trkpt lat="43.6590212" lon="12.3546964"><ele>523.0</ele><time>2026-05-01T10:40:27.792Z</time></trkpt><trkpt lat="43.6588794" lon="12.3547025"><ele>523.0</ele><time>2026-05-01T10:40:28.787Z</time></trkpt><trkpt lat="43.6587439" lon="12.3546997"><ele>523.0</ele><time>2026-05-01T10:40:29.814Z</time></trkpt><trkpt lat="43.6586131" lon="12.3546942"><ele>523.0</ele><time>2026-05-01T10:40:30.797Z</time></trkpt><trkpt lat="43.6584842" lon="12.3547103"><ele>518.25</ele><time>2026-05-01T10:40:31.788Z</time></trkpt><trkpt lat="43.6583641" lon="12.3547369"><ele>513.5</ele><time>2026-05-01T10:40:32.79Z</time></trkpt><trkpt lat="43.6582459" lon="12.3547611"><ele>508.75</ele><time>2026-05-01T10:40:33.807Z</time></trkpt><trkpt lat="43.6581269" lon="12.3547881"><ele>504.0</ele><time>2026-05-01T10:40:34.796Z</time></trkpt><trkpt lat="43.6580182" lon="12.3548507"><ele>504.0</ele><time>2026-05-01T10:40:35.797Z</time></trkpt><trkpt lat="43.657911" lon="12.3549433"><ele>504.0</ele><time>2026-05-01T10:40:36.797Z</time></trkpt><trkpt lat="43.6578118" lon="12.3550319"><ele>504.0</ele><time>2026-05-01T10:40:37.796Z</time></trkpt><trkpt lat="43.6577226" lon="12.3551041"><ele>504.0</ele><time>2026-05-01T10:40:38.783Z</time></trkpt><trkpt lat="43.6576329" lon="12.3551233"><ele>504.0</ele><time>2026-05-01T10:40:39.783Z</time></trkpt><trkpt lat="43.65752" lon="12.3551344"><ele>503.4</ele><time>2026-05-01T10:40:40.778Z</time></trkpt><trkpt lat="43.6573965" lon="12.3551265"><ele>502.79999999999995</ele><time>2026-05-01T10:40:41.779Z</time></trkpt><trkpt lat="43.6572829" lon="12.3551064"><ele>502.20000000000005</ele><time>2026-05-01T10:40:42.78Z</time></trkpt><trkpt lat="43.6571738" lon="12.3550798"><ele>501.6</ele><time>2026-05-01T10:40:43.797Z</time></trkpt><trkpt lat="43.6570775" lon="12.3550512"><ele>501.0</ele><time>2026-05-01T10:40:44.787Z</time></trkpt><trkpt lat="43.6569912" lon="12.3550267"><ele>500.6</ele><time>2026-05-01T10:40:45.788Z</time></trkpt><trkpt lat="43.6568924" lon="12.3549764"><ele>500.20000000000005</ele><time>2026-05-01T10:40:46.774Z</time></trkpt><trkpt lat="43.6568029" lon="12.3549085"><ele>499.79999999999995</ele><time>2026-05-01T10:40:47.803Z</time></trkpt><trkpt lat="43.6567278" lon="12.354828"><ele>499.4</ele><time>2026-05-01T10:40:48.792Z</time></trkpt><trkpt lat="43.6566815" lon="12.354731"><ele>499.0</ele><time>2026-05-01T10:40:49.783Z</time></trkpt><trkpt lat="43.656647" lon="12.3546073"><ele>499.0</ele><time>2026-05-01T10:40:50.783Z</time></trkpt><trkpt lat="43.6566171" lon="12.3544691"><ele>499.0</ele><time>2026-05-01T10:40:51.789Z</time></trkpt><trkpt lat="43.6565812" lon="12.3543344"><ele>499.0</ele><time>2026-05-01T10:40:52.786Z</time></trkpt><trkpt lat="43.6565324" lon="12.3542045"><ele>499.0</ele><time>2026-05-01T10:40:53.801Z</time></trkpt><trkpt lat="43.6564582" lon="12.3540663"><ele>499.0</ele><time>2026-05-01T10:40:54.802Z</time></trkpt><trkpt lat="43.6563739" lon="12.3539426"><ele>499.6666666666667</ele><time>2026-05-01T10:40:55.785Z</time></trkpt><trkpt lat="43.6562963" lon="12.353845"><ele>500.33333333333337</ele><time>2026-05-01T10:40:56.79Z</time></trkpt><trkpt lat="43.656221" lon="12.353774"><ele>501.0</ele><time>2026-05-01T10:40:57.8Z</time></trkpt><trkpt lat="43.656153" lon="12.3537279"><ele>501.66666666666663</ele><time>2026-05-01T10:40:58.788Z</time></trkpt><trkpt lat="43.6560699" lon="12.3537249"><ele>502.3333333333333</ele><time>2026-05-01T10:40:59.788Z</time></trkpt><trkpt lat="43.6559916" lon="12.3537419"><ele>503.0</ele><time>2026-05-01T10:41:00.793Z</time></trkpt><trkpt lat="43.6559128" lon="12.3537914"><ele>500.2</ele><time>2026-05-01T10:41:01.791Z</time></trkpt><trkpt lat="43.6558281" lon="12.3538827"><ele>497.4</ele><time>2026-05-01T10:41:02.78Z</time></trkpt><trkpt lat="43.655743" lon="12.3539999"><ele>494.59999999999997</ele><time>2026-05-01T10:41:03.795Z</time></trkpt><trkpt lat="43.6556656" lon="12.3541052"><ele>491.79999999999995</ele><time>2026-05-01T10:41:04.788Z</time></trkpt><trkpt lat="43.655607" lon="12.354181"><ele>489.0</ele><time>2026-05-01T10:41:05.809Z</time></trkpt><trkpt lat="43.6555162" lon="12.3542385"><ele>489.0</ele><time>2026-05-01T10:41:07.796Z</time></trkpt><trkpt lat="43.6554545" lon="12.3542109"><ele>489.0</ele><time>2026-05-01T10:41:08.789Z</time></trkpt><trkpt lat="43.6553984" lon="12.3541644"><ele>489.0</ele><time>2026-05-01T10:41:09.807Z</time></trkpt><trkpt lat="43.6553369" lon="12.354064"><ele>489.0</ele><time>2026-05-01T10:41:10.803Z</time></trkpt><trkpt lat="43.6552805" lon="12.3539345"><ele>489.0</ele><time>2026-05-01T10:41:11.804Z</time></trkpt><trkpt lat="43.6552193" lon="12.353804"><ele>489.0</ele><time>2026-05-01T10:41:12.792Z</time></trkpt><trkpt lat="43.6551549" lon="12.3536889"><ele>489.2</ele><time>2026-05-01T10:41:13.797Z</time></trkpt><trkpt lat="43.6550759" lon="12.3535897"><ele>489.4</ele><time>2026-05-01T10:41:14.781Z</time></trkpt><trkpt lat="43.65499" lon="12.3535143"><ele>489.6</ele><time>2026-05-01T10:41:15.792Z</time></trkpt><trkpt lat="43.6548945" lon="12.353475"><ele>489.8</ele><time>2026-05-01T10:41:16.78Z</time></trkpt><trkpt lat="43.6547964" lon="12.3534498"><ele>490.0</ele><time>2026-05-01T10:41:17.788Z</time></trkpt><trkpt lat="43.6547023" lon="12.3534552"><ele>490.00000000000006</ele><time>2026-05-01T10:41:18.795Z</time></trkpt><trkpt lat="43.6546071" lon="12.3534695"><ele>490.0</ele><time>2026-05-01T10:41:19.795Z</time></trkpt><trkpt lat="43.6545188" lon="12.3535037"><ele>490.0</ele><time>2026-05-01T10:41:20.792Z</time></trkpt><trkpt lat="43.6544439" lon="12.3535601"><ele>490.0</ele><time>2026-05-01T10:41:21.796Z</time></trkpt><trkpt lat="43.6543759" lon="12.3536359"><ele>490.00000000000006</ele><time>2026-05-01T10:41:22.786Z</time></trkpt><trkpt lat="43.654315" lon="12.3537262"><ele>490.0</ele><time>2026-05-01T10:41:23.799Z</time></trkpt><trkpt lat="43.6542669" lon="12.3538378"><ele>488.4</ele><time>2026-05-01T10:41:24.79Z</time></trkpt><trkpt lat="43.6542238" lon="12.3539562"><ele>486.8</ele><time>2026-05-01T10:41:25.785Z</time></trkpt><trkpt lat="43.6541779" lon="12.3540781"><ele>485.20000000000005</ele><time>2026-05-01T10:41:26.786Z</time></trkpt><trkpt lat="43.6541265" lon="12.3541931"><ele>483.6</ele><time>2026-05-01T10:41:27.793Z</time></trkpt><trkpt lat="43.6540758" lon="12.3543057"><ele>482.0</ele><time>2026-05-01T10:41:28.786Z</time></trkpt><trkpt lat="43.6540205" lon="12.354419"><ele>482.0</ele><time>2026-05-01T10:41:29.794Z</time></trkpt><trkpt lat="43.6539601" lon="12.3545222"><ele>482.00000000000006</ele><time>2026-05-01T10:41:30.78Z</time></trkpt><trkpt lat="43.653898" lon="12.3546234"><ele>482.00000000000006</ele><time>2026-05-01T10:41:31.792Z</time></trkpt><trkpt lat="43.6538365" lon="12.3547241"><ele>482.0</ele><time>2026-05-01T10:41:32.794Z</time></trkpt><trkpt lat="43.6537696" lon="12.3548306"><ele>482.0</ele><time>2026-05-01T10:41:33.798Z</time></trkpt><trkpt lat="43.6536936" lon="12.3549421"><ele>478.75</ele><time>2026-05-01T10:41:34.796Z</time></trkpt><trkpt lat="43.6536161" lon="12.3550539"><ele>475.5</ele><time>2026-05-01T10:41:35.791Z</time></trkpt><trkpt lat="43.6535361" lon="12.3551751"><ele>472.25</ele><time>2026-05-01T10:41:36.784Z</time></trkpt><trkpt lat="43.653462" lon="12.355297"><ele>469.0</ele><time>2026-05-01T10:41:37.79Z</time></trkpt><trkpt lat="43.6533825" lon="12.3554213"><ele>469.0</ele><time>2026-05-01T10:41:38.788Z</time></trkpt><trkpt lat="43.6533072" lon="12.3555366"><ele>469.0</ele><time>2026-05-01T10:41:39.788Z</time></trkpt><trkpt lat="43.6532371" lon="12.3556418"><ele>469.0</ele><time>2026-05-01T10:41:40.788Z</time></trkpt><trkpt lat="43.6531672" lon="12.3557293"><ele>469.0</ele><time>2026-05-01T10:41:41.794Z</time></trkpt><trkpt lat="43.653095" lon="12.3557982"><ele>469.0</ele><time>2026-05-01T10:41:42.785Z</time></trkpt><trkpt lat="43.6530217" lon="12.3558476"><ele>463.25</ele><time>2026-05-01T10:41:43.804Z</time></trkpt><trkpt lat="43.652941" lon="12.3558671"><ele>457.5</ele><time>2026-05-01T10:41:44.781Z</time></trkpt><trkpt lat="43.6528397" lon="12.3558551"><ele>451.75</ele><time>2026-05-01T10:41:45.798Z</time></trkpt><trkpt lat="43.6527149" lon="12.3558028"><ele>446.0</ele><time>2026-05-01T10:41:46.78Z</time></trkpt><trkpt lat="43.6525793" lon="12.3557467"><ele>445.75</ele><time>2026-05-01T10:41:47.787Z</time></trkpt><trkpt lat="43.6524379" lon="12.3556846"><ele>445.5</ele><time>2026-05-01T10:41:48.781Z</time></trkpt><trkpt lat="43.6523004" lon="12.3556258"><ele>445.25</ele><time>2026-05-01T10:41:49.793Z</time></trkpt><trkpt lat="43.6521658" lon="12.3555532"><ele>445.0</ele><time>2026-05-01T10:41:50.788Z</time></trkpt><trkpt lat="43.6520346" lon="12.3554683"><ele>445.75</ele><time>2026-05-01T10:41:51.788Z</time></trkpt><trkpt lat="43.6519073" lon="12.3553831"><ele>446.5</ele><time>2026-05-01T10:41:52.78Z</time></trkpt><trkpt lat="43.6517849" lon="12.355291"><ele>447.25</ele><time>2026-05-01T10:41:53.787Z</time></trkpt><trkpt lat="43.6516692" lon="12.3552162"><ele>448.0</ele><time>2026-05-01T10:41:54.789Z</time></trkpt><trkpt lat="43.6515533" lon="12.3551492"><ele>448.0</ele><time>2026-05-01T10:41:55.782Z</time></trkpt><trkpt lat="43.6514397" lon="12.3550992"><ele>448.0</ele><time>2026-05-01T10:41:56.781Z</time></trkpt><trkpt lat="43.6513253" lon="12.3550529"><ele>448.0</ele><time>2026-05-01T10:41:57.79Z</time></trkpt><trkpt lat="43.6512185" lon="12.3550139"><ele>448.0</ele><time>2026-05-01T10:41:58.789Z</time></trkpt><trkpt lat="43.6511215" lon="12.3549674"><ele>445.0</ele><time>2026-05-01T10:41:59.787Z</time></trkpt><trkpt lat="43.6510407" lon="12.3549016"><ele>441.99999999999994</ele><time>2026-05-01T10:42:00.784Z</time></trkpt><trkpt lat="43.6509792" lon="12.3548041"><ele>438.99999999999994</ele><time>2026-05-01T10:42:01.789Z</time></trkpt><trkpt lat="43.6509316" lon="12.3546892"><ele>436.0</ele><time>2026-05-01T10:42:02.775Z</time></trkpt><trkpt lat="43.650902" lon="12.3545459"><ele>433.0</ele><time>2026-05-01T10:42:03.788Z</time></trkpt><trkpt lat="43.6508783" lon="12.3543719"><ele>433.0</ele><time>2026-05-01T10:42:04.786Z</time></trkpt><trkpt lat="43.6508692" lon="12.3541674"><ele>433.0</ele><time>2026-05-01T10:42:05.792Z</time></trkpt><trkpt lat="43.6508532" lon="12.3539256"><ele>433.0</ele><time>2026-05-01T10:42:06.782Z</time></trkpt><trkpt lat="43.650835" lon="12.3536626"><ele>433.33333333333337</ele><time>2026-05-01T10:42:07.784Z</time></trkpt><trkpt lat="43.6508132" lon="12.3533965"><ele>433.66666666666663</ele><time>2026-05-01T10:42:08.788Z</time></trkpt><trkpt lat="43.6507895" lon="12.3531367"><ele>434.0</ele><time>2026-05-01T10:42:09.795Z</time></trkpt><trkpt lat="43.6507538" lon="12.3528643"><ele>434.0</ele><time>2026-05-01T10:42:10.781Z</time></trkpt><trkpt lat="43.6507125" lon="12.3525988"><ele>434.0</ele><time>2026-05-01T10:42:11.789Z</time></trkpt><trkpt lat="43.6506753" lon="12.3523535"><ele>434.0</ele><time>2026-05-01T10:42:12.78Z</time></trkpt><trkpt lat="43.6506458" lon="12.3521226"><ele>435.0</ele><time>2026-05-01T10:42:13.788Z</time></trkpt><trkpt lat="43.6506134" lon="12.3519246"><ele>436.0</ele><time>2026-05-01T10:42:14.779Z</time></trkpt><trkpt lat="43.6505849" lon="12.3517329"><ele>437.0</ele><time>2026-05-01T10:42:15.78Z</time></trkpt><trkpt lat="43.6505508" lon="12.3515444"><ele>438.0</ele><time>2026-05-01T10:42:16.78Z</time></trkpt><trkpt lat="43.650513" lon="12.351364"><ele>438.0</ele><time>2026-05-01T10:42:17.785Z</time></trkpt><trkpt lat="43.6504571" lon="12.3511855"><ele>438.0</ele><time>2026-05-01T10:42:18.787Z</time></trkpt><trkpt lat="43.6503908" lon="12.3509989"><ele>438.0</ele><time>2026-05-01T10:42:19.788Z</time></trkpt><trkpt lat="43.6503227" lon="12.3508191"><ele>438.0</ele><time>2026-05-01T10:42:20.787Z</time></trkpt><trkpt lat="43.6502493" lon="12.3506436"><ele>433.5</ele><time>2026-05-01T10:42:21.784Z</time></trkpt><trkpt lat="43.6501755" lon="12.3504806"><ele>429.0</ele><time>2026-05-01T10:42:22.785Z</time></trkpt><trkpt lat="43.6500991" lon="12.3503293"><ele>424.5</ele><time>2026-05-01T10:42:23.795Z</time></trkpt><trkpt lat="43.6500088" lon="12.3501874"><ele>420.0</ele><time>2026-05-01T10:42:24.788Z</time></trkpt><trkpt lat="43.6499059" lon="12.3500706"><ele>420.0</ele><time>2026-05-01T10:42:25.787Z</time></trkpt><trkpt lat="43.6497906" lon="12.3499772"><ele>420.0</ele><time>2026-05-01T10:42:26.786Z</time></trkpt><trkpt lat="43.6496728" lon="12.3499032"><ele>420.0</ele><time>2026-05-01T10:42:27.787Z</time></trkpt><trkpt lat="43.6495632" lon="12.3498417"><ele>420.0</ele><time>2026-05-01T10:42:28.779Z</time></trkpt><trkpt lat="43.6494722" lon="12.3497764"><ele>417.6</ele><time>2026-05-01T10:42:29.79Z</time></trkpt><trkpt lat="43.6493987" lon="12.3496975"><ele>415.2</ele><time>2026-05-01T10:42:30.785Z</time></trkpt><trkpt lat="43.6493346" lon="12.3496007"><ele>412.79999999999995</ele><time>2026-05-01T10:42:31.785Z</time></trkpt><trkpt lat="43.6492784" lon="12.3494665"><ele>410.4</ele><time>2026-05-01T10:42:32.782Z</time></trkpt><trkpt lat="43.6492172" lon="12.3493002"><ele>408.0</ele><time>2026-05-01T10:42:33.784Z</time></trkpt><trkpt lat="43.6491597" lon="12.349106"><ele>408.0</ele><time>2026-05-01T10:42:34.786Z</time></trkpt><trkpt lat="43.6491033" lon="12.3488772"><ele>408.0</ele><time>2026-05-01T10:42:35.789Z</time></trkpt><trkpt lat="43.6490393" lon="12.3486399"><ele>408.0</ele><time>2026-05-01T10:42:36.786Z</time></trkpt><trkpt lat="43.6489754" lon="12.3484029"><ele>409.66666666666663</ele><time>2026-05-01T10:42:37.792Z</time></trkpt><trkpt lat="43.6489144" lon="12.3481896"><ele>411.3333333333333</ele><time>2026-05-01T10:42:38.791Z</time></trkpt><trkpt lat="43.648865" lon="12.3479789"><ele>413.0</ele><time>2026-05-01T10:42:39.795Z</time></trkpt><trkpt lat="43.6488267" lon="12.3477458"><ele>414.66666666666663</ele><time>2026-05-01T10:42:40.791Z</time></trkpt><trkpt lat="43.6487978" lon="12.3474893"><ele>416.33333333333337</ele><time>2026-05-01T10:42:41.799Z</time></trkpt><trkpt lat="43.6487807" lon="12.3472276"><ele>418.0</ele><time>2026-05-01T10:42:42.789Z</time></trkpt><trkpt lat="43.648754" lon="12.3469812"><ele>418.75</ele><time>2026-05-01T10:42:43.803Z</time></trkpt><trkpt lat="43.6487256" lon="12.3467582"><ele>419.5</ele><time>2026-05-01T10:42:44.791Z</time></trkpt><trkpt lat="43.6486939" lon="12.3465635"><ele>420.25</ele><time>2026-05-01T10:42:45.798Z</time></trkpt><trkpt lat="43.6486672" lon="12.3463946"><ele>421.0</ele><time>2026-05-01T10:42:46.788Z</time></trkpt><trkpt lat="43.6486499" lon="12.3462453"><ele>421.0</ele><time>2026-05-01T10:42:47.798Z</time></trkpt><trkpt lat="43.6486363" lon="12.3461092"><ele>421.0</ele><time>2026-05-01T10:42:48.791Z</time></trkpt><trkpt lat="43.6486294" lon="12.3459716"><ele>421.0</ele><time>2026-05-01T10:42:49.792Z</time></trkpt><trkpt lat="43.648621" lon="12.3458083"><ele>421.0</ele><time>2026-05-01T10:42:50.799Z</time></trkpt><trkpt lat="43.6486214" lon="12.3456181"><ele>421.0</ele><time>2026-05-01T10:42:51.799Z</time></trkpt><trkpt lat="43.6486347" lon="12.345439"><ele>421.0</ele><time>2026-05-01T10:42:52.799Z</time></trkpt><trkpt lat="43.6486578" lon="12.3452912"><ele>421.0</ele><time>2026-05-01T10:42:53.806Z</time></trkpt><trkpt lat="43.6486839" lon="12.3451563"><ele>421.0</ele><time>2026-05-01T10:42:54.801Z</time></trkpt><trkpt lat="43.6486866" lon="12.3450276"><ele>421.0</ele><time>2026-05-01T10:42:55.792Z</time></trkpt><trkpt lat="43.6486526" lon="12.3449035"><ele>417.0</ele><time>2026-05-01T10:42:56.794Z</time></trkpt><trkpt lat="43.6485992" lon="12.3448034"><ele>413.0</ele><time>2026-05-01T10:42:57.808Z</time></trkpt><trkpt lat="43.6485138" lon="12.3447194"><ele>409.0</ele><time>2026-05-01T10:42:58.794Z</time></trkpt><trkpt lat="43.6484029" lon="12.3446641"><ele>405.0</ele><time>2026-05-01T10:42:59.797Z</time></trkpt><trkpt lat="43.6482663" lon="12.3445935"><ele>404.75</ele><time>2026-05-01T10:43:00.812Z</time></trkpt><trkpt lat="43.6481307" lon="12.3445192"><ele>404.5</ele><time>2026-05-01T10:43:01.802Z</time></trkpt><trkpt lat="43.6480129" lon="12.3444564"><ele>404.25</ele><time>2026-05-01T10:43:02.788Z</time></trkpt><trkpt lat="43.6479056" lon="12.3444074"><ele>404.0</ele><time>2026-05-01T10:43:03.814Z</time></trkpt><trkpt lat="43.6478193" lon="12.3443627"><ele>404.99999999999994</ele><time>2026-05-01T10:43:04.798Z</time></trkpt><trkpt lat="43.6477357" lon="12.3443186"><ele>406.0</ele><time>2026-05-01T10:43:05.803Z</time></trkpt><trkpt lat="43.6476627" lon="12.3442655"><ele>407.0</ele><time>2026-05-01T10:43:06.792Z</time></trkpt><trkpt lat="43.64761" lon="12.3441992"><ele>408.0</ele><time>2026-05-01T10:43:07.801Z</time></trkpt><trkpt lat="43.6475953" lon="12.3440416"><ele>408.99999999999994</ele><time>2026-05-01T10:43:09.801Z</time></trkpt><trkpt lat="43.6476276" lon="12.3439611"><ele>410.0</ele><time>2026-05-01T10:43:10.789Z</time></trkpt><trkpt lat="43.6476745" lon="12.3438696"><ele>410.0</ele><time>2026-05-01T10:43:11.792Z</time></trkpt><trkpt lat="43.6477245" lon="12.3437668"><ele>410.0</ele><time>2026-05-01T10:43:12.784Z</time></trkpt><trkpt lat="43.6477559" lon="12.343621"><ele>410.0</ele><time>2026-05-01T10:43:13.795Z</time></trkpt><trkpt lat="43.6477771" lon="12.3434581"><ele>410.0</ele><time>2026-05-01T10:43:14.789Z</time></trkpt><trkpt lat="43.6477944" lon="12.343294"><ele>410.0</ele><time>2026-05-01T10:43:15.797Z</time></trkpt><trkpt lat="43.6478009" lon="12.3431441"><ele>410.0</ele><time>2026-05-01T10:43:16.792Z</time></trkpt><trkpt lat="43.6478012" lon="12.3430099"><ele>410.0</ele><time>2026-05-01T10:43:17.799Z</time></trkpt><trkpt lat="43.6477963" lon="12.3428853"><ele>410.0</ele><time>2026-05-01T10:43:18.793Z</time></trkpt><trkpt lat="43.64779" lon="12.3427504"><ele>410.0</ele><time>2026-05-01T10:43:19.791Z</time></trkpt><trkpt lat="43.6477817" lon="12.3425995"><ele>410.0</ele><time>2026-05-01T10:43:20.784Z</time></trkpt><trkpt lat="43.6477771" lon="12.3424428"><ele>410.0</ele><time>2026-05-01T10:43:21.793Z</time></trkpt><trkpt lat="43.6477695" lon="12.3422709"><ele>410.0</ele><time>2026-05-01T10:43:22.787Z</time></trkpt><trkpt lat="43.6477647" lon="12.3420909"><ele>410.0</ele><time>2026-05-01T10:43:23.796Z</time></trkpt><trkpt lat="43.6477562" lon="12.3418998"><ele>410.0</ele><time>2026-05-01T10:43:24.787Z</time></trkpt><trkpt lat="43.6477504" lon="12.3417036"><ele>409.0</ele><time>2026-05-01T10:43:25.8Z</time></trkpt><trkpt lat="43.6477435" lon="12.3415013"><ele>408.0</ele><time>2026-05-01T10:43:26.786Z</time></trkpt><trkpt lat="43.6477361" lon="12.3412911"><ele>407.0</ele><time>2026-05-01T10:43:27.796Z</time></trkpt><trkpt lat="43.6477313" lon="12.3410758"><ele>407.0</ele><time>2026-05-01T10:43:28.798Z</time></trkpt><trkpt lat="43.647726" lon="12.3408582"><ele>407.0</ele><time>2026-05-01T10:43:29.794Z</time></trkpt><trkpt lat="43.6477157" lon="12.340639"><ele>407.0</ele><time>2026-05-01T10:43:30.791Z</time></trkpt><trkpt lat="43.6477065" lon="12.3404204"><ele>408.0</ele><time>2026-05-01T10:43:31.81Z</time></trkpt><trkpt lat="43.6476946" lon="12.3402027"><ele>409.0</ele><time>2026-05-01T10:43:32.799Z</time></trkpt><trkpt lat="43.6476751" lon="12.3399908"><ele>410.0</ele><time>2026-05-01T10:43:33.8Z</time></trkpt><trkpt lat="43.6476469" lon="12.3397684"><ele>411.3333333333333</ele><time>2026-05-01T10:43:34.796Z</time></trkpt><trkpt lat="43.6476031" lon="12.3395467"><ele>412.66666666666663</ele><time>2026-05-01T10:43:35.803Z</time></trkpt><trkpt lat="43.6475425" lon="12.3393295"><ele>414.0</ele><time>2026-05-01T10:43:36.792Z</time></trkpt><trkpt lat="43.6474733" lon="12.3391237"><ele>414.0</ele><time>2026-05-01T10:43:37.794Z</time></trkpt><trkpt lat="43.6474009" lon="12.3389344"><ele>414.0</ele><time>2026-05-01T10:43:38.794Z</time></trkpt><trkpt lat="43.6473293" lon="12.3387657"><ele>414.0</ele><time>2026-05-01T10:43:39.797Z</time></trkpt><trkpt lat="43.6472516" lon="12.3386216"><ele>414.0</ele><time>2026-05-01T10:43:40.793Z</time></trkpt><trkpt lat="43.6471742" lon="12.3384926"><ele>415.0</ele><time>2026-05-01T10:43:41.796Z</time></trkpt><trkpt lat="43.6470958" lon="12.3383755"><ele>416.0</ele><time>2026-05-01T10:43:42.798Z</time></trkpt><trkpt lat="43.6470053" lon="12.3382579"><ele>417.0</ele><time>2026-05-01T10:43:43.796Z</time></trkpt><trkpt lat="43.6469007" lon="12.33814"><ele>418.0</ele><time>2026-05-01T10:43:44.794Z</time></trkpt><trkpt lat="43.6467911" lon="12.3380166"><ele>420.0</ele><time>2026-05-01T10:43:45.794Z</time></trkpt><trkpt lat="43.6466788" lon="12.3379142"><ele>422.0</ele><time>2026-05-01T10:43:46.812Z</time></trkpt><trkpt lat="43.6465786" lon="12.3378343"><ele>424.0</ele><time>2026-05-01T10:43:47.793Z</time></trkpt><trkpt lat="43.6464812" lon="12.3377651"><ele>426.0</ele><time>2026-05-01T10:43:48.805Z</time></trkpt><trkpt lat="43.6463898" lon="12.3376958"><ele>426.0</ele><time>2026-05-01T10:43:49.784Z</time></trkpt><trkpt lat="43.6463029" lon="12.337636"><ele>426.0</ele><time>2026-05-01T10:43:50.786Z</time></trkpt><trkpt lat="43.6462164" lon="12.337573"><ele>426.0</ele><time>2026-05-01T10:43:51.797Z</time></trkpt><trkpt lat="43.6461296" lon="12.3375161"><ele>426.0</ele><time>2026-05-01T10:43:52.799Z</time></trkpt><trkpt lat="43.6460407" lon="12.3374475"><ele>426.0</ele><time>2026-05-01T10:43:53.812Z</time></trkpt><trkpt lat="43.6459549" lon="12.3373555"><ele>425.8</ele><time>2026-05-01T10:43:54.798Z</time></trkpt><trkpt lat="43.6458801" lon="12.3372561"><ele>425.6</ele><time>2026-05-01T10:43:55.799Z</time></trkpt><trkpt lat="43.645823" lon="12.3371545"><ele>425.4</ele><time>2026-05-01T10:43:56.803Z</time></trkpt><trkpt lat="43.645779" lon="12.3370422"><ele>425.2</ele><time>2026-05-01T10:43:57.803Z</time></trkpt><trkpt lat="43.6457426" lon="12.3369339"><ele>425.0</ele><time>2026-05-01T10:43:58.789Z</time></trkpt><trkpt lat="43.6457141" lon="12.336815"><ele>425.0</ele><time>2026-05-01T10:43:59.807Z</time></trkpt><trkpt lat="43.6456959" lon="12.3366911"><ele>425.0</ele><time>2026-05-01T10:44:00.808Z</time></trkpt><trkpt lat="43.6456823" lon="12.3365662"><ele>425.0</ele><time>2026-05-01T10:44:01.803Z</time></trkpt><trkpt lat="43.6456707" lon="12.3364404"><ele>425.0</ele><time>2026-05-01T10:44:02.796Z</time></trkpt><trkpt lat="43.6456615" lon="12.336313"><ele>425.0</ele><time>2026-05-01T10:44:03.804Z</time></trkpt><trkpt lat="43.6456586" lon="12.336183"><ele>425.49999999999994</ele><time>2026-05-01T10:44:04.807Z</time></trkpt><trkpt lat="43.6456555" lon="12.3360505"><ele>426.0</ele><time>2026-05-01T10:44:05.807Z</time></trkpt><trkpt lat="43.6456604" lon="12.3359317"><ele>426.5</ele><time>2026-05-01T10:44:06.791Z</time></trkpt><trkpt lat="43.6456735" lon="12.3358204"><ele>427.0</ele><time>2026-05-01T10:44:07.79Z</time></trkpt><trkpt lat="43.6456892" lon="12.3357052"><ele>427.49999999999994</ele><time>2026-05-01T10:44:08.796Z</time></trkpt><trkpt lat="43.6457195" lon="12.3355788"><ele>428.0</ele><time>2026-05-01T10:44:09.801Z</time></trkpt><trkpt lat="43.6457508" lon="12.3354631"><ele>428.0</ele><time>2026-05-01T10:44:10.796Z</time></trkpt><trkpt lat="43.6457766" lon="12.3353702"><ele>427.99999999999994</ele><time>2026-05-01T10:44:11.797Z</time></trkpt><trkpt lat="43.6458177" lon="12.3352361"><ele>427.99999999999994</ele><time>2026-05-01T10:44:13.795Z</time></trkpt><trkpt lat="43.6457434" lon="12.3352543"><ele>428.0</ele><time>2026-05-01T10:44:17.787Z</time></trkpt><trkpt lat="43.6457098" lon="12.335423"><ele>428.0</ele><time>2026-05-01T10:44:19.789Z</time></trkpt><trkpt lat="43.6456967" lon="12.3355736"><ele>428.0</ele><time>2026-05-01T10:44:20.781Z</time></trkpt><trkpt lat="43.6456653" lon="12.3357476"><ele>428.0</ele><time>2026-05-01T10:44:21.801Z</time></trkpt><trkpt lat="43.6456389" lon="12.3359254"><ele>428.0</ele><time>2026-05-01T10:44:22.787Z</time></trkpt><trkpt lat="43.6456293" lon="12.3360778"><ele>428.0</ele><time>2026-05-01T10:44:23.796Z</time></trkpt><trkpt lat="43.645631" lon="12.3362142"><ele>428.0</ele><time>2026-05-01T10:44:24.793Z</time></trkpt><trkpt lat="43.6456422" lon="12.3363274"><ele>427.99999999999994</ele><time>2026-05-01T10:44:25.801Z</time></trkpt><trkpt lat="43.6456494" lon="12.3364195"><ele>427.99999999999994</ele><time>2026-05-01T10:44:26.784Z</time></trkpt><trkpt lat="43.6456213" lon="12.3365329"><ele>428.0</ele><time>2026-05-01T10:44:28.802Z</time></trkpt><trkpt lat="43.6455195" lon="12.336567"><ele>428.0</ele><time>2026-05-01T10:44:30.795Z</time></trkpt><trkpt lat="43.645392" lon="12.3366087"><ele>427.4</ele><time>2026-05-01T10:44:32.801Z</time></trkpt><trkpt lat="43.6453276" lon="12.336622"><ele>426.79999999999995</ele><time>2026-05-01T10:44:33.805Z</time></trkpt><trkpt lat="43.6452065" lon="12.3366327"><ele>426.2</ele><time>2026-05-01T10:44:35.804Z</time></trkpt><trkpt lat="43.6451421" lon="12.3366448"><ele>425.6</ele><time>2026-05-01T10:44:36.803Z</time></trkpt><trkpt lat="43.6450212" lon="12.3366386"><ele>425.0</ele><time>2026-05-01T10:44:38.811Z</time></trkpt><trkpt lat="43.6449455" lon="12.3366179"><ele>424.99999999999994</ele><time>2026-05-01T10:44:39.81Z</time></trkpt><trkpt lat="43.6448593" lon="12.336592"><ele>425.0</ele><time>2026-05-01T10:44:40.798Z</time></trkpt><trkpt lat="43.6447779" lon="12.3365552"><ele>425.0</ele><time>2026-05-01T10:44:41.812Z</time></trkpt><trkpt lat="43.6447092" lon="12.3365153"><ele>425.0</ele><time>2026-05-01T10:44:42.804Z</time></trkpt><trkpt lat="43.6446419" lon="12.3364468"><ele>424.99999999999994</ele><time>2026-05-01T10:44:43.797Z</time></trkpt><trkpt lat="43.6445762" lon="12.3363751"><ele>425.0</ele><time>2026-05-01T10:44:44.79Z</time></trkpt><trkpt lat="43.6445214" lon="12.336319"><ele>424.8333333333333</ele><time>2026-05-01T10:44:45.796Z</time></trkpt><trkpt lat="43.6444355" lon="12.3362773"><ele>424.66666666666663</ele><time>2026-05-01T10:44:47.802Z</time></trkpt><trkpt lat="43.6443257" lon="12.3362797"><ele>424.5</ele><time>2026-05-01T10:44:49.799Z</time></trkpt><trkpt lat="43.6442618" lon="12.3363184"><ele>424.33333333333337</ele><time>2026-05-01T10:44:50.793Z</time></trkpt><trkpt lat="43.6441983" lon="12.3363855"><ele>424.1666666666667</ele><time>2026-05-01T10:44:51.796Z</time></trkpt><trkpt lat="43.6441346" lon="12.3364783"><ele>424.0</ele><time>2026-05-01T10:44:52.799Z</time></trkpt><trkpt lat="43.644077" lon="12.3365886"><ele>424.0</ele><time>2026-05-01T10:44:53.803Z</time></trkpt><trkpt lat="43.6440197" lon="12.3366941"><ele>424.0</ele><time>2026-05-01T10:44:54.775Z</time></trkpt><trkpt lat="43.6439514" lon="12.3368019"><ele>424.0</ele><time>2026-05-01T10:44:55.795Z</time></trkpt><trkpt lat="43.6438689" lon="12.3368955"><ele>424.0</ele><time>2026-05-01T10:44:56.81Z</time></trkpt><trkpt lat="43.6437833" lon="12.3369763"><ele>424.0</ele><time>2026-05-01T10:44:57.82Z</time></trkpt><trkpt lat="43.643691" lon="12.3370482"><ele>425.00000000000006</ele><time>2026-05-01T10:44:58.797Z</time></trkpt><trkpt lat="43.6435991" lon="12.3371069"><ele>426.0</ele><time>2026-05-01T10:44:59.804Z</time></trkpt><trkpt lat="43.6435119" lon="12.3371441"><ele>427.0</ele><time>2026-05-01T10:45:00.792Z</time></trkpt><trkpt lat="43.6434468" lon="12.3371819"><ele>428.0</ele><time>2026-05-01T10:45:01.776Z</time></trkpt><trkpt lat="43.6433969" lon="12.3372437"><ele>429.00000000000006</ele><time>2026-05-01T10:45:02.812Z</time></trkpt><trkpt lat="43.6433583" lon="12.3373337"><ele>430.0</ele><time>2026-05-01T10:45:03.798Z</time></trkpt><trkpt lat="43.6433291" lon="12.3374379"><ele>431.0</ele><time>2026-05-01T10:45:04.799Z</time></trkpt><trkpt lat="43.6432829" lon="12.3375508"><ele>432.0</ele><time>2026-05-01T10:45:05.809Z</time></trkpt><trkpt lat="43.6432241" lon="12.3376626"><ele>433.0</ele><time>2026-05-01T10:45:06.799Z</time></trkpt><trkpt lat="43.6431463" lon="12.3377515"><ele>434.0</ele><time>2026-05-01T10:45:07.794Z</time></trkpt><trkpt lat="43.6430483" lon="12.33781"><ele>435.0</ele><time>2026-05-01T10:45:08.827Z</time></trkpt><trkpt lat="43.6429455" lon="12.3378616"><ele>435.0</ele><time>2026-05-01T10:45:09.811Z</time></trkpt><trkpt lat="43.6428493" lon="12.3379133"><ele>435.0</ele><time>2026-05-01T10:45:10.818Z</time></trkpt><trkpt lat="43.6427775" lon="12.3379779"><ele>435.0</ele><time>2026-05-01T10:45:11.797Z</time></trkpt><trkpt lat="43.6427203" lon="12.338048"><ele>435.0</ele><time>2026-05-01T10:45:12.792Z</time></trkpt><trkpt lat="43.6426501" lon="12.3381398"><ele>435.0</ele><time>2026-05-01T10:45:13.799Z</time></trkpt><trkpt lat="43.6425756" lon="12.3382589"><ele>438.5</ele><time>2026-05-01T10:45:14.809Z</time></trkpt><trkpt lat="43.6425059" lon="12.3383998"><ele>442.0</ele><time>2026-05-01T10:45:15.807Z</time></trkpt><trkpt lat="43.6424303" lon="12.3385516"><ele>445.5</ele><time>2026-05-01T10:45:16.788Z</time></trkpt><trkpt lat="43.6423513" lon="12.3386867"><ele>449.0</ele><time>2026-05-01T10:45:17.795Z</time></trkpt><trkpt lat="43.6422949" lon="12.3387879"><ele>448.99999999999994</ele><time>2026-05-01T10:45:18.803Z</time></trkpt><trkpt lat="43.6422393" lon="12.3388693"><ele>449.0</ele><time>2026-05-01T10:45:19.786Z</time></trkpt><trkpt lat="43.6421722" lon="12.3389463"><ele>449.0</ele><time>2026-05-01T10:45:20.802Z</time></trkpt><trkpt lat="43.6421101" lon="12.339024"><ele>449.0</ele><time>2026-05-01T10:45:21.801Z</time></trkpt><trkpt lat="43.6420569" lon="12.3390862"><ele>448.99999999999994</ele><time>2026-05-01T10:45:22.809Z</time></trkpt><trkpt lat="43.6419789" lon="12.3391559"><ele>449.0</ele><time>2026-05-01T10:45:24.823Z</time></trkpt><trkpt lat="43.6418715" lon="12.3391184"><ele>449.79999999999995</ele><time>2026-05-01T10:45:26.781Z</time></trkpt><trkpt lat="43.6417907" lon="12.3390867"><ele>450.59999999999997</ele><time>2026-05-01T10:45:27.808Z</time></trkpt><trkpt lat="43.6416838" lon="12.3390316"><ele>451.4</ele><time>2026-05-01T10:45:28.792Z</time></trkpt><trkpt lat="43.6415685" lon="12.3389787"><ele>452.2</ele><time>2026-05-01T10:45:29.793Z</time></trkpt><trkpt lat="43.6414448" lon="12.3389302"><ele>453.0</ele><time>2026-05-01T10:45:30.789Z</time></trkpt><trkpt lat="43.6413355" lon="12.3388823"><ele>453.0</ele><time>2026-05-01T10:45:31.798Z</time></trkpt><trkpt lat="43.6412218" lon="12.3388215"><ele>453.0</ele><time>2026-05-01T10:45:32.794Z</time></trkpt><trkpt lat="43.6411103" lon="12.338766"><ele>453.0</ele><time>2026-05-01T10:45:33.801Z</time></trkpt><trkpt lat="43.6410021" lon="12.338711"><ele>453.0</ele><time>2026-05-01T10:45:34.794Z</time></trkpt><trkpt lat="43.6408925" lon="12.33865"><ele>455.5</ele><time>2026-05-01T10:45:35.79Z</time></trkpt><trkpt lat="43.6407716" lon="12.3385957"><ele>458.0</ele><time>2026-05-01T10:45:36.799Z</time></trkpt><trkpt lat="43.6406447" lon="12.338547"><ele>460.5</ele><time>2026-05-01T10:45:37.791Z</time></trkpt><trkpt lat="43.6405123" lon="12.338507"><ele>463.0</ele><time>2026-05-01T10:45:38.788Z</time></trkpt><trkpt lat="43.640383" lon="12.3384752"><ele>465.0</ele><time>2026-05-01T10:45:39.788Z</time></trkpt><trkpt lat="43.6402534" lon="12.3384575"><ele>467.0</ele><time>2026-05-01T10:45:40.796Z</time></trkpt><trkpt lat="43.6401218" lon="12.3384329"><ele>469.0</ele><time>2026-05-01T10:45:41.794Z</time></trkpt><trkpt lat="43.6399832" lon="12.3384088"><ele>471.0</ele><time>2026-05-01T10:45:42.791Z</time></trkpt><trkpt lat="43.6398453" lon="12.3383864"><ele>471.0</ele><time>2026-05-01T10:45:43.785Z</time></trkpt><trkpt lat="43.6397171" lon="12.3383697"><ele>471.0</ele><time>2026-05-01T10:45:44.791Z</time></trkpt><trkpt lat="43.6395983" lon="12.3383626"><ele>471.0</ele><time>2026-05-01T10:45:45.789Z</time></trkpt><trkpt lat="43.6394742" lon="12.3383648"><ele>471.0</ele><time>2026-05-01T10:45:46.781Z</time></trkpt><trkpt lat="43.6393463" lon="12.3383833"><ele>473.0</ele><time>2026-05-01T10:45:47.788Z</time></trkpt><trkpt lat="43.6392092" lon="12.3384151"><ele>475.0</ele><time>2026-05-01T10:45:48.789Z</time></trkpt><trkpt lat="43.6390673" lon="12.3384713"><ele>477.0</ele><time>2026-05-01T10:45:49.794Z</time></trkpt><trkpt lat="43.6389237" lon="12.3385245"><ele>479.0</ele><time>2026-05-01T10:45:50.784Z</time></trkpt><trkpt lat="43.638783" lon="12.3385723"><ele>479.0</ele><time>2026-05-01T10:45:51.781Z</time></trkpt><trkpt lat="43.6386567" lon="12.3386121"><ele>479.0</ele><time>2026-05-01T10:45:52.785Z</time></trkpt><trkpt lat="43.6385396" lon="12.3386441"><ele>479.0</ele><time>2026-05-01T10:45:53.793Z</time></trkpt><trkpt lat="43.6384314" lon="12.3386671"><ele>479.0</ele><time>2026-05-01T10:45:54.785Z</time></trkpt><trkpt lat="43.638324" lon="12.3386833"><ele>479.66666666666663</ele><time>2026-05-01T10:45:55.793Z</time></trkpt><trkpt lat="43.6382216" lon="12.3386765"><ele>480.3333333333333</ele><time>2026-05-01T10:45:56.782Z</time></trkpt><trkpt lat="43.6381251" lon="12.3386547"><ele>481.0</ele><time>2026-05-01T10:45:57.792Z</time></trkpt><trkpt lat="43.6380474" lon="12.3386366"><ele>481.66666666666663</ele><time>2026-05-01T10:45:58.789Z</time></trkpt><trkpt lat="43.6379767" lon="12.3386387"><ele>482.3333333333333</ele><time>2026-05-01T10:45:59.808Z</time></trkpt><trkpt lat="43.6379149" lon="12.3386671"><ele>483.0</ele><time>2026-05-01T10:46:00.798Z</time></trkpt><trkpt lat="43.6378663" lon="12.3387415"><ele>483.0</ele><time>2026-05-01T10:46:01.785Z</time></trkpt><trkpt lat="43.6378327" lon="12.3388312"><ele>483.0</ele><time>2026-05-01T10:46:02.782Z</time></trkpt><trkpt lat="43.6378215" lon="12.3389208"><ele>483.0</ele><time>2026-05-01T10:46:03.795Z</time></trkpt><trkpt lat="43.6378399" lon="12.3390126"><ele>483.0</ele><time>2026-05-01T10:46:04.79Z</time></trkpt><trkpt lat="43.6378824" lon="12.3390867"><ele>483.0</ele><time>2026-05-01T10:46:05.789Z</time></trkpt><trkpt lat="43.6379454" lon="12.339139"><ele>483.0</ele><time>2026-05-01T10:46:06.788Z</time></trkpt><trkpt lat="43.6380373" lon="12.3391722"><ele>483.0</ele><time>2026-05-01T10:46:07.794Z</time></trkpt><trkpt lat="43.6381463" lon="12.3392016"><ele>487.0</ele><time>2026-05-01T10:46:08.786Z</time></trkpt><trkpt lat="43.6382809" lon="12.3392253"><ele>491.0</ele><time>2026-05-01T10:46:09.78Z</time></trkpt><trkpt lat="43.6384459" lon="12.3392645"><ele>495.0</ele><time>2026-05-01T10:46:10.784Z</time></trkpt><trkpt lat="43.6386096" lon="12.3393095"><ele>494.25</ele><time>2026-05-01T10:46:11.797Z</time></trkpt><trkpt lat="43.6387487" lon="12.3393517"><ele>493.5</ele><time>2026-05-01T10:46:12.778Z</time></trkpt><trkpt lat="43.6388715" lon="12.3393912"><ele>492.75</ele><time>2026-05-01T10:46:13.786Z</time></trkpt><trkpt lat="43.6389823" lon="12.3394322"><ele>492.0</ele><time>2026-05-01T10:46:14.784Z</time></trkpt><trkpt lat="43.6390793" lon="12.3394849"><ele>492.0</ele><time>2026-05-01T10:46:15.795Z</time></trkpt><trkpt lat="43.6391552" lon="12.3395483"><ele>492.0</ele><time>2026-05-01T10:46:16.786Z</time></trkpt><trkpt lat="43.6391995" lon="12.3396235"><ele>492.0</ele><time>2026-05-01T10:46:17.784Z</time></trkpt><trkpt lat="43.6392272" lon="12.3397211"><ele>492.0</ele><time>2026-05-01T10:46:18.781Z</time></trkpt><trkpt lat="43.6392341" lon="12.3398087"><ele>492.0</ele><time>2026-05-01T10:46:19.796Z</time></trkpt><trkpt lat="43.6391598" lon="12.339933"><ele>492.0</ele><time>2026-05-01T10:46:21.777Z</time></trkpt><trkpt lat="43.6390883" lon="12.3399648"><ele>496.0</ele><time>2026-05-01T10:46:22.781Z</time></trkpt><trkpt lat="43.6390032" lon="12.3399648"><ele>500.0</ele><time>2026-05-01T10:46:23.801Z</time></trkpt><trkpt lat="43.6388891" lon="12.3399181"><ele>504.0</ele><time>2026-05-01T10:46:24.78Z</time></trkpt><trkpt lat="43.6387591" lon="12.3398748"><ele>508.0</ele><time>2026-05-01T10:46:25.794Z</time></trkpt><trkpt lat="43.6386381" lon="12.3398414"><ele>508.75</ele><time>2026-05-01T10:46:26.791Z</time></trkpt><trkpt lat="43.6385208" lon="12.3398213"><ele>509.5</ele><time>2026-05-01T10:46:27.786Z</time></trkpt><trkpt lat="43.6384104" lon="12.3398215"><ele>510.25</ele><time>2026-05-01T10:46:28.783Z</time></trkpt><trkpt lat="43.6382946" lon="12.3398535"><ele>511.0</ele><time>2026-05-01T10:46:29.801Z</time></trkpt><trkpt lat="43.6381598" lon="12.3399047"><ele>511.0</ele><time>2026-05-01T10:46:30.781Z</time></trkpt><trkpt lat="43.638026" lon="12.3399766"><ele>511.0</ele><time>2026-05-01T10:46:31.787Z</time></trkpt><trkpt lat="43.637891" lon="12.3400482"><ele>511.0</ele><time>2026-05-01T10:46:32.785Z</time></trkpt><trkpt lat="43.637768" lon="12.3401063"><ele>511.0</ele><time>2026-05-01T10:46:33.791Z</time></trkpt><trkpt lat="43.6376469" lon="12.3401277"><ele>513.0</ele><time>2026-05-01T10:46:34.789Z</time></trkpt><trkpt lat="43.63752" lon="12.3401157"><ele>515.0</ele><time>2026-05-01T10:46:35.797Z</time></trkpt><trkpt lat="43.6373993" lon="12.3400628"><ele>517.0</ele><time>2026-05-01T10:46:36.789Z</time></trkpt><trkpt lat="43.6372885" lon="12.3399875"><ele>519.0</ele><time>2026-05-01T10:46:37.795Z</time></trkpt><trkpt lat="43.6371751" lon="12.3398756"><ele>519.0</ele><time>2026-05-01T10:46:38.783Z</time></trkpt><trkpt lat="43.6370814" lon="12.3397538"><ele>519.0</ele><time>2026-05-01T10:46:39.796Z</time></trkpt><trkpt lat="43.6370045" lon="12.3396304"><ele>519.0</ele><time>2026-05-01T10:46:40.786Z</time></trkpt><trkpt lat="43.6369309" lon="12.3395255"><ele>519.0</ele><time>2026-05-01T10:46:41.802Z</time></trkpt><trkpt lat="43.6368415" lon="12.3394356"><ele>520.5</ele><time>2026-05-01T10:46:42.776Z</time></trkpt><trkpt lat="43.6367451" lon="12.3393427"><ele>522.0</ele><time>2026-05-01T10:46:43.799Z</time></trkpt><trkpt lat="43.6366501" lon="12.3392708"><ele>523.5</ele><time>2026-05-01T10:46:44.789Z</time></trkpt><trkpt lat="43.6365499" lon="12.3392256"><ele>525.0</ele><time>2026-05-01T10:46:45.808Z</time></trkpt><trkpt lat="43.6364358" lon="12.3391826"><ele>525.0</ele><time>2026-05-01T10:46:46.785Z</time></trkpt><trkpt lat="43.6363133" lon="12.3391567"><ele>525.0</ele><time>2026-05-01T10:46:47.794Z</time></trkpt><trkpt lat="43.6361841" lon="12.3391375"><ele>525.0</ele><time>2026-05-01T10:46:48.787Z</time></trkpt><trkpt lat="43.6360525" lon="12.3391168"><ele>525.0</ele><time>2026-05-01T10:46:49.796Z</time></trkpt><trkpt lat="43.6359157" lon="12.3390941"><ele>527.25</ele><time>2026-05-01T10:46:50.78Z</time></trkpt><trkpt lat="43.6357834" lon="12.3390741"><ele>529.5</ele><time>2026-05-01T10:46:51.786Z</time></trkpt><trkpt lat="43.6356533" lon="12.3390526"><ele>531.75</ele><time>2026-05-01T10:46:52.784Z</time></trkpt><trkpt lat="43.6355248" lon="12.3390251"><ele>534.0</ele><time>2026-05-01T10:46:53.788Z</time></trkpt><trkpt lat="43.6354015" lon="12.3389814"><ele>534.25</ele><time>2026-05-01T10:46:54.783Z</time></trkpt><trkpt lat="43.6352763" lon="12.3389329"><ele>534.5</ele><time>2026-05-01T10:46:55.787Z</time></trkpt><trkpt lat="43.6351571" lon="12.3388888"><ele>534.75</ele><time>2026-05-01T10:46:56.783Z</time></trkpt><trkpt lat="43.6350482" lon="12.3388529"><ele>535.0</ele><time>2026-05-01T10:46:57.787Z</time></trkpt><trkpt lat="43.6349587" lon="12.3388217"><ele>535.0</ele><time>2026-05-01T10:46:58.786Z</time></trkpt><trkpt lat="43.6348842" lon="12.3388176"><ele>535.0</ele><time>2026-05-01T10:46:59.787Z</time></trkpt><trkpt lat="43.634781" lon="12.3388832"><ele>535.0</ele><time>2026-05-01T10:47:01.778Z</time></trkpt><trkpt lat="43.6347411" lon="12.3390396"><ele>535.0</ele><time>2026-05-01T10:47:03.782Z</time></trkpt><trkpt lat="43.6348163" lon="12.3392012"><ele>535.0</ele><time>2026-05-01T10:47:05.79Z</time></trkpt><trkpt lat="43.6348894" lon="12.3392732"><ele>534.75</ele><time>2026-05-01T10:47:06.781Z</time></trkpt><trkpt lat="43.634982" lon="12.3393209"><ele>534.5</ele><time>2026-05-01T10:47:07.794Z</time></trkpt><trkpt lat="43.6351069" lon="12.3393713"><ele>534.25</ele><time>2026-05-01T10:47:08.791Z</time></trkpt><trkpt lat="43.6352431" lon="12.3394224"><ele>534.0</ele><time>2026-05-01T10:47:09.801Z</time></trkpt><trkpt lat="43.6353681" lon="12.3394659"><ele>534.0</ele><time>2026-05-01T10:47:10.789Z</time></trkpt><trkpt lat="43.6354732" lon="12.3395128"><ele>534.0</ele><time>2026-05-01T10:47:11.794Z</time></trkpt><trkpt lat="43.6355564" lon="12.3395597"><ele>534.0</ele><time>2026-05-01T10:47:12.79Z</time></trkpt><trkpt lat="43.6356246" lon="12.3396249"><ele>534.0</ele><time>2026-05-01T10:47:13.786Z</time></trkpt><trkpt lat="43.6356603" lon="12.3397079"><ele>534.0</ele><time>2026-05-01T10:47:14.778Z</time></trkpt><trkpt lat="43.6356458" lon="12.3398677"><ele>537.3333333333334</ele><time>2026-05-01T10:47:16.785Z</time></trkpt><trkpt lat="43.635607" lon="12.3399504"><ele>540.6666666666666</ele><time>2026-05-01T10:47:17.793Z</time></trkpt><trkpt lat="43.6355426" lon="12.340013"><ele>544.0</ele><time>2026-05-01T10:47:18.784Z</time></trkpt><trkpt lat="43.6354659" lon="12.3400485"><ele>547.3333333333333</ele><time>2026-05-01T10:47:19.804Z</time></trkpt><trkpt lat="43.635377" lon="12.3400287"><ele>550.6666666666666</ele><time>2026-05-01T10:47:20.784Z</time></trkpt><trkpt lat="43.635259" lon="12.3399807"><ele>554.0</ele><time>2026-05-01T10:47:21.8Z</time></trkpt><trkpt lat="43.6351335" lon="12.339927"><ele>555.25</ele><time>2026-05-01T10:47:22.781Z</time></trkpt><trkpt lat="43.6349945" lon="12.3398881"><ele>556.5</ele><time>2026-05-01T10:47:23.8Z</time></trkpt><trkpt lat="43.634859" lon="12.3398544"><ele>557.75</ele><time>2026-05-01T10:47:24.782Z</time></trkpt><trkpt lat="43.6347268" lon="12.3398482"><ele>559.0</ele><time>2026-05-01T10:47:25.79Z</time></trkpt><trkpt lat="43.6345864" lon="12.3398597"><ele>559.75</ele><time>2026-05-01T10:47:26.789Z</time></trkpt><trkpt lat="43.6344409" lon="12.3398996"><ele>560.5</ele><time>2026-05-01T10:47:27.789Z</time></trkpt><trkpt lat="43.6343038" lon="12.3399637"><ele>561.25</ele><time>2026-05-01T10:47:28.801Z</time></trkpt><trkpt lat="43.6341698" lon="12.3400305"><ele>562.0</ele><time>2026-05-01T10:47:29.801Z</time></trkpt><trkpt lat="43.6340528" lon="12.340115"><ele>562.0</ele><time>2026-05-01T10:47:30.795Z</time></trkpt><trkpt lat="43.6339388" lon="12.3402155"><ele>562.0</ele><time>2026-05-01T10:47:31.799Z</time></trkpt><trkpt lat="43.6338238" lon="12.3403345"><ele>562.0</ele><time>2026-05-01T10:47:32.794Z</time></trkpt><trkpt lat="43.6337093" lon="12.3404719"><ele>562.0</ele><time>2026-05-01T10:47:33.791Z</time></trkpt><trkpt lat="43.6336088" lon="12.3406158"><ele>564.0</ele><time>2026-05-01T10:47:34.783Z</time></trkpt><trkpt lat="43.6335213" lon="12.3407635"><ele>566.0</ele><time>2026-05-01T10:47:35.788Z</time></trkpt><trkpt lat="43.6334504" lon="12.3409004"><ele>568.0</ele><time>2026-05-01T10:47:36.781Z</time></trkpt><trkpt lat="43.6333976" lon="12.3410209"><ele>570.0</ele><time>2026-05-01T10:47:37.793Z</time></trkpt><trkpt lat="43.6333735" lon="12.3411265"><ele>572.0</ele><time>2026-05-01T10:47:38.796Z</time></trkpt><trkpt lat="43.6333707" lon="12.341246"><ele>572.0</ele><time>2026-05-01T10:47:39.791Z</time></trkpt><trkpt lat="43.6334028" lon="12.3413499"><ele>572.0</ele><time>2026-05-01T10:47:40.786Z</time></trkpt><trkpt lat="43.6334683" lon="12.3414463"><ele>572.0</ele><time>2026-05-01T10:47:41.788Z</time></trkpt><trkpt lat="43.633554" lon="12.3415119"><ele>572.0</ele><time>2026-05-01T10:47:42.786Z</time></trkpt><trkpt lat="43.6336565" lon="12.3415504"><ele>572.0</ele><time>2026-05-01T10:47:43.791Z</time></trkpt><trkpt lat="43.6337769" lon="12.341563"><ele>577.0</ele><time>2026-05-01T10:47:44.794Z</time></trkpt><trkpt lat="43.6339191" lon="12.3415539"><ele>582.0</ele><time>2026-05-01T10:47:45.796Z</time></trkpt><trkpt lat="43.6340718" lon="12.341555"><ele>587.0</ele><time>2026-05-01T10:47:46.787Z</time></trkpt><trkpt lat="43.634246" lon="12.3415664"><ele>587.0</ele><time>2026-05-01T10:47:47.795Z</time></trkpt><trkpt lat="43.6344055" lon="12.3415853"><ele>587.0</ele><time>2026-05-01T10:47:48.789Z</time></trkpt><trkpt lat="43.6345377" lon="12.3416001"><ele>587.0</ele><time>2026-05-01T10:47:49.794Z</time></trkpt><trkpt lat="43.634663" lon="12.3416198"><ele>587.0</ele><time>2026-05-01T10:47:50.779Z</time></trkpt><trkpt lat="43.6348081" lon="12.3416852"><ele>586.6666666666666</ele><time>2026-05-01T10:47:51.789Z</time></trkpt><trkpt lat="43.6349564" lon="12.3417725"><ele>586.3333333333334</ele><time>2026-05-01T10:47:52.781Z</time></trkpt><trkpt lat="43.6351154" lon="12.341856"><ele>586.0</ele><time>2026-05-01T10:47:53.793Z</time></trkpt><trkpt lat="43.6352817" lon="12.3419259"><ele>587.25</ele><time>2026-05-01T10:47:54.79Z</time></trkpt><trkpt lat="43.6354426" lon="12.3419521"><ele>588.5</ele><time>2026-05-01T10:47:55.785Z</time></trkpt><trkpt lat="43.6355957" lon="12.3419291"><ele>589.75</ele><time>2026-05-01T10:47:56.79Z</time></trkpt><trkpt lat="43.6357088" lon="12.3419105"><ele>591.0</ele><time>2026-05-01T10:47:57.787Z</time></trkpt><trkpt lat="43.6358093" lon="12.3418879"><ele>591.0</ele><time>2026-05-01T10:47:58.783Z</time></trkpt><trkpt lat="43.6359051" lon="12.3418938"><ele>591.0</ele><time>2026-05-01T10:47:59.79Z</time></trkpt><trkpt lat="43.6359767" lon="12.3419493"><ele>591.0</ele><time>2026-05-01T10:48:00.783Z</time></trkpt><trkpt lat="43.6360221" lon="12.3420341"><ele>591.0</ele><time>2026-05-01T10:48:01.787Z</time></trkpt><trkpt lat="43.6360368" lon="12.3421492"><ele>591.0</ele><time>2026-05-01T10:48:02.787Z</time></trkpt><trkpt lat="43.6360199" lon="12.342245"><ele>591.0</ele><time>2026-05-01T10:48:03.791Z</time></trkpt><trkpt lat="43.6359711" lon="12.3423451"><ele>594.25</ele><time>2026-05-01T10:48:04.775Z</time></trkpt><trkpt lat="43.6359056" lon="12.3424282"><ele>597.5</ele><time>2026-05-01T10:48:05.798Z</time></trkpt><trkpt lat="43.6358122" lon="12.3425189"><ele>600.75</ele><time>2026-05-01T10:48:06.788Z</time></trkpt><trkpt lat="43.6356968" lon="12.3426165"><ele>604.0</ele><time>2026-05-01T10:48:07.811Z</time></trkpt><trkpt lat="43.6355758" lon="12.3427248"><ele>604.0</ele><time>2026-05-01T10:48:08.789Z</time></trkpt><trkpt lat="43.6354609" lon="12.3428281"><ele>604.0</ele><time>2026-05-01T10:48:09.788Z</time></trkpt><trkpt lat="43.6353446" lon="12.3429134"><ele>604.0</ele><time>2026-05-01T10:48:10.798Z</time></trkpt><trkpt lat="43.6352204" lon="12.3429596"><ele>604.0</ele><time>2026-05-01T10:48:11.803Z</time></trkpt><trkpt lat="43.6350877" lon="12.3429748"><ele>603.25</ele><time>2026-05-01T10:48:12.8Z</time></trkpt><trkpt lat="43.6349592" lon="12.3429722"><ele>602.5</ele><time>2026-05-01T10:48:13.807Z</time></trkpt><trkpt lat="43.6348401" lon="12.3429806"><ele>601.75</ele><time>2026-05-01T10:48:14.798Z</time></trkpt><trkpt lat="43.634728" lon="12.3430255"><ele>601.0</ele><time>2026-05-01T10:48:15.803Z</time></trkpt><trkpt lat="43.6346246" lon="12.343089"><ele>602.75</ele><time>2026-05-01T10:48:16.803Z</time></trkpt><trkpt lat="43.6345427" lon="12.3431739"><ele>604.5</ele><time>2026-05-01T10:48:17.804Z</time></trkpt><trkpt lat="43.6344604" lon="12.3433017"><ele>606.25</ele><time>2026-05-01T10:48:18.784Z</time></trkpt><trkpt lat="43.6343859" lon="12.3434479"><ele>608.0</ele><time>2026-05-01T10:48:19.794Z</time></trkpt><trkpt lat="43.6342992" lon="12.3436246"><ele>608.0</ele><time>2026-05-01T10:48:20.796Z</time></trkpt><trkpt lat="43.6342144" lon="12.3437897"><ele>608.0</ele><time>2026-05-01T10:48:21.809Z</time></trkpt><trkpt lat="43.6341244" lon="12.343921"><ele>608.0</ele><time>2026-05-01T10:48:22.784Z</time></trkpt><trkpt lat="43.6340204" lon="12.3440068"><ele>608.0</ele><time>2026-05-01T10:48:23.789Z</time></trkpt><trkpt lat="43.6339118" lon="12.3440645"><ele>610.25</ele><time>2026-05-01T10:48:24.793Z</time></trkpt><trkpt lat="43.6337795" lon="12.3440946"><ele>612.5</ele><time>2026-05-01T10:48:25.79Z</time></trkpt><trkpt lat="43.6336455" lon="12.344119"><ele>614.75</ele><time>2026-05-01T10:48:26.794Z</time></trkpt><trkpt lat="43.6335356" lon="12.3441391"><ele>617.0</ele><time>2026-05-01T10:48:27.787Z</time></trkpt><trkpt lat="43.6334567" lon="12.3441859"><ele>617.0</ele><time>2026-05-01T10:48:28.778Z</time></trkpt><trkpt lat="43.6334024" lon="12.34426"><ele>617.0</ele><time>2026-05-01T10:48:29.793Z</time></trkpt><trkpt lat="43.6333533" lon="12.3443552"><ele>617.0</ele><time>2026-05-01T10:48:30.78Z</time></trkpt><trkpt lat="43.6333059" lon="12.3444927"><ele>617.0</ele><time>2026-05-01T10:48:31.786Z</time></trkpt><trkpt lat="43.6332495" lon="12.3446481"><ele>617.0</ele><time>2026-05-01T10:48:32.78Z</time></trkpt><trkpt lat="43.6331761" lon="12.3448085"><ele>621.0</ele><time>2026-05-01T10:48:33.794Z</time></trkpt><trkpt lat="43.6330739" lon="12.3449869"><ele>625.0</ele><time>2026-05-01T10:48:34.782Z</time></trkpt><trkpt lat="43.6329418" lon="12.3451746"><ele>629.0</ele><time>2026-05-01T10:48:35.795Z</time></trkpt><trkpt lat="43.6328188" lon="12.3453655"><ele>629.6666666666666</ele><time>2026-05-01T10:48:36.801Z</time></trkpt><trkpt lat="43.6326975" lon="12.3455433"><ele>630.3333333333334</ele><time>2026-05-01T10:48:37.786Z</time></trkpt><trkpt lat="43.6325899" lon="12.3457145"><ele>631.0</ele><time>2026-05-01T10:48:38.793Z</time></trkpt><trkpt lat="43.6324798" lon="12.3458749"><ele>631.0</ele><time>2026-05-01T10:48:39.791Z</time></trkpt><trkpt lat="43.632384" lon="12.3460334"><ele>631.0</ele><time>2026-05-01T10:48:40.793Z</time></trkpt><trkpt lat="43.6322945" lon="12.3461882"><ele>631.0</ele><time>2026-05-01T10:48:41.787Z</time></trkpt><trkpt lat="43.6322156" lon="12.3463305"><ele>631.0</ele><time>2026-05-01T10:48:42.777Z</time></trkpt><trkpt lat="43.6321492" lon="12.3464616"><ele>634.0</ele><time>2026-05-01T10:48:43.8Z</time></trkpt><trkpt lat="43.632093" lon="12.346605"><ele>637.0</ele><time>2026-05-01T10:48:44.781Z</time></trkpt><trkpt lat="43.6320452" lon="12.3467614"><ele>640.0</ele><time>2026-05-01T10:48:45.795Z</time></trkpt><trkpt lat="43.6320198" lon="12.3469229"><ele>643.0</ele><time>2026-05-01T10:48:46.792Z</time></trkpt><trkpt lat="43.6320064" lon="12.3471108"><ele>643.0</ele><time>2026-05-01T10:48:47.793Z</time></trkpt><trkpt lat="43.6320104" lon="12.3473114"><ele>643.0</ele><time>2026-05-01T10:48:48.786Z</time></trkpt><trkpt lat="43.6320077" lon="12.3474968"><ele>643.0</ele><time>2026-05-01T10:48:49.789Z</time></trkpt><trkpt lat="43.631988" lon="12.3476672"><ele>643.0</ele><time>2026-05-01T10:48:50.786Z</time></trkpt><trkpt lat="43.6319499" lon="12.3478268"><ele>643.0</ele><time>2026-05-01T10:48:51.792Z</time></trkpt><trkpt lat="43.6318937" lon="12.3479768"><ele>643.0</ele><time>2026-05-01T10:48:52.779Z</time></trkpt><trkpt lat="43.6318174" lon="12.3481355"><ele>643.0</ele><time>2026-05-01T10:48:53.785Z</time></trkpt><trkpt lat="43.6317394" lon="12.3482652"><ele>643.0</ele><time>2026-05-01T10:48:54.786Z</time></trkpt><trkpt lat="43.6316485" lon="12.3483633"><ele>645.8</ele><time>2026-05-01T10:48:55.789Z</time></trkpt><trkpt lat="43.6315439" lon="12.3484396"><ele>648.5999999999999</ele><time>2026-05-01T10:48:56.791Z</time></trkpt><trkpt lat="43.6314427" lon="12.348475"><ele>651.4000000000001</ele><time>2026-05-01T10:48:57.792Z</time></trkpt><trkpt lat="43.6313367" lon="12.3484685"><ele>654.2</ele><time>2026-05-01T10:48:58.792Z</time></trkpt><trkpt lat="43.6312285" lon="12.3484268"><ele>657.0</ele><time>2026-05-01T10:48:59.797Z</time></trkpt><trkpt lat="43.6311261" lon="12.348346"><ele>658.5</ele><time>2026-05-01T10:49:00.784Z</time></trkpt><trkpt lat="43.6310244" lon="12.3482534"><ele>660.0</ele><time>2026-05-01T10:49:01.799Z</time></trkpt><trkpt lat="43.6309069" lon="12.3481421"><ele>661.5</ele><time>2026-05-01T10:49:02.803Z</time></trkpt><trkpt lat="43.6307687" lon="12.3480466"><ele>663.0</ele><time>2026-05-01T10:49:03.795Z</time></trkpt><trkpt lat="43.6306304" lon="12.347957"><ele>662.0</ele><time>2026-05-01T10:49:04.796Z</time></trkpt><trkpt lat="43.6305289" lon="12.3478898"><ele>661.0</ele><time>2026-05-01T10:49:05.789Z</time></trkpt><trkpt lat="43.6304496" lon="12.3478448"><ele>660.0</ele><time>2026-05-01T10:49:06.785Z</time></trkpt><trkpt lat="43.630364" lon="12.3478345"><ele>659.0</ele><time>2026-05-01T10:49:07.798Z</time></trkpt><trkpt lat="43.6302672" lon="12.3478555"><ele>658.0</ele><time>2026-05-01T10:49:08.791Z</time></trkpt><trkpt lat="43.6301703" lon="12.3478889"><ele>658.0</ele><time>2026-05-01T10:49:09.803Z</time></trkpt><trkpt lat="43.6300487" lon="12.3479412"><ele>658.0</ele><time>2026-05-01T10:49:10.803Z</time></trkpt><trkpt lat="43.6299072" lon="12.3480065"><ele>658.0</ele><time>2026-05-01T10:49:11.797Z</time></trkpt><trkpt lat="43.6297694" lon="12.3480664"><ele>658.0</ele><time>2026-05-01T10:49:12.8Z</time></trkpt><trkpt lat="43.6296471" lon="12.3481177"><ele>660.0</ele><time>2026-05-01T10:49:13.814Z</time></trkpt><trkpt lat="43.6295195" lon="12.3481699"><ele>662.0</ele><time>2026-05-01T10:49:14.795Z</time></trkpt><trkpt lat="43.6293836" lon="12.3482515"><ele>664.0</ele><time>2026-05-01T10:49:15.806Z</time></trkpt><trkpt lat="43.6292538" lon="12.3483715"><ele>666.0</ele><time>2026-05-01T10:49:16.801Z</time></trkpt><trkpt lat="43.6291346" lon="12.3485137"><ele>666.0</ele><time>2026-05-01T10:49:17.811Z</time></trkpt><trkpt lat="43.6290317" lon="12.3486758"><ele>666.0</ele><time>2026-05-01T10:49:18.789Z</time></trkpt><trkpt lat="43.6289312" lon="12.3488505"><ele>666.0</ele><time>2026-05-01T10:49:19.789Z</time></trkpt><trkpt lat="43.628834" lon="12.3490322"><ele>666.5</ele><time>2026-05-01T10:49:20.781Z</time></trkpt><trkpt lat="43.6287398" lon="12.3492071"><ele>667.0</ele><time>2026-05-01T10:49:21.784Z</time></trkpt><trkpt lat="43.6286659" lon="12.3493805"><ele>667.5</ele><time>2026-05-01T10:49:22.783Z</time></trkpt><trkpt lat="43.6286271" lon="12.3495546"><ele>668.0</ele><time>2026-05-01T10:49:23.792Z</time></trkpt><trkpt lat="43.6285959" lon="12.3497572"><ele>671.3333333333333</ele><time>2026-05-01T10:49:24.786Z</time></trkpt><trkpt lat="43.6285703" lon="12.3500001"><ele>674.6666666666666</ele><time>2026-05-01T10:49:25.795Z</time></trkpt><trkpt lat="43.6285455" lon="12.3502704"><ele>678.0</ele><time>2026-05-01T10:49:26.78Z</time></trkpt><trkpt lat="43.6285202" lon="12.3505624"><ele>680.3333333333334</ele><time>2026-05-01T10:49:27.785Z</time></trkpt><trkpt lat="43.6285007" lon="12.3508566"><ele>682.6666666666667</ele><time>2026-05-01T10:49:28.784Z</time></trkpt><trkpt lat="43.6284826" lon="12.3511319"><ele>685.0</ele><time>2026-05-01T10:49:29.786Z</time></trkpt><trkpt lat="43.6284621" lon="12.3513953"><ele>689.0</ele><time>2026-05-01T10:49:30.775Z</time></trkpt><trkpt lat="43.6284392" lon="12.351625"><ele>693.0</ele><time>2026-05-01T10:49:31.786Z</time></trkpt><trkpt lat="43.6284089" lon="12.3518254"><ele>697.0</ele><time>2026-05-01T10:49:32.785Z</time></trkpt><trkpt lat="43.6283729" lon="12.3520047"><ele>697.0</ele><time>2026-05-01T10:49:33.79Z</time></trkpt><trkpt lat="43.6283188" lon="12.352171"><ele>697.0</ele><time>2026-05-01T10:49:34.787Z</time></trkpt><trkpt lat="43.6282408" lon="12.3523103"><ele>697.0</ele><time>2026-05-01T10:49:35.787Z</time></trkpt><trkpt lat="43.6281451" lon="12.3524304"><ele>697.0</ele><time>2026-05-01T10:49:36.785Z</time></trkpt><trkpt lat="43.628023" lon="12.3525447"><ele>700.0</ele><time>2026-05-01T10:49:37.794Z</time></trkpt><trkpt lat="43.6279044" lon="12.3526588"><ele>703.0</ele><time>2026-05-01T10:49:38.801Z</time></trkpt><trkpt lat="43.6277971" lon="12.3527381"><ele>706.0</ele><time>2026-05-01T10:49:39.8Z</time></trkpt><trkpt lat="43.6277028" lon="12.3527685"><ele>709.0</ele><time>2026-05-01T10:49:40.794Z</time></trkpt><trkpt lat="43.6276089" lon="12.3527498"><ele>709.0</ele><time>2026-05-01T10:49:41.803Z</time></trkpt><trkpt lat="43.6275401" lon="12.3526876"><ele>709.0</ele><time>2026-05-01T10:49:42.779Z</time></trkpt><trkpt lat="43.6274825" lon="12.3525995"><ele>709.0</ele><time>2026-05-01T10:49:43.786Z</time></trkpt><trkpt lat="43.627423" lon="12.352481"><ele>709.0</ele><time>2026-05-01T10:49:44.783Z</time></trkpt><trkpt lat="43.6273711" lon="12.3523276"><ele>709.0</ele><time>2026-05-01T10:49:45.787Z</time></trkpt><trkpt lat="43.6273209" lon="12.3521527"><ele>708.4000000000001</ele><time>2026-05-01T10:49:46.783Z</time></trkpt><trkpt lat="43.6272879" lon="12.3519826"><ele>707.8</ele><time>2026-05-01T10:49:47.786Z</time></trkpt><trkpt lat="43.6272714" lon="12.3518418"><ele>707.2</ele><time>2026-05-01T10:49:48.785Z</time></trkpt><trkpt lat="43.6272309" lon="12.3517126"><ele>706.5999999999999</ele><time>2026-05-01T10:49:49.791Z</time></trkpt><trkpt lat="43.6271679" lon="12.3516047"><ele>706.0</ele><time>2026-05-01T10:49:50.802Z</time></trkpt><trkpt lat="43.6270927" lon="12.3515207"><ele>706.0</ele><time>2026-05-01T10:49:51.79Z</time></trkpt><trkpt lat="43.6270002" lon="12.351445"><ele>706.0</ele><time>2026-05-01T10:49:52.784Z</time></trkpt><trkpt lat="43.6268855" lon="12.3513646"><ele>706.0</ele><time>2026-05-01T10:49:53.794Z</time></trkpt><trkpt lat="43.6267559" lon="12.3512778"><ele>706.0</ele><time>2026-05-01T10:49:54.779Z</time></trkpt><trkpt lat="43.6266185" lon="12.3511812"><ele>709.5</ele><time>2026-05-01T10:49:55.811Z</time></trkpt><trkpt lat="43.6265061" lon="12.3510791"><ele>713.0</ele><time>2026-05-01T10:49:56.787Z</time></trkpt><trkpt lat="43.6264052" lon="12.3509738"><ele>716.5</ele><time>2026-05-01T10:49:57.78Z</time></trkpt><trkpt lat="43.6263335" lon="12.3508651"><ele>720.0</ele><time>2026-05-01T10:49:58.782Z</time></trkpt><trkpt lat="43.6262937" lon="12.3507442"><ele>720.0</ele><time>2026-05-01T10:49:59.802Z</time></trkpt><trkpt lat="43.6262777" lon="12.3506049"><ele>720.0</ele><time>2026-05-01T10:50:00.795Z</time></trkpt><trkpt lat="43.6262885" lon="12.3504491"><ele>720.0</ele><time>2026-05-01T10:50:01.794Z</time></trkpt><trkpt lat="43.626311" lon="12.3502853"><ele>720.0</ele><time>2026-05-01T10:50:02.781Z</time></trkpt><trkpt lat="43.6263279" lon="12.3501179"><ele>719.3333333333334</ele><time>2026-05-01T10:50:03.793Z</time></trkpt><trkpt lat="43.6263326" lon="12.3499723"><ele>718.6666666666666</ele><time>2026-05-01T10:50:04.776Z</time></trkpt><trkpt lat="43.6263194" lon="12.3498561"><ele>718.0</ele><time>2026-05-01T10:50:05.798Z</time></trkpt><trkpt lat="43.626275" lon="12.349751"><ele>717.3333333333333</ele><time>2026-05-01T10:50:06.796Z</time></trkpt><trkpt lat="43.6262182" lon="12.349664"><ele>716.6666666666666</ele><time>2026-05-01T10:50:07.794Z</time></trkpt><trkpt lat="43.6261469" lon="12.349606"><ele>716.0</ele><time>2026-05-01T10:50:08.778Z</time></trkpt><trkpt lat="43.6260564" lon="12.3495689"><ele>720.0</ele><time>2026-05-01T10:50:09.791Z</time></trkpt><trkpt lat="43.6259295" lon="12.3495279"><ele>724.0</ele><time>2026-05-01T10:50:10.791Z</time></trkpt><trkpt lat="43.6257975" lon="12.3494485"><ele>728.0</ele><time>2026-05-01T10:50:11.789Z</time></trkpt><trkpt lat="43.6256667" lon="12.3493518"><ele>732.0</ele><time>2026-05-01T10:50:12.78Z</time></trkpt><trkpt lat="43.6255426" lon="12.3492458"><ele>732.0</ele><time>2026-05-01T10:50:13.792Z</time></trkpt><trkpt lat="43.6254359" lon="12.3491151"><ele>732.0</ele><time>2026-05-01T10:50:14.793Z</time></trkpt><trkpt lat="43.6253507" lon="12.3489804"><ele>732.0</ele><time>2026-05-01T10:50:15.803Z</time></trkpt><trkpt lat="43.6252785" lon="12.3488356"><ele>732.0</ele><time>2026-05-01T10:50:16.785Z</time></trkpt><trkpt lat="43.6252286" lon="12.3486563"><ele>735.0</ele><time>2026-05-01T10:50:17.791Z</time></trkpt><trkpt lat="43.6251787" lon="12.3484494"><ele>738.0</ele><time>2026-05-01T10:50:18.794Z</time></trkpt><trkpt lat="43.6251101" lon="12.3482255"><ele>741.0</ele><time>2026-05-01T10:50:19.797Z</time></trkpt><trkpt lat="43.6250347" lon="12.3479932"><ele>742.3333333333334</ele><time>2026-05-01T10:50:20.781Z</time></trkpt><trkpt lat="43.6249624" lon="12.3477602"><ele>743.6666666666667</ele><time>2026-05-01T10:50:21.79Z</time></trkpt><trkpt lat="43.6248914" lon="12.3475328"><ele>745.0</ele><time>2026-05-01T10:50:22.78Z</time></trkpt><trkpt lat="43.6248121" lon="12.3473025"><ele>746.3333333333334</ele><time>2026-05-01T10:50:23.806Z</time></trkpt><trkpt lat="43.6247252" lon="12.3470675"><ele>747.6666666666666</ele><time>2026-05-01T10:50:24.785Z</time></trkpt><trkpt lat="43.6246436" lon="12.3468143"><ele>749.0</ele><time>2026-05-01T10:50:25.789Z</time></trkpt><trkpt lat="43.6245616" lon="12.3465716"><ele>748.6666666666666</ele><time>2026-05-01T10:50:26.783Z</time></trkpt><trkpt lat="43.6244839" lon="12.3463651"><ele>748.3333333333334</ele><time>2026-05-01T10:50:27.793Z</time></trkpt><trkpt lat="43.6244203" lon="12.3461787"><ele>748.0</ele><time>2026-05-01T10:50:28.784Z</time></trkpt><trkpt lat="43.624363" lon="12.3460058"><ele>749.0</ele><time>2026-05-01T10:50:29.79Z</time></trkpt><trkpt lat="43.6243251" lon="12.3458424"><ele>750.0</ele><time>2026-05-01T10:50:30.774Z</time></trkpt><trkpt lat="43.6243035" lon="12.3456872"><ele>751.0</ele><time>2026-05-01T10:50:31.79Z</time></trkpt><trkpt lat="43.6243072" lon="12.3455306"><ele>752.0</ele><time>2026-05-01T10:50:32.792Z</time></trkpt><trkpt lat="43.6243307" lon="12.3453657"><ele>749.75</ele><time>2026-05-01T10:50:33.791Z</time></trkpt><trkpt lat="43.6243803" lon="12.3452004"><ele>747.5</ele><time>2026-05-01T10:50:34.78Z</time></trkpt><trkpt lat="43.6244499" lon="12.3450425"><ele>745.25</ele><time>2026-05-01T10:50:35.789Z</time></trkpt><trkpt lat="43.624539" lon="12.3448929"><ele>743.0</ele><time>2026-05-01T10:50:36.78Z</time></trkpt><trkpt lat="43.6246466" lon="12.3447524"><ele>741.3333333333333</ele><time>2026-05-01T10:50:37.791Z</time></trkpt><trkpt lat="43.6247688" lon="12.3446143"><ele>739.6666666666666</ele><time>2026-05-01T10:50:38.784Z</time></trkpt><trkpt lat="43.6248871" lon="12.3444755"><ele>738.0</ele><time>2026-05-01T10:50:39.787Z</time></trkpt><trkpt lat="43.6250008" lon="12.344319"><ele>738.0</ele><time>2026-05-01T10:50:40.785Z</time></trkpt><trkpt lat="43.6251197" lon="12.3441667"><ele>738.0</ele><time>2026-05-01T10:50:41.796Z</time></trkpt><trkpt lat="43.6252418" lon="12.3440215"><ele>738.0</ele><time>2026-05-01T10:50:42.787Z</time></trkpt><trkpt lat="43.6253459" lon="12.343883"><ele>735.8</ele><time>2026-05-01T10:50:43.789Z</time></trkpt><trkpt lat="43.625436" lon="12.3437632"><ele>733.5999999999999</ele><time>2026-05-01T10:50:44.785Z</time></trkpt><trkpt lat="43.6255172" lon="12.3436456"><ele>731.4000000000001</ele><time>2026-05-01T10:50:45.791Z</time></trkpt><trkpt lat="43.6255828" lon="12.3435346"><ele>729.2</ele><time>2026-05-01T10:50:46.785Z</time></trkpt><trkpt lat="43.625635" lon="12.3434252"><ele>727.0</ele><time>2026-05-01T10:50:47.785Z</time></trkpt><trkpt lat="43.6256768" lon="12.3433016"><ele>727.0</ele><time>2026-05-01T10:50:48.783Z</time></trkpt><trkpt lat="43.6257016" lon="12.3431678"><ele>727.0</ele><time>2026-05-01T10:50:49.778Z</time></trkpt><trkpt lat="43.6257116" lon="12.3430272"><ele>727.0</ele><time>2026-05-01T10:50:50.781Z</time></trkpt><trkpt lat="43.6257068" lon="12.3428685"><ele>727.0</ele><time>2026-05-01T10:50:51.788Z</time></trkpt><trkpt lat="43.625691" lon="12.3426795"><ele>727.0</ele><time>2026-05-01T10:50:52.781Z</time></trkpt><trkpt lat="43.6256693" lon="12.3424364"><ele>727.0</ele><time>2026-05-01T10:50:53.792Z</time></trkpt><trkpt lat="43.625643" lon="12.3421606"><ele>727.0</ele><time>2026-05-01T10:50:54.778Z</time></trkpt><trkpt lat="43.6256143" lon="12.3418612"><ele>729.5</ele><time>2026-05-01T10:50:55.79Z</time></trkpt><trkpt lat="43.6255741" lon="12.341536"><ele>732.0</ele><time>2026-05-01T10:50:56.78Z</time></trkpt><trkpt lat="43.6255378" lon="12.3412238"><ele>732.0</ele><time>2026-05-01T10:50:57.789Z</time></trkpt><trkpt lat="43.6254986" lon="12.3408926"><ele>732.0</ele><time>2026-05-01T10:50:58.781Z</time></trkpt><trkpt lat="43.6254545" lon="12.3405721"><ele>731.3333333333334</ele><time>2026-05-01T10:50:59.786Z</time></trkpt><trkpt lat="43.6254177" lon="12.3402828"><ele>730.6666666666667</ele><time>2026-05-01T10:51:00.783Z</time></trkpt><trkpt lat="43.6253839" lon="12.3400259"><ele>730.0</ele><time>2026-05-01T10:51:01.787Z</time></trkpt><trkpt lat="43.625355" lon="12.3397903"><ele>728.5</ele><time>2026-05-01T10:51:02.789Z</time></trkpt><trkpt lat="43.6253362" lon="12.3395833"><ele>727.0</ele><time>2026-05-01T10:51:03.792Z</time></trkpt><trkpt lat="43.625325" lon="12.3393939"><ele>725.5</ele><time>2026-05-01T10:51:04.789Z</time></trkpt><trkpt lat="43.6253347" lon="12.3392069"><ele>724.0</ele><time>2026-05-01T10:51:05.797Z</time></trkpt><trkpt lat="43.6253716" lon="12.3389983"><ele>724.0</ele><time>2026-05-01T10:51:06.783Z</time></trkpt><trkpt lat="43.6254168" lon="12.3387706"><ele>724.0</ele><time>2026-05-01T10:51:07.791Z</time></trkpt><trkpt lat="43.625468" lon="12.3385629"><ele>724.0</ele><time>2026-05-01T10:51:08.787Z</time></trkpt><trkpt lat="43.6254957" lon="12.3383869"><ele>724.0</ele><time>2026-05-01T10:51:09.794Z</time></trkpt><trkpt lat="43.6255166" lon="12.3382341"><ele>724.0</ele><time>2026-05-01T10:51:10.789Z</time></trkpt><trkpt lat="43.625508" lon="12.3381011"><ele>724.0</ele><time>2026-05-01T10:51:11.793Z</time></trkpt><trkpt lat="43.6254767" lon="12.3379904"><ele>724.0</ele><time>2026-05-01T10:51:12.789Z</time></trkpt><trkpt lat="43.625427" lon="12.3379052"><ele>724.0</ele><time>2026-05-01T10:51:13.796Z</time></trkpt><trkpt lat="43.625364" lon="12.3378477"><ele>728.6</ele><time>2026-05-01T10:51:14.789Z</time></trkpt><trkpt lat="43.6252998" lon="12.3378405"><ele>733.2</ele><time>2026-05-01T10:51:15.802Z</time></trkpt><trkpt lat="43.625224" lon="12.3378563"><ele>737.8000000000001</ele><time>2026-05-01T10:51:16.794Z</time></trkpt><trkpt lat="43.62515" lon="12.3379131"><ele>742.4000000000001</ele><time>2026-05-01T10:51:17.795Z</time></trkpt><trkpt lat="43.6250593" lon="12.3380039"><ele>747.0</ele><time>2026-05-01T10:51:18.779Z</time></trkpt><trkpt lat="43.6249648" lon="12.3381056"><ele>747.0</ele><time>2026-05-01T10:51:19.796Z</time></trkpt><trkpt lat="43.6248673" lon="12.3381878"><ele>747.0</ele><time>2026-05-01T10:51:20.787Z</time></trkpt><trkpt lat="43.6247801" lon="12.3382381"><ele>747.0</ele><time>2026-05-01T10:51:21.788Z</time></trkpt><trkpt lat="43.6246972" lon="12.3382466"><ele>747.0</ele><time>2026-05-01T10:51:22.784Z</time></trkpt><trkpt lat="43.6246187" lon="12.3382343"><ele>747.0</ele><time>2026-05-01T10:51:23.782Z</time></trkpt><trkpt lat="43.624547" lon="12.3381712"><ele>747.25</ele><time>2026-05-01T10:51:24.78Z</time></trkpt><trkpt lat="43.6244785" lon="12.3380813"><ele>747.5</ele><time>2026-05-01T10:51:25.782Z</time></trkpt><trkpt lat="43.6244122" lon="12.3379671"><ele>747.75</ele><time>2026-05-01T10:51:26.779Z</time></trkpt><trkpt lat="43.6243478" lon="12.33781"><ele>748.0</ele><time>2026-05-01T10:51:27.782Z</time></trkpt><trkpt lat="43.6242758" lon="12.3376545"><ele>748.0</ele><time>2026-05-01T10:51:28.794Z</time></trkpt><trkpt lat="43.6241989" lon="12.3375205"><ele>748.0</ele><time>2026-05-01T10:51:29.8Z</time></trkpt><trkpt lat="43.624139" lon="12.3374019"><ele>748.0</ele><time>2026-05-01T10:51:30.781Z</time></trkpt><trkpt lat="43.6241046" lon="12.3372545"><ele>748.0</ele><time>2026-05-01T10:51:31.789Z</time></trkpt><trkpt lat="43.6240911" lon="12.3370705"><ele>750.3333333333334</ele><time>2026-05-01T10:51:32.777Z</time></trkpt><trkpt lat="43.6240761" lon="12.3368518"><ele>752.6666666666666</ele><time>2026-05-01T10:51:33.785Z</time></trkpt><trkpt lat="43.6240546" lon="12.3366263"><ele>755.0</ele><time>2026-05-01T10:51:34.779Z</time></trkpt><trkpt lat="43.6240339" lon="12.3364289"><ele>757.25</ele><time>2026-05-01T10:51:35.792Z</time></trkpt><trkpt lat="43.6240169" lon="12.3362446"><ele>759.5</ele><time>2026-05-01T10:51:36.77Z</time></trkpt><trkpt lat="43.6239992" lon="12.336086"><ele>761.75</ele><time>2026-05-01T10:51:37.787Z</time></trkpt><trkpt lat="43.6239702" lon="12.335942"><ele>764.0</ele><time>2026-05-01T10:51:38.775Z</time></trkpt><trkpt lat="43.6239317" lon="12.3358168"><ele>764.0</ele><time>2026-05-01T10:51:39.793Z</time></trkpt><trkpt lat="43.6238695" lon="12.335698"><ele>764.0</ele><time>2026-05-01T10:51:40.778Z</time></trkpt><trkpt lat="43.6237871" lon="12.3356169"><ele>764.0</ele><time>2026-05-01T10:51:41.782Z</time></trkpt><trkpt lat="43.6236915" lon="12.335569"><ele>764.0</ele><time>2026-05-01T10:51:42.776Z</time></trkpt><trkpt lat="43.6235796" lon="12.3355555"><ele>764.0</ele><time>2026-05-01T10:51:43.779Z</time></trkpt><trkpt lat="43.6234662" lon="12.3355659"><ele>763.0</ele><time>2026-05-01T10:51:44.776Z</time></trkpt><trkpt lat="43.6233666" lon="12.3355566"><ele>762.0</ele><time>2026-05-01T10:51:45.78Z</time></trkpt><trkpt lat="43.6232684" lon="12.3355111"><ele>761.0</ele><time>2026-05-01T10:51:46.787Z</time></trkpt><trkpt lat="43.6231707" lon="12.3354208"><ele>760.0</ele><time>2026-05-01T10:51:47.8Z</time></trkpt><trkpt lat="43.6230606" lon="12.3352963"><ele>760.0</ele><time>2026-05-01T10:51:48.777Z</time></trkpt><trkpt lat="43.6229436" lon="12.3351554"><ele>760.0</ele><time>2026-05-01T10:51:49.793Z</time></trkpt><trkpt lat="43.6228288" lon="12.3350195"><ele>760.0</ele><time>2026-05-01T10:51:50.783Z</time></trkpt><trkpt lat="43.6227228" lon="12.3348863"><ele>758.0</ele><time>2026-05-01T10:51:51.787Z</time></trkpt><trkpt lat="43.6226275" lon="12.3347472"><ele>756.0</ele><time>2026-05-01T10:51:52.785Z</time></trkpt><trkpt lat="43.6225435" lon="12.3346042"><ele>754.0</ele><time>2026-05-01T10:51:53.797Z</time></trkpt><trkpt lat="43.6224641" lon="12.3344686"><ele>752.0</ele><time>2026-05-01T10:51:54.779Z</time></trkpt><trkpt lat="43.6223758" lon="12.3343423"><ele>752.0</ele><time>2026-05-01T10:51:55.792Z</time></trkpt><trkpt lat="43.6222678" lon="12.3342467"><ele>752.0</ele><time>2026-05-01T10:51:56.78Z</time></trkpt><trkpt lat="43.6221436" lon="12.3341827"><ele>752.0</ele><time>2026-05-01T10:51:57.785Z</time></trkpt><trkpt lat="43.6219971" lon="12.3341382"><ele>752.0</ele><time>2026-05-01T10:51:58.781Z</time></trkpt><trkpt lat="43.6218321" lon="12.3340996"><ele>748.0</ele><time>2026-05-01T10:51:59.806Z</time></trkpt><trkpt lat="43.6216656" lon="12.334057"><ele>744.0</ele><time>2026-05-01T10:52:00.791Z</time></trkpt><trkpt lat="43.6215205" lon="12.3340238"><ele>740.0</ele><time>2026-05-01T10:52:01.784Z</time></trkpt><trkpt lat="43.6213806" lon="12.3340215"><ele>740.0</ele><time>2026-05-01T10:52:02.79Z</time></trkpt><trkpt lat="43.621241" lon="12.3340513"><ele>740.0</ele><time>2026-05-01T10:52:03.8Z</time></trkpt><trkpt lat="43.621109" lon="12.334103"><ele>740.0</ele><time>2026-05-01T10:52:04.792Z</time></trkpt><trkpt lat="43.6209843" lon="12.33419"><ele>740.0</ele><time>2026-05-01T10:52:05.8Z</time></trkpt><trkpt lat="43.6208702" lon="12.3343088"><ele>739.25</ele><time>2026-05-01T10:52:06.802Z</time></trkpt><trkpt lat="43.6207583" lon="12.3344551"><ele>738.5</ele><time>2026-05-01T10:52:07.804Z</time></trkpt><trkpt lat="43.6206534" lon="12.334603"><ele>737.75</ele><time>2026-05-01T10:52:08.798Z</time></trkpt><trkpt lat="43.6205496" lon="12.3347259"><ele>737.0</ele><time>2026-05-01T10:52:09.785Z</time></trkpt><trkpt lat="43.6204389" lon="12.3348166"><ele>737.0</ele><time>2026-05-01T10:52:10.791Z</time></trkpt><trkpt lat="43.6203286" lon="12.33486"><ele>737.0</ele><time>2026-05-01T10:52:11.807Z</time></trkpt><trkpt lat="43.6202056" lon="12.3348701"><ele>737.0</ele><time>2026-05-01T10:52:12.789Z</time></trkpt><trkpt lat="43.6200582" lon="12.3348585"><ele>737.0</ele><time>2026-05-01T10:52:13.805Z</time></trkpt><trkpt lat="43.619914" lon="12.3348256"><ele>739.75</ele><time>2026-05-01T10:52:14.785Z</time></trkpt><trkpt lat="43.6197709" lon="12.3348293"><ele>742.5</ele><time>2026-05-01T10:52:15.788Z</time></trkpt><trkpt lat="43.6196319" lon="12.3348572"><ele>745.25</ele><time>2026-05-01T10:52:16.783Z</time></trkpt><trkpt lat="43.6195082" lon="12.3349068"><ele>748.0</ele><time>2026-05-01T10:52:17.801Z</time></trkpt><trkpt lat="43.6194082" lon="12.3349404"><ele>748.0</ele><time>2026-05-01T10:52:18.793Z</time></trkpt><trkpt lat="43.6193452" lon="12.3349801"><ele>748.0</ele><time>2026-05-01T10:52:19.804Z</time></trkpt><trkpt lat="43.6192588" lon="12.3350084"><ele>748.0</ele><time>2026-05-01T10:52:21.795Z</time></trkpt><trkpt lat="43.6192218" lon="12.3349204"><ele>748.0</ele><time>2026-05-01T10:52:32.798Z</time></trkpt><trkpt lat="43.6192332" lon="12.3348161"><ele>748.0</ele><time>2026-05-01T10:52:35.802Z</time></trkpt><trkpt lat="43.6192502" lon="12.3346764"><ele>748.0</ele><time>2026-05-01T10:52:37.793Z</time></trkpt><trkpt lat="43.6192682" lon="12.3345697"><ele>747.3333333333334</ele><time>2026-05-01T10:52:38.787Z</time></trkpt><trkpt lat="43.6192821" lon="12.3344567"><ele>746.6666666666667</ele><time>2026-05-01T10:52:39.791Z</time></trkpt><trkpt lat="43.6192963" lon="12.3343428"><ele>746.0</ele><time>2026-05-01T10:52:40.783Z</time></trkpt><trkpt lat="43.6193063" lon="12.3342317"><ele>745.3333333333334</ele><time>2026-05-01T10:52:41.79Z</time></trkpt><trkpt lat="43.6193185" lon="12.3341328"><ele>744.6666666666666</ele><time>2026-05-01T10:52:42.785Z</time></trkpt><trkpt lat="43.6193284" lon="12.334035"><ele>744.0</ele><time>2026-05-01T10:52:43.793Z</time></trkpt><trkpt lat="43.6193343" lon="12.3339399"><ele>745.3333333333334</ele><time>2026-05-01T10:52:44.788Z</time></trkpt><trkpt lat="43.6193358" lon="12.3338503"><ele>746.6666666666666</ele><time>2026-05-01T10:52:45.787Z</time></trkpt><trkpt lat="43.6193282" lon="12.3337559"><ele>748.0</ele><time>2026-05-01T10:52:46.781Z</time></trkpt><trkpt lat="43.6192905" lon="12.3336697"><ele>749.3333333333333</ele><time>2026-05-01T10:52:47.784Z</time></trkpt><trkpt lat="43.6192379" lon="12.3335757"><ele>750.6666666666666</ele><time>2026-05-01T10:52:48.787Z</time></trkpt><trkpt lat="43.6191728" lon="12.333487"><ele>752.0</ele><time>2026-05-01T10:52:49.785Z</time></trkpt><trkpt lat="43.6190914" lon="12.333415"><ele>752.0</ele><time>2026-05-01T10:52:50.782Z</time></trkpt><trkpt lat="43.6189982" lon="12.3333456"><ele>752.0</ele><time>2026-05-01T10:52:51.798Z</time></trkpt><trkpt lat="43.6188838" lon="12.3332622"><ele>752.0</ele><time>2026-05-01T10:52:52.795Z</time></trkpt><trkpt lat="43.6187549" lon="12.3331907"><ele>752.0</ele><time>2026-05-01T10:52:53.796Z</time></trkpt><trkpt lat="43.6186314" lon="12.3331316"><ele>753.4000000000001</ele><time>2026-05-01T10:52:54.788Z</time></trkpt><trkpt lat="43.6185291" lon="12.3330802"><ele>754.8000000000001</ele><time>2026-05-01T10:52:55.793Z</time></trkpt><trkpt lat="43.6184426" lon="12.3330205"><ele>756.2</ele><time>2026-05-01T10:52:56.792Z</time></trkpt><trkpt lat="43.618357" lon="12.3329604"><ele>757.6</ele><time>2026-05-01T10:52:57.791Z</time></trkpt><trkpt lat="43.6182672" lon="12.3329109"><ele>759.0</ele><time>2026-05-01T10:52:58.775Z</time></trkpt><trkpt lat="43.6181832" lon="12.332896"><ele>759.0</ele><time>2026-05-01T10:52:59.784Z</time></trkpt><trkpt lat="43.618098" lon="12.3329033"><ele>759.0</ele><time>2026-05-01T10:53:00.783Z</time></trkpt><trkpt lat="43.6180238" lon="12.3329273"><ele>759.0</ele><time>2026-05-01T10:53:01.78Z</time></trkpt><trkpt lat="43.6179553" lon="12.3329507"><ele>759.0</ele><time>2026-05-01T10:53:02.784Z</time></trkpt><trkpt lat="43.6178588" lon="12.3329032"><ele>759.0</ele><time>2026-05-01T10:53:04.781Z</time></trkpt><trkpt lat="43.6178367" lon="12.3328146"><ele>759.0</ele><time>2026-05-01T10:53:05.8Z</time></trkpt><trkpt lat="43.6178159" lon="12.3327009"><ele>755.4000000000001</ele><time>2026-05-01T10:53:06.787Z</time></trkpt><trkpt lat="43.6177972" lon="12.3325785"><ele>751.8</ele><time>2026-05-01T10:53:07.791Z</time></trkpt><trkpt lat="43.6177628" lon="12.3324528"><ele>748.2</ele><time>2026-05-01T10:53:08.779Z</time></trkpt><trkpt lat="43.6177213" lon="12.3323257"><ele>744.5999999999999</ele><time>2026-05-01T10:53:09.785Z</time></trkpt><trkpt lat="43.617691" lon="12.332178"><ele>741.0</ele><time>2026-05-01T10:53:10.78Z</time></trkpt><trkpt lat="43.6176843" lon="12.3320303"><ele>741.0</ele><time>2026-05-01T10:53:11.789Z</time></trkpt><trkpt lat="43.6176703" lon="12.3318844"><ele>741.0</ele><time>2026-05-01T10:53:12.78Z</time></trkpt><trkpt lat="43.6176225" lon="12.331762"><ele>741.0</ele><time>2026-05-01T10:53:13.786Z</time></trkpt><trkpt lat="43.6175642" lon="12.3316464"><ele>741.0</ele><time>2026-05-01T10:53:14.78Z</time></trkpt><trkpt lat="43.617492" lon="12.3315434"><ele>741.0</ele><time>2026-05-01T10:53:15.783Z</time></trkpt><trkpt lat="43.6174158" lon="12.3314673"><ele>741.0</ele><time>2026-05-01T10:53:16.787Z</time></trkpt><trkpt lat="43.6173244" lon="12.3314069"><ele>741.0</ele><time>2026-05-01T10:53:17.793Z</time></trkpt><trkpt lat="43.6172389" lon="12.3313594"><ele>741.0</ele><time>2026-05-01T10:53:18.792Z</time></trkpt><trkpt lat="43.617162" lon="12.3313043"><ele>741.0</ele><time>2026-05-01T10:53:19.798Z</time></trkpt><trkpt lat="43.6170857" lon="12.331189"><ele>741.0</ele><time>2026-05-01T10:53:21.792Z</time></trkpt><trkpt lat="43.6170772" lon="12.3310866"><ele>741.0</ele><time>2026-05-01T10:53:22.782Z</time></trkpt><trkpt lat="43.6170816" lon="12.3309638"><ele>741.0</ele><time>2026-05-01T10:53:23.796Z</time></trkpt><trkpt lat="43.6170934" lon="12.3308326"><ele>741.0</ele><time>2026-05-01T10:53:24.789Z</time></trkpt><trkpt lat="43.617112" lon="12.3306967"><ele>741.0</ele><time>2026-05-01T10:53:25.796Z</time></trkpt><trkpt lat="43.6171221" lon="12.3305947"><ele>741.0</ele><time>2026-05-01T10:53:26.785Z</time></trkpt><trkpt lat="43.6171587" lon="12.3305065"><ele>741.0</ele><time>2026-05-01T10:53:27.792Z</time></trkpt><trkpt lat="43.6172136" lon="12.3304634"><ele>741.0</ele><time>2026-05-01T10:53:28.785Z</time></trkpt><trkpt lat="43.6173461" lon="12.3304804"><ele>741.0</ele><time>2026-05-01T10:53:30.782Z</time></trkpt><trkpt lat="43.6174299" lon="12.3305327"><ele>741.0</ele><time>2026-05-01T10:53:31.791Z</time></trkpt><trkpt lat="43.6175376" lon="12.3306011"><ele>741.0</ele><time>2026-05-01T10:53:32.792Z</time></trkpt><trkpt lat="43.6176552" lon="12.3306866"><ele>741.0</ele><time>2026-05-01T10:53:33.801Z</time></trkpt><trkpt lat="43.6177809" lon="12.3307822"><ele>741.0</ele><time>2026-05-01T10:53:34.79Z</time></trkpt><trkpt lat="43.617908" lon="12.3308538"><ele>741.0</ele><time>2026-05-01T10:53:35.789Z</time></trkpt><trkpt lat="43.6180246" lon="12.3309084"><ele>741.0</ele><time>2026-05-01T10:53:36.788Z</time></trkpt><trkpt lat="43.6181424" lon="12.3309604"><ele>741.1999999999999</ele><time>2026-05-01T10:53:37.788Z</time></trkpt><trkpt lat="43.618262" lon="12.3310332"><ele>741.4</ele><time>2026-05-01T10:53:38.788Z</time></trkpt><trkpt lat="43.618363" lon="12.3310863"><ele>741.6</ele><time>2026-05-01T10:53:39.783Z</time></trkpt><trkpt lat="43.6184631" lon="12.3311217"><ele>741.8</ele><time>2026-05-01T10:53:40.776Z</time></trkpt><trkpt lat="43.6185555" lon="12.331143"><ele>742.0</ele><time>2026-05-01T10:53:41.794Z</time></trkpt><trkpt lat="43.6186398" lon="12.331141"><ele>743.8333333333334</ele><time>2026-05-01T10:53:42.778Z</time></trkpt><trkpt lat="43.6187095" lon="12.3311247"><ele>745.6666666666667</ele><time>2026-05-01T10:53:43.791Z</time></trkpt><trkpt lat="43.6187616" lon="12.3310725"><ele>747.5</ele><time>2026-05-01T10:53:44.793Z</time></trkpt><trkpt lat="43.6187899" lon="12.3309926"><ele>749.3333333333334</ele><time>2026-05-01T10:53:45.786Z</time></trkpt><trkpt lat="43.6187598" lon="12.3308349"><ele>751.1666666666666</ele><time>2026-05-01T10:53:47.786Z</time></trkpt><trkpt lat="43.6187427" lon="12.3307412"><ele>753.0</ele><time>2026-05-01T10:53:48.783Z</time></trkpt><trkpt lat="43.6187702" lon="12.3306327"><ele>750.2</ele><time>2026-05-01T10:53:49.782Z</time></trkpt><trkpt lat="43.6188422" lon="12.3305215"><ele>747.4</ele><time>2026-05-01T10:53:50.788Z</time></trkpt><trkpt lat="43.6189097" lon="12.3304025"><ele>744.6</ele><time>2026-05-01T10:53:51.786Z</time></trkpt><trkpt lat="43.6189534" lon="12.3302849"><ele>741.8000000000001</ele><time>2026-05-01T10:53:52.788Z</time></trkpt><trkpt lat="43.618967" lon="12.330147"><ele>739.0</ele><time>2026-05-01T10:53:53.791Z</time></trkpt><trkpt lat="43.6189675" lon="12.3300216"><ele>739.0</ele><time>2026-05-01T10:53:54.781Z</time></trkpt><trkpt lat="43.6189962" lon="12.329916"><ele>739.0</ele><time>2026-05-01T10:53:55.79Z</time></trkpt><trkpt lat="43.6190506" lon="12.3298374"><ele>739.0</ele><time>2026-05-01T10:53:56.782Z</time></trkpt><trkpt lat="43.619109" lon="12.3297793"><ele>739.0</ele><time>2026-05-01T10:53:57.791Z</time></trkpt><trkpt lat="43.6191809" lon="12.3297332"><ele>739.0</ele><time>2026-05-01T10:53:58.787Z</time></trkpt><trkpt lat="43.6192688" lon="12.3297128"><ele>739.0</ele><time>2026-05-01T10:53:59.792Z</time></trkpt><trkpt lat="43.6193586" lon="12.3297102"><ele>739.0</ele><time>2026-05-01T10:54:00.79Z</time></trkpt><trkpt lat="43.6194529" lon="12.3297426"><ele>739.0</ele><time>2026-05-01T10:54:01.789Z</time></trkpt><trkpt lat="43.6195579" lon="12.32979"><ele>739.0</ele><time>2026-05-01T10:54:02.789Z</time></trkpt><trkpt lat="43.6196773" lon="12.3298682"><ele>739.0</ele><time>2026-05-01T10:54:03.794Z</time></trkpt><trkpt lat="43.6197978" lon="12.3299528"><ele>740.0</ele><time>2026-05-01T10:54:04.78Z</time></trkpt><trkpt lat="43.6199056" lon="12.3300464"><ele>741.0</ele><time>2026-05-01T10:54:05.798Z</time></trkpt><trkpt lat="43.619998" lon="12.3301394"><ele>742.0</ele><time>2026-05-01T10:54:06.781Z</time></trkpt><trkpt lat="43.6200807" lon="12.3302326"><ele>743.0</ele><time>2026-05-01T10:54:07.787Z</time></trkpt><trkpt lat="43.6201528" lon="12.3303098"><ele>744.0</ele><time>2026-05-01T10:54:08.793Z</time></trkpt><trkpt lat="43.6202167" lon="12.3303622"><ele>744.0</ele><time>2026-05-01T10:54:09.805Z</time></trkpt><trkpt lat="43.6202919" lon="12.3303742"><ele>744.0</ele><time>2026-05-01T10:54:10.78Z</time></trkpt><trkpt lat="43.6203945" lon="12.3303241"><ele>744.0</ele><time>2026-05-01T10:54:12.785Z</time></trkpt><trkpt lat="43.6204234" lon="12.3301588"><ele>744.0</ele><time>2026-05-01T10:54:14.778Z</time></trkpt><trkpt lat="43.6204342" lon="12.3300282"><ele>744.0</ele><time>2026-05-01T10:54:15.783Z</time></trkpt><trkpt lat="43.6204692" lon="12.3298648"><ele>745.4000000000001</ele><time>2026-05-01T10:54:16.783Z</time></trkpt><trkpt lat="43.6205177" lon="12.3297087"><ele>746.8</ele><time>2026-05-01T10:54:17.789Z</time></trkpt><trkpt lat="43.6205397" lon="12.3295749"><ele>748.2</ele><time>2026-05-01T10:54:18.777Z</time></trkpt><trkpt lat="43.6205422" lon="12.3294495"><ele>749.5999999999999</ele><time>2026-05-01T10:54:19.792Z</time></trkpt><trkpt lat="43.6205371" lon="12.3293227"><ele>751.0</ele><time>2026-05-01T10:54:20.775Z</time></trkpt><trkpt lat="43.6205227" lon="12.3291865"><ele>751.0</ele><time>2026-05-01T10:54:21.786Z</time></trkpt><trkpt lat="43.6205274" lon="12.3290476"><ele>751.0</ele><time>2026-05-01T10:54:22.782Z</time></trkpt><trkpt lat="43.6205398" lon="12.3289319"><ele>751.0</ele><time>2026-05-01T10:54:23.782Z</time></trkpt><trkpt lat="43.6205719" lon="12.328846"><ele>751.0</ele><time>2026-05-01T10:54:24.774Z</time></trkpt><trkpt lat="43.6206257" lon="12.3287953"><ele>751.0</ele><time>2026-05-01T10:54:25.781Z</time></trkpt><trkpt lat="43.6207552" lon="12.3287742"><ele>750.75</ele><time>2026-05-01T10:54:27.787Z</time></trkpt><trkpt lat="43.6208431" lon="12.3286678"><ele>750.5</ele><time>2026-05-01T10:54:29.783Z</time></trkpt><trkpt lat="43.6208432" lon="12.3284664"><ele>750.25</ele><time>2026-05-01T10:54:31.788Z</time></trkpt><trkpt lat="43.6208124" lon="12.3283185"><ele>750.0</ele><time>2026-05-01T10:54:32.778Z</time></trkpt><trkpt lat="43.6207727" lon="12.3281576"><ele>752.5</ele><time>2026-05-01T10:54:33.778Z</time></trkpt><trkpt lat="43.6207323" lon="12.3280013"><ele>755.0</ele><time>2026-05-01T10:54:34.781Z</time></trkpt><trkpt lat="43.620679" lon="12.3278476"><ele>757.5</ele><time>2026-05-01T10:54:35.798Z</time></trkpt><trkpt lat="43.6206058" lon="12.3276961"><ele>760.0</ele><time>2026-05-01T10:54:36.775Z</time></trkpt><trkpt lat="43.6205126" lon="12.3275622"><ele>760.0</ele><time>2026-05-01T10:54:37.783Z</time></trkpt><trkpt lat="43.6204002" lon="12.3274589"><ele>760.0</ele><time>2026-05-01T10:54:38.768Z</time></trkpt><trkpt lat="43.6202796" lon="12.3273695"><ele>760.0</ele><time>2026-05-01T10:54:39.782Z</time></trkpt><trkpt lat="43.6201549" lon="12.3273038"><ele>760.0</ele><time>2026-05-01T10:54:40.782Z</time></trkpt><trkpt lat="43.6200292" lon="12.3272714"><ele>755.0</ele><time>2026-05-01T10:54:41.783Z</time></trkpt><trkpt lat="43.6199059" lon="12.3272637"><ele>750.0</ele><time>2026-05-01T10:54:42.772Z</time></trkpt><trkpt lat="43.619774" lon="12.3272671"><ele>745.0</ele><time>2026-05-01T10:54:43.788Z</time></trkpt><trkpt lat="43.6196516" lon="12.3272837"><ele>740.0</ele><time>2026-05-01T10:54:44.783Z</time></trkpt><trkpt lat="43.6195604" lon="12.3272944"><ele>740.0</ele><time>2026-05-01T10:54:45.773Z</time></trkpt><trkpt lat="43.6195" lon="12.3273258"><ele>740.0</ele><time>2026-05-01T10:54:46.775Z</time></trkpt><trkpt lat="43.6194447" lon="12.3273813"><ele>740.0</ele><time>2026-05-01T10:54:47.779Z</time></trkpt><trkpt lat="43.6193801" lon="12.3274657"><ele>740.0</ele><time>2026-05-01T10:54:48.78Z</time></trkpt><trkpt lat="43.619304" lon="12.3275473"><ele>740.0</ele><time>2026-05-01T10:54:49.793Z</time></trkpt><trkpt lat="43.6192257" lon="12.3276145"><ele>740.0</ele><time>2026-05-01T10:54:50.788Z</time></trkpt><trkpt lat="43.6191583" lon="12.3276202"><ele>740.5</ele><time>2026-05-01T10:54:51.781Z</time></trkpt><trkpt lat="43.6190805" lon="12.3275264"><ele>741.0</ele><time>2026-05-01T10:54:53.788Z</time></trkpt><trkpt lat="43.6190978" lon="12.3273416"><ele>741.5</ele><time>2026-05-01T10:54:55.786Z</time></trkpt><trkpt lat="43.619111" lon="12.3271896"><ele>742.0</ele><time>2026-05-01T10:54:56.779Z</time></trkpt><trkpt lat="43.6191176" lon="12.3270255"><ele>742.0</ele><time>2026-05-01T10:54:57.789Z</time></trkpt><trkpt lat="43.6191137" lon="12.3268471"><ele>742.0</ele><time>2026-05-01T10:54:58.784Z</time></trkpt><trkpt lat="43.6191004" lon="12.3266593"><ele>742.0</ele><time>2026-05-01T10:54:59.787Z</time></trkpt><trkpt lat="43.6190937" lon="12.3264815"><ele>742.0</ele><time>2026-05-01T10:55:00.784Z</time></trkpt><trkpt lat="43.6191" lon="12.3263256"><ele>743.3333333333334</ele><time>2026-05-01T10:55:01.784Z</time></trkpt><trkpt lat="43.6191151" lon="12.3261893"><ele>744.6666666666667</ele><time>2026-05-01T10:55:02.783Z</time></trkpt><trkpt lat="43.6191265" lon="12.3260845"><ele>746.0</ele><time>2026-05-01T10:55:03.789Z</time></trkpt><trkpt lat="43.619118" lon="12.3259863"><ele>747.3333333333334</ele><time>2026-05-01T10:55:04.783Z</time></trkpt><trkpt lat="43.6190852" lon="12.3259108"><ele>748.6666666666666</ele><time>2026-05-01T10:55:05.785Z</time></trkpt><trkpt lat="43.6189628" lon="12.3258661"><ele>750.0</ele><time>2026-05-01T10:55:07.777Z</time></trkpt><trkpt lat="43.6188785" lon="12.3258945"><ele>750.0</ele><time>2026-05-01T10:55:08.788Z</time></trkpt><trkpt lat="43.6187836" lon="12.3259351"><ele>750.0</ele><time>2026-05-01T10:55:09.8Z</time></trkpt><trkpt lat="43.6186645" lon="12.3259882"><ele>750.0</ele><time>2026-05-01T10:55:10.785Z</time></trkpt><trkpt lat="43.6185438" lon="12.3260433"><ele>750.0</ele><time>2026-05-01T10:55:11.807Z</time></trkpt><trkpt lat="43.6184485" lon="12.3260861"><ele>748.0</ele><time>2026-05-01T10:55:12.798Z</time></trkpt><trkpt lat="43.6183827" lon="12.3261004"><ele>746.0</ele><time>2026-05-01T10:55:13.787Z</time></trkpt><trkpt lat="43.6182862" lon="12.3260133"><ele>744.0</ele><time>2026-05-01T10:55:15.802Z</time></trkpt><trkpt lat="43.6182516" lon="12.3259365"><ele>742.0</ele><time>2026-05-01T10:55:16.781Z</time></trkpt><trkpt lat="43.6182236" lon="12.325826"><ele>740.0</ele><time>2026-05-01T10:55:17.778Z</time></trkpt><trkpt lat="43.6181943" lon="12.325697"><ele>738.0</ele><time>2026-05-01T10:55:18.782Z</time></trkpt><trkpt lat="43.6181538" lon="12.3255839"><ele>741.2</ele><time>2026-05-01T10:55:19.78Z</time></trkpt><trkpt lat="43.6181015" lon="12.3254921"><ele>744.4</ele><time>2026-05-01T10:55:20.782Z</time></trkpt><trkpt lat="43.618023" lon="12.325425"><ele>747.6</ele><time>2026-05-01T10:55:21.789Z</time></trkpt><trkpt lat="43.617928" lon="12.3253743"><ele>750.8000000000001</ele><time>2026-05-01T10:55:22.78Z</time></trkpt><trkpt lat="43.6178271" lon="12.3253498"><ele>754.0</ele><time>2026-05-01T10:55:23.788Z</time></trkpt><trkpt lat="43.6177499" lon="12.3253652"><ele>754.0</ele><time>2026-05-01T10:55:24.789Z</time></trkpt><trkpt lat="43.6176891" lon="12.3254188"><ele>754.0</ele><time>2026-05-01T10:55:25.799Z</time></trkpt><trkpt lat="43.6176311" lon="12.325503"><ele>754.0</ele><time>2026-05-01T10:55:26.783Z</time></trkpt><trkpt lat="43.6175681" lon="12.3255889"><ele>754.0</ele><time>2026-05-01T10:55:27.803Z</time></trkpt><trkpt lat="43.6174925" lon="12.3256494"><ele>754.0</ele><time>2026-05-01T10:55:28.784Z</time></trkpt><trkpt lat="43.6174168" lon="12.3256535"><ele>754.0</ele><time>2026-05-01T10:55:29.797Z</time></trkpt><trkpt lat="43.6173365" lon="12.3256171"><ele>754.0</ele><time>2026-05-01T10:55:30.785Z</time></trkpt><trkpt lat="43.6172548" lon="12.3255503"><ele>754.0</ele><time>2026-05-01T10:55:31.789Z</time></trkpt><trkpt lat="43.6171817" lon="12.3254578"><ele>754.0</ele><time>2026-05-01T10:55:32.788Z</time></trkpt><trkpt lat="43.617112" lon="12.3253657"><ele>754.0</ele><time>2026-05-01T10:55:33.798Z</time></trkpt><trkpt lat="43.6170485" lon="12.3252833"><ele>754.0</ele><time>2026-05-01T10:55:34.777Z</time></trkpt><trkpt lat="43.6170097" lon="12.3251911"><ele>754.0</ele><time>2026-05-01T10:55:35.793Z</time></trkpt><trkpt lat="43.6169909" lon="12.3250683"><ele>754.0</ele><time>2026-05-01T10:55:36.779Z</time></trkpt><trkpt lat="43.6169603" lon="12.3249312"><ele>754.0</ele><time>2026-05-01T10:55:37.786Z</time></trkpt><trkpt lat="43.6169126" lon="12.3247959"><ele>754.0</ele><time>2026-05-01T10:55:38.78Z</time></trkpt><trkpt lat="43.6168472" lon="12.3246872"><ele>754.0</ele><time>2026-05-01T10:55:39.782Z</time></trkpt><trkpt lat="43.6167714" lon="12.3245876"><ele>750.5</ele><time>2026-05-01T10:55:40.78Z</time></trkpt><trkpt lat="43.616705" lon="12.3245089"><ele>747.0</ele><time>2026-05-01T10:55:41.784Z</time></trkpt><trkpt lat="43.6166506" lon="12.3244238"><ele>743.5</ele><time>2026-05-01T10:55:42.778Z</time></trkpt><trkpt lat="43.6166164" lon="12.3243301"><ele>740.0</ele><time>2026-05-01T10:55:43.789Z</time></trkpt><trkpt lat="43.616591" lon="12.3242173"><ele>736.5</ele><time>2026-05-01T10:55:44.781Z</time></trkpt><trkpt lat="43.6165797" lon="12.3240831"><ele>733.0</ele><time>2026-05-01T10:55:45.789Z</time></trkpt><trkpt lat="43.6165891" lon="12.3239504"><ele>732.8333333333334</ele><time>2026-05-01T10:55:46.775Z</time></trkpt><trkpt lat="43.616605" lon="12.3238313"><ele>732.6666666666667</ele><time>2026-05-01T10:55:47.781Z</time></trkpt><trkpt lat="43.6166281" lon="12.3237091"><ele>732.5</ele><time>2026-05-01T10:55:48.783Z</time></trkpt><trkpt lat="43.6166566" lon="12.3235981"><ele>732.3333333333334</ele><time>2026-05-01T10:55:49.795Z</time></trkpt><trkpt lat="43.6166898" lon="12.3235109"><ele>732.1666666666666</ele><time>2026-05-01T10:55:50.78Z</time></trkpt><trkpt lat="43.6167364" lon="12.3233876"><ele>732.0</ele><time>2026-05-01T10:55:52.775Z</time></trkpt><trkpt lat="43.6166865" lon="12.3232864"><ele>732.0</ele><time>2026-05-01T10:55:54.782Z</time></trkpt><trkpt lat="43.6165603" lon="12.3232458"><ele>732.0</ele><time>2026-05-01T10:55:56.791Z</time></trkpt><trkpt lat="43.6164822" lon="12.3232024"><ele>732.0</ele><time>2026-05-01T10:55:57.784Z</time></trkpt><trkpt lat="43.6164061" lon="12.3231421"><ele>732.0</ele><time>2026-05-01T10:55:58.785Z</time></trkpt><trkpt lat="43.616333" lon="12.3230759"><ele>732.0</ele><time>2026-05-01T10:55:59.807Z</time></trkpt><trkpt lat="43.6162554" lon="12.323029"><ele>733.0</ele><time>2026-05-01T10:56:00.783Z</time></trkpt><trkpt lat="43.6161683" lon="12.3230027"><ele>734.0</ele><time>2026-05-01T10:56:01.789Z</time></trkpt><trkpt lat="43.6160764" lon="12.3230022"><ele>735.0</ele><time>2026-05-01T10:56:02.781Z</time></trkpt><trkpt lat="43.6159871" lon="12.32302"><ele>736.0</ele><time>2026-05-01T10:56:03.791Z</time></trkpt><trkpt lat="43.6159031" lon="12.3230443"><ele>737.0</ele><time>2026-05-01T10:56:04.783Z</time></trkpt><trkpt lat="43.615817" lon="12.3230901"><ele>738.0</ele><time>2026-05-01T10:56:05.794Z</time></trkpt><trkpt lat="43.6157274" lon="12.3231578"><ele>733.6666666666666</ele><time>2026-05-01T10:56:06.791Z</time></trkpt><trkpt lat="43.615653" lon="12.323231"><ele>729.3333333333334</ele><time>2026-05-01T10:56:07.774Z</time></trkpt><trkpt lat="43.6155874" lon="12.323291"><ele>725.0</ele><time>2026-05-01T10:56:08.782Z</time></trkpt><trkpt lat="43.6155253" lon="12.3233164"><ele>720.6666666666667</ele><time>2026-05-01T10:56:09.799Z</time></trkpt><trkpt lat="43.6154497" lon="12.3233133"><ele>716.3333333333334</ele><time>2026-05-01T10:56:10.791Z</time></trkpt><trkpt lat="43.6153721" lon="12.3232719"><ele>712.0</ele><time>2026-05-01T10:56:11.79Z</time></trkpt><trkpt lat="43.6152889" lon="12.3232107"><ele>711.6</ele><time>2026-05-01T10:56:12.796Z</time></trkpt><trkpt lat="43.615209" lon="12.3231299"><ele>711.2</ele><time>2026-05-01T10:56:13.798Z</time></trkpt><trkpt lat="43.6151294" lon="12.3230281"><ele>710.8</ele><time>2026-05-01T10:56:14.789Z</time></trkpt><trkpt lat="43.6150595" lon="12.3229167"><ele>710.4</ele><time>2026-05-01T10:56:15.789Z</time></trkpt><trkpt lat="43.615005" lon="12.322812"><ele>710.0</ele><time>2026-05-01T10:56:16.78Z</time></trkpt><trkpt lat="43.6149535" lon="12.3227205"><ele>712.0</ele><time>2026-05-01T10:56:17.786Z</time></trkpt><trkpt lat="43.6149117" lon="12.322629"><ele>714.0</ele><time>2026-05-01T10:56:18.785Z</time></trkpt><trkpt lat="43.6148716" lon="12.322536"><ele>716.0</ele><time>2026-05-01T10:56:19.771Z</time></trkpt><trkpt lat="43.6148219" lon="12.3224758"><ele>718.0</ele><time>2026-05-01T10:56:20.781Z</time></trkpt><trkpt lat="43.6147286" lon="12.322469"><ele>720.0</ele><time>2026-05-01T10:56:22.789Z</time></trkpt><trkpt lat="43.6146665" lon="12.3226242"><ele>722.0</ele><time>2026-05-01T10:56:24.796Z</time></trkpt><trkpt lat="43.6146595" lon="12.3227578"><ele>722.0</ele><time>2026-05-01T10:56:25.801Z</time></trkpt><trkpt lat="43.6146737" lon="12.3229005"><ele>722.0</ele><time>2026-05-01T10:56:26.785Z</time></trkpt><trkpt lat="43.6146941" lon="12.3230875"><ele>722.0</ele><time>2026-05-01T10:56:27.783Z</time></trkpt><trkpt lat="43.6147147" lon="12.3232818"><ele>722.0</ele><time>2026-05-01T10:56:28.795Z</time></trkpt><trkpt lat="43.6147395" lon="12.3234713"><ele>719.0</ele><time>2026-05-01T10:56:29.798Z</time></trkpt><trkpt lat="43.61478" lon="12.3236423"><ele>716.0</ele><time>2026-05-01T10:56:30.778Z</time></trkpt><trkpt lat="43.614804" lon="12.3238099"><ele>713.0</ele><time>2026-05-01T10:56:31.799Z</time></trkpt><trkpt lat="43.6148184" lon="12.3239617"><ele>710.0</ele><time>2026-05-01T10:56:32.796Z</time></trkpt><trkpt lat="43.6148266" lon="12.3240965"><ele>708.4</ele><time>2026-05-01T10:56:33.789Z</time></trkpt><trkpt lat="43.6148312" lon="12.3242279"><ele>706.8</ele><time>2026-05-01T10:56:34.786Z</time></trkpt><trkpt lat="43.6148207" lon="12.3243653"><ele>705.2</ele><time>2026-05-01T10:56:35.802Z</time></trkpt><trkpt lat="43.6148019" lon="12.3245116"><ele>703.6</ele><time>2026-05-01T10:56:36.793Z</time></trkpt><trkpt lat="43.6147712" lon="12.3246536"><ele>702.0</ele><time>2026-05-01T10:56:37.795Z</time></trkpt><trkpt lat="43.6147166" lon="12.3248011"><ele>697.5</ele><time>2026-05-01T10:56:38.785Z</time></trkpt><trkpt lat="43.614651" lon="12.3249456"><ele>693.0</ele><time>2026-05-01T10:56:39.789Z</time></trkpt><trkpt lat="43.6155253" lon="12.3233164"><ele>696.4</ele><time>2026-05-01T10:56:09.799Z</time></trkpt><trkpt lat="43.6154497" lon="12.3233133"><ele>699.8</ele><time>2026-05-01T10:56:10.791Z</time></trkpt><trkpt lat="43.6153721" lon="12.3232719"><ele>703.2</ele><time>2026-05-01T10:56:11.79Z</time></trkpt><trkpt lat="43.6152889" lon="12.3232107"><ele>706.6</ele><time>2026-05-01T10:56:12.796Z</time></trkpt><trkpt lat="43.615209" lon="12.3231299"><ele>710.0</ele><time>2026-05-01T10:56:13.798Z</time></trkpt><trkpt lat="43.6151294" lon="12.3230281"><ele>712.0</ele><time>2026-05-01T10:56:14.789Z</time></trkpt><trkpt lat="43.6150595" lon="12.3229167"><ele>714.0</ele><time>2026-05-01T10:56:15.789Z</time></trkpt><trkpt lat="43.615005" lon="12.322812"><ele>716.0</ele><time>2026-05-01T10:56:16.78Z</time></trkpt><trkpt lat="43.6149535" lon="12.3227205"><ele>718.0</ele><time>2026-05-01T10:56:17.786Z</time></trkpt><trkpt lat="43.6149117" lon="12.322629"><ele>720.0</ele><time>2026-05-01T10:56:18.785Z</time></trkpt><trkpt lat="43.6148716" lon="12.322536"><ele>722.0</ele><time>2026-05-01T10:56:19.771Z</time></trkpt><trkpt lat="43.6148219" lon="12.3224758"><ele>722.0</ele><time>2026-05-01T10:56:20.781Z</time></trkpt><trkpt lat="43.6147286" lon="12.322469"><ele>722.0</ele><time>2026-05-01T10:56:22.789Z</time></trkpt><trkpt lat="43.6146665" lon="12.3226242"><ele>722.0</ele><time>2026-05-01T10:56:24.796Z</time></trkpt><trkpt lat="43.6146595" lon="12.3227578"><ele>722.0</ele><time>2026-05-01T10:56:25.801Z</time></trkpt><trkpt lat="43.6146737" lon="12.3229005"><ele>722.0</ele><time>2026-05-01T10:56:26.785Z</time></trkpt><trkpt lat="43.6146941" lon="12.3230875"><ele>719.0</ele><time>2026-05-01T10:56:27.783Z</time></trkpt><trkpt lat="43.6147147" lon="12.3232818"><ele>716.0</ele><time>2026-05-01T10:56:28.795Z</time></trkpt><trkpt lat="43.6147395" lon="12.3234713"><ele>713.0</ele><time>2026-05-01T10:56:29.798Z</time></trkpt><trkpt lat="43.61478" lon="12.3236423"><ele>710.0</ele><time>2026-05-01T10:56:30.778Z</time></trkpt><trkpt lat="43.614804" lon="12.3238099"><ele>708.4</ele><time>2026-05-01T10:56:31.799Z</time></trkpt><trkpt lat="43.6148184" lon="12.3239617"><ele>706.8</ele><time>2026-05-01T10:56:32.796Z</time></trkpt><trkpt lat="43.6148266" lon="12.3240965"><ele>705.2</ele><time>2026-05-01T10:56:33.789Z</time></trkpt><trkpt lat="43.6148312" lon="12.3242279"><ele>703.6</ele><time>2026-05-01T10:56:34.786Z</time></trkpt><trkpt lat="43.6148207" lon="12.3243653"><ele>702.0</ele><time>2026-05-01T10:56:35.802Z</time></trkpt><trkpt lat="43.6148019" lon="12.3245116"><ele>702.0</ele><time>2026-05-01T10:56:36.793Z</time></trkpt><trkpt lat="43.6147712" lon="12.3246536"><ele>702.0</ele><time>2026-05-01T10:56:37.795Z</time></trkpt><trkpt lat="43.6147166" lon="12.3248011"><ele>702.0</ele><time>2026-05-01T10:56:38.785Z</time></trkpt><trkpt lat="43.614651" lon="12.3249456"><ele>702.0</ele><time>2026-05-01T10:56:39.789Z</time></trkpt><trkpt lat="43.6145759" lon="12.3250989"><ele>699.75</ele><time>2026-05-01T10:56:40.8Z</time></trkpt><trkpt lat="43.6144995" lon="12.3252555"><ele>697.5</ele><time>2026-05-01T10:56:41.795Z</time></trkpt><trkpt lat="43.614419" lon="12.325416"><ele>695.25</ele><time>2026-05-01T10:56:42.781Z</time></trkpt><trkpt lat="43.6143407" lon="12.32559"><ele>693.0</ele><time>2026-05-01T10:56:43.817Z</time></trkpt><trkpt lat="43.614259" lon="12.3257737"><ele>701.0</ele><time>2026-05-01T10:56:44.783Z</time></trkpt><trkpt lat="43.6141779" lon="12.3259743"><ele>709.0</ele><time>2026-05-01T10:56:45.796Z</time></trkpt><trkpt lat="43.6141062" lon="12.3261636"><ele>717.0</ele><time>2026-05-01T10:56:46.789Z</time></trkpt><trkpt lat="43.6140354" lon="12.3263364"><ele>714.25</ele><time>2026-05-01T10:56:47.796Z</time></trkpt><trkpt lat="43.6139681" lon="12.3264972"><ele>711.5</ele><time>2026-05-01T10:56:48.791Z</time></trkpt><trkpt lat="43.6139116" lon="12.3266445"><ele>708.75</ele><time>2026-05-01T10:56:49.791Z</time></trkpt><trkpt lat="43.6138524" lon="12.3267767"><ele>706.0</ele><time>2026-05-01T10:56:50.789Z</time></trkpt><trkpt lat="43.613788" lon="12.326891"><ele>706.0</ele><time>2026-05-01T10:56:51.799Z</time></trkpt><trkpt lat="43.6137292" lon="12.3269927"><ele>706.0</ele><time>2026-05-01T10:56:52.796Z</time></trkpt><trkpt lat="43.6136795" lon="12.3270721"><ele>706.0</ele><time>2026-05-01T10:56:53.809Z</time></trkpt><trkpt lat="43.613621" lon="12.327107"><ele>706.0</ele><time>2026-05-01T10:56:54.795Z</time></trkpt><trkpt lat="43.6135232" lon="12.3270365"><ele>706.0</ele><time>2026-05-01T10:56:56.799Z</time></trkpt><trkpt lat="43.6134281" lon="12.3268875"><ele>708.4</ele><time>2026-05-01T10:56:58.78Z</time></trkpt><trkpt lat="43.6133545" lon="12.3268061"><ele>710.8</ele><time>2026-05-01T10:56:59.797Z</time></trkpt><trkpt lat="43.6132551" lon="12.326756"><ele>713.1999999999999</ele><time>2026-05-01T10:57:00.799Z</time></trkpt><trkpt lat="43.613145" lon="12.326712"><ele>715.5999999999999</ele><time>2026-05-01T10:57:01.809Z</time></trkpt><trkpt lat="43.6130453" lon="12.3266658"><ele>718.0</ele><time>2026-05-01T10:57:02.789Z</time></trkpt><trkpt lat="43.6129418" lon="12.3266053"><ele>718.0</ele><time>2026-05-01T10:57:03.792Z</time></trkpt><trkpt lat="43.6128457" lon="12.3265308"><ele>718.0</ele><time>2026-05-01T10:57:04.791Z</time></trkpt><trkpt lat="43.6127493" lon="12.326468"><ele>718.0</ele><time>2026-05-01T10:57:05.798Z</time></trkpt><trkpt lat="43.6126511" lon="12.3264354"><ele>718.0</ele><time>2026-05-01T10:57:06.787Z</time></trkpt><trkpt lat="43.6125547" lon="12.3264183"><ele>718.0</ele><time>2026-05-01T10:57:07.799Z</time></trkpt><trkpt lat="43.6124644" lon="12.3263841"><ele>719.8</ele><time>2026-05-01T10:57:08.792Z</time></trkpt><trkpt lat="43.6123789" lon="12.3263198"><ele>721.5999999999999</ele><time>2026-05-01T10:57:09.797Z</time></trkpt><trkpt lat="43.6123072" lon="12.3262235"><ele>723.4000000000001</ele><time>2026-05-01T10:57:10.793Z</time></trkpt><trkpt lat="43.6122456" lon="12.3261124"><ele>725.2</ele><time>2026-05-01T10:57:11.813Z</time></trkpt><trkpt lat="43.6121877" lon="12.3259839"><ele>727.0</ele><time>2026-05-01T10:57:12.779Z</time></trkpt><trkpt lat="43.6121334" lon="12.3258423"><ele>727.0</ele><time>2026-05-01T10:57:13.79Z</time></trkpt><trkpt lat="43.6120746" lon="12.3257142"><ele>727.0</ele><time>2026-05-01T10:57:14.771Z</time></trkpt><trkpt lat="43.6120121" lon="12.3255998"><ele>727.0</ele><time>2026-05-01T10:57:15.787Z</time></trkpt><trkpt lat="43.6119391" lon="12.325518"><ele>727.0</ele><time>2026-05-01T10:57:16.776Z</time></trkpt><trkpt lat="43.6118623" lon="12.3254798"><ele>727.0</ele><time>2026-05-01T10:57:17.784Z</time></trkpt><trkpt lat="43.6117743" lon="12.3254514"><ele>727.8</ele><time>2026-05-01T10:57:18.778Z</time></trkpt><trkpt lat="43.6116825" lon="12.3254544"><ele>728.6</ele><time>2026-05-01T10:57:19.78Z</time></trkpt><trkpt lat="43.6116063" lon="12.3255033"><ele>729.4</ele><time>2026-05-01T10:57:20.789Z</time></trkpt><trkpt lat="43.6115328" lon="12.3255927"><ele>730.1999999999999</ele><time>2026-05-01T10:57:21.776Z</time></trkpt><trkpt lat="43.611466" lon="12.3257094"><ele>731.0</ele><time>2026-05-01T10:57:22.783Z</time></trkpt><trkpt lat="43.6114009" lon="12.3258083"><ele>726.8</ele><time>2026-05-01T10:57:23.808Z</time></trkpt><trkpt lat="43.6113408" lon="12.3258841"><ele>722.5999999999999</ele><time>2026-05-01T10:57:24.779Z</time></trkpt><trkpt lat="43.6112811" lon="12.3259386"><ele>718.4</ele><time>2026-05-01T10:57:25.788Z</time></trkpt><trkpt lat="43.6111888" lon="12.3260246"><ele>714.2</ele><time>2026-05-01T10:57:27.786Z</time></trkpt><trkpt lat="43.6110888" lon="12.3260669"><ele>710.0</ele><time>2026-05-01T10:57:29.802Z</time></trkpt><trkpt lat="43.6110065" lon="12.3260088"><ele>709.6666666666666</ele><time>2026-05-01T10:57:31.799Z</time></trkpt><trkpt lat="43.6109499" lon="12.3258681"><ele>709.3333333333333</ele><time>2026-05-01T10:57:33.791Z</time></trkpt><trkpt lat="43.6109061" lon="12.3257916"><ele>709.0</ele><time>2026-05-01T10:57:34.78Z</time></trkpt><trkpt lat="43.6108598" lon="12.325716"><ele>708.6666666666666</ele><time>2026-05-01T10:57:35.797Z</time></trkpt><trkpt lat="43.6108066" lon="12.3256491"><ele>708.3333333333334</ele><time>2026-05-01T10:57:36.781Z</time></trkpt><trkpt lat="43.6107555" lon="12.3255623"><ele>708.0</ele><time>2026-05-01T10:57:37.79Z</time></trkpt><trkpt lat="43.6107045" lon="12.3254672"><ele>711.2</ele><time>2026-05-01T10:57:38.784Z</time></trkpt><trkpt lat="43.6106514" lon="12.3253418"><ele>714.4</ele><time>2026-05-01T10:57:39.797Z</time></trkpt><trkpt lat="43.6106006" lon="12.3252224"><ele>717.6</ele><time>2026-05-01T10:57:40.778Z</time></trkpt><trkpt lat="43.6105498" lon="12.3251063"><ele>720.8000000000001</ele><time>2026-05-01T10:57:41.791Z</time></trkpt><trkpt lat="43.6105083" lon="12.3250025"><ele>724.0</ele><time>2026-05-01T10:57:42.783Z</time></trkpt><trkpt lat="43.6104815" lon="12.3249064"><ele>724.0</ele><time>2026-05-01T10:57:43.79Z</time></trkpt><trkpt lat="43.6104588" lon="12.3248119"><ele>724.0</ele><time>2026-05-01T10:57:44.778Z</time></trkpt><trkpt lat="43.6103995" lon="12.3246787"><ele>724.0</ele><time>2026-05-01T10:57:46.778Z</time></trkpt><trkpt lat="43.6103053" lon="12.3246271"><ele>724.0</ele><time>2026-05-01T10:57:48.78Z</time></trkpt><trkpt lat="43.6102031" lon="12.3246288"><ele>724.0</ele><time>2026-05-01T10:57:50.779Z</time></trkpt><trkpt lat="43.6100937" lon="12.3246872"><ele>720.5</ele><time>2026-05-01T10:57:52.772Z</time></trkpt><trkpt lat="43.6100249" lon="12.3247316"><ele>717.0</ele><time>2026-05-01T10:57:53.786Z</time></trkpt><trkpt lat="43.609948" lon="12.3247676"><ele>713.5</ele><time>2026-05-01T10:57:54.772Z</time></trkpt><trkpt lat="43.6098598" lon="12.3247805"><ele>710.0</ele><time>2026-05-01T10:57:55.787Z</time></trkpt><trkpt lat="43.6097688" lon="12.3247912"><ele>706.5</ele><time>2026-05-01T10:57:56.776Z</time></trkpt><trkpt lat="43.6096714" lon="12.3247788"><ele>703.0</ele><time>2026-05-01T10:57:57.777Z</time></trkpt><trkpt lat="43.6095637" lon="12.3247601"><ele>702.2</ele><time>2026-05-01T10:57:58.774Z</time></trkpt><trkpt lat="43.6094599" lon="12.3247354"><ele>701.4</ele><time>2026-05-01T10:57:59.775Z</time></trkpt><trkpt lat="43.6093532" lon="12.3246969"><ele>700.6</ele><time>2026-05-01T10:58:00.777Z</time></trkpt><trkpt lat="43.6092556" lon="12.3246577"><ele>699.8000000000001</ele><time>2026-05-01T10:58:01.788Z</time></trkpt><trkpt lat="43.609167" lon="12.3246141"><ele>699.0</ele><time>2026-05-01T10:58:02.775Z</time></trkpt><trkpt lat="43.6090844" lon="12.3245812"><ele>703.0</ele><time>2026-05-01T10:58:03.778Z</time></trkpt><trkpt lat="43.6090018" lon="12.3245549"><ele>707.0</ele><time>2026-05-01T10:58:04.781Z</time></trkpt><trkpt lat="43.6089211" lon="12.3245601"><ele>711.0</ele><time>2026-05-01T10:58:05.782Z</time></trkpt><trkpt lat="43.6088321" lon="12.3245856"><ele>715.0</ele><time>2026-05-01T10:58:06.773Z</time></trkpt><trkpt lat="43.6087457" lon="12.3246243"><ele>719.0</ele><time>2026-05-01T10:58:07.777Z</time></trkpt><trkpt lat="43.6086602" lon="12.3246601"><ele>723.0</ele><time>2026-05-01T10:58:08.775Z</time></trkpt><trkpt lat="43.6085829" lon="12.3246861"><ele>723.0</ele><time>2026-05-01T10:58:09.783Z</time></trkpt><trkpt lat="43.6085027" lon="12.3246964"><ele>723.0</ele><time>2026-05-01T10:58:10.786Z</time></trkpt><trkpt lat="43.6084167" lon="12.324686"><ele>723.0</ele><time>2026-05-01T10:58:11.785Z</time></trkpt><trkpt lat="43.60832" lon="12.3246418"><ele>723.0</ele><time>2026-05-01T10:58:12.78Z</time></trkpt><trkpt lat="43.6082248" lon="12.3245878"><ele>723.0</ele><time>2026-05-01T10:58:13.786Z</time></trkpt><trkpt lat="43.6081437" lon="12.3245117"><ele>723.0</ele><time>2026-05-01T10:58:14.791Z</time></trkpt><trkpt lat="43.6080661" lon="12.324434"><ele>723.0</ele><time>2026-05-01T10:58:15.792Z</time></trkpt><trkpt lat="43.6079827" lon="12.3243881"><ele>723.0</ele><time>2026-05-01T10:58:16.782Z</time></trkpt><trkpt lat="43.6078924" lon="12.3243557"><ele>723.0</ele><time>2026-05-01T10:58:17.784Z</time></trkpt><trkpt lat="43.6077993" lon="12.3243328"><ele>723.0</ele><time>2026-05-01T10:58:18.783Z</time></trkpt><trkpt lat="43.6076891" lon="12.3243074"><ele>721.5999999999999</ele><time>2026-05-01T10:58:19.787Z</time></trkpt><trkpt lat="43.6075687" lon="12.3242929"><ele>720.1999999999999</ele><time>2026-05-01T10:58:20.773Z</time></trkpt><trkpt lat="43.607456" lon="12.3242771"><ele>718.8</ele><time>2026-05-01T10:58:21.781Z</time></trkpt><trkpt lat="43.6073413" lon="12.3242665"><ele>717.4</ele><time>2026-05-01T10:58:22.78Z</time></trkpt><trkpt lat="43.6072519" lon="12.3242592"><ele>716.0</ele><time>2026-05-01T10:58:23.783Z</time></trkpt><trkpt lat="43.607162" lon="12.3242359"><ele>716.0</ele><time>2026-05-01T10:58:24.781Z</time></trkpt><trkpt lat="43.6070774" lon="12.3241907"><ele>716.0</ele><time>2026-05-01T10:58:25.788Z</time></trkpt><trkpt lat="43.6069989" lon="12.3241141"><ele>716.0</ele><time>2026-05-01T10:58:26.783Z</time></trkpt><trkpt lat="43.606915" lon="12.3240102"><ele>716.0</ele><time>2026-05-01T10:58:27.787Z</time></trkpt><trkpt lat="43.6068406" lon="12.3238897"><ele>716.0</ele><time>2026-05-01T10:58:28.788Z</time></trkpt><trkpt lat="43.6067743" lon="12.3237856"><ele>717.0</ele><time>2026-05-01T10:58:29.781Z</time></trkpt><trkpt lat="43.60675" lon="12.3236749"><ele>718.0</ele><time>2026-05-01T10:58:30.774Z</time></trkpt><trkpt lat="43.6067553" lon="12.3235575"><ele>719.0</ele><time>2026-05-01T10:58:31.788Z</time></trkpt><trkpt lat="43.6067761" lon="12.3234285"><ele>720.0</ele><time>2026-05-01T10:58:32.77Z</time></trkpt><trkpt lat="43.6067746" lon="12.323315"><ele>721.0</ele><time>2026-05-01T10:58:33.793Z</time></trkpt><trkpt lat="43.6067405" lon="12.3232213"><ele>722.0</ele><time>2026-05-01T10:58:34.789Z</time></trkpt><trkpt lat="43.6066899" lon="12.3231349"><ele>722.4000000000001</ele><time>2026-05-01T10:58:35.778Z</time></trkpt><trkpt lat="43.606632" lon="12.3230633"><ele>722.8000000000001</ele><time>2026-05-01T10:58:36.788Z</time></trkpt><trkpt lat="43.6065564" lon="12.3229881"><ele>723.2</ele><time>2026-05-01T10:58:37.781Z</time></trkpt><trkpt lat="43.6064833" lon="12.3228908"><ele>723.6</ele><time>2026-05-01T10:58:38.781Z</time></trkpt><trkpt lat="43.6064272" lon="12.322766"><ele>724.0</ele><time>2026-05-01T10:58:39.788Z</time></trkpt><trkpt lat="43.6063967" lon="12.322629"><ele>724.0</ele><time>2026-05-01T10:58:40.779Z</time></trkpt><trkpt lat="43.6063704" lon="12.3224838"><ele>724.0</ele><time>2026-05-01T10:58:41.78Z</time></trkpt><trkpt lat="43.6063462" lon="12.3223332"><ele>724.0</ele><time>2026-05-01T10:58:42.775Z</time></trkpt><trkpt lat="43.6063216" lon="12.3221941"><ele>724.0</ele><time>2026-05-01T10:58:43.78Z</time></trkpt><trkpt lat="43.6062953" lon="12.322067"><ele>724.0</ele><time>2026-05-01T10:58:44.78Z</time></trkpt><trkpt lat="43.6062614" lon="12.3219598"><ele>727.2</ele><time>2026-05-01T10:58:45.792Z</time></trkpt><trkpt lat="43.6062068" lon="12.3218718"><ele>730.4000000000001</ele><time>2026-05-01T10:58:46.785Z</time></trkpt><trkpt lat="43.606133" lon="12.3217805"><ele>733.6</ele><time>2026-05-01T10:58:47.805Z</time></trkpt><trkpt lat="43.6060578" lon="12.3216748"><ele>736.8</ele><time>2026-05-01T10:58:48.787Z</time></trkpt><trkpt lat="43.606009" lon="12.3215469"><ele>740.0</ele><time>2026-05-01T10:58:49.776Z</time></trkpt><trkpt lat="43.605975" lon="12.3214087"><ele>740.8</ele><time>2026-05-01T10:58:50.779Z</time></trkpt><trkpt lat="43.6059285" lon="12.3212765"><ele>741.6</ele><time>2026-05-01T10:58:51.787Z</time></trkpt><trkpt lat="43.6058754" lon="12.3211475"><ele>742.4000000000001</ele><time>2026-05-01T10:58:52.785Z</time></trkpt><trkpt lat="43.605812" lon="12.3210382"><ele>743.2</ele><time>2026-05-01T10:58:53.782Z</time></trkpt><trkpt lat="43.6057377" lon="12.3209458"><ele>744.0</ele><time>2026-05-01T10:58:54.784Z</time></trkpt><trkpt lat="43.6056504" lon="12.3208603"><ele>744.0</ele><time>2026-05-01T10:58:55.78Z</time></trkpt><trkpt lat="43.605549" lon="12.32077"><ele>744.0</ele><time>2026-05-01T10:58:56.782Z</time></trkpt><trkpt lat="43.605434" lon="12.3206819"><ele>744.0</ele><time>2026-05-01T10:58:57.784Z</time></trkpt><trkpt lat="43.6053295" lon="12.3205757"><ele>744.0</ele><time>2026-05-01T10:58:58.79Z</time></trkpt><trkpt lat="43.6052557" lon="12.3204829"><ele>746.6</ele><time>2026-05-01T10:58:59.803Z</time></trkpt><trkpt lat="43.6051944" lon="12.3203901"><ele>749.2</ele><time>2026-05-01T10:59:00.785Z</time></trkpt><trkpt lat="43.6051493" lon="12.3202788"><ele>751.8000000000001</ele><time>2026-05-01T10:59:01.789Z</time></trkpt><trkpt lat="43.6051278" lon="12.3201331"><ele>754.4000000000001</ele><time>2026-05-01T10:59:02.78Z</time></trkpt><trkpt lat="43.6050983" lon="12.3199968"><ele>757.0</ele><time>2026-05-01T10:59:03.791Z</time></trkpt><trkpt lat="43.6050748" lon="12.3198614"><ele>757.0</ele><time>2026-05-01T10:59:04.782Z</time></trkpt><trkpt lat="43.6050429" lon="12.319743"><ele>757.0</ele><time>2026-05-01T10:59:05.793Z</time></trkpt><trkpt lat="43.6050089" lon="12.319621"><ele>757.0</ele><time>2026-05-01T10:59:06.785Z</time></trkpt><trkpt lat="43.6049886" lon="12.319481"><ele>757.0</ele><time>2026-05-01T10:59:07.781Z</time></trkpt><trkpt lat="43.6050089" lon="12.3193575"><ele>757.0</ele><time>2026-05-01T10:59:08.789Z</time></trkpt><trkpt lat="43.6050479" lon="12.3192546"><ele>757.2</ele><time>2026-05-01T10:59:09.802Z</time></trkpt><trkpt lat="43.6051076" lon="12.3191545"><ele>757.4000000000001</ele><time>2026-05-01T10:59:10.78Z</time></trkpt><trkpt lat="43.6051474" lon="12.3190609"><ele>757.5999999999999</ele><time>2026-05-01T10:59:11.787Z</time></trkpt><trkpt lat="43.6051185" lon="12.3189327"><ele>757.8</ele><time>2026-05-01T10:59:13.796Z</time></trkpt><trkpt lat="43.6050455" lon="12.3189603"><ele>758.0</ele><time>2026-05-01T10:59:15.787Z</time></trkpt><trkpt lat="43.6049634" lon="12.3190904"><ele>758.0</ele><time>2026-05-01T10:59:17.787Z</time></trkpt><trkpt lat="43.6049009" lon="12.3191564"><ele>758.0</ele><time>2026-05-01T10:59:18.785Z</time></trkpt><trkpt lat="43.6048187" lon="12.3192087"><ele>758.0</ele><time>2026-05-01T10:59:19.789Z</time></trkpt><trkpt lat="43.6047375" lon="12.3192624"><ele>758.0</ele><time>2026-05-01T10:59:20.781Z</time></trkpt><trkpt lat="43.6046634" lon="12.3193022"><ele>758.0</ele><time>2026-05-01T10:59:21.79Z</time></trkpt><trkpt lat="43.6045938" lon="12.3193339"><ele>758.0</ele><time>2026-05-01T10:59:22.78Z</time></trkpt><trkpt lat="43.6045341" lon="12.3192967"><ele>758.0</ele><time>2026-05-01T10:59:24.789Z</time></trkpt><trkpt lat="43.6046204" lon="12.3192188"><ele>758.0</ele><time>2026-05-01T10:59:26.782Z</time></trkpt><trkpt lat="43.6047036" lon="12.3191523"><ele>758.0</ele><time>2026-05-01T10:59:27.798Z</time></trkpt><trkpt lat="43.6048016" lon="12.3190683"><ele>758.0</ele><time>2026-05-01T10:59:28.788Z</time></trkpt><trkpt lat="43.6048587" lon="12.3189664"><ele>758.0</ele><time>2026-05-01T10:59:29.796Z</time></trkpt><trkpt lat="43.6048955" lon="12.3188317"><ele>759.6666666666666</ele><time>2026-05-01T10:59:30.79Z</time></trkpt><trkpt lat="43.6049143" lon="12.318714"><ele>761.3333333333333</ele><time>2026-05-01T10:59:31.784Z</time></trkpt><trkpt lat="43.6049201" lon="12.3186096"><ele>763.0</ele><time>2026-05-01T10:59:32.779Z</time></trkpt><trkpt lat="43.6049015" lon="12.3185151"><ele>764.6666666666666</ele><time>2026-05-01T10:59:33.81Z</time></trkpt><trkpt lat="43.6048621" lon="12.3184199"><ele>766.3333333333334</ele><time>2026-05-01T10:59:34.796Z</time></trkpt><trkpt lat="43.6048054" lon="12.3183282"><ele>768.0</ele><time>2026-05-01T10:59:35.804Z</time></trkpt><trkpt lat="43.6047404" lon="12.3182235"><ele>768.0</ele><time>2026-05-01T10:59:36.78Z</time></trkpt><trkpt lat="43.6046733" lon="12.3181089"><ele>768.0</ele><time>2026-05-01T10:59:37.799Z</time></trkpt><trkpt lat="43.6046007" lon="12.3179585"><ele>768.0</ele><time>2026-05-01T10:59:38.798Z</time></trkpt><trkpt lat="43.6045484" lon="12.3177947"><ele>768.0</ele><time>2026-05-01T10:59:39.802Z</time></trkpt><trkpt lat="43.604508" lon="12.3176478"><ele>774.0</ele><time>2026-05-01T10:59:40.79Z</time></trkpt><trkpt lat="43.6044765" lon="12.3175071"><ele>780.0</ele><time>2026-05-01T10:59:41.793Z</time></trkpt><trkpt lat="43.6044404" lon="12.3173679"><ele>786.0</ele><time>2026-05-01T10:59:42.786Z</time></trkpt><trkpt lat="43.6044079" lon="12.3172324"><ele>792.0</ele><time>2026-05-01T10:59:43.796Z</time></trkpt><trkpt lat="43.6043912" lon="12.3170723"><ele>798.0</ele><time>2026-05-01T10:59:44.781Z</time></trkpt><trkpt lat="43.6043927" lon="12.3169083"><ele>798.0</ele><time>2026-05-01T10:59:45.788Z</time></trkpt><trkpt lat="43.6043902" lon="12.3167305"><ele>798.0</ele><time>2026-05-01T10:59:46.793Z</time></trkpt><trkpt lat="43.6043811" lon="12.3165594"><ele>798.0</ele><time>2026-05-01T10:59:47.792Z</time></trkpt><trkpt lat="43.6043759" lon="12.3164194"><ele>798.0</ele><time>2026-05-01T10:59:48.787Z</time></trkpt><trkpt lat="43.6043936" lon="12.3163052"><ele>798.0</ele><time>2026-05-01T10:59:49.788Z</time></trkpt><trkpt lat="43.6044174" lon="12.3161985"><ele>799.4</ele><time>2026-05-01T10:59:50.78Z</time></trkpt><trkpt lat="43.6044499" lon="12.316108"><ele>800.8</ele><time>2026-05-01T10:59:51.788Z</time></trkpt><trkpt lat="43.6045494" lon="12.3160457"><ele>802.2</ele><time>2026-05-01T10:59:53.78Z</time></trkpt><trkpt lat="43.6046663" lon="12.3160588"><ele>803.6</ele><time>2026-05-01T10:59:55.797Z</time></trkpt><trkpt lat="43.6046671" lon="12.3159619"><ele>805.0</ele><time>2026-05-01T10:59:58.781Z</time></trkpt><trkpt lat="43.6045613" lon="12.3159135"><ele>805.0</ele><time>2026-05-01T11:00:00.808Z</time></trkpt><trkpt lat="43.6044858" lon="12.3158959"><ele>805.0</ele><time>2026-05-01T11:00:01.814Z</time></trkpt><trkpt lat="43.6043962" lon="12.3158711"><ele>805.0</ele><time>2026-05-01T11:00:03.794Z</time></trkpt><trkpt lat="43.6043302" lon="12.3159058"><ele>805.0</ele><time>2026-05-01T11:00:05.804Z</time></trkpt><trkpt lat="43.6042395" lon="12.3160009"><ele>805.0</ele><time>2026-05-01T11:00:07.793Z</time></trkpt><trkpt lat="43.60415" lon="12.3161104"><ele>805.0</ele><time>2026-05-01T11:00:09.815Z</time></trkpt><trkpt lat="43.60408" lon="12.3161436"><ele>805.0</ele><time>2026-05-01T11:00:11.792Z</time></trkpt><trkpt lat="43.6040404" lon="12.3160286"><ele>805.0</ele><time>2026-05-01T11:00:14.794Z</time></trkpt><trkpt lat="43.604079" lon="12.3159083"><ele>805.0</ele><time>2026-05-01T11:00:16.825Z</time></trkpt><trkpt lat="43.6041205" lon="12.3157692"><ele>805.0</ele><time>2026-05-01T11:00:18.797Z</time></trkpt><trkpt lat="43.604167" lon="12.3156047"><ele>807.9999999999999</ele><time>2026-05-01T11:00:20.793Z</time></trkpt><trkpt lat="43.6041983" lon="12.3155164"><ele>811.0</ele><time>2026-05-01T11:00:21.79Z</time></trkpt><trkpt lat="43.6042299" lon="12.3154254"><ele>814.0</ele><time>2026-05-01T11:00:22.79Z</time></trkpt><trkpt lat="43.6042677" lon="12.3153329"><ele>817.0</ele><time>2026-05-01T11:00:23.795Z</time></trkpt><trkpt lat="43.6043117" lon="12.3152572"><ele>819.9999999999999</ele><time>2026-05-01T11:00:24.799Z</time></trkpt><trkpt lat="43.6044071" lon="12.3152542"><ele>823.0</ele><time>2026-05-01T11:00:26.778Z</time></trkpt><trkpt lat="43.604509" lon="12.3153501"><ele>824.3333333333333</ele><time>2026-05-01T11:00:28.786Z</time></trkpt><trkpt lat="43.6045591" lon="12.3154036"><ele>825.6666666666666</ele><time>2026-05-01T11:00:29.792Z</time></trkpt><trkpt lat="43.6046219" lon="12.3154337"><ele>827.0</ele><time>2026-05-01T11:00:30.791Z</time></trkpt><trkpt lat="43.6046847" lon="12.3154271"><ele>828.3333333333333</ele><time>2026-05-01T11:00:31.789Z</time></trkpt><trkpt lat="43.6048047" lon="12.3153671"><ele>829.6666666666666</ele><time>2026-05-01T11:00:33.797Z</time></trkpt><trkpt lat="43.6048927" lon="12.3153266"><ele>831.0</ele><time>2026-05-01T11:00:34.794Z</time></trkpt><trkpt lat="43.6049803" lon="12.3152984"><ele>831.0</ele><time>2026-05-01T11:00:35.796Z</time></trkpt><trkpt lat="43.6050588" lon="12.3152816"><ele>831.0</ele><time>2026-05-01T11:00:36.795Z</time></trkpt><trkpt lat="43.6051242" lon="12.3152969"><ele>831.0</ele><time>2026-05-01T11:00:37.789Z</time></trkpt><trkpt lat="43.6051914" lon="12.3153316"><ele>831.0</ele><time>2026-05-01T11:00:38.793Z</time></trkpt><trkpt lat="43.6052574" lon="12.3154002"><ele>831.0</ele><time>2026-05-01T11:00:39.782Z</time></trkpt><trkpt lat="43.6053151" lon="12.3155056"><ele>831.0</ele><time>2026-05-01T11:00:40.779Z</time></trkpt><trkpt lat="43.6053423" lon="12.3156278"><ele>827.3333333333334</ele><time>2026-05-01T11:00:41.78Z</time></trkpt><trkpt lat="43.6053563" lon="12.3157402"><ele>823.6666666666667</ele><time>2026-05-01T11:00:42.772Z</time></trkpt><trkpt lat="43.6053774" lon="12.3158305"><ele>820.0</ele><time>2026-05-01T11:00:43.783Z</time></trkpt><trkpt lat="43.6054099" lon="12.3159056"><ele>816.3333333333334</ele><time>2026-05-01T11:00:44.778Z</time></trkpt><trkpt lat="43.6055093" lon="12.3159571"><ele>812.6666666666667</ele><time>2026-05-01T11:00:46.78Z</time></trkpt><trkpt lat="43.605598" lon="12.3159269"><ele>809.0</ele><time>2026-05-01T11:00:48.78Z</time></trkpt><trkpt lat="43.6056776" lon="12.3158193"><ele>809.0000000000001</ele><time>2026-05-01T11:00:50.784Z</time></trkpt><trkpt lat="43.6057154" lon="12.315743"><ele>809.0</ele><time>2026-05-01T11:00:51.788Z</time></trkpt><trkpt lat="43.6057611" lon="12.3156487"><ele>809.0</ele><time>2026-05-01T11:00:52.78Z</time></trkpt><trkpt lat="43.605797" lon="12.3155443"><ele>809.0</ele><time>2026-05-01T11:00:53.78Z</time></trkpt><trkpt lat="43.6058335" lon="12.3154287"><ele>809.0000000000001</ele><time>2026-05-01T11:00:54.776Z</time></trkpt><trkpt lat="43.6058607" lon="12.3153024"><ele>809.0</ele><time>2026-05-01T11:00:55.785Z</time></trkpt><trkpt lat="43.605877" lon="12.3151704"><ele>813.6</ele><time>2026-05-01T11:00:56.786Z</time></trkpt><trkpt lat="43.6058906" lon="12.3150397"><ele>818.2</ele><time>2026-05-01T11:00:57.788Z</time></trkpt><trkpt lat="43.6059066" lon="12.3149094"><ele>822.8000000000001</ele><time>2026-05-01T11:00:58.795Z</time></trkpt><trkpt lat="43.6059134" lon="12.3147813"><ele>827.4000000000001</ele><time>2026-05-01T11:00:59.799Z</time></trkpt><trkpt lat="43.6059244" lon="12.314651"><ele>832.0</ele><time>2026-05-01T11:01:00.782Z</time></trkpt><trkpt lat="43.6059388" lon="12.3145349"><ele>834.0</ele><time>2026-05-01T11:01:01.785Z</time></trkpt><trkpt lat="43.6059599" lon="12.3144359"><ele>836.0</ele><time>2026-05-01T11:01:02.783Z</time></trkpt><trkpt lat="43.6059914" lon="12.3143577"><ele>838.0</ele><time>2026-05-01T11:01:03.784Z</time></trkpt><trkpt lat="43.6060477" lon="12.3143139"><ele>840.0</ele><time>2026-05-01T11:01:04.775Z</time></trkpt><trkpt lat="43.6061138" lon="12.3142912"><ele>842.0</ele><time>2026-05-01T11:01:05.794Z</time></trkpt><trkpt lat="43.6061752" lon="12.3142632"><ele>844.0</ele><time>2026-05-01T11:01:06.778Z</time></trkpt><trkpt lat="43.606236" lon="12.3142123"><ele>846.0</ele><time>2026-05-01T11:01:07.788Z</time></trkpt><trkpt lat="43.6062819" lon="12.3141392"><ele>846.0</ele><time>2026-05-01T11:01:08.777Z</time></trkpt><trkpt lat="43.6063376" lon="12.3140603"><ele>846.0</ele><time>2026-05-01T11:01:09.783Z</time></trkpt><trkpt lat="43.6064013" lon="12.314005"><ele>846.0</ele><time>2026-05-01T11:01:10.783Z</time></trkpt><trkpt lat="43.6064743" lon="12.3140037"><ele>846.0</ele><time>2026-05-01T11:01:11.781Z</time></trkpt><trkpt lat="43.6065482" lon="12.3140404"><ele>846.0</ele><time>2026-05-01T11:01:12.776Z</time></trkpt><trkpt lat="43.6066103" lon="12.3141026"><ele>846.0</ele><time>2026-05-01T11:01:13.781Z</time></trkpt><trkpt lat="43.6066669" lon="12.3141692"><ele>846.0</ele><time>2026-05-01T11:01:14.761Z</time></trkpt><trkpt lat="43.6067309" lon="12.3141788"><ele>846.0</ele><time>2026-05-01T11:01:15.782Z</time></trkpt><trkpt lat="43.6068111" lon="12.3141315"><ele>846.0</ele><time>2026-05-01T11:01:16.781Z</time></trkpt><trkpt lat="43.606896" lon="12.3140606"><ele>846.0</ele><time>2026-05-01T11:01:17.781Z</time></trkpt><trkpt lat="43.6069839" lon="12.3140028"><ele>846.0</ele><time>2026-05-01T11:01:18.777Z</time></trkpt><trkpt lat="43.6070804" lon="12.3139625"><ele>846.0</ele><time>2026-05-01T11:01:19.781Z</time></trkpt><trkpt lat="43.6071791" lon="12.3139298"><ele>847.8333333333334</ele><time>2026-05-01T11:01:20.779Z</time></trkpt><trkpt lat="43.6072747" lon="12.313892"><ele>849.6666666666667</ele><time>2026-05-01T11:01:21.789Z</time></trkpt><trkpt lat="43.6073646" lon="12.3138504"><ele>851.5</ele><time>2026-05-01T11:01:22.774Z</time></trkpt><trkpt lat="43.6074384" lon="12.3138155"><ele>853.3333333333334</ele><time>2026-05-01T11:01:23.785Z</time></trkpt><trkpt lat="43.6075085" lon="12.313842"><ele>855.1666666666667</ele><time>2026-05-01T11:01:24.778Z</time></trkpt><trkpt lat="43.6075663" lon="12.3139006"><ele>857.0</ele><time>2026-05-01T11:01:25.783Z</time></trkpt><trkpt lat="43.6076188" lon="12.3139865"><ele>857.0000000000001</ele><time>2026-05-01T11:01:26.78Z</time></trkpt><trkpt lat="43.6076675" lon="12.3140742"><ele>857.0</ele><time>2026-05-01T11:01:27.789Z</time></trkpt><trkpt lat="43.6077224" lon="12.3141469"><ele>857.0</ele><time>2026-05-01T11:01:28.779Z</time></trkpt><trkpt lat="43.6077905" lon="12.3141973"><ele>857.0</ele><time>2026-05-01T11:01:29.788Z</time></trkpt><trkpt lat="43.6078702" lon="12.3142428"><ele>857.0000000000001</ele><time>2026-05-01T11:01:30.788Z</time></trkpt><trkpt lat="43.6079401" lon="12.3142906"><ele>857.0</ele><time>2026-05-01T11:01:31.786Z</time></trkpt><trkpt lat="43.6079861" lon="12.3143738"><ele>861.3333333333334</ele><time>2026-05-01T11:01:32.787Z</time></trkpt><trkpt lat="43.607989" lon="12.3144762"><ele>865.6666666666667</ele><time>2026-05-01T11:01:33.794Z</time></trkpt><trkpt lat="43.6079861" lon="12.314583"><ele>870.0</ele><time>2026-05-01T11:01:34.783Z</time></trkpt><trkpt lat="43.6079628" lon="12.3147087"><ele>874.3333333333333</ele><time>2026-05-01T11:01:35.786Z</time></trkpt><trkpt lat="43.6079413" lon="12.3148294"><ele>878.6666666666666</ele><time>2026-05-01T11:01:36.783Z</time></trkpt><trkpt lat="43.6079218" lon="12.3149309"><ele>883.0</ele><time>2026-05-01T11:01:37.798Z</time></trkpt><trkpt lat="43.6080046" lon="12.3148879"><ele>882.9999999999999</ele><time>2026-05-01T11:01:41.788Z</time></trkpt><trkpt lat="43.608026" lon="12.3148003"><ele>883.0</ele><time>2026-05-01T11:01:42.779Z</time></trkpt><trkpt lat="43.6080473" lon="12.3146948"><ele>883.0</ele><time>2026-05-01T11:01:43.786Z</time></trkpt><trkpt lat="43.6080796" lon="12.3145801"><ele>883.0</ele><time>2026-05-01T11:01:44.787Z</time></trkpt><trkpt lat="43.6081146" lon="12.3144668"><ele>882.9999999999999</ele><time>2026-05-01T11:01:45.785Z</time></trkpt><trkpt lat="43.6081301" lon="12.3143681"><ele>883.0</ele><time>2026-05-01T11:01:46.777Z</time></trkpt><trkpt lat="43.6081148" lon="12.3142735"><ele>882.9999999999999</ele><time>2026-05-01T11:01:47.789Z</time></trkpt><trkpt lat="43.6080642" lon="12.3141677"><ele>883.0</ele><time>2026-05-01T11:01:48.783Z</time></trkpt><trkpt lat="43.6079882" lon="12.3140685"><ele>883.0</ele><time>2026-05-01T11:01:49.786Z</time></trkpt><trkpt lat="43.6079072" lon="12.3139773"><ele>883.0</ele><time>2026-05-01T11:01:50.783Z</time></trkpt><trkpt lat="43.6078614" lon="12.3138963"><ele>882.9999999999999</ele><time>2026-05-01T11:01:51.813Z</time></trkpt><trkpt lat="43.6078349" lon="12.3138061"><ele>883.0</ele><time>2026-05-01T11:01:52.79Z</time></trkpt><trkpt lat="43.6078199" lon="12.3136949"><ele>881.1666666666666</ele><time>2026-05-01T11:01:53.783Z</time></trkpt><trkpt lat="43.6078137" lon="12.3135729"><ele>879.3333333333333</ele><time>2026-05-01T11:01:54.788Z</time></trkpt><trkpt lat="43.6077928" lon="12.3134639"><ele>877.5</ele><time>2026-05-01T11:01:55.786Z</time></trkpt><trkpt lat="43.6077404" lon="12.3133287"><ele>875.6666666666667</ele><time>2026-05-01T11:01:57.792Z</time></trkpt><trkpt lat="43.6076934" lon="12.3132338"><ele>873.8333333333334</ele><time>2026-05-01T11:01:59.79Z</time></trkpt><trkpt lat="43.6076463" lon="12.3131586"><ele>872.0</ele><time>2026-05-01T11:02:02.788Z</time></trkpt><trkpt lat="43.6075767" lon="12.3131592"><ele>872.0</ele><time>2026-05-01T11:19:06.784Z</time></trkpt><trkpt lat="43.6075138" lon="12.313227"><ele>872.0</ele><time>2026-05-01T11:19:09.798Z</time></trkpt><trkpt lat="43.6074139" lon="12.3132722"><ele>872.0</ele><time>2026-05-01T11:19:11.796Z</time></trkpt><trkpt lat="43.6072865" lon="12.313294"><ele>872.0</ele><time>2026-05-01T11:19:13.794Z</time></trkpt><trkpt lat="43.6072088" lon="12.3133067"><ele>872.0</ele><time>2026-05-01T11:19:14.784Z</time></trkpt><trkpt lat="43.6071205" lon="12.3133164"><ele>872.0</ele><time>2026-05-01T11:19:15.795Z</time></trkpt><trkpt lat="43.6070457" lon="12.3133133"><ele>872.0</ele><time>2026-05-01T11:19:16.78Z</time></trkpt><trkpt lat="43.6069341" lon="12.3132962"><ele>872.0</ele><time>2026-05-01T11:19:18.798Z</time></trkpt><trkpt lat="43.6068349" lon="12.3132397"><ele>872.0</ele><time>2026-05-01T11:19:20.798Z</time></trkpt><trkpt lat="43.6067396" lon="12.3131678"><ele>872.0</ele><time>2026-05-01T11:19:22.806Z</time></trkpt><trkpt lat="43.6066225" lon="12.3131295"><ele>871.8</ele><time>2026-05-01T11:19:24.813Z</time></trkpt><trkpt lat="43.6065329" lon="12.3131297"><ele>871.6</ele><time>2026-05-01T11:19:25.795Z</time></trkpt><trkpt lat="43.6064369" lon="12.3131462"><ele>871.3999999999999</ele><time>2026-05-01T11:19:26.798Z</time></trkpt><trkpt lat="43.6063442" lon="12.3131596"><ele>871.1999999999999</ele><time>2026-05-01T11:19:27.791Z</time></trkpt><trkpt lat="43.6062548" lon="12.3131834"><ele>871.0</ele><time>2026-05-01T11:19:28.793Z</time></trkpt><trkpt lat="43.6061636" lon="12.3132194"><ele>872.1666666666666</ele><time>2026-05-01T11:19:29.802Z</time></trkpt><trkpt lat="43.6060727" lon="12.3132728"><ele>873.3333333333333</ele><time>2026-05-01T11:19:30.785Z</time></trkpt><trkpt lat="43.6059771" lon="12.3133186"><ele>874.5</ele><time>2026-05-01T11:19:31.802Z</time></trkpt><trkpt lat="43.6058841" lon="12.313334"><ele>875.6666666666667</ele><time>2026-05-01T11:19:32.781Z</time></trkpt><trkpt lat="43.6058119" lon="12.3133386"><ele>876.8333333333334</ele><time>2026-05-01T11:19:33.784Z</time></trkpt><trkpt lat="43.6057313" lon="12.3133137"><ele>878.0</ele><time>2026-05-01T11:19:34.78Z</time></trkpt><trkpt lat="43.6056479" lon="12.3132784"><ele>878.0</ele><time>2026-05-01T11:19:35.792Z</time></trkpt><trkpt lat="43.6055508" lon="12.3132465"><ele>878.0</ele><time>2026-05-01T11:19:36.78Z</time></trkpt><trkpt lat="43.6054537" lon="12.3132108"><ele>878.0</ele><time>2026-05-01T11:19:37.777Z</time></trkpt><trkpt lat="43.6053631" lon="12.3131916"><ele>878.0</ele><time>2026-05-01T11:19:38.779Z</time></trkpt><trkpt lat="43.6052774" lon="12.3131769"><ele>878.0</ele><time>2026-05-01T11:19:39.788Z</time></trkpt><trkpt lat="43.605191" lon="12.313154"><ele>878.8</ele><time>2026-05-01T11:19:40.778Z</time></trkpt><trkpt lat="43.6051024" lon="12.3131229"><ele>879.5999999999999</ele><time>2026-05-01T11:19:41.794Z</time></trkpt><trkpt lat="43.6050064" lon="12.3130869"><ele>880.4000000000001</ele><time>2026-05-01T11:19:42.775Z</time></trkpt><trkpt lat="43.6049077" lon="12.3130461"><ele>881.2</ele><time>2026-05-01T11:19:43.784Z</time></trkpt><trkpt lat="43.6048183" lon="12.3130023"><ele>882.0</ele><time>2026-05-01T11:19:44.777Z</time></trkpt><trkpt lat="43.6047302" lon="12.3129562"><ele>882.2</ele><time>2026-05-01T11:19:45.787Z</time></trkpt><trkpt lat="43.6046544" lon="12.3129132"><ele>882.4000000000001</ele><time>2026-05-01T11:19:46.781Z</time></trkpt><trkpt lat="43.6045819" lon="12.3128737"><ele>882.5999999999999</ele><time>2026-05-01T11:19:47.792Z</time></trkpt><trkpt lat="43.6045131" lon="12.3128383"><ele>882.8</ele><time>2026-05-01T11:19:48.779Z</time></trkpt><trkpt lat="43.6044017" lon="12.3127955"><ele>883.0</ele><time>2026-05-01T11:19:50.781Z</time></trkpt><trkpt lat="43.6042978" lon="12.3127736"><ele>884.4</ele><time>2026-05-01T11:19:52.81Z</time></trkpt><trkpt lat="43.6042073" lon="12.3127304"><ele>885.8</ele><time>2026-05-01T11:19:54.787Z</time></trkpt><trkpt lat="43.6041503" lon="12.3126351"><ele>887.2</ele><time>2026-05-01T11:19:56.788Z</time></trkpt><trkpt lat="43.6041166" lon="12.3125149"><ele>888.6</ele><time>2026-05-01T11:19:58.788Z</time></trkpt><trkpt lat="43.6040294" lon="12.3124632"><ele>890.0</ele><time>2026-05-01T11:20:00.781Z</time></trkpt><trkpt lat="43.6039175" lon="12.3124295"><ele>890.0</ele><time>2026-05-01T11:20:02.784Z</time></trkpt><trkpt lat="43.6038499" lon="12.3124401"><ele>890.0</ele><time>2026-05-01T11:20:16.784Z</time></trkpt><trkpt lat="43.6037863" lon="12.3124956"><ele>890.0</ele><time>2026-05-01T11:20:18.779Z</time></trkpt><trkpt lat="43.6036892" lon="12.3125761"><ele>890.0</ele><time>2026-05-01T11:20:20.786Z</time></trkpt><trkpt lat="43.6035637" lon="12.3125896"><ele>890.0</ele><time>2026-05-01T11:20:22.785Z</time></trkpt><trkpt lat="43.6034948" lon="12.3125594"><ele>892.0000000000001</ele><time>2026-05-01T11:20:23.797Z</time></trkpt><trkpt lat="43.6034283" lon="12.312536"><ele>894.0</ele><time>2026-05-01T11:20:24.785Z</time></trkpt><trkpt lat="43.6033645" lon="12.3125237"><ele>896.0</ele><time>2026-05-01T11:20:25.786Z</time></trkpt><trkpt lat="43.6032928" lon="12.3125407"><ele>898.0</ele><time>2026-05-01T11:20:26.784Z</time></trkpt><trkpt lat="43.6032257" lon="12.3125666"><ele>900.0000000000001</ele><time>2026-05-01T11:20:27.798Z</time></trkpt><trkpt lat="43.6031221" lon="12.3126577"><ele>902.0</ele><time>2026-05-01T11:20:29.788Z</time></trkpt><trkpt lat="43.6030756" lon="12.3127205"><ele>902.0</ele><time>2026-05-01T11:20:30.772Z</time></trkpt><trkpt lat="43.6029931" lon="12.3128344"><ele>902.0</ele><time>2026-05-01T11:20:32.786Z</time></trkpt><trkpt lat="43.602904" lon="12.3129347"><ele>902.0</ele><time>2026-05-01T11:20:34.789Z</time></trkpt><trkpt lat="43.6028172" lon="12.3130209"><ele>902.0</ele><time>2026-05-01T11:20:36.782Z</time></trkpt><trkpt lat="43.602724" lon="12.3131283"><ele>904.6666666666667</ele><time>2026-05-01T11:20:38.787Z</time></trkpt><trkpt lat="43.6026698" lon="12.3132044"><ele>907.3333333333334</ele><time>2026-05-01T11:20:39.788Z</time></trkpt><trkpt lat="43.6026163" lon="12.3132924"><ele>910.0</ele><time>2026-05-01T11:20:40.784Z</time></trkpt><trkpt lat="43.6025569" lon="12.3133894"><ele>912.6666666666667</ele><time>2026-05-01T11:20:41.799Z</time></trkpt><trkpt lat="43.6025028" lon="12.3134789"><ele>915.3333333333334</ele><time>2026-05-01T11:20:42.79Z</time></trkpt><trkpt lat="43.6024615" lon="12.3135482"><ele>918.0</ele><time>2026-05-01T11:20:43.794Z</time></trkpt><trkpt lat="43.6024083" lon="12.3136025"><ele>918.0</ele><time>2026-05-01T11:20:44.782Z</time></trkpt><trkpt lat="43.602284" lon="12.3136274"><ele>918.0</ele><time>2026-05-01T11:20:46.786Z</time></trkpt><trkpt lat="43.6022179" lon="12.3136156"><ele>918.0</ele><time>2026-05-01T11:20:47.818Z</time></trkpt><trkpt lat="43.6021487" lon="12.3135888"><ele>918.0</ele><time>2026-05-01T11:20:48.793Z</time></trkpt><trkpt lat="43.6020863" lon="12.3135434"><ele>918.0</ele><time>2026-05-01T11:20:49.795Z</time></trkpt><trkpt lat="43.6020307" lon="12.3134831"><ele>918.0</ele><time>2026-05-01T11:20:50.787Z</time></trkpt><trkpt lat="43.6019426" lon="12.31337"><ele>917.3333333333334</ele><time>2026-05-01T11:20:52.79Z</time></trkpt><trkpt lat="43.6018581" lon="12.3132738"><ele>916.6666666666667</ele><time>2026-05-01T11:20:54.779Z</time></trkpt><trkpt lat="43.6018155" lon="12.3131891"><ele>916.0</ele><time>2026-05-01T11:20:56.784Z</time></trkpt><trkpt lat="43.6018002" lon="12.3130979"><ele>915.3333333333334</ele><time>2026-05-01T11:20:58.783Z</time></trkpt><trkpt lat="43.6017708" lon="12.3130019"><ele>914.6666666666667</ele><time>2026-05-01T11:21:00.782Z</time></trkpt><trkpt lat="43.6016949" lon="12.3129142"><ele>914.0</ele><time>2026-05-01T11:21:02.78Z</time></trkpt><trkpt lat="43.6015971" lon="12.3128708"><ele>914.0000000000001</ele><time>2026-05-01T11:21:04.792Z</time></trkpt><trkpt lat="43.6015442" lon="12.312822"><ele>914.0</ele><time>2026-05-01T11:21:07.789Z</time></trkpt><trkpt lat="43.6014697" lon="12.3127276"><ele>914.0</ele><time>2026-05-01T11:21:11.802Z</time></trkpt><trkpt lat="43.6014103" lon="12.312647"><ele>914.0</ele><time>2026-05-01T11:21:14.785Z</time></trkpt><trkpt lat="43.6013586" lon="12.3125916"><ele>914.0000000000001</ele><time>2026-05-01T11:21:16.786Z</time></trkpt><trkpt lat="43.6012679" lon="12.3125329"><ele>914.0</ele><time>2026-05-01T11:21:18.783Z</time></trkpt><trkpt lat="43.6011876" lon="12.3124964"><ele>913.3333333333334</ele><time>2026-05-01T11:21:20.786Z</time></trkpt><trkpt lat="43.6011279" lon="12.3124662"><ele>912.6666666666667</ele><time>2026-05-01T11:21:26.779Z</time></trkpt><trkpt lat="43.601074" lon="12.3124019"><ele>912.0</ele><time>2026-05-01T11:21:28.788Z</time></trkpt><trkpt lat="43.6010477" lon="12.3123019"><ele>911.3333333333333</ele><time>2026-05-01T11:21:29.795Z</time></trkpt><trkpt lat="43.600998" lon="12.3121496"><ele>910.6666666666666</ele><time>2026-05-01T11:21:31.804Z</time></trkpt><trkpt lat="43.6009493" lon="12.3120797"><ele>910.0</ele><time>2026-05-01T11:21:32.789Z</time></trkpt><trkpt lat="43.6008441" lon="12.3119969"><ele>911.4999999999999</ele><time>2026-05-01T11:21:34.786Z</time></trkpt><trkpt lat="43.6007814" lon="12.3119548"><ele>913.0</ele><time>2026-05-01T11:21:35.8Z</time></trkpt><trkpt lat="43.6007076" lon="12.311914"><ele>914.5</ele><time>2026-05-01T11:21:36.798Z</time></trkpt><trkpt lat="43.6006373" lon="12.3118819"><ele>916.0</ele><time>2026-05-01T11:21:37.794Z</time></trkpt><trkpt lat="43.6005339" lon="12.3118222"><ele>917.4999999999999</ele><time>2026-05-01T11:21:39.798Z</time></trkpt><trkpt lat="43.6004625" lon="12.3117136"><ele>919.0</ele><time>2026-05-01T11:21:41.795Z</time></trkpt><trkpt lat="43.6004184" lon="12.3116397"><ele>918.9999999999999</ele><time>2026-05-01T11:21:42.785Z</time></trkpt><trkpt lat="43.6003783" lon="12.3115576"><ele>919.0</ele><time>2026-05-01T11:21:43.797Z</time></trkpt><trkpt lat="43.6003388" lon="12.3114775"><ele>919.0</ele><time>2026-05-01T11:21:44.78Z</time></trkpt><trkpt lat="43.6002943" lon="12.311396"><ele>919.0</ele><time>2026-05-01T11:21:45.784Z</time></trkpt><trkpt lat="43.6002371" lon="12.3113151"><ele>918.9999999999999</ele><time>2026-05-01T11:21:46.779Z</time></trkpt><trkpt lat="43.6001717" lon="12.3112359"><ele>919.0</ele><time>2026-05-01T11:21:47.783Z</time></trkpt><trkpt lat="43.6001014" lon="12.3111499"><ele>918.6666666666666</ele><time>2026-05-01T11:21:48.785Z</time></trkpt><trkpt lat="43.6000363" lon="12.3110839"><ele>918.3333333333333</ele><time>2026-05-01T11:21:49.791Z</time></trkpt><trkpt lat="43.5999752" lon="12.3110325"><ele>918.0</ele><time>2026-05-01T11:21:50.798Z</time></trkpt><trkpt lat="43.5999192" lon="12.3109887"><ele>917.6666666666667</ele><time>2026-05-01T11:21:51.796Z</time></trkpt><trkpt lat="43.5998531" lon="12.3109819"><ele>917.3333333333334</ele><time>2026-05-01T11:21:52.784Z</time></trkpt><trkpt lat="43.5997147" lon="12.3109818"><ele>917.0</ele><time>2026-05-01T11:21:54.804Z</time></trkpt><trkpt lat="43.5996293" lon="12.3109829"><ele>917.0000000000001</ele><time>2026-05-01T11:21:55.803Z</time></trkpt><trkpt lat="43.5995513" lon="12.3109759"><ele>917.0</ele><time>2026-05-01T11:21:56.803Z</time></trkpt><trkpt lat="43.5994762" lon="12.3109578"><ele>917.0</ele><time>2026-05-01T11:21:57.807Z</time></trkpt><trkpt lat="43.5993924" lon="12.3109426"><ele>917.0</ele><time>2026-05-01T11:21:58.783Z</time></trkpt><trkpt lat="43.5993181" lon="12.3109633"><ele>917.0000000000001</ele><time>2026-05-01T11:21:59.808Z</time></trkpt><trkpt lat="43.599213" lon="12.3110782"><ele>917.0</ele><time>2026-05-01T11:22:01.817Z</time></trkpt><trkpt lat="43.5991582" lon="12.3111525"><ele>917.3333333333334</ele><time>2026-05-01T11:22:02.785Z</time></trkpt><trkpt lat="43.5991034" lon="12.3112259"><ele>917.6666666666667</ele><time>2026-05-01T11:22:03.789Z</time></trkpt><trkpt lat="43.5990448" lon="12.3112981"><ele>918.0</ele><time>2026-05-01T11:22:04.78Z</time></trkpt><trkpt lat="43.598985" lon="12.3113582"><ele>918.3333333333333</ele><time>2026-05-01T11:22:05.796Z</time></trkpt><trkpt lat="43.5989337" lon="12.3114186"><ele>918.6666666666666</ele><time>2026-05-01T11:22:06.78Z</time></trkpt><trkpt lat="43.5988467" lon="12.3115364"><ele>919.0</ele><time>2026-05-01T11:22:08.784Z</time></trkpt><trkpt lat="43.5987931" lon="12.311584"><ele>920.3333333333333</ele><time>2026-05-01T11:22:09.787Z</time></trkpt><trkpt lat="43.5986729" lon="12.3115809"><ele>921.6666666666666</ele><time>2026-05-01T11:22:11.796Z</time></trkpt><trkpt lat="43.5985504" lon="12.311541"><ele>923.0</ele><time>2026-05-01T11:22:13.815Z</time></trkpt><trkpt lat="43.5984836" lon="12.3115343"><ele>924.3333333333333</ele><time>2026-05-01T11:22:14.788Z</time></trkpt><trkpt lat="43.5984175" lon="12.3115324"><ele>925.6666666666666</ele><time>2026-05-01T11:22:15.778Z</time></trkpt><trkpt lat="43.5983524" lon="12.311527"><ele>927.0</ele><time>2026-05-01T11:22:16.788Z</time></trkpt><trkpt lat="43.5982805" lon="12.3115168"><ele>928.1666666666666</ele><time>2026-05-01T11:22:17.815Z</time></trkpt><trkpt lat="43.5982162" lon="12.3115038"><ele>929.3333333333333</ele><time>2026-05-01T11:22:18.791Z</time></trkpt><trkpt lat="43.5980889" lon="12.3114993"><ele>930.5</ele><time>2026-05-01T11:22:20.78Z</time></trkpt><trkpt lat="43.5980249" lon="12.3114944"><ele>931.6666666666666</ele><time>2026-05-01T11:22:21.798Z</time></trkpt><trkpt lat="43.5979539" lon="12.3114835"><ele>932.8333333333333</ele><time>2026-05-01T11:22:22.796Z</time></trkpt><trkpt lat="43.5978843" lon="12.3114764"><ele>934.0</ele><time>2026-05-01T11:22:23.812Z</time></trkpt><trkpt lat="43.5978032" lon="12.3114561"><ele>933.9999999999999</ele><time>2026-05-01T11:22:24.797Z</time></trkpt><trkpt lat="43.597727" lon="12.3114327"><ele>934.0</ele><time>2026-05-01T11:22:25.804Z</time></trkpt><trkpt lat="43.5976485" lon="12.3113877"><ele>934.0</ele><time>2026-05-01T11:22:26.797Z</time></trkpt><trkpt lat="43.5975726" lon="12.3113245"><ele>934.0</ele><time>2026-05-01T11:22:27.792Z</time></trkpt><trkpt lat="43.5975047" lon="12.3112613"><ele>933.9999999999999</ele><time>2026-05-01T11:22:28.793Z</time></trkpt><trkpt lat="43.597453" lon="12.3112059"><ele>934.0</ele><time>2026-05-01T11:22:29.789Z</time></trkpt><trkpt lat="43.597375" lon="12.3110856"><ele>933.6666666666666</ele><time>2026-05-01T11:22:31.796Z</time></trkpt><trkpt lat="43.5973184" lon="12.3109739"><ele>933.3333333333333</ele><time>2026-05-01T11:22:33.8Z</time></trkpt><trkpt lat="43.5972657" lon="12.3109226"><ele>933.0</ele><time>2026-05-01T11:22:34.776Z</time></trkpt><trkpt lat="43.5972051" lon="12.3108601"><ele>932.6666666666667</ele><time>2026-05-01T11:22:35.781Z</time></trkpt><trkpt lat="43.5971368" lon="12.3107868"><ele>932.3333333333334</ele><time>2026-05-01T11:22:36.78Z</time></trkpt><trkpt lat="43.5970662" lon="12.3106983"><ele>932.0</ele><time>2026-05-01T11:22:37.795Z</time></trkpt><trkpt lat="43.596992" lon="12.3106197"><ele>932.6666666666667</ele><time>2026-05-01T11:22:38.792Z</time></trkpt><trkpt lat="43.596921" lon="12.3105532"><ele>933.3333333333334</ele><time>2026-05-01T11:22:39.787Z</time></trkpt><trkpt lat="43.596856" lon="12.3104972"><ele>934.0</ele><time>2026-05-01T11:22:40.788Z</time></trkpt><trkpt lat="43.5967896" lon="12.310448"><ele>934.6666666666667</ele><time>2026-05-01T11:22:41.806Z</time></trkpt><trkpt lat="43.5967265" lon="12.3103983"><ele>935.3333333333334</ele><time>2026-05-01T11:22:42.787Z</time></trkpt><trkpt lat="43.5966696" lon="12.3103584"><ele>936.0</ele><time>2026-05-01T11:22:43.794Z</time></trkpt><trkpt lat="43.5965687" lon="12.3102988"><ele>936.0</ele><time>2026-05-01T11:22:45.787Z</time></trkpt><trkpt lat="43.5964766" lon="12.3102266"><ele>935.9999999999999</ele><time>2026-05-01T11:22:47.786Z</time></trkpt><trkpt lat="43.5963952" lon="12.3101609"><ele>935.9999999999999</ele><time>2026-05-01T11:22:49.787Z</time></trkpt><trkpt lat="43.5963174" lon="12.3101295"><ele>936.0</ele><time>2026-05-01T11:22:51.789Z</time></trkpt><trkpt lat="43.5962409" lon="12.3100776"><ele>936.0</ele><time>2026-05-01T11:22:53.788Z</time></trkpt><trkpt lat="43.5961428" lon="12.3100412"><ele>936.5</ele><time>2026-05-01T11:22:55.79Z</time></trkpt><trkpt lat="43.5960668" lon="12.3100545"><ele>937.0</ele><time>2026-05-01T11:22:57.788Z</time></trkpt><trkpt lat="43.5959596" lon="12.3100735"><ele>937.5</ele><time>2026-05-01T11:22:59.775Z</time></trkpt><trkpt lat="43.5958707" lon="12.3100823"><ele>938.0</ele><time>2026-05-01T11:23:01.787Z</time></trkpt><trkpt lat="43.5957762" lon="12.3100814"><ele>938.5</ele><time>2026-05-01T11:23:04.785Z</time></trkpt><trkpt lat="43.5957187" lon="12.3100445"><ele>939.0</ele><time>2026-05-01T11:23:07.789Z</time></trkpt><trkpt lat="43.5957836" lon="12.3100222"><ele>939.0</ele><time>2026-05-01T11:23:29.783Z</time></trkpt><trkpt lat="43.5958723" lon="12.3100502"><ele>939.0</ele><time>2026-05-01T11:23:31.781Z</time></trkpt><trkpt lat="43.5959601" lon="12.3100518"><ele>939.0</ele><time>2026-05-01T11:23:32.789Z</time></trkpt><trkpt lat="43.5960387" lon="12.3100526"><ele>939.0</ele><time>2026-05-01T11:23:33.79Z</time></trkpt><trkpt lat="43.5961289" lon="12.3100519"><ele>939.0</ele><time>2026-05-01T11:23:34.774Z</time></trkpt><trkpt lat="43.596211" lon="12.3100676"><ele>939.0</ele><time>2026-05-01T11:23:35.794Z</time></trkpt><trkpt lat="43.5962827" lon="12.3100998"><ele>938.5</ele><time>2026-05-01T11:23:36.776Z</time></trkpt><trkpt lat="43.5963457" lon="12.3101371"><ele>938.0</ele><time>2026-05-01T11:23:37.785Z</time></trkpt><trkpt lat="43.5964056" lon="12.3101781"><ele>937.5</ele><time>2026-05-01T11:23:38.781Z</time></trkpt><trkpt lat="43.5964698" lon="12.310229"><ele>937.0</ele><time>2026-05-01T11:23:39.783Z</time></trkpt><trkpt lat="43.596554" lon="12.3102908"><ele>936.5</ele><time>2026-05-01T11:23:40.791Z</time></trkpt><trkpt lat="43.5966333" lon="12.3103462"><ele>936.0</ele><time>2026-05-01T11:23:41.783Z</time></trkpt><trkpt lat="43.5967311" lon="12.3104086"><ele>936.0</ele><time>2026-05-01T11:23:43.794Z</time></trkpt><trkpt lat="43.5967871" lon="12.3104643"><ele>936.0</ele><time>2026-05-01T11:28:23.787Z</time></trkpt><trkpt lat="43.5967441" lon="12.3103947"><ele>936.0</ele><time>2026-05-01T11:29:04.786Z</time></trkpt><trkpt lat="43.596671" lon="12.3103781"><ele>936.0</ele><time>2026-05-01T11:29:46.787Z</time></trkpt><trkpt lat="43.5966078" lon="12.3103297"><ele>936.0</ele><time>2026-05-01T11:29:49.796Z</time></trkpt><trkpt lat="43.5965359" lon="12.3102835"><ele>936.0</ele><time>2026-05-01T11:29:51.792Z</time></trkpt><trkpt lat="43.5964329" lon="12.3102129"><ele>936.0</ele><time>2026-05-01T11:29:53.805Z</time></trkpt><trkpt lat="43.5963299" lon="12.3101347"><ele>936.0</ele><time>2026-05-01T11:29:55.784Z</time></trkpt><trkpt lat="43.5962651" lon="12.3101054"><ele>936.0</ele><time>2026-05-01T11:29:56.778Z</time></trkpt><trkpt lat="43.5961917" lon="12.3100804"><ele>936.0</ele><time>2026-05-01T11:29:57.785Z</time></trkpt><trkpt lat="43.5961051" lon="12.3100674"><ele>936.0</ele><time>2026-05-01T11:29:58.787Z</time></trkpt><trkpt lat="43.5960202" lon="12.3100747"><ele>936.0</ele><time>2026-05-01T11:29:59.792Z</time></trkpt><trkpt lat="43.5959393" lon="12.3100855"><ele>936.0</ele><time>2026-05-01T11:30:00.785Z</time></trkpt><trkpt lat="43.5958722" lon="12.3100946"><ele>936.0</ele><time>2026-05-01T11:30:01.797Z</time></trkpt><trkpt lat="43.5958014" lon="12.3100851"><ele>936.0</ele><time>2026-05-01T11:30:02.787Z</time></trkpt><trkpt lat="43.5957349" lon="12.3100562"><ele>936.0</ele><time>2026-05-01T11:30:03.779Z</time></trkpt><trkpt lat="43.596671" lon="12.3103781"><ele>936.0</ele><time>2026-05-01T11:29:46.787Z</time></trkpt><trkpt lat="43.5966078" lon="12.3103297"><ele>935.9999999999999</ele><time>2026-05-01T11:29:49.796Z</time></trkpt><trkpt lat="43.5965359" lon="12.3102835"><ele>935.9999999999999</ele><time>2026-05-01T11:29:51.792Z</time></trkpt><trkpt lat="43.5964329" lon="12.3102129"><ele>936.0</ele><time>2026-05-01T11:29:53.805Z</time></trkpt><trkpt lat="43.5963299" lon="12.3101347"><ele>936.0</ele><time>2026-05-01T11:29:55.784Z</time></trkpt><trkpt lat="43.5962651" lon="12.3101054"><ele>936.0</ele><time>2026-05-01T11:29:56.778Z</time></trkpt><trkpt lat="43.5961917" lon="12.3100804"><ele>936.0</ele><time>2026-05-01T11:29:57.785Z</time></trkpt><trkpt lat="43.5961051" lon="12.3100674"><ele>936.0</ele><time>2026-05-01T11:29:58.787Z</time></trkpt><trkpt lat="43.5960202" lon="12.3100747"><ele>936.0</ele><time>2026-05-01T11:29:59.792Z</time></trkpt><trkpt lat="43.5959393" lon="12.3100855"><ele>936.0</ele><time>2026-05-01T11:30:00.785Z</time></trkpt><trkpt lat="43.5958722" lon="12.3100946"><ele>936.0</ele><time>2026-05-01T11:30:01.797Z</time></trkpt><trkpt lat="43.5958014" lon="12.3100851"><ele>936.4285714285714</ele><time>2026-05-01T11:30:02.787Z</time></trkpt><trkpt lat="43.5957349" lon="12.3100562"><ele>936.8571428571429</ele><time>2026-05-01T11:30:03.779Z</time></trkpt><trkpt lat="43.5956771" lon="12.3100104"><ele>937.2857142857143</ele><time>2026-05-01T11:30:04.776Z</time></trkpt><trkpt lat="43.595619" lon="12.3099613"><ele>937.7142857142858</ele><time>2026-05-01T11:30:05.79Z</time></trkpt><trkpt lat="43.5955693" lon="12.3099025"><ele>938.1428571428571</ele><time>2026-05-01T11:30:06.785Z</time></trkpt><trkpt lat="43.5955104" lon="12.30984"><ele>938.5714285714287</ele><time>2026-05-01T11:30:07.785Z</time></trkpt><trkpt lat="43.5954475" lon="12.3097803"><ele>939.0</ele><time>2026-05-01T11:30:08.78Z</time></trkpt><trkpt lat="43.5953846" lon="12.3097292"><ele>936.8333333333334</ele><time>2026-05-01T11:30:09.78Z</time></trkpt><trkpt lat="43.595325" lon="12.3096787"><ele>934.6666666666667</ele><time>2026-05-01T11:30:10.776Z</time></trkpt><trkpt lat="43.5952634" lon="12.3096252"><ele>932.5</ele><time>2026-05-01T11:30:11.791Z</time></trkpt><trkpt lat="43.5951973" lon="12.3095747"><ele>930.3333333333334</ele><time>2026-05-01T11:30:12.78Z</time></trkpt><trkpt lat="43.595134" lon="12.309543"><ele>928.1666666666667</ele><time>2026-05-01T11:30:13.777Z</time></trkpt><trkpt lat="43.5950085" lon="12.3095178"><ele>926.0</ele><time>2026-05-01T11:30:15.785Z</time></trkpt><trkpt lat="43.5949362" lon="12.3095115"><ele>926.0000000000001</ele><time>2026-05-01T11:30:16.78Z</time></trkpt><trkpt lat="43.5948592" lon="12.3095214"><ele>926.0</ele><time>2026-05-01T11:30:17.793Z</time></trkpt><trkpt lat="43.5947784" lon="12.3095482"><ele>926.0</ele><time>2026-05-01T11:30:18.794Z</time></trkpt><trkpt lat="43.5947038" lon="12.3095673"><ele>926.0</ele><time>2026-05-01T11:30:19.787Z</time></trkpt><trkpt lat="43.5946249" lon="12.3095694"><ele>926.0000000000001</ele><time>2026-05-01T11:30:20.792Z</time></trkpt><trkpt lat="43.5945425" lon="12.3095448"><ele>926.0</ele><time>2026-05-01T11:30:21.785Z</time></trkpt><trkpt lat="43.5944602" lon="12.3095213"><ele>926.6666666666667</ele><time>2026-05-01T11:30:22.786Z</time></trkpt><trkpt lat="43.5943918" lon="12.3095013"><ele>927.3333333333334</ele><time>2026-05-01T11:30:23.783Z</time></trkpt><trkpt lat="43.5943083" lon="12.3094816"><ele>928.0</ele><time>2026-05-01T11:30:24.78Z</time></trkpt><trkpt lat="43.5942222" lon="12.3094573"><ele>928.6666666666667</ele><time>2026-05-01T11:30:25.788Z</time></trkpt><trkpt lat="43.5941471" lon="12.3094124"><ele>929.3333333333334</ele><time>2026-05-01T11:30:26.788Z</time></trkpt><trkpt lat="43.5940861" lon="12.3093588"><ele>930.0</ele><time>2026-05-01T11:30:27.796Z</time></trkpt><trkpt lat="43.5940194" lon="12.3093173"><ele>930.0</ele><time>2026-05-01T11:30:28.788Z</time></trkpt><trkpt lat="43.5939582" lon="12.309285"><ele>930.0</ele><time>2026-05-01T11:30:29.798Z</time></trkpt><trkpt lat="43.5938899" lon="12.3092743"><ele>930.0</ele><time>2026-05-01T11:30:30.798Z</time></trkpt><trkpt lat="43.593819" lon="12.3092516"><ele>930.0</ele><time>2026-05-01T11:30:31.792Z</time></trkpt><trkpt lat="43.5937585" lon="12.3092118"><ele>930.0</ele><time>2026-05-01T11:30:32.782Z</time></trkpt><trkpt lat="43.5936837" lon="12.3091355"><ele>930.0</ele><time>2026-05-01T11:30:34.789Z</time></trkpt><trkpt lat="43.5936195" lon="12.3090513"><ele>930.5</ele><time>2026-05-01T11:30:36.802Z</time></trkpt><trkpt lat="43.5935562" lon="12.3090191"><ele>931.0</ele><time>2026-05-01T11:30:37.787Z</time></trkpt><trkpt lat="43.5934881" lon="12.3089905"><ele>931.5</ele><time>2026-05-01T11:30:38.792Z</time></trkpt><trkpt lat="43.5934185" lon="12.3089577"><ele>932.0</ele><time>2026-05-01T11:30:39.795Z</time></trkpt><trkpt lat="43.5933455" lon="12.3089205"><ele>932.5</ele><time>2026-05-01T11:30:40.788Z</time></trkpt><trkpt lat="43.5932726" lon="12.3088696"><ele>933.0</ele><time>2026-05-01T11:30:41.786Z</time></trkpt><trkpt lat="43.5932014" lon="12.3088093"><ele>933.0</ele><time>2026-05-01T11:30:42.788Z</time></trkpt><trkpt lat="43.59314" lon="12.3087593"><ele>933.0</ele><time>2026-05-01T11:30:43.796Z</time></trkpt><trkpt lat="43.593089" lon="12.3086945"><ele>933.0</ele><time>2026-05-01T11:30:44.806Z</time></trkpt><trkpt lat="43.5930399" lon="12.3086175"><ele>933.0</ele><time>2026-05-01T11:30:45.798Z</time></trkpt><trkpt lat="43.5929838" lon="12.3085454"><ele>933.0</ele><time>2026-05-01T11:30:46.782Z</time></trkpt><trkpt lat="43.5929282" lon="12.3084813"><ele>933.0</ele><time>2026-05-01T11:30:47.789Z</time></trkpt><trkpt lat="43.592847" lon="12.3084145"><ele>934.6666666666666</ele><time>2026-05-01T11:30:49.79Z</time></trkpt><trkpt lat="43.5927917" lon="12.3083569"><ele>936.3333333333333</ele><time>2026-05-01T11:30:52.801Z</time></trkpt><trkpt lat="43.592737" lon="12.3083096"><ele>938.0</ele><time>2026-05-01T11:30:55.814Z</time></trkpt><trkpt lat="43.5926739" lon="12.308261"><ele>939.6666666666666</ele><time>2026-05-01T11:31:02.784Z</time></trkpt><trkpt lat="43.5925935" lon="12.308202"><ele>941.3333333333333</ele><time>2026-05-01T11:31:05.806Z</time></trkpt><trkpt lat="43.5925015" lon="12.3081623"><ele>943.0</ele><time>2026-05-01T11:31:07.801Z</time></trkpt><trkpt lat="43.5924166" lon="12.308123"><ele>941.4999999999999</ele><time>2026-05-01T11:31:09.808Z</time></trkpt><trkpt lat="43.5923609" lon="12.3080761"><ele>940.0</ele><time>2026-05-01T11:31:11.795Z</time></trkpt><trkpt lat="43.5922879" lon="12.3080569"><ele>938.5</ele><time>2026-05-01T11:31:14.792Z</time></trkpt><trkpt lat="43.5922242" lon="12.3080623"><ele>937.0</ele><time>2026-05-01T11:31:17.788Z</time></trkpt><trkpt lat="43.5921521" lon="12.3080637"><ele>935.4999999999999</ele><time>2026-05-01T11:31:31.793Z</time></trkpt><trkpt lat="43.5920118" lon="12.308074"><ele>934.0</ele><time>2026-05-01T11:31:33.783Z</time></trkpt><trkpt lat="43.5919211" lon="12.3080746"><ele>936.8000000000001</ele><time>2026-05-01T11:31:34.795Z</time></trkpt><trkpt lat="43.5918124" lon="12.3080743"><ele>939.6000000000001</ele><time>2026-05-01T11:31:35.79Z</time></trkpt><trkpt lat="43.5917018" lon="12.3080738"><ele>942.4</ele><time>2026-05-01T11:31:36.78Z</time></trkpt><trkpt lat="43.5916006" lon="12.3080795"><ele>945.2</ele><time>2026-05-01T11:31:37.785Z</time></trkpt><trkpt lat="43.5915066" lon="12.308106"><ele>948.0</ele><time>2026-05-01T11:31:38.782Z</time></trkpt><trkpt lat="43.5914217" lon="12.3081446"><ele>948.0</ele><time>2026-05-01T11:31:39.795Z</time></trkpt><trkpt lat="43.5913353" lon="12.3082089"><ele>948.0</ele><time>2026-05-01T11:31:40.78Z</time></trkpt><trkpt lat="43.5912533" lon="12.3082973"><ele>948.0</ele><time>2026-05-01T11:31:41.782Z</time></trkpt><trkpt lat="43.5911654" lon="12.3084132"><ele>948.0</ele><time>2026-05-01T11:31:42.778Z</time></trkpt><trkpt lat="43.5910744" lon="12.308536"><ele>948.0</ele><time>2026-05-01T11:31:43.782Z</time></trkpt><trkpt lat="43.5909883" lon="12.3086521"><ele>948.0</ele><time>2026-05-01T11:31:44.781Z</time></trkpt><trkpt lat="43.590911" lon="12.3087472"><ele>948.0</ele><time>2026-05-01T11:31:45.787Z</time></trkpt><trkpt lat="43.5908324" lon="12.3088377"><ele>948.0</ele><time>2026-05-01T11:31:46.792Z</time></trkpt><trkpt lat="43.5907383" lon="12.308925"><ele>948.0</ele><time>2026-05-01T11:31:47.799Z</time></trkpt><trkpt lat="43.5906298" lon="12.3090141"><ele>950.5</ele><time>2026-05-01T11:31:48.791Z</time></trkpt><trkpt lat="43.5905119" lon="12.3090893"><ele>953.0</ele><time>2026-05-01T11:31:49.79Z</time></trkpt><trkpt lat="43.5903895" lon="12.309166"><ele>955.5</ele><time>2026-05-01T11:31:50.794Z</time></trkpt><trkpt lat="43.5902677" lon="12.3092312"><ele>958.0</ele><time>2026-05-01T11:31:51.782Z</time></trkpt><trkpt lat="43.5901614" lon="12.3093022"><ele>958.8</ele><time>2026-05-01T11:31:52.786Z</time></trkpt><trkpt lat="43.5900632" lon="12.3093639"><ele>959.5999999999999</ele><time>2026-05-01T11:31:53.793Z</time></trkpt><trkpt lat="43.5899633" lon="12.3094214"><ele>960.4000000000001</ele><time>2026-05-01T11:31:54.784Z</time></trkpt><trkpt lat="43.589859" lon="12.3094643"><ele>961.2</ele><time>2026-05-01T11:31:55.793Z</time></trkpt><trkpt lat="43.5897481" lon="12.3094824"><ele>962.0</ele><time>2026-05-01T11:31:56.789Z</time></trkpt><trkpt lat="43.5896395" lon="12.3094793"><ele>962.0</ele><time>2026-05-01T11:31:57.785Z</time></trkpt><trkpt lat="43.5895217" lon="12.3094547"><ele>962.0</ele><time>2026-05-01T11:31:58.792Z</time></trkpt><trkpt lat="43.5893759" lon="12.3094061"><ele>962.0</ele><time>2026-05-01T11:31:59.784Z</time></trkpt><trkpt lat="43.5892153" lon="12.3093649"><ele>962.0</ele><time>2026-05-01T11:32:00.79Z</time></trkpt><trkpt lat="43.5890582" lon="12.3093383"><ele>962.5</ele><time>2026-05-01T11:32:01.804Z</time></trkpt><trkpt lat="43.5889152" lon="12.3093148"><ele>963.0</ele><time>2026-05-01T11:32:02.778Z</time></trkpt><trkpt lat="43.5887885" lon="12.3092951"><ele>963.5</ele><time>2026-05-01T11:32:03.785Z</time></trkpt><trkpt lat="43.5886653" lon="12.3092675"><ele>964.0</ele><time>2026-05-01T11:32:04.778Z</time></trkpt><trkpt lat="43.5885445" lon="12.3092181"><ele>962.5</ele><time>2026-05-01T11:32:05.782Z</time></trkpt><trkpt lat="43.5884281" lon="12.3091634"><ele>961.0</ele><time>2026-05-01T11:32:06.778Z</time></trkpt><trkpt lat="43.5883204" lon="12.3090913"><ele>959.5</ele><time>2026-05-01T11:32:07.791Z</time></trkpt><trkpt lat="43.5882261" lon="12.3090178"><ele>958.0</ele><time>2026-05-01T11:32:08.781Z</time></trkpt><trkpt lat="43.588133" lon="12.3089624"><ele>958.0</ele><time>2026-05-01T11:32:09.794Z</time></trkpt><trkpt lat="43.5880292" lon="12.3089409"><ele>958.0</ele><time>2026-05-01T11:32:10.775Z</time></trkpt><trkpt lat="43.5879281" lon="12.3089567"><ele>958.0</ele><time>2026-05-01T11:32:11.784Z</time></trkpt><trkpt lat="43.5878312" lon="12.3090001"><ele>958.0</ele><time>2026-05-01T11:32:12.777Z</time></trkpt><trkpt lat="43.5877433" lon="12.3090813"><ele>958.0</ele><time>2026-05-01T11:32:13.778Z</time></trkpt><trkpt lat="43.5876536" lon="12.3091879"><ele>957.0</ele><time>2026-05-01T11:32:14.783Z</time></trkpt><trkpt lat="43.5875771" lon="12.3093222"><ele>956.0</ele><time>2026-05-01T11:32:15.793Z</time></trkpt><trkpt lat="43.5875017" lon="12.3094825"><ele>955.0</ele><time>2026-05-01T11:32:16.778Z</time></trkpt><trkpt lat="43.587419" lon="12.3096746"><ele>954.0</ele><time>2026-05-01T11:32:17.785Z</time></trkpt><trkpt lat="43.5873338" lon="12.3098725"><ele>954.0</ele><time>2026-05-01T11:32:18.786Z</time></trkpt><trkpt lat="43.5872588" lon="12.3100648"><ele>954.0</ele><time>2026-05-01T11:32:19.792Z</time></trkpt><trkpt lat="43.5871831" lon="12.310242"><ele>954.0</ele><time>2026-05-01T11:32:20.774Z</time></trkpt><trkpt lat="43.5871084" lon="12.3103968"><ele>954.0</ele><time>2026-05-01T11:32:21.783Z</time></trkpt><trkpt lat="43.5870268" lon="12.3105195"><ele>956.25</ele><time>2026-05-01T11:32:22.777Z</time></trkpt><trkpt lat="43.5869421" lon="12.3106352"><ele>958.5</ele><time>2026-05-01T11:32:23.785Z</time></trkpt><trkpt lat="43.5868462" lon="12.3107364"><ele>960.75</ele><time>2026-05-01T11:32:24.777Z</time></trkpt><trkpt lat="43.5867371" lon="12.3108321"><ele>963.0</ele><time>2026-05-01T11:32:25.785Z</time></trkpt><trkpt lat="43.5866167" lon="12.3109238"><ele>963.0</ele><time>2026-05-01T11:32:26.776Z</time></trkpt><trkpt lat="43.586483" lon="12.3110041"><ele>963.0</ele><time>2026-05-01T11:32:27.784Z</time></trkpt><trkpt lat="43.586343" lon="12.3110758"><ele>963.0</ele><time>2026-05-01T11:32:28.784Z</time></trkpt><trkpt lat="43.5861972" lon="12.311127"><ele>963.0</ele><time>2026-05-01T11:32:29.781Z</time></trkpt><trkpt lat="43.5860496" lon="12.3111807"><ele>956.6666666666667</ele><time>2026-05-01T11:32:30.78Z</time></trkpt><trkpt lat="43.5858998" lon="12.3112373"><ele>950.3333333333334</ele><time>2026-05-01T11:32:31.779Z</time></trkpt><trkpt lat="43.5857447" lon="12.3113038"><ele>944.0</ele><time>2026-05-01T11:32:32.786Z</time></trkpt><trkpt lat="43.5855885" lon="12.3113763"><ele>944.0</ele><time>2026-05-01T11:32:33.785Z</time></trkpt><trkpt lat="43.5854216" lon="12.3114358"><ele>944.0</ele><time>2026-05-01T11:32:34.771Z</time></trkpt><trkpt lat="43.5852425" lon="12.3114858"><ele>944.0</ele><time>2026-05-01T11:32:35.788Z</time></trkpt><trkpt lat="43.5850553" lon="12.3115357"><ele>944.3333333333334</ele><time>2026-05-01T11:32:36.78Z</time></trkpt><trkpt lat="43.5848668" lon="12.3115593"><ele>944.6666666666667</ele><time>2026-05-01T11:32:37.782Z</time></trkpt><trkpt lat="43.5846818" lon="12.3115597"><ele>945.0</ele><time>2026-05-01T11:32:38.778Z</time></trkpt><trkpt lat="43.5845069" lon="12.3115405"><ele>945.0</ele><time>2026-05-01T11:32:39.81Z</time></trkpt><trkpt lat="43.5843395" lon="12.3115068"><ele>945.0</ele><time>2026-05-01T11:32:40.78Z</time></trkpt><trkpt lat="43.5841925" lon="12.3114779"><ele>945.0</ele><time>2026-05-01T11:32:41.79Z</time></trkpt><trkpt lat="43.5840547" lon="12.3114545"><ele>945.0</ele><time>2026-05-01T11:32:42.789Z</time></trkpt><trkpt lat="43.5839298" lon="12.3114375"><ele>945.0</ele><time>2026-05-01T11:32:43.799Z</time></trkpt><trkpt lat="43.5838235" lon="12.3114227"><ele>945.0</ele><time>2026-05-01T11:32:44.788Z</time></trkpt><trkpt lat="43.5837316" lon="12.3114093"><ele>945.0</ele><time>2026-05-01T11:32:45.799Z</time></trkpt><trkpt lat="43.5836459" lon="12.3113713"><ele>945.0</ele><time>2026-05-01T11:32:46.784Z</time></trkpt><trkpt lat="43.5835602" lon="12.3113085"><ele>943.0</ele><time>2026-05-01T11:32:47.776Z</time></trkpt><trkpt lat="43.5834759" lon="12.3112432"><ele>941.0</ele><time>2026-05-01T11:32:48.79Z</time></trkpt><trkpt lat="43.5833822" lon="12.3111859"><ele>939.0</ele><time>2026-05-01T11:32:49.792Z</time></trkpt><trkpt lat="43.5832711" lon="12.3111579"><ele>937.0</ele><time>2026-05-01T11:32:50.786Z</time></trkpt><trkpt lat="43.583138" lon="12.311158"><ele>935.0</ele><time>2026-05-01T11:32:51.791Z</time></trkpt><trkpt lat="43.5829881" lon="12.3111588"><ele>935.75</ele><time>2026-05-01T11:32:52.777Z</time></trkpt><trkpt lat="43.5828467" lon="12.3111511"><ele>936.5</ele><time>2026-05-01T11:32:53.783Z</time></trkpt><trkpt lat="43.5827013" lon="12.3111378"><ele>937.25</ele><time>2026-05-01T11:32:54.771Z</time></trkpt><trkpt lat="43.5825615" lon="12.3111166"><ele>938.0</ele><time>2026-05-01T11:32:55.785Z</time></trkpt><trkpt lat="43.5824326" lon="12.3110736"><ele>938.0</ele><time>2026-05-01T11:32:56.782Z</time></trkpt><trkpt lat="43.5823198" lon="12.3109914"><ele>938.0</ele><time>2026-05-01T11:32:57.786Z</time></trkpt><trkpt lat="43.5822123" lon="12.3108794"><ele>938.0</ele><time>2026-05-01T11:32:58.783Z</time></trkpt><trkpt lat="43.5821166" lon="12.3107348"><ele>938.0</ele><time>2026-05-01T11:32:59.796Z</time></trkpt><trkpt lat="43.5820395" lon="12.3105973"><ele>936.5</ele><time>2026-05-01T11:33:00.788Z</time></trkpt><trkpt lat="43.5819642" lon="12.3104597"><ele>935.0</ele><time>2026-05-01T11:33:01.778Z</time></trkpt><trkpt lat="43.5818852" lon="12.3103461"><ele>933.5</ele><time>2026-05-01T11:33:02.787Z</time></trkpt><trkpt lat="43.5817857" lon="12.3102619"><ele>932.0</ele><time>2026-05-01T11:33:03.784Z</time></trkpt><trkpt lat="43.581685" lon="12.3101706"><ele>932.0</ele><time>2026-05-01T11:33:04.778Z</time></trkpt><trkpt lat="43.5815921" lon="12.3100775"><ele>932.0</ele><time>2026-05-01T11:33:05.786Z</time></trkpt><trkpt lat="43.5815085" lon="12.3099922"><ele>932.0</ele><time>2026-05-01T11:33:06.78Z</time></trkpt><trkpt lat="43.5814176" lon="12.309916"><ele>932.0</ele><time>2026-05-01T11:33:07.798Z</time></trkpt><trkpt lat="43.5813296" lon="12.3098627"><ele>932.0</ele><time>2026-05-01T11:33:08.781Z</time></trkpt><trkpt lat="43.5812321" lon="12.3098453"><ele>928.75</ele><time>2026-05-01T11:33:09.785Z</time></trkpt><trkpt lat="43.5811095" lon="12.3098614"><ele>925.5</ele><time>2026-05-01T11:33:10.776Z</time></trkpt><trkpt lat="43.5809608" lon="12.309915"><ele>922.25</ele><time>2026-05-01T11:33:11.793Z</time></trkpt><trkpt lat="43.5808095" lon="12.3099726"><ele>919.0</ele><time>2026-05-01T11:33:12.787Z</time></trkpt><trkpt lat="43.5806773" lon="12.3100404"><ele>919.0</ele><time>2026-05-01T11:33:13.792Z</time></trkpt><trkpt lat="43.580562" lon="12.3101011"><ele>919.0000000000001</ele><time>2026-05-01T11:33:14.788Z</time></trkpt><trkpt lat="43.5804542" lon="12.3101563"><ele>919.0000000000001</ele><time>2026-05-01T11:33:15.783Z</time></trkpt><trkpt lat="43.5803549" lon="12.3102018"><ele>919.0</ele><time>2026-05-01T11:33:16.773Z</time></trkpt><trkpt lat="43.5802547" lon="12.3102262"><ele>919.0</ele><time>2026-05-01T11:33:17.787Z</time></trkpt><trkpt lat="43.5801706" lon="12.3102094"><ele>919.0</ele><time>2026-05-01T11:33:18.783Z</time></trkpt><trkpt lat="43.5800907" lon="12.3101526"><ele>919.0000000000001</ele><time>2026-05-01T11:33:19.783Z</time></trkpt><trkpt lat="43.5800384" lon="12.3100676"><ele>919.0000000000001</ele><time>2026-05-01T11:33:20.791Z</time></trkpt><trkpt lat="43.5800038" lon="12.3099572"><ele>919.0</ele><time>2026-05-01T11:33:21.8Z</time></trkpt><trkpt lat="43.5799879" lon="12.3098261"><ele>919.0</ele><time>2026-05-01T11:33:22.781Z</time></trkpt><trkpt lat="43.5799841" lon="12.3096699"><ele>916.0</ele><time>2026-05-01T11:33:23.79Z</time></trkpt><trkpt lat="43.5799745" lon="12.3095163"><ele>913.0</ele><time>2026-05-01T11:33:24.783Z</time></trkpt><trkpt lat="43.5799404" lon="12.3093659"><ele>910.0</ele><time>2026-05-01T11:33:25.791Z</time></trkpt><trkpt lat="43.57989" lon="12.3092114"><ele>907.0</ele><time>2026-05-01T11:33:26.788Z</time></trkpt><trkpt lat="43.579835" lon="12.309063"><ele>907.0</ele><time>2026-05-01T11:33:27.795Z</time></trkpt><trkpt lat="43.5797855" lon="12.3089209"><ele>907.0</ele><time>2026-05-01T11:33:28.786Z</time></trkpt><trkpt lat="43.5797611" lon="12.3087769"><ele>907.0</ele><time>2026-05-01T11:33:29.777Z</time></trkpt><trkpt lat="43.5797378" lon="12.3086459"><ele>907.0</ele><time>2026-05-01T11:33:30.78Z</time></trkpt><trkpt lat="43.579693" lon="12.3085314"><ele>907.0</ele><time>2026-05-01T11:33:31.791Z</time></trkpt><trkpt lat="43.579623" lon="12.3084335"><ele>906.5</ele><time>2026-05-01T11:33:32.789Z</time></trkpt><trkpt lat="43.5795368" lon="12.3083305"><ele>906.0</ele><time>2026-05-01T11:33:33.786Z</time></trkpt><trkpt lat="43.5794412" lon="12.3082147"><ele>905.5</ele><time>2026-05-01T11:33:34.781Z</time></trkpt><trkpt lat="43.5793471" lon="12.3081006"><ele>905.0</ele><time>2026-05-01T11:33:35.801Z</time></trkpt><trkpt lat="43.5792628" lon="12.3079838"><ele>902.2</ele><time>2026-05-01T11:33:36.782Z</time></trkpt><trkpt lat="43.5791729" lon="12.3078759"><ele>899.4</ele><time>2026-05-01T11:33:37.78Z</time></trkpt><trkpt lat="43.5790783" lon="12.3077954"><ele>896.5999999999999</ele><time>2026-05-01T11:33:38.777Z</time></trkpt><trkpt lat="43.5789758" lon="12.3077394"><ele>893.8</ele><time>2026-05-01T11:33:39.792Z</time></trkpt><trkpt lat="43.5788763" lon="12.3077019"><ele>891.0</ele><time>2026-05-01T11:33:40.778Z</time></trkpt><trkpt lat="43.5787846" lon="12.3076601"><ele>891.0</ele><time>2026-05-01T11:33:41.776Z</time></trkpt><trkpt lat="43.578698" lon="12.3076043"><ele>890.9999999999999</ele><time>2026-05-01T11:33:42.777Z</time></trkpt><trkpt lat="43.5786371" lon="12.307513"><ele>890.9999999999999</ele><time>2026-05-01T11:33:43.799Z</time></trkpt><trkpt lat="43.5786037" lon="12.3073936"><ele>891.0</ele><time>2026-05-01T11:33:44.775Z</time></trkpt><trkpt lat="43.5785838" lon="12.3072595"><ele>891.0</ele><time>2026-05-01T11:33:45.775Z</time></trkpt><trkpt lat="43.5785725" lon="12.3071145"><ele>889.5999999999999</ele><time>2026-05-01T11:33:46.782Z</time></trkpt><trkpt lat="43.5785552" lon="12.3069794"><ele>888.1999999999999</ele><time>2026-05-01T11:33:47.783Z</time></trkpt><trkpt lat="43.5785366" lon="12.3068622"><ele>886.8000000000001</ele><time>2026-05-01T11:33:48.776Z</time></trkpt><trkpt lat="43.5784957" lon="12.3067578"><ele>885.4000000000001</ele><time>2026-05-01T11:33:49.789Z</time></trkpt><trkpt lat="43.5784249" lon="12.3066722"><ele>884.0</ele><time>2026-05-01T11:33:50.782Z</time></trkpt><trkpt lat="43.5783458" lon="12.3066062"><ele>884.0</ele><time>2026-05-01T11:33:51.782Z</time></trkpt><trkpt lat="43.5782473" lon="12.3065781"><ele>884.0000000000001</ele><time>2026-05-01T11:33:52.785Z</time></trkpt><trkpt lat="43.5781444" lon="12.3065824"><ele>884.0000000000001</ele><time>2026-05-01T11:33:53.787Z</time></trkpt><trkpt lat="43.5780359" lon="12.3066091"><ele>884.0</ele><time>2026-05-01T11:33:54.776Z</time></trkpt><trkpt lat="43.5779059" lon="12.3066629"><ele>884.0</ele><time>2026-05-01T11:33:55.783Z</time></trkpt><trkpt lat="43.5777753" lon="12.3067172"><ele>883.75</ele><time>2026-05-01T11:33:56.796Z</time></trkpt><trkpt lat="43.5776482" lon="12.3067513"><ele>883.5</ele><time>2026-05-01T11:33:57.794Z</time></trkpt><trkpt lat="43.5775345" lon="12.3067559"><ele>883.25</ele><time>2026-05-01T11:33:58.778Z</time></trkpt><trkpt lat="43.5774268" lon="12.3067218"><ele>883.0</ele><time>2026-05-01T11:33:59.794Z</time></trkpt><trkpt lat="43.5773349" lon="12.3066685"><ele>883.0</ele><time>2026-05-01T11:34:00.78Z</time></trkpt><trkpt lat="43.5772552" lon="12.3065881"><ele>883.0</ele><time>2026-05-01T11:34:01.788Z</time></trkpt><trkpt lat="43.5771955" lon="12.3064888"><ele>883.0</ele><time>2026-05-01T11:34:02.776Z</time></trkpt><trkpt lat="43.5771491" lon="12.3063666"><ele>883.0</ele><time>2026-05-01T11:34:03.794Z</time></trkpt><trkpt lat="43.5771169" lon="12.3062359"><ele>883.0</ele><time>2026-05-01T11:34:04.782Z</time></trkpt><trkpt lat="43.5771091" lon="12.3060983"><ele>882.5999999999999</ele><time>2026-05-01T11:34:05.776Z</time></trkpt><trkpt lat="43.5771273" lon="12.3059698"><ele>882.1999999999999</ele><time>2026-05-01T11:34:06.776Z</time></trkpt><trkpt lat="43.5771654" lon="12.3058434"><ele>881.8</ele><time>2026-05-01T11:34:07.782Z</time></trkpt><trkpt lat="43.5772158" lon="12.3057093"><ele>881.4</ele><time>2026-05-01T11:34:08.784Z</time></trkpt><trkpt lat="43.5772764" lon="12.3055686"><ele>881.0</ele><time>2026-05-01T11:34:09.78Z</time></trkpt><trkpt lat="43.5773621" lon="12.305403"><ele>881.0</ele><time>2026-05-01T11:34:10.802Z</time></trkpt><trkpt lat="43.5774718" lon="12.305208"><ele>881.0</ele><time>2026-05-01T11:34:11.783Z</time></trkpt><trkpt lat="43.5775562" lon="12.3050288"><ele>881.0</ele><time>2026-05-01T11:34:12.784Z</time></trkpt><trkpt lat="43.5776171" lon="12.3048667"><ele>881.5999999999999</ele><time>2026-05-01T11:34:13.788Z</time></trkpt><trkpt lat="43.5776483" lon="12.3047211"><ele>882.1999999999999</ele><time>2026-05-01T11:34:14.787Z</time></trkpt><trkpt lat="43.5776472" lon="12.3045784"><ele>882.8000000000001</ele><time>2026-05-01T11:34:15.791Z</time></trkpt><trkpt lat="43.5776282" lon="12.30446"><ele>883.4000000000001</ele><time>2026-05-01T11:34:16.776Z</time></trkpt><trkpt lat="43.5775832" lon="12.304341"><ele>884.0</ele><time>2026-05-01T11:34:17.784Z</time></trkpt><trkpt lat="43.5775263" lon="12.3042331"><ele>884.0</ele><time>2026-05-01T11:34:18.779Z</time></trkpt><trkpt lat="43.5774726" lon="12.3041211"><ele>884.0000000000001</ele><time>2026-05-01T11:34:19.798Z</time></trkpt><trkpt lat="43.577428" lon="12.3040071"><ele>884.0000000000001</ele><time>2026-05-01T11:34:20.782Z</time></trkpt><trkpt lat="43.5774066" lon="12.3038974"><ele>884.0</ele><time>2026-05-01T11:34:21.787Z</time></trkpt><trkpt lat="43.5774098" lon="12.3037606"><ele>884.0</ele><time>2026-05-01T11:34:22.785Z</time></trkpt><trkpt lat="43.5774236" lon="12.3036262"><ele>884.2</ele><time>2026-05-01T11:34:23.772Z</time></trkpt><trkpt lat="43.5774446" lon="12.3034905"><ele>884.4000000000001</ele><time>2026-05-01T11:34:24.784Z</time></trkpt><trkpt lat="43.5774796" lon="12.3033561"><ele>884.6</ele><time>2026-05-01T11:34:25.797Z</time></trkpt><trkpt lat="43.5775242" lon="12.3032273"><ele>884.8</ele><time>2026-05-01T11:34:26.777Z</time></trkpt><trkpt lat="43.577573" lon="12.3031057"><ele>885.0</ele><time>2026-05-01T11:34:27.794Z</time></trkpt><trkpt lat="43.5776293" lon="12.3029818"><ele>883.5</ele><time>2026-05-01T11:34:28.783Z</time></trkpt><trkpt lat="43.5776862" lon="12.3028433"><ele>882.0</ele><time>2026-05-01T11:34:29.784Z</time></trkpt><trkpt lat="43.5777443" lon="12.3026925"><ele>880.5</ele><time>2026-05-01T11:34:30.774Z</time></trkpt><trkpt lat="43.5777991" lon="12.3025365"><ele>879.0</ele><time>2026-05-01T11:34:31.785Z</time></trkpt><trkpt lat="43.5778507" lon="12.3023711"><ele>877.25</ele><time>2026-05-01T11:34:32.786Z</time></trkpt><trkpt lat="43.5779023" lon="12.3021979"><ele>875.5</ele><time>2026-05-01T11:34:33.787Z</time></trkpt><trkpt lat="43.5779604" lon="12.3020171"><ele>873.75</ele><time>2026-05-01T11:34:34.783Z</time></trkpt><trkpt lat="43.5780184" lon="12.3018327"><ele>872.0</ele><time>2026-05-01T11:34:35.797Z</time></trkpt><trkpt lat="43.5780705" lon="12.301648"><ele>872.0</ele><time>2026-05-01T11:34:36.782Z</time></trkpt><trkpt lat="43.5781105" lon="12.3014631"><ele>872.0</ele><time>2026-05-01T11:34:37.785Z</time></trkpt><trkpt lat="43.5781455" lon="12.3012877"><ele>872.0</ele><time>2026-05-01T11:34:38.79Z</time></trkpt><trkpt lat="43.5781692" lon="12.3011101"><ele>872.0</ele><time>2026-05-01T11:34:39.786Z</time></trkpt><trkpt lat="43.578189" lon="12.3009319"><ele>873.2</ele><time>2026-05-01T11:34:40.789Z</time></trkpt><trkpt lat="43.5782147" lon="12.3007747"><ele>874.4000000000001</ele><time>2026-05-01T11:34:41.794Z</time></trkpt><trkpt lat="43.5782331" lon="12.3006354"><ele>875.5999999999999</ele><time>2026-05-01T11:34:42.776Z</time></trkpt><trkpt lat="43.5782483" lon="12.3005121"><ele>876.8</ele><time>2026-05-01T11:34:43.797Z</time></trkpt><trkpt lat="43.5782513" lon="12.3003991"><ele>878.0</ele><time>2026-05-01T11:34:44.788Z</time></trkpt><trkpt lat="43.5782514" lon="12.3002718"><ele>881.2</ele><time>2026-05-01T11:34:45.797Z</time></trkpt><trkpt lat="43.5782388" lon="12.300135"><ele>884.4</ele><time>2026-05-01T11:34:46.775Z</time></trkpt><trkpt lat="43.5782136" lon="12.3000132"><ele>887.6000000000001</ele><time>2026-05-01T11:34:47.792Z</time></trkpt><trkpt lat="43.5781758" lon="12.299892"><ele>890.8000000000001</ele><time>2026-05-01T11:34:48.783Z</time></trkpt><trkpt lat="43.5781175" lon="12.2997689"><ele>894.0</ele><time>2026-05-01T11:34:49.789Z</time></trkpt><trkpt lat="43.5780407" lon="12.2996455"><ele>894.6</ele><time>2026-05-01T11:34:50.783Z</time></trkpt><trkpt lat="43.5779699" lon="12.2995299"><ele>895.2</ele><time>2026-05-01T11:34:51.789Z</time></trkpt><trkpt lat="43.5779099" lon="12.2994313"><ele>895.8000000000001</ele><time>2026-05-01T11:34:52.784Z</time></trkpt><trkpt lat="43.577847" lon="12.2993302"><ele>896.4000000000001</ele><time>2026-05-01T11:34:53.793Z</time></trkpt><trkpt lat="43.5777738" lon="12.2992399"><ele>897.0</ele><time>2026-05-01T11:34:54.793Z</time></trkpt><trkpt lat="43.5776855" lon="12.2991708"><ele>893.6</ele><time>2026-05-01T11:34:55.787Z</time></trkpt><trkpt lat="43.5775792" lon="12.2991273"><ele>890.2</ele><time>2026-05-01T11:34:56.783Z</time></trkpt><trkpt lat="43.5774727" lon="12.2990834"><ele>886.8</ele><time>2026-05-01T11:34:57.8Z</time></trkpt><trkpt lat="43.5773697" lon="12.299027"><ele>883.4</ele><time>2026-05-01T11:34:58.805Z</time></trkpt><trkpt lat="43.5772693" lon="12.2989549"><ele>880.0</ele><time>2026-05-01T11:34:59.806Z</time></trkpt><trkpt lat="43.57718" lon="12.2988636"><ele>880.0</ele><time>2026-05-01T11:35:00.785Z</time></trkpt><trkpt lat="43.5770902" lon="12.2987805"><ele>880.0</ele><time>2026-05-01T11:35:01.782Z</time></trkpt><trkpt lat="43.5769932" lon="12.2987102"><ele>880.0</ele><time>2026-05-01T11:35:02.784Z</time></trkpt><trkpt lat="43.5768951" lon="12.2986347"><ele>880.0</ele><time>2026-05-01T11:35:03.788Z</time></trkpt><trkpt lat="43.5767972" lon="12.2985536"><ele>880.0</ele><time>2026-05-01T11:35:04.785Z</time></trkpt><trkpt lat="43.5767097" lon="12.2984563"><ele>875.4</ele><time>2026-05-01T11:35:05.783Z</time></trkpt><trkpt lat="43.5766269" lon="12.2983537"><ele>870.8</ele><time>2026-05-01T11:35:06.785Z</time></trkpt><trkpt lat="43.5765473" lon="12.2982386"><ele>866.2</ele><time>2026-05-01T11:35:07.794Z</time></trkpt><trkpt lat="43.5764781" lon="12.2981447"><ele>861.6</ele><time>2026-05-01T11:35:08.784Z</time></trkpt><trkpt lat="43.5764089" lon="12.2980473"><ele>857.0</ele><time>2026-05-01T11:35:09.808Z</time></trkpt><trkpt lat="43.5763496" lon="12.2979629"><ele>857.0</ele><time>2026-05-01T11:35:10.783Z</time></trkpt><trkpt lat="43.5762941" lon="12.2978949"><ele>857.0</ele><time>2026-05-01T11:35:11.794Z</time></trkpt><trkpt lat="43.5762397" lon="12.2978365"><ele>857.0</ele><time>2026-05-01T11:35:12.781Z</time></trkpt><trkpt lat="43.5761219" lon="12.2978038"><ele>857.0</ele><time>2026-05-01T11:35:14.785Z</time></trkpt><trkpt lat="43.5760555" lon="12.2979051"><ele>857.0</ele><time>2026-05-01T11:35:16.786Z</time></trkpt><trkpt lat="43.5760521" lon="12.298056"><ele>857.0000000000001</ele><time>2026-05-01T11:35:18.783Z</time></trkpt><trkpt lat="43.5760853" lon="12.2981349"><ele>857.0</ele><time>2026-05-01T11:35:19.784Z</time></trkpt><trkpt lat="43.5761364" lon="12.2981982"><ele>857.0</ele><time>2026-05-01T11:35:20.795Z</time></trkpt><trkpt lat="43.5762095" lon="12.2982529"><ele>857.0</ele><time>2026-05-01T11:35:21.803Z</time></trkpt><trkpt lat="43.5762875" lon="12.298299"><ele>857.0000000000001</ele><time>2026-05-01T11:35:22.793Z</time></trkpt><trkpt lat="43.5763568" lon="12.2983572"><ele>857.0</ele><time>2026-05-01T11:35:23.781Z</time></trkpt><trkpt lat="43.5764233" lon="12.2984407"><ele>857.0</ele><time>2026-05-01T11:35:24.791Z</time></trkpt><trkpt lat="43.5764768" lon="12.2985483"><ele>857.0</ele><time>2026-05-01T11:35:25.8Z</time></trkpt><trkpt lat="43.5765258" lon="12.2986728"><ele>857.0</ele><time>2026-05-01T11:35:26.778Z</time></trkpt><trkpt lat="43.5765653" lon="12.2987994"><ele>857.0</ele><time>2026-05-01T11:35:27.785Z</time></trkpt><trkpt lat="43.5766009" lon="12.2989259"><ele>857.0</ele><time>2026-05-01T11:35:28.78Z</time></trkpt><trkpt lat="43.5766338" lon="12.2990544"><ele>854.0</ele><time>2026-05-01T11:35:29.79Z</time></trkpt><trkpt lat="43.576664" lon="12.2991786"><ele>851.0</ele><time>2026-05-01T11:35:30.788Z</time></trkpt><trkpt lat="43.5766753" lon="12.2993075"><ele>848.0</ele><time>2026-05-01T11:35:31.791Z</time></trkpt><trkpt lat="43.5766708" lon="12.2994478"><ele>845.0</ele><time>2026-05-01T11:35:32.783Z</time></trkpt><trkpt lat="43.5766604" lon="12.2995881"><ele>842.0</ele><time>2026-05-01T11:35:33.795Z</time></trkpt><trkpt lat="43.5766604" lon="12.2997325"><ele>840.0</ele><time>2026-05-01T11:35:34.789Z</time></trkpt><trkpt lat="43.5766708" lon="12.2998831"><ele>838.0</ele><time>2026-05-01T11:35:35.799Z</time></trkpt><trkpt lat="43.5766887" lon="12.300018"><ele>836.0</ele><time>2026-05-01T11:35:36.779Z</time></trkpt><trkpt lat="43.5767047" lon="12.3001361"><ele>834.0</ele><time>2026-05-01T11:35:37.786Z</time></trkpt><trkpt lat="43.5767217" lon="12.3002495"><ele>832.0</ele><time>2026-05-01T11:35:38.784Z</time></trkpt><trkpt lat="43.5767311" lon="12.3003648"><ele>832.0</ele><time>2026-05-01T11:35:39.78Z</time></trkpt><trkpt lat="43.5767202" lon="12.3004804"><ele>832.0</ele><time>2026-05-01T11:35:40.778Z</time></trkpt><trkpt lat="43.5766849" lon="12.3005939"><ele>832.0</ele><time>2026-05-01T11:35:41.791Z</time></trkpt><trkpt lat="43.5766214" lon="12.3006945"><ele>832.0</ele><time>2026-05-01T11:35:42.781Z</time></trkpt><trkpt lat="43.576534" lon="12.3007794"><ele>832.0</ele><time>2026-05-01T11:35:43.796Z</time></trkpt><trkpt lat="43.5764373" lon="12.3008481"><ele>831.8</ele><time>2026-05-01T11:35:44.789Z</time></trkpt><trkpt lat="43.5763583" lon="12.3009187"><ele>831.6</ele><time>2026-05-01T11:35:45.783Z</time></trkpt><trkpt lat="43.5762905" lon="12.3010081"><ele>831.4</ele><time>2026-05-01T11:35:46.786Z</time></trkpt><trkpt lat="43.5762293" lon="12.3011116"><ele>831.1999999999999</ele><time>2026-05-01T11:35:47.786Z</time></trkpt><trkpt lat="43.5761807" lon="12.3012171"><ele>831.0</ele><time>2026-05-01T11:35:48.787Z</time></trkpt><trkpt lat="43.5761321" lon="12.3013129"><ele>829.1999999999999</ele><time>2026-05-01T11:35:49.784Z</time></trkpt><trkpt lat="43.576069" lon="12.3014023"><ele>827.4</ele><time>2026-05-01T11:35:50.776Z</time></trkpt><trkpt lat="43.5759908" lon="12.3014646"><ele>825.6</ele><time>2026-05-01T11:35:51.797Z</time></trkpt><trkpt lat="43.5759048" lon="12.3014916"><ele>823.8</ele><time>2026-05-01T11:35:52.784Z</time></trkpt><trkpt lat="43.575821" lon="12.3014916"><ele>822.0</ele><time>2026-05-01T11:35:53.791Z</time></trkpt><trkpt lat="43.5757249" lon="12.3014578"><ele>818.5</ele><time>2026-05-01T11:35:54.791Z</time></trkpt><trkpt lat="43.5756197" lon="12.301387"><ele>815.0</ele><time>2026-05-01T11:35:55.768Z</time></trkpt><trkpt lat="43.5755156" lon="12.3013067"><ele>811.5</ele><time>2026-05-01T11:35:56.789Z</time></trkpt><trkpt lat="43.5754109" lon="12.3012411"><ele>808.0</ele><time>2026-05-01T11:35:57.792Z</time></trkpt><trkpt lat="43.5753065" lon="12.3011907"><ele>804.5</ele><time>2026-05-01T11:35:58.783Z</time></trkpt><trkpt lat="43.5751942" lon="12.3011564"><ele>801.0</ele><time>2026-05-01T11:35:59.791Z</time></trkpt><trkpt lat="43.5750774" lon="12.3011426"><ele>797.5</ele><time>2026-05-01T11:36:00.787Z</time></trkpt><trkpt lat="43.5749514" lon="12.3011328"><ele>794.0</ele><time>2026-05-01T11:36:01.783Z</time></trkpt><trkpt lat="43.5748256" lon="12.3011294"><ele>794.0</ele><time>2026-05-01T11:36:02.785Z</time></trkpt><trkpt lat="43.5747018" lon="12.3011373"><ele>794.0</ele><time>2026-05-01T11:36:03.782Z</time></trkpt><trkpt lat="43.574577" lon="12.3011373"><ele>794.0</ele><time>2026-05-01T11:36:04.773Z</time></trkpt><trkpt lat="43.5744584" lon="12.3011383"><ele>794.0</ele><time>2026-05-01T11:36:05.782Z</time></trkpt><trkpt lat="43.5743479" lon="12.3011313"><ele>792.5</ele><time>2026-05-01T11:36:06.776Z</time></trkpt><trkpt lat="43.5742365" lon="12.3011115"><ele>791.0</ele><time>2026-05-01T11:36:07.782Z</time></trkpt><trkpt lat="43.5741291" lon="12.3010745"><ele>789.5</ele><time>2026-05-01T11:36:08.774Z</time></trkpt><trkpt lat="43.5740226" lon="12.3010164"><ele>788.0</ele><time>2026-05-01T11:36:09.787Z</time></trkpt><trkpt lat="43.5739205" lon="12.300941"><ele>788.0</ele><time>2026-05-01T11:36:10.781Z</time></trkpt><trkpt lat="43.5738253" lon="12.3008744"><ele>788.0</ele><time>2026-05-01T11:36:11.782Z</time></trkpt><trkpt lat="43.5737352" lon="12.3008187"><ele>788.0</ele><time>2026-05-01T11:36:12.78Z</time></trkpt><trkpt lat="43.5736454" lon="12.3007621"><ele>788.0</ele><time>2026-05-01T11:36:13.775Z</time></trkpt><trkpt lat="43.5735735" lon="12.3006912"><ele>788.0</ele><time>2026-05-01T11:36:14.789Z</time></trkpt><trkpt lat="43.5735244" lon="12.3006091"><ele>786.5</ele><time>2026-05-01T11:36:15.784Z</time></trkpt><trkpt lat="43.5734873" lon="12.3004805"><ele>785.0</ele><time>2026-05-01T11:36:16.782Z</time></trkpt><trkpt lat="43.5734637" lon="12.3003226"><ele>783.5</ele><time>2026-05-01T11:36:17.801Z</time></trkpt><trkpt lat="43.5734401" lon="12.3001598"><ele>782.0</ele><time>2026-05-01T11:36:18.788Z</time></trkpt><trkpt lat="43.5733984" lon="12.300013"><ele>782.0</ele><time>2026-05-01T11:36:19.792Z</time></trkpt><trkpt lat="43.57335" lon="12.2998951"><ele>782.0</ele><time>2026-05-01T11:36:20.782Z</time></trkpt><trkpt lat="43.5732754" lon="12.2997999"><ele>782.0</ele><time>2026-05-01T11:36:21.789Z</time></trkpt><trkpt lat="43.5731967" lon="12.2997271"><ele>782.0</ele><time>2026-05-01T11:36:22.788Z</time></trkpt><trkpt lat="43.5731089" lon="12.2996781"><ele>782.0</ele><time>2026-05-01T11:36:23.784Z</time></trkpt><trkpt lat="43.5730207" lon="12.2996497"><ele>778.8</ele><time>2026-05-01T11:36:24.785Z</time></trkpt><trkpt lat="43.5729279" lon="12.2996137"><ele>775.6</ele><time>2026-05-01T11:36:25.779Z</time></trkpt><trkpt lat="43.5728491" lon="12.299559"><ele>772.4</ele><time>2026-05-01T11:36:26.776Z</time></trkpt><trkpt lat="43.5727756" lon="12.2994826"><ele>769.1999999999999</ele><time>2026-05-01T11:36:27.783Z</time></trkpt><trkpt lat="43.5727104" lon="12.2993887"><ele>766.0</ele><time>2026-05-01T11:36:28.771Z</time></trkpt><trkpt lat="43.5726472" lon="12.2992783"><ele>766.0</ele><time>2026-05-01T11:36:29.777Z</time></trkpt><trkpt lat="43.5726003" lon="12.2991577"><ele>766.0</ele><time>2026-05-01T11:36:30.777Z</time></trkpt><trkpt lat="43.5725629" lon="12.2990414"><ele>766.0</ele><time>2026-05-01T11:36:31.767Z</time></trkpt><trkpt lat="43.5725425" lon="12.2989321"><ele>766.0</ele><time>2026-05-01T11:36:32.776Z</time></trkpt><trkpt lat="43.5724954" lon="12.2988285"><ele>766.0</ele><time>2026-05-01T11:36:33.779Z</time></trkpt><trkpt lat="43.5724436" lon="12.2987555"><ele>766.0</ele><time>2026-05-01T11:36:34.777Z</time></trkpt><trkpt lat="43.572373" lon="12.2986944"><ele>762.4</ele><time>2026-05-01T11:36:35.773Z</time></trkpt><trkpt lat="43.5722969" lon="12.2986524"><ele>758.8</ele><time>2026-05-01T11:36:36.777Z</time></trkpt><trkpt lat="43.5722023" lon="12.2986354"><ele>755.1999999999999</ele><time>2026-05-01T11:36:37.791Z</time></trkpt><trkpt lat="43.5721026" lon="12.2986312"><ele>751.5999999999999</ele><time>2026-05-01T11:36:38.77Z</time></trkpt><trkpt lat="43.5719908" lon="12.2986242"><ele>748.0</ele><time>2026-05-01T11:36:39.775Z</time></trkpt><trkpt lat="43.5718825" lon="12.2985996"><ele>746.5999999999999</ele><time>2026-05-01T11:36:40.771Z</time></trkpt><trkpt lat="43.5717768" lon="12.2985647"><ele>745.1999999999999</ele><time>2026-05-01T11:36:41.78Z</time></trkpt><trkpt lat="43.5716802" lon="12.2985264"><ele>743.8</ele><time>2026-05-01T11:36:42.773Z</time></trkpt><trkpt lat="43.5715862" lon="12.2984975"><ele>742.4</ele><time>2026-05-01T11:36:43.775Z</time></trkpt><trkpt lat="43.5714966" lon="12.2984814"><ele>741.0</ele><time>2026-05-01T11:36:44.776Z</time></trkpt><trkpt lat="43.5714067" lon="12.2984864"><ele>741.0</ele><time>2026-05-01T11:36:45.783Z</time></trkpt><trkpt lat="43.5713146" lon="12.298491"><ele>741.0</ele><time>2026-05-01T11:36:46.771Z</time></trkpt><trkpt lat="43.5712349" lon="12.2984872"><ele>741.0</ele><time>2026-05-01T11:36:47.773Z</time></trkpt><trkpt lat="43.5711249" lon="12.2984691"><ele>741.0</ele><time>2026-05-01T11:36:49.773Z</time></trkpt><trkpt lat="43.5710618" lon="12.2984064"><ele>741.0</ele><time>2026-05-01T11:36:51.777Z</time></trkpt><trkpt lat="43.5710178" lon="12.2983427"><ele>741.0</ele><time>2026-05-01T11:36:54.777Z</time></trkpt><trkpt lat="43.5710302" lon="12.2984406"><ele>741.0</ele><time>2026-05-01T11:36:58.77Z</time></trkpt><trkpt lat="43.5711239" lon="12.2984727"><ele>741.0</ele><time>2026-05-01T11:37:00.777Z</time></trkpt><trkpt lat="43.5711895" lon="12.298485"><ele>741.0</ele><time>2026-05-01T11:37:01.775Z</time></trkpt><trkpt lat="43.5712587" lon="12.2984869"><ele>741.0</ele><time>2026-05-01T11:37:02.785Z</time></trkpt><trkpt lat="43.5713385" lon="12.2984861"><ele>741.0</ele><time>2026-05-01T11:37:03.772Z</time></trkpt><trkpt lat="43.5714185" lon="12.2984862"><ele>741.0</ele><time>2026-05-01T11:37:04.767Z</time></trkpt><trkpt lat="43.571518" lon="12.2984898"><ele>741.0</ele><time>2026-05-01T11:37:05.768Z</time></trkpt><trkpt lat="43.5716354" lon="12.2985186"><ele>741.0</ele><time>2026-05-01T11:37:06.773Z</time></trkpt><trkpt lat="43.5717504" lon="12.2985551"><ele>741.0</ele><time>2026-05-01T11:37:07.775Z</time></trkpt><trkpt lat="43.571863" lon="12.2985984"><ele>741.0</ele><time>2026-05-01T11:37:08.769Z</time></trkpt><trkpt lat="43.5719752" lon="12.2986249"><ele>742.1666666666666</ele><time>2026-05-01T11:37:09.775Z</time></trkpt><trkpt lat="43.5720625" lon="12.2986333"><ele>743.3333333333334</ele><time>2026-05-01T11:37:10.771Z</time></trkpt><trkpt lat="43.5721262" lon="12.2986312"><ele>744.5</ele><time>2026-05-01T11:37:11.782Z</time></trkpt><trkpt lat="43.5722174" lon="12.2986315"><ele>745.6666666666667</ele><time>2026-05-01T11:37:13.793Z</time></trkpt><trkpt lat="43.572268" lon="12.2987161"><ele>746.8333333333334</ele><time>2026-05-01T11:37:16.789Z</time></trkpt><trkpt lat="43.5721937" lon="12.2988021"><ele>748.0</ele><time>2026-05-01T11:37:18.774Z</time></trkpt><trkpt lat="43.5721235" lon="12.2988479"><ele>748.0</ele><time>2026-05-01T11:37:19.78Z</time></trkpt><trkpt lat="43.5720298" lon="12.2989036"><ele>748.0</ele><time>2026-05-01T11:37:20.792Z</time></trkpt><trkpt lat="43.5719282" lon="12.2989555"><ele>748.0</ele><time>2026-05-01T11:37:21.791Z</time></trkpt><trkpt lat="43.5718279" lon="12.2989981"><ele>748.0</ele><time>2026-05-01T11:37:22.783Z</time></trkpt><trkpt lat="43.5717354" lon="12.2990401"><ele>748.0</ele><time>2026-05-01T11:37:23.772Z</time></trkpt><trkpt lat="43.5716509" lon="12.2991133"><ele>752.0</ele><time>2026-05-01T11:37:24.769Z</time></trkpt><trkpt lat="43.5715595" lon="12.2991912"><ele>756.0</ele><time>2026-05-01T11:37:25.779Z</time></trkpt><trkpt lat="43.5714667" lon="12.2992748"><ele>760.0</ele><time>2026-05-01T11:37:26.787Z</time></trkpt><trkpt lat="43.5713745" lon="12.2993673"><ele>764.0</ele><time>2026-05-01T11:37:27.775Z</time></trkpt><trkpt lat="43.5712789" lon="12.299462"><ele>764.4000000000001</ele><time>2026-05-01T11:37:28.766Z</time></trkpt><trkpt lat="43.5711838" lon="12.2995336"><ele>764.8</ele><time>2026-05-01T11:37:29.784Z</time></trkpt><trkpt lat="43.5710874" lon="12.2995859"><ele>765.2</ele><time>2026-05-01T11:37:30.786Z</time></trkpt><trkpt lat="43.5709784" lon="12.2996208"><ele>765.5999999999999</ele><time>2026-05-01T11:37:31.77Z</time></trkpt><trkpt lat="43.5708785" lon="12.2996075"><ele>766.0</ele><time>2026-05-01T11:37:32.765Z</time></trkpt><trkpt lat="43.5707843" lon="12.2995444"><ele>766.0</ele><time>2026-05-01T11:37:33.78Z</time></trkpt><trkpt lat="43.5706857" lon="12.2994553"><ele>766.0</ele><time>2026-05-01T11:37:34.775Z</time></trkpt><trkpt lat="43.5705774" lon="12.2993678"><ele>766.0</ele><time>2026-05-01T11:37:35.769Z</time></trkpt><trkpt lat="43.5704606" lon="12.2992854"><ele>766.0</ele><time>2026-05-01T11:37:36.78Z</time></trkpt><trkpt lat="43.5703347" lon="12.2992076"><ele>770.5</ele><time>2026-05-01T11:37:37.774Z</time></trkpt><trkpt lat="43.5702147" lon="12.299119"><ele>775.0</ele><time>2026-05-01T11:37:38.772Z</time></trkpt><trkpt lat="43.5700994" lon="12.2990318"><ele>779.5</ele><time>2026-05-01T11:37:39.767Z</time></trkpt><trkpt lat="43.5700071" lon="12.2989638"><ele>784.0</ele><time>2026-05-01T11:37:40.774Z</time></trkpt><trkpt lat="43.5699222" lon="12.2989254"><ele>784.0</ele><time>2026-05-01T11:37:41.772Z</time></trkpt><trkpt lat="43.5698497" lon="12.2989205"><ele>784.0</ele><time>2026-05-01T11:37:42.78Z</time></trkpt><trkpt lat="43.5697831" lon="12.2989584"><ele>784.0</ele><time>2026-05-01T11:37:43.78Z</time></trkpt><trkpt lat="43.5696851" lon="12.2990971"><ele>784.0</ele><time>2026-05-01T11:37:45.794Z</time></trkpt><trkpt lat="43.5696606" lon="12.299213"><ele>784.0</ele><time>2026-05-01T11:37:46.784Z</time></trkpt><trkpt lat="43.569648" lon="12.2993454"><ele>783.9999999999999</ele><time>2026-05-01T11:37:47.789Z</time></trkpt><trkpt lat="43.5696515" lon="12.2994868"><ele>784.0</ele><time>2026-05-01T11:37:48.788Z</time></trkpt><trkpt lat="43.569657" lon="12.2996214"><ele>784.0</ele><time>2026-05-01T11:37:49.79Z</time></trkpt><trkpt lat="43.5696493" lon="12.2997263"><ele>784.0</ele><time>2026-05-01T11:37:50.781Z</time></trkpt><trkpt lat="43.5696155" lon="12.2998125"><ele>783.9999999999999</ele><time>2026-05-01T11:37:51.782Z</time></trkpt><trkpt lat="43.5695565" lon="12.299848"><ele>784.0</ele><time>2026-05-01T11:37:52.771Z</time></trkpt><trkpt lat="43.5694709" lon="12.2998343"><ele>784.3333333333333</ele><time>2026-05-01T11:37:53.783Z</time></trkpt><trkpt lat="43.5693863" lon="12.2997674"><ele>784.6666666666666</ele><time>2026-05-01T11:37:54.784Z</time></trkpt><trkpt lat="43.5693104" lon="12.299688"><ele>785.0</ele><time>2026-05-01T11:37:55.786Z</time></trkpt><trkpt lat="43.569237" lon="12.2996239"><ele>785.3333333333333</ele><time>2026-05-01T11:37:56.782Z</time></trkpt><trkpt lat="43.5691684" lon="12.2995971"><ele>785.6666666666666</ele><time>2026-05-01T11:37:57.79Z</time></trkpt><trkpt lat="43.5690972" lon="12.2996002"><ele>786.0</ele><time>2026-05-01T11:37:58.774Z</time></trkpt><trkpt lat="43.5690237" lon="12.2996481"><ele>786.0</ele><time>2026-05-01T11:37:59.775Z</time></trkpt><trkpt lat="43.5689407" lon="12.2997256"><ele>786.0</ele><time>2026-05-01T11:38:00.772Z</time></trkpt><trkpt lat="43.5688561" lon="12.2998069"><ele>786.0</ele><time>2026-05-01T11:38:01.774Z</time></trkpt><trkpt lat="43.5687596" lon="12.2998692"><ele>786.0</ele><time>2026-05-01T11:38:02.781Z</time></trkpt><trkpt lat="43.5686607" lon="12.2998869"><ele>786.0</ele><time>2026-05-01T11:38:03.773Z</time></trkpt><trkpt lat="43.5685594" lon="12.2998718"><ele>788.8333333333334</ele><time>2026-05-01T11:38:04.786Z</time></trkpt><trkpt lat="43.5684654" lon="12.2998329"><ele>791.6666666666667</ele><time>2026-05-01T11:38:05.788Z</time></trkpt><trkpt lat="43.568386" lon="12.2998267"><ele>794.5</ele><time>2026-05-01T11:38:06.775Z</time></trkpt><trkpt lat="43.5683078" lon="12.2998616"><ele>797.3333333333334</ele><time>2026-05-01T11:38:07.783Z</time></trkpt><trkpt lat="43.5682456" lon="12.2999183"><ele>800.1666666666667</ele><time>2026-05-01T11:38:08.784Z</time></trkpt><trkpt lat="43.5681967" lon="12.2999979"><ele>803.0</ele><time>2026-05-01T11:38:09.78Z</time></trkpt><trkpt lat="43.5681537" lon="12.3000806"><ele>803.0000000000001</ele><time>2026-05-01T11:38:10.785Z</time></trkpt><trkpt lat="43.5681383" lon="12.300175"><ele>803.0</ele><time>2026-05-01T11:38:11.781Z</time></trkpt><trkpt lat="43.5681422" lon="12.3002786"><ele>803.0</ele><time>2026-05-01T11:38:12.776Z</time></trkpt><trkpt lat="43.5681668" lon="12.3003889"><ele>803.0</ele><time>2026-05-01T11:38:13.78Z</time></trkpt><trkpt lat="43.5681996" lon="12.3004892"><ele>803.0000000000001</ele><time>2026-05-01T11:38:14.766Z</time></trkpt><trkpt lat="43.5681718" lon="12.3006086"><ele>803.0</ele><time>2026-05-01T11:38:16.772Z</time></trkpt><trkpt lat="43.5680614" lon="12.3006579"><ele>805.3333333333334</ele><time>2026-05-01T11:38:18.784Z</time></trkpt><trkpt lat="43.567992" lon="12.3006514"><ele>807.6666666666667</ele><time>2026-05-01T11:38:19.81Z</time></trkpt><trkpt lat="43.5679294" lon="12.3006686"><ele>810.0</ele><time>2026-05-01T11:38:20.784Z</time></trkpt><trkpt lat="43.5678447" lon="12.3008011"><ele>812.3333333333333</ele><time>2026-05-01T11:38:22.78Z</time></trkpt><trkpt lat="43.5678187" lon="12.3008931"><ele>814.6666666666666</ele><time>2026-05-01T11:38:23.805Z</time></trkpt><trkpt lat="43.567812" lon="12.3009978"><ele>817.0</ele><time>2026-05-01T11:38:24.782Z</time></trkpt><trkpt lat="43.5677913" lon="12.3011021"><ele>816.9999999999999</ele><time>2026-05-01T11:38:25.774Z</time></trkpt><trkpt lat="43.5677375" lon="12.3011743"><ele>817.0</ele><time>2026-05-01T11:38:26.776Z</time></trkpt><trkpt lat="43.5676764" lon="12.3012262"><ele>817.0</ele><time>2026-05-01T11:38:27.79Z</time></trkpt><trkpt lat="43.5675905" lon="12.301242"><ele>817.0</ele><time>2026-05-01T11:38:28.789Z</time></trkpt><trkpt lat="43.5674875" lon="12.3012271"><ele>816.9999999999999</ele><time>2026-05-01T11:38:29.805Z</time></trkpt><trkpt lat="43.5673781" lon="12.3011988"><ele>817.0</ele><time>2026-05-01T11:38:30.778Z</time></trkpt><trkpt lat="43.5672798" lon="12.3011806"><ele>817.0</ele><time>2026-05-01T11:38:31.786Z</time></trkpt><trkpt lat="43.5671841" lon="12.3011794"><ele>817.0</ele><time>2026-05-01T11:38:32.781Z</time></trkpt><trkpt lat="43.5670929" lon="12.3012071"><ele>817.0</ele><time>2026-05-01T11:38:33.785Z</time></trkpt><trkpt lat="43.5670156" lon="12.3012714"><ele>817.0</ele><time>2026-05-01T11:38:34.788Z</time></trkpt><trkpt lat="43.5669554" lon="12.3013608"><ele>817.0</ele><time>2026-05-01T11:38:35.792Z</time></trkpt><trkpt lat="43.5668987" lon="12.3014525"><ele>819.1666666666666</ele><time>2026-05-01T11:38:36.776Z</time></trkpt><trkpt lat="43.5668854" lon="12.3016046"><ele>821.3333333333333</ele><time>2026-05-01T11:38:38.799Z</time></trkpt><trkpt lat="43.5669244" lon="12.3016757"><ele>823.5</ele><time>2026-05-01T11:38:39.787Z</time></trkpt><trkpt lat="43.5669905" lon="12.301743"><ele>825.6666666666667</ele><time>2026-05-01T11:38:40.788Z</time></trkpt><trkpt lat="43.5670743" lon="12.3017999"><ele>827.8333333333334</ele><time>2026-05-01T11:38:41.799Z</time></trkpt><trkpt lat="43.567139" lon="12.3018555"><ele>830.0</ele><time>2026-05-01T11:38:42.787Z</time></trkpt><trkpt lat="43.5671684" lon="12.3019418"><ele>830.0</ele><time>2026-05-01T11:38:43.793Z</time></trkpt><trkpt lat="43.5671736" lon="12.302035"><ele>830.0</ele><time>2026-05-01T11:38:44.789Z</time></trkpt><trkpt lat="43.5671569" lon="12.3021189"><ele>830.0</ele><time>2026-05-01T11:38:45.788Z</time></trkpt><trkpt lat="43.5671154" lon="12.3021882"><ele>830.0</ele><time>2026-05-01T11:38:46.782Z</time></trkpt><trkpt lat="43.5670713" lon="12.3022608"><ele>830.0</ele><time>2026-05-01T11:38:47.789Z</time></trkpt><trkpt lat="43.5670375" lon="12.3023433"><ele>830.0</ele><time>2026-05-01T11:38:48.8Z</time></trkpt><trkpt lat="43.5670289" lon="12.302432"><ele>830.0</ele><time>2026-05-01T11:38:49.783Z</time></trkpt><trkpt lat="43.5670512" lon="12.30254"><ele>832.0000000000001</ele><time>2026-05-01T11:38:50.797Z</time></trkpt><trkpt lat="43.5670727" lon="12.302638"><ele>834.0</ele><time>2026-05-01T11:38:51.785Z</time></trkpt><trkpt lat="43.5670753" lon="12.3027282"><ele>836.0</ele><time>2026-05-01T11:38:52.78Z</time></trkpt><trkpt lat="43.5670416" lon="12.30281"><ele>838.0</ele><time>2026-05-01T11:38:53.788Z</time></trkpt><trkpt lat="43.5669353" lon="12.3028507"><ele>840.0000000000001</ele><time>2026-05-01T11:38:55.798Z</time></trkpt><trkpt lat="43.5668731" lon="12.3028314"><ele>842.0</ele><time>2026-05-01T11:38:56.787Z</time></trkpt><trkpt lat="43.56679" lon="12.3027847"><ele>843.2</ele><time>2026-05-01T11:38:57.797Z</time></trkpt><trkpt lat="43.5666991" lon="12.3027457"><ele>844.4000000000001</ele><time>2026-05-01T11:38:58.789Z</time></trkpt><trkpt lat="43.5666121" lon="12.302715"><ele>845.5999999999999</ele><time>2026-05-01T11:38:59.791Z</time></trkpt><trkpt lat="43.5665124" lon="12.3027193"><ele>846.8</ele><time>2026-05-01T11:39:00.785Z</time></trkpt><trkpt lat="43.5664152" lon="12.3027514"><ele>848.0</ele><time>2026-05-01T11:39:01.79Z</time></trkpt><trkpt lat="43.5663152" lon="12.302798"><ele>848.0</ele><time>2026-05-01T11:39:02.794Z</time></trkpt><trkpt lat="43.5662139" lon="12.3028382"><ele>848.0</ele><time>2026-05-01T11:39:03.778Z</time></trkpt><trkpt lat="43.5661155" lon="12.3028502"><ele>848.0</ele><time>2026-05-01T11:39:04.773Z</time></trkpt><trkpt lat="43.5660403" lon="12.3028322"><ele>848.0</ele><time>2026-05-01T11:39:05.783Z</time></trkpt><trkpt lat="43.5659724" lon="12.3027815"><ele>848.0</ele><time>2026-05-01T11:39:06.801Z</time></trkpt><trkpt lat="43.5659001" lon="12.3027007"><ele>850.4</ele><time>2026-05-01T11:39:07.798Z</time></trkpt><trkpt lat="43.5658378" lon="12.3026181"><ele>852.8</ele><time>2026-05-01T11:39:08.782Z</time></trkpt><trkpt lat="43.5657789" lon="12.3025625"><ele>855.2</ele><time>2026-05-01T11:39:09.784Z</time></trkpt><trkpt lat="43.5656741" lon="12.3025631"><ele>857.6</ele><time>2026-05-01T11:39:11.791Z</time></trkpt><trkpt lat="43.5656081" lon="12.3026642"><ele>860.0</ele><time>2026-05-01T11:39:13.792Z</time></trkpt><trkpt lat="43.565583" lon="12.3028136"><ele>860.0000000000001</ele><time>2026-05-01T11:39:15.79Z</time></trkpt><trkpt lat="43.5655578" lon="12.3028989"><ele>860.0</ele><time>2026-05-01T11:39:16.779Z</time></trkpt><trkpt lat="43.5655076" lon="12.3029792"><ele>860.0</ele><time>2026-05-01T11:39:17.785Z</time></trkpt><trkpt lat="43.565451" lon="12.3030366"><ele>860.0</ele><time>2026-05-01T11:39:18.781Z</time></trkpt><trkpt lat="43.5653789" lon="12.303071"><ele>860.0000000000001</ele><time>2026-05-01T11:39:19.804Z</time></trkpt><trkpt lat="43.565298" lon="12.3031068"><ele>860.0</ele><time>2026-05-01T11:39:20.785Z</time></trkpt><trkpt lat="43.565217" lon="12.3031479"><ele>862.2</ele><time>2026-05-01T11:39:21.807Z</time></trkpt><trkpt lat="43.5651526" lon="12.303219"><ele>864.4</ele><time>2026-05-01T11:39:22.768Z</time></trkpt><trkpt lat="43.5651095" lon="12.3033323"><ele>866.5999999999999</ele><time>2026-05-01T11:39:23.79Z</time></trkpt><trkpt lat="43.5650823" lon="12.3034677"><ele>868.8</ele><time>2026-05-01T11:39:24.782Z</time></trkpt><trkpt lat="43.5650424" lon="12.303582"><ele>871.0</ele><time>2026-05-01T11:39:25.794Z</time></trkpt><trkpt lat="43.5649665" lon="12.3036556"><ele>871.0</ele><time>2026-05-01T11:39:26.781Z</time></trkpt><trkpt lat="43.5648829" lon="12.3037193"><ele>870.9999999999999</ele><time>2026-05-01T11:39:27.793Z</time></trkpt><trkpt lat="43.5647809" lon="12.3037905"><ele>870.9999999999999</ele><time>2026-05-01T11:39:28.784Z</time></trkpt><trkpt lat="43.5646795" lon="12.3038593"><ele>871.0</ele><time>2026-05-01T11:39:29.792Z</time></trkpt><trkpt lat="43.5645872" lon="12.3039145"><ele>871.0</ele><time>2026-05-01T11:39:30.784Z</time></trkpt><trkpt lat="43.5644789" lon="12.3039632"><ele>874.1999999999999</ele><time>2026-05-01T11:39:31.797Z</time></trkpt><trkpt lat="43.5643707" lon="12.3040036"><ele>877.3999999999999</ele><time>2026-05-01T11:39:32.788Z</time></trkpt><trkpt lat="43.5642802" lon="12.3040366"><ele>880.6</ele><time>2026-05-01T11:39:33.787Z</time></trkpt><trkpt lat="43.5641934" lon="12.3040974"><ele>883.8</ele><time>2026-05-01T11:39:34.794Z</time></trkpt><trkpt lat="43.5641042" lon="12.3041818"><ele>887.0</ele><time>2026-05-01T11:39:35.795Z</time></trkpt><trkpt lat="43.5640108" lon="12.3042712"><ele>887.0</ele><time>2026-05-01T11:39:36.8Z</time></trkpt><trkpt lat="43.5639193" lon="12.3043417"><ele>887.0</ele><time>2026-05-01T11:39:37.783Z</time></trkpt><trkpt lat="43.5638054" lon="12.3043774"><ele>887.0</ele><time>2026-05-01T11:39:38.781Z</time></trkpt><trkpt lat="43.5636948" lon="12.3043823"><ele>887.0</ele><time>2026-05-01T11:39:39.807Z</time></trkpt><trkpt lat="43.5636029" lon="12.3043895"><ele>887.0</ele><time>2026-05-01T11:39:40.81Z</time></trkpt><trkpt lat="43.563516" lon="12.3044147"><ele>887.2</ele><time>2026-05-01T11:39:41.791Z</time></trkpt><trkpt lat="43.5634338" lon="12.3044624"><ele>887.4000000000001</ele><time>2026-05-01T11:39:42.791Z</time></trkpt><trkpt lat="43.5633578" lon="12.3045538"><ele>887.5999999999999</ele><time>2026-05-01T11:39:43.793Z</time></trkpt><trkpt lat="43.5632703" lon="12.3046733"><ele>887.8</ele><time>2026-05-01T11:39:44.787Z</time></trkpt><trkpt lat="43.5631756" lon="12.3047812"><ele>888.0</ele><time>2026-05-01T11:39:45.806Z</time></trkpt><trkpt lat="43.5630777" lon="12.3048611"><ele>891.4</ele><time>2026-05-01T11:39:46.785Z</time></trkpt><trkpt lat="43.5629805" lon="12.3049033"><ele>894.8</ele><time>2026-05-01T11:39:47.793Z</time></trkpt><trkpt lat="43.5628855" lon="12.3049184"><ele>898.2</ele><time>2026-05-01T11:39:48.785Z</time></trkpt><trkpt lat="43.5627949" lon="12.3048967"><ele>901.6</ele><time>2026-05-01T11:39:49.78Z</time></trkpt><trkpt lat="43.5627142" lon="12.3048576"><ele>905.0</ele><time>2026-05-01T11:39:50.797Z</time></trkpt><trkpt lat="43.5626379" lon="12.3048003"><ele>903.8</ele><time>2026-05-01T11:39:51.794Z</time></trkpt><trkpt lat="43.562559" lon="12.3047294"><ele>902.6</ele><time>2026-05-01T11:39:52.791Z</time></trkpt><trkpt lat="43.56248" lon="12.3046569"><ele>901.4000000000001</ele><time>2026-05-01T11:39:53.789Z</time></trkpt><trkpt lat="43.5624059" lon="12.3045807"><ele>900.2</ele><time>2026-05-01T11:39:54.777Z</time></trkpt><trkpt lat="43.5623418" lon="12.304492"><ele>899.0</ele><time>2026-05-01T11:39:55.81Z</time></trkpt><trkpt lat="43.5622757" lon="12.3043858"><ele>899.0000000000001</ele><time>2026-05-01T11:39:56.789Z</time></trkpt><trkpt lat="43.5622138" lon="12.3042886"><ele>899.0</ele><time>2026-05-01T11:39:57.783Z</time></trkpt><trkpt lat="43.5621558" lon="12.3042153"><ele>899.0</ele><time>2026-05-01T11:39:58.798Z</time></trkpt><trkpt lat="43.5620879" lon="12.3041707"><ele>899.0</ele><time>2026-05-01T11:39:59.783Z</time></trkpt><trkpt lat="43.5620114" lon="12.304139"><ele>899.0000000000001</ele><time>2026-05-01T11:40:00.784Z</time></trkpt><trkpt lat="43.5619432" lon="12.304117"><ele>899.0</ele><time>2026-05-01T11:40:01.788Z</time></trkpt><trkpt lat="43.5618275" lon="12.3041299"><ele>898.8333333333334</ele><time>2026-05-01T11:40:03.785Z</time></trkpt><trkpt lat="43.5617598" lon="12.3041161"><ele>898.6666666666667</ele><time>2026-05-01T11:40:05.79Z</time></trkpt><trkpt lat="43.5617027" lon="12.3040693"><ele>898.5</ele><time>2026-05-01T11:40:07.795Z</time></trkpt><trkpt lat="43.5616303" lon="12.3039876"><ele>898.3333333333333</ele><time>2026-05-01T11:40:09.794Z</time></trkpt><trkpt lat="43.5615826" lon="12.3039276"><ele>898.1666666666666</ele><time>2026-05-01T11:40:10.79Z</time></trkpt><trkpt lat="43.5615192" lon="12.303858"><ele>898.0</ele><time>2026-05-01T11:40:11.8Z</time></trkpt><trkpt lat="43.561453" lon="12.3037857"><ele>898.0</ele><time>2026-05-01T11:40:12.785Z</time></trkpt><trkpt lat="43.5613845" lon="12.3036966"><ele>898.0</ele><time>2026-05-01T11:40:13.804Z</time></trkpt><trkpt lat="43.5613271" lon="12.3036046"><ele>898.0</ele><time>2026-05-01T11:40:14.786Z</time></trkpt><trkpt lat="43.5612727" lon="12.3035052"><ele>898.0</ele><time>2026-05-01T11:40:15.779Z</time></trkpt><trkpt lat="43.5612174" lon="12.3034034"><ele>898.0</ele><time>2026-05-01T11:40:16.793Z</time></trkpt><trkpt lat="43.5611472" lon="12.3032859"><ele>898.0</ele><time>2026-05-01T11:40:17.782Z</time></trkpt><trkpt lat="43.5610745" lon="12.3031524"><ele>898.0</ele><time>2026-05-01T11:40:18.778Z</time></trkpt><trkpt lat="43.5610005" lon="12.3030288"><ele>898.0</ele><time>2026-05-01T11:40:19.795Z</time></trkpt><trkpt lat="43.5609282" lon="12.3029193"><ele>898.0</ele><time>2026-05-01T11:40:20.788Z</time></trkpt><trkpt lat="43.5608484" lon="12.3028197"><ele>898.0</ele><time>2026-05-01T11:40:21.797Z</time></trkpt><trkpt lat="43.5607628" lon="12.3027248"><ele>898.0</ele><time>2026-05-01T11:40:22.778Z</time></trkpt><trkpt lat="43.5606771" lon="12.3026354"><ele>898.0</ele><time>2026-05-01T11:40:23.805Z</time></trkpt><trkpt lat="43.5605903" lon="12.3025432"><ele>898.0</ele><time>2026-05-01T11:40:24.789Z</time></trkpt><trkpt lat="43.5605084" lon="12.3024511"><ele>898.0</ele><time>2026-05-01T11:40:25.804Z</time></trkpt><trkpt lat="43.5604401" lon="12.3023629"><ele>897.9999999999999</ele><time>2026-05-01T11:40:26.782Z</time></trkpt><trkpt lat="43.5603714" lon="12.3022708"><ele>898.0</ele><time>2026-05-01T11:40:27.792Z</time></trkpt><trkpt lat="43.5603138" lon="12.3021834"><ele>898.0</ele><time>2026-05-01T11:40:28.781Z</time></trkpt><trkpt lat="43.5602648" lon="12.3020958"><ele>898.0</ele><time>2026-05-01T11:40:29.792Z</time></trkpt><trkpt lat="43.5602225" lon="12.30202"><ele>897.9999999999999</ele><time>2026-05-01T11:40:30.815Z</time></trkpt><trkpt lat="43.5601798" lon="12.3019525"><ele>898.0</ele><time>2026-05-01T11:40:31.788Z</time></trkpt><trkpt lat="43.5601008" lon="12.3018323"><ele>898.1666666666666</ele><time>2026-05-01T11:40:33.815Z</time></trkpt><trkpt lat="43.5600211" lon="12.3017085"><ele>898.3333333333333</ele><time>2026-05-01T11:40:35.795Z</time></trkpt><trkpt lat="43.5599781" lon="12.3016341"><ele>898.5</ele><time>2026-05-01T11:40:36.787Z</time></trkpt><trkpt lat="43.5599408" lon="12.3015449"><ele>898.6666666666667</ele><time>2026-05-01T11:40:37.8Z</time></trkpt><trkpt lat="43.5599051" lon="12.3014452"><ele>898.8333333333334</ele><time>2026-05-01T11:40:38.787Z</time></trkpt><trkpt lat="43.5598714" lon="12.3013441"><ele>899.0</ele><time>2026-05-01T11:40:39.789Z</time></trkpt><trkpt lat="43.5598317" lon="12.3012389"><ele>898.0</ele><time>2026-05-01T11:40:40.803Z</time></trkpt><trkpt lat="43.5597718" lon="12.3011461"><ele>897.0000000000001</ele><time>2026-05-01T11:40:41.789Z</time></trkpt><trkpt lat="43.5597057" lon="12.3010565"><ele>896.0000000000001</ele><time>2026-05-01T11:40:42.797Z</time></trkpt><trkpt lat="43.5596364" lon="12.300962"><ele>895.0</ele><time>2026-05-01T11:40:43.806Z</time></trkpt><trkpt lat="43.5595686" lon="12.3008845"><ele>894.0</ele><time>2026-05-01T11:40:44.79Z</time></trkpt><trkpt lat="43.5595034" lon="12.300803"><ele>894.0</ele><time>2026-05-01T11:40:45.785Z</time></trkpt><trkpt lat="43.5594534" lon="12.3007052"><ele>894.0</ele><time>2026-05-01T11:40:46.808Z</time></trkpt><trkpt lat="43.5594136" lon="12.3005981"><ele>894.0</ele><time>2026-05-01T11:40:47.809Z</time></trkpt><trkpt lat="43.5593771" lon="12.3004791"><ele>894.0</ele><time>2026-05-01T11:40:48.779Z</time></trkpt><trkpt lat="43.5593453" lon="12.3003706"><ele>894.0</ele><time>2026-05-01T11:40:49.795Z</time></trkpt><trkpt lat="43.5593193" lon="12.3002622"><ele>894.0</ele><time>2026-05-01T11:40:50.784Z</time></trkpt><trkpt lat="43.5593031" lon="12.3001647"><ele>894.6</ele><time>2026-05-01T11:40:51.781Z</time></trkpt><trkpt lat="43.5592373" lon="12.3000185"><ele>895.2</ele><time>2026-05-01T11:40:53.781Z</time></trkpt><trkpt lat="43.5591596" lon="12.2999772"><ele>895.8000000000001</ele><time>2026-05-01T11:40:55.777Z</time></trkpt><trkpt lat="43.5591258" lon="12.3001054"><ele>896.4000000000001</ele><time>2026-05-01T11:40:57.782Z</time></trkpt><trkpt lat="43.5591291" lon="12.3002231"><ele>897.0</ele><time>2026-05-01T11:40:59.78Z</time></trkpt><trkpt lat="43.5591271" lon="12.3003733"><ele>897.0</ele><time>2026-05-01T11:41:01.789Z</time></trkpt><trkpt lat="43.5591133" lon="12.3004664"><ele>897.0</ele><time>2026-05-01T11:41:02.773Z</time></trkpt><trkpt lat="43.5590915" lon="12.3005603"><ele>897.0</ele><time>2026-05-01T11:41:03.782Z</time></trkpt><trkpt lat="43.5590677" lon="12.3006476"><ele>897.0</ele><time>2026-05-01T11:41:04.773Z</time></trkpt><trkpt lat="43.5590267" lon="12.3007449"><ele>897.0</ele><time>2026-05-01T11:41:05.785Z</time></trkpt><trkpt lat="43.5589625" lon="12.3008216"><ele>897.0</ele><time>2026-05-01T11:41:06.771Z</time></trkpt><trkpt lat="43.5588807" lon="12.300876"><ele>896.4000000000001</ele><time>2026-05-01T11:41:07.776Z</time></trkpt><trkpt lat="43.5587921" lon="12.3009125"><ele>895.8000000000001</ele><time>2026-05-01T11:41:08.775Z</time></trkpt><trkpt lat="43.5587002" lon="12.3009324"><ele>895.2</ele><time>2026-05-01T11:41:09.78Z</time></trkpt><trkpt lat="43.5586026" lon="12.300947"><ele>894.6</ele><time>2026-05-01T11:41:10.78Z</time></trkpt><trkpt lat="43.558487" lon="12.3009431"><ele>894.0</ele><time>2026-05-01T11:41:11.779Z</time></trkpt><trkpt lat="43.5583681" lon="12.3009213"><ele>890.0</ele><time>2026-05-01T11:41:12.785Z</time></trkpt><trkpt lat="43.5582363" lon="12.3008992"><ele>886.0</ele><time>2026-05-01T11:41:13.789Z</time></trkpt><trkpt lat="43.5581083" lon="12.300877"><ele>882.0</ele><time>2026-05-01T11:41:14.773Z</time></trkpt><trkpt lat="43.5579802" lon="12.3008532"><ele>878.0</ele><time>2026-05-01T11:41:15.79Z</time></trkpt><trkpt lat="43.5578543" lon="12.3008183"><ele>875.25</ele><time>2026-05-01T11:41:16.788Z</time></trkpt><trkpt lat="43.5577354" lon="12.3007854"><ele>872.5</ele><time>2026-05-01T11:41:17.776Z</time></trkpt><trkpt lat="43.5576166" lon="12.3007454"><ele>869.75</ele><time>2026-05-01T11:41:18.773Z</time></trkpt><trkpt lat="43.5574941" lon="12.3007001"><ele>867.0</ele><time>2026-05-01T11:41:19.792Z</time></trkpt><trkpt lat="43.5573678" lon="12.3006392"><ele>865.75</ele><time>2026-05-01T11:41:20.774Z</time></trkpt><trkpt lat="43.5572433" lon="12.3005692"><ele>864.5</ele><time>2026-05-01T11:41:21.784Z</time></trkpt><trkpt lat="43.5571254" lon="12.3004968"><ele>863.25</ele><time>2026-05-01T11:41:22.775Z</time></trkpt><trkpt lat="43.5570026" lon="12.3004243"><ele>862.0</ele><time>2026-05-01T11:41:23.785Z</time></trkpt><trkpt lat="43.5568785" lon="12.3003433"><ele>862.0</ele><time>2026-05-01T11:41:24.796Z</time></trkpt><trkpt lat="43.5567656" lon="12.3002695"><ele>862.0</ele><time>2026-05-01T11:41:25.799Z</time></trkpt><trkpt lat="43.5566579" lon="12.3001968"><ele>862.0</ele><time>2026-05-01T11:41:26.773Z</time></trkpt><trkpt lat="43.5565571" lon="12.3001355"><ele>862.0</ele><time>2026-05-01T11:41:27.782Z</time></trkpt><trkpt lat="43.5564647" lon="12.3000959"><ele>862.0</ele><time>2026-05-01T11:41:28.785Z</time></trkpt><trkpt lat="43.5563653" lon="12.3000728"><ele>862.0</ele><time>2026-05-01T11:41:29.782Z</time></trkpt><trkpt lat="43.5562534" lon="12.300063"><ele>862.0</ele><time>2026-05-01T11:41:30.771Z</time></trkpt><trkpt lat="43.5561448" lon="12.3000599"><ele>862.0</ele><time>2026-05-01T11:41:31.782Z</time></trkpt><trkpt lat="43.5560303" lon="12.3000605"><ele>862.0</ele><time>2026-05-01T11:41:32.787Z</time></trkpt><trkpt lat="43.5559058" lon="12.3000411"><ele>861.0</ele><time>2026-05-01T11:41:33.775Z</time></trkpt><trkpt lat="43.5557828" lon="12.3000014"><ele>860.0</ele><time>2026-05-01T11:41:34.779Z</time></trkpt><trkpt lat="43.5556641" lon="12.299955"><ele>859.0</ele><time>2026-05-01T11:41:35.783Z</time></trkpt><trkpt lat="43.5555509" lon="12.2999017"><ele>858.0</ele><time>2026-05-01T11:41:36.786Z</time></trkpt><trkpt lat="43.5554406" lon="12.2998284"><ele>855.75</ele><time>2026-05-01T11:41:37.787Z</time></trkpt><trkpt lat="43.5553276" lon="12.2997628"><ele>853.5</ele><time>2026-05-01T11:41:38.796Z</time></trkpt><trkpt lat="43.5552121" lon="12.2997061"><ele>851.25</ele><time>2026-05-01T11:41:39.78Z</time></trkpt><trkpt lat="43.5551022" lon="12.2996511"><ele>849.0</ele><time>2026-05-01T11:41:40.782Z</time></trkpt><trkpt lat="43.5549989" lon="12.2996078"><ele>849.0</ele><time>2026-05-01T11:41:41.784Z</time></trkpt><trkpt lat="43.5548973" lon="12.2995662"><ele>849.0</ele><time>2026-05-01T11:41:42.773Z</time></trkpt><trkpt lat="43.554804" lon="12.2995159"><ele>849.0</ele><time>2026-05-01T11:41:43.789Z</time></trkpt><trkpt lat="43.554716" lon="12.2994502"><ele>849.0</ele><time>2026-05-01T11:41:44.784Z</time></trkpt><trkpt lat="43.554632" lon="12.2993916"><ele>849.0</ele><time>2026-05-01T11:41:45.792Z</time></trkpt><trkpt lat="43.5545502" lon="12.2993592"><ele>849.1666666666666</ele><time>2026-05-01T11:41:46.783Z</time></trkpt><trkpt lat="43.5544703" lon="12.2993495"><ele>849.3333333333333</ele><time>2026-05-01T11:41:47.788Z</time></trkpt><trkpt lat="43.5543919" lon="12.2993376"><ele>849.5</ele><time>2026-05-01T11:41:48.787Z</time></trkpt><trkpt lat="43.5543183" lon="12.2993251"><ele>849.6666666666666</ele><time>2026-05-01T11:41:49.786Z</time></trkpt><trkpt lat="43.5542418" lon="12.299309"><ele>849.8333333333333</ele><time>2026-05-01T11:41:50.785Z</time></trkpt><trkpt lat="43.5541596" lon="12.2992896"><ele>850.0</ele><time>2026-05-01T11:41:51.785Z</time></trkpt><trkpt lat="43.5540755" lon="12.2992619"><ele>849.9999999999999</ele><time>2026-05-01T11:41:52.791Z</time></trkpt><trkpt lat="43.553994" lon="12.299234"><ele>850.0</ele><time>2026-05-01T11:41:53.782Z</time></trkpt><trkpt lat="43.5539099" lon="12.2992137"><ele>850.0</ele><time>2026-05-01T11:41:54.787Z</time></trkpt><trkpt lat="43.5538247" lon="12.2991857"><ele>850.0</ele><time>2026-05-01T11:41:55.789Z</time></trkpt><trkpt lat="43.5537453" lon="12.2991661"><ele>849.9999999999999</ele><time>2026-05-01T11:41:56.774Z</time></trkpt><trkpt lat="43.5536578" lon="12.2991493"><ele>850.0</ele><time>2026-05-01T11:41:57.788Z</time></trkpt><trkpt lat="43.5535643" lon="12.29914"><ele>848.2</ele><time>2026-05-01T11:41:58.776Z</time></trkpt><trkpt lat="43.553462" lon="12.2991318"><ele>846.4</ele><time>2026-05-01T11:41:59.78Z</time></trkpt><trkpt lat="43.553371" lon="12.299122"><ele>844.5999999999999</ele><time>2026-05-01T11:42:00.776Z</time></trkpt><trkpt lat="43.5532801" lon="12.2990989"><ele>842.8</ele><time>2026-05-01T11:42:01.781Z</time></trkpt><trkpt lat="43.5531962" lon="12.2990816"><ele>841.0</ele><time>2026-05-01T11:42:02.778Z</time></trkpt><trkpt lat="43.5531113" lon="12.299054"><ele>840.9999999999999</ele><time>2026-05-01T11:42:03.775Z</time></trkpt><trkpt lat="43.5530204" lon="12.2990225"><ele>841.0</ele><time>2026-05-01T11:42:04.775Z</time></trkpt><trkpt lat="43.5529368" lon="12.2990048"><ele>841.0</ele><time>2026-05-01T11:42:05.778Z</time></trkpt><trkpt lat="43.5528538" lon="12.2989887"><ele>841.0</ele><time>2026-05-01T11:42:06.778Z</time></trkpt><trkpt lat="43.5527711" lon="12.2989762"><ele>840.9999999999999</ele><time>2026-05-01T11:42:07.786Z</time></trkpt><trkpt lat="43.5526805" lon="12.2989755"><ele>841.0</ele><time>2026-05-01T11:42:08.777Z</time></trkpt><trkpt lat="43.5525922" lon="12.2989716"><ele>838.4999999999999</ele><time>2026-05-01T11:42:09.781Z</time></trkpt><trkpt lat="43.5525109" lon="12.2989639"><ele>836.0</ele><time>2026-05-01T11:42:10.779Z</time></trkpt><trkpt lat="43.5524408" lon="12.2989663"><ele>833.5</ele><time>2026-05-01T11:42:11.792Z</time></trkpt><trkpt lat="43.5523765" lon="12.2989669"><ele>831.0</ele><time>2026-05-01T11:42:12.78Z</time></trkpt><trkpt lat="43.5523128" lon="12.2989808"><ele>828.4999999999999</ele><time>2026-05-01T11:42:13.798Z</time></trkpt><trkpt lat="43.5522025" lon="12.2990451"><ele>826.0</ele><time>2026-05-01T11:42:15.797Z</time></trkpt><trkpt lat="43.5520988" lon="12.2991148"><ele>821.8</ele><time>2026-05-01T11:42:17.783Z</time></trkpt><trkpt lat="43.5519908" lon="12.2991549"><ele>817.5999999999999</ele><time>2026-05-01T11:42:19.784Z</time></trkpt><trkpt lat="43.5518754" lon="12.299117"><ele>813.4</ele><time>2026-05-01T11:42:21.808Z</time></trkpt><trkpt lat="43.5518174" lon="12.299061"><ele>809.2</ele><time>2026-05-01T11:42:22.777Z</time></trkpt><trkpt lat="43.5517523" lon="12.2989883"><ele>805.0</ele><time>2026-05-01T11:42:23.781Z</time></trkpt><trkpt lat="43.551702" lon="12.2988933"><ele>804.9999999999999</ele><time>2026-05-01T11:42:24.778Z</time></trkpt><trkpt lat="43.5516524" lon="12.2987949"><ele>805.0</ele><time>2026-05-01T11:42:25.789Z</time></trkpt><trkpt lat="43.5515995" lon="12.2987049"><ele>805.0</ele><time>2026-05-01T11:42:26.776Z</time></trkpt><trkpt lat="43.5515408" lon="12.2986293"><ele>805.0</ele><time>2026-05-01T11:42:27.782Z</time></trkpt><trkpt lat="43.5514805" lon="12.2985474"><ele>804.9999999999999</ele><time>2026-05-01T11:42:28.774Z</time></trkpt><trkpt lat="43.5514199" lon="12.2984592"><ele>805.0</ele><time>2026-05-01T11:42:29.784Z</time></trkpt><trkpt lat="43.5513612" lon="12.2983678"><ele>804.9999999999999</ele><time>2026-05-01T11:42:30.78Z</time></trkpt><trkpt lat="43.5513035" lon="12.2982717"><ele>805.0</ele><time>2026-05-01T11:42:31.787Z</time></trkpt><trkpt lat="43.5512449" lon="12.2981725"><ele>805.0</ele><time>2026-05-01T11:42:32.792Z</time></trkpt><trkpt lat="43.5511857" lon="12.2980746"><ele>805.0</ele><time>2026-05-01T11:42:33.787Z</time></trkpt><trkpt lat="43.5511282" lon="12.297984"><ele>804.9999999999999</ele><time>2026-05-01T11:42:34.784Z</time></trkpt><trkpt lat="43.5510699" lon="12.2978966"><ele>805.0</ele><time>2026-05-01T11:42:35.79Z</time></trkpt><trkpt lat="43.5510181" lon="12.2978191"><ele>802.3333333333333</ele><time>2026-05-01T11:42:36.78Z</time></trkpt><trkpt lat="43.5509663" lon="12.2977402"><ele>799.6666666666666</ele><time>2026-05-01T11:42:37.78Z</time></trkpt><trkpt lat="43.5509111" lon="12.2976552"><ele>797.0</ele><time>2026-05-01T11:42:38.782Z</time></trkpt><trkpt lat="43.5508516" lon="12.2975594"><ele>794.3333333333333</ele><time>2026-05-01T11:42:39.788Z</time></trkpt><trkpt lat="43.550796" lon="12.2974714"><ele>791.6666666666666</ele><time>2026-05-01T11:42:40.785Z</time></trkpt><trkpt lat="43.5507431" lon="12.2973907"><ele>789.0</ele><time>2026-05-01T11:42:41.791Z</time></trkpt><trkpt lat="43.5506968" lon="12.2973142"><ele>786.6666666666666</ele><time>2026-05-01T11:42:42.774Z</time></trkpt><trkpt lat="43.5506492" lon="12.2972284"><ele>784.3333333333333</ele><time>2026-05-01T11:42:43.786Z</time></trkpt><trkpt lat="43.5505989" lon="12.2971437"><ele>782.0</ele><time>2026-05-01T11:42:44.792Z</time></trkpt><trkpt lat="43.5505516" lon="12.2970672"><ele>779.6666666666666</ele><time>2026-05-01T11:42:45.794Z</time></trkpt><trkpt lat="43.5505068" lon="12.2970023"><ele>777.3333333333333</ele><time>2026-05-01T11:42:46.776Z</time></trkpt><trkpt lat="43.5504592" lon="12.2969273"><ele>775.0</ele><time>2026-05-01T11:42:47.793Z</time></trkpt><trkpt lat="43.5503962" lon="12.2968496"><ele>773.6666666666666</ele><time>2026-05-01T11:42:48.788Z</time></trkpt><trkpt lat="43.550332" lon="12.2967705"><ele>772.3333333333333</ele><time>2026-05-01T11:42:49.785Z</time></trkpt><trkpt lat="43.5502729" lon="12.2966933"><ele>771.0</ele><time>2026-05-01T11:42:50.774Z</time></trkpt><trkpt lat="43.5502151" lon="12.2966151"><ele>769.6666666666666</ele><time>2026-05-01T11:42:51.782Z</time></trkpt><trkpt lat="43.5501606" lon="12.2965247"><ele>768.3333333333333</ele><time>2026-05-01T11:42:52.784Z</time></trkpt><trkpt lat="43.550107" lon="12.2964481"><ele>767.0</ele><time>2026-05-01T11:42:53.797Z</time></trkpt><trkpt lat="43.5500551" lon="12.2963762"><ele>767.0</ele><time>2026-05-01T11:42:54.785Z</time></trkpt><trkpt lat="43.5500046" lon="12.2963219"><ele>767.0</ele><time>2026-05-01T11:42:55.78Z</time></trkpt><trkpt lat="43.549945" lon="12.2962908"><ele>767.0</ele><time>2026-05-01T11:42:56.779Z</time></trkpt><trkpt lat="43.5498463" lon="12.2963303"><ele>767.0</ele><time>2026-05-01T11:42:58.781Z</time></trkpt><trkpt lat="43.5497982" lon="12.2964157"><ele>767.0</ele><time>2026-05-01T11:43:00.787Z</time></trkpt><trkpt lat="43.5498392" lon="12.2965353"><ele>767.0</ele><time>2026-05-01T11:43:02.782Z</time></trkpt><trkpt lat="43.5498773" lon="12.2966485"><ele>767.0</ele><time>2026-05-01T11:43:04.777Z</time></trkpt><trkpt lat="43.5499244" lon="12.2967521"><ele>767.0</ele><time>2026-05-01T11:43:06.779Z</time></trkpt><trkpt lat="43.5499709" lon="12.2968604"><ele>767.0</ele><time>2026-05-01T11:43:08.776Z</time></trkpt><trkpt lat="43.5499704" lon="12.2970043"><ele>767.0</ele><time>2026-05-01T11:43:10.776Z</time></trkpt><trkpt lat="43.5499555" lon="12.2971401"><ele>767.0</ele><time>2026-05-01T11:43:12.78Z</time></trkpt><trkpt lat="43.5499502" lon="12.2972468"><ele>765.6666666666666</ele><time>2026-05-01T11:43:14.776Z</time></trkpt><trkpt lat="43.5499475" lon="12.2973753"><ele>764.3333333333333</ele><time>2026-05-01T11:43:16.779Z</time></trkpt><trkpt lat="43.5499413" lon="12.2974828"><ele>763.0</ele><time>2026-05-01T11:43:18.785Z</time></trkpt><trkpt lat="43.5499155" lon="12.2975972"><ele>761.6666666666666</ele><time>2026-05-01T11:44:08.785Z</time></trkpt><trkpt lat="43.5499059" lon="12.297688"><ele>760.3333333333334</ele><time>2026-05-01T11:44:10.78Z</time></trkpt><trkpt lat="43.5499084" lon="12.2977957"><ele>759.0</ele><time>2026-05-01T11:44:12.779Z</time></trkpt><trkpt lat="43.5499642" lon="12.2979226"><ele>759.0</ele><time>2026-05-01T11:44:14.793Z</time></trkpt><trkpt lat="43.5500173" lon="12.2980627"><ele>759.0</ele><time>2026-05-01T11:44:16.78Z</time></trkpt><trkpt lat="43.5500359" lon="12.2981878"><ele>759.0</ele><time>2026-05-01T11:44:18.772Z</time></trkpt><trkpt lat="43.5500167" lon="12.2983157"><ele>759.0</ele><time>2026-05-01T11:44:20.793Z</time></trkpt><trkpt lat="43.5499871" lon="12.2984771"><ele>759.0</ele><time>2026-05-01T11:44:22.782Z</time></trkpt><trkpt lat="43.5499748" lon="12.2986296"><ele>757.0</ele><time>2026-05-01T11:44:24.782Z</time></trkpt><trkpt lat="43.5500061" lon="12.2987473"><ele>755.0</ele><time>2026-05-01T11:44:26.782Z</time></trkpt><trkpt lat="43.5500419" lon="12.2988316"><ele>753.0</ele><time>2026-05-01T11:44:28.787Z</time></trkpt><trkpt lat="43.5500805" lon="12.2989365"><ele>751.0</ele><time>2026-05-01T11:44:31.784Z</time></trkpt><trkpt lat="43.5500907" lon="12.2990668"><ele>749.0</ele><time>2026-05-01T11:44:47.781Z</time></trkpt><trkpt lat="43.5500826" lon="12.2992224"><ele>747.7142857142857</ele><time>2026-05-01T11:44:49.778Z</time></trkpt><trkpt lat="43.5500768" lon="12.2993144"><ele>746.4285714285714</ele><time>2026-05-01T11:44:50.77Z</time></trkpt><trkpt lat="43.5500727" lon="12.2994146"><ele>745.1428571428571</ele><time>2026-05-01T11:44:51.778Z</time></trkpt><trkpt lat="43.550064" lon="12.2995166"><ele>743.8571428571429</ele><time>2026-05-01T11:44:52.767Z</time></trkpt><trkpt lat="43.5500442" lon="12.299605"><ele>742.5714285714286</ele><time>2026-05-01T11:44:53.779Z</time></trkpt><trkpt lat="43.5499851" lon="12.2996627"><ele>741.2857142857142</ele><time>2026-05-01T11:44:54.777Z</time></trkpt><trkpt lat="43.5499092" lon="12.2996963"><ele>740.0</ele><time>2026-05-01T11:44:55.788Z</time></trkpt><trkpt lat="43.5498333" lon="12.2996994"><ele>740.0</ele><time>2026-05-01T11:44:56.784Z</time></trkpt><trkpt lat="43.5497707" lon="12.2997211"><ele>740.0</ele><time>2026-05-01T11:44:57.794Z</time></trkpt><trkpt lat="43.5497178" lon="12.2998301"><ele>740.0</ele><time>2026-05-01T11:44:59.788Z</time></trkpt><trkpt lat="43.5497237" lon="12.2999209"><ele>740.0</ele><time>2026-05-01T11:45:00.779Z</time></trkpt><trkpt lat="43.5497528" lon="12.3000237"><ele>740.0</ele><time>2026-05-01T11:45:01.786Z</time></trkpt><trkpt lat="43.5497961" lon="12.3001146"><ele>740.0</ele><time>2026-05-01T11:45:02.777Z</time></trkpt><trkpt lat="43.5498483" lon="12.3001874"><ele>738.2</ele><time>2026-05-01T11:45:03.786Z</time></trkpt><trkpt lat="43.5499141" lon="12.3002633"><ele>736.4</ele><time>2026-05-01T11:45:04.777Z</time></trkpt><trkpt lat="43.5500003" lon="12.3003265"><ele>734.5999999999999</ele><time>2026-05-01T11:45:05.786Z</time></trkpt><trkpt lat="43.550089" lon="12.3003931"><ele>732.8</ele><time>2026-05-01T11:45:06.777Z</time></trkpt><trkpt lat="43.5501666" lon="12.300479"><ele>731.0</ele><time>2026-05-01T11:45:07.781Z</time></trkpt><trkpt lat="43.5502372" lon="12.3005525"><ele>729.5</ele><time>2026-05-01T11:45:08.781Z</time></trkpt><trkpt lat="43.5503053" lon="12.3006131"><ele>728.0</ele><time>2026-05-01T11:45:09.787Z</time></trkpt><trkpt lat="43.5503799" lon="12.3006591"><ele>726.5</ele><time>2026-05-01T11:45:10.779Z</time></trkpt><trkpt lat="43.5504498" lon="12.3006898"><ele>725.0</ele><time>2026-05-01T11:45:11.788Z</time></trkpt><trkpt lat="43.5505248" lon="12.3007088"><ele>723.5</ele><time>2026-05-01T11:45:12.781Z</time></trkpt><trkpt lat="43.5505955" lon="12.3007065"><ele>722.0</ele><time>2026-05-01T11:45:13.786Z</time></trkpt><trkpt lat="43.5506897" lon="12.3007069"><ele>722.0</ele><time>2026-05-01T11:45:15.777Z</time></trkpt><trkpt lat="43.550795" lon="12.3007359"><ele>722.0</ele><time>2026-05-01T11:45:17.779Z</time></trkpt><trkpt lat="43.5508878" lon="12.3008016"><ele>722.0</ele><time>2026-05-01T11:45:19.776Z</time></trkpt><trkpt lat="43.5509779" lon="12.3009054"><ele>722.0</ele><time>2026-05-01T11:45:21.778Z</time></trkpt><trkpt lat="43.5510743" lon="12.3010101"><ele>722.0</ele><time>2026-05-01T11:45:23.784Z</time></trkpt><trkpt lat="43.5511589" lon="12.3011549"><ele>722.0</ele><time>2026-05-01T11:45:25.792Z</time></trkpt><trkpt lat="43.5511852" lon="12.3012451"><ele>722.0</ele><time>2026-05-01T11:45:26.764Z</time></trkpt><trkpt lat="43.5512075" lon="12.301329"><ele>722.0</ele><time>2026-05-01T11:45:27.785Z</time></trkpt><trkpt lat="43.551196" lon="12.3014289"><ele>722.0</ele><time>2026-05-01T11:45:28.772Z</time></trkpt><trkpt lat="43.5511536" lon="12.3015094"><ele>722.0</ele><time>2026-05-01T11:45:29.776Z</time></trkpt><trkpt lat="43.551102" lon="12.3015669"><ele>717.6666666666666</ele><time>2026-05-01T11:45:30.771Z</time></trkpt><trkpt lat="43.5510011" lon="12.3016333"><ele>713.3333333333333</ele><time>2026-05-01T11:45:32.78Z</time></trkpt><trkpt lat="43.5509211" lon="12.301737"><ele>709.0</ele><time>2026-05-01T11:45:34.788Z</time></trkpt><trkpt lat="43.5508861" lon="12.3018098"><ele>704.6666666666666</ele><time>2026-05-01T11:45:35.778Z</time></trkpt><trkpt lat="43.5508498" lon="12.3018925"><ele>700.3333333333334</ele><time>2026-05-01T11:45:36.777Z</time></trkpt><trkpt lat="43.5508145" lon="12.3019716"><ele>696.0</ele><time>2026-05-01T11:45:37.775Z</time></trkpt><trkpt lat="43.5507735" lon="12.3020581"><ele>696.0</ele><time>2026-05-01T11:45:38.77Z</time></trkpt><trkpt lat="43.5507267" lon="12.3021319"><ele>696.0</ele><time>2026-05-01T11:45:39.78Z</time></trkpt><trkpt lat="43.5506712" lon="12.3021873"><ele>696.0</ele><time>2026-05-01T11:45:40.775Z</time></trkpt><trkpt lat="43.5506125" lon="12.3022332"><ele>696.0</ele><time>2026-05-01T11:45:41.778Z</time></trkpt><trkpt lat="43.5505134" lon="12.3023324"><ele>696.0</ele><time>2026-05-01T11:45:43.771Z</time></trkpt><trkpt lat="43.5504605" lon="12.302392"><ele>696.0</ele><time>2026-05-01T11:45:44.778Z</time></trkpt><trkpt lat="43.5504084" lon="12.3024501"><ele>691.3333333333334</ele><time>2026-05-01T11:45:45.783Z</time></trkpt><trkpt lat="43.5503589" lon="12.30251"><ele>686.6666666666666</ele><time>2026-05-01T11:45:46.773Z</time></trkpt><trkpt lat="43.5502926" lon="12.302609"><ele>682.0</ele><time>2026-05-01T11:45:48.778Z</time></trkpt><trkpt lat="43.5502309" lon="12.3026826"><ele>677.3333333333333</ele><time>2026-05-01T11:45:50.771Z</time></trkpt><trkpt lat="43.5501412" lon="12.3027459"><ele>672.6666666666666</ele><time>2026-05-01T11:45:52.767Z</time></trkpt><trkpt lat="43.5500544" lon="12.3027727"><ele>668.0</ele><time>2026-05-01T11:45:54.77Z</time></trkpt><trkpt lat="43.5499725" lon="12.3027777"><ele>668.0</ele><time>2026-05-01T11:45:56.779Z</time></trkpt><trkpt lat="43.5498844" lon="12.3028102"><ele>668.0</ele><time>2026-05-01T11:45:58.776Z</time></trkpt><trkpt lat="43.5497904" lon="12.3028859"><ele>668.0</ele><time>2026-05-01T11:46:00.777Z</time></trkpt><trkpt lat="43.5497389" lon="12.3029364"><ele>668.0</ele><time>2026-05-01T11:46:01.779Z</time></trkpt><trkpt lat="43.54969" lon="12.3029913"><ele>668.0</ele><time>2026-05-01T11:46:02.774Z</time></trkpt><trkpt lat="43.5496435" lon="12.3030508"><ele>668.0</ele><time>2026-05-01T11:46:03.781Z</time></trkpt><trkpt lat="43.5495987" lon="12.3031148"><ele>666.2</ele><time>2026-05-01T11:46:04.786Z</time></trkpt><trkpt lat="43.5495501" lon="12.3031754"><ele>664.4</ele><time>2026-05-01T11:46:05.788Z</time></trkpt><trkpt lat="43.5494584" lon="12.3032906"><ele>662.6</ele><time>2026-05-01T11:46:07.78Z</time></trkpt><trkpt lat="43.5493867" lon="12.3034066"><ele>660.8000000000001</ele><time>2026-05-01T11:46:09.788Z</time></trkpt><trkpt lat="43.549338" lon="12.3035257"><ele>659.0</ele><time>2026-05-01T11:46:11.795Z</time></trkpt><trkpt lat="43.5492861" lon="12.303647"><ele>656.0</ele><time>2026-05-01T11:46:13.779Z</time></trkpt><trkpt lat="43.5492207" lon="12.3036953"><ele>653.0</ele><time>2026-05-01T11:46:15.788Z</time></trkpt><trkpt lat="43.5491518" lon="12.3036704"><ele>650.0</ele><time>2026-05-01T11:46:17.791Z</time></trkpt><trkpt lat="43.549089" lon="12.3035675"><ele>647.0</ele><time>2026-05-01T11:46:19.778Z</time></trkpt><trkpt lat="43.5490813" lon="12.303413"><ele>644.0</ele><time>2026-05-01T11:46:21.775Z</time></trkpt><trkpt lat="43.5490916" lon="12.3032483"><ele>644.0</ele><time>2026-05-01T11:46:23.787Z</time></trkpt><trkpt lat="43.5491018" lon="12.3031578"><ele>644.0</ele><time>2026-05-01T11:46:24.774Z</time></trkpt><trkpt lat="43.5491136" lon="12.3030713"><ele>644.0</ele><time>2026-05-01T11:46:25.784Z</time></trkpt><trkpt lat="43.5491321" lon="12.3029825"><ele>644.0</ele><time>2026-05-01T11:46:26.775Z</time></trkpt><trkpt lat="43.5491618" lon="12.3028804"><ele>644.0</ele><time>2026-05-01T11:46:27.777Z</time></trkpt><trkpt lat="43.5491999" lon="12.3027752"><ele>644.0</ele><time>2026-05-01T11:46:28.776Z</time></trkpt><trkpt lat="43.5492462" lon="12.3026769"><ele>644.0</ele><time>2026-05-01T11:46:29.779Z</time></trkpt><trkpt lat="43.5492895" lon="12.3025871"><ele>643.6666666666666</ele><time>2026-05-01T11:46:30.772Z</time></trkpt><trkpt lat="43.549331" lon="12.3024914"><ele>643.3333333333333</ele><time>2026-05-01T11:46:31.778Z</time></trkpt><trkpt lat="43.5493611" lon="12.3023951"><ele>643.0</ele><time>2026-05-01T11:46:32.776Z</time></trkpt><trkpt lat="43.5493872" lon="12.3022985"><ele>642.6666666666666</ele><time>2026-05-01T11:46:33.77Z</time></trkpt><trkpt lat="43.5494041" lon="12.302211"><ele>642.3333333333334</ele><time>2026-05-01T11:46:34.784Z</time></trkpt><trkpt lat="43.5493993" lon="12.3020479"><ele>642.0</ele><time>2026-05-01T11:46:36.778Z</time></trkpt><trkpt lat="43.5493143" lon="12.3019624"><ele>643.6</ele><time>2026-05-01T11:46:38.782Z</time></trkpt><trkpt lat="43.5492353" lon="12.3019442"><ele>645.2</ele><time>2026-05-01T11:46:39.786Z</time></trkpt><trkpt lat="43.5491483" lon="12.3019446"><ele>646.8</ele><time>2026-05-01T11:46:40.781Z</time></trkpt><trkpt lat="43.5490393" lon="12.3019282"><ele>648.4</ele><time>2026-05-01T11:46:41.789Z</time></trkpt><trkpt lat="43.5489307" lon="12.3019104"><ele>650.0</ele><time>2026-05-01T11:46:42.774Z</time></trkpt><trkpt lat="43.5488231" lon="12.3018987"><ele>650.0</ele><time>2026-05-01T11:46:43.779Z</time></trkpt><trkpt lat="43.5487149" lon="12.3018891"><ele>650.0</ele><time>2026-05-01T11:46:44.78Z</time></trkpt><trkpt lat="43.5486038" lon="12.3018744"><ele>650.0</ele><time>2026-05-01T11:46:45.78Z</time></trkpt><trkpt lat="43.5485024" lon="12.3018595"><ele>650.0</ele><time>2026-05-01T11:46:46.776Z</time></trkpt><trkpt lat="43.5484153" lon="12.3018532"><ele>650.0</ele><time>2026-05-01T11:46:47.776Z</time></trkpt><trkpt lat="43.5483385" lon="12.3018439"><ele>647.5</ele><time>2026-05-01T11:46:48.785Z</time></trkpt><trkpt lat="43.5482602" lon="12.301848"><ele>645.0</ele><time>2026-05-01T11:46:49.791Z</time></trkpt><trkpt lat="43.5481892" lon="12.3018423"><ele>642.5</ele><time>2026-05-01T11:46:50.772Z</time></trkpt><trkpt lat="43.5481261" lon="12.3018169"><ele>640.0</ele><time>2026-05-01T11:46:51.782Z</time></trkpt><trkpt lat="43.5480623" lon="12.3017853"><ele>637.5</ele><time>2026-05-01T11:46:52.772Z</time></trkpt><trkpt lat="43.5479529" lon="12.3017315"><ele>635.0</ele><time>2026-05-01T11:46:54.78Z</time></trkpt><trkpt lat="43.5478436" lon="12.3016719"><ele>630.8</ele><time>2026-05-01T11:46:56.78Z</time></trkpt><trkpt lat="43.5477553" lon="12.3015611"><ele>626.6</ele><time>2026-05-01T11:46:58.775Z</time></trkpt><trkpt lat="43.5477054" lon="12.3014105"><ele>622.4</ele><time>2026-05-01T11:47:00.784Z</time></trkpt><trkpt lat="43.5476909" lon="12.3013221"><ele>618.2</ele><time>2026-05-01T11:47:01.786Z</time></trkpt><trkpt lat="43.5476777" lon="12.3011593"><ele>614.0</ele><time>2026-05-01T11:47:03.786Z</time></trkpt><trkpt lat="43.5476479" lon="12.3010092"><ele>614.0</ele><time>2026-05-01T11:47:05.774Z</time></trkpt><trkpt lat="43.5475767" lon="12.3008791"><ele>614.0</ele><time>2026-05-01T11:47:07.783Z</time></trkpt><trkpt lat="43.5474896" lon="12.3007726"><ele>614.0</ele><time>2026-05-01T11:47:09.797Z</time></trkpt><trkpt lat="43.5474018" lon="12.3006563"><ele>614.0</ele><time>2026-05-01T11:47:11.798Z</time></trkpt><trkpt lat="43.5473373" lon="12.3005158"><ele>615.0</ele><time>2026-05-01T11:47:13.779Z</time></trkpt><trkpt lat="43.5473142" lon="12.3004295"><ele>616.0</ele><time>2026-05-01T11:47:14.783Z</time></trkpt><trkpt lat="43.547298" lon="12.3003343"><ele>617.0</ele><time>2026-05-01T11:47:15.782Z</time></trkpt><trkpt lat="43.5472785" lon="12.300229"><ele>618.0</ele><time>2026-05-01T11:47:16.777Z</time></trkpt><trkpt lat="43.5472543" lon="12.3001163"><ele>619.0</ele><time>2026-05-01T11:47:17.777Z</time></trkpt><trkpt lat="43.5472374" lon="12.3000125"><ele>620.0</ele><time>2026-05-01T11:47:18.777Z</time></trkpt><trkpt lat="43.5472168" lon="12.2999127"><ele>620.0</ele><time>2026-05-01T11:47:19.777Z</time></trkpt><trkpt lat="43.5471901" lon="12.2998193"><ele>620.0</ele><time>2026-05-01T11:47:20.784Z</time></trkpt><trkpt lat="43.5471444" lon="12.2997268"><ele>620.0</ele><time>2026-05-01T11:47:21.798Z</time></trkpt><trkpt lat="43.5470809" lon="12.2996555"><ele>620.0</ele><time>2026-05-01T11:47:22.785Z</time></trkpt><trkpt lat="43.547008" lon="12.299598"><ele>620.0</ele><time>2026-05-01T11:47:23.798Z</time></trkpt><trkpt lat="43.5469341" lon="12.2995467"><ele>620.0</ele><time>2026-05-01T11:47:24.778Z</time></trkpt><trkpt lat="43.5468566" lon="12.2994877"><ele>616.2</ele><time>2026-05-01T11:47:25.776Z</time></trkpt><trkpt lat="43.5467669" lon="12.2994161"><ele>612.4</ele><time>2026-05-01T11:47:26.766Z</time></trkpt><trkpt lat="43.5466956" lon="12.2993527"><ele>608.6</ele><time>2026-05-01T11:47:27.788Z</time></trkpt><trkpt lat="43.5465986" lon="12.299268"><ele>604.8</ele><time>2026-05-01T11:47:29.78Z</time></trkpt><trkpt lat="43.5464966" lon="12.2991777"><ele>601.0</ele><time>2026-05-01T11:47:31.778Z</time></trkpt><trkpt lat="43.5464456" lon="12.2991259"><ele>601.0</ele><time>2026-05-01T11:47:32.782Z</time></trkpt><trkpt lat="43.5463882" lon="12.2990705"><ele>601.0</ele><time>2026-05-01T11:47:33.791Z</time></trkpt><trkpt lat="43.5463284" lon="12.2989981"><ele>601.0</ele><time>2026-05-01T11:47:34.779Z</time></trkpt><trkpt lat="43.5462722" lon="12.2989197"><ele>601.0</ele><time>2026-05-01T11:47:35.796Z</time></trkpt><trkpt lat="43.546227" lon="12.2988223"><ele>601.0</ele><time>2026-05-01T11:47:36.775Z</time></trkpt><trkpt lat="43.5461852" lon="12.2987203"><ele>601.0</ele><time>2026-05-01T11:47:37.78Z</time></trkpt><trkpt lat="43.5461419" lon="12.2986112"><ele>600.2857142857142</ele><time>2026-05-01T11:47:38.771Z</time></trkpt><trkpt lat="43.5461003" lon="12.2985188"><ele>599.5714285714287</ele><time>2026-05-01T11:47:39.783Z</time></trkpt><trkpt lat="43.5460575" lon="12.2984303"><ele>598.8571428571429</ele><time>2026-05-01T11:47:40.772Z</time></trkpt><trkpt lat="43.5460154" lon="12.298353"><ele>598.1428571428571</ele><time>2026-05-01T11:47:41.77Z</time></trkpt><trkpt lat="43.5459718" lon="12.2982845"><ele>597.4285714285713</ele><time>2026-05-01T11:47:42.782Z</time></trkpt><trkpt lat="43.5459214" lon="12.2982215"><ele>596.7142857142857</ele><time>2026-05-01T11:47:43.78Z</time></trkpt><trkpt lat="43.5458658" lon="12.2981723"><ele>596.0</ele><time>2026-05-01T11:47:44.774Z</time></trkpt><trkpt lat="43.5457507" lon="12.2980865"><ele>595.0</ele><time>2026-05-01T11:47:46.78Z</time></trkpt><trkpt lat="43.5456897" lon="12.2980539"><ele>594.0</ele><time>2026-05-01T11:47:47.788Z</time></trkpt><trkpt lat="43.5456243" lon="12.2980214"><ele>593.0</ele><time>2026-05-01T11:47:48.764Z</time></trkpt><trkpt lat="43.5455062" lon="12.2979605"><ele>592.0</ele><time>2026-05-01T11:47:50.78Z</time></trkpt><trkpt lat="43.5454401" lon="12.2979575"><ele>591.0</ele><time>2026-05-01T11:47:51.787Z</time></trkpt><trkpt lat="43.5453698" lon="12.2979501"><ele>590.0</ele><time>2026-05-01T11:47:52.772Z</time></trkpt><trkpt lat="43.5452935" lon="12.2979692"><ele>590.0000000000001</ele><time>2026-05-01T11:47:53.783Z</time></trkpt><trkpt lat="43.5452164" lon="12.2980009"><ele>590.0</ele><time>2026-05-01T11:47:54.778Z</time></trkpt><trkpt lat="43.5451466" lon="12.2980274"><ele>590.0</ele><time>2026-05-01T11:47:55.789Z</time></trkpt><trkpt lat="43.5450798" lon="12.2980307"><ele>590.0</ele><time>2026-05-01T11:47:56.771Z</time></trkpt><trkpt lat="43.5450122" lon="12.2980065"><ele>590.0</ele><time>2026-05-01T11:47:57.778Z</time></trkpt><trkpt lat="43.5449483" lon="12.29796"><ele>590.0000000000001</ele><time>2026-05-01T11:47:58.776Z</time></trkpt><trkpt lat="43.5448967" lon="12.2978948"><ele>590.0</ele><time>2026-05-01T11:47:59.785Z</time></trkpt><trkpt lat="43.5448519" lon="12.297805"><ele>590.0</ele><time>2026-05-01T11:48:00.788Z</time></trkpt><trkpt lat="43.5448081" lon="12.2977055"><ele>590.0</ele><time>2026-05-01T11:48:01.775Z</time></trkpt><trkpt lat="43.5447666" lon="12.2975962"><ele>590.0</ele><time>2026-05-01T11:48:02.778Z</time></trkpt><trkpt lat="43.5447273" lon="12.2974828"><ele>590.0</ele><time>2026-05-01T11:48:03.778Z</time></trkpt><trkpt lat="43.544692" lon="12.2973655"><ele>590.0</ele><time>2026-05-01T11:48:04.772Z</time></trkpt><trkpt lat="43.5446677" lon="12.2972712"><ele>590.0</ele><time>2026-05-01T11:48:05.777Z</time></trkpt><trkpt lat="43.5446445" lon="12.2971814"><ele>591.8333333333333</ele><time>2026-05-01T11:48:06.789Z</time></trkpt><trkpt lat="43.5446025" lon="12.2971031"><ele>593.6666666666666</ele><time>2026-05-01T11:48:07.775Z</time></trkpt><trkpt lat="43.5445539" lon="12.2970353"><ele>595.5</ele><time>2026-05-01T11:48:08.78Z</time></trkpt><trkpt lat="43.5444885" lon="12.2969644"><ele>597.3333333333334</ele><time>2026-05-01T11:48:09.78Z</time></trkpt><trkpt lat="43.544413" lon="12.2968932"><ele>599.1666666666667</ele><time>2026-05-01T11:48:10.788Z</time></trkpt><trkpt lat="43.5443398" lon="12.2968075"><ele>601.0</ele><time>2026-05-01T11:48:11.776Z</time></trkpt><trkpt lat="43.5442756" lon="12.2967111"><ele>598.0</ele><time>2026-05-01T11:48:12.786Z</time></trkpt><trkpt lat="43.5442377" lon="12.2966051"><ele>595.0</ele><time>2026-05-01T11:48:13.787Z</time></trkpt><trkpt lat="43.5442086" lon="12.2964861"><ele>592.0</ele><time>2026-05-01T11:48:14.774Z</time></trkpt><trkpt lat="43.5441899" lon="12.2963524"><ele>589.0</ele><time>2026-05-01T11:48:15.774Z</time></trkpt><trkpt lat="43.544169" lon="12.2962086"><ele>586.0</ele><time>2026-05-01T11:48:16.781Z</time></trkpt><trkpt lat="43.5441479" lon="12.2960682"><ele>586.0</ele><time>2026-05-01T11:48:17.781Z</time></trkpt><trkpt lat="43.5441268" lon="12.2959397"><ele>586.0</ele><time>2026-05-01T11:48:18.776Z</time></trkpt><trkpt lat="43.5440898" lon="12.2958298"><ele>586.0</ele><time>2026-05-01T11:48:19.776Z</time></trkpt><trkpt lat="43.5440429" lon="12.295724"><ele>586.0</ele><time>2026-05-01T11:48:20.774Z</time></trkpt><trkpt lat="43.5439953" lon="12.2956377"><ele>586.0</ele><time>2026-05-01T11:48:21.776Z</time></trkpt><trkpt lat="43.5439293" lon="12.2955575"><ele>586.0</ele><time>2026-05-01T11:48:22.773Z</time></trkpt><trkpt lat="43.5438491" lon="12.2954821"><ele>586.6666666666667</ele><time>2026-05-01T11:48:23.772Z</time></trkpt><trkpt lat="43.5437851" lon="12.2954036"><ele>587.3333333333334</ele><time>2026-05-01T11:48:24.771Z</time></trkpt><trkpt lat="43.5437171" lon="12.295321"><ele>588.0</ele><time>2026-05-01T11:48:25.781Z</time></trkpt><trkpt lat="43.5436546" lon="12.2952402"><ele>588.6666666666666</ele><time>2026-05-01T11:48:26.765Z</time></trkpt><trkpt lat="43.5436025" lon="12.2951452"><ele>589.3333333333333</ele><time>2026-05-01T11:48:27.798Z</time></trkpt><trkpt lat="43.5435612" lon="12.295032"><ele>590.0</ele><time>2026-05-01T11:48:28.779Z</time></trkpt><trkpt lat="43.5435261" lon="12.29492"><ele>586.3333333333333</ele><time>2026-05-01T11:48:29.782Z</time></trkpt><trkpt lat="43.5434977" lon="12.2948122"><ele>582.6666666666666</ele><time>2026-05-01T11:48:30.777Z</time></trkpt><trkpt lat="43.5434857" lon="12.294713"><ele>579.0</ele><time>2026-05-01T11:48:31.782Z</time></trkpt><trkpt lat="43.5434764" lon="12.2946171"><ele>575.3333333333334</ele><time>2026-05-01T11:48:32.778Z</time></trkpt><trkpt lat="43.5434841" lon="12.2945171"><ele>571.6666666666667</ele><time>2026-05-01T11:48:33.776Z</time></trkpt><trkpt lat="43.5435027" lon="12.2944133"><ele>568.0</ele><time>2026-05-01T11:48:34.772Z</time></trkpt><trkpt lat="43.5435181" lon="12.2942912"><ele>567.0</ele><time>2026-05-01T11:48:35.79Z</time></trkpt><trkpt lat="43.5435316" lon="12.2941694"><ele>566.0</ele><time>2026-05-01T11:48:36.778Z</time></trkpt><trkpt lat="43.5435414" lon="12.2940499"><ele>565.0</ele><time>2026-05-01T11:48:37.778Z</time></trkpt><trkpt lat="43.5435383" lon="12.293942"><ele>564.0</ele><time>2026-05-01T11:48:38.775Z</time></trkpt><trkpt lat="43.5434825" lon="12.2937919"><ele>563.0</ele><time>2026-05-01T11:48:40.764Z</time></trkpt><trkpt lat="43.5434328" lon="12.2937303"><ele>562.0</ele><time>2026-05-01T11:48:41.766Z</time></trkpt><trkpt lat="43.5433673" lon="12.2937044"><ele>564.6</ele><time>2026-05-01T11:48:42.769Z</time></trkpt><trkpt lat="43.5432894" lon="12.2936842"><ele>567.2</ele><time>2026-05-01T11:48:43.788Z</time></trkpt><trkpt lat="43.5431954" lon="12.2936631"><ele>569.8</ele><time>2026-05-01T11:48:44.775Z</time></trkpt><trkpt lat="43.5430982" lon="12.2936522"><ele>572.4</ele><time>2026-05-01T11:48:45.79Z</time></trkpt><trkpt lat="43.5430037" lon="12.2936288"><ele>575.0</ele><time>2026-05-01T11:48:46.779Z</time></trkpt><trkpt lat="43.5429131" lon="12.2935977"><ele>572.1666666666666</ele><time>2026-05-01T11:48:47.769Z</time></trkpt><trkpt lat="43.5428265" lon="12.2935551"><ele>569.3333333333333</ele><time>2026-05-01T11:48:48.78Z</time></trkpt><trkpt lat="43.5427473" lon="12.2935007"><ele>566.5</ele><time>2026-05-01T11:48:49.768Z</time></trkpt><trkpt lat="43.5426755" lon="12.2934245"><ele>563.6666666666666</ele><time>2026-05-01T11:48:50.769Z</time></trkpt><trkpt lat="43.5426038" lon="12.2933552"><ele>560.8333333333334</ele><time>2026-05-01T11:48:51.769Z</time></trkpt><trkpt lat="43.5425339" lon="12.2932848"><ele>558.0</ele><time>2026-05-01T11:48:52.778Z</time></trkpt><trkpt lat="43.5424696" lon="12.293212"><ele>558.0</ele><time>2026-05-01T11:48:53.779Z</time></trkpt><trkpt lat="43.5424137" lon="12.293118"><ele>558.0</ele><time>2026-05-01T11:48:54.768Z</time></trkpt><trkpt lat="43.5423643" lon="12.2930253"><ele>558.0</ele><time>2026-05-01T11:48:55.788Z</time></trkpt><trkpt lat="43.5423191" lon="12.2929265"><ele>558.0</ele><time>2026-05-01T11:48:56.782Z</time></trkpt><trkpt lat="43.5422907" lon="12.2928232"><ele>558.0</ele><time>2026-05-01T11:48:57.791Z</time></trkpt><trkpt lat="43.5422603" lon="12.2927228"><ele>558.0</ele><time>2026-05-01T11:48:58.768Z</time></trkpt><trkpt lat="43.5422244" lon="12.2926293"><ele>556.3333333333334</ele><time>2026-05-01T11:48:59.788Z</time></trkpt><trkpt lat="43.542174" lon="12.2925505"><ele>554.6666666666666</ele><time>2026-05-01T11:49:00.77Z</time></trkpt><trkpt lat="43.5421134" lon="12.2924898"><ele>553.0</ele><time>2026-05-01T11:49:01.763Z</time></trkpt><trkpt lat="43.5420318" lon="12.2924213"><ele>551.3333333333333</ele><time>2026-05-01T11:49:02.775Z</time></trkpt><trkpt lat="43.5419537" lon="12.2923679"><ele>549.6666666666666</ele><time>2026-05-01T11:49:03.782Z</time></trkpt><trkpt lat="43.5418606" lon="12.2923126"><ele>548.0</ele><time>2026-05-01T11:49:04.765Z</time></trkpt><trkpt lat="43.541784" lon="12.2922828"><ele>548.0000000000001</ele><time>2026-05-01T11:49:05.77Z</time></trkpt><trkpt lat="43.5417112" lon="12.2922584"><ele>548.0</ele><time>2026-05-01T11:49:06.777Z</time></trkpt><trkpt lat="43.5416441" lon="12.2922265"><ele>548.0</ele><time>2026-05-01T11:49:07.771Z</time></trkpt><trkpt lat="43.5415815" lon="12.2921715"><ele>548.0</ele><time>2026-05-01T11:49:08.772Z</time></trkpt><trkpt lat="43.5415267" lon="12.2921111"><ele>548.0</ele><time>2026-05-01T11:49:09.775Z</time></trkpt><trkpt lat="43.541492" lon="12.292019"><ele>548.0000000000001</ele><time>2026-05-01T11:49:10.763Z</time></trkpt><trkpt lat="43.541473" lon="12.2919087"><ele>548.0</ele><time>2026-05-01T11:49:11.771Z</time></trkpt><trkpt lat="43.5414434" lon="12.2917825"><ele>549.6</ele><time>2026-05-01T11:49:12.771Z</time></trkpt><trkpt lat="43.5414176" lon="12.2916455"><ele>551.1999999999999</ele><time>2026-05-01T11:49:13.789Z</time></trkpt><trkpt lat="43.5413903" lon="12.2915226"><ele>552.8</ele><time>2026-05-01T11:49:14.766Z</time></trkpt><trkpt lat="43.5413665" lon="12.2914006"><ele>554.4</ele><time>2026-05-01T11:49:15.765Z</time></trkpt><trkpt lat="43.5413425" lon="12.2912962"><ele>556.0</ele><time>2026-05-01T11:49:16.784Z</time></trkpt><trkpt lat="43.5412583" lon="12.2911645"><ele>554.1666666666667</ele><time>2026-05-01T11:49:18.773Z</time></trkpt><trkpt lat="43.541196" lon="12.2911136"><ele>552.3333333333334</ele><time>2026-05-01T11:49:19.781Z</time></trkpt><trkpt lat="43.5411286" lon="12.2910843"><ele>550.5</ele><time>2026-05-01T11:49:20.765Z</time></trkpt><trkpt lat="43.5410508" lon="12.2910799"><ele>548.6666666666666</ele><time>2026-05-01T11:49:21.763Z</time></trkpt><trkpt lat="43.5409651" lon="12.291091"><ele>546.8333333333333</ele><time>2026-05-01T11:49:22.765Z</time></trkpt><trkpt lat="43.5408791" lon="12.2911084"><ele>545.0</ele><time>2026-05-01T11:49:23.772Z</time></trkpt><trkpt lat="43.5408035" lon="12.2910989"><ele>545.0</ele><time>2026-05-01T11:49:24.767Z</time></trkpt><trkpt lat="43.5407227" lon="12.2910725"><ele>545.0</ele><time>2026-05-01T11:49:25.774Z</time></trkpt><trkpt lat="43.5406386" lon="12.2910248"><ele>545.0</ele><time>2026-05-01T11:49:26.767Z</time></trkpt><trkpt lat="43.5429131" lon="12.2935977"><ele>547.1666666666666</ele><time>2026-05-01T11:48:47.769Z</time></trkpt><trkpt lat="43.5428265" lon="12.2935551"><ele>549.3333333333333</ele><time>2026-05-01T11:48:48.78Z</time></trkpt><trkpt lat="43.5427473" lon="12.2935007"><ele>551.5</ele><time>2026-05-01T11:48:49.768Z</time></trkpt><trkpt lat="43.5426755" lon="12.2934245"><ele>553.6666666666666</ele><time>2026-05-01T11:48:50.769Z</time></trkpt><trkpt lat="43.5426038" lon="12.2933552"><ele>555.8333333333334</ele><time>2026-05-01T11:48:51.769Z</time></trkpt><trkpt lat="43.5425339" lon="12.2932848"><ele>558.0</ele><time>2026-05-01T11:48:52.778Z</time></trkpt><trkpt lat="43.5424696" lon="12.293212"><ele>558.0</ele><time>2026-05-01T11:48:53.779Z</time></trkpt><trkpt lat="43.5424137" lon="12.293118"><ele>558.0</ele><time>2026-05-01T11:48:54.768Z</time></trkpt><trkpt lat="43.5423643" lon="12.2930253"><ele>558.0</ele><time>2026-05-01T11:48:55.788Z</time></trkpt><trkpt lat="43.5423191" lon="12.2929265"><ele>558.0</ele><time>2026-05-01T11:48:56.782Z</time></trkpt><trkpt lat="43.5422907" lon="12.2928232"><ele>558.0</ele><time>2026-05-01T11:48:57.791Z</time></trkpt><trkpt lat="43.5422603" lon="12.2927228"><ele>558.0</ele><time>2026-05-01T11:48:58.768Z</time></trkpt><trkpt lat="43.5422244" lon="12.2926293"><ele>556.3333333333334</ele><time>2026-05-01T11:48:59.788Z</time></trkpt><trkpt lat="43.542174" lon="12.2925505"><ele>554.6666666666666</ele><time>2026-05-01T11:49:00.77Z</time></trkpt><trkpt lat="43.5421134" lon="12.2924898"><ele>553.0</ele><time>2026-05-01T11:49:01.763Z</time></trkpt><trkpt lat="43.5420318" lon="12.2924213"><ele>551.3333333333333</ele><time>2026-05-01T11:49:02.775Z</time></trkpt><trkpt lat="43.5419537" lon="12.2923679"><ele>549.6666666666666</ele><time>2026-05-01T11:49:03.782Z</time></trkpt><trkpt lat="43.5418606" lon="12.2923126"><ele>548.0</ele><time>2026-05-01T11:49:04.765Z</time></trkpt><trkpt lat="43.541784" lon="12.2922828"><ele>548.0000000000001</ele><time>2026-05-01T11:49:05.77Z</time></trkpt><trkpt lat="43.5417112" lon="12.2922584"><ele>548.0</ele><time>2026-05-01T11:49:06.777Z</time></trkpt><trkpt lat="43.5416441" lon="12.2922265"><ele>548.0</ele><time>2026-05-01T11:49:07.771Z</time></trkpt><trkpt lat="43.5415815" lon="12.2921715"><ele>548.0</ele><time>2026-05-01T11:49:08.772Z</time></trkpt><trkpt lat="43.5415267" lon="12.2921111"><ele>548.0</ele><time>2026-05-01T11:49:09.775Z</time></trkpt><trkpt lat="43.541492" lon="12.292019"><ele>548.0000000000001</ele><time>2026-05-01T11:49:10.763Z</time></trkpt><trkpt lat="43.541473" lon="12.2919087"><ele>548.0</ele><time>2026-05-01T11:49:11.771Z</time></trkpt><trkpt lat="43.5414434" lon="12.2917825"><ele>549.6</ele><time>2026-05-01T11:49:12.771Z</time></trkpt><trkpt lat="43.5414176" lon="12.2916455"><ele>551.1999999999999</ele><time>2026-05-01T11:49:13.789Z</time></trkpt><trkpt lat="43.5413903" lon="12.2915226"><ele>552.8</ele><time>2026-05-01T11:49:14.766Z</time></trkpt><trkpt lat="43.5413665" lon="12.2914006"><ele>554.4</ele><time>2026-05-01T11:49:15.765Z</time></trkpt><trkpt lat="43.5413425" lon="12.2912962"><ele>556.0</ele><time>2026-05-01T11:49:16.784Z</time></trkpt><trkpt lat="43.5412583" lon="12.2911645"><ele>554.1666666666667</ele><time>2026-05-01T11:49:18.773Z</time></trkpt><trkpt lat="43.541196" lon="12.2911136"><ele>552.3333333333334</ele><time>2026-05-01T11:49:19.781Z</time></trkpt><trkpt lat="43.5411286" lon="12.2910843"><ele>550.5</ele><time>2026-05-01T11:49:20.765Z</time></trkpt><trkpt lat="43.5410508" lon="12.2910799"><ele>548.6666666666666</ele><time>2026-05-01T11:49:21.763Z</time></trkpt><trkpt lat="43.5409651" lon="12.291091"><ele>546.8333333333333</ele><time>2026-05-01T11:49:22.765Z</time></trkpt><trkpt lat="43.5408791" lon="12.2911084"><ele>545.0</ele><time>2026-05-01T11:49:23.772Z</time></trkpt><trkpt lat="43.5408035" lon="12.2910989"><ele>545.0</ele><time>2026-05-01T11:49:24.767Z</time></trkpt><trkpt lat="43.5407227" lon="12.2910725"><ele>545.0</ele><time>2026-05-01T11:49:25.774Z</time></trkpt><trkpt lat="43.5406386" lon="12.2910248"><ele>545.0</ele><time>2026-05-01T11:49:26.767Z</time></trkpt><trkpt lat="43.5405504" lon="12.2909757"><ele>545.0</ele><time>2026-05-01T11:49:27.777Z</time></trkpt><trkpt lat="43.5404634" lon="12.2909351"><ele>545.0</ele><time>2026-05-01T11:49:28.764Z</time></trkpt><trkpt lat="43.5403748" lon="12.2909225"><ele>542.3333333333333</ele><time>2026-05-01T11:49:29.777Z</time></trkpt><trkpt lat="43.5402909" lon="12.2909226"><ele>539.6666666666666</ele><time>2026-05-01T11:49:30.769Z</time></trkpt><trkpt lat="43.5402166" lon="12.2909533"><ele>537.0</ele><time>2026-05-01T11:49:31.763Z</time></trkpt><trkpt lat="43.5401526" lon="12.2910178"><ele>534.3333333333334</ele><time>2026-05-01T11:49:32.772Z</time></trkpt><trkpt lat="43.5400981" lon="12.2911012"><ele>531.6666666666667</ele><time>2026-05-01T11:49:33.782Z</time></trkpt><trkpt lat="43.5400526" lon="12.2912097"><ele>529.0</ele><time>2026-05-01T11:49:34.769Z</time></trkpt><trkpt lat="43.5400053" lon="12.2912942"><ele>529.0</ele><time>2026-05-01T11:49:35.769Z</time></trkpt><trkpt lat="43.5399461" lon="12.2913398"><ele>529.0</ele><time>2026-05-01T11:49:36.766Z</time></trkpt><trkpt lat="43.539879" lon="12.2913728"><ele>529.0</ele><time>2026-05-01T11:49:37.776Z</time></trkpt><trkpt lat="43.5398044" lon="12.2913569"><ele>529.0</ele><time>2026-05-01T11:49:38.771Z</time></trkpt><trkpt lat="43.5397288" lon="12.291307"><ele>529.0</ele><time>2026-05-01T11:49:39.79Z</time></trkpt><trkpt lat="43.53967" lon="12.2912428"><ele>529.0</ele><time>2026-05-01T11:49:40.769Z</time></trkpt><trkpt lat="43.5396105" lon="12.2911628"><ele>529.0</ele><time>2026-05-01T11:49:41.766Z</time></trkpt><trkpt lat="43.5395631" lon="12.2910843"><ele>529.0</ele><time>2026-05-01T11:49:42.76Z</time></trkpt><trkpt lat="43.539532" lon="12.2909921"><ele>529.0</ele><time>2026-05-01T11:49:43.775Z</time></trkpt><trkpt lat="43.539526" lon="12.290893"><ele>529.0</ele><time>2026-05-01T11:49:44.776Z</time></trkpt><trkpt lat="43.5395422" lon="12.2907786"><ele>529.0</ele><time>2026-05-01T11:49:45.765Z</time></trkpt><trkpt lat="43.539561" lon="12.2906748"><ele>529.0</ele><time>2026-05-01T11:49:46.776Z</time></trkpt><trkpt lat="43.5395549" lon="12.2905723"><ele>527.0</ele><time>2026-05-01T11:49:47.768Z</time></trkpt><trkpt lat="43.5395306" lon="12.2904664"><ele>525.0</ele><time>2026-05-01T11:49:48.767Z</time></trkpt><trkpt lat="43.5395006" lon="12.2903683"><ele>523.0</ele><time>2026-05-01T11:49:49.783Z</time></trkpt><trkpt lat="43.5394745" lon="12.2902707"><ele>521.0</ele><time>2026-05-01T11:49:50.774Z</time></trkpt><trkpt lat="43.539449" lon="12.2901886"><ele>519.0</ele><time>2026-05-01T11:49:51.78Z</time></trkpt><trkpt lat="43.5393932" lon="12.290056"><ele>517.0</ele><time>2026-05-01T11:49:53.772Z</time></trkpt><trkpt lat="43.5393285" lon="12.2899598"><ele>517.0</ele><time>2026-05-01T11:49:55.778Z</time></trkpt><trkpt lat="43.5392714" lon="12.2899137"><ele>517.0</ele><time>2026-05-01T11:49:57.771Z</time></trkpt><trkpt lat="43.5392217" lon="12.2898505"><ele>517.0</ele><time>2026-05-01T11:50:00.78Z</time></trkpt><trkpt lat="43.5392841" lon="12.2898898"><ele>517.0</ele><time>2026-05-01T11:52:00.773Z</time></trkpt><trkpt lat="43.5393585" lon="12.2899665"><ele>517.0</ele><time>2026-05-01T11:52:09.759Z</time></trkpt><trkpt lat="43.539418" lon="12.2900838"><ele>517.0</ele><time>2026-05-01T11:52:11.767Z</time></trkpt><trkpt lat="43.5394668" lon="12.2902164"><ele>517.0</ele><time>2026-05-01T11:52:13.789Z</time></trkpt><trkpt lat="43.5394948" lon="12.290298"><ele>517.0</ele><time>2026-05-01T11:52:14.785Z</time></trkpt><trkpt lat="43.5395416" lon="12.2904479"><ele>517.0</ele><time>2026-05-01T11:52:16.758Z</time></trkpt><trkpt lat="43.5395734" lon="12.2905956"><ele>517.0</ele><time>2026-05-01T11:52:18.758Z</time></trkpt><trkpt lat="43.5395553" lon="12.2907483"><ele>517.0</ele><time>2026-05-01T11:52:20.78Z</time></trkpt><trkpt lat="43.539521" lon="12.2908931"><ele>517.6666666666667</ele><time>2026-05-01T11:52:22.773Z</time></trkpt><trkpt lat="43.5395474" lon="12.2910331"><ele>518.3333333333334</ele><time>2026-05-01T11:52:24.779Z</time></trkpt><trkpt lat="43.5395831" lon="12.2911111"><ele>519.0</ele><time>2026-05-01T11:52:26.759Z</time></trkpt><trkpt lat="43.5396577" lon="12.2911948"><ele>519.6666666666666</ele><time>2026-05-01T11:53:02.77Z</time></trkpt><trkpt lat="43.5397055" lon="12.2912561"><ele>520.3333333333333</ele><time>2026-05-01T11:53:03.777Z</time></trkpt><trkpt lat="43.5397761" lon="12.2913411"><ele>521.0</ele><time>2026-05-01T11:53:05.773Z</time></trkpt><trkpt lat="43.5398303" lon="12.2914034"><ele>522.3333333333333</ele><time>2026-05-01T11:53:14.772Z</time></trkpt><trkpt lat="43.5398637" lon="12.2914862"><ele>523.6666666666666</ele><time>2026-05-01T11:53:17.769Z</time></trkpt><trkpt lat="43.5399156" lon="12.2915485"><ele>525.0</ele><time>2026-05-01T11:53:19.762Z</time></trkpt><trkpt lat="43.5400012" lon="12.2915128"><ele>526.3333333333334</ele><time>2026-05-01T11:53:22.771Z</time></trkpt><trkpt lat="43.5400751" lon="12.2914303"><ele>527.6666666666667</ele><time>2026-05-01T11:53:25.78Z</time></trkpt><trkpt lat="43.5401406" lon="12.2914147"><ele>529.0</ele><time>2026-05-01T11:53:27.77Z</time></trkpt><trkpt lat="43.5402121" lon="12.291366"><ele>529.0</ele><time>2026-05-01T11:53:29.783Z</time></trkpt><trkpt lat="43.5403179" lon="12.2913041"><ele>529.0</ele><time>2026-05-01T11:53:31.789Z</time></trkpt><trkpt lat="43.5404262" lon="12.291298"><ele>529.0</ele><time>2026-05-01T11:53:33.771Z</time></trkpt><trkpt lat="43.5405399" lon="12.2913528"><ele>529.0</ele><time>2026-05-01T11:53:35.775Z</time></trkpt><trkpt lat="43.5406319" lon="12.2914234"><ele>529.0</ele><time>2026-05-01T11:53:37.779Z</time></trkpt><trkpt lat="43.5406491" lon="12.2915433"><ele>530.3333333333334</ele><time>2026-05-01T11:53:39.777Z</time></trkpt><trkpt lat="43.5405991" lon="12.2916436"><ele>531.6666666666667</ele><time>2026-05-01T11:53:41.782Z</time></trkpt><trkpt lat="43.5405344" lon="12.2917447"><ele>533.0</ele><time>2026-05-01T11:53:43.777Z</time></trkpt><trkpt lat="43.5404721" lon="12.2918507"><ele>534.3333333333334</ele><time>2026-05-01T11:53:45.789Z</time></trkpt><trkpt lat="43.5404464" lon="12.2919445"><ele>535.6666666666666</ele><time>2026-05-01T11:53:47.777Z</time></trkpt><trkpt lat="43.5404801" lon="12.2920398"><ele>537.0</ele><time>2026-05-01T11:54:28.776Z</time></trkpt><trkpt lat="43.5405028" lon="12.2921299"><ele>537.0</ele><time>2026-05-01T11:54:31.777Z</time></trkpt><trkpt lat="43.5405594" lon="12.292226"><ele>537.0</ele><time>2026-05-01T11:54:38.763Z</time></trkpt><trkpt lat="43.540596" lon="12.2923096"><ele>537.0</ele><time>2026-05-01T11:54:40.771Z</time></trkpt><trkpt lat="43.5406224" lon="12.2924214"><ele>537.0</ele><time>2026-05-01T11:54:43.777Z</time></trkpt><trkpt lat="43.5406225" lon="12.2925415"><ele>537.0</ele><time>2026-05-01T11:54:46.776Z</time></trkpt><trkpt lat="43.5405913" lon="12.2926359"><ele>537.0</ele><time>2026-05-01T11:54:48.772Z</time></trkpt><trkpt lat="43.5405675" lon="12.2927393"><ele>538.6666666666666</ele><time>2026-05-01T11:54:50.77Z</time></trkpt><trkpt lat="43.5405663" lon="12.2928478"><ele>540.3333333333334</ele><time>2026-05-01T11:54:52.775Z</time></trkpt><trkpt lat="43.5405579" lon="12.2929605"><ele>542.0</ele><time>2026-05-01T11:54:54.777Z</time></trkpt><trkpt lat="43.5405404" lon="12.2930668"><ele>543.6666666666667</ele><time>2026-05-01T11:54:56.768Z</time></trkpt><trkpt lat="43.5405284" lon="12.2931866"><ele>545.3333333333334</ele><time>2026-05-01T11:54:58.774Z</time></trkpt><trkpt lat="43.5405062" lon="12.2932956"><ele>547.0</ele><time>2026-05-01T11:55:00.761Z</time></trkpt><trkpt lat="43.5404885" lon="12.2934161"><ele>550.0</ele><time>2026-05-01T11:55:02.776Z</time></trkpt><trkpt lat="43.540475" lon="12.2935385"><ele>553.0</ele><time>2026-05-01T11:55:04.773Z</time></trkpt><trkpt lat="43.5404533" lon="12.2936669"><ele>556.0</ele><time>2026-05-01T11:55:06.775Z</time></trkpt><trkpt lat="43.5404224" lon="12.2938023"><ele>559.0</ele><time>2026-05-01T11:55:08.769Z</time></trkpt><trkpt lat="43.5403799" lon="12.293933"><ele>562.0</ele><time>2026-05-01T11:55:10.778Z</time></trkpt><trkpt lat="43.5403512" lon="12.294023"><ele>566.8333333333334</ele><time>2026-05-01T11:55:12.78Z</time></trkpt><trkpt lat="43.5403331" lon="12.2941124"><ele>571.6666666666667</ele><time>2026-05-01T11:55:14.783Z</time></trkpt><trkpt lat="43.5403165" lon="12.2942121"><ele>576.5</ele><time>2026-05-01T11:55:16.772Z</time></trkpt><trkpt lat="43.5402815" lon="12.2942954"><ele>581.3333333333334</ele><time>2026-05-01T11:55:18.773Z</time></trkpt><trkpt lat="43.5402342" lon="12.2943825"><ele>586.1666666666666</ele><time>2026-05-01T11:55:20.789Z</time></trkpt><trkpt lat="43.5401823" lon="12.2944725"><ele>591.0</ele><time>2026-05-01T11:55:22.775Z</time></trkpt><trkpt lat="43.540123" lon="12.2945468"><ele>591.0</ele><time>2026-05-01T11:55:24.766Z</time></trkpt><trkpt lat="43.5400617" lon="12.2945835"><ele>591.0</ele><time>2026-05-01T11:55:42.772Z</time></trkpt><trkpt lat="43.5400998" lon="12.2945071"><ele>591.0</ele><time>2026-05-01T11:57:12.772Z</time></trkpt><trkpt lat="43.5401788" lon="12.2944705"><ele>591.0</ele><time>2026-05-01T11:58:40.784Z</time></trkpt><trkpt lat="43.5402326" lon="12.2944078"><ele>591.0</ele><time>2026-05-01T11:58:43.777Z</time></trkpt><trkpt lat="43.5402862" lon="12.2943139"><ele>591.0</ele><time>2026-05-01T11:58:46.766Z</time></trkpt><trkpt lat="43.5403318" lon="12.2942105"><ele>591.0</ele><time>2026-05-01T11:58:49.759Z</time></trkpt><trkpt lat="43.5403703" lon="12.2941166"><ele>591.0</ele><time>2026-05-01T11:58:52.788Z</time></trkpt><trkpt lat="43.5404067" lon="12.2940136"><ele>591.0</ele><time>2026-05-01T11:58:55.781Z</time></trkpt><trkpt lat="43.5404307" lon="12.2939291"><ele>591.0</ele><time>2026-05-01T11:58:57.785Z</time></trkpt><trkpt lat="43.5404598" lon="12.2938402"><ele>591.0</ele><time>2026-05-01T11:58:59.774Z</time></trkpt><trkpt lat="43.5404875" lon="12.2937512"><ele>591.0</ele><time>2026-05-01T11:59:01.796Z</time></trkpt><trkpt lat="43.5405169" lon="12.293666"><ele>591.0</ele><time>2026-05-01T11:59:03.775Z</time></trkpt><trkpt lat="43.5405336" lon="12.2935787"><ele>586.1666666666666</ele><time>2026-05-01T11:59:05.785Z</time></trkpt><trkpt lat="43.5405484" lon="12.293494"><ele>581.3333333333334</ele><time>2026-05-01T11:59:07.772Z</time></trkpt><trkpt lat="43.5405705" lon="12.293409"><ele>576.5</ele><time>2026-05-01T11:59:09.775Z</time></trkpt><trkpt lat="43.5405863" lon="12.2932932"><ele>571.6666666666667</ele><time>2026-05-01T11:59:12.766Z</time></trkpt><trkpt lat="43.5406097" lon="12.2931667"><ele>566.8333333333334</ele><time>2026-05-01T11:59:15.778Z</time></trkpt><trkpt lat="43.5405973" lon="12.2930289"><ele>562.0</ele><time>2026-05-01T11:59:17.777Z</time></trkpt><trkpt lat="43.5406118" lon="12.2929334"><ele>561.3333333333334</ele><time>2026-05-01T11:59:19.767Z</time></trkpt><trkpt lat="43.5406217" lon="12.2928371"><ele>560.6666666666667</ele><time>2026-05-01T11:59:21.777Z</time></trkpt><trkpt lat="43.5406183" lon="12.29272"><ele>560.0</ele><time>2026-05-01T11:59:24.776Z</time></trkpt><trkpt lat="43.5405644" lon="12.2926279"><ele>559.3333333333334</ele><time>2026-05-01T11:59:28.777Z</time></trkpt><trkpt lat="43.5404953" lon="12.292605"><ele>558.6666666666666</ele><time>2026-05-01T11:59:30.773Z</time></trkpt><trkpt lat="43.5403983" lon="12.2925842"><ele>558.0</ele><time>2026-05-01T11:59:32.772Z</time></trkpt><trkpt lat="43.5403034" lon="12.2925752"><ele>558.0</ele><time>2026-05-01T11:59:34.78Z</time></trkpt><trkpt lat="43.5402272" lon="12.2925719"><ele>558.0</ele><time>2026-05-01T11:59:36.774Z</time></trkpt><trkpt lat="43.5401797" lon="12.2926506"><ele>558.0</ele><time>2026-05-01T11:59:39.773Z</time></trkpt><trkpt lat="43.5402789" lon="12.2927162"><ele>558.0</ele><time>2026-05-01T11:59:42.775Z</time></trkpt><trkpt lat="43.5403476" lon="12.2927631"><ele>558.0</ele><time>2026-05-01T11:59:44.77Z</time></trkpt><trkpt lat="43.5403445" lon="12.2928638"><ele>558.0</ele><time>2026-05-01T11:59:52.769Z</time></trkpt><trkpt lat="43.5402713" lon="12.2929177"><ele>557.9999999999999</ele><time>2026-05-01T11:59:55.78Z</time></trkpt><trkpt lat="43.5402064" lon="12.2929221"><ele>558.0</ele><time>2026-05-01T12:00:03.779Z</time></trkpt><trkpt lat="43.5401262" lon="12.2929688"><ele>558.0</ele><time>2026-05-01T12:00:13.786Z</time></trkpt><trkpt lat="43.540067" lon="12.2930061"><ele>558.0</ele><time>2026-05-01T12:00:15.789Z</time></trkpt><trkpt lat="43.5400063" lon="12.29304"><ele>558.0</ele><time>2026-05-01T12:00:17.767Z</time></trkpt><trkpt lat="43.5399263" lon="12.2930527"><ele>557.9999999999999</ele><time>2026-05-01T12:00:19.774Z</time></trkpt><trkpt lat="43.5398453" lon="12.2930473"><ele>558.0</ele><time>2026-05-01T12:00:21.794Z</time></trkpt><trkpt lat="43.5397693" lon="12.29302"><ele>557.9999999999999</ele><time>2026-05-01T12:00:25.792Z</time></trkpt><trkpt lat="43.5397065" lon="12.2930486"><ele>558.0</ele><time>2026-05-01T12:00:29.788Z</time></trkpt><trkpt lat="43.5397068" lon="12.2931575"><ele>558.0</ele><time>2026-05-01T12:00:34.768Z</time></trkpt><trkpt lat="43.5397319" lon="12.293242"><ele>558.0</ele><time>2026-05-01T12:00:37.776Z</time></trkpt><trkpt lat="43.5397837" lon="12.293299"><ele>558.0</ele><time>2026-05-01T12:02:55.774Z</time></trkpt><trkpt lat="43.5398113" lon="12.2934198"><ele>557.9999999999999</ele><time>2026-05-01T12:02:58.774Z</time></trkpt><trkpt lat="43.5398442" lon="12.2935146"><ele>558.0</ele><time>2026-05-01T12:03:00.771Z</time></trkpt><trkpt lat="43.5398644" lon="12.2936036"><ele>561.1428571428571</ele><time>2026-05-01T12:03:02.768Z</time></trkpt><trkpt lat="43.5398828" lon="12.2936977"><ele>564.2857142857142</ele><time>2026-05-01T12:16:23.783Z</time></trkpt><trkpt lat="43.5399197" lon="12.2937724"><ele>567.4285714285714</ele><time>2026-05-01T12:16:25.773Z</time></trkpt><trkpt lat="43.5398858" lon="12.2936898"><ele>570.5714285714286</ele><time>2026-05-01T12:17:18.777Z</time></trkpt><trkpt lat="43.5398574" lon="12.2936018"><ele>573.7142857142858</ele><time>2026-05-01T12:17:29.779Z</time></trkpt><trkpt lat="43.5398395" lon="12.2934894"><ele>576.8571428571429</ele><time>2026-05-01T12:17:33.775Z</time></trkpt><trkpt lat="43.5398088" lon="12.293413"><ele>580.0</ele><time>2026-05-01T12:17:37.778Z</time></trkpt><trkpt lat="43.5397845" lon="12.2933268"><ele>580.0</ele><time>2026-05-01T12:17:42.77Z</time></trkpt><trkpt lat="43.5397471" lon="12.2932411"><ele>580.0</ele><time>2026-05-01T12:17:48.775Z</time></trkpt><trkpt lat="43.5397024" lon="12.2931681"><ele>580.0</ele><time>2026-05-01T12:18:30.782Z</time></trkpt><trkpt lat="43.5396912" lon="12.2930567"><ele>580.0</ele><time>2026-05-01T12:18:34.772Z</time></trkpt><trkpt lat="43.5397454" lon="12.2929947"><ele>580.0</ele><time>2026-05-01T12:18:38.773Z</time></trkpt><trkpt lat="43.5398226" lon="12.2930229"><ele>580.0</ele><time>2026-05-01T12:18:42.801Z</time></trkpt><trkpt lat="43.5398897" lon="12.2930359"><ele>580.0</ele><time>2026-05-01T12:18:45.776Z</time></trkpt><trkpt lat="43.5399666" lon="12.2930281"><ele>576.3333333333334</ele><time>2026-05-01T12:18:48.773Z</time></trkpt><trkpt lat="43.5400392" lon="12.2929912"><ele>572.6666666666667</ele><time>2026-05-01T12:18:52.784Z</time></trkpt><trkpt lat="43.5401103" lon="12.292944"><ele>569.0</ele><time>2026-05-01T12:18:56.775Z</time></trkpt><trkpt lat="43.5401779" lon="12.2929206"><ele>565.3333333333334</ele><time>2026-05-01T12:18:58.772Z</time></trkpt><trkpt lat="43.540277" lon="12.2928757"><ele>561.6666666666666</ele><time>2026-05-01T12:19:00.777Z</time></trkpt><trkpt lat="43.5403491" lon="12.2928392"><ele>558.0</ele><time>2026-05-01T12:19:02.769Z</time></trkpt><trkpt lat="43.5403331" lon="12.2927368"><ele>558.0</ele><time>2026-05-01T12:19:05.776Z</time></trkpt><trkpt lat="43.5402692" lon="12.2926893"><ele>558.0</ele><time>2026-05-01T12:19:08.772Z</time></trkpt><trkpt lat="43.5401923" lon="12.2926373"><ele>558.0</ele><time>2026-05-01T12:19:11.783Z</time></trkpt><trkpt lat="43.5402231" lon="12.2925507"><ele>558.0</ele><time>2026-05-01T12:19:15.786Z</time></trkpt><trkpt lat="43.5403019" lon="12.2925505"><ele>558.0</ele><time>2026-05-01T12:19:18.767Z</time></trkpt><trkpt lat="43.5403858" lon="12.2925404"><ele>558.0</ele><time>2026-05-01T12:19:21.761Z</time></trkpt><trkpt lat="43.5404486" lon="12.2925558"><ele>556.4285714285713</ele><time>2026-05-01T12:19:23.773Z</time></trkpt><trkpt lat="43.5405164" lon="12.2926015"><ele>554.8571428571429</ele><time>2026-05-01T12:19:25.775Z</time></trkpt><trkpt lat="43.5405756" lon="12.2926341"><ele>553.2857142857142</ele><time>2026-05-01T12:19:27.784Z</time></trkpt><trkpt lat="43.5406245" lon="12.2925683"><ele>551.7142857142857</ele><time>2026-05-01T12:19:30.77Z</time></trkpt><trkpt lat="43.5406275" lon="12.2924517"><ele>550.1428571428571</ele><time>2026-05-01T12:20:32.772Z</time></trkpt><trkpt lat="43.540624" lon="12.2923644"><ele>548.5714285714286</ele><time>2026-05-01T12:20:34.766Z</time></trkpt><trkpt lat="43.5405832" lon="12.2922493"><ele>547.0</ele><time>2026-05-01T12:20:37.781Z</time></trkpt><trkpt lat="43.5405416" lon="12.2921768"><ele>545.5714285714286</ele><time>2026-05-01T12:20:40.775Z</time></trkpt><trkpt lat="43.5405098" lon="12.2921017"><ele>544.1428571428571</ele><time>2026-05-01T12:20:43.785Z</time></trkpt><trkpt lat="43.5404493" lon="12.2920416"><ele>542.7142857142857</ele><time>2026-05-01T12:20:54.773Z</time></trkpt><trkpt lat="43.5404374" lon="12.2919486"><ele>541.2857142857142</ele><time>2026-05-01T12:21:00.77Z</time></trkpt><trkpt lat="43.5404779" lon="12.2918443"><ele>539.8571428571429</ele><time>2026-05-01T12:21:04.777Z</time></trkpt><trkpt lat="43.5405267" lon="12.2917622"><ele>538.4285714285713</ele><time>2026-05-01T12:21:06.766Z</time></trkpt><trkpt lat="43.5405655" lon="12.2916802"><ele>537.0</ele><time>2026-05-01T12:21:08.769Z</time></trkpt><trkpt lat="43.5406052" lon="12.2916068"><ele>537.0</ele><time>2026-05-01T12:21:10.767Z</time></trkpt><trkpt lat="43.5406594" lon="12.2915096"><ele>537.0</ele><time>2026-05-01T12:21:13.781Z</time></trkpt><trkpt lat="43.5406489" lon="12.2914084"><ele>537.0</ele><time>2026-05-01T12:21:16.783Z</time></trkpt><trkpt lat="43.5405796" lon="12.2913547"><ele>537.0</ele><time>2026-05-01T12:21:19.772Z</time></trkpt><trkpt lat="43.5405085" lon="12.2913315"><ele>537.0</ele><time>2026-05-01T12:21:32.772Z</time></trkpt><trkpt lat="43.5404245" lon="12.2912993"><ele>537.0</ele><time>2026-05-01T12:21:35.766Z</time></trkpt><trkpt lat="43.5403585" lon="12.2913063"><ele>535.9999999999999</ele><time>2026-05-01T12:21:37.777Z</time></trkpt><trkpt lat="43.5402964" lon="12.2913431"><ele>535.0</ele><time>2026-05-01T12:21:39.772Z</time></trkpt><trkpt lat="43.5402315" lon="12.2913868"><ele>534.0</ele><time>2026-05-01T12:21:42.78Z</time></trkpt><trkpt lat="43.540162" lon="12.2914412"><ele>533.0</ele><time>2026-05-01T12:21:45.773Z</time></trkpt><trkpt lat="43.5400847" lon="12.2914697"><ele>532.0</ele><time>2026-05-01T12:21:48.776Z</time></trkpt><trkpt lat="43.5400284" lon="12.2915424"><ele>530.9999999999999</ele><time>2026-05-01T12:21:52.782Z</time></trkpt><trkpt lat="43.5399652" lon="12.2915672"><ele>530.0</ele><time>2026-05-01T12:21:55.565Z</time></trkpt><trkpt lat="43.5399009" lon="12.2914942"><ele>529.8333333333333</ele><time>2026-05-01T12:21:58.775Z</time></trkpt><trkpt lat="43.5398639" lon="12.2913972"><ele>529.6666666666666</ele><time>2026-05-01T12:21:59.8Z</time></trkpt><trkpt lat="43.5398172" lon="12.2913258"><ele>529.5</ele><time>2026-05-01T12:22:01.779Z</time></trkpt><trkpt lat="43.5397552" lon="12.291268"><ele>529.3333333333334</ele><time>2026-05-01T12:22:03.779Z</time></trkpt><trkpt lat="43.5396902" lon="12.2912299"><ele>529.1666666666667</ele><time>2026-05-01T12:22:25.774Z</time></trkpt><trkpt lat="43.539625" lon="12.2911359"><ele>529.0</ele><time>2026-05-01T12:22:27.759Z</time></trkpt><trkpt lat="43.5395692" lon="12.2910255"><ele>529.0</ele><time>2026-05-01T12:22:29.771Z</time></trkpt><trkpt lat="43.5395388" lon="12.2908782"><ele>529.0</ele><time>2026-05-01T12:22:31.771Z</time></trkpt><trkpt lat="43.5395462" lon="12.2907863"><ele>529.0</ele><time>2026-05-01T12:22:32.761Z</time></trkpt><trkpt lat="43.5395591" lon="12.2906877"><ele>529.0</ele><time>2026-05-01T12:22:33.775Z</time></trkpt><trkpt lat="43.5395661" lon="12.2905986"><ele>529.0</ele><time>2026-05-01T12:22:34.767Z</time></trkpt><trkpt lat="43.5395486" lon="12.290443"><ele>529.0</ele><time>2026-05-01T12:22:36.765Z</time></trkpt><trkpt lat="43.5395175" lon="12.2903363"><ele>527.0</ele><time>2026-05-01T12:22:37.78Z</time></trkpt><trkpt lat="43.539484" lon="12.2902223"><ele>525.0</ele><time>2026-05-01T12:22:38.769Z</time></trkpt><trkpt lat="43.5394491" lon="12.2901155"><ele>523.0</ele><time>2026-05-01T12:22:39.769Z</time></trkpt><trkpt lat="43.5393942" lon="12.2900244"><ele>521.0</ele><time>2026-05-01T12:22:40.761Z</time></trkpt><trkpt lat="43.5393264" lon="12.2899462"><ele>519.0</ele><time>2026-05-01T12:22:41.766Z</time></trkpt><trkpt lat="43.539256" lon="12.2898657"><ele>517.0</ele><time>2026-05-01T12:22:42.764Z</time></trkpt><trkpt lat="43.5391957" lon="12.2897801"><ele>517.8333333333334</ele><time>2026-05-01T12:22:43.773Z</time></trkpt><trkpt lat="43.53915" lon="12.2897034"><ele>518.6666666666667</ele><time>2026-05-01T12:22:44.767Z</time></trkpt><trkpt lat="43.5391061" lon="12.2896158"><ele>519.5</ele><time>2026-05-01T12:22:45.775Z</time></trkpt><trkpt lat="43.5390637" lon="12.2895174"><ele>520.3333333333334</ele><time>2026-05-01T12:22:46.772Z</time></trkpt><trkpt lat="43.5390267" lon="12.289413"><ele>521.1666666666666</ele><time>2026-05-01T12:22:47.777Z</time></trkpt><trkpt lat="43.538991" lon="12.2893082"><ele>522.0</ele><time>2026-05-01T12:22:48.767Z</time></trkpt><trkpt lat="43.5389611" lon="12.2891844"><ele>522.0</ele><time>2026-05-01T12:22:49.768Z</time></trkpt><trkpt lat="43.5389379" lon="12.2890559"><ele>522.0</ele><time>2026-05-01T12:22:50.763Z</time></trkpt><trkpt lat="43.5389109" lon="12.2889446"><ele>522.0</ele><time>2026-05-01T12:22:51.761Z</time></trkpt><trkpt lat="43.5388769" lon="12.2888396"><ele>522.0</ele><time>2026-05-01T12:22:52.769Z</time></trkpt><trkpt lat="43.5388343" lon="12.2887488"><ele>522.0</ele><time>2026-05-01T12:22:53.771Z</time></trkpt><trkpt lat="43.5387772" lon="12.2886766"><ele>522.0</ele><time>2026-05-01T12:22:54.78Z</time></trkpt><trkpt lat="43.5387138" lon="12.2886171"><ele>520.3333333333334</ele><time>2026-05-01T12:22:55.761Z</time></trkpt><trkpt lat="43.5386508" lon="12.2885779"><ele>518.6666666666666</ele><time>2026-05-01T12:22:56.771Z</time></trkpt><trkpt lat="43.5385733" lon="12.2885541"><ele>517.0</ele><time>2026-05-01T12:22:57.776Z</time></trkpt><trkpt lat="43.538493" lon="12.2885343"><ele>515.3333333333333</ele><time>2026-05-01T12:22:58.777Z</time></trkpt><trkpt lat="43.5384186" lon="12.2885163"><ele>513.6666666666666</ele><time>2026-05-01T12:22:59.773Z</time></trkpt><trkpt lat="43.5383666" lon="12.288459"><ele>512.0</ele><time>2026-05-01T12:23:00.765Z</time></trkpt><trkpt lat="43.5383123" lon="12.2883691"><ele>511.99999999999994</ele><time>2026-05-01T12:23:01.768Z</time></trkpt><trkpt lat="43.5382629" lon="12.2882717"><ele>512.0</ele><time>2026-05-01T12:23:02.775Z</time></trkpt><trkpt lat="43.5382045" lon="12.2881762"><ele>512.0</ele><time>2026-05-01T12:23:03.776Z</time></trkpt><trkpt lat="43.5381346" lon="12.2880878"><ele>512.0</ele><time>2026-05-01T12:23:04.756Z</time></trkpt><trkpt lat="43.5380659" lon="12.2880047"><ele>511.99999999999994</ele><time>2026-05-01T12:23:05.764Z</time></trkpt><trkpt lat="43.5380094" lon="12.2879317"><ele>512.0</ele><time>2026-05-01T12:23:06.772Z</time></trkpt><trkpt lat="43.5379652" lon="12.2878694"><ele>510.0</ele><time>2026-05-01T12:23:07.782Z</time></trkpt><trkpt lat="43.5378855" lon="12.2877486"><ele>508.00000000000006</ele><time>2026-05-01T12:23:09.773Z</time></trkpt><trkpt lat="43.5378055" lon="12.2876404"><ele>506.00000000000006</ele><time>2026-05-01T12:23:11.767Z</time></trkpt><trkpt lat="43.5377765" lon="12.2875499"><ele>504.0</ele><time>2026-05-01T12:23:12.768Z</time></trkpt><trkpt lat="43.5377394" lon="12.2874546"><ele>502.0</ele><time>2026-05-01T12:23:13.771Z</time></trkpt><trkpt lat="43.5376999" lon="12.2873747"><ele>502.00000000000006</ele><time>2026-05-01T12:23:14.77Z</time></trkpt><trkpt lat="43.5376496" lon="12.2872997"><ele>502.0</ele><time>2026-05-01T12:23:15.767Z</time></trkpt><trkpt lat="43.5376001" lon="12.2872201"><ele>502.0</ele><time>2026-05-01T12:23:16.791Z</time></trkpt><trkpt lat="43.5375436" lon="12.2871291"><ele>502.0</ele><time>2026-05-01T12:23:17.779Z</time></trkpt><trkpt lat="43.5374907" lon="12.2870387"><ele>502.00000000000006</ele><time>2026-05-01T12:23:18.77Z</time></trkpt><trkpt lat="43.5374316" lon="12.2869503"><ele>502.0</ele><time>2026-05-01T12:23:19.768Z</time></trkpt><trkpt lat="43.5373705" lon="12.2868474"><ele>502.50000000000006</ele><time>2026-05-01T12:23:20.77Z</time></trkpt><trkpt lat="43.5373067" lon="12.2867547"><ele>503.0</ele><time>2026-05-01T12:23:21.763Z</time></trkpt><trkpt lat="43.5372449" lon="12.286671"><ele>503.5</ele><time>2026-05-01T12:23:22.763Z</time></trkpt><trkpt lat="43.5371792" lon="12.2865875"><ele>504.0</ele><time>2026-05-01T12:23:23.77Z</time></trkpt><trkpt lat="43.5371136" lon="12.2865171"><ele>504.50000000000006</ele><time>2026-05-01T12:23:24.766Z</time></trkpt><trkpt lat="43.5370518" lon="12.2864599"><ele>505.0</ele><time>2026-05-01T12:23:25.768Z</time></trkpt><trkpt lat="43.5369894" lon="12.2864113"><ele>503.0</ele><time>2026-05-01T12:23:26.76Z</time></trkpt><trkpt lat="43.5369334" lon="12.2863301"><ele>501.0</ele><time>2026-05-01T12:23:27.775Z</time></trkpt><trkpt lat="43.5368851" lon="12.2862285"><ele>499.0</ele><time>2026-05-01T12:23:28.764Z</time></trkpt><trkpt lat="43.5368469" lon="12.2861066"><ele>497.0</ele><time>2026-05-01T12:23:29.761Z</time></trkpt><trkpt lat="43.5368197" lon="12.2859795"><ele>495.0</ele><time>2026-05-01T12:23:30.761Z</time></trkpt><trkpt lat="43.5367926" lon="12.285855"><ele>495.0</ele><time>2026-05-01T12:23:31.77Z</time></trkpt><trkpt lat="43.5367592" lon="12.2857434"><ele>495.0</ele><time>2026-05-01T12:23:32.774Z</time></trkpt><trkpt lat="43.5367137" lon="12.2856304"><ele>495.0</ele><time>2026-05-01T12:23:33.776Z</time></trkpt><trkpt lat="43.5366712" lon="12.2855265"><ele>495.0</ele><time>2026-05-01T12:23:34.757Z</time></trkpt><trkpt lat="43.5366329" lon="12.2854297"><ele>495.0</ele><time>2026-05-01T12:23:35.768Z</time></trkpt><trkpt lat="43.5365898" lon="12.2853405"><ele>495.0</ele><time>2026-05-01T12:23:36.781Z</time></trkpt><trkpt lat="43.5365364" lon="12.2852479"><ele>494.6</ele><time>2026-05-01T12:23:37.766Z</time></trkpt><trkpt lat="43.5364775" lon="12.2851323"><ele>494.2</ele><time>2026-05-01T12:23:38.777Z</time></trkpt><trkpt lat="43.5364178" lon="12.2850089"><ele>493.79999999999995</ele><time>2026-05-01T12:23:39.767Z</time></trkpt><trkpt lat="43.5363444" lon="12.2848934"><ele>493.4</ele><time>2026-05-01T12:23:40.769Z</time></trkpt><trkpt lat="43.5362739" lon="12.2847964"><ele>493.0</ele><time>2026-05-01T12:23:41.766Z</time></trkpt><trkpt lat="43.5362078" lon="12.2846853"><ele>491.79999999999995</ele><time>2026-05-01T12:23:42.763Z</time></trkpt><trkpt lat="43.5361406" lon="12.2845828"><ele>490.59999999999997</ele><time>2026-05-01T12:23:43.77Z</time></trkpt><trkpt lat="43.5360825" lon="12.2844697"><ele>489.40000000000003</ele><time>2026-05-01T12:23:44.762Z</time></trkpt><trkpt lat="43.5360268" lon="12.2843534"><ele>488.20000000000005</ele><time>2026-05-01T12:23:45.773Z</time></trkpt><trkpt lat="43.5359727" lon="12.2842347"><ele>487.0</ele><time>2026-05-01T12:23:46.761Z</time></trkpt><trkpt lat="43.5359204" lon="12.2841221"><ele>487.0</ele><time>2026-05-01T12:23:47.771Z</time></trkpt><trkpt lat="43.535864" lon="12.2839963"><ele>487.00000000000006</ele><time>2026-05-01T12:23:48.77Z</time></trkpt><trkpt lat="43.5358064" lon="12.2838759"><ele>487.00000000000006</ele><time>2026-05-01T12:23:49.773Z</time></trkpt><trkpt lat="43.5357541" lon="12.2837675"><ele>487.0</ele><time>2026-05-01T12:23:50.756Z</time></trkpt><trkpt lat="43.5357079" lon="12.2836633"><ele>487.0</ele><time>2026-05-01T12:23:51.772Z</time></trkpt><trkpt lat="43.5356655" lon="12.2835488"><ele>486.83333333333337</ele><time>2026-05-01T12:23:52.761Z</time></trkpt><trkpt lat="43.535628" lon="12.2834275"><ele>486.6666666666667</ele><time>2026-05-01T12:23:53.769Z</time></trkpt><trkpt lat="43.535604" lon="12.2833072"><ele>486.5</ele><time>2026-05-01T12:23:54.761Z</time></trkpt><trkpt lat="43.5355859" lon="12.2831921"><ele>486.33333333333337</ele><time>2026-05-01T12:23:55.764Z</time></trkpt><trkpt lat="43.5355728" lon="12.2830872"><ele>486.1666666666667</ele><time>2026-05-01T12:23:56.764Z</time></trkpt><trkpt lat="43.5355528" lon="12.2829744"><ele>486.0</ele><time>2026-05-01T12:23:57.784Z</time></trkpt><trkpt lat="43.5355269" lon="12.2828646"><ele>487.0</ele><time>2026-05-01T12:23:58.771Z</time></trkpt><trkpt lat="43.5354938" lon="12.2827531"><ele>488.0</ele><time>2026-05-01T12:23:59.779Z</time></trkpt><trkpt lat="43.5354475" lon="12.282662"><ele>489.0</ele><time>2026-05-01T12:24:00.779Z</time></trkpt><trkpt lat="43.535385" lon="12.2825859"><ele>490.0</ele><time>2026-05-01T12:24:01.763Z</time></trkpt><trkpt lat="43.5353087" lon="12.2825162"><ele>491.0</ele><time>2026-05-01T12:24:02.752Z</time></trkpt><trkpt lat="43.5352112" lon="12.2824421"><ele>488.8</ele><time>2026-05-01T12:24:03.781Z</time></trkpt><trkpt lat="43.5351194" lon="12.2823685"><ele>486.6</ele><time>2026-05-01T12:24:04.777Z</time></trkpt><trkpt lat="43.5350341" lon="12.2823009"><ele>484.4</ele><time>2026-05-01T12:24:05.779Z</time></trkpt><trkpt lat="43.5349639" lon="12.2822152"><ele>482.2</ele><time>2026-05-01T12:24:06.779Z</time></trkpt><trkpt lat="43.5349108" lon="12.2821279"><ele>480.0</ele><time>2026-05-01T12:24:07.769Z</time></trkpt><trkpt lat="43.5348742" lon="12.282026"><ele>480.0</ele><time>2026-05-01T12:24:08.764Z</time></trkpt><trkpt lat="43.5348492" lon="12.28193"><ele>480.0</ele><time>2026-05-01T12:24:09.777Z</time></trkpt><trkpt lat="43.5348331" lon="12.2818302"><ele>480.0</ele><time>2026-05-01T12:24:10.767Z</time></trkpt><trkpt lat="43.5348196" lon="12.2817262"><ele>480.0</ele><time>2026-05-01T12:24:11.768Z</time></trkpt><trkpt lat="43.5348024" lon="12.2816182"><ele>480.0</ele><time>2026-05-01T12:24:12.769Z</time></trkpt><trkpt lat="43.5347868" lon="12.2814897"><ele>480.0</ele><time>2026-05-01T12:24:13.774Z</time></trkpt><trkpt lat="43.5347733" lon="12.2813537"><ele>480.8333333333333</ele><time>2026-05-01T12:24:14.772Z</time></trkpt><trkpt lat="43.5347632" lon="12.2812247"><ele>481.66666666666663</ele><time>2026-05-01T12:24:15.77Z</time></trkpt><trkpt lat="43.5347542" lon="12.2811069"><ele>482.5</ele><time>2026-05-01T12:24:16.771Z</time></trkpt><trkpt lat="43.5347264" lon="12.2810094"><ele>483.3333333333333</ele><time>2026-05-01T12:24:17.771Z</time></trkpt><trkpt lat="43.5346745" lon="12.2809229"><ele>484.16666666666663</ele><time>2026-05-01T12:24:18.756Z</time></trkpt><trkpt lat="43.53461" lon="12.2808542"><ele>485.0</ele><time>2026-05-01T12:24:19.779Z</time></trkpt><trkpt lat="43.5345404" lon="12.2808066"><ele>482.49999999999994</ele><time>2026-05-01T12:24:20.77Z</time></trkpt><trkpt lat="43.5344587" lon="12.2807695"><ele>480.0</ele><time>2026-05-01T12:24:21.763Z</time></trkpt><trkpt lat="43.5343692" lon="12.2807397"><ele>477.5</ele><time>2026-05-01T12:24:22.771Z</time></trkpt><trkpt lat="43.5343019" lon="12.2806868"><ele>475.0</ele><time>2026-05-01T12:24:23.773Z</time></trkpt><trkpt lat="43.5342439" lon="12.2806198"><ele>472.49999999999994</ele><time>2026-05-01T12:24:24.764Z</time></trkpt><trkpt lat="43.5341926" lon="12.2805392"><ele>470.0</ele><time>2026-05-01T12:24:25.783Z</time></trkpt><trkpt lat="43.5341445" lon="12.2804283"><ele>470.0</ele><time>2026-05-01T12:24:26.777Z</time></trkpt><trkpt lat="43.534085" lon="12.2802982"><ele>470.0</ele><time>2026-05-01T12:24:27.776Z</time></trkpt><trkpt lat="43.5340258" lon="12.280175"><ele>470.0</ele><time>2026-05-01T12:24:28.755Z</time></trkpt><trkpt lat="43.5339664" lon="12.2800734"><ele>470.0</ele><time>2026-05-01T12:24:29.784Z</time></trkpt><trkpt lat="43.533901" lon="12.2800039"><ele>470.0</ele><time>2026-05-01T12:24:30.777Z</time></trkpt><trkpt lat="43.5338305" lon="12.2799361"><ele>469.99999999999994</ele><time>2026-05-01T12:24:31.78Z</time></trkpt><trkpt lat="43.53376" lon="12.2798831"><ele>470.0</ele><time>2026-05-01T12:24:32.771Z</time></trkpt><trkpt lat="43.5336917" lon="12.2798451"><ele>470.0</ele><time>2026-05-01T12:24:33.772Z</time></trkpt><trkpt lat="43.5336226" lon="12.2798233"><ele>470.0</ele><time>2026-05-01T12:24:34.772Z</time></trkpt><trkpt lat="43.5335121" lon="12.2798181"><ele>469.99999999999994</ele><time>2026-05-01T12:24:36.774Z</time></trkpt><trkpt lat="43.5334244" lon="12.2798067"><ele>470.0</ele><time>2026-05-01T12:24:38.759Z</time></trkpt><trkpt lat="43.5333699" lon="12.2797298"><ele>469.99999999999994</ele><time>2026-05-01T12:24:40.771Z</time></trkpt><trkpt lat="43.533374" lon="12.2796208"><ele>470.0</ele><time>2026-05-01T12:24:42.762Z</time></trkpt><trkpt lat="43.533411" lon="12.279536"><ele>470.0</ele><time>2026-05-01T12:24:44.751Z</time></trkpt><trkpt lat="43.5334126" lon="12.2794338"><ele>470.0</ele><time>2026-05-01T12:28:49.776Z</time></trkpt><trkpt lat="43.5334404" lon="12.2793123"><ele>469.99999999999994</ele><time>2026-05-01T12:28:58.765Z</time></trkpt><trkpt lat="43.5334801" lon="12.2791823"><ele>470.0</ele><time>2026-05-01T12:29:00.774Z</time></trkpt><trkpt lat="43.5334991" lon="12.2790846"><ele>469.99999999999994</ele><time>2026-05-01T12:29:01.773Z</time></trkpt><trkpt lat="43.5334876" lon="12.2789939"><ele>470.0</ele><time>2026-05-01T12:29:02.762Z</time></trkpt><trkpt lat="43.5334537" lon="12.2789136"><ele>470.0</ele><time>2026-05-01T12:29:03.766Z</time></trkpt><trkpt lat="43.5333394" lon="12.2788262"><ele>470.0</ele><time>2026-05-01T12:29:05.76Z</time></trkpt><trkpt lat="43.5332709" lon="12.2787948"><ele>469.99999999999994</ele><time>2026-05-01T12:29:06.754Z</time></trkpt><trkpt lat="43.5332041" lon="12.2787599"><ele>470.0</ele><time>2026-05-01T12:29:07.763Z</time></trkpt><trkpt lat="43.5331319" lon="12.2787127"><ele>471.8</ele><time>2026-05-01T12:29:08.765Z</time></trkpt><trkpt lat="43.5330512" lon="12.2786544"><ele>473.6</ele><time>2026-05-01T12:29:09.776Z</time></trkpt><trkpt lat="43.5329752" lon="12.2785778"><ele>475.4</ele><time>2026-05-01T12:29:10.771Z</time></trkpt><trkpt lat="43.5329107" lon="12.2784844"><ele>477.2</ele><time>2026-05-01T12:29:11.768Z</time></trkpt><trkpt lat="43.5328641" lon="12.2783816"><ele>479.0</ele><time>2026-05-01T12:29:12.767Z</time></trkpt><trkpt lat="43.5328349" lon="12.278263"><ele>479.4</ele><time>2026-05-01T12:29:13.785Z</time></trkpt><trkpt lat="43.5328151" lon="12.2781344"><ele>479.79999999999995</ele><time>2026-05-01T12:29:14.775Z</time></trkpt><trkpt lat="43.53281" lon="12.2780161"><ele>480.20000000000005</ele><time>2026-05-01T12:29:15.768Z</time></trkpt><trkpt lat="43.5328281" lon="12.277886"><ele>480.6</ele><time>2026-05-01T12:29:16.776Z</time></trkpt><trkpt lat="43.5328716" lon="12.2777566"><ele>481.0</ele><time>2026-05-01T12:29:17.78Z</time></trkpt><trkpt lat="43.5329196" lon="12.2776289"><ele>481.0</ele><time>2026-05-01T12:29:18.771Z</time></trkpt><trkpt lat="43.5329689" lon="12.2774859"><ele>481.0</ele><time>2026-05-01T12:29:19.771Z</time></trkpt><trkpt lat="43.5330147" lon="12.2773428"><ele>481.0</ele><time>2026-05-01T12:29:20.766Z</time></trkpt><trkpt lat="43.5330562" lon="12.2771969"><ele>481.0</ele><time>2026-05-01T12:29:21.777Z</time></trkpt><trkpt lat="43.5330931" lon="12.2770493"><ele>481.4</ele><time>2026-05-01T12:29:22.769Z</time></trkpt><trkpt lat="43.5331156" lon="12.276902"><ele>481.8</ele><time>2026-05-01T12:29:23.77Z</time></trkpt><trkpt lat="43.5331348" lon="12.2767663"><ele>482.19999999999993</ele><time>2026-05-01T12:29:24.78Z</time></trkpt><trkpt lat="43.5331533" lon="12.2766199"><ele>482.59999999999997</ele><time>2026-05-01T12:29:25.769Z</time></trkpt><trkpt lat="43.533158" lon="12.2764642"><ele>483.0</ele><time>2026-05-01T12:29:26.763Z</time></trkpt><trkpt lat="43.5331538" lon="12.2763097"><ele>483.0</ele><time>2026-05-01T12:29:27.772Z</time></trkpt><trkpt lat="43.5331386" lon="12.2761638"><ele>482.99999999999994</ele><time>2026-05-01T12:29:28.769Z</time></trkpt><trkpt lat="43.5331066" lon="12.2760294"><ele>482.99999999999994</ele><time>2026-05-01T12:29:29.777Z</time></trkpt><trkpt lat="43.5330649" lon="12.2759056"><ele>483.0</ele><time>2026-05-01T12:29:30.772Z</time></trkpt><trkpt lat="43.5330186" lon="12.275786"><ele>483.0</ele><time>2026-05-01T12:29:31.783Z</time></trkpt><trkpt lat="43.5329721" lon="12.2756648"><ele>485.0</ele><time>2026-05-01T12:29:32.764Z</time></trkpt><trkpt lat="43.5329285" lon="12.2755405"><ele>486.99999999999994</ele><time>2026-05-01T12:29:33.773Z</time></trkpt><trkpt lat="43.5328813" lon="12.2754132"><ele>488.99999999999994</ele><time>2026-05-01T12:29:34.763Z</time></trkpt><trkpt lat="43.5328201" lon="12.2752767"><ele>491.0</ele><time>2026-05-01T12:29:35.774Z</time></trkpt><trkpt lat="43.5327492" lon="12.2751431"><ele>493.0</ele><time>2026-05-01T12:29:36.759Z</time></trkpt><trkpt lat="43.5326661" lon="12.275016"><ele>487.25</ele><time>2026-05-01T12:29:37.763Z</time></trkpt><trkpt lat="43.532587" lon="12.2748913"><ele>481.5</ele><time>2026-05-01T12:29:38.771Z</time></trkpt><trkpt lat="43.5325053" lon="12.2747799"><ele>475.75</ele><time>2026-05-01T12:29:39.771Z</time></trkpt><trkpt lat="43.5324178" lon="12.2746744"><ele>470.0</ele><time>2026-05-01T12:29:40.761Z</time></trkpt><trkpt lat="43.5323222" lon="12.2745665"><ele>470.0</ele><time>2026-05-01T12:29:41.773Z</time></trkpt><trkpt lat="43.5322426" lon="12.2744523"><ele>470.0</ele><time>2026-05-01T12:29:42.772Z</time></trkpt><trkpt lat="43.5321774" lon="12.274311"><ele>470.0</ele><time>2026-05-01T12:29:43.765Z</time></trkpt><trkpt lat="43.5321344" lon="12.2741474"><ele>470.0</ele><time>2026-05-01T12:29:44.757Z</time></trkpt><trkpt lat="43.5321028" lon="12.2739775"><ele>470.5</ele><time>2026-05-01T12:29:45.775Z</time></trkpt><trkpt lat="43.5320722" lon="12.2738001"><ele>471.0</ele><time>2026-05-01T12:29:46.769Z</time></trkpt><trkpt lat="43.5320431" lon="12.2736253"><ele>471.5</ele><time>2026-05-01T12:29:47.785Z</time></trkpt><trkpt lat="43.5320078" lon="12.2734617"><ele>472.0</ele><time>2026-05-01T12:29:48.761Z</time></trkpt><trkpt lat="43.5319674" lon="12.2733015"><ele>467.5</ele><time>2026-05-01T12:29:49.783Z</time></trkpt><trkpt lat="43.5319227" lon="12.2731436"><ele>463.0</ele><time>2026-05-01T12:29:50.77Z</time></trkpt><trkpt lat="43.5318685" lon="12.2729813"><ele>458.5</ele><time>2026-05-01T12:29:51.781Z</time></trkpt><trkpt lat="43.5318122" lon="12.2728165"><ele>454.0</ele><time>2026-05-01T12:29:52.773Z</time></trkpt><trkpt lat="43.5317557" lon="12.2726566"><ele>454.0</ele><time>2026-05-01T12:29:53.763Z</time></trkpt><trkpt lat="43.5317136" lon="12.2724927"><ele>454.0</ele><time>2026-05-01T12:29:54.769Z</time></trkpt><trkpt lat="43.5316857" lon="12.2723272"><ele>454.0</ele><time>2026-05-01T12:29:55.78Z</time></trkpt><trkpt lat="43.5316618" lon="12.2721421"><ele>454.0</ele><time>2026-05-01T12:29:56.794Z</time></trkpt><trkpt lat="43.5316322" lon="12.2719691"><ele>455.5</ele><time>2026-05-01T12:29:57.772Z</time></trkpt><trkpt lat="43.5315911" lon="12.2718126"><ele>457.0</ele><time>2026-05-01T12:29:58.77Z</time></trkpt><trkpt lat="43.5315242" lon="12.2716672"><ele>458.5</ele><time>2026-05-01T12:29:59.777Z</time></trkpt><trkpt lat="43.5314365" lon="12.2715237"><ele>460.0</ele><time>2026-05-01T12:30:00.765Z</time></trkpt><trkpt lat="43.5313507" lon="12.2713804"><ele>457.25</ele><time>2026-05-01T12:30:01.764Z</time></trkpt><trkpt lat="43.5312698" lon="12.2712504"><ele>454.5</ele><time>2026-05-01T12:30:02.767Z</time></trkpt><trkpt lat="43.5311892" lon="12.2711201"><ele>451.75</ele><time>2026-05-01T12:30:03.77Z</time></trkpt><trkpt lat="43.5311059" lon="12.2709984"><ele>449.0</ele><time>2026-05-01T12:30:04.764Z</time></trkpt><trkpt lat="43.5310162" lon="12.2708876"><ele>449.0</ele><time>2026-05-01T12:30:05.766Z</time></trkpt><trkpt lat="43.530919" lon="12.2707885"><ele>449.0</ele><time>2026-05-01T12:30:06.763Z</time></trkpt><trkpt lat="43.5308188" lon="12.2706993"><ele>449.0</ele><time>2026-05-01T12:30:07.771Z</time></trkpt><trkpt lat="43.5307233" lon="12.270604"><ele>449.0</ele><time>2026-05-01T12:30:08.767Z</time></trkpt><trkpt lat="43.5306299" lon="12.2704944"><ele>446.75</ele><time>2026-05-01T12:30:09.768Z</time></trkpt><trkpt lat="43.5305406" lon="12.2703688"><ele>444.5</ele><time>2026-05-01T12:30:10.763Z</time></trkpt><trkpt lat="43.5304534" lon="12.2702383"><ele>442.25</ele><time>2026-05-01T12:30:11.771Z</time></trkpt><trkpt lat="43.5303586" lon="12.2701101"><ele>440.0</ele><time>2026-05-01T12:30:12.769Z</time></trkpt><trkpt lat="43.5302511" lon="12.2699942"><ele>440.0</ele><time>2026-05-01T12:30:13.766Z</time></trkpt><trkpt lat="43.5301369" lon="12.2698863"><ele>440.0</ele><time>2026-05-01T12:30:14.764Z</time></trkpt><trkpt lat="43.5300222" lon="12.2697937"><ele>440.0</ele><time>2026-05-01T12:30:15.765Z</time></trkpt><trkpt lat="43.5299076" lon="12.2697057"><ele>440.0</ele><time>2026-05-01T12:30:16.76Z</time></trkpt><trkpt lat="43.529793" lon="12.2696206"><ele>439.5</ele><time>2026-05-01T12:30:17.762Z</time></trkpt><trkpt lat="43.5296752" lon="12.2695334"><ele>439.0</ele><time>2026-05-01T12:30:18.766Z</time></trkpt><trkpt lat="43.5295608" lon="12.2694385"><ele>438.5</ele><time>2026-05-01T12:30:19.764Z</time></trkpt><trkpt lat="43.5294519" lon="12.2693507"><ele>438.0</ele><time>2026-05-01T12:30:20.769Z</time></trkpt><trkpt lat="43.5293373" lon="12.2692647"><ele>438.0</ele><time>2026-05-01T12:30:21.778Z</time></trkpt><trkpt lat="43.5292142" lon="12.2691814"><ele>438.0</ele><time>2026-05-01T12:30:22.767Z</time></trkpt><trkpt lat="43.5290852" lon="12.2690978"><ele>438.0</ele><time>2026-05-01T12:30:23.762Z</time></trkpt><trkpt lat="43.5289556" lon="12.2690124"><ele>438.0</ele><time>2026-05-01T12:30:24.763Z</time></trkpt><trkpt lat="43.5288207" lon="12.2689191"><ele>438.25</ele><time>2026-05-01T12:30:25.773Z</time></trkpt><trkpt lat="43.5286864" lon="12.2688343"><ele>438.5</ele><time>2026-05-01T12:30:26.761Z</time></trkpt><trkpt lat="43.5285496" lon="12.268757"><ele>438.75</ele><time>2026-05-01T12:30:27.765Z</time></trkpt><trkpt lat="43.5284099" lon="12.2686889"><ele>439.0</ele><time>2026-05-01T12:30:28.758Z</time></trkpt><trkpt lat="43.5282654" lon="12.2686317"><ele>439.0</ele><time>2026-05-01T12:30:29.765Z</time></trkpt><trkpt lat="43.5281243" lon="12.2685747"><ele>439.0</ele><time>2026-05-01T12:30:30.759Z</time></trkpt><trkpt lat="43.5279815" lon="12.268522"><ele>439.0</ele><time>2026-05-01T12:30:31.766Z</time></trkpt><trkpt lat="43.5278436" lon="12.2684663"><ele>439.0</ele><time>2026-05-01T12:30:32.766Z</time></trkpt><trkpt lat="43.5277045" lon="12.2684089"><ele>436.5</ele><time>2026-05-01T12:30:33.769Z</time></trkpt><trkpt lat="43.5275693" lon="12.2683561"><ele>434.0</ele><time>2026-05-01T12:30:34.765Z</time></trkpt><trkpt lat="43.5274356" lon="12.2683082"><ele>431.5</ele><time>2026-05-01T12:30:35.772Z</time></trkpt><trkpt lat="43.5273033" lon="12.2682572"><ele>429.0</ele><time>2026-05-01T12:30:36.764Z</time></trkpt><trkpt lat="43.5271727" lon="12.2681928"><ele>428.0</ele><time>2026-05-01T12:30:37.762Z</time></trkpt><trkpt lat="43.5270371" lon="12.2681227"><ele>427.0</ele><time>2026-05-01T12:30:38.769Z</time></trkpt><trkpt lat="43.5269076" lon="12.2680396"><ele>426.0</ele><time>2026-05-01T12:30:39.771Z</time></trkpt><trkpt lat="43.5267836" lon="12.2679365"><ele>425.0</ele><time>2026-05-01T12:30:40.761Z</time></trkpt><trkpt lat="43.5266698" lon="12.2678313"><ele>425.0</ele><time>2026-05-01T12:30:41.758Z</time></trkpt><trkpt lat="43.5265624" lon="12.2677196"><ele>425.0</ele><time>2026-05-01T12:30:42.763Z</time></trkpt><trkpt lat="43.5264622" lon="12.267632"><ele>425.0</ele><time>2026-05-01T12:30:43.761Z</time></trkpt><trkpt lat="43.5263549" lon="12.2675785"><ele>425.0</ele><time>2026-05-01T12:30:44.779Z</time></trkpt><trkpt lat="43.526254" lon="12.2675698"><ele>424.8</ele><time>2026-05-01T12:30:45.789Z</time></trkpt><trkpt lat="43.5261497" lon="12.2675962"><ele>424.6</ele><time>2026-05-01T12:30:46.766Z</time></trkpt><trkpt lat="43.5260448" lon="12.2676211"><ele>424.4</ele><time>2026-05-01T12:30:47.783Z</time></trkpt><trkpt lat="43.5259338" lon="12.2676358"><ele>424.2</ele><time>2026-05-01T12:30:48.799Z</time></trkpt><trkpt lat="43.5258263" lon="12.26761"><ele>424.0</ele><time>2026-05-01T12:30:49.774Z</time></trkpt><trkpt lat="43.5257222" lon="12.2675628"><ele>424.0</ele><time>2026-05-01T12:30:50.77Z</time></trkpt><trkpt lat="43.5256259" lon="12.2674809"><ele>424.0</ele><time>2026-05-01T12:30:51.766Z</time></trkpt><trkpt lat="43.5255234" lon="12.267375"><ele>424.0</ele><time>2026-05-01T12:30:52.78Z</time></trkpt><trkpt lat="43.5254224" lon="12.2672493"><ele>424.0</ele><time>2026-05-01T12:30:53.767Z</time></trkpt><trkpt lat="43.5253136" lon="12.2671059"><ele>424.6666666666667</ele><time>2026-05-01T12:30:54.773Z</time></trkpt><trkpt lat="43.5251985" lon="12.2669505"><ele>425.33333333333337</ele><time>2026-05-01T12:30:55.772Z</time></trkpt><trkpt lat="43.5250809" lon="12.2668003"><ele>426.0</ele><time>2026-05-01T12:30:56.772Z</time></trkpt><trkpt lat="43.5249634" lon="12.2666601"><ele>426.0</ele><time>2026-05-01T12:30:57.766Z</time></trkpt><trkpt lat="43.5248332" lon="12.2665239"><ele>426.0</ele><time>2026-05-01T12:30:58.762Z</time></trkpt><trkpt lat="43.5247018" lon="12.2664003"><ele>426.0</ele><time>2026-05-01T12:30:59.766Z</time></trkpt><trkpt lat="43.5245808" lon="12.2662859"><ele>424.0</ele><time>2026-05-01T12:31:00.767Z</time></trkpt><trkpt lat="43.5244836" lon="12.2661705"><ele>422.0</ele><time>2026-05-01T12:31:01.776Z</time></trkpt><trkpt lat="43.5244033" lon="12.2660521"><ele>420.0</ele><time>2026-05-01T12:31:02.768Z</time></trkpt><trkpt lat="43.5243439" lon="12.2659384"><ele>418.0</ele><time>2026-05-01T12:31:03.782Z</time></trkpt><trkpt lat="43.5243142" lon="12.2658106"><ele>416.0</ele><time>2026-05-01T12:31:04.768Z</time></trkpt><trkpt lat="43.5243147" lon="12.2656689"><ele>416.4</ele><time>2026-05-01T12:31:05.77Z</time></trkpt><trkpt lat="43.5243512" lon="12.2655417"><ele>416.8</ele><time>2026-05-01T12:31:06.783Z</time></trkpt><trkpt lat="43.5244107" lon="12.2654418"><ele>417.2</ele><time>2026-05-01T12:31:07.771Z</time></trkpt><trkpt lat="43.5244865" lon="12.2653536"><ele>417.59999999999997</ele><time>2026-05-01T12:31:08.769Z</time></trkpt><trkpt lat="43.5245688" lon="12.2652864"><ele>418.0</ele><time>2026-05-01T12:31:09.773Z</time></trkpt><trkpt lat="43.5246597" lon="12.2652189"><ele>420.83333333333337</ele><time>2026-05-01T12:31:10.769Z</time></trkpt><trkpt lat="43.5247532" lon="12.2651514"><ele>423.6666666666667</ele><time>2026-05-01T12:31:11.779Z</time></trkpt><trkpt lat="43.5248465" lon="12.265088"><ele>426.5</ele><time>2026-05-01T12:31:12.771Z</time></trkpt><trkpt lat="43.5249256" lon="12.2650269"><ele>429.33333333333337</ele><time>2026-05-01T12:31:13.771Z</time></trkpt><trkpt lat="43.5249898" lon="12.2649626"><ele>432.1666666666667</ele><time>2026-05-01T12:31:14.765Z</time></trkpt><trkpt lat="43.525028" lon="12.2648916"><ele>435.0</ele><time>2026-05-01T12:31:15.778Z</time></trkpt><trkpt lat="43.5250383" lon="12.2647976"><ele>435.5</ele><time>2026-05-01T12:31:16.767Z</time></trkpt><trkpt lat="43.5250229" lon="12.2647005"><ele>436.0</ele><time>2026-05-01T12:31:17.766Z</time></trkpt><trkpt lat="43.5249846" lon="12.2646047"><ele>436.5</ele><time>2026-05-01T12:31:18.767Z</time></trkpt><trkpt lat="43.5249291" lon="12.2645245"><ele>437.0</ele><time>2026-05-01T12:31:19.761Z</time></trkpt><trkpt lat="43.5248574" lon="12.2644593"><ele>437.5</ele><time>2026-05-01T12:31:20.776Z</time></trkpt><trkpt lat="43.52477" lon="12.2644205"><ele>438.0</ele><time>2026-05-01T12:31:21.767Z</time></trkpt><trkpt lat="43.5246791" lon="12.2644167"><ele>438.0</ele><time>2026-05-01T12:31:22.766Z</time></trkpt><trkpt lat="43.5245942" lon="12.2644288"><ele>438.0</ele><time>2026-05-01T12:31:23.774Z</time></trkpt><trkpt lat="43.5245158" lon="12.2644276"><ele>438.0</ele><time>2026-05-01T12:31:24.774Z</time></trkpt><trkpt lat="43.5244423" lon="12.2643901"><ele>438.0</ele><time>2026-05-01T12:31:25.767Z</time></trkpt><trkpt lat="43.5243708" lon="12.2643274"><ele>438.0</ele><time>2026-05-01T12:31:26.771Z</time></trkpt><trkpt lat="43.5243129" lon="12.2642344"><ele>438.0</ele><time>2026-05-01T12:31:27.772Z</time></trkpt><trkpt lat="43.5242586" lon="12.2641327"><ele>439.5</ele><time>2026-05-01T12:31:28.776Z</time></trkpt><trkpt lat="43.5242059" lon="12.2640213"><ele>441.0</ele><time>2026-05-01T12:31:29.772Z</time></trkpt><trkpt lat="43.5241354" lon="12.2639017"><ele>442.5</ele><time>2026-05-01T12:31:30.77Z</time></trkpt><trkpt lat="43.5240555" lon="12.2637787"><ele>444.0</ele><time>2026-05-01T12:31:31.768Z</time></trkpt><trkpt lat="43.5239723" lon="12.2636564"><ele>444.0</ele><time>2026-05-01T12:31:32.772Z</time></trkpt><trkpt lat="43.5238824" lon="12.2635371"><ele>444.0</ele><time>2026-05-01T12:31:33.774Z</time></trkpt><trkpt lat="43.5237864" lon="12.2634195"><ele>444.0</ele><time>2026-05-01T12:31:34.769Z</time></trkpt><trkpt lat="43.5236898" lon="12.2632904"><ele>444.0</ele><time>2026-05-01T12:31:35.778Z</time></trkpt><trkpt lat="43.5235931" lon="12.2631476"><ele>443.5</ele><time>2026-05-01T12:31:36.766Z</time></trkpt><trkpt lat="43.523499" lon="12.2630011"><ele>443.0</ele><time>2026-05-01T12:31:37.776Z</time></trkpt><trkpt lat="43.5233999" lon="12.2628515"><ele>442.5</ele><time>2026-05-01T12:31:38.763Z</time></trkpt><trkpt lat="43.5233006" lon="12.2627057"><ele>442.0</ele><time>2026-05-01T12:31:39.772Z</time></trkpt><trkpt lat="43.523195" lon="12.2625797"><ele>442.0</ele><time>2026-05-01T12:31:40.764Z</time></trkpt><trkpt lat="43.5230703" lon="12.2624779"><ele>442.0</ele><time>2026-05-01T12:31:41.774Z</time></trkpt><trkpt lat="43.5229381" lon="12.2623859"><ele>442.0</ele><time>2026-05-01T12:31:42.766Z</time></trkpt><trkpt lat="43.5228148" lon="12.2623124"><ele>442.0</ele><time>2026-05-01T12:31:43.773Z</time></trkpt><trkpt lat="43.5227024" lon="12.2622518"><ele>440.20000000000005</ele><time>2026-05-01T12:31:44.768Z</time></trkpt><trkpt lat="43.5226006" lon="12.2621948"><ele>438.40000000000003</ele><time>2026-05-01T12:31:45.763Z</time></trkpt><trkpt lat="43.5225103" lon="12.2621187"><ele>436.59999999999997</ele><time>2026-05-01T12:31:46.765Z</time></trkpt><trkpt lat="43.522432" lon="12.2620054"><ele>434.79999999999995</ele><time>2026-05-01T12:31:47.773Z</time></trkpt><trkpt lat="43.522366" lon="12.2618753"><ele>433.0</ele><time>2026-05-01T12:31:48.771Z</time></trkpt><trkpt lat="43.5222972" lon="12.26176"><ele>433.0</ele><time>2026-05-01T12:31:49.774Z</time></trkpt><trkpt lat="43.5222007" lon="12.2616628"><ele>433.0</ele><time>2026-05-01T12:31:50.767Z</time></trkpt><trkpt lat="43.5220856" lon="12.2615817"><ele>433.0</ele><time>2026-05-01T12:31:51.775Z</time></trkpt><trkpt lat="43.5219661" lon="12.2615076"><ele>433.0</ele><time>2026-05-01T12:31:52.774Z</time></trkpt><trkpt lat="43.521856" lon="12.2614225"><ele>432.5</ele><time>2026-05-01T12:31:53.769Z</time></trkpt><trkpt lat="43.5217609" lon="12.2613239"><ele>432.0</ele><time>2026-05-01T12:31:54.765Z</time></trkpt><trkpt lat="43.5216821" lon="12.2611917"><ele>431.5</ele><time>2026-05-01T12:31:55.771Z</time></trkpt><trkpt lat="43.5216202" lon="12.2610501"><ele>431.0</ele><time>2026-05-01T12:31:56.765Z</time></trkpt><trkpt lat="43.5215472" lon="12.2609219"><ele>431.0</ele><time>2026-05-01T12:31:57.767Z</time></trkpt><trkpt lat="43.5214616" lon="12.2608254"><ele>431.0</ele><time>2026-05-01T12:31:58.782Z</time></trkpt><trkpt lat="43.5213509" lon="12.2607713"><ele>431.0</ele><time>2026-05-01T12:31:59.767Z</time></trkpt><trkpt lat="43.5212406" lon="12.2607419"><ele>431.0</ele><time>2026-05-01T12:32:00.761Z</time></trkpt><trkpt lat="43.5211376" lon="12.2607193"><ele>431.0</ele><time>2026-05-01T12:32:01.769Z</time></trkpt><trkpt lat="43.5210642" lon="12.2606578"><ele>427.4</ele><time>2026-05-01T12:32:02.768Z</time></trkpt><trkpt lat="43.5210105" lon="12.2605787"><ele>423.8</ele><time>2026-05-01T12:32:03.784Z</time></trkpt><trkpt lat="43.5209928" lon="12.2604751"><ele>420.2</ele><time>2026-05-01T12:32:04.77Z</time></trkpt><trkpt lat="43.5210042" lon="12.2603387"><ele>416.59999999999997</ele><time>2026-05-01T12:32:05.776Z</time></trkpt><trkpt lat="43.5210316" lon="12.2601986"><ele>413.0</ele><time>2026-05-01T12:32:06.772Z</time></trkpt><trkpt lat="43.5210716" lon="12.2600385"><ele>413.0</ele><time>2026-05-01T12:32:07.766Z</time></trkpt><trkpt lat="43.5211136" lon="12.2598673"><ele>413.0</ele><time>2026-05-01T12:32:08.772Z</time></trkpt><trkpt lat="43.521158" lon="12.2597128"><ele>413.0</ele><time>2026-05-01T12:32:09.77Z</time></trkpt><trkpt lat="43.5211969" lon="12.2595618"><ele>413.0</ele><time>2026-05-01T12:32:10.764Z</time></trkpt><trkpt lat="43.5212312" lon="12.259415"><ele>415.0</ele><time>2026-05-01T12:32:11.772Z</time></trkpt><trkpt lat="43.5212709" lon="12.2592889"><ele>417.0</ele><time>2026-05-01T12:32:12.768Z</time></trkpt><trkpt lat="43.521325" lon="12.2591738"><ele>419.0</ele><time>2026-05-01T12:32:13.773Z</time></trkpt><trkpt lat="43.5214011" lon="12.2590989"><ele>421.0</ele><time>2026-05-01T12:32:14.764Z</time></trkpt><trkpt lat="43.5214984" lon="12.2590441"><ele>423.0</ele><time>2026-05-01T12:32:15.766Z</time></trkpt><trkpt lat="43.521608" lon="12.2590169"><ele>423.0</ele><time>2026-05-01T12:32:16.774Z</time></trkpt><trkpt lat="43.521719" lon="12.2589891"><ele>423.0</ele><time>2026-05-01T12:32:17.773Z</time></trkpt><trkpt lat="43.5218173" lon="12.2589617"><ele>423.0</ele><time>2026-05-01T12:32:18.779Z</time></trkpt><trkpt lat="43.5219002" lon="12.258928"><ele>423.0</ele><time>2026-05-01T12:32:19.775Z</time></trkpt><trkpt lat="43.5219681" lon="12.2588633"><ele>423.0</ele><time>2026-05-01T12:32:20.766Z</time></trkpt><trkpt lat="43.522029" lon="12.2587723"><ele>421.3333333333333</ele><time>2026-05-01T12:32:21.785Z</time></trkpt><trkpt lat="43.5220566" lon="12.2586794"><ele>419.66666666666663</ele><time>2026-05-01T12:32:22.76Z</time></trkpt><trkpt lat="43.5220428" lon="12.2585876"><ele>418.0</ele><time>2026-05-01T12:32:23.781Z</time></trkpt><trkpt lat="43.5219903" lon="12.2584992"><ele>416.3333333333333</ele><time>2026-05-01T12:32:24.777Z</time></trkpt><trkpt lat="43.5219295" lon="12.2584506"><ele>414.66666666666663</ele><time>2026-05-01T12:32:25.78Z</time></trkpt><trkpt lat="43.5218429" lon="12.2584192"><ele>413.0</ele><time>2026-05-01T12:32:26.773Z</time></trkpt><trkpt lat="43.5217422" lon="12.2583781"><ele>412.99999999999994</ele><time>2026-05-01T12:32:27.773Z</time></trkpt><trkpt lat="43.5216417" lon="12.2583271"><ele>413.0</ele><time>2026-05-01T12:32:28.786Z</time></trkpt><trkpt lat="43.5215579" lon="12.258287"><ele>413.0</ele><time>2026-05-01T12:32:29.761Z</time></trkpt><trkpt lat="43.5214833" lon="12.2582352"><ele>413.0</ele><time>2026-05-01T12:32:30.763Z</time></trkpt><trkpt lat="43.5214134" lon="12.2581789"><ele>412.99999999999994</ele><time>2026-05-01T12:32:31.77Z</time></trkpt><trkpt lat="43.5213586" lon="12.2580997"><ele>413.0</ele><time>2026-05-01T12:32:32.764Z</time></trkpt><trkpt lat="43.5213238" lon="12.2579865"><ele>413.4</ele><time>2026-05-01T12:32:33.774Z</time></trkpt><trkpt lat="43.5213116" lon="12.257861"><ele>413.79999999999995</ele><time>2026-05-01T12:32:34.764Z</time></trkpt><trkpt lat="43.5213276" lon="12.2577234"><ele>414.2</ele><time>2026-05-01T12:32:35.769Z</time></trkpt><trkpt lat="43.521352" lon="12.257591"><ele>414.6</ele><time>2026-05-01T12:32:36.77Z</time></trkpt><trkpt lat="43.5213775" lon="12.2574418"><ele>415.0</ele><time>2026-05-01T12:32:37.775Z</time></trkpt><trkpt lat="43.5213856" lon="12.2572798"><ele>414.0</ele><time>2026-05-01T12:32:38.768Z</time></trkpt><trkpt lat="43.5213874" lon="12.2571011"><ele>413.0</ele><time>2026-05-01T12:32:39.769Z</time></trkpt><trkpt lat="43.5213792" lon="12.256935"><ele>412.0</ele><time>2026-05-01T12:32:40.766Z</time></trkpt><trkpt lat="43.5213726" lon="12.2567682"><ele>411.0</ele><time>2026-05-01T12:32:41.791Z</time></trkpt><trkpt lat="43.5213705" lon="12.2566071"><ele>411.0</ele><time>2026-05-01T12:32:42.761Z</time></trkpt><trkpt lat="43.5213701" lon="12.2564544"><ele>411.0</ele><time>2026-05-01T12:32:43.771Z</time></trkpt><trkpt lat="43.5213784" lon="12.2563015"><ele>411.0</ele><time>2026-05-01T12:32:44.773Z</time></trkpt><trkpt lat="43.5213992" lon="12.2561519"><ele>411.0</ele><time>2026-05-01T12:32:45.765Z</time></trkpt><trkpt lat="43.5214295" lon="12.2559955"><ele>409.0</ele><time>2026-05-01T12:32:46.766Z</time></trkpt><trkpt lat="43.5214767" lon="12.2558498"><ele>407.0</ele><time>2026-05-01T12:32:47.773Z</time></trkpt><trkpt lat="43.521533" lon="12.255721"><ele>405.0</ele><time>2026-05-01T12:32:48.767Z</time></trkpt><trkpt lat="43.5216007" lon="12.2556102"><ele>403.0</ele><time>2026-05-01T12:32:49.773Z</time></trkpt><trkpt lat="43.5216776" lon="12.2555343"><ele>401.0</ele><time>2026-05-01T12:32:50.767Z</time></trkpt><trkpt lat="43.5217597" lon="12.2554871"><ele>401.8</ele><time>2026-05-01T12:32:51.781Z</time></trkpt><trkpt lat="43.5218613" lon="12.2554757"><ele>402.6</ele><time>2026-05-01T12:32:52.77Z</time></trkpt><trkpt lat="43.5219695" lon="12.2554887"><ele>403.4</ele><time>2026-05-01T12:32:53.763Z</time></trkpt><trkpt lat="43.5220692" lon="12.2555133"><ele>404.2</ele><time>2026-05-01T12:32:54.764Z</time></trkpt><trkpt lat="43.5221646" lon="12.2555402"><ele>405.0</ele><time>2026-05-01T12:32:55.778Z</time></trkpt><trkpt lat="43.5222565" lon="12.2555457"><ele>405.0</ele><time>2026-05-01T12:32:56.768Z</time></trkpt><trkpt lat="43.5223339" lon="12.255528"><ele>405.0</ele><time>2026-05-01T12:32:57.765Z</time></trkpt><trkpt lat="43.5223907" lon="12.2554754"><ele>405.0</ele><time>2026-05-01T12:32:58.765Z</time></trkpt><trkpt lat="43.5224293" lon="12.2553991"><ele>405.0</ele><time>2026-05-01T12:32:59.765Z</time></trkpt><trkpt lat="43.5224358" lon="12.2553055"><ele>405.0</ele><time>2026-05-01T12:33:00.769Z</time></trkpt><trkpt lat="43.5223654" lon="12.2551688"><ele>405.0</ele><time>2026-05-01T12:33:02.761Z</time></trkpt><trkpt lat="43.5223061" lon="12.2551269"><ele>405.0</ele><time>2026-05-01T12:33:03.782Z</time></trkpt><trkpt lat="43.5222348" lon="12.2550738"><ele>405.0</ele><time>2026-05-01T12:33:04.77Z</time></trkpt><trkpt lat="43.5221382" lon="12.2550072"><ele>405.0</ele><time>2026-05-01T12:33:05.79Z</time></trkpt><trkpt lat="43.522037" lon="12.2549306"><ele>405.0</ele><time>2026-05-01T12:33:06.762Z</time></trkpt><trkpt lat="43.5219385" lon="12.2548581"><ele>405.0</ele><time>2026-05-01T12:33:07.762Z</time></trkpt><trkpt lat="43.5218331" lon="12.2548112"><ele>403.8</ele><time>2026-05-01T12:33:08.767Z</time></trkpt><trkpt lat="43.5217207" lon="12.2547835"><ele>402.6</ele><time>2026-05-01T12:33:09.771Z</time></trkpt><trkpt lat="43.5216052" lon="12.2547676"><ele>401.4</ele><time>2026-05-01T12:33:10.763Z</time></trkpt><trkpt lat="43.5214991" lon="12.2547565"><ele>400.2</ele><time>2026-05-01T12:33:11.767Z</time></trkpt><trkpt lat="43.5214009" lon="12.2547438"><ele>399.0</ele><time>2026-05-01T12:33:12.765Z</time></trkpt><trkpt lat="43.521311" lon="12.2547154"><ele>395.0</ele><time>2026-05-01T12:33:13.769Z</time></trkpt><trkpt lat="43.5212318" lon="12.2546533"><ele>391.0</ele><time>2026-05-01T12:33:14.756Z</time></trkpt><trkpt lat="43.5211737" lon="12.2545509"><ele>387.0</ele><time>2026-05-01T12:33:15.775Z</time></trkpt><trkpt lat="43.5211273" lon="12.2544242"><ele>383.0</ele><time>2026-05-01T12:33:16.774Z</time></trkpt><trkpt lat="43.5211066" lon="12.254275"><ele>379.0</ele><time>2026-05-01T12:33:17.792Z</time></trkpt><trkpt lat="43.5210884" lon="12.2541053"><ele>379.25</ele><time>2026-05-01T12:33:18.769Z</time></trkpt><trkpt lat="43.5210626" lon="12.2539384"><ele>379.5</ele><time>2026-05-01T12:33:19.779Z</time></trkpt><trkpt lat="43.5210332" lon="12.253769"><ele>379.75</ele><time>2026-05-01T12:33:20.769Z</time></trkpt><trkpt lat="43.5210042" lon="12.2535996"><ele>380.0</ele><time>2026-05-01T12:33:21.775Z</time></trkpt><trkpt lat="43.5209704" lon="12.2534278"><ele>380.0</ele><time>2026-05-01T12:33:22.769Z</time></trkpt><trkpt lat="43.5209358" lon="12.2532565"><ele>380.0</ele><time>2026-05-01T12:33:23.79Z</time></trkpt><trkpt lat="43.5209007" lon="12.2530924"><ele>380.0</ele><time>2026-05-01T12:33:24.771Z</time></trkpt><trkpt lat="43.520871" lon="12.2529166"><ele>380.0</ele><time>2026-05-01T12:33:25.771Z</time></trkpt><trkpt lat="43.5208507" lon="12.2527332"><ele>379.75</ele><time>2026-05-01T12:33:26.773Z</time></trkpt><trkpt lat="43.5208336" lon="12.2525496"><ele>379.5</ele><time>2026-05-01T12:33:27.777Z</time></trkpt><trkpt lat="43.5208236" lon="12.2523613"><ele>379.25</ele><time>2026-05-01T12:33:28.763Z</time></trkpt><trkpt lat="43.5208139" lon="12.252174"><ele>379.0</ele><time>2026-05-01T12:33:29.776Z</time></trkpt><trkpt lat="43.5208038" lon="12.2519786"><ele>379.0</ele><time>2026-05-01T12:33:30.787Z</time></trkpt><trkpt lat="43.5207892" lon="12.2517866"><ele>379.0</ele><time>2026-05-01T12:33:31.776Z</time></trkpt><trkpt lat="43.5207717" lon="12.2515943"><ele>379.0</ele><time>2026-05-01T12:33:32.788Z</time></trkpt><trkpt lat="43.5207497" lon="12.2514032"><ele>379.0</ele><time>2026-05-01T12:33:33.777Z</time></trkpt><trkpt lat="43.520725" lon="12.2512241"><ele>379.5</ele><time>2026-05-01T12:33:34.779Z</time></trkpt><trkpt lat="43.5207055" lon="12.2510507"><ele>380.0</ele><time>2026-05-01T12:33:35.793Z</time></trkpt><trkpt lat="43.5206818" lon="12.2508921"><ele>380.5</ele><time>2026-05-01T12:33:36.775Z</time></trkpt><trkpt lat="43.5206649" lon="12.2507334"><ele>381.0</ele><time>2026-05-01T12:33:37.789Z</time></trkpt><trkpt lat="43.5206447" lon="12.2505676"><ele>381.0</ele><time>2026-05-01T12:33:38.767Z</time></trkpt><trkpt lat="43.5206246" lon="12.2504057"><ele>381.0</ele><time>2026-05-01T12:33:39.772Z</time></trkpt><trkpt lat="43.5206003" lon="12.2502456"><ele>381.0</ele><time>2026-05-01T12:33:40.781Z</time></trkpt><trkpt lat="43.520581" lon="12.2500865"><ele>381.0</ele><time>2026-05-01T12:33:41.772Z</time></trkpt><trkpt lat="43.520563" lon="12.2499187"><ele>381.25</ele><time>2026-05-01T12:33:42.766Z</time></trkpt><trkpt lat="43.5205402" lon="12.2497414"><ele>381.5</ele><time>2026-05-01T12:33:43.772Z</time></trkpt><trkpt lat="43.5205107" lon="12.2495645"><ele>381.75</ele><time>2026-05-01T12:33:44.76Z</time></trkpt><trkpt lat="43.5204674" lon="12.2493813"><ele>382.0</ele><time>2026-05-01T12:33:45.778Z</time></trkpt><trkpt lat="43.5204195" lon="12.2491994"><ele>379.5</ele><time>2026-05-01T12:33:46.76Z</time></trkpt><trkpt lat="43.5203731" lon="12.2490183"><ele>377.0</ele><time>2026-05-01T12:33:47.775Z</time></trkpt><trkpt lat="43.5203311" lon="12.2488401"><ele>374.5</ele><time>2026-05-01T12:33:48.779Z</time></trkpt><trkpt lat="43.5202868" lon="12.2486598"><ele>372.0</ele><time>2026-05-01T12:33:49.767Z</time></trkpt><trkpt lat="43.5202415" lon="12.2484822"><ele>372.0</ele><time>2026-05-01T12:33:50.776Z</time></trkpt><trkpt lat="43.5201998" lon="12.2482999"><ele>372.0</ele><time>2026-05-01T12:33:51.773Z</time></trkpt><trkpt lat="43.5201555" lon="12.2481257"><ele>372.0</ele><time>2026-05-01T12:33:52.777Z</time></trkpt><trkpt lat="43.5201209" lon="12.247962"><ele>372.0</ele><time>2026-05-01T12:33:53.782Z</time></trkpt><trkpt lat="43.5200942" lon="12.2478066"><ele>372.5</ele><time>2026-05-01T12:33:54.781Z</time></trkpt><trkpt lat="43.5200879" lon="12.2476501"><ele>373.0</ele><time>2026-05-01T12:33:55.778Z</time></trkpt><trkpt lat="43.5200977" lon="12.2474839"><ele>373.5</ele><time>2026-05-01T12:33:56.764Z</time></trkpt><trkpt lat="43.520115" lon="12.2473113"><ele>374.0</ele><time>2026-05-01T12:33:57.773Z</time></trkpt><trkpt lat="43.520109" lon="12.247146"><ele>374.0</ele><time>2026-05-01T12:33:58.77Z</time></trkpt><trkpt lat="43.5200888" lon="12.2469805"><ele>374.0</ele><time>2026-05-01T12:33:59.773Z</time></trkpt><trkpt lat="43.5200523" lon="12.2468334"><ele>374.0</ele><time>2026-05-01T12:34:00.769Z</time></trkpt><trkpt lat="43.5199992" lon="12.2466826"><ele>374.0</ele><time>2026-05-01T12:34:01.797Z</time></trkpt><trkpt lat="43.5199412" lon="12.2465182"><ele>374.0</ele><time>2026-05-01T12:34:02.763Z</time></trkpt><trkpt lat="43.5198896" lon="12.2463538"><ele>374.0</ele><time>2026-05-01T12:34:03.759Z</time></trkpt><trkpt lat="43.5198428" lon="12.2461757"><ele>374.0</ele><time>2026-05-01T12:34:04.775Z</time></trkpt><trkpt lat="43.5197983" lon="12.2459872"><ele>374.0</ele><time>2026-05-01T12:34:05.768Z</time></trkpt><trkpt lat="43.51975" lon="12.2457823"><ele>374.33333333333337</ele><time>2026-05-01T12:34:06.767Z</time></trkpt><trkpt lat="43.5197026" lon="12.2455765"><ele>374.6666666666667</ele><time>2026-05-01T12:34:07.78Z</time></trkpt><trkpt lat="43.5196487" lon="12.2453799"><ele>375.0</ele><time>2026-05-01T12:34:08.778Z</time></trkpt><trkpt lat="43.5196001" lon="12.2451933"><ele>372.25</ele><time>2026-05-01T12:34:09.779Z</time></trkpt><trkpt lat="43.5195548" lon="12.2450197"><ele>369.5</ele><time>2026-05-01T12:34:10.767Z</time></trkpt><trkpt lat="43.5195104" lon="12.2448535"><ele>366.75</ele><time>2026-05-01T12:34:11.776Z</time></trkpt><trkpt lat="43.5194634" lon="12.2446956"><ele>364.0</ele><time>2026-05-01T12:34:12.769Z</time></trkpt><trkpt lat="43.519419" lon="12.2445629"><ele>364.0</ele><time>2026-05-01T12:34:13.776Z</time></trkpt><trkpt lat="43.5193819" lon="12.2444458"><ele>364.0</ele><time>2026-05-01T12:34:14.763Z</time></trkpt><trkpt lat="43.5193431" lon="12.2443373"><ele>364.0</ele><time>2026-05-01T12:34:15.764Z</time></trkpt><trkpt lat="43.5192881" lon="12.2442598"><ele>364.0</ele><time>2026-05-01T12:34:16.762Z</time></trkpt><trkpt lat="43.519212" lon="12.2442122"><ele>364.0</ele><time>2026-05-01T12:34:17.767Z</time></trkpt><trkpt lat="43.5191151" lon="12.2441925"><ele>364.0</ele><time>2026-05-01T12:34:18.764Z</time></trkpt><trkpt lat="43.519003" lon="12.2441952"><ele>364.0</ele><time>2026-05-01T12:34:19.77Z</time></trkpt><trkpt lat="43.5188663" lon="12.2441971"><ele>364.0</ele><time>2026-05-01T12:34:20.772Z</time></trkpt><trkpt lat="43.5187396" lon="12.2442003"><ele>364.0</ele><time>2026-05-01T12:34:21.766Z</time></trkpt><trkpt lat="43.518608" lon="12.2442031"><ele>364.0</ele><time>2026-05-01T12:34:22.77Z</time></trkpt><trkpt lat="43.518488" lon="12.2442099"><ele>362.75</ele><time>2026-05-01T12:34:23.776Z</time></trkpt><trkpt lat="43.5183672" lon="12.2442173"><ele>361.5</ele><time>2026-05-01T12:34:24.772Z</time></trkpt><trkpt lat="43.5182517" lon="12.2442119"><ele>360.25</ele><time>2026-05-01T12:34:25.773Z</time></trkpt><trkpt lat="43.5181356" lon="12.2441867"><ele>359.0</ele><time>2026-05-01T12:34:26.769Z</time></trkpt><trkpt lat="43.5180199" lon="12.2441431"><ele>359.0</ele><time>2026-05-01T12:34:27.758Z</time></trkpt><trkpt lat="43.5179056" lon="12.2441013"><ele>359.0</ele><time>2026-05-01T12:34:28.773Z</time></trkpt><trkpt lat="43.5177893" lon="12.2440762"><ele>359.0</ele><time>2026-05-01T12:34:29.779Z</time></trkpt><trkpt lat="43.5176692" lon="12.2440899"><ele>359.0</ele><time>2026-05-01T12:34:30.763Z</time></trkpt><trkpt lat="43.5175516" lon="12.2441156"><ele>358.0</ele><time>2026-05-01T12:34:31.771Z</time></trkpt><trkpt lat="43.5174331" lon="12.2441178"><ele>357.0</ele><time>2026-05-01T12:34:32.777Z</time></trkpt><trkpt lat="43.5173124" lon="12.2440962"><ele>356.0</ele><time>2026-05-01T12:34:33.771Z</time></trkpt><trkpt lat="43.5171916" lon="12.244056"><ele>355.0</ele><time>2026-05-01T12:34:34.771Z</time></trkpt><trkpt lat="43.517095" lon="12.2439924"><ele>355.4</ele><time>2026-05-01T12:34:35.776Z</time></trkpt><trkpt lat="43.5170203" lon="12.2438993"><ele>355.8</ele><time>2026-05-01T12:34:36.77Z</time></trkpt><trkpt lat="43.5169625" lon="12.243774"><ele>356.20000000000005</ele><time>2026-05-01T12:34:37.784Z</time></trkpt><trkpt lat="43.5169348" lon="12.2436297"><ele>356.6</ele><time>2026-05-01T12:34:38.769Z</time></trkpt><trkpt lat="43.5169233" lon="12.2434781"><ele>357.0</ele><time>2026-05-01T12:34:39.769Z</time></trkpt><trkpt lat="43.5169125" lon="12.2433134"><ele>357.0</ele><time>2026-05-01T12:34:40.774Z</time></trkpt><trkpt lat="43.5169017" lon="12.2431561"><ele>357.0</ele><time>2026-05-01T12:34:41.765Z</time></trkpt><trkpt lat="43.5168863" lon="12.2430006"><ele>357.0</ele><time>2026-05-01T12:34:42.782Z</time></trkpt><trkpt lat="43.5168505" lon="12.2428473"><ele>357.0</ele><time>2026-05-01T12:34:43.776Z</time></trkpt><trkpt lat="43.5167981" lon="12.242708"><ele>355.25</ele><time>2026-05-01T12:34:44.772Z</time></trkpt><trkpt lat="43.516731" lon="12.2425745"><ele>353.5</ele><time>2026-05-01T12:34:45.763Z</time></trkpt><trkpt lat="43.5166478" lon="12.2424476"><ele>351.75</ele><time>2026-05-01T12:34:46.778Z</time></trkpt><trkpt lat="43.516551" lon="12.242324"><ele>350.0</ele><time>2026-05-01T12:34:47.776Z</time></trkpt><trkpt lat="43.5164579" lon="12.242205"><ele>349.5</ele><time>2026-05-01T12:34:48.777Z</time></trkpt><trkpt lat="43.5163639" lon="12.2420966"><ele>349.0</ele><time>2026-05-01T12:34:49.793Z</time></trkpt><trkpt lat="43.5162761" lon="12.2419939"><ele>348.5</ele><time>2026-05-01T12:34:50.773Z</time></trkpt><trkpt lat="43.5161856" lon="12.2418989"><ele>348.0</ele><time>2026-05-01T12:34:51.777Z</time></trkpt><trkpt lat="43.5160962" lon="12.2418116"><ele>348.0</ele><time>2026-05-01T12:34:52.765Z</time></trkpt><trkpt lat="43.5159988" lon="12.241751"><ele>348.0</ele><time>2026-05-01T12:34:53.781Z</time></trkpt><trkpt lat="43.5158866" lon="12.2417017"><ele>348.0</ele><time>2026-05-01T12:34:54.77Z</time></trkpt><trkpt lat="43.515769" lon="12.2416641"><ele>348.0</ele><time>2026-05-01T12:34:55.767Z</time></trkpt><trkpt lat="43.5156481" lon="12.2416433"><ele>348.0</ele><time>2026-05-01T12:34:56.77Z</time></trkpt><trkpt lat="43.5155229" lon="12.241633"><ele>348.0</ele><time>2026-05-01T12:34:57.771Z</time></trkpt><trkpt lat="43.5153983" lon="12.2416048"><ele>348.0</ele><time>2026-05-01T12:34:58.771Z</time></trkpt><trkpt lat="43.5152794" lon="12.2415515"><ele>348.0</ele><time>2026-05-01T12:34:59.768Z</time></trkpt><trkpt lat="43.5151619" lon="12.2414788"><ele>347.0</ele><time>2026-05-01T12:35:00.771Z</time></trkpt><trkpt lat="43.5150462" lon="12.241383"><ele>346.0</ele><time>2026-05-01T12:35:01.775Z</time></trkpt><trkpt lat="43.5149303" lon="12.2412714"><ele>345.0</ele><time>2026-05-01T12:35:02.768Z</time></trkpt><trkpt lat="43.5148081" lon="12.2411673"><ele>344.0</ele><time>2026-05-01T12:35:03.766Z</time></trkpt><trkpt lat="43.5146824" lon="12.2410662"><ele>344.0</ele><time>2026-05-01T12:35:04.773Z</time></trkpt><trkpt lat="43.5145545" lon="12.2409637"><ele>344.0</ele><time>2026-05-01T12:35:05.792Z</time></trkpt><trkpt lat="43.5144184" lon="12.2408503"><ele>344.0</ele><time>2026-05-01T12:35:06.763Z</time></trkpt><trkpt lat="43.5142873" lon="12.2407366"><ele>342.6666666666667</ele><time>2026-05-01T12:35:07.768Z</time></trkpt><trkpt lat="43.5141501" lon="12.2406265"><ele>341.3333333333333</ele><time>2026-05-01T12:35:08.773Z</time></trkpt><trkpt lat="43.5140179" lon="12.2405122"><ele>340.0</ele><time>2026-05-01T12:35:09.768Z</time></trkpt><trkpt lat="43.5138902" lon="12.2403983"><ele>340.0</ele><time>2026-05-01T12:35:10.766Z</time></trkpt><trkpt lat="43.5137552" lon="12.2402739"><ele>340.0</ele><time>2026-05-01T12:35:11.77Z</time></trkpt><trkpt lat="43.5136249" lon="12.2401557"><ele>340.0</ele><time>2026-05-01T12:35:12.766Z</time></trkpt><trkpt lat="43.5134937" lon="12.2400287"><ele>340.0</ele><time>2026-05-01T12:35:13.772Z</time></trkpt><trkpt lat="43.513362" lon="12.2399013"><ele>340.0</ele><time>2026-05-01T12:35:14.77Z</time></trkpt><trkpt lat="43.5132248" lon="12.2397715"><ele>340.0</ele><time>2026-05-01T12:35:15.777Z</time></trkpt><trkpt lat="43.5130845" lon="12.2396412"><ele>340.0</ele><time>2026-05-01T12:35:16.762Z</time></trkpt><trkpt lat="43.5129426" lon="12.2395143"><ele>340.0</ele><time>2026-05-01T12:35:17.767Z</time></trkpt><trkpt lat="43.5128029" lon="12.2393791"><ele>340.0</ele><time>2026-05-01T12:35:18.766Z</time></trkpt><trkpt lat="43.5126656" lon="12.2392524"><ele>339.3333333333333</ele><time>2026-05-01T12:35:19.768Z</time></trkpt><trkpt lat="43.512532" lon="12.2391249"><ele>338.6666666666667</ele><time>2026-05-01T12:35:20.765Z</time></trkpt><trkpt lat="43.5124042" lon="12.2389992"><ele>338.0</ele><time>2026-05-01T12:35:21.772Z</time></trkpt><trkpt lat="43.5122796" lon="12.2388653"><ele>337.6666666666667</ele><time>2026-05-01T12:35:22.762Z</time></trkpt><trkpt lat="43.5121601" lon="12.2387195"><ele>337.3333333333333</ele><time>2026-05-01T12:35:23.79Z</time></trkpt><trkpt lat="43.5120468" lon="12.2385577"><ele>337.0</ele><time>2026-05-01T12:35:24.762Z</time></trkpt><trkpt lat="43.5119368" lon="12.2383716"><ele>337.0</ele><time>2026-05-01T12:35:25.763Z</time></trkpt><trkpt lat="43.511827" lon="12.2381802"><ele>337.0</ele><time>2026-05-01T12:35:26.775Z</time></trkpt><trkpt lat="43.5117194" lon="12.2379885"><ele>337.0</ele><time>2026-05-01T12:35:27.775Z</time></trkpt><trkpt lat="43.5116111" lon="12.2378007"><ele>336.66666666666663</ele><time>2026-05-01T12:35:28.782Z</time></trkpt><trkpt lat="43.5115029" lon="12.2376121"><ele>336.3333333333333</ele><time>2026-05-01T12:35:29.767Z</time></trkpt><trkpt lat="43.5113849" lon="12.2374273"><ele>336.0</ele><time>2026-05-01T12:35:30.764Z</time></trkpt><trkpt lat="43.5112629" lon="12.2372444"><ele>336.0</ele><time>2026-05-01T12:35:31.777Z</time></trkpt><trkpt lat="43.5111331" lon="12.2370683"><ele>336.0</ele><time>2026-05-01T12:35:32.771Z</time></trkpt><trkpt lat="43.5110071" lon="12.2369042"><ele>336.0</ele><time>2026-05-01T12:35:33.77Z</time></trkpt><trkpt lat="43.5108824" lon="12.2367502"><ele>336.0</ele><time>2026-05-01T12:35:34.77Z</time></trkpt><trkpt lat="43.5107626" lon="12.236605"><ele>336.0</ele><time>2026-05-01T12:35:35.772Z</time></trkpt><trkpt lat="43.510642" lon="12.2364604"><ele>336.0</ele><time>2026-05-01T12:35:36.778Z</time></trkpt><trkpt lat="43.5105279" lon="12.2363152"><ele>335.25</ele><time>2026-05-01T12:35:37.771Z</time></trkpt><trkpt lat="43.5104138" lon="12.2361761"><ele>334.5</ele><time>2026-05-01T12:35:38.771Z</time></trkpt><trkpt lat="43.5103055" lon="12.2360414"><ele>333.75</ele><time>2026-05-01T12:35:39.77Z</time></trkpt><trkpt lat="43.5101992" lon="12.2359013"><ele>333.0</ele><time>2026-05-01T12:35:40.766Z</time></trkpt><trkpt lat="43.5100917" lon="12.2357518"><ele>332.3333333333333</ele><time>2026-05-01T12:35:41.772Z</time></trkpt><trkpt lat="43.5099863" lon="12.2355935"><ele>331.66666666666663</ele><time>2026-05-01T12:35:42.794Z</time></trkpt><trkpt lat="43.5098876" lon="12.235428"><ele>331.0</ele><time>2026-05-01T12:35:43.776Z</time></trkpt><trkpt lat="43.5097912" lon="12.2352539"><ele>331.0</ele><time>2026-05-01T12:35:44.774Z</time></trkpt><trkpt lat="43.5097003" lon="12.2350946"><ele>331.0</ele><time>2026-05-01T12:35:45.781Z</time></trkpt><trkpt lat="43.5096103" lon="12.2349439"><ele>331.0</ele><time>2026-05-01T12:35:46.772Z</time></trkpt><trkpt lat="43.5095222" lon="12.2347942"><ele>331.0</ele><time>2026-05-01T12:35:47.782Z</time></trkpt><trkpt lat="43.5094303" lon="12.2346413"><ele>330.5</ele><time>2026-05-01T12:35:48.779Z</time></trkpt><trkpt lat="43.5093322" lon="12.234488"><ele>330.0</ele><time>2026-05-01T12:35:49.774Z</time></trkpt><trkpt lat="43.5092296" lon="12.2343374"><ele>329.5</ele><time>2026-05-01T12:35:50.761Z</time></trkpt><trkpt lat="43.5091263" lon="12.2341856"><ele>329.0</ele><time>2026-05-01T12:35:51.776Z</time></trkpt><trkpt lat="43.5090251" lon="12.234047"><ele>328.5</ele><time>2026-05-01T12:35:52.774Z</time></trkpt><trkpt lat="43.5089244" lon="12.2339105"><ele>328.0</ele><time>2026-05-01T12:35:53.776Z</time></trkpt><trkpt lat="43.5088288" lon="12.2337783"><ele>327.5</ele><time>2026-05-01T12:35:54.756Z</time></trkpt><trkpt lat="43.5087395" lon="12.2336506"><ele>327.0</ele><time>2026-05-01T12:35:55.79Z</time></trkpt><trkpt lat="43.5086505" lon="12.2335396"><ele>326.5</ele><time>2026-05-01T12:35:56.773Z</time></trkpt><trkpt lat="43.508549" lon="12.233436"><ele>326.0</ele><time>2026-05-01T12:35:57.776Z</time></trkpt><trkpt lat="43.5084363" lon="12.2333435"><ele>325.5</ele><time>2026-05-01T12:35:58.785Z</time></trkpt><trkpt lat="43.5083232" lon="12.2332569"><ele>325.0</ele><time>2026-05-01T12:35:59.78Z</time></trkpt><trkpt lat="43.508213" lon="12.2331663"><ele>324.5</ele><time>2026-05-01T12:36:00.771Z</time></trkpt><trkpt lat="43.5081025" lon="12.2330687"><ele>324.0</ele><time>2026-05-01T12:36:01.777Z</time></trkpt><trkpt lat="43.507986" lon="12.2329682"><ele>323.5</ele><time>2026-05-01T12:36:02.771Z</time></trkpt><trkpt lat="43.5078639" lon="12.2328691"><ele>323.0</ele><time>2026-05-01T12:36:03.772Z</time></trkpt><trkpt lat="43.5077348" lon="12.232765"><ele>322.6666666666667</ele><time>2026-05-01T12:36:04.77Z</time></trkpt><trkpt lat="43.5076038" lon="12.2326637"><ele>322.3333333333333</ele><time>2026-05-01T12:36:05.78Z</time></trkpt><trkpt lat="43.5074747" lon="12.2325571"><ele>322.0</ele><time>2026-05-01T12:36:06.77Z</time></trkpt><trkpt lat="43.507343" lon="12.2324476"><ele>322.0</ele><time>2026-05-01T12:36:07.767Z</time></trkpt><trkpt lat="43.5072143" lon="12.2323447"><ele>322.0</ele><time>2026-05-01T12:36:08.775Z</time></trkpt><trkpt lat="43.5070826" lon="12.2322443"><ele>322.0</ele><time>2026-05-01T12:36:09.783Z</time></trkpt><trkpt lat="43.5069494" lon="12.2321451"><ele>321.3333333333333</ele><time>2026-05-01T12:36:10.78Z</time></trkpt><trkpt lat="43.5068164" lon="12.2320495"><ele>320.6666666666667</ele><time>2026-05-01T12:36:11.772Z</time></trkpt><trkpt lat="43.5066787" lon="12.231955"><ele>320.0</ele><time>2026-05-01T12:36:12.782Z</time></trkpt><trkpt lat="43.5065329" lon="12.2318561"><ele>320.0</ele><time>2026-05-01T12:36:13.778Z</time></trkpt><trkpt lat="43.5063848" lon="12.2317575"><ele>320.0</ele><time>2026-05-01T12:36:14.776Z</time></trkpt><trkpt lat="43.5062372" lon="12.2316615"><ele>320.0</ele><time>2026-05-01T12:36:15.779Z</time></trkpt><trkpt lat="43.5060977" lon="12.2315699"><ele>320.0</ele><time>2026-05-01T12:36:16.771Z</time></trkpt><trkpt lat="43.5059663" lon="12.2314843"><ele>320.0</ele><time>2026-05-01T12:36:17.781Z</time></trkpt><trkpt lat="43.5058402" lon="12.2314007"><ele>320.0</ele><time>2026-05-01T12:36:18.769Z</time></trkpt><trkpt lat="43.5057169" lon="12.231323"><ele>320.0</ele><time>2026-05-01T12:36:19.777Z</time></trkpt><trkpt lat="43.5056007" lon="12.231251"><ele>320.0</ele><time>2026-05-01T12:36:20.766Z</time></trkpt><trkpt lat="43.5054871" lon="12.2311809"><ele>320.0</ele><time>2026-05-01T12:36:21.776Z</time></trkpt><trkpt lat="43.5053787" lon="12.2311084"><ele>320.0</ele><time>2026-05-01T12:36:22.778Z</time></trkpt><trkpt lat="43.5052729" lon="12.2310331"><ele>320.0</ele><time>2026-05-01T12:36:23.779Z</time></trkpt><trkpt lat="43.5051694" lon="12.2309605"><ele>319.75</ele><time>2026-05-01T12:36:24.773Z</time></trkpt><trkpt lat="43.5050718" lon="12.2308804"><ele>319.5</ele><time>2026-05-01T12:36:25.773Z</time></trkpt><trkpt lat="43.5049795" lon="12.2307936"><ele>319.25</ele><time>2026-05-01T12:36:26.772Z</time></trkpt><trkpt lat="43.5048875" lon="12.2307011"><ele>319.0</ele><time>2026-05-01T12:36:27.766Z</time></trkpt><trkpt lat="43.5047958" lon="12.2306008"><ele>319.0</ele><time>2026-05-01T12:36:28.769Z</time></trkpt><trkpt lat="43.5046976" lon="12.2304999"><ele>319.0</ele><time>2026-05-01T12:36:29.769Z</time></trkpt><trkpt lat="43.5045985" lon="12.2304009"><ele>319.0</ele><time>2026-05-01T12:36:30.777Z</time></trkpt><trkpt lat="43.5044974" lon="12.2302988"><ele>319.0</ele><time>2026-05-01T12:36:31.775Z</time></trkpt><trkpt lat="43.5043998" lon="12.2301987"><ele>318.25</ele><time>2026-05-01T12:36:32.781Z</time></trkpt><trkpt lat="43.5043032" lon="12.2300945"><ele>317.5</ele><time>2026-05-01T12:36:33.777Z</time></trkpt><trkpt lat="43.5042065" lon="12.2299941"><ele>316.75</ele><time>2026-05-01T12:36:34.766Z</time></trkpt><trkpt lat="43.5041022" lon="12.2298866"><ele>316.0</ele><time>2026-05-01T12:36:35.772Z</time></trkpt><trkpt lat="43.504007" lon="12.2297827"><ele>315.6</ele><time>2026-05-01T12:36:36.778Z</time></trkpt><trkpt lat="43.5039162" lon="12.2296832"><ele>315.20000000000005</ele><time>2026-05-01T12:36:37.78Z</time></trkpt><trkpt lat="43.5038281" lon="12.2295855"><ele>314.79999999999995</ele><time>2026-05-01T12:36:38.772Z</time></trkpt><trkpt lat="43.5037483" lon="12.2294902"><ele>314.4</ele><time>2026-05-01T12:36:39.779Z</time></trkpt><trkpt lat="43.5036777" lon="12.2294088"><ele>314.0</ele><time>2026-05-01T12:36:40.771Z</time></trkpt><trkpt lat="43.5036185" lon="12.2293435"><ele>313.83333333333337</ele><time>2026-05-01T12:36:41.777Z</time></trkpt><trkpt lat="43.5035282" lon="12.2292628"><ele>313.6666666666667</ele><time>2026-05-01T12:36:43.777Z</time></trkpt><trkpt lat="43.5034724" lon="12.2292219"><ele>313.5</ele><time>2026-05-01T12:36:45.771Z</time></trkpt><trkpt lat="43.5034085" lon="12.2292189"><ele>313.3333333333333</ele><time>2026-05-01T12:36:48.764Z</time></trkpt><trkpt lat="43.5033429" lon="12.2293168"><ele>313.16666666666663</ele><time>2026-05-01T12:36:50.767Z</time></trkpt><trkpt lat="43.503303" lon="12.2294198"><ele>313.0</ele><time>2026-05-01T12:36:51.777Z</time></trkpt><trkpt lat="43.503254" lon="12.229543"><ele>313.0</ele><time>2026-05-01T12:36:52.767Z</time></trkpt><trkpt lat="43.5031921" lon="12.2296943"><ele>313.0</ele><time>2026-05-01T12:36:53.783Z</time></trkpt><trkpt lat="43.5031169" lon="12.229867"><ele>313.0</ele><time>2026-05-01T12:36:54.774Z</time></trkpt><trkpt lat="43.5030426" lon="12.2300538"><ele>313.0</ele><time>2026-05-01T12:36:55.778Z</time></trkpt><trkpt lat="43.5029599" lon="12.2302509"><ele>313.25</ele><time>2026-05-01T12:36:56.771Z</time></trkpt><trkpt lat="43.5028775" lon="12.2304474"><ele>313.5</ele><time>2026-05-01T12:36:57.778Z</time></trkpt><trkpt lat="43.5028043" lon="12.2306212"><ele>313.75</ele><time>2026-05-01T12:36:58.777Z</time></trkpt><trkpt lat="43.5027311" lon="12.2307832"><ele>314.0</ele><time>2026-05-01T12:36:59.782Z</time></trkpt><trkpt lat="43.5026704" lon="12.2309352"><ele>314.25</ele><time>2026-05-01T12:37:00.784Z</time></trkpt><trkpt lat="43.5026101" lon="12.2310817"><ele>314.5</ele><time>2026-05-01T12:37:01.783Z</time></trkpt><trkpt lat="43.5025536" lon="12.2312241"><ele>314.75</ele><time>2026-05-01T12:37:02.768Z</time></trkpt><trkpt lat="43.5024981" lon="12.231364"><ele>315.0</ele><time>2026-05-01T12:37:03.776Z</time></trkpt><trkpt lat="43.5024459" lon="12.2315027"><ele>315.0</ele><time>2026-05-01T12:37:04.784Z</time></trkpt><trkpt lat="43.5023926" lon="12.2316292"><ele>315.0</ele><time>2026-05-01T12:37:05.769Z</time></trkpt><trkpt lat="43.5023387" lon="12.2317413"><ele>315.0</ele><time>2026-05-01T12:37:06.768Z</time></trkpt><trkpt lat="43.502284" lon="12.2318398"><ele>315.0</ele><time>2026-05-01T12:37:07.776Z</time></trkpt><trkpt lat="43.5022271" lon="12.2319024"><ele>315.0</ele><time>2026-05-01T12:37:08.771Z</time></trkpt><trkpt lat="43.5021599" lon="12.2319341"><ele>315.0</ele><time>2026-05-01T12:37:09.765Z</time></trkpt><trkpt lat="43.5020802" lon="12.2319288"><ele>314.8333333333333</ele><time>2026-05-01T12:37:10.78Z</time></trkpt><trkpt lat="43.5020101" lon="12.2319128"><ele>314.6666666666667</ele><time>2026-05-01T12:37:11.763Z</time></trkpt><trkpt lat="43.5019501" lon="12.2318864"><ele>314.5</ele><time>2026-05-01T12:37:12.762Z</time></trkpt><trkpt lat="43.5018652" lon="12.2318364"><ele>314.33333333333337</ele><time>2026-05-01T12:37:14.774Z</time></trkpt><trkpt lat="43.501879" lon="12.2319261"><ele>314.1666666666667</ele><time>2026-05-01T12:37:30.766Z</time></trkpt><trkpt lat="43.5019402" lon="12.2320115"><ele>314.0</ele><time>2026-05-01T12:37:32.773Z</time></trkpt><trkpt lat="43.5019384" lon="12.2321321"><ele>314.0</ele><time>2026-05-01T12:37:34.774Z</time></trkpt><trkpt lat="43.5018909" lon="12.2323001"><ele>314.0</ele><time>2026-05-01T12:37:36.776Z</time></trkpt><trkpt lat="43.5018566" lon="12.2324556"><ele>314.0</ele><time>2026-05-01T12:37:38.773Z</time></trkpt><trkpt lat="43.5018239" lon="12.232599"><ele>314.0</ele><time>2026-05-01T12:37:40.771Z</time></trkpt><trkpt lat="43.5017987" lon="12.2327505"><ele>314.1666666666667</ele><time>2026-05-01T12:37:42.77Z</time></trkpt><trkpt lat="43.5017846" lon="12.2328624"><ele>314.33333333333337</ele><time>2026-05-01T12:37:44.76Z</time></trkpt><trkpt lat="43.5017359" lon="12.2329308"><ele>314.5</ele><time>2026-05-01T12:37:47.772Z</time></trkpt><trkpt lat="43.5016973" lon="12.2330592"><ele>314.6666666666667</ele><time>2026-05-01T12:37:50.776Z</time></trkpt><trkpt lat="43.5016549" lon="12.2332085"><ele>314.8333333333333</ele><time>2026-05-01T12:37:52.769Z</time></trkpt><trkpt lat="43.5016239" lon="12.2333012"><ele>315.0</ele><time>2026-05-01T12:37:53.765Z</time></trkpt><trkpt lat="43.5015864" lon="12.2334097"><ele>315.2</ele><time>2026-05-01T12:37:54.762Z</time></trkpt><trkpt lat="43.5015414" lon="12.2335277"><ele>315.4</ele><time>2026-05-01T12:37:55.765Z</time></trkpt><trkpt lat="43.5014914" lon="12.2336428"><ele>315.6</ele><time>2026-05-01T12:37:56.763Z</time></trkpt><trkpt lat="43.5014392" lon="12.2337566"><ele>315.8</ele><time>2026-05-01T12:37:57.772Z</time></trkpt><trkpt lat="43.5013888" lon="12.2338649"><ele>316.0</ele><time>2026-05-01T12:37:58.772Z</time></trkpt><trkpt lat="43.5013251" lon="12.2339646"><ele>316.0</ele><time>2026-05-01T12:37:59.777Z</time></trkpt><trkpt lat="43.5012594" lon="12.2340493"><ele>316.0</ele><time>2026-05-01T12:38:00.769Z</time></trkpt><trkpt lat="43.5011829" lon="12.2341216"><ele>316.0</ele><time>2026-05-01T12:38:01.77Z</time></trkpt><trkpt lat="43.5011202" lon="12.2341894"><ele>316.0</ele><time>2026-05-01T12:38:02.767Z</time></trkpt><trkpt lat="43.5010683" lon="12.23426"><ele>316.0</ele><time>2026-05-01T12:38:03.765Z</time></trkpt><trkpt lat="43.5010234" lon="12.2343228"><ele>316.0</ele><time>2026-05-01T12:38:04.763Z</time></trkpt><trkpt lat="43.5009447" lon="12.234445"><ele>316.3333333333333</ele><time>2026-05-01T12:38:06.765Z</time></trkpt><trkpt lat="43.5008663" lon="12.2345889"><ele>316.66666666666663</ele><time>2026-05-01T12:38:08.76Z</time></trkpt><trkpt lat="43.5008207" lon="12.23466"><ele>317.0</ele><time>2026-05-01T12:38:09.782Z</time></trkpt><trkpt lat="43.5007738" lon="12.2347179"><ele>317.3333333333333</ele><time>2026-05-01T12:38:10.764Z</time></trkpt><trkpt lat="43.5007136" lon="12.2347554"><ele>317.6666666666667</ele><time>2026-05-01T12:38:11.763Z</time></trkpt><trkpt lat="43.5006246" lon="12.2348302"><ele>318.0</ele><time>2026-05-01T12:38:13.767Z</time></trkpt><trkpt lat="43.5005539" lon="12.2349"><ele>318.0</ele><time>2026-05-01T12:38:15.778Z</time></trkpt><trkpt lat="43.5004931" lon="12.2349627"><ele>318.0</ele><time>2026-05-01T12:38:18.762Z</time></trkpt><trkpt lat="43.5004257" lon="12.2349379"><ele>318.0</ele><time>2026-05-01T12:38:24.764Z</time></trkpt><trkpt lat="43.5005092" lon="12.234909"><ele>318.0</ele><time>2026-05-01T12:38:29.769Z</time></trkpt><trkpt lat="43.5005778" lon="12.2348521"><ele>318.0</ele><time>2026-05-01T12:38:31.768Z</time></trkpt><trkpt lat="43.5006729" lon="12.234761"><ele>318.0</ele><time>2026-05-01T12:38:33.776Z</time></trkpt><trkpt lat="43.500753" lon="12.2347082"><ele>318.0</ele><time>2026-05-01T12:38:35.78Z</time></trkpt><trkpt lat="43.500813" lon="12.2346519"><ele>318.0</ele><time>2026-05-01T12:38:38.771Z</time></trkpt><trkpt lat="43.5008515" lon="12.2345542"><ele>318.0</ele><time>2026-05-01T12:38:40.767Z</time></trkpt><trkpt lat="43.5008801" lon="12.234457"><ele>318.0</ele><time>2026-05-01T12:38:43.792Z</time></trkpt><trkpt lat="43.5008253" lon="12.2343924"><ele>318.0</ele><time>2026-05-01T12:38:45.773Z</time></trkpt><trkpt lat="43.500714" lon="12.2343139"><ele>318.0</ele><time>2026-05-01T12:38:47.768Z</time></trkpt><trkpt lat="43.5006159" lon="12.2342524"><ele>318.0</ele><time>2026-05-01T12:38:49.757Z</time></trkpt><trkpt lat="43.5005119" lon="12.2341964"><ele>318.0</ele><time>2026-05-01T12:38:51.765Z</time></trkpt><trkpt lat="43.5004459" lon="12.234154"><ele>318.0</ele><time>2026-05-01T12:38:52.77Z</time></trkpt><trkpt lat="43.5003796" lon="12.2341075"><ele>318.0</ele><time>2026-05-01T12:38:53.773Z</time></trkpt><trkpt lat="43.5003075" lon="12.2340623"><ele>318.0</ele><time>2026-05-01T12:38:54.766Z</time></trkpt><trkpt lat="43.5002391" lon="12.2340166"><ele>318.0</ele><time>2026-05-01T12:38:55.764Z</time></trkpt><trkpt lat="43.5001644" lon="12.2339778"><ele>317.5</ele><time>2026-05-01T12:38:56.765Z</time></trkpt><trkpt lat="43.5000948" lon="12.2339322"><ele>317.0</ele><time>2026-05-01T12:38:57.775Z</time></trkpt><trkpt lat="43.4999927" lon="12.2338595"><ele>316.5</ele><time>2026-05-01T12:38:59.767Z</time></trkpt><trkpt lat="43.4999123" lon="12.2338121"><ele>316.0</ele><time>2026-05-01T12:39:01.774Z</time></trkpt><trkpt lat="43.4998331" lon="12.2337894"><ele>315.5</ele><time>2026-05-01T12:39:03.773Z</time></trkpt><trkpt lat="43.4997695" lon="12.2337527"><ele>315.0</ele><time>2026-05-01T12:39:06.774Z</time></trkpt><trkpt lat="43.4996974" lon="12.2338046"><ele>315.0</ele><time>2026-05-01T12:39:10.77Z</time></trkpt><trkpt lat="43.4997465" lon="12.2337401"><ele>315.0</ele><time>2026-05-01T12:42:10.77Z</time></trkpt><trkpt lat="43.4998023" lon="12.2336912"><ele>315.0</ele><time>2026-05-01T12:42:13.765Z</time></trkpt><trkpt lat="43.4998648" lon="12.2336098"><ele>315.0</ele><time>2026-05-01T12:42:16.781Z</time></trkpt><trkpt lat="43.4999034" lon="12.2335147"><ele>315.0</ele><time>2026-05-01T12:42:18.777Z</time></trkpt><trkpt lat="43.49995" lon="12.2334168"><ele>315.0</ele><time>2026-05-01T12:42:20.769Z</time></trkpt><trkpt lat="43.4999966" lon="12.2332955"><ele>315.0</ele><time>2026-05-01T12:42:22.753Z</time></trkpt><trkpt lat="43.5000518" lon="12.233159"><ele>315.0</ele><time>2026-05-01T12:42:24.768Z</time></trkpt><trkpt lat="43.5001163" lon="12.2330144"><ele>315.0</ele><time>2026-05-01T12:42:26.782Z</time></trkpt><trkpt lat="43.5001647" lon="12.2328621"><ele>315.0</ele><time>2026-05-01T12:42:28.786Z</time></trkpt><trkpt lat="43.5001889" lon="12.2327759"><ele>315.0</ele><time>2026-05-01T12:42:29.786Z</time></trkpt><trkpt lat="43.5002194" lon="12.2326959"><ele>314.5</ele><time>2026-05-01T12:42:30.745Z</time></trkpt><trkpt lat="43.5002492" lon="12.232609"><ele>314.0</ele><time>2026-05-01T12:42:31.791Z</time></trkpt><trkpt lat="43.5002793" lon="12.232521"><ele>313.5</ele><time>2026-05-01T12:42:32.785Z</time></trkpt><trkpt lat="43.5003047" lon="12.2324344"><ele>313.0</ele><time>2026-05-01T12:42:33.768Z</time></trkpt><trkpt lat="43.5003326" lon="12.2323475"><ele>312.5</ele><time>2026-05-01T12:42:34.776Z</time></trkpt><trkpt lat="43.5003844" lon="12.2322125"><ele>312.0</ele><time>2026-05-01T12:42:36.76Z</time></trkpt><trkpt lat="43.5004273" lon="12.232126"><ele>312.0</ele><time>2026-05-01T12:42:38.765Z</time></trkpt><trkpt lat="43.5004926" lon="12.2321281"><ele>312.0</ele><time>2026-05-01T12:42:40.77Z</time></trkpt><trkpt lat="43.5005698" lon="12.2321671"><ele>312.0</ele><time>2026-05-01T12:42:42.788Z</time></trkpt><trkpt lat="43.5006564" lon="12.2322032"><ele>312.0</ele><time>2026-05-01T12:42:44.768Z</time></trkpt><trkpt lat="43.5007402" lon="12.2322745"><ele>312.0</ele><time>2026-05-01T12:42:46.766Z</time></trkpt><trkpt lat="43.5008222" lon="12.2323307"><ele>312.0</ele><time>2026-05-01T12:42:48.774Z</time></trkpt><trkpt lat="43.5009104" lon="12.232387"><ele>312.4</ele><time>2026-05-01T12:42:50.764Z</time></trkpt><trkpt lat="43.5010001" lon="12.2324516"><ele>312.79999999999995</ele><time>2026-05-01T12:42:52.76Z</time></trkpt><trkpt lat="43.501094" lon="12.232521"><ele>313.2</ele><time>2026-05-01T12:42:54.77Z</time></trkpt><trkpt lat="43.5011886" lon="12.2325885"><ele>313.59999999999997</ele><time>2026-05-01T12:42:56.764Z</time></trkpt><trkpt lat="43.5012935" lon="12.2326533"><ele>314.0</ele><time>2026-05-01T12:42:58.773Z</time></trkpt><trkpt lat="43.5013962" lon="12.2327161"><ele>314.2</ele><time>2026-05-01T12:43:00.765Z</time></trkpt><trkpt lat="43.5014912" lon="12.2327833"><ele>314.4</ele><time>2026-05-01T12:43:02.769Z</time></trkpt><trkpt lat="43.5015902" lon="12.2328704"><ele>314.6</ele><time>2026-05-01T12:43:04.774Z</time></trkpt><trkpt lat="43.5016688" lon="12.2329234"><ele>314.8</ele><time>2026-05-01T12:43:06.76Z</time></trkpt><trkpt lat="43.5017346" lon="12.2329478"><ele>315.0</ele><time>2026-05-01T12:43:08.771Z</time></trkpt><trkpt lat="43.5018022" lon="12.2328928"><ele>315.0</ele><time>2026-05-01T12:43:11.769Z</time></trkpt><trkpt lat="43.5018363" lon="12.2327913"><ele>315.0</ele><time>2026-05-01T12:43:13.774Z</time></trkpt><trkpt lat="43.501856" lon="12.2327027"><ele>315.0</ele><time>2026-05-01T12:43:15.777Z</time></trkpt><trkpt lat="43.5018695" lon="12.2325885"><ele>315.0</ele><time>2026-05-01T12:43:18.794Z</time></trkpt><trkpt lat="43.5018882" lon="12.2325036"><ele>315.0</ele><time>2026-05-01T12:43:21.784Z</time></trkpt><trkpt lat="43.5018999" lon="12.2323989"><ele>315.0</ele><time>2026-05-01T12:43:25.777Z</time></trkpt><trkpt lat="43.5019261" lon="12.2323118"><ele>315.0</ele><time>2026-05-01T12:43:28.778Z</time></trkpt><trkpt lat="43.5019524" lon="12.2324201"><ele>315.0</ele><time>2026-05-01T12:43:39.776Z</time></trkpt><trkpt lat="43.5019131" lon="12.2325152"><ele>315.0</ele><time>2026-05-01T12:43:42.773Z</time></trkpt><trkpt lat="43.5018398" lon="12.2325455"><ele>315.0</ele><time>2026-05-01T12:43:45.79Z</time></trkpt><trkpt lat="43.4757851" lon="12.2687225"><ele>331.75</ele><time>2026-05-01T13:48:09.746Z</time></trkpt><trkpt lat="43.4757128" lon="12.2685566"><ele>348.5</ele><time>2026-05-01T13:48:10.742Z</time></trkpt><trkpt lat="43.4756588" lon="12.2683667"><ele>365.25</ele><time>2026-05-01T13:48:11.758Z</time></trkpt><trkpt lat="43.4756216" lon="12.2681687"><ele>382.0</ele><time>2026-05-01T13:48:12.747Z</time></trkpt><trkpt lat="43.4756059" lon="12.2679694"><ele>382.75</ele><time>2026-05-01T13:48:13.751Z</time></trkpt><trkpt lat="43.4756115" lon="12.2677841"><ele>383.5</ele><time>2026-05-01T13:48:14.746Z</time></trkpt><trkpt lat="43.4756535" lon="12.2676038"><ele>384.25</ele><time>2026-05-01T13:48:15.749Z</time></trkpt><trkpt lat="43.4757209" lon="12.26743"><ele>385.0</ele><time>2026-05-01T13:48:16.748Z</time></trkpt><trkpt lat="43.4758077" lon="12.2672349"><ele>382.6666666666667</ele><time>2026-05-01T13:48:17.75Z</time></trkpt><trkpt lat="43.475896" lon="12.2670137"><ele>380.33333333333337</ele><time>2026-05-01T13:48:18.749Z</time></trkpt><trkpt lat="43.4759669" lon="12.2667856"><ele>378.0</ele><time>2026-05-01T13:48:19.756Z</time></trkpt><trkpt lat="43.4760274" lon="12.266566"><ele>375.0</ele><time>2026-05-01T13:48:20.75Z</time></trkpt><trkpt lat="43.4761106" lon="12.2661059"><ele>372.0</ele><time>2026-05-01T13:48:22.748Z</time></trkpt><trkpt lat="43.4761191" lon="12.265876"><ele>372.0</ele><time>2026-05-01T13:48:23.757Z</time></trkpt><trkpt lat="43.4761054" lon="12.2656485"><ele>372.0</ele><time>2026-05-01T13:48:24.745Z</time></trkpt><trkpt lat="43.4760732" lon="12.2654255"><ele>372.0</ele><time>2026-05-01T13:48:25.748Z</time></trkpt><trkpt lat="43.476025" lon="12.2652137"><ele>372.0</ele><time>2026-05-01T13:48:26.751Z</time></trkpt><trkpt lat="43.4759806" lon="12.2650249"><ele>372.0</ele><time>2026-05-01T13:48:27.756Z</time></trkpt><trkpt lat="43.4759539" lon="12.2648445"><ele>372.0</ele><time>2026-05-01T13:48:28.747Z</time></trkpt><trkpt lat="43.475951" lon="12.2646595"><ele>372.0</ele><time>2026-05-01T13:48:29.757Z</time></trkpt><trkpt lat="43.4759741" lon="12.2644965"><ele>372.0</ele><time>2026-05-01T13:48:30.758Z</time></trkpt><trkpt lat="43.4760352" lon="12.2643536"><ele>372.0</ele><time>2026-05-01T13:48:31.761Z</time></trkpt><trkpt lat="43.4761174" lon="12.2642581"><ele>372.0</ele><time>2026-05-01T13:48:32.75Z</time></trkpt><trkpt lat="43.4762253" lon="12.2641877"><ele>372.0</ele><time>2026-05-01T13:48:33.757Z</time></trkpt><trkpt lat="43.4763454" lon="12.264156"><ele>376.25</ele><time>2026-05-01T13:48:34.752Z</time></trkpt><trkpt lat="43.4764763" lon="12.2641303"><ele>380.5</ele><time>2026-05-01T13:48:35.753Z</time></trkpt><trkpt lat="43.4766202" lon="12.2641123"><ele>384.75</ele><time>2026-05-01T13:48:36.75Z</time></trkpt><trkpt lat="43.4767839" lon="12.2640993"><ele>389.0</ele><time>2026-05-01T13:48:37.757Z</time></trkpt><trkpt lat="43.4769547" lon="12.2641074"><ele>389.66666666666663</ele><time>2026-05-01T13:48:38.754Z</time></trkpt><trkpt lat="43.4771391" lon="12.2641483"><ele>390.33333333333337</ele><time>2026-05-01T13:48:39.752Z</time></trkpt><trkpt lat="43.4773337" lon="12.2641935"><ele>391.0</ele><time>2026-05-01T13:48:40.747Z</time></trkpt><trkpt lat="43.4775308" lon="12.2642451"><ele>391.0</ele><time>2026-05-01T13:48:41.748Z</time></trkpt><trkpt lat="43.4778909" lon="12.2643291"><ele>391.0</ele><time>2026-05-01T13:48:43.754Z</time></trkpt><trkpt lat="43.4780506" lon="12.2643682"><ele>390.33333333333337</ele><time>2026-05-01T13:48:44.751Z</time></trkpt><trkpt lat="43.4782156" lon="12.2644197"><ele>389.66666666666663</ele><time>2026-05-01T13:48:45.756Z</time></trkpt><trkpt lat="43.4783794" lon="12.2644994"><ele>389.0</ele><time>2026-05-01T13:48:46.751Z</time></trkpt><trkpt lat="43.4785258" lon="12.264574"><ele>389.0</ele><time>2026-05-01T13:48:47.745Z</time></trkpt><trkpt lat="43.4786629" lon="12.2646551"><ele>389.0</ele><time>2026-05-01T13:48:48.75Z</time></trkpt><trkpt lat="43.4787792" lon="12.2647329"><ele>389.0</ele><time>2026-05-01T13:48:49.745Z</time></trkpt><trkpt lat="43.4788792" lon="12.2648033"><ele>389.0</ele><time>2026-05-01T13:48:50.748Z</time></trkpt><trkpt lat="43.4789463" lon="12.2648861"><ele>389.49999999999994</ele><time>2026-05-01T13:48:51.755Z</time></trkpt><trkpt lat="43.4789875" lon="12.2649963"><ele>390.0</ele><time>2026-05-01T13:48:52.745Z</time></trkpt><trkpt lat="43.4789883" lon="12.2651084"><ele>390.5</ele><time>2026-05-01T13:48:53.751Z</time></trkpt><trkpt lat="43.4789402" lon="12.2651967"><ele>391.0</ele><time>2026-05-01T13:48:54.749Z</time></trkpt><trkpt lat="43.4788735" lon="12.2652514"><ele>391.49999999999994</ele><time>2026-05-01T13:48:55.749Z</time></trkpt><trkpt lat="43.4788043" lon="12.2652361"><ele>392.0</ele><time>2026-05-01T13:48:56.761Z</time></trkpt><trkpt lat="43.4787193" lon="12.2652001"><ele>395.75</ele><time>2026-05-01T13:48:57.767Z</time></trkpt><trkpt lat="43.4786182" lon="12.2651428"><ele>399.5</ele><time>2026-05-01T13:48:58.756Z</time></trkpt><trkpt lat="43.4784917" lon="12.2650806"><ele>403.25</ele><time>2026-05-01T13:48:59.753Z</time></trkpt><trkpt lat="43.4783439" lon="12.2650201"><ele>407.0</ele><time>2026-05-01T13:49:00.756Z</time></trkpt><trkpt lat="43.4781747" lon="12.2649684"><ele>407.0</ele><time>2026-05-01T13:49:01.757Z</time></trkpt><trkpt lat="43.4779898" lon="12.2649147"><ele>407.0</ele><time>2026-05-01T13:49:02.758Z</time></trkpt><trkpt lat="43.4776398" lon="12.2648257"><ele>408.0</ele><time>2026-05-01T13:49:04.751Z</time></trkpt><trkpt lat="43.477484" lon="12.264784"><ele>409.0</ele><time>2026-05-01T13:49:05.755Z</time></trkpt><trkpt lat="43.4773438" lon="12.2647621"><ele>410.0</ele><time>2026-05-01T13:49:06.758Z</time></trkpt><trkpt lat="43.4772184" lon="12.2647546"><ele>411.0</ele><time>2026-05-01T13:49:07.766Z</time></trkpt><trkpt lat="43.4771192" lon="12.2647914"><ele>409.0</ele><time>2026-05-01T13:49:08.756Z</time></trkpt><trkpt lat="43.4770444" lon="12.2648707"><ele>407.0</ele><time>2026-05-01T13:49:09.757Z</time></trkpt><trkpt lat="43.4769815" lon="12.2649731"><ele>405.0</ele><time>2026-05-01T13:49:10.751Z</time></trkpt><trkpt lat="43.4769454" lon="12.2651155"><ele>403.0</ele><time>2026-05-01T13:49:11.753Z</time></trkpt><trkpt lat="43.4769323" lon="12.2652791"><ele>401.0</ele><time>2026-05-01T13:49:12.773Z</time></trkpt><trkpt lat="43.4769338" lon="12.265468"><ele>400.3333333333333</ele><time>2026-05-01T13:49:13.76Z</time></trkpt><trkpt lat="43.47696" lon="12.2656796"><ele>399.66666666666663</ele><time>2026-05-01T13:49:14.742Z</time></trkpt><trkpt lat="43.4770036" lon="12.2659162"><ele>399.0</ele><time>2026-05-01T13:49:15.76Z</time></trkpt><trkpt lat="43.4770517" lon="12.2661713"><ele>406.33333333333337</ele><time>2026-05-01T13:49:16.765Z</time></trkpt><trkpt lat="43.4771069" lon="12.2664247"><ele>413.6666666666667</ele><time>2026-05-01T13:49:17.785Z</time></trkpt><trkpt lat="43.4771707" lon="12.2666487"><ele>421.0</ele><time>2026-05-01T13:49:18.754Z</time></trkpt><trkpt lat="43.4772391" lon="12.2668456"><ele>421.75</ele><time>2026-05-01T13:49:19.752Z</time></trkpt><trkpt lat="43.4773264" lon="12.267018"><ele>422.5</ele><time>2026-05-01T13:49:20.759Z</time></trkpt><trkpt lat="43.47742" lon="12.2671703"><ele>423.25</ele><time>2026-05-01T13:49:21.766Z</time></trkpt><trkpt lat="43.4775194" lon="12.2673149"><ele>424.0</ele><time>2026-05-01T13:49:22.765Z</time></trkpt><trkpt lat="43.4776259" lon="12.2674558"><ele>426.0</ele><time>2026-05-01T13:49:23.768Z</time></trkpt><trkpt lat="43.4778382" lon="12.2677354"><ele>428.0</ele><time>2026-05-01T13:49:25.77Z</time></trkpt><trkpt lat="43.4779331" lon="12.2678894"><ele>430.0</ele><time>2026-05-01T13:49:26.747Z</time></trkpt><trkpt lat="43.4780335" lon="12.2680372"><ele>428.6666666666667</ele><time>2026-05-01T13:49:27.749Z</time></trkpt><trkpt lat="43.4781372" lon="12.2681797"><ele>427.33333333333337</ele><time>2026-05-01T13:49:28.742Z</time></trkpt><trkpt lat="43.4782459" lon="12.2683297"><ele>426.0</ele><time>2026-05-01T13:49:29.741Z</time></trkpt><trkpt lat="43.4783596" lon="12.2684877"><ele>426.0</ele><time>2026-05-01T13:49:30.75Z</time></trkpt><trkpt lat="43.4784823" lon="12.2686435"><ele>426.0</ele><time>2026-05-01T13:49:31.756Z</time></trkpt><trkpt lat="43.4786243" lon="12.2688005"><ele>426.0</ele><time>2026-05-01T13:49:32.752Z</time></trkpt><trkpt lat="43.47879" lon="12.2689547"><ele>427.0</ele><time>2026-05-01T13:49:33.749Z</time></trkpt><trkpt lat="43.4789648" lon="12.2690947"><ele>428.0</ele><time>2026-05-01T13:49:34.747Z</time></trkpt><trkpt lat="43.4791391" lon="12.2692469"><ele>429.0</ele><time>2026-05-01T13:49:35.749Z</time></trkpt><trkpt lat="43.4793053" lon="12.2694059"><ele>429.0</ele><time>2026-05-01T13:49:36.749Z</time></trkpt><trkpt lat="43.4794645" lon="12.2695778"><ele>429.0</ele><time>2026-05-01T13:49:37.753Z</time></trkpt><trkpt lat="43.4796219" lon="12.2697765"><ele>429.0</ele><time>2026-05-01T13:49:38.752Z</time></trkpt><trkpt lat="43.4797783" lon="12.2699731"><ele>432.33333333333337</ele><time>2026-05-01T13:49:39.75Z</time></trkpt><trkpt lat="43.4799248" lon="12.2701377"><ele>435.6666666666667</ele><time>2026-05-01T13:49:40.756Z</time></trkpt><trkpt lat="43.4800692" lon="12.270295"><ele>439.0</ele><time>2026-05-01T13:49:41.751Z</time></trkpt><trkpt lat="43.4801981" lon="12.2704718"><ele>435.6666666666667</ele><time>2026-05-01T13:49:42.743Z</time></trkpt><trkpt lat="43.4803162" lon="12.2706678"><ele>432.33333333333337</ele><time>2026-05-01T13:49:43.75Z</time></trkpt><trkpt lat="43.4804221" lon="12.2708844"><ele>429.0</ele><time>2026-05-01T13:49:44.752Z</time></trkpt><trkpt lat="43.4806225" lon="12.2714021"><ele>435.0</ele><time>2026-05-01T13:49:46.749Z</time></trkpt><trkpt lat="43.4807293" lon="12.2716798"><ele>441.0</ele><time>2026-05-01T13:49:47.75Z</time></trkpt><trkpt lat="43.4808208" lon="12.2719555"><ele>447.0</ele><time>2026-05-01T13:49:48.75Z</time></trkpt><trkpt lat="43.4808805" lon="12.27222"><ele>447.5</ele><time>2026-05-01T13:49:49.754Z</time></trkpt><trkpt lat="43.4809275" lon="12.2724524"><ele>448.0</ele><time>2026-05-01T13:49:50.744Z</time></trkpt><trkpt lat="43.4809738" lon="12.2726422"><ele>448.5</ele><time>2026-05-01T13:49:51.756Z</time></trkpt><trkpt lat="43.4809956" lon="12.272814"><ele>449.0</ele><time>2026-05-01T13:49:52.764Z</time></trkpt><trkpt lat="43.4809789" lon="12.2729745"><ele>450.79999999999995</ele><time>2026-05-01T13:49:53.766Z</time></trkpt><trkpt lat="43.4809357" lon="12.2731127"><ele>452.59999999999997</ele><time>2026-05-01T13:49:54.75Z</time></trkpt><trkpt lat="43.4808566" lon="12.2732229"><ele>454.4</ele><time>2026-05-01T13:49:55.754Z</time></trkpt><trkpt lat="43.480756" lon="12.2732886"><ele>456.2</ele><time>2026-05-01T13:49:56.754Z</time></trkpt><trkpt lat="43.4806417" lon="12.2733122"><ele>458.0</ele><time>2026-05-01T13:49:57.755Z</time></trkpt><trkpt lat="43.4805205" lon="12.2732762"><ele>458.2</ele><time>2026-05-01T13:49:58.755Z</time></trkpt><trkpt lat="43.480414" lon="12.2732133"><ele>458.4</ele><time>2026-05-01T13:49:59.75Z</time></trkpt><trkpt lat="43.4803204" lon="12.2731417"><ele>458.59999999999997</ele><time>2026-05-01T13:50:00.756Z</time></trkpt><trkpt lat="43.4802468" lon="12.2730818"><ele>458.79999999999995</ele><time>2026-05-01T13:50:01.766Z</time></trkpt><trkpt lat="43.4801907" lon="12.2730298"><ele>459.0</ele><time>2026-05-01T13:50:02.767Z</time></trkpt><trkpt lat="43.480107" lon="12.2729836"><ele>459.0</ele><time>2026-05-01T13:50:04.757Z</time></trkpt><trkpt lat="43.4800379" lon="12.2729508"><ele>459.0</ele><time>2026-05-01T13:51:27.76Z</time></trkpt><trkpt lat="43.4798298" lon="12.2730066"><ele>459.0</ele><time>2026-05-01T13:51:30.758Z</time></trkpt><trkpt lat="43.4797331" lon="12.2730975"><ele>459.0</ele><time>2026-05-01T13:51:31.753Z</time></trkpt><trkpt lat="43.4796599" lon="12.2732278"><ele>459.0</ele><time>2026-05-01T13:51:32.744Z</time></trkpt><trkpt lat="43.4796185" lon="12.2733587"><ele>459.0</ele><time>2026-05-01T13:51:33.748Z</time></trkpt><trkpt lat="43.4795974" lon="12.2734828"><ele>459.0</ele><time>2026-05-01T13:51:34.748Z</time></trkpt><trkpt lat="43.4796042" lon="12.2735965"><ele>459.0</ele><time>2026-05-01T13:51:35.751Z</time></trkpt><trkpt lat="43.4796534" lon="12.2737166"><ele>459.0</ele><time>2026-05-01T13:51:36.749Z</time></trkpt><trkpt lat="43.4797241" lon="12.2738227"><ele>459.0</ele><time>2026-05-01T13:51:37.759Z</time></trkpt><trkpt lat="43.4798154" lon="12.2739111"><ele>459.0</ele><time>2026-05-01T13:51:38.761Z</time></trkpt><trkpt lat="43.4799407" lon="12.2740076"><ele>459.0</ele><time>2026-05-01T13:51:39.767Z</time></trkpt><trkpt lat="43.4800766" lon="12.2741117"><ele>459.0</ele><time>2026-05-01T13:51:40.755Z</time></trkpt><trkpt lat="43.4802085" lon="12.2742115"><ele>459.0</ele><time>2026-05-01T13:51:41.766Z</time></trkpt><trkpt lat="43.480338" lon="12.2742987"><ele>459.0</ele><time>2026-05-01T13:51:42.747Z</time></trkpt><trkpt lat="43.4804816" lon="12.2743589"><ele>459.0</ele><time>2026-05-01T13:51:43.762Z</time></trkpt><trkpt lat="43.480643" lon="12.2743863"><ele>459.0</ele><time>2026-05-01T13:51:44.748Z</time></trkpt><trkpt lat="43.4808156" lon="12.2743715"><ele>459.0</ele><time>2026-05-01T13:51:45.751Z</time></trkpt><trkpt lat="43.4809913" lon="12.2743386"><ele>459.0</ele><time>2026-05-01T13:51:46.742Z</time></trkpt><trkpt lat="43.4811615" lon="12.2743237"><ele>460.5</ele><time>2026-05-01T13:51:47.753Z</time></trkpt><trkpt lat="43.4813274" lon="12.2743539"><ele>462.0</ele><time>2026-05-01T13:51:48.755Z</time></trkpt><trkpt lat="43.4816873" lon="12.2744824"><ele>462.0</ele><time>2026-05-01T13:51:50.742Z</time></trkpt><trkpt lat="43.4818554" lon="12.2745406"><ele>462.0</ele><time>2026-05-01T13:51:51.753Z</time></trkpt><trkpt lat="43.4820246" lon="12.2745918"><ele>462.0</ele><time>2026-05-01T13:51:52.744Z</time></trkpt><trkpt lat="43.4821922" lon="12.274628"><ele>462.0</ele><time>2026-05-01T13:51:53.756Z</time></trkpt><trkpt lat="43.4823439" lon="12.2746738"><ele>462.0</ele><time>2026-05-01T13:51:54.756Z</time></trkpt><trkpt lat="43.4824804" lon="12.2747577"><ele>462.0</ele><time>2026-05-01T13:51:55.758Z</time></trkpt><trkpt lat="43.4825998" lon="12.2748799"><ele>462.0</ele><time>2026-05-01T13:51:56.747Z</time></trkpt><trkpt lat="43.4827064" lon="12.2750357"><ele>462.0</ele><time>2026-05-01T13:51:57.748Z</time></trkpt><trkpt lat="43.4828004" lon="12.2752048"><ele>462.0</ele><time>2026-05-01T13:51:58.746Z</time></trkpt><trkpt lat="43.4828911" lon="12.275365"><ele>463.25</ele><time>2026-05-01T13:51:59.756Z</time></trkpt><trkpt lat="43.4829796" lon="12.2755093"><ele>464.5</ele><time>2026-05-01T13:52:00.751Z</time></trkpt><trkpt lat="43.4830624" lon="12.2756415"><ele>465.75</ele><time>2026-05-01T13:52:01.75Z</time></trkpt><trkpt lat="43.4831323" lon="12.2757761"><ele>467.0</ele><time>2026-05-01T13:52:02.747Z</time></trkpt><trkpt lat="43.4831711" lon="12.2759153"><ele>467.0</ele><time>2026-05-01T13:52:03.777Z</time></trkpt><trkpt lat="43.48318" lon="12.2760618"><ele>467.00000000000006</ele><time>2026-05-01T13:52:04.775Z</time></trkpt><trkpt lat="43.4831435" lon="12.2761998"><ele>467.00000000000006</ele><time>2026-05-01T13:52:05.757Z</time></trkpt><trkpt lat="43.4830759" lon="12.2763238"><ele>467.0</ele><time>2026-05-01T13:52:06.751Z</time></trkpt><trkpt lat="43.4829748" lon="12.2764016"><ele>467.0</ele><time>2026-05-01T13:52:07.758Z</time></trkpt><trkpt lat="43.4828589" lon="12.2764594"><ele>469.5</ele><time>2026-05-01T13:52:08.75Z</time></trkpt><trkpt lat="43.4827248" lon="12.2764693"><ele>472.0</ele><time>2026-05-01T13:52:09.754Z</time></trkpt><trkpt lat="43.482405" lon="12.2764748"><ele>472.0</ele><time>2026-05-01T13:52:11.773Z</time></trkpt><trkpt lat="43.482256" lon="12.2764901"><ele>472.0</ele><time>2026-05-01T13:52:12.757Z</time></trkpt><trkpt lat="43.4821249" lon="12.2765129"><ele>472.0</ele><time>2026-05-01T13:52:13.756Z</time></trkpt><trkpt lat="43.4820171" lon="12.2765704"><ele>472.0</ele><time>2026-05-01T13:52:14.773Z</time></trkpt><trkpt lat="43.481927" lon="12.2766647"><ele>469.6</ele><time>2026-05-01T13:52:15.786Z</time></trkpt><trkpt lat="43.4818758" lon="12.2767865"><ele>467.20000000000005</ele><time>2026-05-01T13:52:16.765Z</time></trkpt><trkpt lat="43.4818585" lon="12.2769331"><ele>464.8</ele><time>2026-05-01T13:52:17.757Z</time></trkpt><trkpt lat="43.4818831" lon="12.2770835"><ele>462.4</ele><time>2026-05-01T13:52:18.773Z</time></trkpt><trkpt lat="43.4819467" lon="12.2772147"><ele>460.0</ele><time>2026-05-01T13:52:19.769Z</time></trkpt><trkpt lat="43.4820285" lon="12.2773505"><ele>464.6666666666667</ele><time>2026-05-01T13:52:20.756Z</time></trkpt><trkpt lat="43.4821446" lon="12.2774824"><ele>469.33333333333337</ele><time>2026-05-01T13:52:21.753Z</time></trkpt><trkpt lat="43.482268" lon="12.277613"><ele>474.0</ele><time>2026-05-01T13:52:22.751Z</time></trkpt><trkpt lat="43.4824071" lon="12.2776918"><ele>474.0</ele><time>2026-05-01T13:52:23.763Z</time></trkpt><trkpt lat="43.4825511" lon="12.2777332"><ele>474.0</ele><time>2026-05-01T13:52:24.758Z</time></trkpt><trkpt lat="43.4827026" lon="12.2777603"><ele>474.0</ele><time>2026-05-01T13:52:25.76Z</time></trkpt><trkpt lat="43.4828487" lon="12.2778201"><ele>473.0</ele><time>2026-05-01T13:52:26.754Z</time></trkpt><trkpt lat="43.4829918" lon="12.2779209"><ele>472.0</ele><time>2026-05-01T13:52:27.772Z</time></trkpt><trkpt lat="43.4831257" lon="12.2780515"><ele>471.0</ele><time>2026-05-01T13:52:28.755Z</time></trkpt><trkpt lat="43.4832722" lon="12.2781932"><ele>471.0</ele><time>2026-05-01T13:52:29.758Z</time></trkpt><trkpt lat="43.4834287" lon="12.2783377"><ele>471.0</ele><time>2026-05-01T13:52:30.753Z</time></trkpt><trkpt lat="43.4837544" lon="12.2786282"><ele>470.66666666666663</ele><time>2026-05-01T13:52:32.757Z</time></trkpt><trkpt lat="43.4839074" lon="12.2787637"><ele>470.3333333333333</ele><time>2026-05-01T13:52:33.751Z</time></trkpt><trkpt lat="43.4840461" lon="12.2788907"><ele>470.0</ele><time>2026-05-01T13:52:34.752Z</time></trkpt><trkpt lat="43.4841629" lon="12.2790363"><ele>471.66666666666663</ele><time>2026-05-01T13:52:35.753Z</time></trkpt><trkpt lat="43.4842673" lon="12.2792092"><ele>473.33333333333337</ele><time>2026-05-01T13:52:36.75Z</time></trkpt><trkpt lat="43.4843609" lon="12.2794141"><ele>475.0</ele><time>2026-05-01T13:52:37.757Z</time></trkpt><trkpt lat="43.4844617" lon="12.2796413"><ele>473.6666666666667</ele><time>2026-05-01T13:52:38.745Z</time></trkpt><trkpt lat="43.4845677" lon="12.2798713"><ele>472.33333333333337</ele><time>2026-05-01T13:52:39.756Z</time></trkpt><trkpt lat="43.4846669" lon="12.2800909"><ele>471.0</ele><time>2026-05-01T13:52:40.746Z</time></trkpt><trkpt lat="43.4847493" lon="12.2802956"><ele>474.0</ele><time>2026-05-01T13:52:41.751Z</time></trkpt><trkpt lat="43.4848253" lon="12.2804784"><ele>477.0</ele><time>2026-05-01T13:52:42.759Z</time></trkpt><trkpt lat="43.4848906" lon="12.2806503"><ele>480.0</ele><time>2026-05-01T13:52:43.749Z</time></trkpt><trkpt lat="43.4849364" lon="12.2808167"><ele>483.0</ele><time>2026-05-01T13:52:44.758Z</time></trkpt><trkpt lat="43.4849558" lon="12.2809903"><ele>483.75</ele><time>2026-05-01T13:52:45.753Z</time></trkpt><trkpt lat="43.4849404" lon="12.2811644"><ele>484.5</ele><time>2026-05-01T13:52:46.753Z</time></trkpt><trkpt lat="43.4849057" lon="12.2813116"><ele>485.25</ele><time>2026-05-01T13:52:47.753Z</time></trkpt><trkpt lat="43.4848559" lon="12.2814575"><ele>486.0</ele><time>2026-05-01T13:52:48.76Z</time></trkpt><trkpt lat="43.4848103" lon="12.2815964"><ele>487.25</ele><time>2026-05-01T13:52:49.757Z</time></trkpt><trkpt lat="43.4848049" lon="12.281723"><ele>488.5</ele><time>2026-05-01T13:52:50.751Z</time></trkpt><trkpt lat="43.4848379" lon="12.2818591"><ele>489.75</ele><time>2026-05-01T13:52:51.761Z</time></trkpt><trkpt lat="43.484988" lon="12.2820517"><ele>491.0</ele><time>2026-05-01T13:52:53.763Z</time></trkpt><trkpt lat="43.4850946" lon="12.2821261"><ele>491.0</ele><time>2026-05-01T13:52:54.751Z</time></trkpt><trkpt lat="43.4852222" lon="12.2822227"><ele>491.0</ele><time>2026-05-01T13:52:55.754Z</time></trkpt><trkpt lat="43.4853595" lon="12.2823222"><ele>491.0</ele><time>2026-05-01T13:52:56.762Z</time></trkpt><trkpt lat="43.4855115" lon="12.2824356"><ele>492.0</ele><time>2026-05-01T13:52:57.752Z</time></trkpt><trkpt lat="43.4856814" lon="12.2825541"><ele>493.0</ele><time>2026-05-01T13:52:58.751Z</time></trkpt><trkpt lat="43.4858514" lon="12.2826703"><ele>494.0</ele><time>2026-05-01T13:52:59.754Z</time></trkpt><trkpt lat="43.4860159" lon="12.2827817"><ele>494.0</ele><time>2026-05-01T13:53:00.754Z</time></trkpt><trkpt lat="43.486172" lon="12.2828924"><ele>494.0</ele><time>2026-05-01T13:53:01.761Z</time></trkpt><trkpt lat="43.4863072" lon="12.282983"><ele>494.0</ele><time>2026-05-01T13:53:02.753Z</time></trkpt><trkpt lat="43.4864258" lon="12.2830648"><ele>492.0</ele><time>2026-05-01T13:53:03.759Z</time></trkpt><trkpt lat="43.4865283" lon="12.2831314"><ele>490.0</ele><time>2026-05-01T13:53:04.75Z</time></trkpt><trkpt lat="43.4866284" lon="12.2831943"><ele>488.0</ele><time>2026-05-01T13:53:05.768Z</time></trkpt><trkpt lat="43.4867288" lon="12.2832607"><ele>486.0</ele><time>2026-05-01T13:53:06.75Z</time></trkpt><trkpt lat="43.4868402" lon="12.2833303"><ele>486.0</ele><time>2026-05-01T13:53:07.755Z</time></trkpt><trkpt lat="43.4869686" lon="12.283413"><ele>486.0</ele><time>2026-05-01T13:53:08.756Z</time></trkpt><trkpt lat="43.4871025" lon="12.2835017"><ele>486.0</ele><time>2026-05-01T13:53:09.754Z</time></trkpt><trkpt lat="43.4872415" lon="12.2835961"><ele>486.0</ele><time>2026-05-01T13:53:10.762Z</time></trkpt><trkpt lat="43.4873728" lon="12.2836889"><ele>487.0</ele><time>2026-05-01T13:53:11.749Z</time></trkpt><trkpt lat="43.4874915" lon="12.2837921"><ele>488.0</ele><time>2026-05-01T13:53:12.766Z</time></trkpt><trkpt lat="43.4876864" lon="12.2840155"><ele>489.0</ele><time>2026-05-01T13:53:14.75Z</time></trkpt><trkpt lat="43.4877747" lon="12.2841217"><ele>489.0</ele><time>2026-05-01T13:53:15.761Z</time></trkpt><trkpt lat="43.4878708" lon="12.2842173"><ele>489.0</ele><time>2026-05-01T13:53:16.75Z</time></trkpt><trkpt lat="43.4879783" lon="12.2843017"><ele>489.0</ele><time>2026-05-01T13:53:17.756Z</time></trkpt><trkpt lat="43.4880958" lon="12.2843639"><ele>489.0</ele><time>2026-05-01T13:53:18.747Z</time></trkpt><trkpt lat="43.4882213" lon="12.2844026"><ele>492.75</ele><time>2026-05-01T13:53:19.753Z</time></trkpt><trkpt lat="43.4883487" lon="12.2844218"><ele>496.5</ele><time>2026-05-01T13:53:20.753Z</time></trkpt><trkpt lat="43.4884778" lon="12.2844229"><ele>500.25</ele><time>2026-05-01T13:53:21.756Z</time></trkpt><trkpt lat="43.4886052" lon="12.2844052"><ele>504.0</ele><time>2026-05-01T13:53:22.755Z</time></trkpt><trkpt lat="43.4887325" lon="12.2843891"><ele>506.25</ele><time>2026-05-01T13:53:23.753Z</time></trkpt><trkpt lat="43.4888541" lon="12.284388"><ele>508.5</ele><time>2026-05-01T13:53:24.763Z</time></trkpt><trkpt lat="43.4889764" lon="12.2844201"><ele>510.75</ele><time>2026-05-01T13:53:25.766Z</time></trkpt><trkpt lat="43.4891028" lon="12.2844902"><ele>513.0</ele><time>2026-05-01T13:53:26.749Z</time></trkpt><trkpt lat="43.489233" lon="12.2845786"><ele>513.0</ele><time>2026-05-01T13:53:27.765Z</time></trkpt><trkpt lat="43.4893573" lon="12.2846687"><ele>513.0</ele><time>2026-05-01T13:53:28.755Z</time></trkpt><trkpt lat="43.4894822" lon="12.2847505"><ele>513.0</ele><time>2026-05-01T13:53:29.755Z</time></trkpt><trkpt lat="43.4896003" lon="12.2848357"><ele>513.0</ele><time>2026-05-01T13:53:30.755Z</time></trkpt><trkpt lat="43.489704" lon="12.2849123"><ele>511.5</ele><time>2026-05-01T13:53:31.759Z</time></trkpt><trkpt lat="43.4898074" lon="12.2849919"><ele>510.0</ele><time>2026-05-01T13:53:32.753Z</time></trkpt><trkpt lat="43.4898951" lon="12.2850786"><ele>508.5</ele><time>2026-05-01T13:53:33.754Z</time></trkpt><trkpt lat="43.4900267" lon="12.2852959"><ele>507.0</ele><time>2026-05-01T13:53:35.768Z</time></trkpt><trkpt lat="43.4900587" lon="12.2854333"><ele>505.75</ele><time>2026-05-01T13:53:36.747Z</time></trkpt><trkpt lat="43.490072" lon="12.2855984"><ele>504.5</ele><time>2026-05-01T13:53:37.749Z</time></trkpt><trkpt lat="43.4900642" lon="12.2857715"><ele>503.25</ele><time>2026-05-01T13:53:38.748Z</time></trkpt><trkpt lat="43.490065" lon="12.28595"><ele>502.0</ele><time>2026-05-01T13:53:39.753Z</time></trkpt><trkpt lat="43.4900752" lon="12.2861336"><ele>502.0</ele><time>2026-05-01T13:53:40.75Z</time></trkpt><trkpt lat="43.4901014" lon="12.2863156"><ele>502.0</ele><time>2026-05-01T13:53:41.756Z</time></trkpt><trkpt lat="43.490147" lon="12.2864868"><ele>502.0</ele><time>2026-05-01T13:53:42.746Z</time></trkpt><trkpt lat="43.4902121" lon="12.2866408"><ele>502.0</ele><time>2026-05-01T13:53:43.746Z</time></trkpt><trkpt lat="43.4903003" lon="12.2867882"><ele>500.75</ele><time>2026-05-01T13:53:44.753Z</time></trkpt><trkpt lat="43.4904025" lon="12.2869107"><ele>499.5</ele><time>2026-05-01T13:53:45.753Z</time></trkpt><trkpt lat="43.4905242" lon="12.2870171"><ele>498.25</ele><time>2026-05-01T13:53:46.739Z</time></trkpt><trkpt lat="43.4906544" lon="12.2871212"><ele>497.0</ele><time>2026-05-01T13:53:47.756Z</time></trkpt><trkpt lat="43.4907856" lon="12.2872255"><ele>497.5</ele><time>2026-05-01T13:53:48.748Z</time></trkpt><trkpt lat="43.490914" lon="12.2873338"><ele>498.0</ele><time>2026-05-01T13:53:49.755Z</time></trkpt><trkpt lat="43.4910385" lon="12.2874313"><ele>498.5</ele><time>2026-05-01T13:53:50.753Z</time></trkpt><trkpt lat="43.4911594" lon="12.2875348"><ele>499.0</ele><time>2026-05-01T13:53:51.755Z</time></trkpt><trkpt lat="43.4912734" lon="12.287645"><ele>505.0</ele><time>2026-05-01T13:53:52.762Z</time></trkpt><trkpt lat="43.4913788" lon="12.2877329"><ele>511.0</ele><time>2026-05-01T13:53:53.749Z</time></trkpt><trkpt lat="43.4914822" lon="12.2878133"><ele>517.0</ele><time>2026-05-01T13:53:54.744Z</time></trkpt><trkpt lat="43.4917091" lon="12.2879746"><ele>517.0</ele><time>2026-05-01T13:53:56.764Z</time></trkpt><trkpt lat="43.4918362" lon="12.2880763"><ele>517.0</ele><time>2026-05-01T13:53:57.751Z</time></trkpt><trkpt lat="43.4919626" lon="12.2881964"><ele>517.0</ele><time>2026-05-01T13:53:58.747Z</time></trkpt><trkpt lat="43.4920955" lon="12.288317"><ele>516.6666666666667</ele><time>2026-05-01T13:53:59.747Z</time></trkpt><trkpt lat="43.49224" lon="12.2884432"><ele>516.3333333333334</ele><time>2026-05-01T13:54:00.749Z</time></trkpt><trkpt lat="43.4923861" lon="12.2885717"><ele>516.0</ele><time>2026-05-01T13:54:01.76Z</time></trkpt><trkpt lat="43.4925216" lon="12.2887139"><ele>516.0</ele><time>2026-05-01T13:54:02.749Z</time></trkpt><trkpt lat="43.4926455" lon="12.2888835"><ele>516.0</ele><time>2026-05-01T13:54:03.753Z</time></trkpt><trkpt lat="43.4927664" lon="12.2890741"><ele>516.0</ele><time>2026-05-01T13:54:04.754Z</time></trkpt><trkpt lat="43.4928761" lon="12.289271"><ele>515.6666666666666</ele><time>2026-05-01T13:54:05.754Z</time></trkpt><trkpt lat="43.4929766" lon="12.2894681"><ele>515.3333333333333</ele><time>2026-05-01T13:54:06.751Z</time></trkpt><trkpt lat="43.4930773" lon="12.2896608"><ele>515.0</ele><time>2026-05-01T13:54:07.755Z</time></trkpt><trkpt lat="43.4931728" lon="12.2898501"><ele>515.0</ele><time>2026-05-01T13:54:08.77Z</time></trkpt><trkpt lat="43.493266" lon="12.2900253"><ele>515.0</ele><time>2026-05-01T13:54:09.763Z</time></trkpt><trkpt lat="43.4933524" lon="12.2901952"><ele>515.0</ele><time>2026-05-01T13:54:10.76Z</time></trkpt><trkpt lat="43.4934556" lon="12.2903499"><ele>515.0</ele><time>2026-05-01T13:54:11.757Z</time></trkpt><trkpt lat="43.4935741" lon="12.2904901"><ele>515.0</ele><time>2026-05-01T13:54:12.756Z</time></trkpt><trkpt lat="43.4936984" lon="12.2906169"><ele>515.0</ele><time>2026-05-01T13:54:13.754Z</time></trkpt><trkpt lat="43.4938072" lon="12.2907522"><ele>517.6666666666666</ele><time>2026-05-01T13:54:14.751Z</time></trkpt><trkpt lat="43.4939001" lon="12.290895"><ele>520.3333333333334</ele><time>2026-05-01T13:54:15.756Z</time></trkpt><trkpt lat="43.4940085" lon="12.2912373"><ele>523.0</ele><time>2026-05-01T13:54:17.753Z</time></trkpt><trkpt lat="43.4940399" lon="12.2914222"><ele>521.5</ele><time>2026-05-01T13:54:18.745Z</time></trkpt><trkpt lat="43.4940823" lon="12.2915956"><ele>520.0</ele><time>2026-05-01T13:54:19.767Z</time></trkpt><trkpt lat="43.4941574" lon="12.2917631"><ele>518.5</ele><time>2026-05-01T13:54:20.765Z</time></trkpt><trkpt lat="43.4942514" lon="12.2918996"><ele>517.0</ele><time>2026-05-01T13:54:21.761Z</time></trkpt><trkpt lat="43.4943682" lon="12.2920545"><ele>517.0</ele><time>2026-05-01T13:54:22.756Z</time></trkpt><trkpt lat="43.4944963" lon="12.2922099"><ele>517.0</ele><time>2026-05-01T13:54:23.765Z</time></trkpt><trkpt lat="43.4946297" lon="12.2923647"><ele>517.0</ele><time>2026-05-01T13:54:24.759Z</time></trkpt><trkpt lat="43.494758" lon="12.2925038"><ele>518.0</ele><time>2026-05-01T13:54:25.758Z</time></trkpt><trkpt lat="43.4948976" lon="12.2926159"><ele>519.0</ele><time>2026-05-01T13:54:26.756Z</time></trkpt><trkpt lat="43.4950488" lon="12.2927149"><ele>520.0</ele><time>2026-05-01T13:54:27.763Z</time></trkpt><trkpt lat="43.4952123" lon="12.2928001"><ele>520.0</ele><time>2026-05-01T13:54:28.749Z</time></trkpt><trkpt lat="43.4953756" lon="12.292887"><ele>520.0</ele><time>2026-05-01T13:54:29.767Z</time></trkpt><trkpt lat="43.4955371" lon="12.2929668"><ele>520.0</ele><time>2026-05-01T13:54:30.751Z</time></trkpt><trkpt lat="43.4956889" lon="12.293061"><ele>519.0</ele><time>2026-05-01T13:54:31.755Z</time></trkpt><trkpt lat="43.4958371" lon="12.2931769"><ele>518.0</ele><time>2026-05-01T13:54:32.748Z</time></trkpt><trkpt lat="43.4959834" lon="12.2933164"><ele>517.0</ele><time>2026-05-01T13:54:33.759Z</time></trkpt><trkpt lat="43.4961264" lon="12.2934731"><ele>521.6666666666667</ele><time>2026-05-01T13:54:34.746Z</time></trkpt><trkpt lat="43.4962535" lon="12.2936405"><ele>526.3333333333334</ele><time>2026-05-01T13:54:35.751Z</time></trkpt><trkpt lat="43.4963611" lon="12.2938207"><ele>531.0</ele><time>2026-05-01T13:54:36.752Z</time></trkpt><trkpt lat="43.496477" lon="12.2941581"><ele>531.0</ele><time>2026-05-01T13:54:38.757Z</time></trkpt><trkpt lat="43.4964751" lon="12.2943156"><ele>531.0</ele><time>2026-05-01T13:54:39.756Z</time></trkpt><trkpt lat="43.4964355" lon="12.2944606"><ele>531.0</ele><time>2026-05-01T13:54:40.745Z</time></trkpt><trkpt lat="43.4963727" lon="12.2945932"><ele>531.0</ele><time>2026-05-01T13:54:41.752Z</time></trkpt><trkpt lat="43.4962751" lon="12.2947019"><ele>528.75</ele><time>2026-05-01T13:54:42.745Z</time></trkpt><trkpt lat="43.4961556" lon="12.2947969"><ele>526.5</ele><time>2026-05-01T13:54:43.754Z</time></trkpt><trkpt lat="43.4960392" lon="12.2948974"><ele>524.25</ele><time>2026-05-01T13:54:44.763Z</time></trkpt><trkpt lat="43.4959621" lon="12.2950116"><ele>522.0</ele><time>2026-05-01T13:54:45.754Z</time></trkpt><trkpt lat="43.4959283" lon="12.2951491"><ele>522.0</ele><time>2026-05-01T13:54:46.754Z</time></trkpt><trkpt lat="43.4959162" lon="12.2952909"><ele>522.0</ele><time>2026-05-01T13:54:47.761Z</time></trkpt><trkpt lat="43.495942" lon="12.2954225"><ele>522.0</ele><time>2026-05-01T13:54:48.756Z</time></trkpt><trkpt lat="43.4960028" lon="12.295545"><ele>522.0</ele><time>2026-05-01T13:54:49.755Z</time></trkpt><trkpt lat="43.4960935" lon="12.2956547"><ele>522.0</ele><time>2026-05-01T13:54:50.747Z</time></trkpt><trkpt lat="43.4962145" lon="12.2957479"><ele>525.6666666666666</ele><time>2026-05-01T13:54:51.753Z</time></trkpt><trkpt lat="43.4963553" lon="12.2958645"><ele>529.3333333333333</ele><time>2026-05-01T13:54:52.756Z</time></trkpt><trkpt lat="43.4965088" lon="12.2960023"><ele>533.0</ele><time>2026-05-01T13:54:53.75Z</time></trkpt><trkpt lat="43.4966604" lon="12.296136"><ele>533.0</ele><time>2026-05-01T13:54:54.749Z</time></trkpt><trkpt lat="43.496794" lon="12.296261"><ele>533.0</ele><time>2026-05-01T13:54:55.762Z</time></trkpt><trkpt lat="43.4969277" lon="12.2963778"><ele>533.0</ele><time>2026-05-01T13:54:56.749Z</time></trkpt><trkpt lat="43.4970666" lon="12.2964955"><ele>532.0</ele><time>2026-05-01T13:54:57.76Z</time></trkpt><trkpt lat="43.497367" lon="12.2966587"><ele>531.0</ele><time>2026-05-01T13:54:59.761Z</time></trkpt><trkpt lat="43.497529" lon="12.2967115"><ele>531.0</ele><time>2026-05-01T13:55:00.749Z</time></trkpt><trkpt lat="43.4976868" lon="12.2967558"><ele>531.0</ele><time>2026-05-01T13:55:01.755Z</time></trkpt><trkpt lat="43.4978275" lon="12.2967819"><ele>531.0</ele><time>2026-05-01T13:55:02.749Z</time></trkpt><trkpt lat="43.497963" lon="12.2967843"><ele>531.0</ele><time>2026-05-01T13:55:03.756Z</time></trkpt><trkpt lat="43.4980898" lon="12.2967815"><ele>533.5</ele><time>2026-05-01T13:55:04.756Z</time></trkpt><trkpt lat="43.498206" lon="12.2968097"><ele>536.0</ele><time>2026-05-01T13:55:05.767Z</time></trkpt><trkpt lat="43.4983081" lon="12.2968705"><ele>538.5</ele><time>2026-05-01T13:55:06.751Z</time></trkpt><trkpt lat="43.4983984" lon="12.2969654"><ele>541.0</ele><time>2026-05-01T13:55:07.744Z</time></trkpt><trkpt lat="43.4984767" lon="12.2970774"><ele>541.0</ele><time>2026-05-01T13:55:08.748Z</time></trkpt><trkpt lat="43.4985334" lon="12.2972016"><ele>541.0</ele><time>2026-05-01T13:55:09.752Z</time></trkpt><trkpt lat="43.4985637" lon="12.2973274"><ele>541.0</ele><time>2026-05-01T13:55:10.748Z</time></trkpt><trkpt lat="43.4985605" lon="12.2974648"><ele>541.0</ele><time>2026-05-01T13:55:11.764Z</time></trkpt><trkpt lat="43.4985239" lon="12.297585"><ele>541.0</ele><time>2026-05-01T13:55:12.768Z</time></trkpt><trkpt lat="43.4984489" lon="12.2976831"><ele>539.4</ele><time>2026-05-01T13:55:13.756Z</time></trkpt><trkpt lat="43.498357" lon="12.2977557"><ele>537.8</ele><time>2026-05-01T13:55:14.75Z</time></trkpt><trkpt lat="43.4982629" lon="12.2978228"><ele>536.1999999999999</ele><time>2026-05-01T13:55:15.779Z</time></trkpt><trkpt lat="43.498192" lon="12.2979091"><ele>534.6</ele><time>2026-05-01T13:55:16.768Z</time></trkpt><trkpt lat="43.4981533" lon="12.2980231"><ele>533.0</ele><time>2026-05-01T13:55:17.77Z</time></trkpt><trkpt lat="43.4981999" lon="12.2982663"><ele>533.0</ele><time>2026-05-01T13:55:19.751Z</time></trkpt><trkpt lat="43.4982639" lon="12.2984009"><ele>533.0</ele><time>2026-05-01T13:55:20.749Z</time></trkpt><trkpt lat="43.4983363" lon="12.2985421"><ele>533.0</ele><time>2026-05-01T13:55:21.756Z</time></trkpt><trkpt lat="43.4984027" lon="12.2986795"><ele>533.0</ele><time>2026-05-01T13:55:22.763Z</time></trkpt><trkpt lat="43.4984501" lon="12.2988153"><ele>531.25</ele><time>2026-05-01T13:55:23.757Z</time></trkpt><trkpt lat="43.498504" lon="12.2989462"><ele>529.5</ele><time>2026-05-01T13:55:24.758Z</time></trkpt><trkpt lat="43.4985675" lon="12.2990804"><ele>527.75</ele><time>2026-05-01T13:55:25.767Z</time></trkpt><trkpt lat="43.4986569" lon="12.2992147"><ele>526.0</ele><time>2026-05-01T13:55:26.763Z</time></trkpt><trkpt lat="43.4987731" lon="12.29936"><ele>531.3333333333334</ele><time>2026-05-01T13:55:27.761Z</time></trkpt><trkpt lat="43.498883" lon="12.2995208"><ele>536.6666666666666</ele><time>2026-05-01T13:55:28.746Z</time></trkpt><trkpt lat="43.4989702" lon="12.2997071"><ele>542.0</ele><time>2026-05-01T13:55:29.751Z</time></trkpt><trkpt lat="43.4990256" lon="12.2999103"><ele>542.0</ele><time>2026-05-01T13:55:30.756Z</time></trkpt><trkpt lat="43.4990584" lon="12.3001418"><ele>542.0</ele><time>2026-05-01T13:55:31.749Z</time></trkpt><trkpt lat="43.4990987" lon="12.3003973"><ele>542.0</ele><time>2026-05-01T13:55:32.757Z</time></trkpt><trkpt lat="43.4991665" lon="12.3006593"><ele>539.3333333333333</ele><time>2026-05-01T13:55:33.749Z</time></trkpt><trkpt lat="43.4992365" lon="12.3009298"><ele>536.6666666666666</ele><time>2026-05-01T13:55:34.755Z</time></trkpt><trkpt lat="43.4993" lon="12.3011738"><ele>534.0</ele><time>2026-05-01T13:55:35.76Z</time></trkpt><trkpt lat="43.4993512" lon="12.3013901"><ele>532.0</ele><time>2026-05-01T13:55:36.748Z</time></trkpt><trkpt lat="43.4993889" lon="12.3015935"><ele>530.0</ele><time>2026-05-01T13:55:37.738Z</time></trkpt><trkpt lat="43.4994518" lon="12.3017826"><ele>528.0</ele><time>2026-05-01T13:55:38.762Z</time></trkpt><trkpt lat="43.4996545" lon="12.3021396"><ele>530.3333333333334</ele><time>2026-05-01T13:55:40.765Z</time></trkpt><trkpt lat="43.4997848" lon="12.3022977"><ele>532.6666666666667</ele><time>2026-05-01T13:55:41.756Z</time></trkpt><trkpt lat="43.499915" lon="12.3024161"><ele>535.0</ele><time>2026-05-01T13:55:42.749Z</time></trkpt><trkpt lat="43.5000351" lon="12.3025159"><ele>535.0</ele><time>2026-05-01T13:55:43.744Z</time></trkpt><trkpt lat="43.5001482" lon="12.3025919"><ele>535.0</ele><time>2026-05-01T13:55:44.752Z</time></trkpt><trkpt lat="43.5002563" lon="12.3026387"><ele>535.0</ele><time>2026-05-01T13:55:45.75Z</time></trkpt><trkpt lat="43.5003718" lon="12.3026364"><ele>535.0</ele><time>2026-05-01T13:55:46.754Z</time></trkpt><trkpt lat="43.5004944" lon="12.3025948"><ele>536.25</ele><time>2026-05-01T13:55:47.753Z</time></trkpt><trkpt lat="43.5006185" lon="12.302521"><ele>537.5</ele><time>2026-05-01T13:55:48.755Z</time></trkpt><trkpt lat="43.5007462" lon="12.3024553"><ele>538.75</ele><time>2026-05-01T13:55:49.752Z</time></trkpt><trkpt lat="43.5008738" lon="12.3024377"><ele>540.0</ele><time>2026-05-01T13:55:50.764Z</time></trkpt><trkpt lat="43.5010084" lon="12.302462"><ele>540.0</ele><time>2026-05-01T13:55:51.749Z</time></trkpt><trkpt lat="43.5011415" lon="12.3025266"><ele>540.0</ele><time>2026-05-01T13:55:52.756Z</time></trkpt><trkpt lat="43.5012727" lon="12.3026304"><ele>540.0</ele><time>2026-05-01T13:55:53.752Z</time></trkpt><trkpt lat="43.5014057" lon="12.3027734"><ele>539.6666666666666</ele><time>2026-05-01T13:55:54.75Z</time></trkpt><trkpt lat="43.5015537" lon="12.3029358"><ele>539.3333333333333</ele><time>2026-05-01T13:55:55.757Z</time></trkpt><trkpt lat="43.5017138" lon="12.3030995"><ele>539.0</ele><time>2026-05-01T13:55:56.751Z</time></trkpt><trkpt lat="43.5018755" lon="12.3032549"><ele>539.0</ele><time>2026-05-01T13:55:57.761Z</time></trkpt><trkpt lat="43.5020373" lon="12.3033959"><ele>539.0</ele><time>2026-05-01T13:55:58.75Z</time></trkpt><trkpt lat="43.5022008" lon="12.303532"><ele>539.0</ele><time>2026-05-01T13:55:59.753Z</time></trkpt><trkpt lat="43.5025253" lon="12.3037749"><ele>539.0</ele><time>2026-05-01T13:56:01.753Z</time></trkpt><trkpt lat="43.5026876" lon="12.3038921"><ele>539.0</ele><time>2026-05-01T13:56:02.75Z</time></trkpt><trkpt lat="43.5028429" lon="12.3040022"><ele>539.0</ele><time>2026-05-01T13:56:03.75Z</time></trkpt><trkpt lat="43.5029891" lon="12.3040901"><ele>539.0</ele><time>2026-05-01T13:56:04.75Z</time></trkpt><trkpt lat="43.5031326" lon="12.3041692"><ele>539.0</ele><time>2026-05-01T13:56:05.746Z</time></trkpt><trkpt lat="43.503284" lon="12.3042576"><ele>539.0</ele><time>2026-05-01T13:56:06.745Z</time></trkpt><trkpt lat="43.503426" lon="12.3043599"><ele>539.0</ele><time>2026-05-01T13:56:07.764Z</time></trkpt><trkpt lat="43.5035568" lon="12.3044785"><ele>539.0</ele><time>2026-05-01T13:56:08.745Z</time></trkpt><trkpt lat="43.5036694" lon="12.3046203"><ele>539.0</ele><time>2026-05-01T13:56:09.752Z</time></trkpt><trkpt lat="43.5037532" lon="12.3047791"><ele>539.75</ele><time>2026-05-01T13:56:10.747Z</time></trkpt><trkpt lat="43.5038147" lon="12.3049574"><ele>540.5</ele><time>2026-05-01T13:56:11.76Z</time></trkpt><trkpt lat="43.5038568" lon="12.3051386"><ele>541.25</ele><time>2026-05-01T13:56:12.77Z</time></trkpt><trkpt lat="43.5038887" lon="12.3053214"><ele>542.0</ele><time>2026-05-01T13:56:13.761Z</time></trkpt><trkpt lat="43.5039154" lon="12.3055153"><ele>542.0</ele><time>2026-05-01T13:56:14.773Z</time></trkpt><trkpt lat="43.503939" lon="12.3057088"><ele>542.0</ele><time>2026-05-01T13:56:15.755Z</time></trkpt><trkpt lat="43.5039585" lon="12.3059095"><ele>542.0</ele><time>2026-05-01T13:56:16.756Z</time></trkpt><trkpt lat="43.5039818" lon="12.3061049"><ele>542.0</ele><time>2026-05-01T13:56:17.762Z</time></trkpt><trkpt lat="43.5039965" lon="12.3063131"><ele>543.6666666666666</ele><time>2026-05-01T13:56:18.75Z</time></trkpt><trkpt lat="43.5040112" lon="12.3065181"><ele>545.3333333333334</ele><time>2026-05-01T13:56:19.759Z</time></trkpt><trkpt lat="43.5040253" lon="12.3067299"><ele>547.0</ele><time>2026-05-01T13:56:20.746Z</time></trkpt><trkpt lat="43.5040581" lon="12.3071152"><ele>548.25</ele><time>2026-05-01T13:56:22.747Z</time></trkpt><trkpt lat="43.5041023" lon="12.3072931"><ele>549.5</ele><time>2026-05-01T13:56:23.762Z</time></trkpt><trkpt lat="43.5041685" lon="12.3074627"><ele>550.75</ele><time>2026-05-01T13:56:24.755Z</time></trkpt><trkpt lat="43.5042575" lon="12.3076223"><ele>552.0</ele><time>2026-05-01T13:56:25.751Z</time></trkpt><trkpt lat="43.5043675" lon="12.3077695"><ele>552.0</ele><time>2026-05-01T13:56:26.747Z</time></trkpt><trkpt lat="43.5045009" lon="12.3079239"><ele>552.0</ele><time>2026-05-01T13:56:27.757Z</time></trkpt><trkpt lat="43.5046514" lon="12.3080957"><ele>552.0</ele><time>2026-05-01T13:56:28.754Z</time></trkpt><trkpt lat="43.5048064" lon="12.3082791"><ele>554.3333333333334</ele><time>2026-05-01T13:56:29.757Z</time></trkpt><trkpt lat="43.5049567" lon="12.3084594"><ele>556.6666666666667</ele><time>2026-05-01T13:56:30.761Z</time></trkpt><trkpt lat="43.5051081" lon="12.3086378"><ele>559.0</ele><time>2026-05-01T13:56:31.753Z</time></trkpt><trkpt lat="43.505248" lon="12.3088008"><ele>559.6666666666667</ele><time>2026-05-01T13:56:32.752Z</time></trkpt><trkpt lat="43.5053729" lon="12.3089594"><ele>560.3333333333334</ele><time>2026-05-01T13:56:33.765Z</time></trkpt><trkpt lat="43.5054805" lon="12.3091142"><ele>561.0</ele><time>2026-05-01T13:56:34.75Z</time></trkpt><trkpt lat="43.5055565" lon="12.3092775"><ele>561.0</ele><time>2026-05-01T13:56:35.758Z</time></trkpt><trkpt lat="43.5056068" lon="12.3094597"><ele>561.0</ele><time>2026-05-01T13:56:36.749Z</time></trkpt><trkpt lat="43.5056288" lon="12.3096594"><ele>561.0</ele><time>2026-05-01T13:56:37.751Z</time></trkpt><trkpt lat="43.5056257" lon="12.3098618"><ele>561.0</ele><time>2026-05-01T13:56:38.75Z</time></trkpt><trkpt lat="43.5056165" lon="12.3100647"><ele>563.3333333333334</ele><time>2026-05-01T13:56:39.753Z</time></trkpt><trkpt lat="43.505639" lon="12.3102622"><ele>565.6666666666667</ele><time>2026-05-01T13:56:40.75Z</time></trkpt><trkpt lat="43.5056961" lon="12.3104454"><ele>568.0</ele><time>2026-05-01T13:56:41.754Z</time></trkpt><trkpt lat="43.5058958" lon="12.3107964"><ele>568.0</ele><time>2026-05-01T13:56:43.749Z</time></trkpt><trkpt lat="43.5060093" lon="12.3109904"><ele>568.0</ele><time>2026-05-01T13:56:44.752Z</time></trkpt><trkpt lat="43.506102" lon="12.3111834"><ele>568.0</ele><time>2026-05-01T13:56:45.756Z</time></trkpt><trkpt lat="43.5061791" lon="12.3113736"><ele>568.3333333333334</ele><time>2026-05-01T13:56:46.745Z</time></trkpt><trkpt lat="43.5062409" lon="12.3115761"><ele>568.6666666666666</ele><time>2026-05-01T13:56:47.751Z</time></trkpt><trkpt lat="43.5062835" lon="12.3117924"><ele>569.0</ele><time>2026-05-01T13:56:48.753Z</time></trkpt><trkpt lat="43.5063268" lon="12.312001"><ele>571.0</ele><time>2026-05-01T13:56:49.752Z</time></trkpt><trkpt lat="43.5063961" lon="12.3122051"><ele>573.0</ele><time>2026-05-01T13:56:50.741Z</time></trkpt><trkpt lat="43.5064807" lon="12.3124045"><ele>575.0</ele><time>2026-05-01T13:56:51.745Z</time></trkpt><trkpt lat="43.5065751" lon="12.3125834"><ele>575.0</ele><time>2026-05-01T13:56:52.749Z</time></trkpt><trkpt lat="43.5066811" lon="12.3127598"><ele>575.0</ele><time>2026-05-01T13:56:53.76Z</time></trkpt><trkpt lat="43.5067817" lon="12.3129358"><ele>575.0</ele><time>2026-05-01T13:56:54.75Z</time></trkpt><trkpt lat="43.5068818" lon="12.3131126"><ele>573.75</ele><time>2026-05-01T13:56:55.751Z</time></trkpt><trkpt lat="43.5069735" lon="12.3132893"><ele>572.5</ele><time>2026-05-01T13:56:56.758Z</time></trkpt><trkpt lat="43.5070443" lon="12.3134552"><ele>571.25</ele><time>2026-05-01T13:56:57.765Z</time></trkpt><trkpt lat="43.5070917" lon="12.3136447"><ele>570.0</ele><time>2026-05-01T13:56:58.76Z</time></trkpt><trkpt lat="43.5071242" lon="12.3138545"><ele>574.3333333333334</ele><time>2026-05-01T13:56:59.753Z</time></trkpt><trkpt lat="43.5071353" lon="12.3140784"><ele>578.6666666666667</ele><time>2026-05-01T13:57:00.754Z</time></trkpt><trkpt lat="43.5071395" lon="12.3143259"><ele>583.0</ele><time>2026-05-01T13:57:01.766Z</time></trkpt><trkpt lat="43.5071453" lon="12.3145844"><ele>585.5</ele><time>2026-05-01T13:57:02.747Z</time></trkpt><trkpt lat="43.5071587" lon="12.3150863"><ele>588.0</ele><time>2026-05-01T13:57:04.772Z</time></trkpt><trkpt lat="43.5071594" lon="12.3153125"><ele>588.0</ele><time>2026-05-01T13:57:05.76Z</time></trkpt><trkpt lat="43.5071468" lon="12.3155178"><ele>588.0</ele><time>2026-05-01T13:57:06.749Z</time></trkpt><trkpt lat="43.5071212" lon="12.3157027"><ele>588.0</ele><time>2026-05-01T13:57:07.754Z</time></trkpt><trkpt lat="43.5071099" lon="12.3158638"><ele>588.0</ele><time>2026-05-01T13:57:08.755Z</time></trkpt><trkpt lat="43.507122" lon="12.3160213"><ele>588.5</ele><time>2026-05-01T13:57:09.762Z</time></trkpt><trkpt lat="43.5071738" lon="12.3161652"><ele>589.0</ele><time>2026-05-01T13:57:10.757Z</time></trkpt><trkpt lat="43.5072587" lon="12.3162998"><ele>589.5</ele><time>2026-05-01T13:57:11.752Z</time></trkpt><trkpt lat="43.5073518" lon="12.3164392"><ele>590.0</ele><time>2026-05-01T13:57:12.758Z</time></trkpt><trkpt lat="43.5074314" lon="12.3165883"><ele>590.5</ele><time>2026-05-01T13:57:13.751Z</time></trkpt><trkpt lat="43.5074949" lon="12.316767"><ele>591.0</ele><time>2026-05-01T13:57:14.764Z</time></trkpt><trkpt lat="43.507534" lon="12.3169484"><ele>591.5</ele><time>2026-05-01T13:57:15.762Z</time></trkpt><trkpt lat="43.5075557" lon="12.3171154"><ele>592.0</ele><time>2026-05-01T13:57:16.764Z</time></trkpt><trkpt lat="43.5075638" lon="12.3172667"><ele>592.0</ele><time>2026-05-01T13:57:17.762Z</time></trkpt><trkpt lat="43.5075353" lon="12.3174066"><ele>592.0</ele><time>2026-05-01T13:57:18.766Z</time></trkpt><trkpt lat="43.5074789" lon="12.3175223"><ele>592.0</ele><time>2026-05-01T13:57:19.756Z</time></trkpt><trkpt lat="43.5074016" lon="12.3176181"><ele>592.0</ele><time>2026-05-01T13:57:20.762Z</time></trkpt><trkpt lat="43.5073177" lon="12.3176779"><ele>592.0</ele><time>2026-05-01T13:57:21.758Z</time></trkpt><trkpt lat="43.5072291" lon="12.3177119"><ele>592.0</ele><time>2026-05-01T13:57:22.762Z</time></trkpt><trkpt lat="43.5071264" lon="12.3177102"><ele>592.0</ele><time>2026-05-01T13:57:23.753Z</time></trkpt><trkpt lat="43.5069123" lon="12.3176248"><ele>592.0</ele><time>2026-05-01T13:57:25.769Z</time></trkpt><trkpt lat="43.5068012" lon="12.3175628"><ele>592.0</ele><time>2026-05-01T13:57:26.764Z</time></trkpt><trkpt lat="43.5066901" lon="12.3175052"><ele>592.0</ele><time>2026-05-01T13:57:27.764Z</time></trkpt><trkpt lat="43.5065727" lon="12.3174728"><ele>592.0</ele><time>2026-05-01T13:57:28.764Z</time></trkpt><trkpt lat="43.5064502" lon="12.3174904"><ele>592.0</ele><time>2026-05-01T13:57:29.768Z</time></trkpt><trkpt lat="43.5063335" lon="12.317529"><ele>592.0</ele><time>2026-05-01T13:57:30.759Z</time></trkpt><trkpt lat="43.5062265" lon="12.3175992"><ele>592.0</ele><time>2026-05-01T13:57:31.771Z</time></trkpt><trkpt lat="43.5061327" lon="12.3176981"><ele>592.0</ele><time>2026-05-01T13:57:32.761Z</time></trkpt><trkpt lat="43.5060541" lon="12.3178282"><ele>592.0</ele><time>2026-05-01T13:57:33.766Z</time></trkpt><trkpt lat="43.5059956" lon="12.3179815"><ele>592.0</ele><time>2026-05-01T13:57:34.752Z</time></trkpt><trkpt lat="43.505947" lon="12.3181268"><ele>595.0</ele><time>2026-05-01T13:57:35.759Z</time></trkpt><trkpt lat="43.5058878" lon="12.3182442"><ele>598.0</ele><time>2026-05-01T13:57:36.753Z</time></trkpt><trkpt lat="43.5058025" lon="12.3183148"><ele>601.0</ele><time>2026-05-01T13:57:37.759Z</time></trkpt><trkpt lat="43.5057048" lon="12.3183492"><ele>604.0</ele><time>2026-05-01T13:57:38.752Z</time></trkpt><trkpt lat="43.5055954" lon="12.3183431"><ele>607.0</ele><time>2026-05-01T13:57:39.759Z</time></trkpt><trkpt lat="43.5054719" lon="12.3183108"><ele>606.75</ele><time>2026-05-01T13:57:40.773Z</time></trkpt><trkpt lat="43.5053465" lon="12.3182907"><ele>606.5</ele><time>2026-05-01T13:57:41.764Z</time></trkpt><trkpt lat="43.5052304" lon="12.3182684"><ele>606.25</ele><time>2026-05-01T13:57:42.762Z</time></trkpt><trkpt lat="43.5051249" lon="12.3182805"><ele>606.0</ele><time>2026-05-01T13:57:43.765Z</time></trkpt><trkpt lat="43.5050196" lon="12.318325"><ele>606.0</ele><time>2026-05-01T13:57:44.756Z</time></trkpt><trkpt lat="43.5048644" lon="12.3185601"><ele>606.0</ele><time>2026-05-01T13:57:46.753Z</time></trkpt><trkpt lat="43.504817" lon="12.3187237"><ele>606.0</ele><time>2026-05-01T13:57:47.758Z</time></trkpt><trkpt lat="43.5047987" lon="12.3189069"><ele>608.0</ele><time>2026-05-01T13:57:48.757Z</time></trkpt><trkpt lat="43.5047956" lon="12.3191131"><ele>610.0</ele><time>2026-05-01T13:57:49.75Z</time></trkpt><trkpt lat="43.504789" lon="12.319322"><ele>612.0</ele><time>2026-05-01T13:57:50.751Z</time></trkpt><trkpt lat="43.504788" lon="12.3195139"><ele>614.0</ele><time>2026-05-01T13:57:51.756Z</time></trkpt><trkpt lat="43.5048077" lon="12.3197137"><ele>614.3333333333333</ele><time>2026-05-01T13:57:52.757Z</time></trkpt><trkpt lat="43.504875" lon="12.3198945"><ele>614.6666666666666</ele><time>2026-05-01T13:57:53.753Z</time></trkpt><trkpt lat="43.5049618" lon="12.3200819"><ele>615.0</ele><time>2026-05-01T13:57:54.758Z</time></trkpt><trkpt lat="43.5050488" lon="12.3202645"><ele>615.0</ele><time>2026-05-01T13:57:55.748Z</time></trkpt><trkpt lat="43.5051052" lon="12.3204648"><ele>615.0</ele><time>2026-05-01T13:57:56.747Z</time></trkpt><trkpt lat="43.5051278" lon="12.3206633"><ele>615.0</ele><time>2026-05-01T13:57:57.753Z</time></trkpt><trkpt lat="43.5051348" lon="12.3208596"><ele>615.0</ele><time>2026-05-01T13:57:58.752Z</time></trkpt><trkpt lat="43.5051558" lon="12.3210615"><ele>615.25</ele><time>2026-05-01T13:57:59.757Z</time></trkpt><trkpt lat="43.5052067" lon="12.3212396"><ele>615.5</ele><time>2026-05-01T13:58:00.75Z</time></trkpt><trkpt lat="43.5052849" lon="12.3214073"><ele>615.75</ele><time>2026-05-01T13:58:01.748Z</time></trkpt><trkpt lat="43.5053919" lon="12.3215625"><ele>616.0</ele><time>2026-05-01T13:58:02.748Z</time></trkpt><trkpt lat="43.5055328" lon="12.3217096"><ele>619.6666666666667</ele><time>2026-05-01T13:58:03.757Z</time></trkpt><trkpt lat="43.5056963" lon="12.3218471"><ele>623.3333333333334</ele><time>2026-05-01T13:58:04.755Z</time></trkpt><trkpt lat="43.5058791" lon="12.3219762"><ele>627.0</ele><time>2026-05-01T13:58:05.748Z</time></trkpt><trkpt lat="43.5062507" lon="12.3222427"><ele>627.3333333333334</ele><time>2026-05-01T13:58:07.753Z</time></trkpt><trkpt lat="43.5064192" lon="12.3223582"><ele>627.6666666666667</ele><time>2026-05-01T13:58:08.749Z</time></trkpt><trkpt lat="43.5065778" lon="12.3224692"><ele>628.0</ele><time>2026-05-01T13:58:09.753Z</time></trkpt><trkpt lat="43.5067274" lon="12.3225866"><ele>628.0</ele><time>2026-05-01T13:58:10.751Z</time></trkpt><trkpt lat="43.5068635" lon="12.3227112"><ele>628.0</ele><time>2026-05-01T13:58:11.753Z</time></trkpt><trkpt lat="43.5069864" lon="12.3228647"><ele>628.0</ele><time>2026-05-01T13:58:12.754Z</time></trkpt><trkpt lat="43.5070914" lon="12.3230238"><ele>630.0</ele><time>2026-05-01T13:58:13.755Z</time></trkpt><trkpt lat="43.5071871" lon="12.3231831"><ele>632.0</ele><time>2026-05-01T13:58:14.754Z</time></trkpt><trkpt lat="43.5072837" lon="12.3233364"><ele>634.0</ele><time>2026-05-01T13:58:15.756Z</time></trkpt><trkpt lat="43.5073718" lon="12.3234852"><ele>636.0</ele><time>2026-05-01T13:58:16.753Z</time></trkpt><trkpt lat="43.5074534" lon="12.3236184"><ele>636.0</ele><time>2026-05-01T13:58:17.751Z</time></trkpt><trkpt lat="43.5075342" lon="12.323746"><ele>636.0</ele><time>2026-05-01T13:58:18.768Z</time></trkpt><trkpt lat="43.507617" lon="12.3238698"><ele>636.0</ele><time>2026-05-01T13:58:19.76Z</time></trkpt><trkpt lat="43.5076938" lon="12.3239816"><ele>636.0</ele><time>2026-05-01T13:58:20.759Z</time></trkpt><trkpt lat="43.5077727" lon="12.3240889"><ele>634.0</ele><time>2026-05-01T13:58:21.751Z</time></trkpt><trkpt lat="43.5078563" lon="12.3241899"><ele>632.0</ele><time>2026-05-01T13:58:22.768Z</time></trkpt><trkpt lat="43.5079388" lon="12.3242701"><ele>630.0</ele><time>2026-05-01T13:58:23.757Z</time></trkpt><trkpt lat="43.5080216" lon="12.3243415"><ele>628.0</ele><time>2026-05-01T13:58:24.752Z</time></trkpt><trkpt lat="43.5081194" lon="12.3244084"><ele>626.0</ele><time>2026-05-01T13:58:25.759Z</time></trkpt><trkpt lat="43.5082292" lon="12.3244819"><ele>627.6666666666666</ele><time>2026-05-01T13:58:26.754Z</time></trkpt><trkpt lat="43.508454" lon="12.324638"><ele>629.3333333333334</ele><time>2026-05-01T13:58:28.75Z</time></trkpt><trkpt lat="43.508556" lon="12.3247057"><ele>631.0</ele><time>2026-05-01T13:58:29.752Z</time></trkpt><trkpt lat="43.5086549" lon="12.3247791"><ele>635.25</ele><time>2026-05-01T13:58:30.748Z</time></trkpt><trkpt lat="43.5087538" lon="12.3248575"><ele>639.5</ele><time>2026-05-01T13:58:31.751Z</time></trkpt><trkpt lat="43.5088513" lon="12.3249544"><ele>643.75</ele><time>2026-05-01T13:58:32.756Z</time></trkpt><trkpt lat="43.5089422" lon="12.3250709"><ele>648.0</ele><time>2026-05-01T13:58:33.744Z</time></trkpt><trkpt lat="43.5090237" lon="12.3251926"><ele>648.0</ele><time>2026-05-01T13:58:34.751Z</time></trkpt><trkpt lat="43.5090958" lon="12.3253139"><ele>648.0</ele><time>2026-05-01T13:58:35.749Z</time></trkpt><trkpt lat="43.5091663" lon="12.3254288"><ele>648.0</ele><time>2026-05-01T13:58:36.752Z</time></trkpt><trkpt lat="43.5092371" lon="12.3255347"><ele>648.0</ele><time>2026-05-01T13:58:37.764Z</time></trkpt><trkpt lat="43.5093152" lon="12.3256132"><ele>648.0</ele><time>2026-05-01T13:58:38.758Z</time></trkpt><trkpt lat="43.5094041" lon="12.3256858"><ele>648.5</ele><time>2026-05-01T13:58:39.759Z</time></trkpt><trkpt lat="43.5095088" lon="12.3257381"><ele>649.0</ele><time>2026-05-01T13:58:40.749Z</time></trkpt><trkpt lat="43.5096367" lon="12.3257668"><ele>649.5</ele><time>2026-05-01T13:58:41.746Z</time></trkpt><trkpt lat="43.5097828" lon="12.3257734"><ele>650.0</ele><time>2026-05-01T13:58:42.749Z</time></trkpt><trkpt lat="43.5099563" lon="12.3257755"><ele>650.0</ele><time>2026-05-01T13:58:43.751Z</time></trkpt><trkpt lat="43.5101358" lon="12.3257892"><ele>650.0</ele><time>2026-05-01T13:58:44.741Z</time></trkpt><trkpt lat="43.5102901" lon="12.3258062"><ele>650.0</ele><time>2026-05-01T13:58:45.746Z</time></trkpt><trkpt lat="43.5104218" lon="12.3258542"><ele>651.0</ele><time>2026-05-01T13:58:46.749Z</time></trkpt><trkpt lat="43.5105229" lon="12.325926"><ele>652.0</ele><time>2026-05-01T13:58:47.742Z</time></trkpt><trkpt lat="43.5106182" lon="12.3261584"><ele>653.0</ele><time>2026-05-01T13:58:49.753Z</time></trkpt><trkpt lat="43.5106228" lon="12.3263093"><ele>654.0</ele><time>2026-05-01T13:58:50.754Z</time></trkpt><trkpt lat="43.5105824" lon="12.3264547"><ele>655.3333333333334</ele><time>2026-05-01T13:58:51.751Z</time></trkpt><trkpt lat="43.5105011" lon="12.3266095"><ele>656.6666666666667</ele><time>2026-05-01T13:58:52.748Z</time></trkpt><trkpt lat="43.5104031" lon="12.3267738"><ele>658.0</ele><time>2026-05-01T13:58:53.75Z</time></trkpt><trkpt lat="43.5102872" lon="12.326972"><ele>658.3333333333334</ele><time>2026-05-01T13:58:54.752Z</time></trkpt><trkpt lat="43.5101748" lon="12.3271718"><ele>658.6666666666666</ele><time>2026-05-01T13:58:55.76Z</time></trkpt><trkpt lat="43.5100577" lon="12.3273414"><ele>659.0</ele><time>2026-05-01T13:58:56.754Z</time></trkpt><trkpt lat="43.5099474" lon="12.3274565"><ele>659.0</ele><time>2026-05-01T13:58:57.759Z</time></trkpt><trkpt lat="43.5098195" lon="12.3275246"><ele>659.0</ele><time>2026-05-01T13:58:58.755Z</time></trkpt><trkpt lat="43.509681" lon="12.3275581"><ele>659.0</ele><time>2026-05-01T13:58:59.767Z</time></trkpt><trkpt lat="43.5095203" lon="12.3275843"><ele>659.0</ele><time>2026-05-01T13:59:00.754Z</time></trkpt><trkpt lat="43.5093473" lon="12.3276024"><ele>657.5</ele><time>2026-05-01T13:59:01.756Z</time></trkpt><trkpt lat="43.5091876" lon="12.3276274"><ele>656.0</ele><time>2026-05-01T13:59:02.752Z</time></trkpt><trkpt lat="43.5090448" lon="12.3276662"><ele>654.5</ele><time>2026-05-01T13:59:03.779Z</time></trkpt><trkpt lat="43.5089246" lon="12.327732"><ele>653.0</ele><time>2026-05-01T13:59:04.77Z</time></trkpt><trkpt lat="43.5088198" lon="12.3278351"><ele>653.6666666666666</ele><time>2026-05-01T13:59:05.751Z</time></trkpt><trkpt lat="43.5087402" lon="12.3279709"><ele>654.3333333333334</ele><time>2026-05-01T13:59:06.76Z</time></trkpt><trkpt lat="43.5086931" lon="12.3281333"><ele>655.0</ele><time>2026-05-01T13:59:07.761Z</time></trkpt><trkpt lat="43.5086733" lon="12.3285204"><ele>655.0</ele><time>2026-05-01T13:59:09.768Z</time></trkpt><trkpt lat="43.5087198" lon="12.3287084"><ele>655.0</ele><time>2026-05-01T13:59:10.749Z</time></trkpt><trkpt lat="43.5087758" lon="12.3288826"><ele>655.0</ele><time>2026-05-01T13:59:11.748Z</time></trkpt><trkpt lat="43.5088463" lon="12.3290354"><ele>655.0</ele><time>2026-05-01T13:59:12.755Z</time></trkpt><trkpt lat="43.5089359" lon="12.329159"><ele>657.75</ele><time>2026-05-01T13:59:13.759Z</time></trkpt><trkpt lat="43.5090433" lon="12.3292496"><ele>660.5</ele><time>2026-05-01T13:59:14.749Z</time></trkpt><trkpt lat="43.5091669" lon="12.3292972"><ele>663.25</ele><time>2026-05-01T13:59:15.757Z</time></trkpt><trkpt lat="43.5093017" lon="12.3293015"><ele>666.0</ele><time>2026-05-01T13:59:16.761Z</time></trkpt><trkpt lat="43.509436" lon="12.3292811"><ele>666.0</ele><time>2026-05-01T13:59:17.749Z</time></trkpt><trkpt lat="43.5095751" lon="12.3291882"><ele>666.0</ele><time>2026-05-01T13:59:18.748Z</time></trkpt><trkpt lat="43.5097184" lon="12.3290707"><ele>666.0</ele><time>2026-05-01T13:59:19.761Z</time></trkpt><trkpt lat="43.5098741" lon="12.3289265"><ele>666.0</ele><time>2026-05-01T13:59:20.758Z</time></trkpt><trkpt lat="43.5100349" lon="12.3287741"><ele>666.0</ele><time>2026-05-01T13:59:21.755Z</time></trkpt><trkpt lat="43.5101865" lon="12.3286628"><ele>666.0</ele><time>2026-05-01T13:59:22.762Z</time></trkpt><trkpt lat="43.5103226" lon="12.3285696"><ele>665.3333333333334</ele><time>2026-05-01T13:59:23.774Z</time></trkpt><trkpt lat="43.5104555" lon="12.3284974"><ele>664.6666666666667</ele><time>2026-05-01T13:59:24.758Z</time></trkpt><trkpt lat="43.5106062" lon="12.3284575"><ele>664.0</ele><time>2026-05-01T13:59:25.784Z</time></trkpt><trkpt lat="43.5107594" lon="12.3284712"><ele>664.0</ele><time>2026-05-01T13:59:26.755Z</time></trkpt><trkpt lat="43.5109136" lon="12.3285157"><ele>664.0</ele><time>2026-05-01T13:59:27.757Z</time></trkpt><trkpt lat="43.5110716" lon="12.3285764"><ele>664.0</ele><time>2026-05-01T13:59:28.763Z</time></trkpt><trkpt lat="43.5114229" lon="12.328684"><ele>668.3333333333334</ele><time>2026-05-01T13:59:30.746Z</time></trkpt><trkpt lat="43.5116023" lon="12.3287312"><ele>672.6666666666666</ele><time>2026-05-01T13:59:31.759Z</time></trkpt><trkpt lat="43.511769" lon="12.3287759"><ele>677.0</ele><time>2026-05-01T13:59:32.758Z</time></trkpt><trkpt lat="43.5119297" lon="12.3288161"><ele>675.5</ele><time>2026-05-01T13:59:33.76Z</time></trkpt><trkpt lat="43.5120779" lon="12.3288593"><ele>674.0</ele><time>2026-05-01T13:59:34.733Z</time></trkpt><trkpt lat="43.512207" lon="12.3288965"><ele>672.5</ele><time>2026-05-01T13:59:35.748Z</time></trkpt><trkpt lat="43.5123199" lon="12.3289498"><ele>671.0</ele><time>2026-05-01T13:59:36.753Z</time></trkpt><trkpt lat="43.5124229" lon="12.3290294"><ele>671.0</ele><time>2026-05-01T13:59:37.755Z</time></trkpt><trkpt lat="43.5125134" lon="12.3291575"><ele>671.0</ele><time>2026-05-01T13:59:38.746Z</time></trkpt><trkpt lat="43.5125835" lon="12.3293209"><ele>671.0</ele><time>2026-05-01T13:59:39.751Z</time></trkpt><trkpt lat="43.5126206" lon="12.3295006"><ele>671.0</ele><time>2026-05-01T13:59:40.752Z</time></trkpt><trkpt lat="43.5126247" lon="12.3296841"><ele>668.75</ele><time>2026-05-01T13:59:41.752Z</time></trkpt><trkpt lat="43.5126036" lon="12.3298608"><ele>666.5</ele><time>2026-05-01T13:59:42.748Z</time></trkpt><trkpt lat="43.5125958" lon="12.3300247"><ele>664.25</ele><time>2026-05-01T13:59:43.765Z</time></trkpt><trkpt lat="43.5126149" lon="12.3301664"><ele>662.0</ele><time>2026-05-01T13:59:44.751Z</time></trkpt><trkpt lat="43.5126635" lon="12.3302877"><ele>662.0</ele><time>2026-05-01T13:59:45.757Z</time></trkpt><trkpt lat="43.5127427" lon="12.3303893"><ele>662.0</ele><time>2026-05-01T13:59:46.754Z</time></trkpt><trkpt lat="43.5128488" lon="12.330448"><ele>662.0</ele><time>2026-05-01T13:59:47.747Z</time></trkpt><trkpt lat="43.5129659" lon="12.3304839"><ele>662.0</ele><time>2026-05-01T13:59:48.753Z</time></trkpt><trkpt lat="43.5131038" lon="12.3304978"><ele>664.3333333333333</ele><time>2026-05-01T13:59:49.754Z</time></trkpt><trkpt lat="43.5133993" lon="12.330536"><ele>666.6666666666666</ele><time>2026-05-01T13:59:51.768Z</time></trkpt><trkpt lat="43.5135229" lon="12.3306075"><ele>669.0</ele><time>2026-05-01T13:59:52.745Z</time></trkpt><trkpt lat="43.5136218" lon="12.330707"><ele>669.0</ele><time>2026-05-01T13:59:53.755Z</time></trkpt><trkpt lat="43.5136839" lon="12.330855"><ele>669.0</ele><time>2026-05-01T13:59:54.742Z</time></trkpt><trkpt lat="43.5137081" lon="12.3310186"><ele>669.0</ele><time>2026-05-01T13:59:55.752Z</time></trkpt><trkpt lat="43.5137071" lon="12.3311948"><ele>669.0</ele><time>2026-05-01T13:59:56.749Z</time></trkpt><trkpt lat="43.5137214" lon="12.3313544"><ele>670.2</ele><time>2026-05-01T13:59:57.757Z</time></trkpt><trkpt lat="43.5137568" lon="12.331484"><ele>671.4000000000001</ele><time>2026-05-01T13:59:58.748Z</time></trkpt><trkpt lat="43.5138288" lon="12.3315995"><ele>672.6</ele><time>2026-05-01T13:59:59.757Z</time></trkpt><trkpt lat="43.5139191" lon="12.3316687"><ele>673.8</ele><time>2026-05-01T14:00:00.755Z</time></trkpt><trkpt lat="43.514025" lon="12.3316848"><ele>675.0</ele><time>2026-05-01T14:00:01.745Z</time></trkpt><trkpt lat="43.5141454" lon="12.3316688"><ele>675.0</ele><time>2026-05-01T14:00:02.742Z</time></trkpt><trkpt lat="43.51427" lon="12.3316286"><ele>675.0</ele><time>2026-05-01T14:00:03.756Z</time></trkpt><trkpt lat="43.5143931" lon="12.3315436"><ele>675.0</ele><time>2026-05-01T14:00:04.75Z</time></trkpt><trkpt lat="43.514511" lon="12.3314528"><ele>675.0</ele><time>2026-05-01T14:00:05.75Z</time></trkpt><trkpt lat="43.5146354" lon="12.331391"><ele>678.5</ele><time>2026-05-01T14:00:06.765Z</time></trkpt><trkpt lat="43.5147703" lon="12.3313741"><ele>682.0</ele><time>2026-05-01T14:00:07.775Z</time></trkpt><trkpt lat="43.5148922" lon="12.3314238"><ele>685.5</ele><time>2026-05-01T14:00:08.762Z</time></trkpt><trkpt lat="43.5150016" lon="12.331518"><ele>689.0</ele><time>2026-05-01T14:00:09.744Z</time></trkpt><trkpt lat="43.5150995" lon="12.3316616"><ele>689.0</ele><time>2026-05-01T14:00:10.75Z</time></trkpt><trkpt lat="43.5152861" lon="12.3320337"><ele>689.0</ele><time>2026-05-01T14:00:12.753Z</time></trkpt><trkpt lat="43.515379" lon="12.3322093"><ele>692.25</ele><time>2026-05-01T14:00:13.752Z</time></trkpt><trkpt lat="43.5154752" lon="12.3323824"><ele>695.5</ele><time>2026-05-01T14:00:14.752Z</time></trkpt><trkpt lat="43.5155773" lon="12.3325331"><ele>698.75</ele><time>2026-05-01T14:00:15.752Z</time></trkpt><trkpt lat="43.5156696" lon="12.3326681"><ele>702.0</ele><time>2026-05-01T14:00:16.744Z</time></trkpt><trkpt lat="43.5157523" lon="12.3327992"><ele>702.0</ele><time>2026-05-01T14:00:17.749Z</time></trkpt><trkpt lat="43.5158019" lon="12.3329472"><ele>702.0</ele><time>2026-05-01T14:00:18.745Z</time></trkpt><trkpt lat="43.5158133" lon="12.3330915"><ele>702.0</ele><time>2026-05-01T14:00:19.749Z</time></trkpt><trkpt lat="43.5157848" lon="12.3332298"><ele>702.0</ele><time>2026-05-01T14:00:20.754Z</time></trkpt><trkpt lat="43.5157211" lon="12.3333392"><ele>702.0</ele><time>2026-05-01T14:00:21.745Z</time></trkpt><trkpt lat="43.5156263" lon="12.3334363"><ele>699.25</ele><time>2026-05-01T14:00:22.747Z</time></trkpt><trkpt lat="43.5155139" lon="12.3335309"><ele>696.5</ele><time>2026-05-01T14:00:23.751Z</time></trkpt><trkpt lat="43.5154194" lon="12.3336342"><ele>693.75</ele><time>2026-05-01T14:00:24.765Z</time></trkpt><trkpt lat="43.5153549" lon="12.3337653"><ele>691.0</ele><time>2026-05-01T14:00:25.746Z</time></trkpt><trkpt lat="43.5153231" lon="12.333924"><ele>690.8</ele><time>2026-05-01T14:00:26.755Z</time></trkpt><trkpt lat="43.5153315" lon="12.3340752"><ele>690.5999999999999</ele><time>2026-05-01T14:00:27.753Z</time></trkpt><trkpt lat="43.5153678" lon="12.3342037"><ele>690.4</ele><time>2026-05-01T14:00:28.759Z</time></trkpt><trkpt lat="43.5154429" lon="12.3342985"><ele>690.2</ele><time>2026-05-01T14:00:29.754Z</time></trkpt><trkpt lat="43.5155388" lon="12.3343649"><ele>690.0</ele><time>2026-05-01T14:00:30.741Z</time></trkpt><trkpt lat="43.5156533" lon="12.3344127"><ele>690.0</ele><time>2026-05-01T14:00:31.753Z</time></trkpt><trkpt lat="43.5158908" lon="12.3344837"><ele>690.0</ele><time>2026-05-01T14:00:33.754Z</time></trkpt><trkpt lat="43.5159965" lon="12.3345184"><ele>690.0</ele><time>2026-05-01T14:00:34.748Z</time></trkpt><trkpt lat="43.5161039" lon="12.3345527"><ele>690.0</ele><time>2026-05-01T14:00:35.744Z</time></trkpt><trkpt lat="43.5162198" lon="12.3345831"><ele>690.0</ele><time>2026-05-01T14:00:36.749Z</time></trkpt><trkpt lat="43.5163394" lon="12.3346207"><ele>690.0</ele><time>2026-05-01T14:00:37.75Z</time></trkpt><trkpt lat="43.5164738" lon="12.3346559"><ele>690.0</ele><time>2026-05-01T14:00:38.747Z</time></trkpt><trkpt lat="43.5166241" lon="12.3346971"><ele>691.0</ele><time>2026-05-01T14:00:39.756Z</time></trkpt><trkpt lat="43.5167794" lon="12.3347451"><ele>692.0</ele><time>2026-05-01T14:00:40.752Z</time></trkpt><trkpt lat="43.5169342" lon="12.3347986"><ele>693.0</ele><time>2026-05-01T14:00:41.748Z</time></trkpt><trkpt lat="43.5170812" lon="12.3348553"><ele>693.0</ele><time>2026-05-01T14:00:42.749Z</time></trkpt><trkpt lat="43.5172255" lon="12.3349239"><ele>693.0</ele><time>2026-05-01T14:00:43.751Z</time></trkpt><trkpt lat="43.5173693" lon="12.3349897"><ele>693.0</ele><time>2026-05-01T14:00:44.748Z</time></trkpt><trkpt lat="43.5175064" lon="12.3350521"><ele>693.0</ele><time>2026-05-01T14:00:45.75Z</time></trkpt><trkpt lat="43.5176328" lon="12.3351171"><ele>693.0</ele><time>2026-05-01T14:00:46.748Z</time></trkpt><trkpt lat="43.5177421" lon="12.3351949"><ele>693.0</ele><time>2026-05-01T14:00:47.754Z</time></trkpt><trkpt lat="43.5178342" lon="12.3352927"><ele>693.0</ele><time>2026-05-01T14:00:48.747Z</time></trkpt><trkpt lat="43.5179137" lon="12.3354231"><ele>693.0</ele><time>2026-05-01T14:00:49.752Z</time></trkpt><trkpt lat="43.5179697" lon="12.3355805"><ele>696.3333333333334</ele><time>2026-05-01T14:00:50.748Z</time></trkpt><trkpt lat="43.5180032" lon="12.3357607"><ele>699.6666666666667</ele><time>2026-05-01T14:00:51.744Z</time></trkpt><trkpt lat="43.518016" lon="12.3359499"><ele>703.0</ele><time>2026-05-01T14:00:52.746Z</time></trkpt><trkpt lat="43.517976" lon="12.3363393"><ele>704.25</ele><time>2026-05-01T14:00:54.751Z</time></trkpt><trkpt lat="43.5179243" lon="12.336519"><ele>705.5</ele><time>2026-05-01T14:00:55.743Z</time></trkpt><trkpt lat="43.5178616" lon="12.3366733"><ele>706.75</ele><time>2026-05-01T14:00:56.747Z</time></trkpt><trkpt lat="43.5177693" lon="12.3368197"><ele>708.0</ele><time>2026-05-01T14:00:57.752Z</time></trkpt><trkpt lat="43.5176616" lon="12.3369486"><ele>707.5</ele><time>2026-05-01T14:00:58.747Z</time></trkpt><trkpt lat="43.5175508" lon="12.3370744"><ele>707.0</ele><time>2026-05-01T14:00:59.754Z</time></trkpt><trkpt lat="43.5174373" lon="12.3372"><ele>706.5</ele><time>2026-05-01T14:01:00.75Z</time></trkpt><trkpt lat="43.5173179" lon="12.3373303"><ele>706.0</ele><time>2026-05-01T14:01:01.747Z</time></trkpt><trkpt lat="43.5172" lon="12.337467"><ele>706.0</ele><time>2026-05-01T14:01:02.746Z</time></trkpt><trkpt lat="43.5170696" lon="12.3376064"><ele>706.0</ele><time>2026-05-01T14:01:03.755Z</time></trkpt><trkpt lat="43.5169203" lon="12.3377358"><ele>706.0</ele><time>2026-05-01T14:01:04.749Z</time></trkpt><trkpt lat="43.5167613" lon="12.337846"><ele>706.0</ele><time>2026-05-01T14:01:05.755Z</time></trkpt><trkpt lat="43.5166005" lon="12.3379526"><ele>706.0</ele><time>2026-05-01T14:01:06.753Z</time></trkpt><trkpt lat="43.5164486" lon="12.3380664"><ele>706.0</ele><time>2026-05-01T14:01:07.754Z</time></trkpt><trkpt lat="43.5163019" lon="12.3381752"><ele>703.0</ele><time>2026-05-01T14:01:08.747Z</time></trkpt><trkpt lat="43.5161663" lon="12.3382726"><ele>700.0</ele><time>2026-05-01T14:01:09.745Z</time></trkpt><trkpt lat="43.5160345" lon="12.3383683"><ele>697.0</ele><time>2026-05-01T14:01:10.767Z</time></trkpt><trkpt lat="43.5159137" lon="12.3384547"><ele>694.0</ele><time>2026-05-01T14:01:11.748Z</time></trkpt><trkpt lat="43.5158077" lon="12.3385449"><ele>694.0</ele><time>2026-05-01T14:01:12.755Z</time></trkpt><trkpt lat="43.5157153" lon="12.3386545"><ele>694.0</ele><time>2026-05-01T14:01:13.752Z</time></trkpt><trkpt lat="43.5156017" lon="12.3389396"><ele>694.0</ele><time>2026-05-01T14:01:15.756Z</time></trkpt><trkpt lat="43.5155929" lon="12.339097"><ele>695.75</ele><time>2026-05-01T14:01:16.754Z</time></trkpt><trkpt lat="43.5156154" lon="12.3392506"><ele>697.5</ele><time>2026-05-01T14:01:17.753Z</time></trkpt><trkpt lat="43.5156724" lon="12.3393918"><ele>699.25</ele><time>2026-05-01T14:01:18.755Z</time></trkpt><trkpt lat="43.5157539" lon="12.3395111"><ele>701.0</ele><time>2026-05-01T14:01:19.755Z</time></trkpt><trkpt lat="43.5158494" lon="12.3396027"><ele>701.0</ele><time>2026-05-01T14:01:20.747Z</time></trkpt><trkpt lat="43.5159724" lon="12.3396695"><ele>701.0</ele><time>2026-05-01T14:01:21.752Z</time></trkpt><trkpt lat="43.5161134" lon="12.3397356"><ele>701.0</ele><time>2026-05-01T14:01:22.746Z</time></trkpt><trkpt lat="43.5162432" lon="12.3398098"><ele>701.0</ele><time>2026-05-01T14:01:23.757Z</time></trkpt><trkpt lat="43.5163532" lon="12.3398798"><ele>702.1999999999999</ele><time>2026-05-01T14:01:24.751Z</time></trkpt><trkpt lat="43.5164539" lon="12.3399412"><ele>703.4</ele><time>2026-05-01T14:01:25.765Z</time></trkpt><trkpt lat="43.5165416" lon="12.3399896"><ele>704.6</ele><time>2026-05-01T14:01:26.751Z</time></trkpt><trkpt lat="43.516623" lon="12.3400389"><ele>705.8</ele><time>2026-05-01T14:01:27.755Z</time></trkpt><trkpt lat="43.5166974" lon="12.340091"><ele>707.0</ele><time>2026-05-01T14:01:28.753Z</time></trkpt><trkpt lat="43.5167722" lon="12.3401402"><ele>707.0</ele><time>2026-05-01T14:01:29.752Z</time></trkpt><trkpt lat="43.5168397" lon="12.3401738"><ele>707.0</ele><time>2026-05-01T14:01:30.748Z</time></trkpt><trkpt lat="43.5169339" lon="12.3402216"><ele>707.0</ele><time>2026-05-01T14:01:32.745Z</time></trkpt><trkpt lat="43.5169896" lon="12.3402824"><ele>707.0</ele><time>2026-05-01T14:01:35.75Z</time></trkpt><trkpt lat="43.5172982" lon="12.3403191"><ele>710.75</ele><time>2026-05-01T14:08:26.758Z</time></trkpt><trkpt lat="43.5174078" lon="12.34032"><ele>714.5</ele><time>2026-05-01T14:08:27.756Z</time></trkpt><trkpt lat="43.5175311" lon="12.3403119"><ele>718.25</ele><time>2026-05-01T14:08:28.753Z</time></trkpt><trkpt lat="43.517656" lon="12.3403067"><ele>722.0</ele><time>2026-05-01T14:08:29.78Z</time></trkpt><trkpt lat="43.5177823" lon="12.3402943"><ele>723.8</ele><time>2026-05-01T14:08:30.761Z</time></trkpt><trkpt lat="43.5179048" lon="12.3402981"><ele>725.6</ele><time>2026-05-01T14:08:31.757Z</time></trkpt><trkpt lat="43.5180156" lon="12.3403177"><ele>727.4</ele><time>2026-05-01T14:08:32.751Z</time></trkpt><trkpt lat="43.5181078" lon="12.3403416"><ele>729.1999999999999</ele><time>2026-05-01T14:08:33.749Z</time></trkpt><trkpt lat="43.5182021" lon="12.3403735"><ele>731.0</ele><time>2026-05-01T14:08:34.773Z</time></trkpt><trkpt lat="43.5183031" lon="12.3404089"><ele>731.0</ele><time>2026-05-01T14:08:35.77Z</time></trkpt><trkpt lat="43.5184074" lon="12.3404688"><ele>731.0</ele><time>2026-05-01T14:08:36.757Z</time></trkpt><trkpt lat="43.5185103" lon="12.3405332"><ele>731.0</ele><time>2026-05-01T14:08:37.756Z</time></trkpt><trkpt lat="43.5186156" lon="12.3406014"><ele>731.0</ele><time>2026-05-01T14:08:38.755Z</time></trkpt><trkpt lat="43.5187235" lon="12.3406875"><ele>728.4</ele><time>2026-05-01T14:08:39.748Z</time></trkpt><trkpt lat="43.5188186" lon="12.3407783"><ele>725.8</ele><time>2026-05-01T14:08:40.762Z</time></trkpt><trkpt lat="43.5188946" lon="12.3408812"><ele>723.1999999999999</ele><time>2026-05-01T14:08:41.766Z</time></trkpt><trkpt lat="43.5189539" lon="12.3409853"><ele>720.5999999999999</ele><time>2026-05-01T14:08:42.752Z</time></trkpt><trkpt lat="43.5189964" lon="12.3411034"><ele>718.0</ele><time>2026-05-01T14:08:43.756Z</time></trkpt><trkpt lat="43.5190126" lon="12.3413622"><ele>717.2</ele><time>2026-05-01T14:08:45.772Z</time></trkpt><trkpt lat="43.5189878" lon="12.341486"><ele>716.4</ele><time>2026-05-01T14:08:46.754Z</time></trkpt><trkpt lat="43.5189475" lon="12.3416072"><ele>715.6</ele><time>2026-05-01T14:08:47.758Z</time></trkpt><trkpt lat="43.5188849" lon="12.3417243"><ele>714.8000000000001</ele><time>2026-05-01T14:08:48.745Z</time></trkpt><trkpt lat="43.5188135" lon="12.3418335"><ele>714.0</ele><time>2026-05-01T14:08:49.756Z</time></trkpt><trkpt lat="43.5187469" lon="12.3419265"><ele>709.8000000000001</ele><time>2026-05-01T14:08:50.752Z</time></trkpt><trkpt lat="43.5186854" lon="12.3420171"><ele>705.6</ele><time>2026-05-01T14:08:51.751Z</time></trkpt><trkpt lat="43.5186298" lon="12.3421148"><ele>701.4</ele><time>2026-05-01T14:08:52.761Z</time></trkpt><trkpt lat="43.5185789" lon="12.3422284"><ele>697.2</ele><time>2026-05-01T14:08:53.751Z</time></trkpt><trkpt lat="43.5185411" lon="12.3423435"><ele>693.0</ele><time>2026-05-01T14:08:54.753Z</time></trkpt><trkpt lat="43.5185207" lon="12.342471"><ele>693.0</ele><time>2026-05-01T14:08:55.753Z</time></trkpt><trkpt lat="43.5185139" lon="12.3425975"><ele>693.0</ele><time>2026-05-01T14:08:56.745Z</time></trkpt><trkpt lat="43.5185203" lon="12.3427155"><ele>693.0</ele><time>2026-05-01T14:08:57.748Z</time></trkpt><trkpt lat="43.5185444" lon="12.3428329"><ele>693.0</ele><time>2026-05-01T14:08:58.751Z</time></trkpt><trkpt lat="43.5185789" lon="12.3429495"><ele>693.0</ele><time>2026-05-01T14:08:59.743Z</time></trkpt><trkpt lat="43.5186176" lon="12.3430625"><ele>693.0</ele><time>2026-05-01T14:09:00.748Z</time></trkpt><trkpt lat="43.5186627" lon="12.343175"><ele>693.5</ele><time>2026-05-01T14:09:01.748Z</time></trkpt><trkpt lat="43.5186986" lon="12.3432892"><ele>694.0</ele><time>2026-05-01T14:09:02.743Z</time></trkpt><trkpt lat="43.5187166" lon="12.3434047"><ele>694.5</ele><time>2026-05-01T14:09:03.747Z</time></trkpt><trkpt lat="43.5187179" lon="12.34353"><ele>695.0</ele><time>2026-05-01T14:09:04.743Z</time></trkpt><trkpt lat="43.5186621" lon="12.3437711"><ele>694.6</ele><time>2026-05-01T14:09:06.76Z</time></trkpt><trkpt lat="43.5186194" lon="12.3439068"><ele>694.2</ele><time>2026-05-01T14:09:07.754Z</time></trkpt><trkpt lat="43.5185793" lon="12.3440446"><ele>693.8</ele><time>2026-05-01T14:09:08.75Z</time></trkpt><trkpt lat="43.5185639" lon="12.3441693"><ele>693.4</ele><time>2026-05-01T14:09:09.745Z</time></trkpt><trkpt lat="43.5185602" lon="12.3442782"><ele>693.0</ele><time>2026-05-01T14:09:10.738Z</time></trkpt><trkpt lat="43.5185627" lon="12.3443716"><ele>693.0</ele><time>2026-05-01T14:09:11.758Z</time></trkpt><trkpt lat="43.5185778" lon="12.3445274"><ele>693.0</ele><time>2026-05-01T14:09:13.746Z</time></trkpt><trkpt lat="43.518593" lon="12.3446167"><ele>693.0</ele><time>2026-05-01T14:09:14.746Z</time></trkpt><trkpt lat="43.5186146" lon="12.3447201"><ele>693.0</ele><time>2026-05-01T14:09:15.744Z</time></trkpt><trkpt lat="43.5186432" lon="12.3448397"><ele>693.0</ele><time>2026-05-01T14:09:16.753Z</time></trkpt><trkpt lat="43.5186857" lon="12.3449863"><ele>701.0</ele><time>2026-05-01T14:09:17.752Z</time></trkpt><trkpt lat="43.5187346" lon="12.3451552"><ele>709.0</ele><time>2026-05-01T14:09:18.747Z</time></trkpt><trkpt lat="43.5187992" lon="12.3453205"><ele>717.0</ele><time>2026-05-01T14:09:19.752Z</time></trkpt><trkpt lat="43.5188647" lon="12.3454836"><ele>725.0</ele><time>2026-05-01T14:09:20.769Z</time></trkpt><trkpt lat="43.5189258" lon="12.3456417"><ele>725.0</ele><time>2026-05-01T14:09:21.74Z</time></trkpt><trkpt lat="43.5189849" lon="12.3457903"><ele>725.0</ele><time>2026-05-01T14:09:22.749Z</time></trkpt><trkpt lat="43.5190251" lon="12.34594"><ele>725.0</ele><time>2026-05-01T14:09:23.763Z</time></trkpt><trkpt lat="43.5190409" lon="12.3460901"><ele>725.0</ele><time>2026-05-01T14:09:24.751Z</time></trkpt><trkpt lat="43.5190184" lon="12.3462306"><ele>725.5</ele><time>2026-05-01T14:09:25.756Z</time></trkpt><trkpt lat="43.5188858" lon="12.3464448"><ele>726.0</ele><time>2026-05-01T14:09:27.758Z</time></trkpt><trkpt lat="43.5188063" lon="12.346501"><ele>726.5</ele><time>2026-05-01T14:09:28.759Z</time></trkpt><trkpt lat="43.5187375" lon="12.3465317"><ele>727.0</ele><time>2026-05-01T14:09:29.757Z</time></trkpt><trkpt lat="43.5186534" lon="12.3465624"><ele>721.0</ele><time>2026-05-01T14:09:31.743Z</time></trkpt><trkpt lat="43.5186101" lon="12.3466466"><ele>715.0</ele><time>2026-05-01T14:09:54.744Z</time></trkpt><trkpt lat="43.5184101" lon="12.3468353"><ele>709.0</ele><time>2026-05-01T14:09:57.755Z</time></trkpt><trkpt lat="43.5183" lon="12.3469237"><ele>703.0</ele><time>2026-05-01T14:09:58.745Z</time></trkpt><trkpt lat="43.5181916" lon="12.3470198"><ele>703.0</ele><time>2026-05-01T14:09:59.74Z</time></trkpt><trkpt lat="43.5180826" lon="12.3471138"><ele>703.0</ele><time>2026-05-01T14:10:00.742Z</time></trkpt><trkpt lat="43.5179842" lon="12.3472086"><ele>703.0</ele><time>2026-05-01T14:10:01.743Z</time></trkpt><trkpt lat="43.517907" lon="12.3473239"><ele>703.0</ele><time>2026-05-01T14:10:02.741Z</time></trkpt><trkpt lat="43.5178557" lon="12.3474624"><ele>702.25</ele><time>2026-05-01T14:10:03.756Z</time></trkpt><trkpt lat="43.5178434" lon="12.3476295"><ele>701.5</ele><time>2026-05-01T14:10:04.74Z</time></trkpt><trkpt lat="43.5178304" lon="12.3478153"><ele>700.75</ele><time>2026-05-01T14:10:05.735Z</time></trkpt><trkpt lat="43.5177797" lon="12.3480207"><ele>700.0</ele><time>2026-05-01T14:10:06.741Z</time></trkpt><trkpt lat="43.5177052" lon="12.348204"><ele>704.25</ele><time>2026-05-01T14:10:07.735Z</time></trkpt><trkpt lat="43.5176025" lon="12.3483617"><ele>708.5</ele><time>2026-05-01T14:10:08.737Z</time></trkpt><trkpt lat="43.517484" lon="12.3484889"><ele>712.75</ele><time>2026-05-01T14:10:09.749Z</time></trkpt><trkpt lat="43.5173636" lon="12.3485768"><ele>717.0</ele><time>2026-05-01T14:10:10.746Z</time></trkpt><trkpt lat="43.5172478" lon="12.3486257"><ele>717.0</ele><time>2026-05-01T14:10:11.77Z</time></trkpt><trkpt lat="43.5171398" lon="12.3486284"><ele>717.0</ele><time>2026-05-01T14:10:12.759Z</time></trkpt><trkpt lat="43.5170376" lon="12.3485792"><ele>717.0</ele><time>2026-05-01T14:10:13.75Z</time></trkpt><trkpt lat="43.5169276" lon="12.3484921"><ele>717.0</ele><time>2026-05-01T14:10:14.743Z</time></trkpt><trkpt lat="43.5168227" lon="12.3483586"><ele>713.0</ele><time>2026-05-01T14:10:15.733Z</time></trkpt><trkpt lat="43.5166598" lon="12.3480416"><ele>709.0</ele><time>2026-05-01T14:10:17.742Z</time></trkpt><trkpt lat="43.5165981" lon="12.3479066"><ele>705.0</ele><time>2026-05-01T14:10:18.747Z</time></trkpt><trkpt lat="43.5165276" lon="12.3478142"><ele>705.0</ele><time>2026-05-01T14:10:19.741Z</time></trkpt><trkpt lat="43.5164301" lon="12.3477556"><ele>705.0</ele><time>2026-05-01T14:10:20.749Z</time></trkpt><trkpt lat="43.5163123" lon="12.3477342"><ele>705.0</ele><time>2026-05-01T14:10:21.747Z</time></trkpt><trkpt lat="43.5161928" lon="12.3477173"><ele>705.0</ele><time>2026-05-01T14:10:22.74Z</time></trkpt><trkpt lat="43.5160801" lon="12.3477034"><ele>707.75</ele><time>2026-05-01T14:10:23.752Z</time></trkpt><trkpt lat="43.5159774" lon="12.3476947"><ele>710.5</ele><time>2026-05-01T14:10:24.744Z</time></trkpt><trkpt lat="43.515865" lon="12.3476797"><ele>713.25</ele><time>2026-05-01T14:10:25.757Z</time></trkpt><trkpt lat="43.5157532" lon="12.3476636"><ele>716.0</ele><time>2026-05-01T14:10:26.748Z</time></trkpt><trkpt lat="43.5156311" lon="12.3476484"><ele>716.0</ele><time>2026-05-01T14:10:27.762Z</time></trkpt><trkpt lat="43.5155068" lon="12.3476282"><ele>716.0</ele><time>2026-05-01T14:10:28.753Z</time></trkpt><trkpt lat="43.5153805" lon="12.3475982"><ele>716.0</ele><time>2026-05-01T14:10:29.757Z</time></trkpt><trkpt lat="43.5152522" lon="12.3475531"><ele>716.0</ele><time>2026-05-01T14:10:30.756Z</time></trkpt><trkpt lat="43.5151184" lon="12.3475106"><ele>717.6666666666666</ele><time>2026-05-01T14:10:31.764Z</time></trkpt><trkpt lat="43.5149693" lon="12.3474857"><ele>719.3333333333334</ele><time>2026-05-01T14:10:32.749Z</time></trkpt><trkpt lat="43.5148078" lon="12.3474917"><ele>721.0</ele><time>2026-05-01T14:10:33.75Z</time></trkpt><trkpt lat="43.5146311" lon="12.3475122"><ele>720.0</ele><time>2026-05-01T14:10:34.735Z</time></trkpt><trkpt lat="43.514466" lon="12.3475354"><ele>719.0</ele><time>2026-05-01T14:10:35.749Z</time></trkpt><trkpt lat="43.5143282" lon="12.3475627"><ele>718.0</ele><time>2026-05-01T14:10:36.753Z</time></trkpt><trkpt lat="43.5141225" lon="12.3476779"><ele>718.0</ele><time>2026-05-01T14:10:38.748Z</time></trkpt><trkpt lat="43.5140567" lon="12.3477737"><ele>718.0</ele><time>2026-05-01T14:10:39.74Z</time></trkpt><trkpt lat="43.5140336" lon="12.3478962"><ele>718.0</ele><time>2026-05-01T14:10:40.771Z</time></trkpt><trkpt lat="43.5140523" lon="12.3480242"><ele>718.0</ele><time>2026-05-01T14:10:41.754Z</time></trkpt><trkpt lat="43.5140861" lon="12.348168"><ele>718.0</ele><time>2026-05-01T14:10:42.748Z</time></trkpt><trkpt lat="43.5141294" lon="12.3483541"><ele>719.6666666666667</ele><time>2026-05-01T14:10:43.752Z</time></trkpt><trkpt lat="43.5141409" lon="12.3485656"><ele>721.3333333333334</ele><time>2026-05-01T14:10:44.757Z</time></trkpt><trkpt lat="43.5141254" lon="12.3487926"><ele>723.0</ele><time>2026-05-01T14:10:45.755Z</time></trkpt><trkpt lat="43.5141013" lon="12.3490361"><ele>723.6666666666666</ele><time>2026-05-01T14:10:46.754Z</time></trkpt><trkpt lat="43.5140977" lon="12.3492589"><ele>724.3333333333333</ele><time>2026-05-01T14:10:47.747Z</time></trkpt><trkpt lat="43.5141172" lon="12.3494702"><ele>725.0</ele><time>2026-05-01T14:10:48.736Z</time></trkpt><trkpt lat="43.5141234" lon="12.3496604"><ele>727.2</ele><time>2026-05-01T14:10:49.742Z</time></trkpt><trkpt lat="43.5141146" lon="12.3498209"><ele>729.4</ele><time>2026-05-01T14:10:50.76Z</time></trkpt><trkpt lat="43.5140744" lon="12.3499546"><ele>731.5999999999999</ele><time>2026-05-01T14:10:51.76Z</time></trkpt><trkpt lat="43.5140062" lon="12.3500676"><ele>733.8</ele><time>2026-05-01T14:10:52.743Z</time></trkpt><trkpt lat="43.5139055" lon="12.3501453"><ele>736.0</ele><time>2026-05-01T14:10:53.751Z</time></trkpt><trkpt lat="43.5137818" lon="12.3501847"><ele>731.6666666666667</ele><time>2026-05-01T14:10:54.765Z</time></trkpt><trkpt lat="43.5136477" lon="12.3501745"><ele>727.3333333333334</ele><time>2026-05-01T14:10:55.748Z</time></trkpt><trkpt lat="43.5134865" lon="12.3501545"><ele>723.0</ele><time>2026-05-01T14:10:56.759Z</time></trkpt><trkpt lat="43.5132983" lon="12.3501281"><ele>723.0</ele><time>2026-05-01T14:10:57.749Z</time></trkpt><trkpt lat="43.5129498" lon="12.350046"><ele>723.0</ele><time>2026-05-01T14:10:59.739Z</time></trkpt><trkpt lat="43.5127999" lon="12.3499484"><ele>724.3333333333334</ele><time>2026-05-01T14:11:00.764Z</time></trkpt><trkpt lat="43.5126713" lon="12.3498277"><ele>725.6666666666667</ele><time>2026-05-01T14:11:01.763Z</time></trkpt><trkpt lat="43.5125509" lon="12.3496569"><ele>727.0</ele><time>2026-05-01T14:11:02.74Z</time></trkpt><trkpt lat="43.5124304" lon="12.3494758"><ele>724.6666666666667</ele><time>2026-05-01T14:11:03.761Z</time></trkpt><trkpt lat="43.5122942" lon="12.3493077"><ele>722.3333333333334</ele><time>2026-05-01T14:11:04.761Z</time></trkpt><trkpt lat="43.5121557" lon="12.3491626"><ele>720.0</ele><time>2026-05-01T14:11:05.742Z</time></trkpt><trkpt lat="43.5120307" lon="12.3490393"><ele>720.0</ele><time>2026-05-01T14:11:06.746Z</time></trkpt><trkpt lat="43.5119225" lon="12.3489297"><ele>720.0</ele><time>2026-05-01T14:11:07.754Z</time></trkpt><trkpt lat="43.5118329" lon="12.348857"><ele>720.0</ele><time>2026-05-01T14:11:08.749Z</time></trkpt><trkpt lat="43.5117495" lon="12.3488164"><ele>720.0</ele><time>2026-05-01T14:11:09.757Z</time></trkpt><trkpt lat="43.5116667" lon="12.3488255"><ele>720.0</ele><time>2026-05-01T14:11:10.766Z</time></trkpt><trkpt lat="43.5116084" lon="12.3488885"><ele>720.0</ele><time>2026-05-01T14:11:11.75Z</time></trkpt><trkpt lat="43.5115793" lon="12.3489797"><ele>720.0</ele><time>2026-05-01T14:11:12.761Z</time></trkpt><trkpt lat="43.5115755" lon="12.3490879"><ele>720.0</ele><time>2026-05-01T14:11:13.763Z</time></trkpt><trkpt lat="43.5115979" lon="12.3492272"><ele>720.0</ele><time>2026-05-01T14:11:14.763Z</time></trkpt><trkpt lat="43.5116407" lon="12.3493824"><ele>720.0</ele><time>2026-05-01T14:11:15.758Z</time></trkpt><trkpt lat="43.5117082" lon="12.3495506"><ele>718.3333333333334</ele><time>2026-05-01T14:11:16.749Z</time></trkpt><trkpt lat="43.5117945" lon="12.3497226"><ele>716.6666666666667</ele><time>2026-05-01T14:11:17.754Z</time></trkpt><trkpt lat="43.5118942" lon="12.3498898"><ele>715.0</ele><time>2026-05-01T14:11:18.747Z</time></trkpt><trkpt lat="43.5120793" lon="12.3502189"><ele>719.0</ele><time>2026-05-01T14:11:20.755Z</time></trkpt><trkpt lat="43.5121342" lon="12.3504125"><ele>723.0</ele><time>2026-05-01T14:11:21.752Z</time></trkpt><trkpt lat="43.5121707" lon="12.3506181"><ele>727.0</ele><time>2026-05-01T14:11:22.754Z</time></trkpt><trkpt lat="43.5121779" lon="12.3508293"><ele>730.3333333333334</ele><time>2026-05-01T14:11:23.741Z</time></trkpt><trkpt lat="43.5121619" lon="12.3510486"><ele>733.6666666666666</ele><time>2026-05-01T14:11:24.751Z</time></trkpt><trkpt lat="43.512149" lon="12.3512564"><ele>737.0</ele><time>2026-05-01T14:11:25.757Z</time></trkpt><trkpt lat="43.5121562" lon="12.351451"><ele>737.0</ele><time>2026-05-01T14:11:26.768Z</time></trkpt><trkpt lat="43.5121935" lon="12.351613"><ele>737.0</ele><time>2026-05-01T14:11:27.749Z</time></trkpt><trkpt lat="43.5122567" lon="12.3517607"><ele>737.0</ele><time>2026-05-01T14:11:28.749Z</time></trkpt><trkpt lat="43.5123531" lon="12.3518836"><ele>737.0</ele><time>2026-05-01T14:11:29.749Z</time></trkpt><trkpt lat="43.5124704" lon="12.3520137"><ele>737.0</ele><time>2026-05-01T14:11:30.745Z</time></trkpt><trkpt lat="43.5125951" lon="12.3521544"><ele>737.0</ele><time>2026-05-01T14:11:31.749Z</time></trkpt><trkpt lat="43.5127094" lon="12.3523255"><ele>737.0</ele><time>2026-05-01T14:11:32.746Z</time></trkpt><trkpt lat="43.5127915" lon="12.3525234"><ele>736.5</ele><time>2026-05-01T14:11:33.746Z</time></trkpt><trkpt lat="43.5128545" lon="12.3527169"><ele>736.0</ele><time>2026-05-01T14:11:34.738Z</time></trkpt><trkpt lat="43.5129132" lon="12.352901"><ele>735.5</ele><time>2026-05-01T14:11:35.747Z</time></trkpt><trkpt lat="43.5129887" lon="12.3530604"><ele>735.0</ele><time>2026-05-01T14:11:36.752Z</time></trkpt><trkpt lat="43.5130964" lon="12.3531975"><ele>735.0</ele><time>2026-05-01T14:11:37.754Z</time></trkpt><trkpt lat="43.5132281" lon="12.3533245"><ele>735.0</ele><time>2026-05-01T14:11:38.745Z</time></trkpt><trkpt lat="43.5133843" lon="12.3534158"><ele>735.0</ele><time>2026-05-01T14:11:39.745Z</time></trkpt><trkpt lat="43.5137496" lon="12.3535553"><ele>740.0</ele><time>2026-05-01T14:11:41.746Z</time></trkpt><trkpt lat="43.5139477" lon="12.3535874"><ele>745.0</ele><time>2026-05-01T14:11:42.741Z</time></trkpt><trkpt lat="43.5141345" lon="12.3536033"><ele>750.0</ele><time>2026-05-01T14:11:43.748Z</time></trkpt><trkpt lat="43.5143102" lon="12.3536231"><ele>750.0</ele><time>2026-05-01T14:11:44.738Z</time></trkpt><trkpt lat="43.5144673" lon="12.3536346"><ele>750.0</ele><time>2026-05-01T14:11:45.748Z</time></trkpt><trkpt lat="43.5146086" lon="12.3536342"><ele>750.0</ele><time>2026-05-01T14:11:46.76Z</time></trkpt><trkpt lat="43.5147479" lon="12.3536016"><ele>750.0</ele><time>2026-05-01T14:11:47.75Z</time></trkpt><trkpt lat="43.5148889" lon="12.3535228"><ele>748.6666666666666</ele><time>2026-05-01T14:11:48.746Z</time></trkpt><trkpt lat="43.5150308" lon="12.3534225"><ele>747.3333333333333</ele><time>2026-05-01T14:11:49.767Z</time></trkpt><trkpt lat="43.51518" lon="12.3533309"><ele>746.0</ele><time>2026-05-01T14:11:50.741Z</time></trkpt><trkpt lat="43.5153374" lon="12.3532471"><ele>745.75</ele><time>2026-05-01T14:11:51.745Z</time></trkpt><trkpt lat="43.5154881" lon="12.3531785"><ele>745.5</ele><time>2026-05-01T14:11:52.778Z</time></trkpt><trkpt lat="43.5156323" lon="12.3531543"><ele>745.25</ele><time>2026-05-01T14:11:53.768Z</time></trkpt><trkpt lat="43.5157687" lon="12.3531635"><ele>745.0</ele><time>2026-05-01T14:11:54.765Z</time></trkpt><trkpt lat="43.5158734" lon="12.353229"><ele>745.0</ele><time>2026-05-01T14:11:55.761Z</time></trkpt><trkpt lat="43.5159719" lon="12.3533221"><ele>745.0</ele><time>2026-05-01T14:11:56.765Z</time></trkpt><trkpt lat="43.5160487" lon="12.3534478"><ele>745.0</ele><time>2026-05-01T14:11:57.75Z</time></trkpt><trkpt lat="43.516094" lon="12.3535921"><ele>745.0</ele><time>2026-05-01T14:11:58.752Z</time></trkpt><trkpt lat="43.5161114" lon="12.3537553"><ele>740.3333333333334</ele><time>2026-05-01T14:11:59.752Z</time></trkpt><trkpt lat="43.5160949" lon="12.3539412"><ele>735.6666666666666</ele><time>2026-05-01T14:12:00.753Z</time></trkpt><trkpt lat="43.516019" lon="12.3543521"><ele>731.0</ele><time>2026-05-01T14:12:02.737Z</time></trkpt><trkpt lat="43.516011" lon="12.3545497"><ele>729.5</ele><time>2026-05-01T14:12:03.737Z</time></trkpt><trkpt lat="43.5160199" lon="12.3547378"><ele>728.0</ele><time>2026-05-01T14:12:04.745Z</time></trkpt><trkpt lat="43.5160318" lon="12.3549305"><ele>726.5</ele><time>2026-05-01T14:12:05.749Z</time></trkpt><trkpt lat="43.5160314" lon="12.3551101"><ele>725.0</ele><time>2026-05-01T14:12:06.737Z</time></trkpt><trkpt lat="43.5160015" lon="12.3552858"><ele>725.0</ele><time>2026-05-01T14:12:07.746Z</time></trkpt><trkpt lat="43.5159526" lon="12.3554522"><ele>725.0</ele><time>2026-05-01T14:12:08.746Z</time></trkpt><trkpt lat="43.5158839" lon="12.3556035"><ele>725.0</ele><time>2026-05-01T14:12:09.741Z</time></trkpt><trkpt lat="43.5158023" lon="12.3557449"><ele>725.0</ele><time>2026-05-01T14:12:10.747Z</time></trkpt><trkpt lat="43.5157299" lon="12.3558921"><ele>726.25</ele><time>2026-05-01T14:12:11.748Z</time></trkpt><trkpt lat="43.5156648" lon="12.3560342"><ele>727.5</ele><time>2026-05-01T14:12:12.737Z</time></trkpt><trkpt lat="43.5156162" lon="12.3561743"><ele>728.75</ele><time>2026-05-01T14:12:13.757Z</time></trkpt><trkpt lat="43.5156019" lon="12.3563318"><ele>730.0</ele><time>2026-05-01T14:12:14.74Z</time></trkpt><trkpt lat="43.515614" lon="12.3565049"><ele>731.0</ele><time>2026-05-01T14:12:15.75Z</time></trkpt><trkpt lat="43.5156478" lon="12.3566871"><ele>732.0</ele><time>2026-05-01T14:12:16.741Z</time></trkpt><trkpt lat="43.5156842" lon="12.3568533"><ele>733.0</ele><time>2026-05-01T14:12:17.751Z</time></trkpt><trkpt lat="43.5157141" lon="12.3569995"><ele>734.0</ele><time>2026-05-01T14:12:18.753Z</time></trkpt><trkpt lat="43.5157638" lon="12.357117"><ele>734.0</ele><time>2026-05-01T14:12:19.746Z</time></trkpt><trkpt lat="43.5158334" lon="12.3572026"><ele>734.0</ele><time>2026-05-01T14:12:20.751Z</time></trkpt><trkpt lat="43.5159234" lon="12.3572471"><ele>734.0</ele><time>2026-05-01T14:12:21.751Z</time></trkpt><trkpt lat="43.5161025" lon="12.3572013"><ele>734.0</ele><time>2026-05-01T14:12:23.752Z</time></trkpt><trkpt lat="43.5161935" lon="12.3571166"><ele>735.5</ele><time>2026-05-01T14:12:24.763Z</time></trkpt><trkpt lat="43.5162894" lon="12.3569945"><ele>737.0</ele><time>2026-05-01T14:12:25.752Z</time></trkpt><trkpt lat="43.5163883" lon="12.3568501"><ele>738.5</ele><time>2026-05-01T14:12:26.743Z</time></trkpt><trkpt lat="43.5164809" lon="12.3567174"><ele>740.0</ele><time>2026-05-01T14:12:27.749Z</time></trkpt><trkpt lat="43.5165713" lon="12.3566202"><ele>740.0</ele><time>2026-05-01T14:12:28.743Z</time></trkpt><trkpt lat="43.516654" lon="12.3565636"><ele>740.0</ele><time>2026-05-01T14:12:29.769Z</time></trkpt><trkpt lat="43.5167385" lon="12.3565627"><ele>740.0</ele><time>2026-05-01T14:12:30.752Z</time></trkpt><trkpt lat="43.5168334" lon="12.3566195"><ele>740.0</ele><time>2026-05-01T14:12:31.751Z</time></trkpt><trkpt lat="43.5169015" lon="12.3567281"><ele>740.0</ele><time>2026-05-01T14:12:32.762Z</time></trkpt><trkpt lat="43.5169515" lon="12.3568614"><ele>740.0</ele><time>2026-05-01T14:12:33.748Z</time></trkpt><trkpt lat="43.516998" lon="12.3570238"><ele>740.0</ele><time>2026-05-01T14:12:34.744Z</time></trkpt><trkpt lat="43.5170544" lon="12.3572009"><ele>740.0</ele><time>2026-05-01T14:12:35.738Z</time></trkpt><trkpt lat="43.5171082" lon="12.3573772"><ele>740.0</ele><time>2026-05-01T14:12:36.749Z</time></trkpt><trkpt lat="43.5171618" lon="12.3575307"><ele>738.25</ele><time>2026-05-01T14:12:37.745Z</time></trkpt><trkpt lat="43.5172373" lon="12.3576672"><ele>736.5</ele><time>2026-05-01T14:12:38.749Z</time></trkpt><trkpt lat="43.5173337" lon="12.3577722"><ele>734.75</ele><time>2026-05-01T14:12:39.76Z</time></trkpt><trkpt lat="43.5174571" lon="12.3578528"><ele>733.0</ele><time>2026-05-01T14:12:40.761Z</time></trkpt><trkpt lat="43.5176073" lon="12.3579137"><ele>733.0</ele><time>2026-05-01T14:12:41.761Z</time></trkpt><trkpt lat="43.517775" lon="12.3579908"><ele>733.0</ele><time>2026-05-01T14:12:42.736Z</time></trkpt><trkpt lat="43.5180941" lon="12.3582166"><ele>729.3333333333334</ele><time>2026-05-01T14:12:44.758Z</time></trkpt><trkpt lat="43.5182446" lon="12.358309"><ele>725.6666666666666</ele><time>2026-05-01T14:12:45.753Z</time></trkpt><trkpt lat="43.5183986" lon="12.3583733"><ele>722.0</ele><time>2026-05-01T14:12:46.755Z</time></trkpt><trkpt lat="43.5185423" lon="12.358405"><ele>722.0</ele><time>2026-05-01T14:12:47.754Z</time></trkpt><trkpt lat="43.5186739" lon="12.3584195"><ele>722.0</ele><time>2026-05-01T14:12:48.751Z</time></trkpt><trkpt lat="43.5187986" lon="12.3584057"><ele>722.0</ele><time>2026-05-01T14:12:49.758Z</time></trkpt><trkpt lat="43.5189038" lon="12.3583572"><ele>722.0</ele><time>2026-05-01T14:12:50.749Z</time></trkpt><trkpt lat="43.5189815" lon="12.3582842"><ele>721.6</ele><time>2026-05-01T14:12:51.748Z</time></trkpt><trkpt lat="43.5190369" lon="12.3581902"><ele>721.2</ele><time>2026-05-01T14:12:52.749Z</time></trkpt><trkpt lat="43.5190719" lon="12.3580566"><ele>720.8</ele><time>2026-05-01T14:12:53.748Z</time></trkpt><trkpt lat="43.5190855" lon="12.3579032"><ele>720.4</ele><time>2026-05-01T14:12:54.743Z</time></trkpt><trkpt lat="43.5191065" lon="12.3577504"><ele>720.0</ele><time>2026-05-01T14:12:55.755Z</time></trkpt><trkpt lat="43.519153" lon="12.3576196"><ele>720.0</ele><time>2026-05-01T14:12:56.753Z</time></trkpt><trkpt lat="43.5192208" lon="12.3575212"><ele>720.0</ele><time>2026-05-01T14:12:57.747Z</time></trkpt><trkpt lat="43.5193095" lon="12.3574741"><ele>720.0</ele><time>2026-05-01T14:12:58.738Z</time></trkpt><trkpt lat="43.5194057" lon="12.3574788"><ele>720.0</ele><time>2026-05-01T14:12:59.757Z</time></trkpt><trkpt lat="43.5194775" lon="12.3575455"><ele>720.0</ele><time>2026-05-01T14:13:00.758Z</time></trkpt><trkpt lat="43.5195148" lon="12.3576304"><ele>720.0</ele><time>2026-05-01T14:13:01.764Z</time></trkpt><trkpt lat="43.5195305" lon="12.3577552"><ele>720.0</ele><time>2026-05-01T14:13:02.756Z</time></trkpt><trkpt lat="43.5195155" lon="12.3578959"><ele>720.0</ele><time>2026-05-01T14:13:03.75Z</time></trkpt><trkpt lat="43.5194646" lon="12.3582184"><ele>720.0</ele><time>2026-05-01T14:13:05.745Z</time></trkpt><trkpt lat="43.5194829" lon="12.3583816"><ele>720.0</ele><time>2026-05-01T14:13:06.741Z</time></trkpt><trkpt lat="43.5195444" lon="12.3585362"><ele>720.0</ele><time>2026-05-01T14:13:07.745Z</time></trkpt><trkpt lat="43.5196313" lon="12.3586864"><ele>720.0</ele><time>2026-05-01T14:13:08.741Z</time></trkpt><trkpt lat="43.519733" lon="12.3588157"><ele>720.0</ele><time>2026-05-01T14:13:09.75Z</time></trkpt><trkpt lat="43.5198701" lon="12.3589079"><ele>715.0</ele><time>2026-05-01T14:13:10.747Z</time></trkpt><trkpt lat="43.5200232" lon="12.358984"><ele>710.0</ele><time>2026-05-01T14:13:11.75Z</time></trkpt><trkpt lat="43.5201975" lon="12.3590553"><ele>705.0</ele><time>2026-05-01T14:13:12.744Z</time></trkpt><trkpt lat="43.5203821" lon="12.3591541"><ele>706.0</ele><time>2026-05-01T14:13:13.755Z</time></trkpt><trkpt lat="43.5205742" lon="12.3592842"><ele>707.0</ele><time>2026-05-01T14:13:14.746Z</time></trkpt><trkpt lat="43.5207483" lon="12.3594062"><ele>708.0</ele><time>2026-05-01T14:13:15.748Z</time></trkpt><trkpt lat="43.5209093" lon="12.3595186"><ele>708.0</ele><time>2026-05-01T14:13:16.738Z</time></trkpt><trkpt lat="43.5210594" lon="12.3596221"><ele>708.0</ele><time>2026-05-01T14:13:17.749Z</time></trkpt><trkpt lat="43.5211978" lon="12.3597372"><ele>708.0</ele><time>2026-05-01T14:13:18.745Z</time></trkpt><trkpt lat="43.5213239" lon="12.3598799"><ele>705.6666666666666</ele><time>2026-05-01T14:13:19.745Z</time></trkpt><trkpt lat="43.5214361" lon="12.3600543"><ele>703.3333333333333</ele><time>2026-05-01T14:13:20.74Z</time></trkpt><trkpt lat="43.5215472" lon="12.3602381"><ele>701.0</ele><time>2026-05-01T14:13:21.745Z</time></trkpt><trkpt lat="43.5216622" lon="12.3604161"><ele>695.0</ele><time>2026-05-01T14:13:22.736Z</time></trkpt><trkpt lat="43.5217774" lon="12.3605765"><ele>689.0</ele><time>2026-05-01T14:13:23.752Z</time></trkpt><trkpt lat="43.5220124" lon="12.3608144"><ele>689.25</ele><time>2026-05-01T14:13:25.745Z</time></trkpt><trkpt lat="43.5221369" lon="12.3608953"><ele>689.5</ele><time>2026-05-01T14:13:26.742Z</time></trkpt><trkpt lat="43.5222644" lon="12.3609686"><ele>689.75</ele><time>2026-05-01T14:13:27.744Z</time></trkpt><trkpt lat="43.5223743" lon="12.3610618"><ele>690.0</ele><time>2026-05-01T14:13:28.748Z</time></trkpt><trkpt lat="43.5224564" lon="12.3611887"><ele>690.0</ele><time>2026-05-01T14:13:29.749Z</time></trkpt><trkpt lat="43.5225123" lon="12.3613575"><ele>690.0</ele><time>2026-05-01T14:13:30.744Z</time></trkpt><trkpt lat="43.5225502" lon="12.3615318"><ele>690.0</ele><time>2026-05-01T14:13:31.747Z</time></trkpt><trkpt lat="43.522604" lon="12.3616809"><ele>690.0</ele><time>2026-05-01T14:13:32.738Z</time></trkpt><trkpt lat="43.5226801" lon="12.3618087"><ele>692.0</ele><time>2026-05-01T14:13:33.755Z</time></trkpt><trkpt lat="43.522793" lon="12.3619033"><ele>694.0</ele><time>2026-05-01T14:13:34.767Z</time></trkpt><trkpt lat="43.5229365" lon="12.3619916"><ele>696.0</ele><time>2026-05-01T14:13:35.751Z</time></trkpt><trkpt lat="43.5230887" lon="12.3621009"><ele>686.0</ele><time>2026-05-01T14:13:36.748Z</time></trkpt><trkpt lat="43.5233369" lon="12.3624215"><ele>676.0</ele><time>2026-05-01T14:13:38.739Z</time></trkpt><trkpt lat="43.5234369" lon="12.3626028"><ele>676.0</ele><time>2026-05-01T14:13:39.75Z</time></trkpt><trkpt lat="43.52353" lon="12.3627755"><ele>676.0</ele><time>2026-05-01T14:13:40.743Z</time></trkpt><trkpt lat="43.5236411" lon="12.362925"><ele>676.0</ele><time>2026-05-01T14:13:41.752Z</time></trkpt><trkpt lat="43.5237718" lon="12.3630516"><ele>674.6666666666667</ele><time>2026-05-01T14:13:42.752Z</time></trkpt><trkpt lat="43.5239148" lon="12.3631621"><ele>673.3333333333334</ele><time>2026-05-01T14:13:43.749Z</time></trkpt><trkpt lat="43.5240549" lon="12.3632454"><ele>672.0</ele><time>2026-05-01T14:13:44.749Z</time></trkpt><trkpt lat="43.5243647" lon="12.363334"><ele>672.0</ele><time>2026-05-01T14:13:46.739Z</time></trkpt><trkpt lat="43.5245329" lon="12.3633465"><ele>672.0</ele><time>2026-05-01T14:13:47.748Z</time></trkpt><trkpt lat="43.5247019" lon="12.3633793"><ele>672.0</ele><time>2026-05-01T14:13:48.75Z</time></trkpt><trkpt lat="43.5248669" lon="12.3634493"><ele>673.6666666666666</ele><time>2026-05-01T14:13:49.764Z</time></trkpt><trkpt lat="43.5250294" lon="12.363557"><ele>675.3333333333333</ele><time>2026-05-01T14:13:50.743Z</time></trkpt><trkpt lat="43.5251898" lon="12.3636995"><ele>677.0</ele><time>2026-05-01T14:13:51.749Z</time></trkpt><trkpt lat="43.525339" lon="12.3638824"><ele>676.0</ele><time>2026-05-01T14:13:52.741Z</time></trkpt><trkpt lat="43.5254711" lon="12.3640671"><ele>675.0</ele><time>2026-05-01T14:13:53.751Z</time></trkpt><trkpt lat="43.5255913" lon="12.3642486"><ele>674.0</ele><time>2026-05-01T14:13:54.754Z</time></trkpt><trkpt lat="43.5257175" lon="12.3644031"><ele>674.0</ele><time>2026-05-01T14:13:55.749Z</time></trkpt><trkpt lat="43.5258488" lon="12.3645294"><ele>674.0</ele><time>2026-05-01T14:13:56.744Z</time></trkpt><trkpt lat="43.5259797" lon="12.3646145"><ele>674.0</ele><time>2026-05-01T14:13:57.747Z</time></trkpt><trkpt lat="43.5261245" lon="12.3646728"><ele>669.6666666666666</ele><time>2026-05-01T14:13:58.732Z</time></trkpt><trkpt lat="43.5262925" lon="12.3647166"><ele>665.3333333333334</ele><time>2026-05-01T14:13:59.743Z</time></trkpt><trkpt lat="43.5264788" lon="12.364765"><ele>661.0</ele><time>2026-05-01T14:14:00.754Z</time></trkpt><trkpt lat="43.5266814" lon="12.364826"><ele>661.0</ele><time>2026-05-01T14:14:01.738Z</time></trkpt><trkpt lat="43.5268783" lon="12.3649108"><ele>661.0</ele><time>2026-05-01T14:14:02.729Z</time></trkpt><trkpt lat="43.5270692" lon="12.3650092"><ele>661.0</ele><time>2026-05-01T14:14:03.746Z</time></trkpt><trkpt lat="43.5272467" lon="12.3651236"><ele>661.0</ele><time>2026-05-01T14:14:04.748Z</time></trkpt><trkpt lat="43.5275662" lon="12.365339"><ele>661.0</ele><time>2026-05-01T14:14:06.743Z</time></trkpt><trkpt lat="43.5276977" lon="12.3654603"><ele>658.3333333333334</ele><time>2026-05-01T14:14:07.745Z</time></trkpt><trkpt lat="43.5278264" lon="12.3655654"><ele>655.6666666666666</ele><time>2026-05-01T14:14:08.753Z</time></trkpt><trkpt lat="43.5279627" lon="12.3656453"><ele>653.0</ele><time>2026-05-01T14:14:09.744Z</time></trkpt><trkpt lat="43.5281158" lon="12.3656814"><ele>653.0</ele><time>2026-05-01T14:14:10.745Z</time></trkpt><trkpt lat="43.5282878" lon="12.3657164"><ele>653.0</ele><time>2026-05-01T14:14:11.757Z</time></trkpt><trkpt lat="43.528466" lon="12.3657568"><ele>653.0</ele><time>2026-05-01T14:14:12.762Z</time></trkpt><trkpt lat="43.5286329" lon="12.3658017"><ele>654.75</ele><time>2026-05-01T14:14:13.747Z</time></trkpt><trkpt lat="43.5287794" lon="12.3658478"><ele>656.5</ele><time>2026-05-01T14:14:14.749Z</time></trkpt><trkpt lat="43.5289031" lon="12.3659088"><ele>658.25</ele><time>2026-05-01T14:14:15.745Z</time></trkpt><trkpt lat="43.5290071" lon="12.3660127"><ele>660.0</ele><time>2026-05-01T14:14:16.743Z</time></trkpt><trkpt lat="43.5290734" lon="12.3661441"><ele>660.0</ele><time>2026-05-01T14:14:17.749Z</time></trkpt><trkpt lat="43.5291102" lon="12.3662949"><ele>660.0</ele><time>2026-05-01T14:14:18.746Z</time></trkpt><trkpt lat="43.5291307" lon="12.3664469"><ele>660.0</ele><time>2026-05-01T14:14:19.748Z</time></trkpt><trkpt lat="43.5291685" lon="12.366583"><ele>660.0</ele><time>2026-05-01T14:14:20.752Z</time></trkpt><trkpt lat="43.529232" lon="12.3667046"><ele>660.0</ele><time>2026-05-01T14:14:21.76Z</time></trkpt><trkpt lat="43.5293267" lon="12.3667895"><ele>659.0</ele><time>2026-05-01T14:14:22.75Z</time></trkpt><trkpt lat="43.5294422" lon="12.3668288"><ele>658.0</ele><time>2026-05-01T14:14:23.746Z</time></trkpt><trkpt lat="43.5295789" lon="12.3668522"><ele>657.0</ele><time>2026-05-01T14:14:24.746Z</time></trkpt><trkpt lat="43.5297276" lon="12.3668857"><ele>656.0</ele><time>2026-05-01T14:14:25.741Z</time></trkpt><trkpt lat="43.5300281" lon="12.3669355"><ele>656.0</ele><time>2026-05-01T14:14:27.745Z</time></trkpt><trkpt lat="43.5301598" lon="12.3669397"><ele>656.0</ele><time>2026-05-01T14:14:28.75Z</time></trkpt><trkpt lat="43.5302835" lon="12.3669512"><ele>656.0</ele><time>2026-05-01T14:14:29.749Z</time></trkpt><trkpt lat="43.5304001" lon="12.3670085"><ele>656.0</ele><time>2026-05-01T14:14:30.753Z</time></trkpt><trkpt lat="43.5304955" lon="12.3671244"><ele>655.5</ele><time>2026-05-01T14:14:31.747Z</time></trkpt><trkpt lat="43.5305738" lon="12.3672794"><ele>655.0</ele><time>2026-05-01T14:14:32.731Z</time></trkpt><trkpt lat="43.5306379" lon="12.3674613"><ele>654.5</ele><time>2026-05-01T14:14:33.748Z</time></trkpt><trkpt lat="43.5307012" lon="12.3676564"><ele>654.0</ele><time>2026-05-01T14:14:34.743Z</time></trkpt><trkpt lat="43.5307872" lon="12.3678456"><ele>654.0</ele><time>2026-05-01T14:14:35.761Z</time></trkpt><trkpt lat="43.530905" lon="12.3680116"><ele>654.0</ele><time>2026-05-01T14:14:36.747Z</time></trkpt><trkpt lat="43.5310327" lon="12.3681558"><ele>654.0</ele><time>2026-05-01T14:14:37.746Z</time></trkpt><trkpt lat="43.5311607" lon="12.3682818"><ele>653.5</ele><time>2026-05-01T14:14:38.746Z</time></trkpt><trkpt lat="43.5312786" lon="12.3683977"><ele>653.0</ele><time>2026-05-01T14:14:39.75Z</time></trkpt><trkpt lat="43.5313881" lon="12.3684929"><ele>652.5</ele><time>2026-05-01T14:14:40.742Z</time></trkpt><trkpt lat="43.5314875" lon="12.3685561"><ele>652.0</ele><time>2026-05-01T14:14:41.744Z</time></trkpt><trkpt lat="43.5315866" lon="12.3685712"><ele>652.0</ele><time>2026-05-01T14:14:42.746Z</time></trkpt><trkpt lat="43.5316934" lon="12.3685511"><ele>652.0</ele><time>2026-05-01T14:14:43.746Z</time></trkpt><trkpt lat="43.5318008" lon="12.3684826"><ele>652.0</ele><time>2026-05-01T14:14:44.741Z</time></trkpt><trkpt lat="43.5318922" lon="12.3684162"><ele>652.0</ele><time>2026-05-01T14:14:45.739Z</time></trkpt><trkpt lat="43.5319825" lon="12.3683695"><ele>652.0</ele><time>2026-05-01T14:14:46.761Z</time></trkpt><trkpt lat="43.5321209" lon="12.3684981"><ele>652.0</ele><time>2026-05-01T14:14:48.737Z</time></trkpt><trkpt lat="43.5321339" lon="12.3686166"><ele>652.0</ele><time>2026-05-01T14:14:49.749Z</time></trkpt><trkpt lat="43.5321177" lon="12.3687476"><ele>652.0</ele><time>2026-05-01T14:14:50.757Z</time></trkpt><trkpt lat="43.5320817" lon="12.3688895"><ele>652.0</ele><time>2026-05-01T14:14:51.743Z</time></trkpt><trkpt lat="43.532041" lon="12.3690259"><ele>652.0</ele><time>2026-05-01T14:14:52.748Z</time></trkpt><trkpt lat="43.5320389" lon="12.3691511"><ele>652.0</ele><time>2026-05-01T14:14:53.741Z</time></trkpt><trkpt lat="43.5320677" lon="12.3692631"><ele>652.0</ele><time>2026-05-01T14:14:54.748Z</time></trkpt><trkpt lat="43.5321366" lon="12.3693642"><ele>652.0</ele><time>2026-05-01T14:14:55.741Z</time></trkpt><trkpt lat="43.5322409" lon="12.3694263"><ele>652.0</ele><time>2026-05-01T14:14:56.741Z</time></trkpt><trkpt lat="43.5323598" lon="12.3694483"><ele>652.0</ele><time>2026-05-01T14:14:57.745Z</time></trkpt><trkpt lat="43.5325031" lon="12.3694632"><ele>652.0</ele><time>2026-05-01T14:14:58.749Z</time></trkpt><trkpt lat="43.5326667" lon="12.3694727"><ele>652.0</ele><time>2026-05-01T14:14:59.76Z</time></trkpt><trkpt lat="43.5328357" lon="12.3694816"><ele>652.0</ele><time>2026-05-01T14:15:00.75Z</time></trkpt><trkpt lat="43.5329945" lon="12.369497"><ele>655.0</ele><time>2026-05-01T14:15:01.755Z</time></trkpt><trkpt lat="43.5331463" lon="12.3695172"><ele>658.0</ele><time>2026-05-01T14:15:02.749Z</time></trkpt><trkpt lat="43.5332958" lon="12.3695775"><ele>661.0</ele><time>2026-05-01T14:15:03.75Z</time></trkpt><trkpt lat="43.5334369" lon="12.3696915"><ele>654.0</ele><time>2026-05-01T14:15:04.767Z</time></trkpt><trkpt lat="43.5335652" lon="12.3698116"><ele>647.0</ele><time>2026-05-01T14:15:05.763Z</time></trkpt><trkpt lat="43.5336863" lon="12.3699296"><ele>640.0</ele><time>2026-05-01T14:15:06.755Z</time></trkpt><trkpt lat="43.533821" lon="12.370027"><ele>640.0</ele><time>2026-05-01T14:15:07.756Z</time></trkpt><trkpt lat="43.5341604" lon="12.3701031"><ele>640.0</ele><time>2026-05-01T14:15:09.744Z</time></trkpt><trkpt lat="43.5343469" lon="12.3701246"><ele>640.0</ele><time>2026-05-01T14:15:10.76Z</time></trkpt><trkpt lat="43.5345308" lon="12.3701388"><ele>640.0</ele><time>2026-05-01T14:15:11.745Z</time></trkpt><trkpt lat="43.5347207" lon="12.3701437"><ele>640.0</ele><time>2026-05-01T14:15:12.744Z</time></trkpt><trkpt lat="43.5349025" lon="12.3701596"><ele>639.3333333333334</ele><time>2026-05-01T14:15:13.744Z</time></trkpt><trkpt lat="43.5350902" lon="12.3701857"><ele>638.6666666666666</ele><time>2026-05-01T14:15:14.74Z</time></trkpt><trkpt lat="43.5352765" lon="12.3702429"><ele>638.0</ele><time>2026-05-01T14:15:15.759Z</time></trkpt><trkpt lat="43.5354494" lon="12.3703217"><ele>639.6666666666666</ele><time>2026-05-01T14:15:16.737Z</time></trkpt><trkpt lat="43.5356086" lon="12.3704046"><ele>641.3333333333334</ele><time>2026-05-01T14:15:17.742Z</time></trkpt><trkpt lat="43.5357601" lon="12.3704989"><ele>643.0</ele><time>2026-05-01T14:15:18.735Z</time></trkpt><trkpt lat="43.5358997" lon="12.3706081"><ele>637.0</ele><time>2026-05-01T14:15:19.741Z</time></trkpt><trkpt lat="43.5360256" lon="12.3707311"><ele>631.0</ele><time>2026-05-01T14:15:20.754Z</time></trkpt><trkpt lat="43.5361463" lon="12.3708559"><ele>625.0</ele><time>2026-05-01T14:15:21.742Z</time></trkpt><trkpt lat="43.5362758" lon="12.3709626"><ele>625.0</ele><time>2026-05-01T14:15:22.741Z</time></trkpt><trkpt lat="43.5364228" lon="12.3710553"><ele>625.0</ele><time>2026-05-01T14:15:23.753Z</time></trkpt><trkpt lat="43.5365842" lon="12.3711371"><ele>625.0</ele><time>2026-05-01T14:15:24.746Z</time></trkpt><trkpt lat="43.536757" lon="12.3711975"><ele>625.0</ele><time>2026-05-01T14:15:25.753Z</time></trkpt><trkpt lat="43.5369427" lon="12.3712271"><ele>625.0</ele><time>2026-05-01T14:15:26.739Z</time></trkpt><trkpt lat="43.5371335" lon="12.3712483"><ele>625.0</ele><time>2026-05-01T14:15:27.75Z</time></trkpt><trkpt lat="43.5373319" lon="12.3712691"><ele>622.5</ele><time>2026-05-01T14:15:28.748Z</time></trkpt><trkpt lat="43.537721" lon="12.3713194"><ele>620.0</ele><time>2026-05-01T14:15:30.755Z</time></trkpt><trkpt lat="43.5379053" lon="12.3713515"><ele>614.3333333333333</ele><time>2026-05-01T14:15:31.746Z</time></trkpt><trkpt lat="43.5380942" lon="12.3713737"><ele>608.6666666666666</ele><time>2026-05-01T14:15:32.76Z</time></trkpt><trkpt lat="43.5382794" lon="12.3713975"><ele>603.0</ele><time>2026-05-01T14:15:33.744Z</time></trkpt><trkpt lat="43.5384659" lon="12.3714205"><ele>603.0</ele><time>2026-05-01T14:15:34.75Z</time></trkpt><trkpt lat="43.5386536" lon="12.3714297"><ele>603.0</ele><time>2026-05-01T14:15:35.748Z</time></trkpt><trkpt lat="43.5388478" lon="12.3714267"><ele>603.0</ele><time>2026-05-01T14:15:36.745Z</time></trkpt><trkpt lat="43.5390534" lon="12.3714126"><ele>602.3333333333334</ele><time>2026-05-01T14:15:37.745Z</time></trkpt><trkpt lat="43.5392656" lon="12.3713914"><ele>601.6666666666667</ele><time>2026-05-01T14:15:38.751Z</time></trkpt><trkpt lat="43.5394706" lon="12.3713773"><ele>601.0</ele><time>2026-05-01T14:15:39.759Z</time></trkpt><trkpt lat="43.5396752" lon="12.3713714"><ele>598.3333333333334</ele><time>2026-05-01T14:15:40.762Z</time></trkpt><trkpt lat="43.539878" lon="12.3713704"><ele>595.6666666666666</ele><time>2026-05-01T14:15:41.764Z</time></trkpt><trkpt lat="43.5400694" lon="12.3713635"><ele>593.0</ele><time>2026-05-01T14:15:42.741Z</time></trkpt><trkpt lat="43.5402382" lon="12.3713588"><ele>593.25</ele><time>2026-05-01T14:15:43.752Z</time></trkpt><trkpt lat="43.5403992" lon="12.3713563"><ele>593.5</ele><time>2026-05-01T14:15:44.749Z</time></trkpt><trkpt lat="43.5405341" lon="12.3713562"><ele>593.75</ele><time>2026-05-01T14:15:45.746Z</time></trkpt><trkpt lat="43.5406528" lon="12.3713424"><ele>594.0</ele><time>2026-05-01T14:15:46.745Z</time></trkpt><trkpt lat="43.5407566" lon="12.3712991"><ele>594.0</ele><time>2026-05-01T14:15:47.759Z</time></trkpt><trkpt lat="43.5408396" lon="12.3712195"><ele>594.0</ele><time>2026-05-01T14:15:48.746Z</time></trkpt><trkpt lat="43.540893" lon="12.3710966"><ele>594.0</ele><time>2026-05-01T14:15:49.742Z</time></trkpt><trkpt lat="43.5409123" lon="12.3707714"><ele>594.0</ele><time>2026-05-01T14:15:51.758Z</time></trkpt><trkpt lat="43.5409071" lon="12.3705649"><ele>596.0</ele><time>2026-05-01T14:15:52.741Z</time></trkpt><trkpt lat="43.5409184" lon="12.3703487"><ele>598.0</ele><time>2026-05-01T14:15:53.749Z</time></trkpt><trkpt lat="43.5409417" lon="12.3701481"><ele>600.0</ele><time>2026-05-01T14:15:54.759Z</time></trkpt><trkpt lat="43.5409905" lon="12.3699658"><ele>602.0</ele><time>2026-05-01T14:15:55.756Z</time></trkpt><trkpt lat="43.541068" lon="12.36981"><ele>605.0</ele><time>2026-05-01T14:15:56.749Z</time></trkpt><trkpt lat="43.5411762" lon="12.3696603"><ele>608.0</ele><time>2026-05-01T14:15:57.75Z</time></trkpt><trkpt lat="43.5413018" lon="12.3695419"><ele>611.0</ele><time>2026-05-01T14:15:58.746Z</time></trkpt><trkpt lat="43.5414333" lon="12.3694514"><ele>603.75</ele><time>2026-05-01T14:15:59.75Z</time></trkpt><trkpt lat="43.5415488" lon="12.3693613"><ele>596.5</ele><time>2026-05-01T14:16:00.754Z</time></trkpt><trkpt lat="43.5416413" lon="12.3692587"><ele>589.25</ele><time>2026-05-01T14:16:01.757Z</time></trkpt><trkpt lat="43.5417164" lon="12.3691096"><ele>582.0</ele><time>2026-05-01T14:16:02.752Z</time></trkpt><trkpt lat="43.5417571" lon="12.3689202"><ele>581.5</ele><time>2026-05-01T14:16:03.742Z</time></trkpt><trkpt lat="43.541794" lon="12.3687225"><ele>581.0</ele><time>2026-05-01T14:16:04.748Z</time></trkpt><trkpt lat="43.5418413" lon="12.3685556"><ele>580.5</ele><time>2026-05-01T14:16:05.75Z</time></trkpt><trkpt lat="43.5419055" lon="12.3684236"><ele>580.0</ele><time>2026-05-01T14:16:06.751Z</time></trkpt><trkpt lat="43.5419785" lon="12.3683318"><ele>581.5</ele><time>2026-05-01T14:16:07.762Z</time></trkpt><trkpt lat="43.5420668" lon="12.3682739"><ele>583.0</ele><time>2026-05-01T14:16:08.744Z</time></trkpt><trkpt lat="43.5421591" lon="12.3682603"><ele>584.5</ele><time>2026-05-01T14:16:09.749Z</time></trkpt><trkpt lat="43.5422651" lon="12.3682939"><ele>586.0</ele><time>2026-05-01T14:16:10.757Z</time></trkpt><trkpt lat="43.542468" lon="12.3684882"><ele>586.0</ele><time>2026-05-01T14:16:12.746Z</time></trkpt><trkpt lat="43.5425605" lon="12.3686289"><ele>586.0</ele><time>2026-05-01T14:16:13.744Z</time></trkpt><trkpt lat="43.5426575" lon="12.3687824"><ele>586.0</ele><time>2026-05-01T14:16:14.744Z</time></trkpt><trkpt lat="43.5427651" lon="12.3689385"><ele>586.0</ele><time>2026-05-01T14:16:15.749Z</time></trkpt><trkpt lat="43.5428815" lon="12.3691012"><ele>586.6666666666667</ele><time>2026-05-01T14:16:16.743Z</time></trkpt><trkpt lat="43.5429988" lon="12.369254"><ele>587.3333333333334</ele><time>2026-05-01T14:16:17.743Z</time></trkpt><trkpt lat="43.5431264" lon="12.3693978"><ele>588.0</ele><time>2026-05-01T14:16:18.745Z</time></trkpt><trkpt lat="43.5432662" lon="12.369536"><ele>588.0</ele><time>2026-05-01T14:16:19.751Z</time></trkpt><trkpt lat="43.5434164" lon="12.369675"><ele>588.0</ele><time>2026-05-01T14:16:20.748Z</time></trkpt><trkpt lat="43.5435757" lon="12.3697997"><ele>588.0</ele><time>2026-05-01T14:16:21.748Z</time></trkpt><trkpt lat="43.5437517" lon="12.3699073"><ele>584.0</ele><time>2026-05-01T14:16:22.746Z</time></trkpt><trkpt lat="43.5439467" lon="12.3699969"><ele>580.0</ele><time>2026-05-01T14:16:23.744Z</time></trkpt><trkpt lat="43.5441498" lon="12.3700919"><ele>576.0</ele><time>2026-05-01T14:16:24.741Z</time></trkpt><trkpt lat="43.5443674" lon="12.3701886"><ele>576.3333333333334</ele><time>2026-05-01T14:16:25.751Z</time></trkpt><trkpt lat="43.5445801" lon="12.37028"><ele>576.6666666666667</ele><time>2026-05-01T14:16:26.741Z</time></trkpt><trkpt lat="43.5447848" lon="12.3703703"><ele>577.0</ele><time>2026-05-01T14:16:27.749Z</time></trkpt><trkpt lat="43.5449865" lon="12.3704616"><ele>572.6666666666667</ele><time>2026-05-01T14:16:28.742Z</time></trkpt><trkpt lat="43.5451882" lon="12.3705518"><ele>568.3333333333334</ele><time>2026-05-01T14:16:29.741Z</time></trkpt><trkpt lat="43.5453862" lon="12.3706386"><ele>564.0</ele><time>2026-05-01T14:16:30.753Z</time></trkpt><trkpt lat="43.5455803" lon="12.3707283"><ele>560.5</ele><time>2026-05-01T14:16:31.751Z</time></trkpt><trkpt lat="43.5459328" lon="12.3708933"><ele>557.0</ele><time>2026-05-01T14:16:33.747Z</time></trkpt><trkpt lat="43.5460986" lon="12.3709834"><ele>556.3333333333333</ele><time>2026-05-01T14:16:34.747Z</time></trkpt><trkpt lat="43.546261" lon="12.3710947"><ele>555.6666666666666</ele><time>2026-05-01T14:16:35.751Z</time></trkpt><trkpt lat="43.5464062" lon="12.3712465"><ele>555.0</ele><time>2026-05-01T14:16:36.746Z</time></trkpt><trkpt lat="43.5465352" lon="12.3714236"><ele>554.0</ele><time>2026-05-01T14:16:37.745Z</time></trkpt><trkpt lat="43.5466617" lon="12.3716106"><ele>553.0</ele><time>2026-05-01T14:16:38.747Z</time></trkpt><trkpt lat="43.5467941" lon="12.3718159"><ele>552.0</ele><time>2026-05-01T14:16:39.746Z</time></trkpt><trkpt lat="43.5469374" lon="12.3720239"><ele>554.0</ele><time>2026-05-01T14:16:40.749Z</time></trkpt><trkpt lat="43.5470826" lon="12.3722352"><ele>556.0</ele><time>2026-05-01T14:16:41.755Z</time></trkpt><trkpt lat="43.5472304" lon="12.3724522"><ele>558.0</ele><time>2026-05-01T14:16:42.739Z</time></trkpt><trkpt lat="43.5473792" lon="12.3726712"><ele>558.0</ele><time>2026-05-01T14:16:43.747Z</time></trkpt><trkpt lat="43.5475271" lon="12.3728873"><ele>558.0</ele><time>2026-05-01T14:16:44.747Z</time></trkpt><trkpt lat="43.5476765" lon="12.3731049"><ele>558.0</ele><time>2026-05-01T14:16:45.744Z</time></trkpt><trkpt lat="43.5478349" lon="12.3733327"><ele>559.5</ele><time>2026-05-01T14:16:46.746Z</time></trkpt><trkpt lat="43.547996" lon="12.3735689"><ele>561.0</ele><time>2026-05-01T14:16:47.747Z</time></trkpt><trkpt lat="43.5481579" lon="12.3738066"><ele>556.0</ele><time>2026-05-01T14:16:48.745Z</time></trkpt><trkpt lat="43.5483225" lon="12.3740431"><ele>551.0</ele><time>2026-05-01T14:16:49.747Z</time></trkpt><trkpt lat="43.5484891" lon="12.3742813"><ele>551.0</ele><time>2026-05-01T14:16:50.742Z</time></trkpt><trkpt lat="43.5486591" lon="12.3745229"><ele>551.0</ele><time>2026-05-01T14:16:51.749Z</time></trkpt><trkpt lat="43.5488316" lon="12.3747581"><ele>556.0</ele><time>2026-05-01T14:16:52.744Z</time></trkpt><trkpt lat="43.5491617" lon="12.3752263"><ele>556.0</ele><time>2026-05-01T14:16:54.738Z</time></trkpt><trkpt lat="43.5493242" lon="12.375461"><ele>556.0</ele><time>2026-05-01T14:16:55.74Z</time></trkpt><trkpt lat="43.5494805" lon="12.3756919"><ele>557.6666666666667</ele><time>2026-05-01T14:16:56.745Z</time></trkpt><trkpt lat="43.5496308" lon="12.3759136"><ele>559.3333333333334</ele><time>2026-05-01T14:16:57.756Z</time></trkpt><trkpt lat="43.5497792" lon="12.3761266"><ele>561.0</ele><time>2026-05-01T14:16:58.749Z</time></trkpt><trkpt lat="43.5499275" lon="12.3763396"><ele>556.0</ele><time>2026-05-01T14:16:59.748Z</time></trkpt><trkpt lat="43.5500719" lon="12.3765438"><ele>551.0</ele><time>2026-05-01T14:17:00.748Z</time></trkpt><trkpt lat="43.5502097" lon="12.3767353"><ele>546.0</ele><time>2026-05-01T14:17:01.744Z</time></trkpt><trkpt lat="43.5503433" lon="12.3769103"><ele>547.0</ele><time>2026-05-01T14:17:02.744Z</time></trkpt><trkpt lat="43.5504714" lon="12.3770785"><ele>548.0</ele><time>2026-05-01T14:17:03.76Z</time></trkpt><trkpt lat="43.550593" lon="12.3772454"><ele>549.0</ele><time>2026-05-01T14:17:04.737Z</time></trkpt><trkpt lat="43.5507214" lon="12.3774152"><ele>549.0</ele><time>2026-05-01T14:17:05.753Z</time></trkpt><trkpt lat="43.5508544" lon="12.3775914"><ele>549.0</ele><time>2026-05-01T14:17:06.738Z</time></trkpt><trkpt lat="43.5509966" lon="12.3777748"><ele>549.0</ele><time>2026-05-01T14:17:07.747Z</time></trkpt><trkpt lat="43.551145" lon="12.3779612"><ele>548.6666666666666</ele><time>2026-05-01T14:17:08.747Z</time></trkpt><trkpt lat="43.5512952" lon="12.3781581"><ele>548.3333333333333</ele><time>2026-05-01T14:17:09.748Z</time></trkpt><trkpt lat="43.5514444" lon="12.3783584"><ele>548.0</ele><time>2026-05-01T14:17:10.748Z</time></trkpt><trkpt lat="43.5515892" lon="12.3785593"><ele>548.0</ele><time>2026-05-01T14:17:11.756Z</time></trkpt><trkpt lat="43.5517317" lon="12.3787515"><ele>548.0</ele><time>2026-05-01T14:17:12.746Z</time></trkpt><trkpt lat="43.5518746" lon="12.3789388"><ele>548.0</ele><time>2026-05-01T14:17:13.743Z</time></trkpt><trkpt lat="43.5521746" lon="12.3793143"><ele>549.0</ele><time>2026-05-01T14:17:15.748Z</time></trkpt><trkpt lat="43.5523218" lon="12.379496"><ele>550.0</ele><time>2026-05-01T14:17:16.756Z</time></trkpt><trkpt lat="43.5524623" lon="12.3796682"><ele>551.0</ele><time>2026-05-01T14:17:17.753Z</time></trkpt><trkpt lat="43.5526034" lon="12.3798298"><ele>549.6666666666666</ele><time>2026-05-01T14:17:18.749Z</time></trkpt><trkpt lat="43.5527496" lon="12.3800009"><ele>548.3333333333334</ele><time>2026-05-01T14:17:19.747Z</time></trkpt><trkpt lat="43.5528913" lon="12.380179"><ele>547.0</ele><time>2026-05-01T14:17:20.737Z</time></trkpt><trkpt lat="43.5530172" lon="12.3803732"><ele>542.0</ele><time>2026-05-01T14:17:21.751Z</time></trkpt><trkpt lat="43.553116" lon="12.3805814"><ele>537.0</ele><time>2026-05-01T14:17:22.737Z</time></trkpt><trkpt lat="43.5531988" lon="12.3807939"><ele>532.0</ele><time>2026-05-01T14:17:23.746Z</time></trkpt><trkpt lat="43.553266" lon="12.3810134"><ele>532.0</ele><time>2026-05-01T14:17:24.742Z</time></trkpt><trkpt lat="43.5533265" lon="12.3812195"><ele>532.0</ele><time>2026-05-01T14:17:25.761Z</time></trkpt><trkpt lat="43.5533821" lon="12.3814082"><ele>532.0</ele><time>2026-05-01T14:17:26.75Z</time></trkpt><trkpt lat="43.553429" lon="12.3815889"><ele>532.0</ele><time>2026-05-01T14:17:27.749Z</time></trkpt><trkpt lat="43.5534468" lon="12.3817821"><ele>531.5</ele><time>2026-05-01T14:17:28.75Z</time></trkpt><trkpt lat="43.5534439" lon="12.3819693"><ele>531.0</ele><time>2026-05-01T14:17:29.746Z</time></trkpt><trkpt lat="43.5534029" lon="12.3821492"><ele>530.5</ele><time>2026-05-01T14:17:30.753Z</time></trkpt><trkpt lat="43.5533299" lon="12.3823307"><ele>530.0</ele><time>2026-05-01T14:17:31.749Z</time></trkpt><trkpt lat="43.5532383" lon="12.3825198"><ele>531.6666666666666</ele><time>2026-05-01T14:17:32.737Z</time></trkpt><trkpt lat="43.5531212" lon="12.3827218"><ele>533.3333333333334</ele><time>2026-05-01T14:17:33.742Z</time></trkpt><trkpt lat="43.5530194" lon="12.3829285"><ele>535.0</ele><time>2026-05-01T14:17:34.74Z</time></trkpt><trkpt lat="43.5528715" lon="12.38333"><ele>535.0</ele><time>2026-05-01T14:17:36.74Z</time></trkpt><trkpt lat="43.5528456" lon="12.3835386"><ele>535.0</ele><time>2026-05-01T14:17:37.748Z</time></trkpt><trkpt lat="43.5528429" lon="12.3837659"><ele>535.0</ele><time>2026-05-01T14:17:38.739Z</time></trkpt><trkpt lat="43.5528527" lon="12.3840155"><ele>534.0</ele><time>2026-05-01T14:17:39.743Z</time></trkpt><trkpt lat="43.5528665" lon="12.3842937"><ele>533.0</ele><time>2026-05-01T14:17:40.753Z</time></trkpt><trkpt lat="43.5528727" lon="12.3845833"><ele>532.0</ele><time>2026-05-01T14:17:41.746Z</time></trkpt><trkpt lat="43.5528788" lon="12.3848657"><ele>544.0</ele><time>2026-05-01T14:17:42.746Z</time></trkpt><trkpt lat="43.5528841" lon="12.3851495"><ele>556.0</ele><time>2026-05-01T14:17:43.745Z</time></trkpt><trkpt lat="43.5528901" lon="12.3854247"><ele>568.0</ele><time>2026-05-01T14:17:44.738Z</time></trkpt><trkpt lat="43.5528927" lon="12.3856882"><ele>568.3333333333334</ele><time>2026-05-01T14:17:45.751Z</time></trkpt><trkpt lat="43.5528805" lon="12.3859443"><ele>568.6666666666666</ele><time>2026-05-01T14:17:46.742Z</time></trkpt><trkpt lat="43.5528509" lon="12.3861921"><ele>569.0</ele><time>2026-05-01T14:17:47.747Z</time></trkpt><trkpt lat="43.5528114" lon="12.3864351"><ele>561.0</ele><time>2026-05-01T14:17:48.747Z</time></trkpt><trkpt lat="43.5527581" lon="12.3866865"><ele>553.0</ele><time>2026-05-01T14:17:49.74Z</time></trkpt><trkpt lat="43.5527054" lon="12.3869371"><ele>545.0</ele><time>2026-05-01T14:17:50.738Z</time></trkpt><trkpt lat="43.5526492" lon="12.3871931"><ele>545.0</ele><time>2026-05-01T14:17:51.755Z</time></trkpt><trkpt lat="43.5525902" lon="12.3874256"><ele>545.0</ele><time>2026-05-01T14:17:52.742Z</time></trkpt><trkpt lat="43.5525212" lon="12.3876138"><ele>545.0</ele><time>2026-05-01T14:17:53.748Z</time></trkpt><trkpt lat="43.5524455" lon="12.387777"><ele>545.0</ele><time>2026-05-01T14:17:54.743Z</time></trkpt><trkpt lat="43.5523826" lon="12.3879447"><ele>545.0</ele><time>2026-05-01T14:17:55.744Z</time></trkpt><trkpt lat="43.5523435" lon="12.3883422"><ele>545.0</ele><time>2026-05-01T14:17:57.747Z</time></trkpt><trkpt lat="43.552362" lon="12.3885886"><ele>547.3333333333333</ele><time>2026-05-01T14:17:58.744Z</time></trkpt><trkpt lat="43.5523885" lon="12.3888156"><ele>549.6666666666666</ele><time>2026-05-01T14:17:59.746Z</time></trkpt><trkpt lat="43.5523957" lon="12.3890516"><ele>552.0</ele><time>2026-05-01T14:18:00.747Z</time></trkpt><trkpt lat="43.5523825" lon="12.3892848"><ele>552.0</ele><time>2026-05-01T14:18:01.754Z</time></trkpt><trkpt lat="43.5523348" lon="12.3895164"><ele>552.0</ele><time>2026-05-01T14:18:02.749Z</time></trkpt><trkpt lat="43.552257" lon="12.3897395"><ele>552.0</ele><time>2026-05-01T14:18:03.748Z</time></trkpt><trkpt lat="43.5521671" lon="12.3899786"><ele>554.3333333333334</ele><time>2026-05-01T14:18:04.743Z</time></trkpt><trkpt lat="43.5520661" lon="12.3902014"><ele>556.6666666666667</ele><time>2026-05-01T14:18:05.747Z</time></trkpt><trkpt lat="43.55196" lon="12.3904158"><ele>559.0</ele><time>2026-05-01T14:18:06.736Z</time></trkpt><trkpt lat="43.5518557" lon="12.3906127"><ele>551.6666666666667</ele><time>2026-05-01T14:18:07.749Z</time></trkpt><trkpt lat="43.5517442" lon="12.3907958"><ele>544.3333333333334</ele><time>2026-05-01T14:18:08.746Z</time></trkpt><trkpt lat="43.5516225" lon="12.3909605"><ele>537.0</ele><time>2026-05-01T14:18:09.747Z</time></trkpt><trkpt lat="43.5514863" lon="12.3911027"><ele>537.0</ele><time>2026-05-01T14:18:10.744Z</time></trkpt><trkpt lat="43.551347" lon="12.3912445"><ele>537.0</ele><time>2026-05-01T14:18:11.745Z</time></trkpt><trkpt lat="43.5512075" lon="12.3914068"><ele>537.0</ele><time>2026-05-01T14:18:12.736Z</time></trkpt><trkpt lat="43.5510725" lon="12.3915961"><ele>537.6666666666666</ele><time>2026-05-01T14:18:13.744Z</time></trkpt><trkpt lat="43.5509303" lon="12.3918025"><ele>538.3333333333333</ele><time>2026-05-01T14:18:14.736Z</time></trkpt><trkpt lat="43.5507914" lon="12.3920062"><ele>539.0</ele><time>2026-05-01T14:18:15.742Z</time></trkpt><trkpt lat="43.5506585" lon="12.3922001"><ele>539.0</ele><time>2026-05-01T14:18:16.746Z</time></trkpt><trkpt lat="43.5504231" lon="12.3925561"><ele>539.0</ele><time>2026-05-01T14:18:18.74Z</time></trkpt><trkpt lat="43.5503282" lon="12.3927306"><ele>534.0</ele><time>2026-05-01T14:18:19.748Z</time></trkpt><trkpt lat="43.5502473" lon="12.3929062"><ele>529.0</ele><time>2026-05-01T14:18:20.744Z</time></trkpt><trkpt lat="43.5501809" lon="12.3930923"><ele>524.0</ele><time>2026-05-01T14:18:21.75Z</time></trkpt><trkpt lat="43.5501387" lon="12.393299"><ele>524.0</ele><time>2026-05-01T14:18:22.74Z</time></trkpt><trkpt lat="43.5501156" lon="12.3935254"><ele>524.0</ele><time>2026-05-01T14:18:23.754Z</time></trkpt><trkpt lat="43.5501058" lon="12.3937455"><ele>524.0</ele><time>2026-05-01T14:18:24.746Z</time></trkpt><trkpt lat="43.5501276" lon="12.3939746"><ele>525.0</ele><time>2026-05-01T14:18:25.745Z</time></trkpt><trkpt lat="43.5501742" lon="12.3942135"><ele>526.0</ele><time>2026-05-01T14:18:26.742Z</time></trkpt><trkpt lat="43.5502509" lon="12.3944657"><ele>527.0</ele><time>2026-05-01T14:18:27.751Z</time></trkpt><trkpt lat="43.5503458" lon="12.3947288"><ele>529.3333333333333</ele><time>2026-05-01T14:18:28.738Z</time></trkpt><trkpt lat="43.5504326" lon="12.3950069"><ele>531.6666666666666</ele><time>2026-05-01T14:18:29.744Z</time></trkpt><trkpt lat="43.5505106" lon="12.3952737"><ele>534.0</ele><time>2026-05-01T14:18:30.76Z</time></trkpt><trkpt lat="43.5505798" lon="12.3955353"><ele>534.0</ele><time>2026-05-01T14:18:31.761Z</time></trkpt><trkpt lat="43.5506279" lon="12.3958048"><ele>534.0</ele><time>2026-05-01T14:18:32.748Z</time></trkpt><trkpt lat="43.5506684" lon="12.3960746"><ele>534.0</ele><time>2026-05-01T14:18:33.759Z</time></trkpt><trkpt lat="43.5507089" lon="12.3963424"><ele>530.6666666666666</ele><time>2026-05-01T14:18:34.76Z</time></trkpt><trkpt lat="43.5507629" lon="12.3966252"><ele>527.3333333333333</ele><time>2026-05-01T14:18:35.752Z</time></trkpt><trkpt lat="43.5508292" lon="12.3969003"><ele>524.0</ele><time>2026-05-01T14:18:36.749Z</time></trkpt><trkpt lat="43.550908" lon="12.3971531"><ele>518.0</ele><time>2026-05-01T14:18:37.747Z</time></trkpt><trkpt lat="43.551046" lon="12.397656"><ele>512.0</ele><time>2026-05-01T14:18:39.75Z</time></trkpt><trkpt lat="43.5511077" lon="12.3979009"><ele>509.0</ele><time>2026-05-01T14:18:40.761Z</time></trkpt><trkpt lat="43.5511496" lon="12.398144"><ele>506.0</ele><time>2026-05-01T14:18:41.754Z</time></trkpt><trkpt lat="43.5511692" lon="12.3983864"><ele>503.0</ele><time>2026-05-01T14:18:42.745Z</time></trkpt><trkpt lat="43.5511887" lon="12.3986246"><ele>502.3333333333333</ele><time>2026-05-01T14:18:43.745Z</time></trkpt><trkpt lat="43.5511972" lon="12.3988754"><ele>501.66666666666663</ele><time>2026-05-01T14:18:44.754Z</time></trkpt><trkpt lat="43.5512006" lon="12.3991145"><ele>501.0</ele><time>2026-05-01T14:18:45.76Z</time></trkpt><trkpt lat="43.5512087" lon="12.3993202"><ele>506.0</ele><time>2026-05-01T14:18:46.751Z</time></trkpt><trkpt lat="43.551223" lon="12.3995219"><ele>511.0</ele><time>2026-05-01T14:18:47.743Z</time></trkpt><trkpt lat="43.5512519" lon="12.399725"><ele>516.0</ele><time>2026-05-01T14:18:48.749Z</time></trkpt><trkpt lat="43.5512899" lon="12.3999296"><ele>516.6666666666666</ele><time>2026-05-01T14:18:49.756Z</time></trkpt><trkpt lat="43.5513484" lon="12.4001364"><ele>517.3333333333333</ele><time>2026-05-01T14:18:50.743Z</time></trkpt><trkpt lat="43.5514291" lon="12.400349"><ele>518.0</ele><time>2026-05-01T14:18:51.751Z</time></trkpt><trkpt lat="43.5515221" lon="12.4005565"><ele>514.6666666666666</ele><time>2026-05-01T14:18:52.75Z</time></trkpt><trkpt lat="43.5516299" lon="12.4007813"><ele>511.33333333333337</ele><time>2026-05-01T14:18:53.751Z</time></trkpt><trkpt lat="43.5517436" lon="12.4010016"><ele>508.0</ele><time>2026-05-01T14:18:54.739Z</time></trkpt><trkpt lat="43.5518527" lon="12.4011949"><ele>510.6666666666667</ele><time>2026-05-01T14:18:55.748Z</time></trkpt><trkpt lat="43.5519627" lon="12.401364"><ele>513.3333333333334</ele><time>2026-05-01T14:18:56.761Z</time></trkpt><trkpt lat="43.5520803" lon="12.40153"><ele>516.0</ele><time>2026-05-01T14:18:57.759Z</time></trkpt><trkpt lat="43.5522126" lon="12.4016776"><ele>516.0</ele><time>2026-05-01T14:18:58.745Z</time></trkpt><trkpt lat="43.5525401" lon="12.4019313"><ele>516.0</ele><time>2026-05-01T14:19:00.754Z</time></trkpt><trkpt lat="43.5527106" lon="12.4020534"><ele>516.0</ele><time>2026-05-01T14:19:01.756Z</time></trkpt><trkpt lat="43.5528737" lon="12.4021833"><ele>516.0</ele><time>2026-05-01T14:19:02.741Z</time></trkpt><trkpt lat="43.5530224" lon="12.4023091"><ele>516.0</ele><time>2026-05-01T14:19:03.742Z</time></trkpt><trkpt lat="43.5531538" lon="12.4024559"><ele>516.0</ele><time>2026-05-01T14:19:04.768Z</time></trkpt><trkpt lat="43.5532696" lon="12.4026302"><ele>516.0</ele><time>2026-05-01T14:19:05.756Z</time></trkpt><trkpt lat="43.5533591" lon="12.4028257"><ele>516.0</ele><time>2026-05-01T14:19:06.778Z</time></trkpt><trkpt lat="43.5534227" lon="12.4030424"><ele>511.66666666666663</ele><time>2026-05-01T14:19:07.745Z</time></trkpt><trkpt lat="43.5534731" lon="12.4032842"><ele>507.3333333333333</ele><time>2026-05-01T14:19:08.756Z</time></trkpt><trkpt lat="43.5535258" lon="12.4035267"><ele>503.0</ele><time>2026-05-01T14:19:09.767Z</time></trkpt><trkpt lat="43.5535843" lon="12.4037537"><ele>500.3333333333333</ele><time>2026-05-01T14:19:10.76Z</time></trkpt><trkpt lat="43.5536449" lon="12.4039691"><ele>497.66666666666663</ele><time>2026-05-01T14:19:11.753Z</time></trkpt><trkpt lat="43.553698" lon="12.4041732"><ele>495.0</ele><time>2026-05-01T14:19:12.749Z</time></trkpt><trkpt lat="43.553756" lon="12.4043601"><ele>497.0</ele><time>2026-05-01T14:19:13.749Z</time></trkpt><trkpt lat="43.5538264" lon="12.4045318"><ele>499.0</ele><time>2026-05-01T14:19:14.756Z</time></trkpt><trkpt lat="43.5539266" lon="12.4046898"><ele>501.0</ele><time>2026-05-01T14:19:15.745Z</time></trkpt><trkpt lat="43.5540432" lon="12.4048456"><ele>501.0</ele><time>2026-05-01T14:19:16.74Z</time></trkpt><trkpt lat="43.5541686" lon="12.4050045"><ele>501.0</ele><time>2026-05-01T14:19:17.762Z</time></trkpt><trkpt lat="43.5543022" lon="12.4051705"><ele>501.0</ele><time>2026-05-01T14:19:18.759Z</time></trkpt><trkpt lat="43.554567" lon="12.4055126"><ele>502.33333333333337</ele><time>2026-05-01T14:19:20.757Z</time></trkpt><trkpt lat="43.5546961" lon="12.4056862"><ele>503.6666666666667</ele><time>2026-05-01T14:19:21.751Z</time></trkpt><trkpt lat="43.554814" lon="12.4058621"><ele>505.0</ele><time>2026-05-01T14:19:22.744Z</time></trkpt><trkpt lat="43.5549145" lon="12.4060494"><ele>505.0</ele><time>2026-05-01T14:19:23.75Z</time></trkpt><trkpt lat="43.5549967" lon="12.4062605"><ele>505.0</ele><time>2026-05-01T14:19:24.743Z</time></trkpt><trkpt lat="43.5550717" lon="12.4064937"><ele>505.0</ele><time>2026-05-01T14:19:25.748Z</time></trkpt><trkpt lat="43.5551581" lon="12.4067085"><ele>506.0</ele><time>2026-05-01T14:19:26.751Z</time></trkpt><trkpt lat="43.555272" lon="12.4069096"><ele>507.0</ele><time>2026-05-01T14:19:27.76Z</time></trkpt><trkpt lat="43.5553961" lon="12.4070908"><ele>508.0</ele><time>2026-05-01T14:19:28.747Z</time></trkpt><trkpt lat="43.5554999" lon="12.4072725"><ele>504.33333333333337</ele><time>2026-05-01T14:19:29.738Z</time></trkpt><trkpt lat="43.5556061" lon="12.4074358"><ele>500.66666666666663</ele><time>2026-05-01T14:19:30.741Z</time></trkpt><trkpt lat="43.5557075" lon="12.4075975"><ele>497.0</ele><time>2026-05-01T14:19:31.751Z</time></trkpt><trkpt lat="43.5558117" lon="12.4077624"><ele>497.0</ele><time>2026-05-01T14:19:32.74Z</time></trkpt><trkpt lat="43.5559192" lon="12.4079178"><ele>497.0</ele><time>2026-05-01T14:19:33.741Z</time></trkpt><trkpt lat="43.556031" lon="12.4080731"><ele>497.0</ele><time>2026-05-01T14:19:34.745Z</time></trkpt><trkpt lat="43.5561495" lon="12.4082281"><ele>495.66666666666663</ele><time>2026-05-01T14:19:35.75Z</time></trkpt><trkpt lat="43.5562721" lon="12.4083839"><ele>494.33333333333337</ele><time>2026-05-01T14:19:36.742Z</time></trkpt><trkpt lat="43.5564009" lon="12.408532"><ele>493.0</ele><time>2026-05-01T14:19:37.746Z</time></trkpt><trkpt lat="43.5565271" lon="12.4086735"><ele>493.0</ele><time>2026-05-01T14:19:38.742Z</time></trkpt><trkpt lat="43.5566542" lon="12.4088114"><ele>493.0</ele><time>2026-05-01T14:19:39.744Z</time></trkpt><trkpt lat="43.5569279" lon="12.4090794"><ele>493.0</ele><time>2026-05-01T14:19:41.746Z</time></trkpt><trkpt lat="43.5570591" lon="12.409203"><ele>493.0</ele><time>2026-05-01T14:19:42.749Z</time></trkpt><trkpt lat="43.5571811" lon="12.4093159"><ele>493.0</ele><time>2026-05-01T14:19:43.749Z</time></trkpt><trkpt lat="43.5572992" lon="12.4094273"><ele>493.0</ele><time>2026-05-01T14:19:44.755Z</time></trkpt><trkpt lat="43.5574165" lon="12.4095307"><ele>493.0</ele><time>2026-05-01T14:19:45.765Z</time></trkpt><trkpt lat="43.5575258" lon="12.4096306"><ele>493.0</ele><time>2026-05-01T14:19:46.756Z</time></trkpt><trkpt lat="43.5576383" lon="12.4097371"><ele>493.0</ele><time>2026-05-01T14:19:47.742Z</time></trkpt><trkpt lat="43.5577522" lon="12.40985"><ele>493.0</ele><time>2026-05-01T14:19:48.745Z</time></trkpt><trkpt lat="43.5578726" lon="12.4099637"><ele>492.0</ele><time>2026-05-01T14:19:49.746Z</time></trkpt><trkpt lat="43.5579908" lon="12.4100807"><ele>491.0</ele><time>2026-05-01T14:19:50.745Z</time></trkpt><trkpt lat="43.5580998" lon="12.4101836"><ele>490.0</ele><time>2026-05-01T14:19:51.745Z</time></trkpt><trkpt lat="43.5582" lon="12.4102845"><ele>489.0</ele><time>2026-05-01T14:19:52.744Z</time></trkpt><trkpt lat="43.5582947" lon="12.4103893"><ele>488.75</ele><time>2026-05-01T14:19:53.753Z</time></trkpt><trkpt lat="43.5583917" lon="12.4104968"><ele>488.5</ele><time>2026-05-01T14:19:54.749Z</time></trkpt><trkpt lat="43.5584887" lon="12.4106159"><ele>488.25</ele><time>2026-05-01T14:19:55.751Z</time></trkpt><trkpt lat="43.5585873" lon="12.4107523"><ele>488.0</ele><time>2026-05-01T14:19:56.742Z</time></trkpt><trkpt lat="43.5586755" lon="12.410904"><ele>493.3333333333333</ele><time>2026-05-01T14:19:57.749Z</time></trkpt><trkpt lat="43.5587621" lon="12.4110754"><ele>498.66666666666663</ele><time>2026-05-01T14:19:58.757Z</time></trkpt><trkpt lat="43.5588353" lon="12.4112717"><ele>504.0</ele><time>2026-05-01T14:19:59.761Z</time></trkpt><trkpt lat="43.5588984" lon="12.4114709"><ele>504.0</ele><time>2026-05-01T14:20:00.757Z</time></trkpt><trkpt lat="43.558993" lon="12.4118114"><ele>504.0</ele><time>2026-05-01T14:20:02.754Z</time></trkpt><trkpt lat="43.5590313" lon="12.4119555"><ele>504.0</ele><time>2026-05-01T14:20:03.755Z</time></trkpt><trkpt lat="43.559068" lon="12.4120999"><ele>501.79999999999995</ele><time>2026-05-01T14:20:04.756Z</time></trkpt><trkpt lat="43.5591073" lon="12.4122432"><ele>499.59999999999997</ele><time>2026-05-01T14:20:05.746Z</time></trkpt><trkpt lat="43.5591409" lon="12.4123892"><ele>497.4</ele><time>2026-05-01T14:20:06.753Z</time></trkpt><trkpt lat="43.5591747" lon="12.4125251"><ele>495.2</ele><time>2026-05-01T14:20:07.758Z</time></trkpt><trkpt lat="43.5592068" lon="12.4126435"><ele>493.0</ele><time>2026-05-01T14:20:08.751Z</time></trkpt><trkpt lat="43.5592358" lon="12.4127503"><ele>493.00000000000006</ele><time>2026-05-01T14:20:09.751Z</time></trkpt><trkpt lat="43.5592603" lon="12.4128594"><ele>493.0</ele><time>2026-05-01T14:20:10.757Z</time></trkpt><trkpt lat="43.5592885" lon="12.4129596"><ele>493.0</ele><time>2026-05-01T14:20:11.756Z</time></trkpt><trkpt lat="43.5593179" lon="12.4130657"><ele>493.0</ele><time>2026-05-01T14:20:12.747Z</time></trkpt><trkpt lat="43.5593464" lon="12.4131756"><ele>493.00000000000006</ele><time>2026-05-01T14:20:13.751Z</time></trkpt><trkpt lat="43.5593813" lon="12.4133029"><ele>493.0</ele><time>2026-05-01T14:20:14.752Z</time></trkpt><trkpt lat="43.5594194" lon="12.413443"><ele>491.59999999999997</ele><time>2026-05-01T14:20:15.76Z</time></trkpt><trkpt lat="43.5594562" lon="12.4135802"><ele>490.19999999999993</ele><time>2026-05-01T14:20:16.756Z</time></trkpt><trkpt lat="43.5594874" lon="12.4137094"><ele>488.8</ele><time>2026-05-01T14:20:17.747Z</time></trkpt><trkpt lat="43.5595145" lon="12.4138254"><ele>487.4</ele><time>2026-05-01T14:20:18.753Z</time></trkpt><trkpt lat="43.5595446" lon="12.4139444"><ele>486.0</ele><time>2026-05-01T14:20:19.753Z</time></trkpt><trkpt lat="43.5595694" lon="12.4140801"><ele>489.0</ele><time>2026-05-01T14:20:20.752Z</time></trkpt><trkpt lat="43.5595822" lon="12.4142237"><ele>492.0</ele><time>2026-05-01T14:20:21.747Z</time></trkpt><trkpt lat="43.5595787" lon="12.4144943"><ele>495.0</ele><time>2026-05-01T14:20:23.754Z</time></trkpt><trkpt lat="43.559572" lon="12.4146173"><ele>498.0</ele><time>2026-05-01T14:20:24.747Z</time></trkpt><trkpt lat="43.5595615" lon="12.4147434"><ele>498.0</ele><time>2026-05-01T14:20:25.76Z</time></trkpt><trkpt lat="43.5595564" lon="12.4148698"><ele>498.0</ele><time>2026-05-01T14:20:26.742Z</time></trkpt><trkpt lat="43.5595509" lon="12.4149866"><ele>498.0</ele><time>2026-05-01T14:20:27.744Z</time></trkpt><trkpt lat="43.559548" lon="12.4151028"><ele>498.0</ele><time>2026-05-01T14:20:28.74Z</time></trkpt><trkpt lat="43.5595525" lon="12.4152264"><ele>498.0</ele><time>2026-05-01T14:20:29.746Z</time></trkpt><trkpt lat="43.5595657" lon="12.4153404"><ele>498.0</ele><time>2026-05-01T14:20:30.742Z</time></trkpt><trkpt lat="43.559595" lon="12.41546"><ele>497.25</ele><time>2026-05-01T14:20:31.743Z</time></trkpt><trkpt lat="43.5596405" lon="12.4155845"><ele>496.5</ele><time>2026-05-01T14:20:32.765Z</time></trkpt><trkpt lat="43.5596975" lon="12.4157197"><ele>495.75</ele><time>2026-05-01T14:20:33.752Z</time></trkpt><trkpt lat="43.5597645" lon="12.4158642"><ele>495.0</ele><time>2026-05-01T14:20:34.742Z</time></trkpt><trkpt lat="43.5598252" lon="12.4160127"><ele>495.0</ele><time>2026-05-01T14:20:35.757Z</time></trkpt><trkpt lat="43.5598771" lon="12.4161541"><ele>495.0</ele><time>2026-05-01T14:20:36.751Z</time></trkpt><trkpt lat="43.5599224" lon="12.4162932"><ele>495.0</ele><time>2026-05-01T14:20:37.756Z</time></trkpt><trkpt lat="43.5599458" lon="12.4164269"><ele>495.0</ele><time>2026-05-01T14:20:38.756Z</time></trkpt><trkpt lat="43.559951" lon="12.4165487"><ele>495.0</ele><time>2026-05-01T14:20:39.78Z</time></trkpt><trkpt lat="43.5599376" lon="12.4166657"><ele>493.75</ele><time>2026-05-01T14:20:40.751Z</time></trkpt><trkpt lat="43.5599076" lon="12.4167793"><ele>492.5</ele><time>2026-05-01T14:20:41.753Z</time></trkpt><trkpt lat="43.5598619" lon="12.4168856"><ele>491.25</ele><time>2026-05-01T14:20:42.756Z</time></trkpt><trkpt lat="43.5597176" lon="12.4171185"><ele>490.0</ele><time>2026-05-01T14:20:44.753Z</time></trkpt><trkpt lat="43.5596322" lon="12.4172324"><ele>488.6</ele><time>2026-05-01T14:20:45.756Z</time></trkpt><trkpt lat="43.5595513" lon="12.4173276"><ele>487.2</ele><time>2026-05-01T14:20:46.745Z</time></trkpt><trkpt lat="43.5594759" lon="12.4174124"><ele>485.79999999999995</ele><time>2026-05-01T14:20:47.752Z</time></trkpt><trkpt lat="43.559406" lon="12.4174959"><ele>484.4</ele><time>2026-05-01T14:20:48.755Z</time></trkpt><trkpt lat="43.5593392" lon="12.417573"><ele>483.0</ele><time>2026-05-01T14:20:49.744Z</time></trkpt><trkpt lat="43.5592817" lon="12.4176445"><ele>483.0</ele><time>2026-05-01T14:20:50.747Z</time></trkpt><trkpt lat="43.5592272" lon="12.4177072"><ele>483.0</ele><time>2026-05-01T14:20:51.75Z</time></trkpt><trkpt lat="43.5591751" lon="12.4177744"><ele>483.0</ele><time>2026-05-01T14:20:52.752Z</time></trkpt><trkpt lat="43.5591374" lon="12.4178511"><ele>483.0</ele><time>2026-05-01T14:20:53.749Z</time></trkpt><trkpt lat="43.5591028" lon="12.417941"><ele>483.0</ele><time>2026-05-01T14:20:54.754Z</time></trkpt><trkpt lat="43.5590744" lon="12.418037"><ele>483.0</ele><time>2026-05-01T14:20:55.749Z</time></trkpt><trkpt lat="43.559058" lon="12.418132"><ele>483.0</ele><time>2026-05-01T14:20:56.749Z</time></trkpt><trkpt lat="43.5590432" lon="12.4183086"><ele>482.8333333333333</ele><time>2026-05-01T14:20:58.758Z</time></trkpt><trkpt lat="43.5590422" lon="12.4184095"><ele>482.66666666666663</ele><time>2026-05-01T14:20:59.753Z</time></trkpt><trkpt lat="43.5590358" lon="12.4185093"><ele>482.5</ele><time>2026-05-01T14:21:00.743Z</time></trkpt><trkpt lat="43.559032" lon="12.4186043"><ele>482.3333333333333</ele><time>2026-05-01T14:21:01.743Z</time></trkpt><trkpt lat="43.5590226" lon="12.4186953"><ele>482.16666666666663</ele><time>2026-05-01T14:21:02.738Z</time></trkpt><trkpt lat="43.5590124" lon="12.4187899"><ele>482.0</ele><time>2026-05-01T14:21:03.746Z</time></trkpt><trkpt lat="43.5590068" lon="12.4189933"><ele>481.66666666666663</ele><time>2026-05-01T14:21:05.753Z</time></trkpt><trkpt lat="43.5590054" lon="12.4190948"><ele>481.3333333333333</ele><time>2026-05-01T14:21:06.754Z</time></trkpt><trkpt lat="43.5590036" lon="12.4191903"><ele>481.0</ele><time>2026-05-01T14:21:07.751Z</time></trkpt><trkpt lat="43.5590006" lon="12.4192906"><ele>480.66666666666663</ele><time>2026-05-01T14:21:08.746Z</time></trkpt><trkpt lat="43.5589987" lon="12.419403"><ele>480.3333333333333</ele><time>2026-05-01T14:21:09.745Z</time></trkpt><trkpt lat="43.5590033" lon="12.419529"><ele>480.0</ele><time>2026-05-01T14:21:10.749Z</time></trkpt><trkpt lat="43.5590044" lon="12.4196586"><ele>479.6</ele><time>2026-05-01T14:21:11.745Z</time></trkpt><trkpt lat="43.5590151" lon="12.4197785"><ele>479.2</ele><time>2026-05-01T14:21:12.74Z</time></trkpt><trkpt lat="43.5590293" lon="12.4198807"><ele>478.79999999999995</ele><time>2026-05-01T14:21:13.744Z</time></trkpt><trkpt lat="43.5590468" lon="12.4200451"><ele>478.4</ele><time>2026-05-01T14:21:15.739Z</time></trkpt><trkpt lat="43.5590698" lon="12.420216"><ele>478.0</ele><time>2026-05-01T14:21:17.757Z</time></trkpt><trkpt lat="43.5590858" lon="12.4203112"><ele>478.00000000000006</ele><time>2026-05-01T14:21:18.757Z</time></trkpt><trkpt lat="43.5591013" lon="12.4204164"><ele>478.0</ele><time>2026-05-01T14:21:19.748Z</time></trkpt><trkpt lat="43.5591166" lon="12.4205285"><ele>478.0</ele><time>2026-05-01T14:21:20.744Z</time></trkpt><trkpt lat="43.5591291" lon="12.4206544"><ele>478.0</ele><time>2026-05-01T14:21:21.744Z</time></trkpt><trkpt lat="43.5591442" lon="12.42079"><ele>478.00000000000006</ele><time>2026-05-01T14:21:22.744Z</time></trkpt><trkpt lat="43.5591588" lon="12.4209162"><ele>478.0</ele><time>2026-05-01T14:21:23.754Z</time></trkpt><trkpt lat="43.5591704" lon="12.4210467"><ele>478.0</ele><time>2026-05-01T14:21:24.76Z</time></trkpt><trkpt lat="43.5591953" lon="12.4212827"><ele>477.99999999999994</ele><time>2026-05-01T14:21:26.751Z</time></trkpt><trkpt lat="43.5592094" lon="12.4214018"><ele>477.99999999999994</ele><time>2026-05-01T14:21:27.757Z</time></trkpt><trkpt lat="43.5592251" lon="12.4215334"><ele>478.0</ele><time>2026-05-01T14:21:28.749Z</time></trkpt><trkpt lat="43.5592378" lon="12.4216587"><ele>478.0</ele><time>2026-05-01T14:21:29.749Z</time></trkpt><trkpt lat="43.5592525" lon="12.4217819"><ele>478.0</ele><time>2026-05-01T14:21:30.748Z</time></trkpt><trkpt lat="43.5592645" lon="12.4219053"><ele>477.99999999999994</ele><time>2026-05-01T14:21:31.749Z</time></trkpt><trkpt lat="43.5592753" lon="12.4220336"><ele>477.99999999999994</ele><time>2026-05-01T14:21:32.753Z</time></trkpt><trkpt lat="43.5592794" lon="12.4221711"><ele>478.0</ele><time>2026-05-01T14:21:33.75Z</time></trkpt><trkpt lat="43.5592772" lon="12.4223277"><ele>478.0</ele><time>2026-05-01T14:21:34.746Z</time></trkpt><trkpt lat="43.5592726" lon="12.4224884"><ele>478.59999999999997</ele><time>2026-05-01T14:21:35.765Z</time></trkpt><trkpt lat="43.5592574" lon="12.4226533"><ele>479.19999999999993</ele><time>2026-05-01T14:21:36.744Z</time></trkpt><trkpt lat="43.5592405" lon="12.4228105"><ele>479.8</ele><time>2026-05-01T14:21:37.745Z</time></trkpt><trkpt lat="43.5592264" lon="12.4229542"><ele>480.4</ele><time>2026-05-01T14:21:38.744Z</time></trkpt><trkpt lat="43.5592142" lon="12.4230933"><ele>481.0</ele><time>2026-05-01T14:21:39.75Z</time></trkpt><trkpt lat="43.5592033" lon="12.4232264"><ele>481.4</ele><time>2026-05-01T14:21:40.732Z</time></trkpt><trkpt lat="43.5591925" lon="12.4233599"><ele>481.8</ele><time>2026-05-01T14:21:41.747Z</time></trkpt><trkpt lat="43.5591847" lon="12.4234942"><ele>482.19999999999993</ele><time>2026-05-01T14:21:42.742Z</time></trkpt><trkpt lat="43.5591765" lon="12.4236336"><ele>482.59999999999997</ele><time>2026-05-01T14:21:43.747Z</time></trkpt><trkpt lat="43.5591679" lon="12.4237824"><ele>483.0</ele><time>2026-05-01T14:21:44.737Z</time></trkpt><trkpt lat="43.559171" lon="12.4239521"><ele>483.0</ele><time>2026-05-01T14:21:45.743Z</time></trkpt><trkpt lat="43.559213" lon="12.42429"><ele>483.0</ele><time>2026-05-01T14:21:47.748Z</time></trkpt><trkpt lat="43.5592464" lon="12.424462"><ele>483.0</ele><time>2026-05-01T14:21:48.739Z</time></trkpt><trkpt lat="43.5592755" lon="12.4246501"><ele>481.25</ele><time>2026-05-01T14:21:49.757Z</time></trkpt><trkpt lat="43.559306" lon="12.4248405"><ele>479.5</ele><time>2026-05-01T14:21:50.756Z</time></trkpt><trkpt lat="43.559335" lon="12.4250226"><ele>477.75</ele><time>2026-05-01T14:21:51.753Z</time></trkpt><trkpt lat="43.5593625" lon="12.425191"><ele>476.0</ele><time>2026-05-01T14:21:52.76Z</time></trkpt><trkpt lat="43.5593874" lon="12.4253473"><ele>475.25</ele><time>2026-05-01T14:21:53.745Z</time></trkpt><trkpt lat="43.559414" lon="12.4254987"><ele>474.5</ele><time>2026-05-01T14:21:54.747Z</time></trkpt><trkpt lat="43.5594417" lon="12.4256447"><ele>473.75</ele><time>2026-05-01T14:21:55.747Z</time></trkpt><trkpt lat="43.5594676" lon="12.4258"><ele>473.0</ele><time>2026-05-01T14:21:56.748Z</time></trkpt><trkpt lat="43.5594951" lon="12.4259651"><ele>473.0</ele><time>2026-05-01T14:21:57.747Z</time></trkpt><trkpt lat="43.5595221" lon="12.4261221"><ele>473.0</ele><time>2026-05-01T14:21:58.748Z</time></trkpt><trkpt lat="43.5595466" lon="12.4262822"><ele>473.0</ele><time>2026-05-01T14:21:59.755Z</time></trkpt><trkpt lat="43.559588" lon="12.4264374"><ele>473.0</ele><time>2026-05-01T14:22:00.753Z</time></trkpt><trkpt lat="43.5596396" lon="12.4265892"><ele>473.0</ele><time>2026-05-01T14:22:01.745Z</time></trkpt><trkpt lat="43.5597053" lon="12.4267365"><ele>473.0</ele><time>2026-05-01T14:22:02.75Z</time></trkpt><trkpt lat="43.5597829" lon="12.4268819"><ele>473.0</ele><time>2026-05-01T14:22:03.745Z</time></trkpt><trkpt lat="43.5598721" lon="12.4270226"><ele>473.0</ele><time>2026-05-01T14:22:04.753Z</time></trkpt><trkpt lat="43.5599735" lon="12.4271546"><ele>473.0</ele><time>2026-05-01T14:22:05.753Z</time></trkpt><trkpt lat="43.5600775" lon="12.4272778"><ele>473.0</ele><time>2026-05-01T14:22:06.744Z</time></trkpt><trkpt lat="43.5602943" lon="12.4275014"><ele>473.0</ele><time>2026-05-01T14:22:08.759Z</time></trkpt><trkpt lat="43.5604002" lon="12.427594"><ele>475.5</ele><time>2026-05-01T14:22:09.755Z</time></trkpt><trkpt lat="43.5605104" lon="12.4276735"><ele>478.0</ele><time>2026-05-01T14:22:10.756Z</time></trkpt><trkpt lat="43.5606204" lon="12.4277492"><ele>480.5</ele><time>2026-05-01T14:22:11.754Z</time></trkpt><trkpt lat="43.5607444" lon="12.4278068"><ele>483.0</ele><time>2026-05-01T14:22:12.741Z</time></trkpt><trkpt lat="43.5608959" lon="12.4278549"><ele>483.0</ele><time>2026-05-01T14:22:13.758Z</time></trkpt><trkpt lat="43.5610724" lon="12.427898"><ele>483.0</ele><time>2026-05-01T14:22:14.75Z</time></trkpt><trkpt lat="43.5612684" lon="12.4279296"><ele>483.0</ele><time>2026-05-01T14:22:15.766Z</time></trkpt><trkpt lat="43.5614851" lon="12.4279735"><ele>480.66666666666663</ele><time>2026-05-01T14:22:16.756Z</time></trkpt><trkpt lat="43.5616977" lon="12.4280258"><ele>478.3333333333333</ele><time>2026-05-01T14:22:17.749Z</time></trkpt><trkpt lat="43.5619068" lon="12.4280922"><ele>476.0</ele><time>2026-05-01T14:22:18.749Z</time></trkpt><trkpt lat="43.5621268" lon="12.428157"><ele>476.0</ele><time>2026-05-01T14:22:19.743Z</time></trkpt><trkpt lat="43.5623531" lon="12.4282165"><ele>476.0</ele><time>2026-05-01T14:22:20.74Z</time></trkpt><trkpt lat="43.5625655" lon="12.4282795"><ele>476.0</ele><time>2026-05-01T14:22:21.743Z</time></trkpt><trkpt lat="43.5627652" lon="12.4283475"><ele>481.0</ele><time>2026-05-01T14:22:22.753Z</time></trkpt><trkpt lat="43.5629569" lon="12.4284203"><ele>486.0</ele><time>2026-05-01T14:22:23.746Z</time></trkpt><trkpt lat="43.5631382" lon="12.4284859"><ele>491.0</ele><time>2026-05-01T14:22:24.739Z</time></trkpt><trkpt lat="43.5633163" lon="12.4285543"><ele>491.0</ele><time>2026-05-01T14:22:25.755Z</time></trkpt><trkpt lat="43.5634938" lon="12.4286284"><ele>491.0</ele><time>2026-05-01T14:22:26.75Z</time></trkpt><trkpt lat="43.5636593" lon="12.4287191"><ele>491.0</ele><time>2026-05-01T14:22:27.754Z</time></trkpt><trkpt lat="43.5639678" lon="12.4289978"><ele>487.66666666666663</ele><time>2026-05-01T14:22:29.738Z</time></trkpt><trkpt lat="43.5641152" lon="12.4291821"><ele>484.33333333333337</ele><time>2026-05-01T14:22:30.741Z</time></trkpt><trkpt lat="43.5642514" lon="12.429392"><ele>481.0</ele><time>2026-05-01T14:22:31.773Z</time></trkpt><trkpt lat="43.5643658" lon="12.4296188"><ele>482.6666666666667</ele><time>2026-05-01T14:22:32.749Z</time></trkpt><trkpt lat="43.56447" lon="12.4298247"><ele>484.33333333333337</ele><time>2026-05-01T14:22:33.753Z</time></trkpt><trkpt lat="43.5645649" lon="12.4300218"><ele>486.0</ele><time>2026-05-01T14:22:34.759Z</time></trkpt><trkpt lat="43.5646382" lon="12.4302104"><ele>486.0</ele><time>2026-05-01T14:22:35.744Z</time></trkpt><trkpt lat="43.564685" lon="12.4303942"><ele>486.0</ele><time>2026-05-01T14:22:36.743Z</time></trkpt><trkpt lat="43.5647104" lon="12.4305904"><ele>486.0</ele><time>2026-05-01T14:22:37.754Z</time></trkpt><trkpt lat="43.5647347" lon="12.430782"><ele>486.0</ele><time>2026-05-01T14:22:38.759Z</time></trkpt><trkpt lat="43.5647891" lon="12.4309734"><ele>481.66666666666663</ele><time>2026-05-01T14:22:39.766Z</time></trkpt><trkpt lat="43.5648831" lon="12.4311681"><ele>477.3333333333333</ele><time>2026-05-01T14:22:40.742Z</time></trkpt><trkpt lat="43.5649912" lon="12.4313761"><ele>473.0</ele><time>2026-05-01T14:22:41.74Z</time></trkpt><trkpt lat="43.5651236" lon="12.4315893"><ele>471.66666666666663</ele><time>2026-05-01T14:22:42.739Z</time></trkpt><trkpt lat="43.5652656" lon="12.4318133"><ele>470.33333333333337</ele><time>2026-05-01T14:22:43.751Z</time></trkpt><trkpt lat="43.5654168" lon="12.4320442"><ele>469.0</ele><time>2026-05-01T14:22:44.75Z</time></trkpt><trkpt lat="43.5655692" lon="12.4322674"><ele>467.33333333333337</ele><time>2026-05-01T14:22:45.749Z</time></trkpt><trkpt lat="43.5657145" lon="12.4324819"><ele>465.66666666666663</ele><time>2026-05-01T14:22:46.757Z</time></trkpt><trkpt lat="43.5658501" lon="12.4326931"><ele>464.0</ele><time>2026-05-01T14:22:47.744Z</time></trkpt><trkpt lat="43.5659758" lon="12.4328842"><ele>462.5</ele><time>2026-05-01T14:22:48.747Z</time></trkpt><trkpt lat="43.5662029" lon="12.4332284"><ele>461.0</ele><time>2026-05-01T14:22:50.742Z</time></trkpt><trkpt lat="43.566319" lon="12.4333944"><ele>461.0</ele><time>2026-05-01T14:22:51.743Z</time></trkpt><trkpt lat="43.5664364" lon="12.4335599"><ele>461.0</ele><time>2026-05-01T14:22:52.749Z</time></trkpt><trkpt lat="43.5665595" lon="12.4337224"><ele>461.0</ele><time>2026-05-01T14:22:53.74Z</time></trkpt><trkpt lat="43.566685" lon="12.4338731"><ele>460.0</ele><time>2026-05-01T14:22:54.742Z</time></trkpt><trkpt lat="43.5668188" lon="12.4340094"><ele>459.0</ele><time>2026-05-01T14:22:55.747Z</time></trkpt><trkpt lat="43.5669634" lon="12.4341332"><ele>458.0</ele><time>2026-05-01T14:22:56.739Z</time></trkpt><trkpt lat="43.5671132" lon="12.4342535"><ele>458.0</ele><time>2026-05-01T14:22:57.742Z</time></trkpt><trkpt lat="43.5672647" lon="12.4343652"><ele>458.0</ele><time>2026-05-01T14:22:58.737Z</time></trkpt><trkpt lat="43.5674236" lon="12.4344716"><ele>458.0</ele><time>2026-05-01T14:22:59.744Z</time></trkpt><trkpt lat="43.5675788" lon="12.4345727"><ele>458.3333333333333</ele><time>2026-05-01T14:23:00.743Z</time></trkpt><trkpt lat="43.5677348" lon="12.4346745"><ele>458.66666666666663</ele><time>2026-05-01T14:23:01.748Z</time></trkpt><trkpt lat="43.5678956" lon="12.4347817"><ele>459.0</ele><time>2026-05-01T14:23:02.741Z</time></trkpt><trkpt lat="43.5680584" lon="12.434882"><ele>459.0</ele><time>2026-05-01T14:23:03.747Z</time></trkpt><trkpt lat="43.5682181" lon="12.4349841"><ele>459.0</ele><time>2026-05-01T14:23:04.748Z</time></trkpt><trkpt lat="43.5683749" lon="12.4350833"><ele>459.0</ele><time>2026-05-01T14:23:05.744Z</time></trkpt><trkpt lat="43.5685252" lon="12.4351814"><ele>459.0</ele><time>2026-05-01T14:23:06.742Z</time></trkpt><trkpt lat="43.5686699" lon="12.4352725"><ele>459.0</ele><time>2026-05-01T14:23:07.742Z</time></trkpt><trkpt lat="43.5688006" lon="12.4353715"><ele>459.0</ele><time>2026-05-01T14:23:08.745Z</time></trkpt><trkpt lat="43.568927" lon="12.4354932"><ele>460.0</ele><time>2026-05-01T14:23:09.747Z</time></trkpt><trkpt lat="43.5691406" lon="12.4358158"><ele>461.0</ele><time>2026-05-01T14:23:11.751Z</time></trkpt><trkpt lat="43.5692251" lon="12.4360359"><ele>461.0</ele><time>2026-05-01T14:23:12.748Z</time></trkpt><trkpt lat="43.5692997" lon="12.4362897"><ele>461.0</ele><time>2026-05-01T14:23:13.766Z</time></trkpt><trkpt lat="43.5693692" lon="12.4365372"><ele>461.0</ele><time>2026-05-01T14:23:14.74Z</time></trkpt><trkpt lat="43.5694312" lon="12.4367769"><ele>460.0</ele><time>2026-05-01T14:23:15.75Z</time></trkpt><trkpt lat="43.5694961" lon="12.4370243"><ele>459.0</ele><time>2026-05-01T14:23:16.754Z</time></trkpt><trkpt lat="43.5695685" lon="12.437273"><ele>458.0</ele><time>2026-05-01T14:23:17.752Z</time></trkpt><trkpt lat="43.5696483" lon="12.437528"><ele>458.0</ele><time>2026-05-01T14:23:18.754Z</time></trkpt><trkpt lat="43.5697345" lon="12.437779"><ele>458.0</ele><time>2026-05-01T14:23:19.748Z</time></trkpt><trkpt lat="43.5698269" lon="12.4380209"><ele>458.0</ele><time>2026-05-01T14:23:20.738Z</time></trkpt><trkpt lat="43.5699202" lon="12.4382577"><ele>458.0</ele><time>2026-05-01T14:23:21.741Z</time></trkpt><trkpt lat="43.5700109" lon="12.4384945"><ele>458.0</ele><time>2026-05-01T14:23:22.747Z</time></trkpt><trkpt lat="43.5700976" lon="12.4387362"><ele>458.0</ele><time>2026-05-01T14:23:23.765Z</time></trkpt><trkpt lat="43.5701797" lon="12.438972"><ele>458.0</ele><time>2026-05-01T14:23:24.746Z</time></trkpt><trkpt lat="43.5702702" lon="12.4392025"><ele>458.0</ele><time>2026-05-01T14:23:25.751Z</time></trkpt><trkpt lat="43.5703623" lon="12.4394287"><ele>458.0</ele><time>2026-05-01T14:23:26.756Z</time></trkpt><trkpt lat="43.5704701" lon="12.4396477"><ele>459.66666666666663</ele><time>2026-05-01T14:23:27.749Z</time></trkpt><trkpt lat="43.5705955" lon="12.4398645"><ele>461.33333333333337</ele><time>2026-05-01T14:23:28.74Z</time></trkpt><trkpt lat="43.5707281" lon="12.4400595"><ele>463.0</ele><time>2026-05-01T14:23:29.743Z</time></trkpt><trkpt lat="43.5708703" lon="12.4402309"><ele>463.5</ele><time>2026-05-01T14:23:30.738Z</time></trkpt><trkpt lat="43.5712034" lon="12.4405281"><ele>464.0</ele><time>2026-05-01T14:23:32.754Z</time></trkpt><trkpt lat="43.5713968" lon="12.4406685"><ele>464.0</ele><time>2026-05-01T14:23:33.765Z</time></trkpt><trkpt lat="43.5715855" lon="12.4408214"><ele>464.0</ele><time>2026-05-01T14:23:34.758Z</time></trkpt><trkpt lat="43.5717685" lon="12.4409807"><ele>464.0</ele><time>2026-05-01T14:23:35.749Z</time></trkpt><trkpt lat="43.5719509" lon="12.4411456"><ele>462.3333333333333</ele><time>2026-05-01T14:23:36.745Z</time></trkpt><trkpt lat="43.5721233" lon="12.4413114"><ele>460.66666666666663</ele><time>2026-05-01T14:23:37.744Z</time></trkpt><trkpt lat="43.5722893" lon="12.4414818"><ele>459.0</ele><time>2026-05-01T14:23:38.741Z</time></trkpt><trkpt lat="43.5724564" lon="12.4416446"><ele>459.0</ele><time>2026-05-01T14:23:39.745Z</time></trkpt><trkpt lat="43.5726233" lon="12.4418097"><ele>459.0</ele><time>2026-05-01T14:23:40.747Z</time></trkpt><trkpt lat="43.5728033" lon="12.4419728"><ele>459.0</ele><time>2026-05-01T14:23:41.747Z</time></trkpt><trkpt lat="43.5730032" lon="12.4421211"><ele>456.0</ele><time>2026-05-01T14:23:42.744Z</time></trkpt><trkpt lat="43.5732246" lon="12.4422707"><ele>453.0</ele><time>2026-05-01T14:23:43.742Z</time></trkpt><trkpt lat="43.5734476" lon="12.4424172"><ele>453.0</ele><time>2026-05-01T14:23:44.74Z</time></trkpt><trkpt lat="43.5736617" lon="12.4425554"><ele>453.0</ele><time>2026-05-01T14:23:45.749Z</time></trkpt><trkpt lat="43.5738652" lon="12.4426904"><ele>451.33333333333337</ele><time>2026-05-01T14:23:46.741Z</time></trkpt><trkpt lat="43.5740646" lon="12.4428277"><ele>449.6666666666667</ele><time>2026-05-01T14:23:47.737Z</time></trkpt><trkpt lat="43.5742523" lon="12.4429629"><ele>448.0</ele><time>2026-05-01T14:23:48.74Z</time></trkpt><trkpt lat="43.5744298" lon="12.4430845"><ele>450.6666666666667</ele><time>2026-05-01T14:23:49.736Z</time></trkpt><trkpt lat="43.5745867" lon="12.4432003"><ele>453.33333333333337</ele><time>2026-05-01T14:23:50.734Z</time></trkpt><trkpt lat="43.5747274" lon="12.443303"><ele>456.0</ele><time>2026-05-01T14:23:51.744Z</time></trkpt><trkpt lat="43.5750157" lon="12.4434461"><ele>456.0</ele><time>2026-05-01T14:23:53.747Z</time></trkpt><trkpt lat="43.5751718" lon="12.4435002"><ele>456.0</ele><time>2026-05-01T14:23:54.74Z</time></trkpt><trkpt lat="43.5753364" lon="12.4435574"><ele>456.0</ele><time>2026-05-01T14:23:55.741Z</time></trkpt><trkpt lat="43.5755063" lon="12.4436143"><ele>458.66666666666663</ele><time>2026-05-01T14:23:56.745Z</time></trkpt><trkpt lat="43.5756682" lon="12.4436695"><ele>461.3333333333333</ele><time>2026-05-01T14:23:57.746Z</time></trkpt><trkpt lat="43.5758341" lon="12.4437198"><ele>464.0</ele><time>2026-05-01T14:23:58.74Z</time></trkpt><trkpt lat="43.5759965" lon="12.4437744"><ele>462.0</ele><time>2026-05-01T14:23:59.741Z</time></trkpt><trkpt lat="43.5761509" lon="12.443832"><ele>460.0</ele><time>2026-05-01T14:24:00.76Z</time></trkpt><trkpt lat="43.5762931" lon="12.443903"><ele>458.0</ele><time>2026-05-01T14:24:01.746Z</time></trkpt><trkpt lat="43.5764229" lon="12.4439996"><ele>458.0</ele><time>2026-05-01T14:24:02.743Z</time></trkpt><trkpt lat="43.5765476" lon="12.444126"><ele>458.0</ele><time>2026-05-01T14:24:03.743Z</time></trkpt><trkpt lat="43.5766633" lon="12.4442874"><ele>458.0</ele><time>2026-05-01T14:24:04.741Z</time></trkpt><trkpt lat="43.5767642" lon="12.444482"><ele>454.0</ele><time>2026-05-01T14:24:05.745Z</time></trkpt><trkpt lat="43.576844" lon="12.4446908"><ele>450.0</ele><time>2026-05-01T14:24:06.739Z</time></trkpt><trkpt lat="43.5769113" lon="12.4449055"><ele>446.0</ele><time>2026-05-01T14:24:07.744Z</time></trkpt><trkpt lat="43.5769823" lon="12.4450995"><ele>446.3333333333333</ele><time>2026-05-01T14:24:08.741Z</time></trkpt><trkpt lat="43.5770657" lon="12.4452751"><ele>446.66666666666663</ele><time>2026-05-01T14:24:09.748Z</time></trkpt><trkpt lat="43.5771699" lon="12.4454283"><ele>447.0</ele><time>2026-05-01T14:24:10.744Z</time></trkpt><trkpt lat="43.5772816" lon="12.4455573"><ele>447.0</ele><time>2026-05-01T14:24:11.748Z</time></trkpt><trkpt lat="43.5774023" lon="12.4456793"><ele>447.0</ele><time>2026-05-01T14:24:12.756Z</time></trkpt><trkpt lat="43.5776312" lon="12.4459237"><ele>447.0</ele><time>2026-05-01T14:24:14.733Z</time></trkpt><trkpt lat="43.5777531" lon="12.4460706"><ele>447.0</ele><time>2026-05-01T14:24:15.756Z</time></trkpt><trkpt lat="43.5778758" lon="12.4462096"><ele>447.0</ele><time>2026-05-01T14:24:16.744Z</time></trkpt><trkpt lat="43.5779868" lon="12.44634"><ele>447.0</ele><time>2026-05-01T14:24:17.738Z</time></trkpt><trkpt lat="43.5780792" lon="12.4464786"><ele>447.0</ele><time>2026-05-01T14:24:18.742Z</time></trkpt><trkpt lat="43.5781589" lon="12.4466277"><ele>447.0</ele><time>2026-05-01T14:24:19.749Z</time></trkpt><trkpt lat="43.5782223" lon="12.446795"><ele>447.0</ele><time>2026-05-01T14:24:20.733Z</time></trkpt><trkpt lat="43.5782755" lon="12.4469677"><ele>447.0</ele><time>2026-05-01T14:24:21.751Z</time></trkpt><trkpt lat="43.578318" lon="12.4471348"><ele>447.0</ele><time>2026-05-01T14:24:22.756Z</time></trkpt><trkpt lat="43.578356" lon="12.4472903"><ele>445.6</ele><time>2026-05-01T14:24:23.754Z</time></trkpt><trkpt lat="43.5784013" lon="12.4474384"><ele>444.20000000000005</ele><time>2026-05-01T14:24:24.751Z</time></trkpt><trkpt lat="43.5784503" lon="12.4475793"><ele>442.8</ele><time>2026-05-01T14:24:25.748Z</time></trkpt><trkpt lat="43.5785072" lon="12.4477082"><ele>441.4</ele><time>2026-05-01T14:24:26.748Z</time></trkpt><trkpt lat="43.5785653" lon="12.4478119"><ele>440.0</ele><time>2026-05-01T14:24:27.758Z</time></trkpt><trkpt lat="43.5786204" lon="12.4479076"><ele>440.8</ele><time>2026-05-01T14:24:28.757Z</time></trkpt><trkpt lat="43.5786854" lon="12.4480036"><ele>441.6</ele><time>2026-05-01T14:24:29.739Z</time></trkpt><trkpt lat="43.5787561" lon="12.4481149"><ele>442.4</ele><time>2026-05-01T14:24:30.762Z</time></trkpt><trkpt lat="43.5788364" lon="12.4482366"><ele>443.2</ele><time>2026-05-01T14:24:31.752Z</time></trkpt><trkpt lat="43.5789176" lon="12.4483583"><ele>444.0</ele><time>2026-05-01T14:24:32.748Z</time></trkpt><trkpt lat="43.5789986" lon="12.4484856"><ele>444.0</ele><time>2026-05-01T14:24:33.747Z</time></trkpt><trkpt lat="43.5791669" lon="12.4487268"><ele>444.0</ele><time>2026-05-01T14:24:35.747Z</time></trkpt><trkpt lat="43.5792523" lon="12.4488442"><ele>444.0</ele><time>2026-05-01T14:24:36.733Z</time></trkpt><trkpt lat="43.57933" lon="12.4489601"><ele>443.5</ele><time>2026-05-01T14:24:37.745Z</time></trkpt><trkpt lat="43.579414" lon="12.4490807"><ele>443.0</ele><time>2026-05-01T14:24:38.738Z</time></trkpt><trkpt lat="43.5795048" lon="12.4492097"><ele>442.5</ele><time>2026-05-01T14:24:39.748Z</time></trkpt><trkpt lat="43.5795906" lon="12.4493335"><ele>442.0</ele><time>2026-05-01T14:24:40.748Z</time></trkpt><trkpt lat="43.5796707" lon="12.4494536"><ele>442.0</ele><time>2026-05-01T14:24:41.745Z</time></trkpt><trkpt lat="43.5797516" lon="12.4495686"><ele>442.0</ele><time>2026-05-01T14:24:42.742Z</time></trkpt><trkpt lat="43.5798303" lon="12.4496856"><ele>442.0</ele><time>2026-05-01T14:24:43.751Z</time></trkpt><trkpt lat="43.5799022" lon="12.4498018"><ele>442.0</ele><time>2026-05-01T14:24:44.752Z</time></trkpt><trkpt lat="43.579969" lon="12.4499315"><ele>440.0</ele><time>2026-05-01T14:24:45.748Z</time></trkpt><trkpt lat="43.5800288" lon="12.4500723"><ele>438.0</ele><time>2026-05-01T14:24:46.747Z</time></trkpt><trkpt lat="43.5800763" lon="12.4502254"><ele>436.0</ele><time>2026-05-01T14:24:47.749Z</time></trkpt><trkpt lat="43.5801032" lon="12.4503912"><ele>434.0</ele><time>2026-05-01T14:24:48.753Z</time></trkpt><trkpt lat="43.5801108" lon="12.4505771"><ele>434.0</ele><time>2026-05-01T14:24:49.738Z</time></trkpt><trkpt lat="43.5801024" lon="12.4507794"><ele>434.0</ele><time>2026-05-01T14:24:50.747Z</time></trkpt><trkpt lat="43.5800796" lon="12.4509786"><ele>434.0</ele><time>2026-05-01T14:24:51.754Z</time></trkpt><trkpt lat="43.5800414" lon="12.4511625"><ele>434.0</ele><time>2026-05-01T14:24:52.739Z</time></trkpt><trkpt lat="43.5800056" lon="12.4513441"><ele>434.3333333333333</ele><time>2026-05-01T14:24:53.744Z</time></trkpt><trkpt lat="43.5799861" lon="12.4515367"><ele>434.66666666666663</ele><time>2026-05-01T14:24:54.742Z</time></trkpt><trkpt lat="43.5800126" lon="12.4519035"><ele>435.0</ele><time>2026-05-01T14:24:56.745Z</time></trkpt><trkpt lat="43.5800512" lon="12.4520736"><ele>432.5</ele><time>2026-05-01T14:24:57.741Z</time></trkpt><trkpt lat="43.5801009" lon="12.4522309"><ele>430.0</ele><time>2026-05-01T14:24:58.733Z</time></trkpt><trkpt lat="43.5801738" lon="12.452376"><ele>427.5</ele><time>2026-05-01T14:24:59.742Z</time></trkpt><trkpt lat="43.5802545" lon="12.4525073"><ele>425.0</ele><time>2026-05-01T14:25:00.755Z</time></trkpt><trkpt lat="43.5803398" lon="12.4526267"><ele>426.25</ele><time>2026-05-01T14:25:01.745Z</time></trkpt><trkpt lat="43.5804198" lon="12.4527366"><ele>427.5</ele><time>2026-05-01T14:25:02.74Z</time></trkpt><trkpt lat="43.5804983" lon="12.4528569"><ele>428.75</ele><time>2026-05-01T14:25:03.741Z</time></trkpt><trkpt lat="43.5805705" lon="12.452998"><ele>430.0</ele><time>2026-05-01T14:25:04.737Z</time></trkpt><trkpt lat="43.5806306" lon="12.453156"><ele>430.0</ele><time>2026-05-01T14:25:05.747Z</time></trkpt><trkpt lat="43.5806634" lon="12.45333"><ele>430.0</ele><time>2026-05-01T14:25:06.742Z</time></trkpt><trkpt lat="43.5806835" lon="12.4535068"><ele>430.0</ele><time>2026-05-01T14:25:07.768Z</time></trkpt><trkpt lat="43.5806959" lon="12.453685"><ele>430.0</ele><time>2026-05-01T14:25:08.755Z</time></trkpt><trkpt lat="43.5806926" lon="12.4538477"><ele>428.4</ele><time>2026-05-01T14:25:09.747Z</time></trkpt><trkpt lat="43.5806876" lon="12.4539719"><ele>426.8</ele><time>2026-05-01T14:25:10.756Z</time></trkpt><trkpt lat="43.5806788" lon="12.4540858"><ele>425.20000000000005</ele><time>2026-05-01T14:25:11.743Z</time></trkpt><trkpt lat="43.580662" lon="12.454216"><ele>423.6</ele><time>2026-05-01T14:25:12.744Z</time></trkpt><trkpt lat="43.5806448" lon="12.4544066"><ele>422.0</ele><time>2026-05-01T14:25:13.749Z</time></trkpt><trkpt lat="43.5806257" lon="12.4546279"><ele>421.0</ele><time>2026-05-01T14:25:14.732Z</time></trkpt><trkpt lat="43.5806071" lon="12.4548891"><ele>420.0</ele><time>2026-05-01T14:25:15.747Z</time></trkpt><trkpt lat="43.5805711" lon="12.4554721"><ele>418.33333333333337</ele><time>2026-05-01T14:25:17.731Z</time></trkpt><trkpt lat="43.5805507" lon="12.4557488"><ele>416.6666666666667</ele><time>2026-05-01T14:25:18.744Z</time></trkpt><trkpt lat="43.5805298" lon="12.4560023"><ele>415.0</ele><time>2026-05-01T14:25:19.747Z</time></trkpt><trkpt lat="43.5805094" lon="12.456245"><ele>415.33333333333337</ele><time>2026-05-01T14:25:20.753Z</time></trkpt><trkpt lat="43.580474" lon="12.4564941"><ele>415.66666666666663</ele><time>2026-05-01T14:25:21.753Z</time></trkpt><trkpt lat="43.5804265" lon="12.4567431"><ele>416.0</ele><time>2026-05-01T14:25:22.752Z</time></trkpt><trkpt lat="43.5803597" lon="12.4569966"><ele>416.3333333333333</ele><time>2026-05-01T14:25:23.744Z</time></trkpt><trkpt lat="43.5802812" lon="12.4572688"><ele>416.66666666666663</ele><time>2026-05-01T14:25:24.739Z</time></trkpt><trkpt lat="43.5802017" lon="12.457537"><ele>417.0</ele><time>2026-05-01T14:25:25.748Z</time></trkpt><trkpt lat="43.5801319" lon="12.4577941"><ele>418.33333333333337</ele><time>2026-05-01T14:25:26.741Z</time></trkpt><trkpt lat="43.5800602" lon="12.4580373"><ele>419.6666666666667</ele><time>2026-05-01T14:25:27.746Z</time></trkpt><trkpt lat="43.5799837" lon="12.4582855"><ele>421.0</ele><time>2026-05-01T14:25:28.74Z</time></trkpt><trkpt lat="43.5799052" lon="12.4585348"><ele>421.0</ele><time>2026-05-01T14:25:29.743Z</time></trkpt><trkpt lat="43.5798299" lon="12.4587775"><ele>421.0</ele><time>2026-05-01T14:25:30.736Z</time></trkpt><trkpt lat="43.579758" lon="12.4590168"><ele>421.0</ele><time>2026-05-01T14:25:31.739Z</time></trkpt><trkpt lat="43.5796848" lon="12.4592548"><ele>418.0</ele><time>2026-05-01T14:25:32.736Z</time></trkpt><trkpt lat="43.5796114" lon="12.4594987"><ele>415.0</ele><time>2026-05-01T14:25:33.739Z</time></trkpt><trkpt lat="43.5795418" lon="12.4597383"><ele>412.0</ele><time>2026-05-01T14:25:34.737Z</time></trkpt><trkpt lat="43.5794729" lon="12.459964"><ele>412.0</ele><time>2026-05-01T14:25:35.74Z</time></trkpt><trkpt lat="43.579409" lon="12.4601812"><ele>412.0</ele><time>2026-05-01T14:25:36.747Z</time></trkpt><trkpt lat="43.5793161" lon="12.4606097"><ele>412.33333333333337</ele><time>2026-05-01T14:25:38.746Z</time></trkpt><trkpt lat="43.5792867" lon="12.4608361"><ele>412.66666666666663</ele><time>2026-05-01T14:25:39.74Z</time></trkpt><trkpt lat="43.579277" lon="12.4610604"><ele>413.0</ele><time>2026-05-01T14:25:40.738Z</time></trkpt><trkpt lat="43.5792748" lon="12.461283"><ele>413.66666666666663</ele><time>2026-05-01T14:25:41.752Z</time></trkpt><trkpt lat="43.5792734" lon="12.4615069"><ele>414.33333333333337</ele><time>2026-05-01T14:25:42.738Z</time></trkpt><trkpt lat="43.5792755" lon="12.461732"><ele>415.0</ele><time>2026-05-01T14:25:43.742Z</time></trkpt><trkpt lat="43.5792712" lon="12.4619553"><ele>415.33333333333337</ele><time>2026-05-01T14:25:44.733Z</time></trkpt><trkpt lat="43.579253" lon="12.4621633"><ele>415.66666666666663</ele><time>2026-05-01T14:25:45.741Z</time></trkpt><trkpt lat="43.5792146" lon="12.4623635"><ele>416.0</ele><time>2026-05-01T14:25:46.735Z</time></trkpt><trkpt lat="43.5791591" lon="12.4625608"><ele>416.0</ele><time>2026-05-01T14:25:47.746Z</time></trkpt><trkpt lat="43.5790789" lon="12.4627491"><ele>416.0</ele><time>2026-05-01T14:25:48.73Z</time></trkpt><trkpt lat="43.5789822" lon="12.462931"><ele>416.0</ele><time>2026-05-01T14:25:49.742Z</time></trkpt><trkpt lat="43.5788645" lon="12.4631076"><ele>418.0</ele><time>2026-05-01T14:25:50.743Z</time></trkpt><trkpt lat="43.5787259" lon="12.463278"><ele>420.0</ele><time>2026-05-01T14:25:51.748Z</time></trkpt><trkpt lat="43.5785701" lon="12.4634473"><ele>422.0</ele><time>2026-05-01T14:25:52.734Z</time></trkpt><trkpt lat="43.5784068" lon="12.4636111"><ele>421.3333333333333</ele><time>2026-05-01T14:25:53.745Z</time></trkpt><trkpt lat="43.5782566" lon="12.4637723"><ele>420.66666666666663</ele><time>2026-05-01T14:25:54.737Z</time></trkpt><trkpt lat="43.5781172" lon="12.4639273"><ele>420.0</ele><time>2026-05-01T14:25:55.744Z</time></trkpt><trkpt lat="43.5779857" lon="12.4640748"><ele>420.0</ele><time>2026-05-01T14:25:56.736Z</time></trkpt><trkpt lat="43.5778554" lon="12.46422"><ele>420.0</ele><time>2026-05-01T14:25:57.744Z</time></trkpt><trkpt lat="43.5775957" lon="12.4644958"><ele>417.33333333333337</ele><time>2026-05-01T14:25:59.739Z</time></trkpt><trkpt lat="43.5774687" lon="12.4646343"><ele>414.6666666666667</ele><time>2026-05-01T14:26:00.732Z</time></trkpt><trkpt lat="43.5773458" lon="12.4647759"><ele>412.0</ele><time>2026-05-01T14:26:01.742Z</time></trkpt><trkpt lat="43.5772307" lon="12.4649295"><ele>412.0</ele><time>2026-05-01T14:26:02.742Z</time></trkpt><trkpt lat="43.5771324" lon="12.4650902"><ele>412.0</ele><time>2026-05-01T14:26:03.741Z</time></trkpt><trkpt lat="43.5770523" lon="12.4652693"><ele>412.0</ele><time>2026-05-01T14:26:04.747Z</time></trkpt><trkpt lat="43.5769894" lon="12.4654688"><ele>406.33333333333337</ele><time>2026-05-01T14:26:05.744Z</time></trkpt><trkpt lat="43.5769559" lon="12.4656763"><ele>400.66666666666663</ele><time>2026-05-01T14:26:06.742Z</time></trkpt><trkpt lat="43.5769419" lon="12.4658955"><ele>395.0</ele><time>2026-05-01T14:26:07.739Z</time></trkpt><trkpt lat="43.5769403" lon="12.4661135"><ele>397.3333333333333</ele><time>2026-05-01T14:26:08.738Z</time></trkpt><trkpt lat="43.576957" lon="12.4663239"><ele>399.66666666666663</ele><time>2026-05-01T14:26:09.737Z</time></trkpt><trkpt lat="43.5769864" lon="12.4665403"><ele>402.0</ele><time>2026-05-01T14:26:10.74Z</time></trkpt><trkpt lat="43.5770379" lon="12.4667394"><ele>402.0</ele><time>2026-05-01T14:26:11.747Z</time></trkpt><trkpt lat="43.5771091" lon="12.4669305"><ele>402.0</ele><time>2026-05-01T14:26:12.745Z</time></trkpt><trkpt lat="43.5771962" lon="12.4671097"><ele>402.0</ele><time>2026-05-01T14:26:13.745Z</time></trkpt><trkpt lat="43.577299" lon="12.4672603"><ele>403.25</ele><time>2026-05-01T14:26:14.738Z</time></trkpt><trkpt lat="43.5774091" lon="12.4673973"><ele>404.5</ele><time>2026-05-01T14:26:15.741Z</time></trkpt><trkpt lat="43.5775232" lon="12.4675308"><ele>405.75</ele><time>2026-05-01T14:26:16.727Z</time></trkpt><trkpt lat="43.5776324" lon="12.4676734"><ele>407.0</ele><time>2026-05-01T14:26:17.737Z</time></trkpt><trkpt lat="43.5777412" lon="12.4678158"><ele>404.5</ele><time>2026-05-01T14:26:18.741Z</time></trkpt><trkpt lat="43.5779636" lon="12.4681043"><ele>402.0</ele><time>2026-05-01T14:26:20.742Z</time></trkpt><trkpt lat="43.5780835" lon="12.4682596"><ele>402.0</ele><time>2026-05-01T14:26:21.736Z</time></trkpt><trkpt lat="43.5782007" lon="12.4684128"><ele>402.0</ele><time>2026-05-01T14:26:22.736Z</time></trkpt><trkpt lat="43.5783119" lon="12.4685636"><ele>402.0</ele><time>2026-05-01T14:26:23.731Z</time></trkpt><trkpt lat="43.578415" lon="12.4686933"><ele>404.75</ele><time>2026-05-01T14:26:24.734Z</time></trkpt><trkpt lat="43.5785094" lon="12.4688196"><ele>407.5</ele><time>2026-05-01T14:26:25.742Z</time></trkpt><trkpt lat="43.5785879" lon="12.468951"><ele>410.25</ele><time>2026-05-01T14:26:26.733Z</time></trkpt><trkpt lat="43.5786369" lon="12.4690877"><ele>413.0</ele><time>2026-05-01T14:26:27.741Z</time></trkpt><trkpt lat="43.5786637" lon="12.4692352"><ele>413.0</ele><time>2026-05-01T14:26:28.736Z</time></trkpt><trkpt lat="43.5786627" lon="12.4693938"><ele>413.0</ele><time>2026-05-01T14:26:29.738Z</time></trkpt><trkpt lat="43.5786389" lon="12.4695497"><ele>413.0</ele><time>2026-05-01T14:26:30.744Z</time></trkpt><trkpt lat="43.5785824" lon="12.4697066"><ele>413.0</ele><time>2026-05-01T14:26:31.741Z</time></trkpt><trkpt lat="43.578506" lon="12.4698686"><ele>412.5</ele><time>2026-05-01T14:26:32.739Z</time></trkpt><trkpt lat="43.5784205" lon="12.4700272"><ele>412.0</ele><time>2026-05-01T14:26:33.733Z</time></trkpt><trkpt lat="43.5783414" lon="12.4701899"><ele>411.5</ele><time>2026-05-01T14:26:34.741Z</time></trkpt><trkpt lat="43.578279" lon="12.4703729"><ele>411.0</ele><time>2026-05-01T14:26:35.752Z</time></trkpt><trkpt lat="43.5782345" lon="12.4705777"><ele>405.33333333333337</ele><time>2026-05-01T14:26:36.729Z</time></trkpt><trkpt lat="43.5781994" lon="12.4707871"><ele>399.6666666666667</ele><time>2026-05-01T14:26:37.737Z</time></trkpt><trkpt lat="43.5781672" lon="12.4709769"><ele>394.0</ele><time>2026-05-01T14:26:38.736Z</time></trkpt><trkpt lat="43.5781137" lon="12.4713325"><ele>392.0</ele><time>2026-05-01T14:26:40.75Z</time></trkpt><trkpt lat="43.5780817" lon="12.4715089"><ele>390.0</ele><time>2026-05-01T14:26:41.747Z</time></trkpt><trkpt lat="43.5780525" lon="12.4716812"><ele>388.0</ele><time>2026-05-01T14:26:42.748Z</time></trkpt><trkpt lat="43.5780298" lon="12.4718211"><ele>386.0</ele><time>2026-05-01T14:26:43.734Z</time></trkpt><trkpt lat="43.5780096" lon="12.4719386"><ele>386.0</ele><time>2026-05-01T14:26:44.745Z</time></trkpt><trkpt lat="43.5779916" lon="12.4720554"><ele>386.0</ele><time>2026-05-01T14:26:45.743Z</time></trkpt><trkpt lat="43.5779654" lon="12.4721902"><ele>386.0</ele><time>2026-05-01T14:26:46.762Z</time></trkpt><trkpt lat="43.5779469" lon="12.4723283"><ele>386.0</ele><time>2026-05-01T14:26:47.736Z</time></trkpt><trkpt lat="43.5779288" lon="12.4724642"><ele>386.0</ele><time>2026-05-01T14:26:48.756Z</time></trkpt><trkpt lat="43.5779067" lon="12.4726151"><ele>385.8333333333333</ele><time>2026-05-01T14:26:49.733Z</time></trkpt><trkpt lat="43.577892" lon="12.4727634"><ele>385.66666666666663</ele><time>2026-05-01T14:26:50.744Z</time></trkpt><trkpt lat="43.5778854" lon="12.4729098"><ele>385.5</ele><time>2026-05-01T14:26:51.742Z</time></trkpt><trkpt lat="43.5778901" lon="12.4730332"><ele>385.33333333333337</ele><time>2026-05-01T14:26:52.737Z</time></trkpt><trkpt lat="43.5778916" lon="12.4731363"><ele>385.1666666666667</ele><time>2026-05-01T14:26:53.744Z</time></trkpt><trkpt lat="43.5779005" lon="12.4732276"><ele>385.0</ele><time>2026-05-01T14:26:54.743Z</time></trkpt><trkpt lat="43.5779103" lon="12.4733285"><ele>385.4</ele><time>2026-05-01T14:26:55.746Z</time></trkpt><trkpt lat="43.577928" lon="12.4734427"><ele>385.8</ele><time>2026-05-01T14:26:56.742Z</time></trkpt><trkpt lat="43.5779449" lon="12.4735651"><ele>386.20000000000005</ele><time>2026-05-01T14:26:57.754Z</time></trkpt><trkpt lat="43.5779655" lon="12.4736877"><ele>386.6</ele><time>2026-05-01T14:26:58.746Z</time></trkpt><trkpt lat="43.5780017" lon="12.4738273"><ele>387.0</ele><time>2026-05-01T14:26:59.748Z</time></trkpt><trkpt lat="43.5780934" lon="12.4741177"><ele>387.0</ele><time>2026-05-01T14:27:01.739Z</time></trkpt><trkpt lat="43.5781461" lon="12.4742614"><ele>387.0</ele><time>2026-05-01T14:27:02.749Z</time></trkpt><trkpt lat="43.578207" lon="12.4744057"><ele>387.0</ele><time>2026-05-01T14:27:03.745Z</time></trkpt><trkpt lat="43.5782722" lon="12.4745622"><ele>387.0</ele><time>2026-05-01T14:27:04.748Z</time></trkpt><trkpt lat="43.5783493" lon="12.4747396"><ele>387.0</ele><time>2026-05-01T14:27:05.745Z</time></trkpt><trkpt lat="43.5784433" lon="12.4749573"><ele>387.0</ele><time>2026-05-01T14:27:06.741Z</time></trkpt><trkpt lat="43.5785396" lon="12.4751944"><ele>387.0</ele><time>2026-05-01T14:27:07.739Z</time></trkpt><trkpt lat="43.5786418" lon="12.4754271"><ele>389.66666666666663</ele><time>2026-05-01T14:27:08.734Z</time></trkpt><trkpt lat="43.5787324" lon="12.4756311"><ele>392.3333333333333</ele><time>2026-05-01T14:27:09.746Z</time></trkpt><trkpt lat="43.5788095" lon="12.475817"><ele>395.0</ele><time>2026-05-01T14:27:10.741Z</time></trkpt><trkpt lat="43.5788816" lon="12.4759987"><ele>395.0</ele><time>2026-05-01T14:27:11.751Z</time></trkpt><trkpt lat="43.5789549" lon="12.4761796"><ele>395.0</ele><time>2026-05-01T14:27:12.741Z</time></trkpt><trkpt lat="43.579023" lon="12.4763667"><ele>395.0</ele><time>2026-05-01T14:27:13.746Z</time></trkpt><trkpt lat="43.5790712" lon="12.4765541"><ele>395.0</ele><time>2026-05-01T14:27:14.739Z</time></trkpt><trkpt lat="43.5790953" lon="12.4767355"><ele>395.0</ele><time>2026-05-01T14:27:15.747Z</time></trkpt><trkpt lat="43.5790949" lon="12.4769284"><ele>395.0</ele><time>2026-05-01T14:27:16.736Z</time></trkpt><trkpt lat="43.5790764" lon="12.477121"><ele>395.0</ele><time>2026-05-01T14:27:17.74Z</time></trkpt><trkpt lat="43.5790317" lon="12.477301"><ele>395.0</ele><time>2026-05-01T14:27:18.755Z</time></trkpt><trkpt lat="43.5789731" lon="12.4774641"><ele>397.3333333333333</ele><time>2026-05-01T14:27:19.739Z</time></trkpt><trkpt lat="43.5789096" lon="12.4776238"><ele>399.66666666666663</ele><time>2026-05-01T14:27:20.741Z</time></trkpt><trkpt lat="43.5788033" lon="12.4779586"><ele>402.0</ele><time>2026-05-01T14:27:22.742Z</time></trkpt><trkpt lat="43.578773" lon="12.4781246"><ele>402.25</ele><time>2026-05-01T14:27:23.746Z</time></trkpt><trkpt lat="43.5787696" lon="12.4782904"><ele>402.5</ele><time>2026-05-01T14:27:24.74Z</time></trkpt><trkpt lat="43.578785" lon="12.478462"><ele>402.75</ele><time>2026-05-01T14:27:25.735Z</time></trkpt><trkpt lat="43.5788221" lon="12.4786369"><ele>403.0</ele><time>2026-05-01T14:27:26.738Z</time></trkpt><trkpt lat="43.5788743" lon="12.4788052"><ele>399.5</ele><time>2026-05-01T14:27:27.75Z</time></trkpt><trkpt lat="43.5789288" lon="12.4789585"><ele>396.0</ele><time>2026-05-01T14:27:28.74Z</time></trkpt><trkpt lat="43.5789792" lon="12.4791302"><ele>392.5</ele><time>2026-05-01T14:27:29.732Z</time></trkpt><trkpt lat="43.5790129" lon="12.4793288"><ele>389.0</ele><time>2026-05-01T14:27:30.759Z</time></trkpt><trkpt lat="43.5790346" lon="12.4795317"><ele>386.5</ele><time>2026-05-01T14:27:31.746Z</time></trkpt><trkpt lat="43.5790364" lon="12.4797368"><ele>384.0</ele><time>2026-05-01T14:27:32.735Z</time></trkpt><trkpt lat="43.5790237" lon="12.4799393"><ele>381.5</ele><time>2026-05-01T14:27:33.739Z</time></trkpt><trkpt lat="43.5789941" lon="12.4801431"><ele>379.0</ele><time>2026-05-01T14:27:34.755Z</time></trkpt><trkpt lat="43.5789457" lon="12.4803379"><ele>379.0</ele><time>2026-05-01T14:27:35.743Z</time></trkpt><trkpt lat="43.5788867" lon="12.4805039"><ele>379.0</ele><time>2026-05-01T14:27:36.731Z</time></trkpt><trkpt lat="43.5788337" lon="12.4806584"><ele>379.0</ele><time>2026-05-01T14:27:37.736Z</time></trkpt><trkpt lat="43.5787883" lon="12.4808174"><ele>379.0</ele><time>2026-05-01T14:27:38.732Z</time></trkpt><trkpt lat="43.5787615" lon="12.4809989"><ele>379.0</ele><time>2026-05-01T14:27:39.749Z</time></trkpt><trkpt lat="43.5787689" lon="12.4811921"><ele>379.0</ele><time>2026-05-01T14:27:40.744Z</time></trkpt><trkpt lat="43.5787966" lon="12.4813874"><ele>379.0</ele><time>2026-05-01T14:27:41.743Z</time></trkpt><trkpt lat="43.578866" lon="12.4817493"><ele>380.0</ele><time>2026-05-01T14:27:43.736Z</time></trkpt><trkpt lat="43.578887" lon="12.4819201"><ele>381.0</ele><time>2026-05-01T14:27:44.738Z</time></trkpt><trkpt lat="43.5788819" lon="12.4820908"><ele>382.0</ele><time>2026-05-01T14:27:45.745Z</time></trkpt><trkpt lat="43.578856" lon="12.4822603"><ele>383.0</ele><time>2026-05-01T14:27:46.753Z</time></trkpt><trkpt lat="43.5788028" lon="12.4824139"><ele>382.5</ele><time>2026-05-01T14:27:47.746Z</time></trkpt><trkpt lat="43.5787274" lon="12.4825583"><ele>382.0</ele><time>2026-05-01T14:27:48.737Z</time></trkpt><trkpt lat="43.5786314" lon="12.4826771"><ele>381.5</ele><time>2026-05-01T14:27:49.734Z</time></trkpt><trkpt lat="43.5785205" lon="12.4827704"><ele>381.0</ele><time>2026-05-01T14:27:50.735Z</time></trkpt><trkpt lat="43.5783931" lon="12.4828278"><ele>381.0</ele><time>2026-05-01T14:27:51.736Z</time></trkpt><trkpt lat="43.5782655" lon="12.4828518"><ele>381.0</ele><time>2026-05-01T14:27:52.759Z</time></trkpt><trkpt lat="43.5781532" lon="12.4828372"><ele>381.0</ele><time>2026-05-01T14:27:53.759Z</time></trkpt><trkpt lat="43.5780378" lon="12.482838"><ele>381.0</ele><time>2026-05-01T14:27:54.745Z</time></trkpt><trkpt lat="43.5779341" lon="12.482863"><ele>384.0</ele><time>2026-05-01T14:27:55.75Z</time></trkpt><trkpt lat="43.5778375" lon="12.482921"><ele>387.0</ele><time>2026-05-01T14:27:56.758Z</time></trkpt><trkpt lat="43.5777542" lon="12.4830046"><ele>390.0</ele><time>2026-05-01T14:27:57.744Z</time></trkpt><trkpt lat="43.5776864" lon="12.4831192"><ele>393.0</ele><time>2026-05-01T14:27:58.733Z</time></trkpt><trkpt lat="43.5776417" lon="12.4832669"><ele>396.0</ele><time>2026-05-01T14:27:59.742Z</time></trkpt><trkpt lat="43.5776211" lon="12.4834172"><ele>396.0</ele><time>2026-05-01T14:28:00.735Z</time></trkpt><trkpt lat="43.577631" lon="12.4835807"><ele>396.0</ele><time>2026-05-01T14:28:01.737Z</time></trkpt><trkpt lat="43.577679" lon="12.4837521"><ele>396.0</ele><time>2026-05-01T14:28:02.74Z</time></trkpt><trkpt lat="43.5778336" lon="12.4840873"><ele>397.25</ele><time>2026-05-01T14:28:04.744Z</time></trkpt><trkpt lat="43.5779149" lon="12.4842538"><ele>398.5</ele><time>2026-05-01T14:28:05.757Z</time></trkpt><trkpt lat="43.5779971" lon="12.4844174"><ele>399.75</ele><time>2026-05-01T14:28:06.739Z</time></trkpt><trkpt lat="43.5780916" lon="12.4845874"><ele>401.0</ele><time>2026-05-01T14:28:07.736Z</time></trkpt><trkpt lat="43.5781927" lon="12.4847506"><ele>395.75</ele><time>2026-05-01T14:28:08.749Z</time></trkpt><trkpt lat="43.5782975" lon="12.4848977"><ele>390.5</ele><time>2026-05-01T14:28:09.743Z</time></trkpt><trkpt lat="43.5784022" lon="12.4850428"><ele>385.25</ele><time>2026-05-01T14:28:10.741Z</time></trkpt><trkpt lat="43.5785081" lon="12.4851866"><ele>380.0</ele><time>2026-05-01T14:28:11.743Z</time></trkpt><trkpt lat="43.5786216" lon="12.4853393"><ele>382.0</ele><time>2026-05-01T14:28:12.736Z</time></trkpt><trkpt lat="43.5787409" lon="12.4854847"><ele>384.0</ele><time>2026-05-01T14:28:13.739Z</time></trkpt><trkpt lat="43.5788624" lon="12.4856261"><ele>386.0</ele><time>2026-05-01T14:28:14.738Z</time></trkpt><trkpt lat="43.5789926" lon="12.4857525"><ele>386.0</ele><time>2026-05-01T14:28:15.734Z</time></trkpt><trkpt lat="43.5791226" lon="12.4858737"><ele>386.0</ele><time>2026-05-01T14:28:16.735Z</time></trkpt><trkpt lat="43.5792535" lon="12.4859867"><ele>386.0</ele><time>2026-05-01T14:28:17.743Z</time></trkpt><trkpt lat="43.5793862" lon="12.486098"><ele>383.66666666666663</ele><time>2026-05-01T14:28:18.727Z</time></trkpt><trkpt lat="43.5795285" lon="12.4862048"><ele>381.3333333333333</ele><time>2026-05-01T14:28:19.737Z</time></trkpt><trkpt lat="43.5796724" lon="12.48631"><ele>379.0</ele><time>2026-05-01T14:28:20.73Z</time></trkpt><trkpt lat="43.5798237" lon="12.4863924"><ele>379.0</ele><time>2026-05-01T14:28:21.736Z</time></trkpt><trkpt lat="43.5799756" lon="12.486472"><ele>379.0</ele><time>2026-05-01T14:28:22.736Z</time></trkpt><trkpt lat="43.5801271" lon="12.4865469"><ele>379.0</ele><time>2026-05-01T14:28:23.735Z</time></trkpt><trkpt lat="43.5804208" lon="12.4866895"><ele>381.25</ele><time>2026-05-01T14:28:25.75Z</time></trkpt><trkpt lat="43.5805487" lon="12.4867442"><ele>383.5</ele><time>2026-05-01T14:28:26.731Z</time></trkpt><trkpt lat="43.5806726" lon="12.4867952"><ele>385.75</ele><time>2026-05-01T14:28:27.735Z</time></trkpt><trkpt lat="43.5807929" lon="12.4868368"><ele>388.0</ele><time>2026-05-01T14:28:28.733Z</time></trkpt><trkpt lat="43.5809075" lon="12.486869"><ele>388.0</ele><time>2026-05-01T14:28:29.741Z</time></trkpt><trkpt lat="43.5810266" lon="12.4868791"><ele>388.0</ele><time>2026-05-01T14:28:30.74Z</time></trkpt><trkpt lat="43.5811414" lon="12.4868802"><ele>388.0</ele><time>2026-05-01T14:28:31.737Z</time></trkpt><trkpt lat="43.581255" lon="12.4868771"><ele>388.0</ele><time>2026-05-01T14:28:32.736Z</time></trkpt><trkpt lat="43.5813717" lon="12.4868471"><ele>386.5</ele><time>2026-05-01T14:28:33.742Z</time></trkpt><trkpt lat="43.581499" lon="12.4868009"><ele>385.0</ele><time>2026-05-01T14:28:34.749Z</time></trkpt><trkpt lat="43.5816309" lon="12.4867393"><ele>383.5</ele><time>2026-05-01T14:28:35.745Z</time></trkpt><trkpt lat="43.5817676" lon="12.4866908"><ele>382.0</ele><time>2026-05-01T14:28:36.739Z</time></trkpt><trkpt lat="43.5819015" lon="12.4866456"><ele>378.75</ele><time>2026-05-01T14:28:37.734Z</time></trkpt><trkpt lat="43.5820333" lon="12.4866171"><ele>375.5</ele><time>2026-05-01T14:28:38.738Z</time></trkpt><trkpt lat="43.5821722" lon="12.4866248"><ele>372.25</ele><time>2026-05-01T14:28:39.753Z</time></trkpt><trkpt lat="43.5823092" lon="12.4866522"><ele>369.0</ele><time>2026-05-01T14:28:40.741Z</time></trkpt><trkpt lat="43.582438" lon="12.4867121"><ele>369.0</ele><time>2026-05-01T14:28:41.745Z</time></trkpt><trkpt lat="43.5825645" lon="12.4867984"><ele>369.0</ele><time>2026-05-01T14:28:42.746Z</time></trkpt><trkpt lat="43.5826883" lon="12.4869047"><ele>369.0</ele><time>2026-05-01T14:28:43.738Z</time></trkpt><trkpt lat="43.5827933" lon="12.4870299"><ele>369.0</ele><time>2026-05-01T14:28:44.754Z</time></trkpt><trkpt lat="43.5829667" lon="12.487338"><ele>367.0</ele><time>2026-05-01T14:28:46.733Z</time></trkpt><trkpt lat="43.5830256" lon="12.4875263"><ele>365.0</ele><time>2026-05-01T14:28:47.737Z</time></trkpt><trkpt lat="43.5830689" lon="12.4877297"><ele>363.0</ele><time>2026-05-01T14:28:48.73Z</time></trkpt><trkpt lat="43.5830904" lon="12.4879413"><ele>362.0</ele><time>2026-05-01T14:28:49.741Z</time></trkpt><trkpt lat="43.5830913" lon="12.4881547"><ele>361.0</ele><time>2026-05-01T14:28:50.745Z</time></trkpt><trkpt lat="43.5830853" lon="12.4883767"><ele>360.0</ele><time>2026-05-01T14:28:51.739Z</time></trkpt><trkpt lat="43.5830755" lon="12.4885983"><ele>359.6666666666667</ele><time>2026-05-01T14:28:52.732Z</time></trkpt><trkpt lat="43.5830683" lon="12.4888192"><ele>359.33333333333337</ele><time>2026-05-01T14:28:53.733Z</time></trkpt><trkpt lat="43.5830586" lon="12.489033"><ele>359.0</ele><time>2026-05-01T14:28:54.74Z</time></trkpt><trkpt lat="43.5830522" lon="12.4892367"><ele>359.0</ele><time>2026-05-01T14:28:55.751Z</time></trkpt><trkpt lat="43.5830403" lon="12.489464"><ele>359.0</ele><time>2026-05-01T14:28:56.741Z</time></trkpt><trkpt lat="43.583032" lon="12.4897064"><ele>359.0</ele><time>2026-05-01T14:28:57.756Z</time></trkpt><trkpt lat="43.5830194" lon="12.4899572"><ele>358.0</ele><time>2026-05-01T14:28:58.745Z</time></trkpt><trkpt lat="43.5830077" lon="12.4901957"><ele>357.0</ele><time>2026-05-01T14:28:59.737Z</time></trkpt><trkpt lat="43.5829956" lon="12.4904187"><ele>356.0</ele><time>2026-05-01T14:29:00.749Z</time></trkpt><trkpt lat="43.5829869" lon="12.4906358"><ele>356.0</ele><time>2026-05-01T14:29:01.74Z</time></trkpt><trkpt lat="43.5829769" lon="12.4908413"><ele>356.0</ele><time>2026-05-01T14:29:02.751Z</time></trkpt><trkpt lat="43.5829673" lon="12.4910319"><ele>356.0</ele><time>2026-05-01T14:29:03.748Z</time></trkpt><trkpt lat="43.5829583" lon="12.4912242"><ele>356.0</ele><time>2026-05-01T14:29:04.735Z</time></trkpt><trkpt lat="43.5829443" lon="12.4914352"><ele>355.5</ele><time>2026-05-01T14:29:05.735Z</time></trkpt><trkpt lat="43.5828802" lon="12.4919135"><ele>355.0</ele><time>2026-05-01T14:29:07.738Z</time></trkpt><trkpt lat="43.5828172" lon="12.492154"><ele>359.0</ele><time>2026-05-01T14:29:08.732Z</time></trkpt><trkpt lat="43.5827394" lon="12.4923715"><ele>363.0</ele><time>2026-05-01T14:29:09.75Z</time></trkpt><trkpt lat="43.5826349" lon="12.4925871"><ele>367.0</ele><time>2026-05-01T14:29:10.743Z</time></trkpt><trkpt lat="43.5825108" lon="12.4927953"><ele>363.3333333333333</ele><time>2026-05-01T14:29:11.738Z</time></trkpt><trkpt lat="43.5823767" lon="12.4929887"><ele>359.6666666666667</ele><time>2026-05-01T14:29:12.747Z</time></trkpt><trkpt lat="43.5822551" lon="12.4931583"><ele>356.0</ele><time>2026-05-01T14:29:13.752Z</time></trkpt><trkpt lat="43.5821439" lon="12.4933186"><ele>356.0</ele><time>2026-05-01T14:29:14.75Z</time></trkpt><trkpt lat="43.5820322" lon="12.493471"><ele>356.0</ele><time>2026-05-01T14:29:15.73Z</time></trkpt><trkpt lat="43.5819209" lon="12.4936128"><ele>356.0</ele><time>2026-05-01T14:29:16.751Z</time></trkpt><trkpt lat="43.5817864" lon="12.4937465"><ele>358.0</ele><time>2026-05-01T14:29:17.757Z</time></trkpt><trkpt lat="43.5816211" lon="12.4938683"><ele>360.0</ele><time>2026-05-01T14:29:18.744Z</time></trkpt><trkpt lat="43.5814387" lon="12.4939754"><ele>362.0</ele><time>2026-05-01T14:29:19.744Z</time></trkpt><trkpt lat="43.5812674" lon="12.4940572"><ele>360.6666666666667</ele><time>2026-05-01T14:29:20.738Z</time></trkpt><trkpt lat="43.5811017" lon="12.4941328"><ele>359.3333333333333</ele><time>2026-05-01T14:29:21.753Z</time></trkpt><trkpt lat="43.5809456" lon="12.4941995"><ele>358.0</ele><time>2026-05-01T14:29:22.744Z</time></trkpt><trkpt lat="43.5807898" lon="12.4942761"><ele>358.0</ele><time>2026-05-01T14:29:23.739Z</time></trkpt><trkpt lat="43.5806444" lon="12.494339"><ele>358.0</ele><time>2026-05-01T14:29:24.746Z</time></trkpt><trkpt lat="43.5805123" lon="12.4944028"><ele>358.0</ele><time>2026-05-01T14:29:25.738Z</time></trkpt><trkpt lat="43.5803876" lon="12.4944867"><ele>358.0</ele><time>2026-05-01T14:29:26.734Z</time></trkpt><trkpt lat="43.5801435" lon="12.4947485"><ele>360.66666666666663</ele><time>2026-05-01T14:29:28.753Z</time></trkpt><trkpt lat="43.5800386" lon="12.4949224"><ele>363.3333333333333</ele><time>2026-05-01T14:29:29.749Z</time></trkpt><trkpt lat="43.5799483" lon="12.4951156"><ele>366.0</ele><time>2026-05-01T14:29:30.729Z</time></trkpt><trkpt lat="43.5798609" lon="12.4953066"><ele>373.33333333333337</ele><time>2026-05-01T14:29:31.736Z</time></trkpt><trkpt lat="43.5797719" lon="12.4955039"><ele>380.6666666666667</ele><time>2026-05-01T14:29:32.731Z</time></trkpt><trkpt lat="43.5796884" lon="12.4957053"><ele>388.0</ele><time>2026-05-01T14:29:33.743Z</time></trkpt><trkpt lat="43.5796145" lon="12.4959119"><ele>388.0</ele><time>2026-05-01T14:29:34.735Z</time></trkpt><trkpt lat="43.5795635" lon="12.4961354"><ele>388.0</ele><time>2026-05-01T14:29:35.739Z</time></trkpt><trkpt lat="43.5795384" lon="12.4963763"><ele>388.0</ele><time>2026-05-01T14:29:36.737Z</time></trkpt><trkpt lat="43.5795399" lon="12.4966029"><ele>388.33333333333337</ele><time>2026-05-01T14:29:37.746Z</time></trkpt><trkpt lat="43.5795703" lon="12.4968197"><ele>388.66666666666663</ele><time>2026-05-01T14:29:38.738Z</time></trkpt><trkpt lat="43.5796244" lon="12.4970259"><ele>389.0</ele><time>2026-05-01T14:29:39.735Z</time></trkpt><trkpt lat="43.5797023" lon="12.4972266"><ele>381.3333333333333</ele><time>2026-05-01T14:29:40.732Z</time></trkpt><trkpt lat="43.5798036" lon="12.4974073"><ele>373.66666666666663</ele><time>2026-05-01T14:29:41.744Z</time></trkpt><trkpt lat="43.5799212" lon="12.4975693"><ele>366.0</ele><time>2026-05-01T14:29:42.749Z</time></trkpt><trkpt lat="43.5800566" lon="12.497707"><ele>366.0</ele><time>2026-05-01T14:29:43.738Z</time></trkpt><trkpt lat="43.5802079" lon="12.4978276"><ele>366.0</ele><time>2026-05-01T14:29:44.735Z</time></trkpt><trkpt lat="43.5803809" lon="12.4979195"><ele>366.0</ele><time>2026-05-01T14:29:45.738Z</time></trkpt><trkpt lat="43.5805719" lon="12.497986"><ele>362.0</ele><time>2026-05-01T14:29:46.731Z</time></trkpt><trkpt lat="43.5807871" lon="12.4980434"><ele>358.0</ele><time>2026-05-01T14:29:47.74Z</time></trkpt><trkpt lat="43.5812095" lon="12.4981743"><ele>357.5</ele><time>2026-05-01T14:29:49.741Z</time></trkpt><trkpt lat="43.5814195" lon="12.4982353"><ele>357.0</ele><time>2026-05-01T14:29:50.742Z</time></trkpt><trkpt lat="43.581652" lon="12.4982945"><ele>357.0</ele><time>2026-05-01T14:29:51.745Z</time></trkpt><trkpt lat="43.5818976" lon="12.4983332"><ele>357.0</ele><time>2026-05-01T14:29:52.736Z</time></trkpt><trkpt lat="43.5821336" lon="12.4983594"><ele>356.6666666666667</ele><time>2026-05-01T14:29:53.741Z</time></trkpt><trkpt lat="43.5823559" lon="12.4983674"><ele>356.33333333333337</ele><time>2026-05-01T14:29:54.733Z</time></trkpt><trkpt lat="43.5825662" lon="12.4983635"><ele>356.0</ele><time>2026-05-01T14:29:55.735Z</time></trkpt><trkpt lat="43.5827673" lon="12.4983634"><ele>355.33333333333337</ele><time>2026-05-01T14:29:56.755Z</time></trkpt><trkpt lat="43.5829651" lon="12.4983751"><ele>354.6666666666667</ele><time>2026-05-01T14:29:57.75Z</time></trkpt><trkpt lat="43.5831526" lon="12.4983828"><ele>354.0</ele><time>2026-05-01T14:29:58.729Z</time></trkpt><trkpt lat="43.5833265" lon="12.4983856"><ele>354.0</ele><time>2026-05-01T14:29:59.734Z</time></trkpt><trkpt lat="43.5834961" lon="12.4983914"><ele>354.0</ele><time>2026-05-01T14:30:00.748Z</time></trkpt><trkpt lat="43.583675" lon="12.4984033"><ele>354.0</ele><time>2026-05-01T14:30:01.74Z</time></trkpt><trkpt lat="43.5838571" lon="12.49842"><ele>353.6666666666667</ele><time>2026-05-01T14:30:02.726Z</time></trkpt><trkpt lat="43.5840436" lon="12.4984389"><ele>353.33333333333337</ele><time>2026-05-01T14:30:03.739Z</time></trkpt><trkpt lat="43.5842304" lon="12.4984669"><ele>353.0</ele><time>2026-05-01T14:30:04.73Z</time></trkpt><trkpt lat="43.5844246" lon="12.4985073"><ele>355.6666666666667</ele><time>2026-05-01T14:30:05.742Z</time></trkpt><trkpt lat="43.5846182" lon="12.4985577"><ele>358.3333333333333</ele><time>2026-05-01T14:30:06.737Z</time></trkpt><trkpt lat="43.5848099" lon="12.4986159"><ele>361.0</ele><time>2026-05-01T14:30:07.746Z</time></trkpt><trkpt lat="43.5849967" lon="12.4986761"><ele>360.5</ele><time>2026-05-01T14:30:08.733Z</time></trkpt><trkpt lat="43.5853322" lon="12.4988149"><ele>360.0</ele><time>2026-05-01T14:30:10.738Z</time></trkpt><trkpt lat="43.5854911" lon="12.498884"><ele>360.0</ele><time>2026-05-01T14:30:11.744Z</time></trkpt><trkpt lat="43.5856415" lon="12.4989586"><ele>360.0</ele><time>2026-05-01T14:30:12.744Z</time></trkpt><trkpt lat="43.5857741" lon="12.499051"><ele>360.0</ele><time>2026-05-01T14:30:13.746Z</time></trkpt><trkpt lat="43.5858861" lon="12.499159"><ele>360.0</ele><time>2026-05-01T14:30:14.745Z</time></trkpt><trkpt lat="43.585982" lon="12.4992875"><ele>360.0</ele><time>2026-05-01T14:30:15.743Z</time></trkpt><trkpt lat="43.5860577" lon="12.4994393"><ele>360.0</ele><time>2026-05-01T14:30:16.747Z</time></trkpt><trkpt lat="43.586113" lon="12.499613"><ele>360.0</ele><time>2026-05-01T14:30:17.756Z</time></trkpt><trkpt lat="43.586148" lon="12.4998045"><ele>360.0</ele><time>2026-05-01T14:30:18.734Z</time></trkpt><trkpt lat="43.5861664" lon="12.5000106"><ele>357.0</ele><time>2026-05-01T14:30:19.747Z</time></trkpt><trkpt lat="43.5861643" lon="12.5002246"><ele>354.0</ele><time>2026-05-01T14:30:20.761Z</time></trkpt><trkpt lat="43.5861466" lon="12.500447"><ele>351.0</ele><time>2026-05-01T14:30:21.742Z</time></trkpt><trkpt lat="43.5861216" lon="12.5006734"><ele>351.0</ele><time>2026-05-01T14:30:22.737Z</time></trkpt><trkpt lat="43.5860931" lon="12.5009069"><ele>351.0</ele><time>2026-05-01T14:30:23.737Z</time></trkpt><trkpt lat="43.5860687" lon="12.5011494"><ele>351.0</ele><time>2026-05-01T14:30:24.737Z</time></trkpt><trkpt lat="43.5860405" lon="12.5013896"><ele>351.0</ele><time>2026-05-01T14:30:25.742Z</time></trkpt><trkpt lat="43.586012" lon="12.5016253"><ele>351.0</ele><time>2026-05-01T14:30:26.736Z</time></trkpt><trkpt lat="43.5859882" lon="12.5018564"><ele>351.0</ele><time>2026-05-01T14:30:27.741Z</time></trkpt><trkpt lat="43.5859665" lon="12.5020946"><ele>349.5</ele><time>2026-05-01T14:30:28.732Z</time></trkpt><trkpt lat="43.5859426" lon="12.5023379"><ele>348.0</ele><time>2026-05-01T14:30:29.739Z</time></trkpt><trkpt lat="43.5858886" lon="12.5028332"><ele>348.6666666666667</ele><time>2026-05-01T14:30:31.74Z</time></trkpt><trkpt lat="43.5858641" lon="12.5030668"><ele>349.33333333333337</ele><time>2026-05-01T14:30:32.741Z</time></trkpt><trkpt lat="43.585836" lon="12.5032897"><ele>350.0</ele><time>2026-05-01T14:30:33.739Z</time></trkpt><trkpt lat="43.5858109" lon="12.503508"><ele>350.0</ele><time>2026-05-01T14:30:34.737Z</time></trkpt><trkpt lat="43.5857873" lon="12.5037194"><ele>350.0</ele><time>2026-05-01T14:30:35.734Z</time></trkpt><trkpt lat="43.5857666" lon="12.5039266"><ele>350.0</ele><time>2026-05-01T14:30:36.741Z</time></trkpt><trkpt lat="43.585745" lon="12.5041255"><ele>350.33333333333337</ele><time>2026-05-01T14:30:37.745Z</time></trkpt><trkpt lat="43.5857214" lon="12.5043391"><ele>350.6666666666667</ele><time>2026-05-01T14:30:38.747Z</time></trkpt><trkpt lat="43.5856971" lon="12.5045496"><ele>351.0</ele><time>2026-05-01T14:30:39.746Z</time></trkpt><trkpt lat="43.5856729" lon="12.5047515"><ele>351.25</ele><time>2026-05-01T14:30:40.737Z</time></trkpt><trkpt lat="43.5856414" lon="12.5049504"><ele>351.5</ele><time>2026-05-01T14:30:41.74Z</time></trkpt><trkpt lat="43.5855952" lon="12.5051464"><ele>351.75</ele><time>2026-05-01T14:30:42.736Z</time></trkpt><trkpt lat="43.5855422" lon="12.5053255"><ele>352.0</ele><time>2026-05-01T14:30:43.743Z</time></trkpt><trkpt lat="43.5854858" lon="12.5054974"><ele>352.5</ele><time>2026-05-01T14:30:44.744Z</time></trkpt><trkpt lat="43.5854375" lon="12.5056622"><ele>353.0</ele><time>2026-05-01T14:30:45.739Z</time></trkpt><trkpt lat="43.5854067" lon="12.5058253"><ele>353.5</ele><time>2026-05-01T14:30:46.746Z</time></trkpt><trkpt lat="43.5853911" lon="12.5059999"><ele>354.0</ele><time>2026-05-01T14:30:47.736Z</time></trkpt><trkpt lat="43.5853879" lon="12.5061713"><ele>353.0</ele><time>2026-05-01T14:30:48.745Z</time></trkpt><trkpt lat="43.5853948" lon="12.5063299"><ele>352.0</ele><time>2026-05-01T14:30:49.744Z</time></trkpt><trkpt lat="43.5854131" lon="12.5064875"><ele>351.0</ele><time>2026-05-01T14:30:50.734Z</time></trkpt><trkpt lat="43.5854967" lon="12.5068066"><ele>351.0</ele><time>2026-05-01T14:30:52.744Z</time></trkpt><trkpt lat="43.5855569" lon="12.5069654"><ele>351.0</ele><time>2026-05-01T14:30:53.747Z</time></trkpt><trkpt lat="43.5856323" lon="12.5071129"><ele>351.0</ele><time>2026-05-01T14:30:54.752Z</time></trkpt><trkpt lat="43.5857135" lon="12.5072398"><ele>351.0</ele><time>2026-05-01T14:30:55.755Z</time></trkpt><trkpt lat="43.5858039" lon="12.5073384"><ele>350.0</ele><time>2026-05-01T14:30:56.74Z</time></trkpt><trkpt lat="43.585894" lon="12.5074195"><ele>349.0</ele><time>2026-05-01T14:30:57.739Z</time></trkpt><trkpt lat="43.585985" lon="12.5074837"><ele>348.0</ele><time>2026-05-01T14:30:58.753Z</time></trkpt><trkpt lat="43.5860689" lon="12.5075416"><ele>347.0</ele><time>2026-05-01T14:30:59.738Z</time></trkpt><trkpt lat="43.5861513" lon="12.5075879"><ele>346.0</ele><time>2026-05-01T14:31:00.736Z</time></trkpt><trkpt lat="43.5862369" lon="12.5076344"><ele>346.0</ele><time>2026-05-01T14:31:01.741Z</time></trkpt><trkpt lat="43.5863218" lon="12.5076854"><ele>346.0</ele><time>2026-05-01T14:31:02.746Z</time></trkpt><trkpt lat="43.5864107" lon="12.5077371"><ele>346.0</ele><time>2026-05-01T14:31:03.74Z</time></trkpt><trkpt lat="43.5865034" lon="12.5077919"><ele>346.0</ele><time>2026-05-01T14:31:04.735Z</time></trkpt><trkpt lat="43.5865985" lon="12.5078498"><ele>346.0</ele><time>2026-05-01T14:31:05.74Z</time></trkpt><trkpt lat="43.586702" lon="12.5079181"><ele>344.75</ele><time>2026-05-01T14:31:06.734Z</time></trkpt><trkpt lat="43.5868116" lon="12.5079917"><ele>343.5</ele><time>2026-05-01T14:31:07.75Z</time></trkpt><trkpt lat="43.5869304" lon="12.5080603"><ele>342.25</ele><time>2026-05-01T14:31:08.742Z</time></trkpt><trkpt lat="43.5870486" lon="12.508132"><ele>341.0</ele><time>2026-05-01T14:31:09.741Z</time></trkpt><trkpt lat="43.5871713" lon="12.5082046"><ele>341.0</ele><time>2026-05-01T14:31:10.741Z</time></trkpt><trkpt lat="43.5872886" lon="12.5082768"><ele>341.0</ele><time>2026-05-01T14:31:11.752Z</time></trkpt><trkpt lat="43.5875107" lon="12.5084072"><ele>341.0</ele><time>2026-05-01T14:31:13.745Z</time></trkpt><trkpt lat="43.5876202" lon="12.5084677"><ele>341.0</ele><time>2026-05-01T14:31:14.733Z</time></trkpt><trkpt lat="43.5877235" lon="12.508522"><ele>341.0</ele><time>2026-05-01T14:31:15.731Z</time></trkpt><trkpt lat="43.5878328" lon="12.5085795"><ele>341.0</ele><time>2026-05-01T14:31:16.741Z</time></trkpt><trkpt lat="43.5879351" lon="12.5086395"><ele>341.0</ele><time>2026-05-01T14:31:17.75Z</time></trkpt><trkpt lat="43.5880391" lon="12.5087011"><ele>340.25</ele><time>2026-05-01T14:31:18.741Z</time></trkpt><trkpt lat="43.5881417" lon="12.5087557"><ele>339.5</ele><time>2026-05-01T14:31:19.76Z</time></trkpt><trkpt lat="43.5882485" lon="12.5088217"><ele>338.75</ele><time>2026-05-01T14:31:20.754Z</time></trkpt><trkpt lat="43.5883597" lon="12.5088908"><ele>338.0</ele><time>2026-05-01T14:31:21.741Z</time></trkpt><trkpt lat="43.5884698" lon="12.5089577"><ele>338.0</ele><time>2026-05-01T14:31:22.733Z</time></trkpt><trkpt lat="43.5885751" lon="12.5090273"><ele>338.0</ele><time>2026-05-01T14:31:23.744Z</time></trkpt><trkpt lat="43.5886835" lon="12.5090907"><ele>338.0</ele><time>2026-05-01T14:31:24.731Z</time></trkpt><trkpt lat="43.5887872" lon="12.5091533"><ele>338.0</ele><time>2026-05-01T14:31:25.763Z</time></trkpt><trkpt lat="43.5888812" lon="12.5092026"><ele>338.0</ele><time>2026-05-01T14:31:26.749Z</time></trkpt><trkpt lat="43.5889644" lon="12.5092534"><ele>338.2</ele><time>2026-05-01T14:31:27.752Z</time></trkpt><trkpt lat="43.5890366" lon="12.5092994"><ele>338.4</ele><time>2026-05-01T14:31:28.732Z</time></trkpt><trkpt lat="43.5891051" lon="12.5093402"><ele>338.59999999999997</ele><time>2026-05-01T14:31:29.732Z</time></trkpt><trkpt lat="43.5891669" lon="12.5093744"><ele>338.79999999999995</ele><time>2026-05-01T14:31:30.74Z</time></trkpt><trkpt lat="43.5892681" lon="12.5094312"><ele>339.0</ele><time>2026-05-01T14:31:32.737Z</time></trkpt><trkpt lat="43.5893607" lon="12.5096329"><ele>338.3333333333333</ele><time>2026-05-01T14:31:36.741Z</time></trkpt><trkpt lat="43.5893447" lon="12.5097308"><ele>337.6666666666667</ele><time>2026-05-01T14:31:37.747Z</time></trkpt><trkpt lat="43.5893143" lon="12.5098338"><ele>337.0</ele><time>2026-05-01T14:31:38.747Z</time></trkpt><trkpt lat="43.5892665" lon="12.5099342"><ele>336.33333333333337</ele><time>2026-05-01T14:31:39.736Z</time></trkpt><trkpt lat="43.5892179" lon="12.5100356"><ele>335.6666666666667</ele><time>2026-05-01T14:31:40.747Z</time></trkpt><trkpt lat="43.589176" lon="12.5101269"><ele>335.0</ele><time>2026-05-01T14:31:41.741Z</time></trkpt><trkpt lat="43.5891406" lon="12.510203"><ele>335.0</ele><time>2026-05-01T14:31:42.733Z</time></trkpt><trkpt lat="43.5890843" lon="12.5103246"><ele>335.0</ele><time>2026-05-01T14:31:44.744Z</time></trkpt><trkpt lat="43.5890404" lon="12.5104064"><ele>335.0</ele><time>2026-05-01T14:31:46.733Z</time></trkpt><trkpt lat="43.5891321" lon="12.5104721"><ele>335.0</ele><time>2026-05-01T14:31:50.748Z</time></trkpt><trkpt lat="43.5891975" lon="12.5105154"><ele>335.0</ele><time>2026-05-01T14:31:51.744Z</time></trkpt><trkpt lat="43.5892674" lon="12.5106069"><ele>335.0</ele><time>2026-05-01T14:31:52.735Z</time></trkpt><trkpt lat="43.5893406" lon="12.5107357"><ele>335.0</ele><time>2026-05-01T14:31:53.742Z</time></trkpt><trkpt lat="43.5894819" lon="12.5110094"><ele>335.0</ele><time>2026-05-01T14:31:55.76Z</time></trkpt><trkpt lat="43.5895344" lon="12.5111364"><ele>335.0</ele><time>2026-05-01T14:31:56.754Z</time></trkpt><trkpt lat="43.5895863" lon="12.5112599"><ele>335.0</ele><time>2026-05-01T14:31:57.744Z</time></trkpt><trkpt lat="43.5896385" lon="12.5113847"><ele>335.0</ele><time>2026-05-01T14:31:58.739Z</time></trkpt><trkpt lat="43.5896927" lon="12.5115063"><ele>335.0</ele><time>2026-05-01T14:31:59.737Z</time></trkpt><trkpt lat="43.5897369" lon="12.5116144"><ele>335.0</ele><time>2026-05-01T14:32:00.759Z</time></trkpt><trkpt lat="43.5897733" lon="12.5117063"><ele>335.0</ele><time>2026-05-01T14:32:01.751Z</time></trkpt><trkpt lat="43.5898077" lon="12.5117954"><ele>335.0</ele><time>2026-05-01T14:32:02.752Z</time></trkpt><trkpt lat="43.5898467" lon="12.5118798"><ele>335.0</ele><time>2026-05-01T14:32:03.736Z</time></trkpt><trkpt lat="43.5898786" lon="12.511955"><ele>335.0</ele><time>2026-05-01T14:32:04.751Z</time></trkpt><trkpt lat="43.5899344" lon="12.5120804"><ele>335.0</ele><time>2026-05-01T14:32:06.74Z</time></trkpt><trkpt lat="43.5899942" lon="12.5122134"><ele>335.0</ele><time>2026-05-01T14:32:08.751Z</time></trkpt><trkpt lat="43.5900416" lon="12.5123019"><ele>335.8</ele><time>2026-05-01T14:32:10.75Z</time></trkpt><trkpt lat="43.5900306" lon="12.5124095"><ele>336.6</ele><time>2026-05-01T14:32:15.751Z</time></trkpt><trkpt lat="43.5898855" lon="12.512509"><ele>337.4</ele><time>2026-05-01T14:32:17.742Z</time></trkpt><trkpt lat="43.5897975" lon="12.5125682"><ele>338.2</ele><time>2026-05-01T14:32:18.728Z</time></trkpt><trkpt lat="43.5897076" lon="12.5126355"><ele>339.0</ele><time>2026-05-01T14:32:19.741Z</time></trkpt><trkpt lat="43.5896219" lon="12.5126942"><ele>339.0</ele><time>2026-05-01T14:32:20.742Z</time></trkpt><trkpt lat="43.5895466" lon="12.5127264"><ele>339.0</ele><time>2026-05-01T14:32:21.725Z</time></trkpt><trkpt lat="43.5894836" lon="12.5127307"><ele>339.0</ele><time>2026-05-01T14:32:22.754Z</time></trkpt><trkpt lat="43.589368" lon="12.5127326"><ele>339.0</ele><time>2026-05-01T14:32:24.756Z</time></trkpt><trkpt lat="43.589247" lon="12.5127346"><ele>339.0</ele><time>2026-05-01T14:32:26.754Z</time></trkpt><trkpt lat="43.5891385" lon="12.512751"><ele>339.0</ele><time>2026-05-01T14:32:28.756Z</time></trkpt><trkpt lat="43.5889931" lon="12.5127906"><ele>339.0</ele><time>2026-05-01T14:32:30.749Z</time></trkpt><trkpt lat="43.5888981" lon="12.5128322"><ele>339.0</ele><time>2026-05-01T14:32:31.741Z</time></trkpt><trkpt lat="43.5888022" lon="12.5128761"><ele>339.0</ele><time>2026-05-01T14:32:32.741Z</time></trkpt><trkpt lat="43.5887144" lon="12.512917"><ele>339.0</ele><time>2026-05-01T14:32:33.735Z</time></trkpt><trkpt lat="43.5886434" lon="12.5129501"><ele>340.6</ele><time>2026-05-01T14:32:34.748Z</time></trkpt><trkpt lat="43.5885267" lon="12.5130116"><ele>342.2</ele><time>2026-05-01T14:32:36.755Z</time></trkpt><trkpt lat="43.5883829" lon="12.5130524"><ele>343.8</ele><time>2026-05-01T14:32:38.731Z</time></trkpt><trkpt lat="43.5883005" lon="12.5130597"><ele>345.40000000000003</ele><time>2026-05-01T14:32:39.749Z</time></trkpt><trkpt lat="43.58822" lon="12.5130552"><ele>347.0</ele><time>2026-05-01T14:32:40.754Z</time></trkpt><trkpt lat="43.5881521" lon="12.5130456"><ele>347.0</ele><time>2026-05-01T14:32:41.744Z</time></trkpt><trkpt lat="43.5880883" lon="12.5130378"><ele>347.0</ele><time>2026-05-01T14:32:42.751Z</time></trkpt><trkpt lat="43.5880255" lon="12.513027"><ele>347.0</ele><time>2026-05-01T14:32:43.748Z</time></trkpt><trkpt lat="43.5879465" lon="12.5130102"><ele>347.0</ele><time>2026-05-01T14:32:44.749Z</time></trkpt><trkpt lat="43.5878469" lon="12.5129841"><ele>347.0</ele><time>2026-05-01T14:32:45.766Z</time></trkpt><trkpt lat="43.5877369" lon="12.5129598"><ele>347.0</ele><time>2026-05-01T14:32:46.746Z</time></trkpt><trkpt lat="43.5876274" lon="12.5129303"><ele>346.20000000000005</ele><time>2026-05-01T14:32:47.747Z</time></trkpt><trkpt lat="43.5875209" lon="12.512905"><ele>345.4</ele><time>2026-05-01T14:32:48.749Z</time></trkpt><trkpt lat="43.5874209" lon="12.5128846"><ele>344.6</ele><time>2026-05-01T14:32:49.754Z</time></trkpt><trkpt lat="43.5873349" lon="12.512866"><ele>343.79999999999995</ele><time>2026-05-01T14:32:50.761Z</time></trkpt><trkpt lat="43.5872621" lon="12.5128532"><ele>343.0</ele><time>2026-05-01T14:32:51.756Z</time></trkpt><trkpt lat="43.5871604" lon="12.5128071"><ele>343.0</ele><time>2026-05-01T14:32:53.764Z</time></trkpt><trkpt lat="43.587112" lon="12.5127186"><ele>343.0</ele><time>2026-05-01T14:32:55.744Z</time></trkpt><trkpt lat="43.5871322" lon="12.5126009"><ele>343.0</ele><time>2026-05-01T14:32:57.761Z</time></trkpt><trkpt lat="43.5872846" lon="12.51249"><ele>343.0</ele><time>2026-05-01T14:32:59.747Z</time></trkpt><trkpt lat="43.5873683" lon="12.5124151"><ele>343.0</ele><time>2026-05-01T14:33:00.737Z</time></trkpt><trkpt lat="43.587452" lon="12.5122929"><ele>343.0</ele><time>2026-05-01T14:33:01.745Z</time></trkpt><trkpt lat="43.587537" lon="12.5121871"><ele>343.0</ele><time>2026-05-01T14:33:02.745Z</time></trkpt><trkpt lat="43.5876262" lon="12.5120885"><ele>343.0</ele><time>2026-05-01T14:33:03.748Z</time></trkpt><trkpt lat="43.5877205" lon="12.5119847"><ele>343.0</ele><time>2026-05-01T14:33:04.74Z</time></trkpt><trkpt lat="43.5878089" lon="12.5118909"><ele>342.5</ele><time>2026-05-01T14:33:05.756Z</time></trkpt><trkpt lat="43.5878938" lon="12.5118014"><ele>342.0</ele><time>2026-05-01T14:33:06.744Z</time></trkpt><trkpt lat="43.587984" lon="12.5117069"><ele>341.5</ele><time>2026-05-01T14:33:07.749Z</time></trkpt><trkpt lat="43.5880816" lon="12.5116079"><ele>341.0</ele><time>2026-05-01T14:33:08.756Z</time></trkpt><trkpt lat="43.5881833" lon="12.5115114"><ele>341.0</ele><time>2026-05-01T14:33:09.738Z</time></trkpt><trkpt lat="43.5882756" lon="12.5114199"><ele>341.0</ele><time>2026-05-01T14:33:10.757Z</time></trkpt><trkpt lat="43.5883576" lon="12.5113335"><ele>341.0</ele><time>2026-05-01T14:33:11.762Z</time></trkpt><trkpt lat="43.5884281" lon="12.5112599"><ele>341.0</ele><time>2026-05-01T14:33:12.744Z</time></trkpt><trkpt lat="43.588504" lon="12.5111884"><ele>341.0</ele><time>2026-05-01T14:33:13.758Z</time></trkpt><trkpt lat="43.5885787" lon="12.5111153"><ele>340.6</ele><time>2026-05-01T14:33:14.752Z</time></trkpt><trkpt lat="43.5886577" lon="12.5110386"><ele>340.20000000000005</ele><time>2026-05-01T14:33:15.746Z</time></trkpt><trkpt lat="43.58874" lon="12.510952"><ele>339.79999999999995</ele><time>2026-05-01T14:33:16.737Z</time></trkpt><trkpt lat="43.588812" lon="12.5108607"><ele>339.4</ele><time>2026-05-01T14:33:17.765Z</time></trkpt><trkpt lat="43.5888786" lon="12.510763"><ele>339.0</ele><time>2026-05-01T14:33:18.751Z</time></trkpt><trkpt lat="43.5889843" lon="12.510593"><ele>338.5</ele><time>2026-05-01T14:33:20.744Z</time></trkpt><trkpt lat="43.5890244" lon="12.5105119"><ele>338.0</ele><time>2026-05-01T14:33:21.745Z</time></trkpt><trkpt lat="43.5890957" lon="12.5103703"><ele>337.5</ele><time>2026-05-01T14:33:23.74Z</time></trkpt><trkpt lat="43.5891309" lon="12.5102866"><ele>337.0</ele><time>2026-05-01T14:33:24.751Z</time></trkpt><trkpt lat="43.5891668" lon="12.5101941"><ele>336.5</ele><time>2026-05-01T14:33:25.747Z</time></trkpt><trkpt lat="43.5892016" lon="12.5101165"><ele>336.0</ele><time>2026-05-01T14:33:26.742Z</time></trkpt><trkpt lat="43.5892383" lon="12.5100408"><ele>336.0</ele><time>2026-05-01T14:33:27.747Z</time></trkpt><trkpt lat="43.5892994" lon="12.5098912"><ele>336.0</ele><time>2026-05-01T14:33:29.746Z</time></trkpt><trkpt lat="43.5893438" lon="12.5097716"><ele>336.0</ele><time>2026-05-01T14:33:31.744Z</time></trkpt><trkpt lat="43.5893858" lon="12.5096783"><ele>336.0</ele><time>2026-05-01T14:33:33.738Z</time></trkpt><trkpt lat="43.5894732" lon="12.5096248"><ele>336.0</ele><time>2026-05-01T14:33:35.745Z</time></trkpt><trkpt lat="43.5895843" lon="12.5096868"><ele>336.0</ele><time>2026-05-01T14:33:37.748Z</time></trkpt><trkpt lat="43.5896572" lon="12.5097371"><ele>336.0</ele><time>2026-05-01T14:33:38.742Z</time></trkpt><trkpt lat="43.5897297" lon="12.5097899"><ele>336.0</ele><time>2026-05-01T14:33:39.765Z</time></trkpt><trkpt lat="43.58987" lon="12.5098627"><ele>336.0</ele><time>2026-05-01T14:33:41.756Z</time></trkpt><trkpt lat="43.5899344" lon="12.5098961"><ele>336.0</ele><time>2026-05-01T14:33:42.761Z</time></trkpt><trkpt lat="43.5899968" lon="12.5099301"><ele>336.0</ele><time>2026-05-01T14:33:43.745Z</time></trkpt><trkpt lat="43.5900704" lon="12.5100001"><ele>336.0</ele><time>2026-05-01T14:33:45.762Z</time></trkpt><trkpt lat="43.5901298" lon="12.5100321"><ele>336.0</ele><time>2026-05-01T14:33:47.743Z</time></trkpt><trkpt lat="43.5902016" lon="12.5100546"><ele>336.0</ele><time>2026-05-01T14:33:50.75Z</time></trkpt><trkpt lat="43.5902687" lon="12.5101052"><ele>336.0</ele><time>2026-05-01T14:33:54.739Z</time></trkpt><trkpt lat="43.5903235" lon="12.5101595"><ele>336.0</ele><time>2026-05-01T14:33:57.742Z</time></trkpt><trkpt lat="43.5904301" lon="12.5101925"><ele>336.0</ele><time>2026-05-01T14:33:59.759Z</time></trkpt><trkpt lat="43.5904971" lon="12.5102119"><ele>339.75</ele><time>2026-05-01T14:34:00.749Z</time></trkpt><trkpt lat="43.5906743" lon="12.5101435"><ele>343.5</ele><time>2026-05-01T14:34:03.771Z</time></trkpt><trkpt lat="43.5907217" lon="12.5100375"><ele>347.25</ele><time>2026-05-01T14:34:04.747Z</time></trkpt><trkpt lat="43.5907728" lon="12.5098974"><ele>351.0</ele><time>2026-05-01T14:34:05.742Z</time></trkpt><trkpt lat="43.5908294" lon="12.5097147"><ele>349.0</ele><time>2026-05-01T14:34:06.738Z</time></trkpt><trkpt lat="43.5908999" lon="12.5094958"><ele>347.0</ele><time>2026-05-01T14:34:07.761Z</time></trkpt><trkpt lat="43.5909732" lon="12.509254"><ele>345.0</ele><time>2026-05-01T14:34:08.751Z</time></trkpt><trkpt lat="43.5910351" lon="12.5090235"><ele>345.0</ele><time>2026-05-01T14:34:09.756Z</time></trkpt><trkpt lat="43.5910778" lon="12.5088074"><ele>345.0</ele><time>2026-05-01T14:34:10.746Z</time></trkpt><trkpt lat="43.5911084" lon="12.5086088"><ele>345.0</ele><time>2026-05-01T14:34:11.747Z</time></trkpt><trkpt lat="43.5911338" lon="12.5084178"><ele>344.0</ele><time>2026-05-01T14:34:12.744Z</time></trkpt><trkpt lat="43.5911525" lon="12.5082343"><ele>343.0</ele><time>2026-05-01T14:34:13.735Z</time></trkpt><trkpt lat="43.5911814" lon="12.5080383"><ele>342.0</ele><time>2026-05-01T14:34:14.732Z</time></trkpt><trkpt lat="43.5912232" lon="12.5078488"><ele>341.0</ele><time>2026-05-01T14:34:15.753Z</time></trkpt><trkpt lat="43.5912763" lon="12.5076687"><ele>343.5</ele><time>2026-05-01T14:34:16.741Z</time></trkpt><trkpt lat="43.5913369" lon="12.5074992"><ele>346.0</ele><time>2026-05-01T14:34:17.757Z</time></trkpt><trkpt lat="43.5914039" lon="12.5073265"><ele>348.5</ele><time>2026-05-01T14:34:18.741Z</time></trkpt><trkpt lat="43.591473" lon="12.5071549"><ele>351.0</ele><time>2026-05-01T14:34:19.745Z</time></trkpt><trkpt lat="43.5915392" lon="12.5069769"><ele>351.0</ele><time>2026-05-01T14:34:20.744Z</time></trkpt><trkpt lat="43.5916066" lon="12.5067992"><ele>351.0</ele><time>2026-05-01T14:34:21.764Z</time></trkpt><trkpt lat="43.5917473" lon="12.5064376"><ele>351.0</ele><time>2026-05-01T14:34:23.759Z</time></trkpt><trkpt lat="43.5918128" lon="12.5062569"><ele>349.25</ele><time>2026-05-01T14:34:24.755Z</time></trkpt><trkpt lat="43.5918814" lon="12.506092"><ele>347.5</ele><time>2026-05-01T14:34:25.742Z</time></trkpt><trkpt lat="43.5919398" lon="12.5059427"><ele>345.75</ele><time>2026-05-01T14:34:26.742Z</time></trkpt><trkpt lat="43.5919976" lon="12.505803"><ele>344.0</ele><time>2026-05-01T14:34:27.761Z</time></trkpt><trkpt lat="43.592055" lon="12.5056618"><ele>345.75</ele><time>2026-05-01T14:34:28.758Z</time></trkpt><trkpt lat="43.5921238" lon="12.5055124"><ele>347.5</ele><time>2026-05-01T14:34:29.745Z</time></trkpt><trkpt lat="43.5922012" lon="12.5053585"><ele>349.25</ele><time>2026-05-01T14:34:30.75Z</time></trkpt><trkpt lat="43.5922882" lon="12.5051885"><ele>351.0</ele><time>2026-05-01T14:34:31.77Z</time></trkpt><trkpt lat="43.5923863" lon="12.5050079"><ele>351.0</ele><time>2026-05-01T14:34:32.75Z</time></trkpt><trkpt lat="43.5924697" lon="12.5048403"><ele>351.0</ele><time>2026-05-01T14:34:33.752Z</time></trkpt><trkpt lat="43.5925368" lon="12.5047258"><ele>351.0</ele><time>2026-05-01T14:34:34.744Z</time></trkpt><trkpt lat="43.592582" lon="12.5046378"><ele>351.0</ele><time>2026-05-01T14:34:35.748Z</time></trkpt><trkpt lat="43.5926226" lon="12.5045633"><ele>351.0</ele><time>2026-05-01T14:34:36.747Z</time></trkpt><trkpt lat="43.5927054" lon="12.5044381"><ele>352.0</ele><time>2026-05-01T14:34:38.749Z</time></trkpt><trkpt lat="43.5927704" lon="12.5043361"><ele>353.0</ele><time>2026-05-01T14:34:39.741Z</time></trkpt><trkpt lat="43.5928496" lon="12.5042006"><ele>354.0</ele><time>2026-05-01T14:34:40.741Z</time></trkpt><trkpt lat="43.5929242" lon="12.5040776"><ele>355.0</ele><time>2026-05-01T14:34:41.738Z</time></trkpt><trkpt lat="43.5929869" lon="12.5039774"><ele>356.0</ele><time>2026-05-01T14:34:42.742Z</time></trkpt><trkpt lat="43.5931146" lon="12.5037771"><ele>356.0</ele><time>2026-05-01T14:34:45.748Z</time></trkpt><trkpt lat="43.5932022" lon="12.5037587"><ele>356.0</ele><time>2026-05-01T14:34:47.734Z</time></trkpt><trkpt lat="43.593267" lon="12.5037528"><ele>356.0</ele><time>2026-05-01T14:34:49.747Z</time></trkpt><trkpt lat="43.5933178" lon="12.5036919"><ele>349.0</ele><time>2026-05-01T14:34:52.754Z</time></trkpt><trkpt lat="43.593304" lon="12.503602"><ele>349.0</ele><time>2026-05-01T14:34:57.747Z</time></trkpt><trkpt lat="43.5932988" lon="12.5037113"><ele>349.0</ele><time>2026-05-01T14:35:03.752Z</time></trkpt></trkseg><trkseg><trkpt lat="43.5903206" lon="12.5100174"><ele>336.0</ele><time>2026-05-02T07:27:05.02Z</time></trkpt><trkpt lat="43.5902229" lon="12.5099601"><ele>336.0</ele><time>2026-05-02T07:27:07.033Z</time></trkpt><trkpt lat="43.5901131" lon="12.5098839"><ele>336.0</ele><time>2026-05-02T07:27:09.02Z</time></trkpt><trkpt lat="43.5900532" lon="12.5098538"><ele>336.0</ele><time>2026-05-02T07:27:10.005Z</time></trkpt><trkpt lat="43.5899407" lon="12.5097954"><ele>336.0</ele><time>2026-05-02T07:27:12.01Z</time></trkpt><trkpt lat="43.5898282" lon="12.5097337"><ele>336.0</ele><time>2026-05-02T07:27:14.019Z</time></trkpt><trkpt lat="43.5897647" lon="12.5096988"><ele>336.0</ele><time>2026-05-02T07:27:15.017Z</time></trkpt><trkpt lat="43.5897028" lon="12.5096556"><ele>336.0</ele><time>2026-05-02T07:27:16.022Z</time></trkpt><trkpt lat="43.5896386" lon="12.5096185"><ele>336.0</ele><time>2026-05-02T07:27:17.022Z</time></trkpt><trkpt lat="43.5895718" lon="12.5095906"><ele>336.0</ele><time>2026-05-02T07:27:18.028Z</time></trkpt><trkpt lat="43.5894568" lon="12.5095188"><ele>336.0</ele><time>2026-05-02T07:27:20.032Z</time></trkpt><trkpt lat="43.5893918" lon="12.5094765"><ele>336.6</ele><time>2026-05-02T07:27:21.031Z</time></trkpt><trkpt lat="43.5893185" lon="12.5094379"><ele>337.20000000000005</ele><time>2026-05-02T07:27:22.024Z</time></trkpt><trkpt lat="43.5892461" lon="12.5093856"><ele>337.79999999999995</ele><time>2026-05-02T07:27:23.022Z</time></trkpt><trkpt lat="43.589156" lon="12.5093316"><ele>338.4</ele><time>2026-05-02T07:27:24.018Z</time></trkpt><trkpt lat="43.5890512" lon="12.5092776"><ele>339.0</ele><time>2026-05-02T07:27:25.038Z</time></trkpt><trkpt lat="43.5889445" lon="12.5092248"><ele>339.0</ele><time>2026-05-02T07:27:26.019Z</time></trkpt><trkpt lat="43.5888372" lon="12.5091687"><ele>339.0</ele><time>2026-05-02T07:27:27.022Z</time></trkpt><trkpt lat="43.5887368" lon="12.5091121"><ele>339.0</ele><time>2026-05-02T07:27:28.036Z</time></trkpt><trkpt lat="43.5886433" lon="12.5090578"><ele>339.0</ele><time>2026-05-02T07:27:29.034Z</time></trkpt><trkpt lat="43.5885484" lon="12.5090078"><ele>339.0</ele><time>2026-05-02T07:27:30.026Z</time></trkpt><trkpt lat="43.5884548" lon="12.5089537"><ele>338.79999999999995</ele><time>2026-05-02T07:27:31.026Z</time></trkpt><trkpt lat="43.5883589" lon="12.5088985"><ele>338.59999999999997</ele><time>2026-05-02T07:27:32.024Z</time></trkpt><trkpt lat="43.5882613" lon="12.5088376"><ele>338.4</ele><time>2026-05-02T07:27:33.036Z</time></trkpt><trkpt lat="43.5881649" lon="12.5087781"><ele>338.2</ele><time>2026-05-02T07:27:34.026Z</time></trkpt><trkpt lat="43.588069" lon="12.508721"><ele>338.0</ele><time>2026-05-02T07:27:35.031Z</time></trkpt><trkpt lat="43.5879759" lon="12.5086597"><ele>338.75</ele><time>2026-05-02T07:27:36.023Z</time></trkpt><trkpt lat="43.5878787" lon="12.5085967"><ele>339.5</ele><time>2026-05-02T07:27:37.026Z</time></trkpt><trkpt lat="43.5877772" lon="12.5085308"><ele>340.25</ele><time>2026-05-02T07:27:38.037Z</time></trkpt><trkpt lat="43.5876759" lon="12.5084602"><ele>341.0</ele><time>2026-05-02T07:27:39.028Z</time></trkpt><trkpt lat="43.5875675" lon="12.5083954"><ele>341.0</ele><time>2026-05-02T07:27:40.037Z</time></trkpt><trkpt lat="43.5874615" lon="12.5083307"><ele>341.0</ele><time>2026-05-02T07:27:41.028Z</time></trkpt><trkpt lat="43.5873499" lon="12.5082636"><ele>341.0</ele><time>2026-05-02T07:27:42.028Z</time></trkpt><trkpt lat="43.5872421" lon="12.5082066"><ele>341.0</ele><time>2026-05-02T07:27:43.034Z</time></trkpt><trkpt lat="43.5871308" lon="12.5081419"><ele>341.0</ele><time>2026-05-02T07:27:44.024Z</time></trkpt><trkpt lat="43.5870237" lon="12.5080778"><ele>341.0</ele><time>2026-05-02T07:27:45.023Z</time></trkpt><trkpt lat="43.5869191" lon="12.5080118"><ele>341.0</ele><time>2026-05-02T07:27:46.027Z</time></trkpt><trkpt lat="43.5868186" lon="12.5079488"><ele>341.0</ele><time>2026-05-02T07:27:47.027Z</time></trkpt><trkpt lat="43.5867158" lon="12.5078861"><ele>342.0</ele><time>2026-05-02T07:27:48.031Z</time></trkpt><trkpt lat="43.5866108" lon="12.5078199"><ele>343.0</ele><time>2026-05-02T07:27:49.03Z</time></trkpt><trkpt lat="43.5865065" lon="12.5077589"><ele>344.0</ele><time>2026-05-02T07:27:50.03Z</time></trkpt><trkpt lat="43.5864077" lon="12.5076994"><ele>345.0</ele><time>2026-05-02T07:27:51.03Z</time></trkpt><trkpt lat="43.586308" lon="12.5076374"><ele>346.0</ele><time>2026-05-02T07:27:52.036Z</time></trkpt><trkpt lat="43.5862081" lon="12.5075802"><ele>346.0</ele><time>2026-05-02T07:27:53.026Z</time></trkpt><trkpt lat="43.5861071" lon="12.5075189"><ele>346.0</ele><time>2026-05-02T07:27:54.026Z</time></trkpt><trkpt lat="43.5860024" lon="12.5074597"><ele>346.0</ele><time>2026-05-02T07:27:55.03Z</time></trkpt><trkpt lat="43.5859043" lon="12.5073817"><ele>346.0</ele><time>2026-05-02T07:27:56.024Z</time></trkpt><trkpt lat="43.5858114" lon="12.5072929"><ele>346.0</ele><time>2026-05-02T07:27:57.028Z</time></trkpt><trkpt lat="43.5857318" lon="12.5071876"><ele>346.0</ele><time>2026-05-02T07:27:58.029Z</time></trkpt><trkpt lat="43.5856655" lon="12.5070714"><ele>346.0</ele><time>2026-05-02T07:27:59.027Z</time></trkpt><trkpt lat="43.5856057" lon="12.5069551"><ele>346.0</ele><time>2026-05-02T07:28:00.033Z</time></trkpt><trkpt lat="43.5855498" lon="12.5068342"><ele>346.0</ele><time>2026-05-02T07:28:01.029Z</time></trkpt><trkpt lat="43.5855013" lon="12.5066924"><ele>347.25</ele><time>2026-05-02T07:28:02.022Z</time></trkpt><trkpt lat="43.5854695" lon="12.5065398"><ele>348.5</ele><time>2026-05-02T07:28:03.023Z</time></trkpt><trkpt lat="43.585444" lon="12.5063815"><ele>349.75</ele><time>2026-05-02T07:28:04.03Z</time></trkpt><trkpt lat="43.5854283" lon="12.5062127"><ele>351.0</ele><time>2026-05-02T07:28:05.03Z</time></trkpt><trkpt lat="43.5854261" lon="12.5060342"><ele>351.25</ele><time>2026-05-02T07:28:06.035Z</time></trkpt><trkpt lat="43.58544" lon="12.5058532"><ele>351.5</ele><time>2026-05-02T07:28:07.027Z</time></trkpt><trkpt lat="43.585475" lon="12.5056743"><ele>351.75</ele><time>2026-05-02T07:28:08.019Z</time></trkpt><trkpt lat="43.585522" lon="12.5055023"><ele>352.0</ele><time>2026-05-02T07:28:09.022Z</time></trkpt><trkpt lat="43.5855737" lon="12.5053404"><ele>352.0</ele><time>2026-05-02T07:28:10.018Z</time></trkpt><trkpt lat="43.5856242" lon="12.505175"><ele>352.0</ele><time>2026-05-02T07:28:11.037Z</time></trkpt><trkpt lat="43.5856609" lon="12.5050122"><ele>352.0</ele><time>2026-05-02T07:28:12.018Z</time></trkpt><trkpt lat="43.5856879" lon="12.5048459"><ele>352.0</ele><time>2026-05-02T07:28:13.014Z</time></trkpt><trkpt lat="43.5857115" lon="12.5046867"><ele>351.75</ele><time>2026-05-02T07:28:14.024Z</time></trkpt><trkpt lat="43.585735" lon="12.5045209"><ele>351.5</ele><time>2026-05-02T07:28:15.015Z</time></trkpt><trkpt lat="43.5857535" lon="12.5043563"><ele>351.25</ele><time>2026-05-02T07:28:16.022Z</time></trkpt><trkpt lat="43.5857704" lon="12.5041909"><ele>351.0</ele><time>2026-05-02T07:28:17.039Z</time></trkpt><trkpt lat="43.5857883" lon="12.5040238"><ele>351.0</ele><time>2026-05-02T07:28:18.041Z</time></trkpt><trkpt lat="43.585806" lon="12.5038553"><ele>351.0</ele><time>2026-05-02T07:28:19.024Z</time></trkpt><trkpt lat="43.585826" lon="12.5036808"><ele>351.0</ele><time>2026-05-02T07:28:20.019Z</time></trkpt><trkpt lat="43.5858438" lon="12.5035052"><ele>351.0</ele><time>2026-05-02T07:28:21.023Z</time></trkpt><trkpt lat="43.5858652" lon="12.5033272"><ele>350.75</ele><time>2026-05-02T07:28:22.041Z</time></trkpt><trkpt lat="43.585886" lon="12.5031449"><ele>350.5</ele><time>2026-05-02T07:28:23.03Z</time></trkpt><trkpt lat="43.5859042" lon="12.5029638"><ele>350.25</ele><time>2026-05-02T07:28:24.026Z</time></trkpt><trkpt lat="43.5859233" lon="12.5027741"><ele>350.0</ele><time>2026-05-02T07:28:25.024Z</time></trkpt><trkpt lat="43.5859445" lon="12.5025831"><ele>350.25</ele><time>2026-05-02T07:28:26.029Z</time></trkpt><trkpt lat="43.5859663" lon="12.5023836"><ele>350.5</ele><time>2026-05-02T07:28:27.028Z</time></trkpt><trkpt lat="43.5859848" lon="12.5021992"><ele>350.75</ele><time>2026-05-02T07:28:28.028Z</time></trkpt><trkpt lat="43.5860036" lon="12.502023"><ele>351.0</ele><time>2026-05-02T07:28:29.026Z</time></trkpt><trkpt lat="43.5860226" lon="12.501852"><ele>351.0</ele><time>2026-05-02T07:28:30.025Z</time></trkpt><trkpt lat="43.5860388" lon="12.50169"><ele>351.0</ele><time>2026-05-02T07:28:31.023Z</time></trkpt><trkpt lat="43.5860572" lon="12.5015233"><ele>351.0</ele><time>2026-05-02T07:28:32.027Z</time></trkpt><trkpt lat="43.586076" lon="12.5013551"><ele>351.0</ele><time>2026-05-02T07:28:33.023Z</time></trkpt><trkpt lat="43.5860948" lon="12.501184"><ele>351.0</ele><time>2026-05-02T07:28:34.027Z</time></trkpt><trkpt lat="43.5861173" lon="12.5010125"><ele>351.0</ele><time>2026-05-02T07:28:35.023Z</time></trkpt><trkpt lat="43.5861358" lon="12.5008353"><ele>351.0</ele><time>2026-05-02T07:28:36.021Z</time></trkpt><trkpt lat="43.5861594" lon="12.5006432"><ele>351.0</ele><time>2026-05-02T07:28:37.021Z</time></trkpt><trkpt lat="43.5861759" lon="12.5004514"><ele>356.5</ele><time>2026-05-02T07:28:38.019Z</time></trkpt><trkpt lat="43.586192" lon="12.5002744"><ele>362.0</ele><time>2026-05-02T07:28:39.023Z</time></trkpt><trkpt lat="43.5862016" lon="12.5000977"><ele>367.5</ele><time>2026-05-02T07:28:40.025Z</time></trkpt><trkpt lat="43.5862019" lon="12.4999325"><ele>373.0</ele><time>2026-05-02T07:28:41.025Z</time></trkpt><trkpt lat="43.5861824" lon="12.4997853"><ele>369.75</ele><time>2026-05-02T07:28:42.024Z</time></trkpt><trkpt lat="43.5861538" lon="12.4996294"><ele>366.5</ele><time>2026-05-02T07:28:43.026Z</time></trkpt><trkpt lat="43.5861039" lon="12.4994817"><ele>363.25</ele><time>2026-05-02T07:28:44.021Z</time></trkpt><trkpt lat="43.5860418" lon="12.4993392"><ele>360.0</ele><time>2026-05-02T07:28:45.025Z</time></trkpt><trkpt lat="43.5859646" lon="12.499219"><ele>360.0</ele><time>2026-05-02T07:28:46.02Z</time></trkpt><trkpt lat="43.5858773" lon="12.4991049"><ele>360.0</ele><time>2026-05-02T07:28:47.024Z</time></trkpt><trkpt lat="43.585778" lon="12.4990103"><ele>360.0</ele><time>2026-05-02T07:28:48.028Z</time></trkpt><trkpt lat="43.5856705" lon="12.4989332"><ele>360.0</ele><time>2026-05-02T07:28:49.024Z</time></trkpt><trkpt lat="43.58555" lon="12.4988703"><ele>360.0</ele><time>2026-05-02T07:28:50.028Z</time></trkpt><trkpt lat="43.5854194" lon="12.4988146"><ele>360.0</ele><time>2026-05-02T07:28:51.027Z</time></trkpt><trkpt lat="43.5852855" lon="12.4987601"><ele>360.0</ele><time>2026-05-02T07:28:52.022Z</time></trkpt><trkpt lat="43.5851573" lon="12.4987068"><ele>360.0</ele><time>2026-05-02T07:28:53.027Z</time></trkpt><trkpt lat="43.5850233" lon="12.4986631"><ele>360.25</ele><time>2026-05-02T07:28:54.029Z</time></trkpt><trkpt lat="43.584893" lon="12.4986163"><ele>360.5</ele><time>2026-05-02T07:28:55.021Z</time></trkpt><trkpt lat="43.5847719" lon="12.4985713"><ele>360.75</ele><time>2026-05-02T07:28:56.022Z</time></trkpt><trkpt lat="43.5846672" lon="12.4985354"><ele>361.0</ele><time>2026-05-02T07:28:57.031Z</time></trkpt><trkpt lat="43.5845738" lon="12.498506"><ele>359.66666666666663</ele><time>2026-05-02T07:28:58.025Z</time></trkpt><trkpt lat="43.5844943" lon="12.4984836"><ele>358.3333333333333</ele><time>2026-05-02T07:28:59.028Z</time></trkpt><trkpt lat="43.584426" lon="12.4984629"><ele>357.0</ele><time>2026-05-02T07:29:00.039Z</time></trkpt><trkpt lat="43.5843274" lon="12.498433"><ele>355.6666666666667</ele><time>2026-05-02T07:29:02.024Z</time></trkpt><trkpt lat="43.5842666" lon="12.4983876"><ele>354.33333333333337</ele><time>2026-05-02T07:29:05.027Z</time></trkpt><trkpt lat="43.5841935" lon="12.49838"><ele>353.0</ele><time>2026-05-02T07:35:12.03Z</time></trkpt><trkpt lat="43.5841157" lon="12.4983778"><ele>353.0</ele><time>2026-05-02T07:35:14.02Z</time></trkpt><trkpt lat="43.5839684" lon="12.4983875"><ele>353.0</ele><time>2026-05-02T07:35:16.016Z</time></trkpt><trkpt lat="43.5838682" lon="12.4983726"><ele>353.0</ele><time>2026-05-02T07:35:17.025Z</time></trkpt><trkpt lat="43.5837749" lon="12.4983686"><ele>353.0</ele><time>2026-05-02T07:35:18.02Z</time></trkpt><trkpt lat="43.5836752" lon="12.4983618"><ele>353.0</ele><time>2026-05-02T07:35:19.019Z</time></trkpt><trkpt lat="43.5835719" lon="12.4983559"><ele>353.25</ele><time>2026-05-02T07:35:20.017Z</time></trkpt><trkpt lat="43.5834553" lon="12.4983543"><ele>353.5</ele><time>2026-05-02T07:35:21.019Z</time></trkpt><trkpt lat="43.5833349" lon="12.4983541"><ele>353.75</ele><time>2026-05-02T07:35:22.031Z</time></trkpt><trkpt lat="43.5832103" lon="12.4983563"><ele>354.0</ele><time>2026-05-02T07:35:23.028Z</time></trkpt><trkpt lat="43.5830807" lon="12.4983572"><ele>354.0</ele><time>2026-05-02T07:35:24.031Z</time></trkpt><trkpt lat="43.5829471" lon="12.4983608"><ele>354.0</ele><time>2026-05-02T07:35:25.029Z</time></trkpt><trkpt lat="43.58282" lon="12.4983624"><ele>354.0</ele><time>2026-05-02T07:35:26.018Z</time></trkpt><trkpt lat="43.5827017" lon="12.498365"><ele>354.0</ele><time>2026-05-02T07:35:27.039Z</time></trkpt><trkpt lat="43.5825798" lon="12.498365"><ele>354.5</ele><time>2026-05-02T07:35:28.02Z</time></trkpt><trkpt lat="43.5824506" lon="12.4983622"><ele>355.0</ele><time>2026-05-02T07:35:29.023Z</time></trkpt><trkpt lat="43.5823275" lon="12.4983624"><ele>355.5</ele><time>2026-05-02T07:35:30.023Z</time></trkpt><trkpt lat="43.5821996" lon="12.4983609"><ele>356.0</ele><time>2026-05-02T07:35:31.015Z</time></trkpt><trkpt lat="43.5820708" lon="12.4983556"><ele>356.25</ele><time>2026-05-02T07:35:32.015Z</time></trkpt><trkpt lat="43.5819362" lon="12.4983396"><ele>356.5</ele><time>2026-05-02T07:35:33.022Z</time></trkpt><trkpt lat="43.5817952" lon="12.498308"><ele>356.75</ele><time>2026-05-02T07:35:34.022Z</time></trkpt><trkpt lat="43.5816547" lon="12.4982794"><ele>357.0</ele><time>2026-05-02T07:35:35.019Z</time></trkpt><trkpt lat="43.5815172" lon="12.4982428"><ele>357.0</ele><time>2026-05-02T07:35:36.02Z</time></trkpt><trkpt lat="43.581384" lon="12.4982"><ele>357.0</ele><time>2026-05-02T07:35:37.016Z</time></trkpt><trkpt lat="43.5812535" lon="12.4981546"><ele>357.0</ele><time>2026-05-02T07:35:38.021Z</time></trkpt><trkpt lat="43.5811227" lon="12.4981105"><ele>357.0</ele><time>2026-05-02T07:35:39.023Z</time></trkpt><trkpt lat="43.5809874" lon="12.4980681"><ele>357.25</ele><time>2026-05-02T07:35:40.019Z</time></trkpt><trkpt lat="43.5808517" lon="12.4980245"><ele>357.5</ele><time>2026-05-02T07:35:41.019Z</time></trkpt><trkpt lat="43.5807156" lon="12.4979826"><ele>357.75</ele><time>2026-05-02T07:35:42.015Z</time></trkpt><trkpt lat="43.5805832" lon="12.4979397"><ele>358.0</ele><time>2026-05-02T07:35:43.03Z</time></trkpt><trkpt lat="43.5804518" lon="12.4978967"><ele>360.0</ele><time>2026-05-02T07:35:44.016Z</time></trkpt><trkpt lat="43.5803284" lon="12.4978437"><ele>362.0</ele><time>2026-05-02T07:35:45.023Z</time></trkpt><trkpt lat="43.5802139" lon="12.4977849"><ele>364.0</ele><time>2026-05-02T07:35:46.02Z</time></trkpt><trkpt lat="43.5801037" lon="12.4977081"><ele>366.0</ele><time>2026-05-02T07:35:47.03Z</time></trkpt><trkpt lat="43.5800009" lon="12.4976041"><ele>366.0</ele><time>2026-05-02T07:35:48.03Z</time></trkpt><trkpt lat="43.5798981" lon="12.4974841"><ele>366.0</ele><time>2026-05-02T07:35:49.018Z</time></trkpt><trkpt lat="43.5797956" lon="12.4973561"><ele>366.0</ele><time>2026-05-02T07:35:50.018Z</time></trkpt><trkpt lat="43.5797135" lon="12.4972112"><ele>366.0</ele><time>2026-05-02T07:35:51.02Z</time></trkpt><trkpt lat="43.5796529" lon="12.4970451"><ele>371.75</ele><time>2026-05-02T07:35:52.017Z</time></trkpt><trkpt lat="43.5796083" lon="12.4968612"><ele>377.5</ele><time>2026-05-02T07:35:53.026Z</time></trkpt><trkpt lat="43.5795728" lon="12.4966699"><ele>383.25</ele><time>2026-05-02T07:35:54.026Z</time></trkpt><trkpt lat="43.5795639" lon="12.4964655"><ele>389.0</ele><time>2026-05-02T07:35:55.021Z</time></trkpt><trkpt lat="43.5795788" lon="12.4962691"><ele>388.75</ele><time>2026-05-02T07:35:56.026Z</time></trkpt><trkpt lat="43.5796164" lon="12.4960736"><ele>388.5</ele><time>2026-05-02T07:35:57.025Z</time></trkpt><trkpt lat="43.5796653" lon="12.4958992"><ele>388.25</ele><time>2026-05-02T07:35:58.027Z</time></trkpt><trkpt lat="43.579729" lon="12.4957247"><ele>388.0</ele><time>2026-05-02T07:35:59.024Z</time></trkpt><trkpt lat="43.5798005" lon="12.495554"><ele>382.5</ele><time>2026-05-02T07:36:00.016Z</time></trkpt><trkpt lat="43.5798711" lon="12.4953869"><ele>377.0</ele><time>2026-05-02T07:36:01.022Z</time></trkpt><trkpt lat="43.5799385" lon="12.4952307"><ele>371.5</ele><time>2026-05-02T07:36:02.041Z</time></trkpt><trkpt lat="43.5800061" lon="12.4950709"><ele>366.0</ele><time>2026-05-02T07:36:03.028Z</time></trkpt><trkpt lat="43.580075" lon="12.4949191"><ele>366.0</ele><time>2026-05-02T07:36:04.016Z</time></trkpt><trkpt lat="43.580162" lon="12.4947772"><ele>366.0</ele><time>2026-05-02T07:36:05.014Z</time></trkpt><trkpt lat="43.5802601" lon="12.4946518"><ele>366.0</ele><time>2026-05-02T07:36:06.032Z</time></trkpt><trkpt lat="43.5803735" lon="12.4945457"><ele>366.0</ele><time>2026-05-02T07:36:07.007Z</time></trkpt><trkpt lat="43.5804997" lon="12.4944602"><ele>364.0</ele><time>2026-05-02T07:36:08.032Z</time></trkpt><trkpt lat="43.5806367" lon="12.4943816"><ele>362.0</ele><time>2026-05-02T07:36:09.02Z</time></trkpt><trkpt lat="43.5807819" lon="12.4943109"><ele>360.0</ele><time>2026-05-02T07:36:10.021Z</time></trkpt><trkpt lat="43.5809179" lon="12.4942488"><ele>358.0</ele><time>2026-05-02T07:36:11.014Z</time></trkpt><trkpt lat="43.5810603" lon="12.4941837"><ele>359.3333333333333</ele><time>2026-05-02T07:36:12.02Z</time></trkpt><trkpt lat="43.5812089" lon="12.4941203"><ele>360.6666666666667</ele><time>2026-05-02T07:36:13.012Z</time></trkpt><trkpt lat="43.5813628" lon="12.4940514"><ele>362.0</ele><time>2026-05-02T07:36:14.008Z</time></trkpt><trkpt lat="43.5815166" lon="12.4939716"><ele>362.0</ele><time>2026-05-02T07:36:15.027Z</time></trkpt><trkpt lat="43.5816703" lon="12.4938805"><ele>362.0</ele><time>2026-05-02T07:36:16.024Z</time></trkpt><trkpt lat="43.5818171" lon="12.493764"><ele>362.0</ele><time>2026-05-02T07:36:17.03Z</time></trkpt><trkpt lat="43.5819604" lon="12.4936221"><ele>360.0</ele><time>2026-05-02T07:36:18.02Z</time></trkpt><trkpt lat="43.5820924" lon="12.4934637"><ele>358.0</ele><time>2026-05-02T07:36:19.025Z</time></trkpt><trkpt lat="43.5822108" lon="12.4932996"><ele>356.0</ele><time>2026-05-02T07:36:20.019Z</time></trkpt><trkpt lat="43.582318" lon="12.493133"><ele>356.0</ele><time>2026-05-02T07:36:21.029Z</time></trkpt><trkpt lat="43.5824206" lon="12.4929745"><ele>356.0</ele><time>2026-05-02T07:36:22.022Z</time></trkpt><trkpt lat="43.5825324" lon="12.4928184"><ele>356.0</ele><time>2026-05-02T07:36:23.027Z</time></trkpt><trkpt lat="43.5826353" lon="12.4926588"><ele>356.0</ele><time>2026-05-02T07:36:24.023Z</time></trkpt><trkpt lat="43.5827194" lon="12.4924845"><ele>356.0</ele><time>2026-05-02T07:36:25.024Z</time></trkpt><trkpt lat="43.5827916" lon="12.4923027"><ele>356.0</ele><time>2026-05-02T07:36:26.016Z</time></trkpt><trkpt lat="43.5828519" lon="12.49211"><ele>355.6666666666667</ele><time>2026-05-02T07:36:27.024Z</time></trkpt><trkpt lat="43.5829013" lon="12.4919078"><ele>355.3333333333333</ele><time>2026-05-02T07:36:28.033Z</time></trkpt><trkpt lat="43.5829346" lon="12.4917088"><ele>355.0</ele><time>2026-05-02T07:36:29.018Z</time></trkpt><trkpt lat="43.5829564" lon="12.4915041"><ele>355.0</ele><time>2026-05-02T07:36:30.03Z</time></trkpt><trkpt lat="43.582974" lon="12.4912937"><ele>355.0</ele><time>2026-05-02T07:36:31.021Z</time></trkpt><trkpt lat="43.5829846" lon="12.4910888"><ele>355.0</ele><time>2026-05-02T07:36:32.024Z</time></trkpt><trkpt lat="43.5829917" lon="12.4908824"><ele>355.0</ele><time>2026-05-02T07:36:33.026Z</time></trkpt><trkpt lat="43.5830018" lon="12.490676"><ele>355.0</ele><time>2026-05-02T07:36:34.024Z</time></trkpt><trkpt lat="43.5830124" lon="12.4904588"><ele>355.0</ele><time>2026-05-02T07:36:35.027Z</time></trkpt><trkpt lat="43.5830224" lon="12.4902375"><ele>355.0</ele><time>2026-05-02T07:36:36.024Z</time></trkpt><trkpt lat="43.5830368" lon="12.4900048"><ele>355.0</ele><time>2026-05-02T07:36:37.02Z</time></trkpt><trkpt lat="43.5830503" lon="12.4897582"><ele>355.0</ele><time>2026-05-02T07:36:38.015Z</time></trkpt><trkpt lat="43.5830645" lon="12.4895091"><ele>356.3333333333333</ele><time>2026-05-02T07:36:39.031Z</time></trkpt><trkpt lat="43.5830789" lon="12.4892578"><ele>357.6666666666667</ele><time>2026-05-02T07:36:40.023Z</time></trkpt><trkpt lat="43.5830877" lon="12.489029"><ele>359.0</ele><time>2026-05-02T07:36:41.022Z</time></trkpt><trkpt lat="43.5830976" lon="12.4888095"><ele>359.33333333333337</ele><time>2026-05-02T07:36:42.025Z</time></trkpt><trkpt lat="43.5831046" lon="12.4885882"><ele>359.6666666666667</ele><time>2026-05-02T07:36:43.041Z</time></trkpt><trkpt lat="43.5831155" lon="12.4883824"><ele>360.0</ele><time>2026-05-02T07:36:44.018Z</time></trkpt><trkpt lat="43.5831215" lon="12.4881715"><ele>360.0</ele><time>2026-05-02T07:36:45.025Z</time></trkpt><trkpt lat="43.5831217" lon="12.4879782"><ele>360.0</ele><time>2026-05-02T07:36:46.02Z</time></trkpt><trkpt lat="43.5831056" lon="12.4877962"><ele>360.0</ele><time>2026-05-02T07:36:47.021Z</time></trkpt><trkpt lat="43.5830741" lon="12.487604"><ele>360.0</ele><time>2026-05-02T07:36:48.022Z</time></trkpt><trkpt lat="43.5830215" lon="12.4874164"><ele>360.75</ele><time>2026-05-02T07:36:49.015Z</time></trkpt><trkpt lat="43.5829513" lon="12.4872344"><ele>361.5</ele><time>2026-05-02T07:36:50.017Z</time></trkpt><trkpt lat="43.5828614" lon="12.487083"><ele>362.25</ele><time>2026-05-02T07:36:51.019Z</time></trkpt><trkpt lat="43.5827602" lon="12.4869531"><ele>363.0</ele><time>2026-05-02T07:36:52.02Z</time></trkpt><trkpt lat="43.5826415" lon="12.4868422"><ele>364.5</ele><time>2026-05-02T07:36:53.021Z</time></trkpt><trkpt lat="43.5825109" lon="12.4867472"><ele>366.0</ele><time>2026-05-02T07:36:54.036Z</time></trkpt><trkpt lat="43.5823744" lon="12.4866792"><ele>367.5</ele><time>2026-05-02T07:36:55.019Z</time></trkpt><trkpt lat="43.582235" lon="12.4866273"><ele>369.0</ele><time>2026-05-02T07:36:56.028Z</time></trkpt><trkpt lat="43.5820922" lon="12.4866103"><ele>373.3333333333333</ele><time>2026-05-02T07:36:57.02Z</time></trkpt><trkpt lat="43.5819473" lon="12.4866279"><ele>377.66666666666663</ele><time>2026-05-02T07:36:58.021Z</time></trkpt><trkpt lat="43.5817961" lon="12.486674"><ele>382.0</ele><time>2026-05-02T07:36:59.022Z</time></trkpt><trkpt lat="43.5816345" lon="12.4867496"><ele>382.0</ele><time>2026-05-02T07:37:00.018Z</time></trkpt><trkpt lat="43.5814762" lon="12.4868199"><ele>382.0</ele><time>2026-05-02T07:37:01.018Z</time></trkpt><trkpt lat="43.5813149" lon="12.4868589"><ele>382.0</ele><time>2026-05-02T07:37:02.027Z</time></trkpt><trkpt lat="43.5811553" lon="12.4868749"><ele>384.0</ele><time>2026-05-02T07:37:03.036Z</time></trkpt><trkpt lat="43.5809999" lon="12.4868651"><ele>386.0</ele><time>2026-05-02T07:37:04.02Z</time></trkpt><trkpt lat="43.580845" lon="12.4868359"><ele>388.0</ele><time>2026-05-02T07:37:05.033Z</time></trkpt><trkpt lat="43.580694" lon="12.4867717"><ele>388.0</ele><time>2026-05-02T07:37:06.02Z</time></trkpt><trkpt lat="43.5805469" lon="12.4867014"><ele>388.0</ele><time>2026-05-02T07:37:07.029Z</time></trkpt><trkpt lat="43.5803969" lon="12.4866398"><ele>388.0</ele><time>2026-05-02T07:37:08.034Z</time></trkpt><trkpt lat="43.5802446" lon="12.4865809"><ele>385.0</ele><time>2026-05-02T07:37:09.044Z</time></trkpt><trkpt lat="43.5800852" lon="12.4865224"><ele>382.0</ele><time>2026-05-02T07:37:10.019Z</time></trkpt><trkpt lat="43.5799166" lon="12.4864523"><ele>379.0</ele><time>2026-05-02T07:37:11.025Z</time></trkpt><trkpt lat="43.5797508" lon="12.4863655"><ele>379.0</ele><time>2026-05-02T07:37:12.024Z</time></trkpt><trkpt lat="43.5795915" lon="12.486263"><ele>379.0</ele><time>2026-05-02T07:37:13.016Z</time></trkpt><trkpt lat="43.5794362" lon="12.486145"><ele>379.0</ele><time>2026-05-02T07:37:14.019Z</time></trkpt><trkpt lat="43.5792823" lon="12.4860178"><ele>381.3333333333333</ele><time>2026-05-02T07:37:15.023Z</time></trkpt><trkpt lat="43.5791328" lon="12.4858848"><ele>383.66666666666663</ele><time>2026-05-02T07:37:16.02Z</time></trkpt><trkpt lat="43.5789846" lon="12.4857381"><ele>386.0</ele><time>2026-05-02T07:37:17.03Z</time></trkpt><trkpt lat="43.5788281" lon="12.4855848"><ele>384.0</ele><time>2026-05-02T07:37:18.02Z</time></trkpt><trkpt lat="43.5786746" lon="12.4854052"><ele>382.0</ele><time>2026-05-02T07:37:19.017Z</time></trkpt><trkpt lat="43.5785323" lon="12.4852158"><ele>380.0</ele><time>2026-05-02T07:37:20.024Z</time></trkpt><trkpt lat="43.5784017" lon="12.4850246"><ele>380.0</ele><time>2026-05-02T07:37:21.019Z</time></trkpt><trkpt lat="43.5782782" lon="12.4848407"><ele>380.0</ele><time>2026-05-02T07:37:22.024Z</time></trkpt><trkpt lat="43.5781593" lon="12.4846546"><ele>380.0</ele><time>2026-05-02T07:37:23.024Z</time></trkpt><trkpt lat="43.5780432" lon="12.4844538"><ele>369.0</ele><time>2026-05-02T07:37:24.018Z</time></trkpt><trkpt lat="43.5826415" lon="12.4868422"><ele>369.0</ele><time>2026-05-02T07:36:53.021Z</time></trkpt><trkpt lat="43.5825109" lon="12.4867472"><ele>369.0</ele><time>2026-05-02T07:36:54.036Z</time></trkpt><trkpt lat="43.5823744" lon="12.4866792"><ele>369.0</ele><time>2026-05-02T07:36:55.019Z</time></trkpt><trkpt lat="43.582235" lon="12.4866273"><ele>369.0</ele><time>2026-05-02T07:36:56.028Z</time></trkpt><trkpt lat="43.5820922" lon="12.4866103"><ele>373.3333333333333</ele><time>2026-05-02T07:36:57.02Z</time></trkpt><trkpt lat="43.5819473" lon="12.4866279"><ele>377.66666666666663</ele><time>2026-05-02T07:36:58.021Z</time></trkpt><trkpt lat="43.5817961" lon="12.486674"><ele>382.0</ele><time>2026-05-02T07:36:59.022Z</time></trkpt><trkpt lat="43.5816345" lon="12.4867496"><ele>382.0</ele><time>2026-05-02T07:37:00.018Z</time></trkpt><trkpt lat="43.5814762" lon="12.4868199"><ele>382.0</ele><time>2026-05-02T07:37:01.018Z</time></trkpt><trkpt lat="43.5813149" lon="12.4868589"><ele>382.0</ele><time>2026-05-02T07:37:02.027Z</time></trkpt><trkpt lat="43.5811553" lon="12.4868749"><ele>384.0</ele><time>2026-05-02T07:37:03.036Z</time></trkpt><trkpt lat="43.5809999" lon="12.4868651"><ele>386.0</ele><time>2026-05-02T07:37:04.02Z</time></trkpt><trkpt lat="43.580845" lon="12.4868359"><ele>388.0</ele><time>2026-05-02T07:37:05.033Z</time></trkpt><trkpt lat="43.580694" lon="12.4867717"><ele>388.0</ele><time>2026-05-02T07:37:06.02Z</time></trkpt><trkpt lat="43.5805469" lon="12.4867014"><ele>388.0</ele><time>2026-05-02T07:37:07.029Z</time></trkpt><trkpt lat="43.5803969" lon="12.4866398"><ele>388.0</ele><time>2026-05-02T07:37:08.034Z</time></trkpt><trkpt lat="43.5802446" lon="12.4865809"><ele>385.0</ele><time>2026-05-02T07:37:09.044Z</time></trkpt><trkpt lat="43.5800852" lon="12.4865224"><ele>382.0</ele><time>2026-05-02T07:37:10.019Z</time></trkpt><trkpt lat="43.5799166" lon="12.4864523"><ele>379.0</ele><time>2026-05-02T07:37:11.025Z</time></trkpt><trkpt lat="43.5797508" lon="12.4863655"><ele>379.0</ele><time>2026-05-02T07:37:12.024Z</time></trkpt><trkpt lat="43.5795915" lon="12.486263"><ele>379.0</ele><time>2026-05-02T07:37:13.016Z</time></trkpt><trkpt lat="43.5794362" lon="12.486145"><ele>379.0</ele><time>2026-05-02T07:37:14.019Z</time></trkpt><trkpt lat="43.5792823" lon="12.4860178"><ele>381.3333333333333</ele><time>2026-05-02T07:37:15.023Z</time></trkpt><trkpt lat="43.5791328" lon="12.4858848"><ele>383.66666666666663</ele><time>2026-05-02T07:37:16.02Z</time></trkpt><trkpt lat="43.5789846" lon="12.4857381"><ele>386.0</ele><time>2026-05-02T07:37:17.03Z</time></trkpt><trkpt lat="43.5788281" lon="12.4855848"><ele>384.0</ele><time>2026-05-02T07:37:18.02Z</time></trkpt><trkpt lat="43.5786746" lon="12.4854052"><ele>382.0</ele><time>2026-05-02T07:37:19.017Z</time></trkpt><trkpt lat="43.5785323" lon="12.4852158"><ele>380.0</ele><time>2026-05-02T07:37:20.024Z</time></trkpt><trkpt lat="43.5784017" lon="12.4850246"><ele>380.0</ele><time>2026-05-02T07:37:21.019Z</time></trkpt><trkpt lat="43.5782782" lon="12.4848407"><ele>380.0</ele><time>2026-05-02T07:37:22.024Z</time></trkpt><trkpt lat="43.5781593" lon="12.4846546"><ele>380.0</ele><time>2026-05-02T07:37:23.024Z</time></trkpt><trkpt lat="43.5780432" lon="12.4844538"><ele>385.33333333333337</ele><time>2026-05-02T07:37:24.018Z</time></trkpt><trkpt lat="43.5779421" lon="12.484253"><ele>390.6666666666667</ele><time>2026-05-02T07:37:25.019Z</time></trkpt><trkpt lat="43.5778559" lon="12.484063"><ele>396.0</ele><time>2026-05-02T07:37:26.018Z</time></trkpt><trkpt lat="43.5777869" lon="12.4838837"><ele>396.0</ele><time>2026-05-02T07:37:27.021Z</time></trkpt><trkpt lat="43.5777314" lon="12.4837126"><ele>396.0</ele><time>2026-05-02T07:37:28.025Z</time></trkpt><trkpt lat="43.577694" lon="12.4835522"><ele>396.0</ele><time>2026-05-02T07:37:29.013Z</time></trkpt><trkpt lat="43.5776834" lon="12.4834116"><ele>396.0</ele><time>2026-05-02T07:37:30.023Z</time></trkpt><trkpt lat="43.5776927" lon="12.4832821"><ele>396.0</ele><time>2026-05-02T07:37:31.026Z</time></trkpt><trkpt lat="43.5777498" lon="12.4831526"><ele>396.0</ele><time>2026-05-02T07:37:32.021Z</time></trkpt><trkpt lat="43.5778178" lon="12.483035"><ele>396.0</ele><time>2026-05-02T07:37:33.018Z</time></trkpt><trkpt lat="43.5779082" lon="12.4829424"><ele>396.0</ele><time>2026-05-02T07:37:34.017Z</time></trkpt><trkpt lat="43.5780104" lon="12.4828986"><ele>396.0</ele><time>2026-05-02T07:37:35.02Z</time></trkpt><trkpt lat="43.5781195" lon="12.482887"><ele>393.0</ele><time>2026-05-02T07:37:36.033Z</time></trkpt><trkpt lat="43.5782273" lon="12.4828897"><ele>390.0</ele><time>2026-05-02T07:37:37.033Z</time></trkpt><trkpt lat="43.5783356" lon="12.4828718"><ele>387.0</ele><time>2026-05-02T07:37:38.012Z</time></trkpt><trkpt lat="43.5784488" lon="12.4828424"><ele>384.0</ele><time>2026-05-02T07:37:39.04Z</time></trkpt><trkpt lat="43.5785544" lon="12.4827883"><ele>381.0</ele><time>2026-05-02T07:37:40.035Z</time></trkpt><trkpt lat="43.578649" lon="12.4827063"><ele>385.25</ele><time>2026-05-02T07:37:41.018Z</time></trkpt><trkpt lat="43.5787352" lon="12.4826085"><ele>389.5</ele><time>2026-05-02T07:37:42.021Z</time></trkpt><trkpt lat="43.5788126" lon="12.482489"><ele>393.75</ele><time>2026-05-02T07:37:43.03Z</time></trkpt><trkpt lat="43.5788648" lon="12.4823434"><ele>398.0</ele><time>2026-05-02T07:37:44.016Z</time></trkpt><trkpt lat="43.5788955" lon="12.4821883"><ele>394.25</ele><time>2026-05-02T07:37:45.035Z</time></trkpt><trkpt lat="43.5789093" lon="12.482028"><ele>390.5</ele><time>2026-05-02T07:37:46.023Z</time></trkpt><trkpt lat="43.5788952" lon="12.4818581"><ele>386.75</ele><time>2026-05-02T07:37:47.02Z</time></trkpt><trkpt lat="43.5788706" lon="12.481697"><ele>383.0</ele><time>2026-05-02T07:37:48.023Z</time></trkpt><trkpt lat="43.5788392" lon="12.4815348"><ele>383.0</ele><time>2026-05-02T07:37:49.024Z</time></trkpt><trkpt lat="43.5788105" lon="12.481374"><ele>383.0</ele><time>2026-05-02T07:37:50.03Z</time></trkpt><trkpt lat="43.5787977" lon="12.4812087"><ele>383.0</ele><time>2026-05-02T07:37:51.027Z</time></trkpt><trkpt lat="43.5788013" lon="12.4810277"><ele>383.0</ele><time>2026-05-02T07:37:52.026Z</time></trkpt><trkpt lat="43.5788257" lon="12.4808343"><ele>382.0</ele><time>2026-05-02T07:37:53.033Z</time></trkpt><trkpt lat="43.5788813" lon="12.4806419"><ele>381.0</ele><time>2026-05-02T07:37:54.026Z</time></trkpt><trkpt lat="43.5789452" lon="12.4804589"><ele>380.0</ele><time>2026-05-02T07:37:55.02Z</time></trkpt><trkpt lat="43.5790012" lon="12.4802662"><ele>379.0</ele><time>2026-05-02T07:37:56.031Z</time></trkpt><trkpt lat="43.5790502" lon="12.4800595"><ele>379.0</ele><time>2026-05-02T07:37:57.022Z</time></trkpt><trkpt lat="43.5790682" lon="12.4798571"><ele>379.0</ele><time>2026-05-02T07:37:58.024Z</time></trkpt><trkpt lat="43.5790655" lon="12.4796597"><ele>379.0</ele><time>2026-05-02T07:37:59.025Z</time></trkpt><trkpt lat="43.579053" lon="12.4794437"><ele>379.0</ele><time>2026-05-02T07:38:00.03Z</time></trkpt><trkpt lat="43.5790127" lon="12.4792269"><ele>382.3333333333333</ele><time>2026-05-02T07:38:01.016Z</time></trkpt><trkpt lat="43.5789547" lon="12.4790116"><ele>385.66666666666663</ele><time>2026-05-02T07:38:02.018Z</time></trkpt><trkpt lat="43.5788932" lon="12.4788064"><ele>389.0</ele><time>2026-05-02T07:38:03.022Z</time></trkpt><trkpt lat="43.578848" lon="12.4786177"><ele>392.25</ele><time>2026-05-02T07:38:04.021Z</time></trkpt><trkpt lat="43.5788212" lon="12.4784311"><ele>395.5</ele><time>2026-05-02T07:38:05.023Z</time></trkpt><trkpt lat="43.5788123" lon="12.4782434"><ele>398.75</ele><time>2026-05-02T07:38:06.024Z</time></trkpt><trkpt lat="43.5788231" lon="12.4780683"><ele>402.0</ele><time>2026-05-02T07:38:07.019Z</time></trkpt><trkpt lat="43.5788628" lon="12.4778834"><ele>402.0</ele><time>2026-05-02T07:38:08.015Z</time></trkpt><trkpt lat="43.5789225" lon="12.4777065"><ele>402.0</ele><time>2026-05-02T07:38:09.013Z</time></trkpt><trkpt lat="43.5789966" lon="12.4775333"><ele>402.0</ele><time>2026-05-02T07:38:10.023Z</time></trkpt><trkpt lat="43.5790576" lon="12.477353"><ele>402.0</ele><time>2026-05-02T07:38:11.014Z</time></trkpt><trkpt lat="43.5791027" lon="12.4771592"><ele>399.66666666666663</ele><time>2026-05-02T07:38:12.023Z</time></trkpt><trkpt lat="43.5791126" lon="12.4769579"><ele>397.3333333333333</ele><time>2026-05-02T07:38:13.02Z</time></trkpt><trkpt lat="43.579111" lon="12.4767443"><ele>395.0</ele><time>2026-05-02T07:38:14.023Z</time></trkpt><trkpt lat="43.5790831" lon="12.4765372"><ele>395.0</ele><time>2026-05-02T07:38:15.014Z</time></trkpt><trkpt lat="43.5790276" lon="12.4763504"><ele>395.0</ele><time>2026-05-02T07:38:16.02Z</time></trkpt><trkpt lat="43.578961" lon="12.4761556"><ele>395.0</ele><time>2026-05-02T07:38:17.024Z</time></trkpt><trkpt lat="43.5788761" lon="12.4759506"><ele>395.0</ele><time>2026-05-02T07:38:18.019Z</time></trkpt><trkpt lat="43.5787894" lon="12.4757416"><ele>395.0</ele><time>2026-05-02T07:38:19.014Z</time></trkpt><trkpt lat="43.5786982" lon="12.475528"><ele>395.0</ele><time>2026-05-02T07:38:20.025Z</time></trkpt><trkpt lat="43.5786017" lon="12.4753099"><ele>392.3333333333333</ele><time>2026-05-02T07:38:21.021Z</time></trkpt><trkpt lat="43.5785107" lon="12.4750816"><ele>389.66666666666663</ele><time>2026-05-02T07:38:22.021Z</time></trkpt><trkpt lat="43.5784108" lon="12.4748535"><ele>387.0</ele><time>2026-05-02T07:38:23.022Z</time></trkpt><trkpt lat="43.5783112" lon="12.4746334"><ele>387.33333333333337</ele><time>2026-05-02T07:38:24.023Z</time></trkpt><trkpt lat="43.5782237" lon="12.4744326"><ele>387.6666666666667</ele><time>2026-05-02T07:38:25.028Z</time></trkpt><trkpt lat="43.5781382" lon="12.4742268"><ele>388.0</ele><time>2026-05-02T07:38:26.026Z</time></trkpt><trkpt lat="43.5780654" lon="12.4740163"><ele>388.0</ele><time>2026-05-02T07:38:27.024Z</time></trkpt><trkpt lat="43.5780089" lon="12.4737911"><ele>388.0</ele><time>2026-05-02T07:38:28.014Z</time></trkpt><trkpt lat="43.5779714" lon="12.473555"><ele>388.0</ele><time>2026-05-02T07:38:29.023Z</time></trkpt><trkpt lat="43.5779396" lon="12.4733141"><ele>387.6666666666667</ele><time>2026-05-02T07:38:30.02Z</time></trkpt><trkpt lat="43.5779247" lon="12.4730721"><ele>387.33333333333337</ele><time>2026-05-02T07:38:31.022Z</time></trkpt><trkpt lat="43.5779301" lon="12.4728249"><ele>387.0</ele><time>2026-05-02T07:38:32.038Z</time></trkpt><trkpt lat="43.5779561" lon="12.4725729"><ele>386.66666666666663</ele><time>2026-05-02T07:38:33.018Z</time></trkpt><trkpt lat="43.5779967" lon="12.4723181"><ele>386.3333333333333</ele><time>2026-05-02T07:38:34.022Z</time></trkpt><trkpt lat="43.5780304" lon="12.4720715"><ele>386.0</ele><time>2026-05-02T07:38:35.026Z</time></trkpt><trkpt lat="43.5780692" lon="12.4718351"><ele>386.0</ele><time>2026-05-02T07:38:36.022Z</time></trkpt><trkpt lat="43.5781071" lon="12.4715878"><ele>386.0</ele><time>2026-05-02T07:38:37.021Z</time></trkpt><trkpt lat="43.5781383" lon="12.4713421"><ele>386.0</ele><time>2026-05-02T07:38:38.024Z</time></trkpt><trkpt lat="43.578176" lon="12.4711005"><ele>388.66666666666663</ele><time>2026-05-02T07:38:39.022Z</time></trkpt><trkpt lat="43.5782159" lon="12.4708748"><ele>391.33333333333337</ele><time>2026-05-02T07:38:40.023Z</time></trkpt><trkpt lat="43.5782528" lon="12.4706601"><ele>394.0</ele><time>2026-05-02T07:38:41.016Z</time></trkpt><trkpt lat="43.5782983" lon="12.470444"><ele>398.25</ele><time>2026-05-02T07:38:42.015Z</time></trkpt><trkpt lat="43.5783585" lon="12.4702447"><ele>402.5</ele><time>2026-05-02T07:38:43.021Z</time></trkpt><trkpt lat="43.5784342" lon="12.4700695"><ele>406.75</ele><time>2026-05-02T07:38:44.019Z</time></trkpt><trkpt lat="43.5785154" lon="12.469908"><ele>411.0</ele><time>2026-05-02T07:38:45.015Z</time></trkpt><trkpt lat="43.5785907" lon="12.4697602"><ele>411.0</ele><time>2026-05-02T07:38:46.015Z</time></trkpt><trkpt lat="43.5786422" lon="12.4696151"><ele>411.0</ele><time>2026-05-02T07:38:47.022Z</time></trkpt><trkpt lat="43.5786829" lon="12.4694473"><ele>411.0</ele><time>2026-05-02T07:38:48.015Z</time></trkpt><trkpt lat="43.5786867" lon="12.4692753"><ele>411.0</ele><time>2026-05-02T07:38:49.019Z</time></trkpt><trkpt lat="43.5786609" lon="12.4691219"><ele>411.5</ele><time>2026-05-02T07:38:50.016Z</time></trkpt><trkpt lat="43.5786177" lon="12.4689642"><ele>412.0</ele><time>2026-05-02T07:38:51.022Z</time></trkpt><trkpt lat="43.5785389" lon="12.4688647"><ele>412.5</ele><time>2026-05-02T07:38:52.022Z</time></trkpt><trkpt lat="43.5784633" lon="12.4687282"><ele>413.0</ele><time>2026-05-02T07:38:53.02Z</time></trkpt><trkpt lat="43.5783668" lon="12.4686241"><ele>410.25</ele><time>2026-05-02T07:38:54.03Z</time></trkpt><trkpt lat="43.5782759" lon="12.4685063"><ele>407.5</ele><time>2026-05-02T07:38:55.026Z</time></trkpt><trkpt lat="43.5781767" lon="12.4683806"><ele>404.75</ele><time>2026-05-02T07:38:56.012Z</time></trkpt><trkpt lat="43.5780779" lon="12.4682503"><ele>402.0</ele><time>2026-05-02T07:38:57.026Z</time></trkpt><trkpt lat="43.5779805" lon="12.4681204"><ele>402.0</ele><time>2026-05-02T07:38:58.015Z</time></trkpt><trkpt lat="43.5778796" lon="12.4679824"><ele>402.0</ele><time>2026-05-02T07:38:59.026Z</time></trkpt><trkpt lat="43.5777701" lon="12.4678391"><ele>402.0</ele><time>2026-05-02T07:39:00.027Z</time></trkpt><trkpt lat="43.5776595" lon="12.4676873"><ele>402.0</ele><time>2026-05-02T07:39:01.027Z</time></trkpt><trkpt lat="43.5775451" lon="12.4675363"><ele>402.0</ele><time>2026-05-02T07:39:02.02Z</time></trkpt><trkpt lat="43.5774292" lon="12.4673961"><ele>402.0</ele><time>2026-05-02T07:39:03.037Z</time></trkpt><trkpt lat="43.5773191" lon="12.4672538"><ele>402.0</ele><time>2026-05-02T07:39:04.03Z</time></trkpt><trkpt lat="43.5772175" lon="12.467109"><ele>402.0</ele><time>2026-05-02T07:39:05.007Z</time></trkpt><trkpt lat="43.5771281" lon="12.4669603"><ele>402.0</ele><time>2026-05-02T07:39:06.012Z</time></trkpt><trkpt lat="43.5770589" lon="12.4667845"><ele>402.0</ele><time>2026-05-02T07:39:07.012Z</time></trkpt><trkpt lat="43.5770121" lon="12.4665829"><ele>402.0</ele><time>2026-05-02T07:39:08.002Z</time></trkpt><trkpt lat="43.5769813" lon="12.4663594"><ele>399.66666666666663</ele><time>2026-05-02T07:39:09.018Z</time></trkpt><trkpt lat="43.5769695" lon="12.4661173"><ele>397.3333333333333</ele><time>2026-05-02T07:39:10.04Z</time></trkpt><trkpt lat="43.5769746" lon="12.4658858"><ele>395.0</ele><time>2026-05-02T07:39:11.017Z</time></trkpt><trkpt lat="43.5769929" lon="12.4656565"><ele>400.66666666666663</ele><time>2026-05-02T07:39:12.018Z</time></trkpt><trkpt lat="43.5770331" lon="12.465446"><ele>406.33333333333337</ele><time>2026-05-02T07:39:13.03Z</time></trkpt><trkpt lat="43.5770945" lon="12.465251"><ele>412.0</ele><time>2026-05-02T07:39:14.011Z</time></trkpt><trkpt lat="43.5771772" lon="12.4650632"><ele>412.0</ele><time>2026-05-02T07:39:15.013Z</time></trkpt><trkpt lat="43.5772846" lon="12.4648881"><ele>412.0</ele><time>2026-05-02T07:39:16.018Z</time></trkpt><trkpt lat="43.57742" lon="12.4647376"><ele>412.0</ele><time>2026-05-02T07:39:17.02Z</time></trkpt><trkpt lat="43.5775727" lon="12.4645803"><ele>414.6666666666667</ele><time>2026-05-02T07:39:18.023Z</time></trkpt><trkpt lat="43.5777312" lon="12.4644033"><ele>417.33333333333337</ele><time>2026-05-02T07:39:19.013Z</time></trkpt><trkpt lat="43.5778891" lon="12.4642248"><ele>420.0</ele><time>2026-05-02T07:39:20.023Z</time></trkpt><trkpt lat="43.5780489" lon="12.4640418"><ele>420.0</ele><time>2026-05-02T07:39:21.016Z</time></trkpt><trkpt lat="43.5782035" lon="12.4638709"><ele>420.0</ele><time>2026-05-02T07:39:22.019Z</time></trkpt><trkpt lat="43.5783591" lon="12.4637052"><ele>420.0</ele><time>2026-05-02T07:39:23.015Z</time></trkpt><trkpt lat="43.5785117" lon="12.4635486"><ele>420.66666666666663</ele><time>2026-05-02T07:39:24.013Z</time></trkpt><trkpt lat="43.5786617" lon="12.4633861"><ele>421.3333333333333</ele><time>2026-05-02T07:39:25.015Z</time></trkpt><trkpt lat="43.5788059" lon="12.4632218"><ele>422.0</ele><time>2026-05-02T07:39:26.014Z</time></trkpt><trkpt lat="43.5789305" lon="12.4630544"><ele>420.0</ele><time>2026-05-02T07:39:27.026Z</time></trkpt><trkpt lat="43.5790366" lon="12.4628795"><ele>418.0</ele><time>2026-05-02T07:39:28.017Z</time></trkpt><trkpt lat="43.5791304" lon="12.4626888"><ele>416.0</ele><time>2026-05-02T07:39:29.012Z</time></trkpt><trkpt lat="43.5792046" lon="12.4624823"><ele>416.0</ele><time>2026-05-02T07:39:30.018Z</time></trkpt><trkpt lat="43.579259" lon="12.4622583"><ele>416.0</ele><time>2026-05-02T07:39:31.023Z</time></trkpt><trkpt lat="43.5792894" lon="12.4620236"><ele>416.0</ele><time>2026-05-02T07:39:32.024Z</time></trkpt><trkpt lat="43.5793047" lon="12.4617769"><ele>415.66666666666663</ele><time>2026-05-02T07:39:33.024Z</time></trkpt><trkpt lat="43.5792997" lon="12.4615231"><ele>415.33333333333337</ele><time>2026-05-02T07:39:34.019Z</time></trkpt><trkpt lat="43.5792951" lon="12.4612599"><ele>415.0</ele><time>2026-05-02T07:39:35.018Z</time></trkpt><trkpt lat="43.5793049" lon="12.4609965"><ele>414.33333333333337</ele><time>2026-05-02T07:39:36.016Z</time></trkpt><trkpt lat="43.5793324" lon="12.4607363"><ele>413.66666666666663</ele><time>2026-05-02T07:39:37.016Z</time></trkpt><trkpt lat="43.5793764" lon="12.4604817"><ele>413.0</ele><time>2026-05-02T07:39:38.017Z</time></trkpt><trkpt lat="43.57944" lon="12.4602286"><ele>412.66666666666663</ele><time>2026-05-02T07:39:39.02Z</time></trkpt><trkpt lat="43.5795119" lon="12.4599742"><ele>412.33333333333337</ele><time>2026-05-02T07:39:40.017Z</time></trkpt><trkpt lat="43.5795874" lon="12.4597255"><ele>412.0</ele><time>2026-05-02T07:39:41.021Z</time></trkpt><trkpt lat="43.5796599" lon="12.4594841"><ele>415.0</ele><time>2026-05-02T07:39:42.024Z</time></trkpt><trkpt lat="43.5797265" lon="12.4592378"><ele>418.0</ele><time>2026-05-02T07:39:43.015Z</time></trkpt><trkpt lat="43.5797953" lon="12.4589949"><ele>421.0</ele><time>2026-05-02T07:39:44.02Z</time></trkpt><trkpt lat="43.5798696" lon="12.4587482"><ele>421.0</ele><time>2026-05-02T07:39:45.016Z</time></trkpt><trkpt lat="43.579949" lon="12.4584953"><ele>421.0</ele><time>2026-05-02T07:39:46.017Z</time></trkpt><trkpt lat="43.580023" lon="12.4582436"><ele>421.0</ele><time>2026-05-02T07:39:47.016Z</time></trkpt><trkpt lat="43.5800937" lon="12.4579866"><ele>419.6666666666667</ele><time>2026-05-02T07:39:48.01Z</time></trkpt><trkpt lat="43.5801662" lon="12.4577306"><ele>418.33333333333337</ele><time>2026-05-02T07:39:49.026Z</time></trkpt><trkpt lat="43.5802408" lon="12.45747"><ele>417.0</ele><time>2026-05-02T07:39:50.022Z</time></trkpt><trkpt lat="43.5803204" lon="12.4572015"><ele>416.66666666666663</ele><time>2026-05-02T07:39:51.019Z</time></trkpt><trkpt lat="43.5803933" lon="12.4569444"><ele>416.3333333333333</ele><time>2026-05-02T07:39:52.018Z</time></trkpt><trkpt lat="43.580458" lon="12.4566931"><ele>416.0</ele><time>2026-05-02T07:39:53.016Z</time></trkpt><trkpt lat="43.5805005" lon="12.4564681"><ele>415.75</ele><time>2026-05-02T07:39:54.025Z</time></trkpt><trkpt lat="43.5805338" lon="12.456264"><ele>415.5</ele><time>2026-05-02T07:39:55.02Z</time></trkpt><trkpt lat="43.580556" lon="12.4560658"><ele>415.25</ele><time>2026-05-02T07:39:56.022Z</time></trkpt><trkpt lat="43.5805731" lon="12.4558692"><ele>415.0</ele><time>2026-05-02T07:39:57.016Z</time></trkpt><trkpt lat="43.5805893" lon="12.4556688"><ele>415.0</ele><time>2026-05-02T07:39:58.02Z</time></trkpt><trkpt lat="43.5806027" lon="12.4554734"><ele>415.0</ele><time>2026-05-02T07:39:59.018Z</time></trkpt><trkpt lat="43.5806143" lon="12.4552909"><ele>415.0</ele><time>2026-05-02T07:40:00.02Z</time></trkpt><trkpt lat="43.5806219" lon="12.4551267"><ele>415.0</ele><time>2026-05-02T07:40:01.017Z</time></trkpt><trkpt lat="43.580632" lon="12.4549702"><ele>415.83333333333337</ele><time>2026-05-02T07:40:02.022Z</time></trkpt><trkpt lat="43.5806379" lon="12.4548365"><ele>416.6666666666667</ele><time>2026-05-02T07:40:03.019Z</time></trkpt><trkpt lat="43.5806402" lon="12.45472"><ele>417.5</ele><time>2026-05-02T07:40:04.022Z</time></trkpt><trkpt lat="43.5806463" lon="12.4546192"><ele>418.33333333333337</ele><time>2026-05-02T07:40:05.021Z</time></trkpt><trkpt lat="43.5806475" lon="12.4545311"><ele>419.1666666666667</ele><time>2026-05-02T07:40:06.024Z</time></trkpt><trkpt lat="43.5806197" lon="12.4544515"><ele>420.0</ele><time>2026-05-02T07:40:07.019Z</time></trkpt><trkpt lat="43.5805704" lon="12.4543752"><ele>420.0</ele><time>2026-05-02T07:40:08.02Z</time></trkpt><trkpt lat="43.5804962" lon="12.4543446"><ele>420.0</ele><time>2026-05-02T07:40:09.03Z</time></trkpt><trkpt lat="43.5804045" lon="12.4543212"><ele>420.0</ele><time>2026-05-02T07:40:10.021Z</time></trkpt><trkpt lat="43.5803015" lon="12.4543144"><ele>420.0</ele><time>2026-05-02T07:40:11.002Z</time></trkpt><trkpt lat="43.5801817" lon="12.4543033"><ele>420.0</ele><time>2026-05-02T07:40:12.014Z</time></trkpt><trkpt lat="43.5800475" lon="12.4542976"><ele>420.0</ele><time>2026-05-02T07:40:13.02Z</time></trkpt><trkpt lat="43.5799009" lon="12.4542808"><ele>420.0</ele><time>2026-05-02T07:40:14.024Z</time></trkpt><trkpt lat="43.5797413" lon="12.4542527"><ele>420.0</ele><time>2026-05-02T07:40:15.012Z</time></trkpt><trkpt lat="43.5795719" lon="12.4542238"><ele>420.33333333333337</ele><time>2026-05-02T07:40:16.012Z</time></trkpt><trkpt lat="43.5794112" lon="12.4541949"><ele>420.6666666666667</ele><time>2026-05-02T07:40:16.999Z</time></trkpt><trkpt lat="43.5792581" lon="12.4541913"><ele>421.0</ele><time>2026-05-02T07:40:18.027Z</time></trkpt><trkpt lat="43.5791112" lon="12.4542074"><ele>421.0</ele><time>2026-05-02T07:40:19.015Z</time></trkpt><trkpt lat="43.5789683" lon="12.4542577"><ele>421.0</ele><time>2026-05-02T07:40:20.029Z</time></trkpt><trkpt lat="43.5788237" lon="12.4543395"><ele>421.0</ele><time>2026-05-02T07:40:21.012Z</time></trkpt><trkpt lat="43.5786771" lon="12.454452"><ele>422.33333333333337</ele><time>2026-05-02T07:40:22.021Z</time></trkpt><trkpt lat="43.5785348" lon="12.4545943"><ele>423.66666666666663</ele><time>2026-05-02T07:40:23.022Z</time></trkpt><trkpt lat="43.5783826" lon="12.4547469"><ele>425.0</ele><time>2026-05-02T07:40:24.022Z</time></trkpt><trkpt lat="43.5782223" lon="12.4549054"><ele>425.0</ele><time>2026-05-02T07:40:25.015Z</time></trkpt><trkpt lat="43.5780532" lon="12.455065"><ele>425.0</ele><time>2026-05-02T07:40:26.017Z</time></trkpt><trkpt lat="43.5778877" lon="12.4552311"><ele>425.0</ele><time>2026-05-02T07:40:27.024Z</time></trkpt><trkpt lat="43.5777255" lon="12.4553855"><ele>428.0</ele><time>2026-05-02T07:40:28.006Z</time></trkpt><trkpt lat="43.5775736" lon="12.4555298"><ele>431.0</ele><time>2026-05-02T07:40:29.029Z</time></trkpt><trkpt lat="43.5774357" lon="12.4556607"><ele>434.0</ele><time>2026-05-02T07:40:30.031Z</time></trkpt><trkpt lat="43.5773187" lon="12.4557773"><ele>434.0</ele><time>2026-05-02T07:40:31.021Z</time></trkpt><trkpt lat="43.5772223" lon="12.4558846"><ele>434.0</ele><time>2026-05-02T07:40:32.012Z</time></trkpt><trkpt lat="43.5771403" lon="12.4559919"><ele>434.0</ele><time>2026-05-02T07:40:33.049Z</time></trkpt><trkpt lat="43.5770854" lon="12.4561161"><ele>434.0</ele><time>2026-05-02T07:40:34.027Z</time></trkpt><trkpt lat="43.5770559" lon="12.4562661"><ele>434.0</ele><time>2026-05-02T07:40:35.001Z</time></trkpt><trkpt lat="43.5770496" lon="12.4564165"><ele>434.0</ele><time>2026-05-02T07:40:36.029Z</time></trkpt><trkpt lat="43.577067" lon="12.456559"><ele>434.0</ele><time>2026-05-02T07:40:37.022Z</time></trkpt><trkpt lat="43.5771081" lon="12.4567001"><ele>434.0</ele><time>2026-05-02T07:40:38.022Z</time></trkpt><trkpt lat="43.5771837" lon="12.4568218"><ele>434.0</ele><time>2026-05-02T07:40:39.02Z</time></trkpt><trkpt lat="43.5772773" lon="12.4569186"><ele>434.0</ele><time>2026-05-02T07:40:40.023Z</time></trkpt><trkpt lat="43.5773932" lon="12.4570294"><ele>434.0</ele><time>2026-05-02T07:40:41.027Z</time></trkpt><trkpt lat="43.5775305" lon="12.4571568"><ele>434.0</ele><time>2026-05-02T07:40:42.024Z</time></trkpt><trkpt lat="43.5776808" lon="12.4573044"><ele>434.66666666666663</ele><time>2026-05-02T07:40:43.029Z</time></trkpt><trkpt lat="43.5778301" lon="12.4574477"><ele>435.33333333333337</ele><time>2026-05-02T07:40:44.03Z</time></trkpt><trkpt lat="43.5779732" lon="12.4575738"><ele>436.0</ele><time>2026-05-02T07:40:45.021Z</time></trkpt><trkpt lat="43.5781194" lon="12.4576919"><ele>436.0</ele><time>2026-05-02T07:40:46.017Z</time></trkpt><trkpt lat="43.5782689" lon="12.4577958"><ele>436.0</ele><time>2026-05-02T07:40:47.034Z</time></trkpt><trkpt lat="43.5784067" lon="12.4578605"><ele>436.0</ele><time>2026-05-02T07:40:48.015Z</time></trkpt><trkpt lat="43.5785248" lon="12.4579149"><ele>436.0</ele><time>2026-05-02T07:40:49.028Z</time></trkpt><trkpt lat="43.5786188" lon="12.4579685"><ele>433.83333333333337</ele><time>2026-05-02T07:40:50.043Z</time></trkpt><trkpt lat="43.5786929" lon="12.4580251"><ele>431.6666666666667</ele><time>2026-05-02T07:40:51.022Z</time></trkpt><trkpt lat="43.5787394" lon="12.4580965"><ele>429.5</ele><time>2026-05-02T07:40:52.007Z</time></trkpt><trkpt lat="43.5787595" lon="12.4581886"><ele>427.33333333333337</ele><time>2026-05-02T07:40:53.035Z</time></trkpt><trkpt lat="43.5787438" lon="12.4583019"><ele>425.1666666666667</ele><time>2026-05-02T07:40:54.036Z</time></trkpt><trkpt lat="43.5786952" lon="12.4583896"><ele>423.0</ele><time>2026-05-02T07:40:55.037Z</time></trkpt><trkpt lat="43.5786197" lon="12.4584507"><ele>429.79999999999995</ele><time>2026-05-02T07:40:56.022Z</time></trkpt><trkpt lat="43.5785271" lon="12.4584616"><ele>436.6</ele><time>2026-05-02T07:40:57.025Z</time></trkpt><trkpt lat="43.5784402" lon="12.4584235"><ele>443.40000000000003</ele><time>2026-05-02T07:40:58.023Z</time></trkpt><trkpt lat="43.5783407" lon="12.4583566"><ele>450.20000000000005</ele><time>2026-05-02T07:40:59.026Z</time></trkpt><trkpt lat="43.5782218" lon="12.4582943"><ele>457.0</ele><time>2026-05-02T07:41:00.026Z</time></trkpt><trkpt lat="43.5780988" lon="12.4582452"><ele>457.0</ele><time>2026-05-02T07:41:01.023Z</time></trkpt><trkpt lat="43.5779662" lon="12.458199"><ele>457.0</ele><time>2026-05-02T07:41:02.032Z</time></trkpt><trkpt lat="43.5778333" lon="12.4581392"><ele>457.0</ele><time>2026-05-02T07:41:03.009Z</time></trkpt><trkpt lat="43.5776971" lon="12.4580605"><ele>457.0</ele><time>2026-05-02T07:41:04.013Z</time></trkpt><trkpt lat="43.5775651" lon="12.4579614"><ele>455.8</ele><time>2026-05-02T07:41:05.028Z</time></trkpt><trkpt lat="43.5774479" lon="12.4578649"><ele>454.6</ele><time>2026-05-02T07:41:06.029Z</time></trkpt><trkpt lat="43.5773383" lon="12.4578023"><ele>453.40000000000003</ele><time>2026-05-02T07:41:07.013Z</time></trkpt><trkpt lat="43.577245" lon="12.4577745"><ele>452.20000000000005</ele><time>2026-05-02T07:41:08.018Z</time></trkpt><trkpt lat="43.5771654" lon="12.4577654"><ele>451.0</ele><time>2026-05-02T07:41:09.036Z</time></trkpt><trkpt lat="43.5770954" lon="12.4577779"><ele>451.00000000000006</ele><time>2026-05-02T07:41:10.03Z</time></trkpt><trkpt lat="43.5770407" lon="12.4578385"><ele>451.0</ele><time>2026-05-02T07:41:11.049Z</time></trkpt><trkpt lat="43.5770179" lon="12.4579291"><ele>451.0</ele><time>2026-05-02T07:41:12.021Z</time></trkpt><trkpt lat="43.577014" lon="12.4580378"><ele>451.0</ele><time>2026-05-02T07:41:13.03Z</time></trkpt><trkpt lat="43.5770362" lon="12.4581391"><ele>451.00000000000006</ele><time>2026-05-02T07:41:14.057Z</time></trkpt><trkpt lat="43.5770992" lon="12.4582075"><ele>451.0</ele><time>2026-05-02T07:41:15.03Z</time></trkpt><trkpt lat="43.5771887" lon="12.4582565"><ele>455.0</ele><time>2026-05-02T07:41:16.017Z</time></trkpt><trkpt lat="43.5773066" lon="12.4583019"><ele>459.0</ele><time>2026-05-02T07:41:17.023Z</time></trkpt><trkpt lat="43.5774325" lon="12.4583668"><ele>463.0</ele><time>2026-05-02T07:41:18.037Z</time></trkpt><trkpt lat="43.5775647" lon="12.4584438"><ele>467.0</ele><time>2026-05-02T07:41:19.026Z</time></trkpt><trkpt lat="43.5776978" lon="12.4585197"><ele>467.0</ele><time>2026-05-02T07:41:20.022Z</time></trkpt><trkpt lat="43.5778282" lon="12.4586003"><ele>467.0</ele><time>2026-05-02T07:41:21.026Z</time></trkpt><trkpt lat="43.5779506" lon="12.4586719"><ele>467.0</ele><time>2026-05-02T07:41:22.019Z</time></trkpt><trkpt lat="43.5780594" lon="12.4587355"><ele>467.0</ele><time>2026-05-02T07:41:23.038Z</time></trkpt><trkpt lat="43.5781487" lon="12.4587963"><ele>465.49999999999994</ele><time>2026-05-02T07:41:24.014Z</time></trkpt><trkpt lat="43.5782171" lon="12.4588603"><ele>464.0</ele><time>2026-05-02T07:41:25.022Z</time></trkpt><trkpt lat="43.5782533" lon="12.4589585"><ele>462.5</ele><time>2026-05-02T07:41:26.009Z</time></trkpt><trkpt lat="43.578254" lon="12.4590707"><ele>461.0</ele><time>2026-05-02T07:41:26.999Z</time></trkpt><trkpt lat="43.5782235" lon="12.4591806"><ele>459.49999999999994</ele><time>2026-05-02T07:41:28.016Z</time></trkpt><trkpt lat="43.5781574" lon="12.4592507"><ele>458.0</ele><time>2026-05-02T07:41:29Z</time></trkpt><trkpt lat="43.5780711" lon="12.4592707"><ele>458.0</ele><time>2026-05-02T07:41:30.008Z</time></trkpt><trkpt lat="43.577982" lon="12.4592531"><ele>457.99999999999994</ele><time>2026-05-02T07:41:31.001Z</time></trkpt><trkpt lat="43.5778903" lon="12.4591827"><ele>457.99999999999994</ele><time>2026-05-02T07:41:32.043Z</time></trkpt><trkpt lat="43.5777947" lon="12.4591048"><ele>458.0</ele><time>2026-05-02T07:41:33.023Z</time></trkpt><trkpt lat="43.577684" lon="12.4590282"><ele>458.0</ele><time>2026-05-02T07:41:34.03Z</time></trkpt><trkpt lat="43.5775607" lon="12.4589507"><ele>460.25</ele><time>2026-05-02T07:41:35.013Z</time></trkpt><trkpt lat="43.5774298" lon="12.4588666"><ele>462.5</ele><time>2026-05-02T07:41:36.014Z</time></trkpt><trkpt lat="43.5773103" lon="12.4587913"><ele>464.75</ele><time>2026-05-02T07:41:37.008Z</time></trkpt><trkpt lat="43.5772068" lon="12.4587255"><ele>467.0</ele><time>2026-05-02T07:41:38.001Z</time></trkpt><trkpt lat="43.5771042" lon="12.4586899"><ele>468.6</ele><time>2026-05-02T07:41:39.028Z</time></trkpt><trkpt lat="43.5770063" lon="12.4586834"><ele>470.20000000000005</ele><time>2026-05-02T07:41:40.018Z</time></trkpt><trkpt lat="43.5769019" lon="12.4587057"><ele>471.8</ele><time>2026-05-02T07:41:41.023Z</time></trkpt><trkpt lat="43.5768076" lon="12.4587601"><ele>473.4</ele><time>2026-05-02T07:41:42.033Z</time></trkpt><trkpt lat="43.5767248" lon="12.4588522"><ele>475.0</ele><time>2026-05-02T07:41:43.017Z</time></trkpt><trkpt lat="43.5766363" lon="12.4589755"><ele>477.6666666666667</ele><time>2026-05-02T07:41:44.019Z</time></trkpt><trkpt lat="43.5765348" lon="12.4591241"><ele>480.33333333333337</ele><time>2026-05-02T07:41:45.03Z</time></trkpt><trkpt lat="43.5764144" lon="12.4592797"><ele>483.0</ele><time>2026-05-02T07:41:46.025Z</time></trkpt><trkpt lat="43.5762905" lon="12.4594431"><ele>482.0</ele><time>2026-05-02T07:41:47.035Z</time></trkpt><trkpt lat="43.5761644" lon="12.4595973"><ele>481.0</ele><time>2026-05-02T07:41:48.027Z</time></trkpt><trkpt lat="43.5760246" lon="12.4597337"><ele>480.0</ele><time>2026-05-02T07:41:49.021Z</time></trkpt><trkpt lat="43.5758772" lon="12.4598374"><ele>485.66666666666663</ele><time>2026-05-02T07:41:50.02Z</time></trkpt><trkpt lat="43.575714" lon="12.4598985"><ele>491.3333333333333</ele><time>2026-05-02T07:41:51.03Z</time></trkpt><trkpt lat="43.5755255" lon="12.4599404"><ele>497.0</ele><time>2026-05-02T07:41:52.031Z</time></trkpt><trkpt lat="43.5753324" lon="12.4599743"><ele>498.3333333333333</ele><time>2026-05-02T07:41:53.023Z</time></trkpt><trkpt lat="43.5751525" lon="12.4600003"><ele>499.66666666666663</ele><time>2026-05-02T07:41:54.032Z</time></trkpt><trkpt lat="43.5749796" lon="12.4600193"><ele>501.0</ele><time>2026-05-02T07:41:55.017Z</time></trkpt><trkpt lat="43.5748164" lon="12.4600305"><ele>501.0</ele><time>2026-05-02T07:41:56.011Z</time></trkpt><trkpt lat="43.5746535" lon="12.4600172"><ele>501.0</ele><time>2026-05-02T07:41:57.032Z</time></trkpt><trkpt lat="43.5744839" lon="12.4599877"><ele>501.0</ele><time>2026-05-02T07:41:58.03Z</time></trkpt><trkpt lat="43.5743263" lon="12.4599365"><ele>505.66666666666663</ele><time>2026-05-02T07:41:59.018Z</time></trkpt><trkpt lat="43.5741757" lon="12.4598716"><ele>510.3333333333333</ele><time>2026-05-02T07:42:00.041Z</time></trkpt><trkpt lat="43.574026" lon="12.4597981"><ele>515.0</ele><time>2026-05-02T07:42:01.026Z</time></trkpt><trkpt lat="43.5738708" lon="12.4597186"><ele>515.0</ele><time>2026-05-02T07:42:02.033Z</time></trkpt><trkpt lat="43.5737209" lon="12.4596467"><ele>515.0</ele><time>2026-05-02T07:42:03.015Z</time></trkpt><trkpt lat="43.5735872" lon="12.4595852"><ele>515.0</ele><time>2026-05-02T07:42:04.031Z</time></trkpt><trkpt lat="43.5734685" lon="12.4595417"><ele>515.0</ele><time>2026-05-02T07:42:05.015Z</time></trkpt><trkpt lat="43.5733666" lon="12.4595029"><ele>515.6</ele><time>2026-05-02T07:42:06.014Z</time></trkpt><trkpt lat="43.5732682" lon="12.4594947"><ele>516.2</ele><time>2026-05-02T07:42:07.021Z</time></trkpt><trkpt lat="43.5731735" lon="12.4595062"><ele>516.8</ele><time>2026-05-02T07:42:08.021Z</time></trkpt><trkpt lat="43.5730821" lon="12.4595295"><ele>517.4</ele><time>2026-05-02T07:42:09.027Z</time></trkpt><trkpt lat="43.5729639" lon="12.4595903"><ele>518.0</ele><time>2026-05-02T07:42:10.026Z</time></trkpt><trkpt lat="43.5728369" lon="12.4596805"><ele>519.3333333333333</ele><time>2026-05-02T07:42:11.043Z</time></trkpt><trkpt lat="43.5727213" lon="12.4597865"><ele>520.6666666666666</ele><time>2026-05-02T07:42:12.03Z</time></trkpt><trkpt lat="43.5726065" lon="12.4599261"><ele>522.0</ele><time>2026-05-02T07:42:13.02Z</time></trkpt><trkpt lat="43.5724992" lon="12.4600908"><ele>522.0</ele><time>2026-05-02T07:42:14.019Z</time></trkpt><trkpt lat="43.5723928" lon="12.4602526"><ele>522.0</ele><time>2026-05-02T07:42:15.018Z</time></trkpt><trkpt lat="43.5722987" lon="12.4604041"><ele>522.0</ele><time>2026-05-02T07:42:16.017Z</time></trkpt><trkpt lat="43.5722183" lon="12.4605187"><ele>522.0</ele><time>2026-05-02T07:42:17.031Z</time></trkpt><trkpt lat="43.5721479" lon="12.4605816"><ele>523.0</ele><time>2026-05-02T07:42:18.021Z</time></trkpt><trkpt lat="43.5720524" lon="12.4606262"><ele>524.0</ele><time>2026-05-02T07:42:19.026Z</time></trkpt><trkpt lat="43.5719706" lon="12.4606147"><ele>525.0</ele><time>2026-05-02T07:42:20.03Z</time></trkpt><trkpt lat="43.5718648" lon="12.4605795"><ele>526.0</ele><time>2026-05-02T07:42:21.026Z</time></trkpt><trkpt lat="43.5717476" lon="12.4605067"><ele>527.0</ele><time>2026-05-02T07:42:22.032Z</time></trkpt><trkpt lat="43.5716648" lon="12.4604237"><ele>527.0</ele><time>2026-05-02T07:42:23.033Z</time></trkpt><trkpt lat="43.5715344" lon="12.4603642"><ele>527.0</ele><time>2026-05-02T07:42:24.009Z</time></trkpt><trkpt lat="43.5714232" lon="12.4603072"><ele>527.0</ele><time>2026-05-02T07:42:25.021Z</time></trkpt><trkpt lat="43.571318" lon="12.4602845"><ele>527.0</ele><time>2026-05-02T07:42:26.018Z</time></trkpt><trkpt lat="43.5712089" lon="12.4602843"><ele>528.75</ele><time>2026-05-02T07:42:27.024Z</time></trkpt><trkpt lat="43.5710931" lon="12.4602925"><ele>530.5</ele><time>2026-05-02T07:42:28.019Z</time></trkpt><trkpt lat="43.5709854" lon="12.4603073"><ele>532.25</ele><time>2026-05-02T07:42:29.025Z</time></trkpt><trkpt lat="43.570856" lon="12.4603646"><ele>534.0</ele><time>2026-05-02T07:42:30.02Z</time></trkpt><trkpt lat="43.5707333" lon="12.4604622"><ele>532.0</ele><time>2026-05-02T07:42:31.019Z</time></trkpt><trkpt lat="43.5706016" lon="12.4605536"><ele>530.0</ele><time>2026-05-02T07:42:32.014Z</time></trkpt><trkpt lat="43.5704638" lon="12.4606492"><ele>528.0</ele><time>2026-05-02T07:42:33.015Z</time></trkpt><trkpt lat="43.5703334" lon="12.4607227"><ele>526.0</ele><time>2026-05-02T07:42:34.03Z</time></trkpt><trkpt lat="43.5702186" lon="12.4607735"><ele>526.0</ele><time>2026-05-02T07:42:35.035Z</time></trkpt><trkpt lat="43.5700954" lon="12.4607714"><ele>526.0</ele><time>2026-05-02T07:42:36.029Z</time></trkpt><trkpt lat="43.5699531" lon="12.4607422"><ele>526.0</ele><time>2026-05-02T07:42:37.017Z</time></trkpt><trkpt lat="43.5697967" lon="12.4607006"><ele>526.0</ele><time>2026-05-02T07:42:38.014Z</time></trkpt><trkpt lat="43.5696502" lon="12.4606848"><ele>528.0</ele><time>2026-05-02T07:42:39.022Z</time></trkpt><trkpt lat="43.5695166" lon="12.4607188"><ele>530.0</ele><time>2026-05-02T07:42:40.029Z</time></trkpt><trkpt lat="43.5693784" lon="12.4607968"><ele>532.0</ele><time>2026-05-02T07:42:41.022Z</time></trkpt><trkpt lat="43.5692341" lon="12.4609006"><ele>534.0</ele><time>2026-05-02T07:42:42.008Z</time></trkpt><trkpt lat="43.5690865" lon="12.4610044"><ele>534.0</ele><time>2026-05-02T07:42:43.008Z</time></trkpt><trkpt lat="43.568945" lon="12.4610924"><ele>534.0</ele><time>2026-05-02T07:42:44.018Z</time></trkpt><trkpt lat="43.5688131" lon="12.4611639"><ele>534.0</ele><time>2026-05-02T07:42:45.028Z</time></trkpt><trkpt lat="43.5686912" lon="12.4612268"><ele>534.0</ele><time>2026-05-02T07:42:46.024Z</time></trkpt><trkpt lat="43.568573" lon="12.4612876"><ele>537.6</ele><time>2026-05-02T07:42:47.03Z</time></trkpt><trkpt lat="43.5684697" lon="12.4613264"><ele>541.2</ele><time>2026-05-02T07:42:48.038Z</time></trkpt><trkpt lat="43.5683651" lon="12.4613237"><ele>544.8000000000001</ele><time>2026-05-02T07:42:49.036Z</time></trkpt><trkpt lat="43.5682572" lon="12.461279"><ele>548.4</ele><time>2026-05-02T07:42:50.019Z</time></trkpt><trkpt lat="43.5681386" lon="12.4612667"><ele>552.0</ele><time>2026-05-02T07:42:51.019Z</time></trkpt><trkpt lat="43.56803" lon="12.4612824"><ele>545.0</ele><time>2026-05-02T07:42:52.023Z</time></trkpt><trkpt lat="43.5679236" lon="12.461338"><ele>538.0</ele><time>2026-05-02T07:42:53.028Z</time></trkpt><trkpt lat="43.5678451" lon="12.4614407"><ele>531.0</ele><time>2026-05-02T07:42:54.011Z</time></trkpt><trkpt lat="43.567748" lon="12.4615704"><ele>524.0</ele><time>2026-05-02T07:42:55.027Z</time></trkpt><trkpt lat="43.5676493" lon="12.4616627"><ele>524.0</ele><time>2026-05-02T07:42:56.021Z</time></trkpt><trkpt lat="43.5675459" lon="12.4617193"><ele>524.0</ele><time>2026-05-02T07:42:57.023Z</time></trkpt><trkpt lat="43.5674297" lon="12.4617061"><ele>524.0</ele><time>2026-05-02T07:42:58.016Z</time></trkpt><trkpt lat="43.5673292" lon="12.4616689"><ele>524.0</ele><time>2026-05-02T07:42:59.025Z</time></trkpt><trkpt lat="43.5672185" lon="12.4616369"><ele>524.0</ele><time>2026-05-02T07:43:00.016Z</time></trkpt><trkpt lat="43.5671238" lon="12.4616415"><ele>524.0</ele><time>2026-05-02T07:43:01.023Z</time></trkpt><trkpt lat="43.567032" lon="12.4616938"><ele>524.0</ele><time>2026-05-02T07:43:02.011Z</time></trkpt><trkpt lat="43.5669515" lon="12.4617873"><ele>524.0</ele><time>2026-05-02T07:43:03.03Z</time></trkpt><trkpt lat="43.5669" lon="12.4619113"><ele>524.0</ele><time>2026-05-02T07:43:04.03Z</time></trkpt><trkpt lat="43.5668712" lon="12.4620675"><ele>524.0</ele><time>2026-05-02T07:43:05.008Z</time></trkpt><trkpt lat="43.5668601" lon="12.4622591"><ele>525.5</ele><time>2026-05-02T07:43:06.016Z</time></trkpt><trkpt lat="43.5668427" lon="12.462461"><ele>527.0</ele><time>2026-05-02T07:43:07.02Z</time></trkpt><trkpt lat="43.5667969" lon="12.4626402"><ele>528.5</ele><time>2026-05-02T07:43:08.024Z</time></trkpt><trkpt lat="43.566728" lon="12.4627884"><ele>530.0</ele><time>2026-05-02T07:43:09.018Z</time></trkpt><trkpt lat="43.566623" lon="12.4629038"><ele>526.0</ele><time>2026-05-02T07:43:10.018Z</time></trkpt><trkpt lat="43.5664967" lon="12.4629752"><ele>522.0</ele><time>2026-05-02T07:43:11.025Z</time></trkpt><trkpt lat="43.5663704" lon="12.4630185"><ele>518.0</ele><time>2026-05-02T07:43:12.02Z</time></trkpt><trkpt lat="43.5662198" lon="12.4630377"><ele>514.0</ele><time>2026-05-02T07:43:13.027Z</time></trkpt><trkpt lat="43.566063" lon="12.4630362"><ele>514.0</ele><time>2026-05-02T07:43:14.027Z</time></trkpt><trkpt lat="43.5659135" lon="12.4630217"><ele>514.0</ele><time>2026-05-02T07:43:15.036Z</time></trkpt><trkpt lat="43.5657901" lon="12.4629935"><ele>514.0</ele><time>2026-05-02T07:43:16.008Z</time></trkpt><trkpt lat="43.56569" lon="12.4629273"><ele>514.0</ele><time>2026-05-02T07:43:17.027Z</time></trkpt><trkpt lat="43.5656076" lon="12.462829"><ele>520.5</ele><time>2026-05-02T07:43:18.02Z</time></trkpt><trkpt lat="43.5655503" lon="12.4626935"><ele>527.0</ele><time>2026-05-02T07:43:19.028Z</time></trkpt><trkpt lat="43.5655106" lon="12.4625358"><ele>533.5</ele><time>2026-05-02T07:43:20.04Z</time></trkpt><trkpt lat="43.5654636" lon="12.4623708"><ele>540.0</ele><time>2026-05-02T07:43:21.023Z</time></trkpt><trkpt lat="43.5653836" lon="12.4622193"><ele>541.0</ele><time>2026-05-02T07:43:22.015Z</time></trkpt><trkpt lat="43.5652846" lon="12.4620975"><ele>542.0</ele><time>2026-05-02T07:43:23.024Z</time></trkpt><trkpt lat="43.5651574" lon="12.4619904"><ele>543.0</ele><time>2026-05-02T07:43:24.016Z</time></trkpt><trkpt lat="43.5650053" lon="12.461917"><ele>544.0</ele><time>2026-05-02T07:43:25.025Z</time></trkpt><trkpt lat="43.5648388" lon="12.4618554"><ele>544.0</ele><time>2026-05-02T07:43:26.018Z</time></trkpt><trkpt lat="43.5646641" lon="12.4617982"><ele>544.0</ele><time>2026-05-02T07:43:27.025Z</time></trkpt><trkpt lat="43.5644855" lon="12.461737"><ele>544.0</ele><time>2026-05-02T07:43:28.016Z</time></trkpt><trkpt lat="43.5643019" lon="12.4616724"><ele>543.3333333333334</ele><time>2026-05-02T07:43:29.021Z</time></trkpt><trkpt lat="43.564122" lon="12.4616027"><ele>542.6666666666666</ele><time>2026-05-02T07:43:30.017Z</time></trkpt><trkpt lat="43.5639378" lon="12.4615323"><ele>542.0</ele><time>2026-05-02T07:43:31.016Z</time></trkpt><trkpt lat="43.5637554" lon="12.461467"><ele>542.3333333333333</ele><time>2026-05-02T07:43:32.009Z</time></trkpt><trkpt lat="43.563572" lon="12.4614052"><ele>542.6666666666666</ele><time>2026-05-02T07:43:33.016Z</time></trkpt><trkpt lat="43.563398" lon="12.4613471"><ele>543.0</ele><time>2026-05-02T07:43:34.022Z</time></trkpt><trkpt lat="43.5632424" lon="12.46129"><ele>546.25</ele><time>2026-05-02T07:43:35.012Z</time></trkpt><trkpt lat="43.5630979" lon="12.4612371"><ele>549.5</ele><time>2026-05-02T07:43:36.02Z</time></trkpt><trkpt lat="43.5629629" lon="12.4611783"><ele>552.75</ele><time>2026-05-02T07:43:37.018Z</time></trkpt><trkpt lat="43.5628322" lon="12.4610909"><ele>556.0</ele><time>2026-05-02T07:43:38.021Z</time></trkpt><trkpt lat="43.5626932" lon="12.4609663"><ele>556.0</ele><time>2026-05-02T07:43:39.031Z</time></trkpt><trkpt lat="43.562564" lon="12.4608208"><ele>556.0</ele><time>2026-05-02T07:43:40.013Z</time></trkpt><trkpt lat="43.5624244" lon="12.4606596"><ele>556.0</ele><time>2026-05-02T07:43:41.036Z</time></trkpt><trkpt lat="43.5622777" lon="12.4605173"><ele>560.0</ele><time>2026-05-02T07:43:42.024Z</time></trkpt><trkpt lat="43.5621438" lon="12.4603798"><ele>564.0</ele><time>2026-05-02T07:43:43.02Z</time></trkpt><trkpt lat="43.5620167" lon="12.4602684"><ele>568.0</ele><time>2026-05-02T07:43:44.022Z</time></trkpt><trkpt lat="43.5618996" lon="12.4601689"><ele>568.0</ele><time>2026-05-02T07:43:45.023Z</time></trkpt><trkpt lat="43.5617809" lon="12.4600778"><ele>568.0</ele><time>2026-05-02T07:43:46.017Z</time></trkpt><trkpt lat="43.5616499" lon="12.460022"><ele>568.0</ele><time>2026-05-02T07:43:47.014Z</time></trkpt><trkpt lat="43.5615008" lon="12.4599907"><ele>568.0</ele><time>2026-05-02T07:43:48.021Z</time></trkpt><trkpt lat="43.5613516" lon="12.4599905"><ele>569.0</ele><time>2026-05-02T07:43:49.022Z</time></trkpt><trkpt lat="43.5611911" lon="12.4600026"><ele>570.0</ele><time>2026-05-02T07:43:50.024Z</time></trkpt><trkpt lat="43.5610215" lon="12.4600022"><ele>571.0</ele><time>2026-05-02T07:43:51.022Z</time></trkpt><trkpt lat="43.5608447" lon="12.4599917"><ele>571.0</ele><time>2026-05-02T07:43:52.022Z</time></trkpt><trkpt lat="43.5606646" lon="12.459978"><ele>571.0</ele><time>2026-05-02T07:43:53.026Z</time></trkpt><trkpt lat="43.5604804" lon="12.4599806"><ele>571.0</ele><time>2026-05-02T07:43:54.031Z</time></trkpt><trkpt lat="43.5602992" lon="12.459998"><ele>574.0</ele><time>2026-05-02T07:43:55.012Z</time></trkpt><trkpt lat="43.5601244" lon="12.4600303"><ele>577.0</ele><time>2026-05-02T07:43:56.017Z</time></trkpt><trkpt lat="43.5599541" lon="12.4600539"><ele>580.0</ele><time>2026-05-02T07:43:57.012Z</time></trkpt><trkpt lat="43.559801" lon="12.4600676"><ele>580.0</ele><time>2026-05-02T07:43:58.013Z</time></trkpt><trkpt lat="43.55965" lon="12.4600734"><ele>580.0</ele><time>2026-05-02T07:43:59.007Z</time></trkpt><trkpt lat="43.5595061" lon="12.4600744"><ele>580.0</ele><time>2026-05-02T07:44:00.026Z</time></trkpt><trkpt lat="43.5593703" lon="12.4600484"><ele>580.0</ele><time>2026-05-02T07:44:01.023Z</time></trkpt><trkpt lat="43.5592454" lon="12.4600031"><ele>580.8</ele><time>2026-05-02T07:44:02.019Z</time></trkpt><trkpt lat="43.5591361" lon="12.4599622"><ele>581.6</ele><time>2026-05-02T07:44:03.019Z</time></trkpt><trkpt lat="43.5590423" lon="12.4599308"><ele>582.4</ele><time>2026-05-02T07:44:04.037Z</time></trkpt><trkpt lat="43.5589542" lon="12.4599241"><ele>583.2</ele><time>2026-05-02T07:44:05.022Z</time></trkpt><trkpt lat="43.5588697" lon="12.4599606"><ele>584.0</ele><time>2026-05-02T07:44:06.017Z</time></trkpt><trkpt lat="43.5588029" lon="12.4600345"><ele>584.0</ele><time>2026-05-02T07:44:07.019Z</time></trkpt><trkpt lat="43.5587417" lon="12.4601463"><ele>584.0</ele><time>2026-05-02T07:44:08.03Z</time></trkpt><trkpt lat="43.5586912" lon="12.4602581"><ele>584.0</ele><time>2026-05-02T07:44:09.007Z</time></trkpt><trkpt lat="43.5586555" lon="12.4603708"><ele>584.0</ele><time>2026-05-02T07:44:10.022Z</time></trkpt><trkpt lat="43.5586587" lon="12.4604863"><ele>584.0</ele><time>2026-05-02T07:44:11.039Z</time></trkpt><trkpt lat="43.5586832" lon="12.4606192"><ele>583.25</ele><time>2026-05-02T07:44:12.018Z</time></trkpt><trkpt lat="43.5587338" lon="12.4607593"><ele>582.5</ele><time>2026-05-02T07:44:13.021Z</time></trkpt><trkpt lat="43.5588011" lon="12.4609264"><ele>581.75</ele><time>2026-05-02T07:44:14.027Z</time></trkpt><trkpt lat="43.5588693" lon="12.4611235"><ele>581.0</ele><time>2026-05-02T07:44:15.018Z</time></trkpt><trkpt lat="43.5589441" lon="12.4613468"><ele>583.0</ele><time>2026-05-02T07:44:16.04Z</time></trkpt><trkpt lat="43.5590195" lon="12.4615858"><ele>585.0</ele><time>2026-05-02T07:44:17.031Z</time></trkpt><trkpt lat="43.5590842" lon="12.4618104"><ele>587.0</ele><time>2026-05-02T07:44:18.02Z</time></trkpt><trkpt lat="43.5591437" lon="12.4620219"><ele>589.0</ele><time>2026-05-02T07:44:19.028Z</time></trkpt><trkpt lat="43.559182" lon="12.4622566"><ele>591.0</ele><time>2026-05-02T07:44:20.039Z</time></trkpt><trkpt lat="43.5592003" lon="12.4625155"><ele>593.0</ele><time>2026-05-02T07:44:21.022Z</time></trkpt><trkpt lat="43.5592168" lon="12.4627824"><ele>595.3333333333333</ele><time>2026-05-02T07:44:22.031Z</time></trkpt><trkpt lat="43.5592351" lon="12.4630379"><ele>597.6666666666666</ele><time>2026-05-02T07:44:23.02Z</time></trkpt><trkpt lat="43.5592563" lon="12.4632614"><ele>600.0</ele><time>2026-05-02T07:44:24.019Z</time></trkpt><trkpt lat="43.5592728" lon="12.4634684"><ele>600.0</ele><time>2026-05-02T07:44:25.034Z</time></trkpt><trkpt lat="43.5592754" lon="12.4636806"><ele>600.0</ele><time>2026-05-02T07:44:26.014Z</time></trkpt><trkpt lat="43.5592501" lon="12.4639039"><ele>600.0</ele><time>2026-05-02T07:44:27.017Z</time></trkpt><trkpt lat="43.5592088" lon="12.4641304"><ele>601.3333333333334</ele><time>2026-05-02T07:44:28.013Z</time></trkpt><trkpt lat="43.5591504" lon="12.4643571"><ele>602.6666666666667</ele><time>2026-05-02T07:44:29.012Z</time></trkpt><trkpt lat="43.5590819" lon="12.464602"><ele>604.0</ele><time>2026-05-02T07:44:30.027Z</time></trkpt><trkpt lat="43.5590181" lon="12.4648601"><ele>604.0</ele><time>2026-05-02T07:44:31.019Z</time></trkpt><trkpt lat="43.5589526" lon="12.4651165"><ele>604.0</ele><time>2026-05-02T07:44:32.031Z</time></trkpt><trkpt lat="43.55889" lon="12.4653536"><ele>604.0</ele><time>2026-05-02T07:44:33.018Z</time></trkpt><trkpt lat="43.5588297" lon="12.465576"><ele>601.6666666666667</ele><time>2026-05-02T07:44:34.02Z</time></trkpt><trkpt lat="43.5587605" lon="12.4657981"><ele>599.3333333333334</ele><time>2026-05-02T07:44:35.024Z</time></trkpt><trkpt lat="43.5586725" lon="12.4660165"><ele>597.0</ele><time>2026-05-02T07:44:36.022Z</time></trkpt><trkpt lat="43.558566" lon="12.4662264"><ele>602.3333333333334</ele><time>2026-05-02T07:44:37.03Z</time></trkpt><trkpt lat="43.5584479" lon="12.4664357"><ele>607.6666666666667</ele><time>2026-05-02T07:44:38.018Z</time></trkpt><trkpt lat="43.5583251" lon="12.4666371"><ele>613.0</ele><time>2026-05-02T07:44:39.015Z</time></trkpt><trkpt lat="43.5582043" lon="12.4668358"><ele>613.0</ele><time>2026-05-02T07:44:40.033Z</time></trkpt><trkpt lat="43.5580871" lon="12.4670393"><ele>613.0</ele><time>2026-05-02T07:44:41.021Z</time></trkpt><trkpt lat="43.5579666" lon="12.4672491"><ele>613.0</ele><time>2026-05-02T07:44:42.021Z</time></trkpt><trkpt lat="43.5578449" lon="12.4674513"><ele>615.6666666666667</ele><time>2026-05-02T07:44:43.028Z</time></trkpt><trkpt lat="43.5577276" lon="12.467647"><ele>618.3333333333334</ele><time>2026-05-02T07:44:44.025Z</time></trkpt><trkpt lat="43.5576165" lon="12.4678376"><ele>621.0</ele><time>2026-05-02T07:44:45.023Z</time></trkpt><trkpt lat="43.5575134" lon="12.4680443"><ele>621.0</ele><time>2026-05-02T07:44:46.024Z</time></trkpt><trkpt lat="43.5574157" lon="12.4682635"><ele>621.0</ele><time>2026-05-02T07:44:47.025Z</time></trkpt><trkpt lat="43.5573226" lon="12.4684909"><ele>621.0</ele><time>2026-05-02T07:44:48.031Z</time></trkpt><trkpt lat="43.5572376" lon="12.4687265"><ele>619.6666666666666</ele><time>2026-05-02T07:44:49.031Z</time></trkpt><trkpt lat="43.557161" lon="12.468971"><ele>618.3333333333333</ele><time>2026-05-02T07:44:50.023Z</time></trkpt><trkpt lat="43.5570968" lon="12.4692299"><ele>617.0</ele><time>2026-05-02T07:44:51.017Z</time></trkpt><trkpt lat="43.5570343" lon="12.4695009"><ele>627.5</ele><time>2026-05-02T07:44:52.014Z</time></trkpt><trkpt lat="43.5569695" lon="12.4697918"><ele>638.0</ele><time>2026-05-02T07:44:53.022Z</time></trkpt><trkpt lat="43.5569101" lon="12.470097"><ele>638.0</ele><time>2026-05-02T07:44:54.018Z</time></trkpt><trkpt lat="43.5568516" lon="12.4703841"><ele>638.0</ele><time>2026-05-02T07:44:55.033Z</time></trkpt><trkpt lat="43.5568014" lon="12.4706433"><ele>638.0</ele><time>2026-05-02T07:44:56.017Z</time></trkpt><trkpt lat="43.5567645" lon="12.4708906"><ele>637.6666666666666</ele><time>2026-05-02T07:44:57.019Z</time></trkpt><trkpt lat="43.5567469" lon="12.4711294"><ele>637.3333333333334</ele><time>2026-05-02T07:44:58.016Z</time></trkpt><trkpt lat="43.5567476" lon="12.4713764"><ele>637.0</ele><time>2026-05-02T07:44:59.027Z</time></trkpt><trkpt lat="43.5567591" lon="12.4716293"><ele>638.0</ele><time>2026-05-02T07:45:00.013Z</time></trkpt><trkpt lat="43.5567983" lon="12.4718947"><ele>639.0</ele><time>2026-05-02T07:45:01.017Z</time></trkpt><trkpt lat="43.5568551" lon="12.4721159"><ele>640.0</ele><time>2026-05-02T07:45:02.022Z</time></trkpt><trkpt lat="43.5569177" lon="12.4723157"><ele>643.0</ele><time>2026-05-02T07:45:03.024Z</time></trkpt><trkpt lat="43.5569767" lon="12.4724913"><ele>646.0</ele><time>2026-05-02T07:45:04.016Z</time></trkpt><trkpt lat="43.5570022" lon="12.4726594"><ele>649.0</ele><time>2026-05-02T07:45:05.024Z</time></trkpt><trkpt lat="43.5570009" lon="12.4728499"><ele>652.0</ele><time>2026-05-02T07:45:06.04Z</time></trkpt><trkpt lat="43.556986" lon="12.4730713"><ele>654.3333333333334</ele><time>2026-05-02T07:45:07.025Z</time></trkpt><trkpt lat="43.5569494" lon="12.473295"><ele>656.6666666666666</ele><time>2026-05-02T07:45:08.029Z</time></trkpt><trkpt lat="43.5569196" lon="12.4735228"><ele>659.0</ele><time>2026-05-02T07:45:09.032Z</time></trkpt><trkpt lat="43.5568823" lon="12.473768"><ele>662.0</ele><time>2026-05-02T07:45:10.026Z</time></trkpt><trkpt lat="43.5568497" lon="12.4740158"><ele>665.0</ele><time>2026-05-02T07:45:11.029Z</time></trkpt><trkpt lat="43.5568218" lon="12.4742462"><ele>668.0</ele><time>2026-05-02T07:45:12.034Z</time></trkpt><trkpt lat="43.5567941" lon="12.4744638"><ele>667.5</ele><time>2026-05-02T07:45:13.013Z</time></trkpt><trkpt lat="43.556769" lon="12.4746511"><ele>667.0</ele><time>2026-05-02T07:45:14.019Z</time></trkpt><trkpt lat="43.5567413" lon="12.4748211"><ele>666.5</ele><time>2026-05-02T07:45:15.019Z</time></trkpt><trkpt lat="43.5567006" lon="12.4749646"><ele>666.0</ele><time>2026-05-02T07:45:16.022Z</time></trkpt><trkpt lat="43.5566432" lon="12.4750892"><ele>666.0</ele><time>2026-05-02T07:45:17.015Z</time></trkpt><trkpt lat="43.5565626" lon="12.4751887"><ele>666.0</ele><time>2026-05-02T07:45:18.028Z</time></trkpt><trkpt lat="43.5564631" lon="12.4752544"><ele>666.0</ele><time>2026-05-02T07:45:19.017Z</time></trkpt><trkpt lat="43.5563587" lon="12.4753053"><ele>666.0</ele><time>2026-05-02T07:45:20.029Z</time></trkpt><trkpt lat="43.5562217" lon="12.4753551"><ele>666.3333333333334</ele><time>2026-05-02T07:45:21.029Z</time></trkpt><trkpt lat="43.5560731" lon="12.4754215"><ele>666.6666666666667</ele><time>2026-05-02T07:45:22.011Z</time></trkpt><trkpt lat="43.5558949" lon="12.4755061"><ele>667.0</ele><time>2026-05-02T07:45:23.019Z</time></trkpt><trkpt lat="43.555704" lon="12.475608"><ele>667.0</ele><time>2026-05-02T07:45:24.029Z</time></trkpt><trkpt lat="43.5554983" lon="12.4757099"><ele>667.0</ele><time>2026-05-02T07:45:25.024Z</time></trkpt><trkpt lat="43.5552898" lon="12.4758146"><ele>667.0</ele><time>2026-05-02T07:45:26.014Z</time></trkpt><trkpt lat="43.5550996" lon="12.4759058"><ele>673.3333333333334</ele><time>2026-05-02T07:45:27.015Z</time></trkpt><trkpt lat="43.5549182" lon="12.4759882"><ele>679.6666666666666</ele><time>2026-05-02T07:45:28.015Z</time></trkpt><trkpt lat="43.5547318" lon="12.4760577"><ele>686.0</ele><time>2026-05-02T07:45:29.019Z</time></trkpt><trkpt lat="43.5545401" lon="12.4760944"><ele>690.0</ele><time>2026-05-02T07:45:30.013Z</time></trkpt><trkpt lat="43.5543365" lon="12.4761198"><ele>694.0</ele><time>2026-05-02T07:45:31.016Z</time></trkpt><trkpt lat="43.5541401" lon="12.4761494"><ele>698.0</ele><time>2026-05-02T07:45:32.022Z</time></trkpt><trkpt lat="43.5539765" lon="12.4761971"><ele>696.3333333333333</ele><time>2026-05-02T07:45:33.016Z</time></trkpt><trkpt lat="43.5538304" lon="12.4762729"><ele>694.6666666666666</ele><time>2026-05-02T07:45:34.015Z</time></trkpt><trkpt lat="43.5537003" lon="12.4763788"><ele>693.0</ele><time>2026-05-02T07:45:35.02Z</time></trkpt><trkpt lat="43.5535673" lon="12.4765231"><ele>693.0</ele><time>2026-05-02T07:45:36.012Z</time></trkpt><trkpt lat="43.5534203" lon="12.4766998"><ele>693.0</ele><time>2026-05-02T07:45:37.014Z</time></trkpt><trkpt lat="43.5532541" lon="12.4768804"><ele>693.0</ele><time>2026-05-02T07:45:38.022Z</time></trkpt><trkpt lat="43.5530726" lon="12.4770777"><ele>696.3333333333334</ele><time>2026-05-02T07:45:39.02Z</time></trkpt><trkpt lat="43.5528916" lon="12.477277"><ele>699.6666666666667</ele><time>2026-05-02T07:45:40.012Z</time></trkpt><trkpt lat="43.5527362" lon="12.4774478"><ele>703.0</ele><time>2026-05-02T07:45:41.022Z</time></trkpt><trkpt lat="43.552599" lon="12.477601"><ele>703.0</ele><time>2026-05-02T07:45:42.013Z</time></trkpt><trkpt lat="43.5524814" lon="12.4777366"><ele>703.0</ele><time>2026-05-02T07:45:43.016Z</time></trkpt><trkpt lat="43.5523861" lon="12.4778837"><ele>703.0</ele><time>2026-05-02T07:45:44.017Z</time></trkpt><trkpt lat="43.5523066" lon="12.4780688"><ele>701.0</ele><time>2026-05-02T07:45:45.015Z</time></trkpt><trkpt lat="43.5522393" lon="12.4782895"><ele>699.0</ele><time>2026-05-02T07:45:46.014Z</time></trkpt><trkpt lat="43.552173" lon="12.4785369"><ele>697.0</ele><time>2026-05-02T07:45:47.024Z</time></trkpt><trkpt lat="43.5520964" lon="12.4787956"><ele>702.6666666666667</ele><time>2026-05-02T07:45:48.015Z</time></trkpt><trkpt lat="43.5520074" lon="12.4790586"><ele>708.3333333333334</ele><time>2026-05-02T07:45:49.023Z</time></trkpt><trkpt lat="43.5518984" lon="12.4793312"><ele>714.0</ele><time>2026-05-02T07:45:50.019Z</time></trkpt><trkpt lat="43.5517758" lon="12.4795809"><ele>713.0</ele><time>2026-05-02T07:45:51.019Z</time></trkpt><trkpt lat="43.5516612" lon="12.4798017"><ele>712.0</ele><time>2026-05-02T07:45:52.016Z</time></trkpt><trkpt lat="43.5515535" lon="12.4800075"><ele>711.0</ele><time>2026-05-02T07:45:53.013Z</time></trkpt><trkpt lat="43.5514527" lon="12.4802092"><ele>711.0</ele><time>2026-05-02T07:45:54.019Z</time></trkpt><trkpt lat="43.5513575" lon="12.4803929"><ele>711.0</ele><time>2026-05-02T07:45:55.021Z</time></trkpt><trkpt lat="43.5512762" lon="12.480567"><ele>711.0</ele><time>2026-05-02T07:45:56.017Z</time></trkpt><trkpt lat="43.5512144" lon="12.4807285"><ele>711.0</ele><time>2026-05-02T07:45:57.019Z</time></trkpt><trkpt lat="43.5511788" lon="12.4808826"><ele>711.0</ele><time>2026-05-02T07:45:58.02Z</time></trkpt><trkpt lat="43.551166" lon="12.4810567"><ele>711.0</ele><time>2026-05-02T07:45:59.037Z</time></trkpt><trkpt lat="43.5511827" lon="12.4812396"><ele>711.0</ele><time>2026-05-02T07:46:00.03Z</time></trkpt><trkpt lat="43.5512249" lon="12.4814327"><ele>711.0</ele><time>2026-05-02T07:46:01.016Z</time></trkpt><trkpt lat="43.5512706" lon="12.4816266"><ele>711.0</ele><time>2026-05-02T07:46:02.019Z</time></trkpt><trkpt lat="43.5512923" lon="12.481811"><ele>711.0</ele><time>2026-05-02T07:46:03.023Z</time></trkpt><trkpt lat="43.5512944" lon="12.4820039"><ele>711.0</ele><time>2026-05-02T07:46:04.021Z</time></trkpt><trkpt lat="43.5512767" lon="12.4821918"><ele>711.0</ele><time>2026-05-02T07:46:05.021Z</time></trkpt><trkpt lat="43.5512859" lon="12.4823559"><ele>715.0</ele><time>2026-05-02T07:46:06.015Z</time></trkpt><trkpt lat="43.5513272" lon="12.4825123"><ele>719.0</ele><time>2026-05-02T07:46:07.014Z</time></trkpt><trkpt lat="43.5514066" lon="12.4826326"><ele>723.0</ele><time>2026-05-02T07:46:08.026Z</time></trkpt><trkpt lat="43.5515154" lon="12.4827416"><ele>727.0</ele><time>2026-05-02T07:46:09.017Z</time></trkpt><trkpt lat="43.551643" lon="12.4828429"><ele>733.5</ele><time>2026-05-02T07:46:10.013Z</time></trkpt><trkpt lat="43.5517634" lon="12.4829467"><ele>740.0</ele><time>2026-05-02T07:46:11.026Z</time></trkpt><trkpt lat="43.55186" lon="12.4830496"><ele>746.5</ele><time>2026-05-02T07:46:12.02Z</time></trkpt><trkpt lat="43.5519293" lon="12.4831703"><ele>753.0</ele><time>2026-05-02T07:46:13.022Z</time></trkpt><trkpt lat="43.551981" lon="12.4833266"><ele>753.0</ele><time>2026-05-02T07:46:14.023Z</time></trkpt><trkpt lat="43.5520193" lon="12.4835033"><ele>753.0</ele><time>2026-05-02T07:46:15.022Z</time></trkpt><trkpt lat="43.5520572" lon="12.4837052"><ele>753.0</ele><time>2026-05-02T07:46:16.027Z</time></trkpt><trkpt lat="43.5521045" lon="12.4839309"><ele>745.5</ele><time>2026-05-02T07:46:17.031Z</time></trkpt><trkpt lat="43.552141" lon="12.4841337"><ele>738.0</ele><time>2026-05-02T07:46:18.011Z</time></trkpt><trkpt lat="43.5521723" lon="12.4843148"><ele>730.5</ele><time>2026-05-02T07:46:19.025Z</time></trkpt><trkpt lat="43.5522059" lon="12.4844617"><ele>723.0</ele><time>2026-05-02T07:46:20.035Z</time></trkpt><trkpt lat="43.5522312" lon="12.4845942"><ele>727.5999999999999</ele><time>2026-05-02T07:46:21.021Z</time></trkpt><trkpt lat="43.552247" lon="12.4847284"><ele>732.1999999999999</ele><time>2026-05-02T07:46:22.02Z</time></trkpt><trkpt lat="43.5522329" lon="12.484868"><ele>736.8</ele><time>2026-05-02T07:46:23.027Z</time></trkpt><trkpt lat="43.5521888" lon="12.4849871"><ele>741.4</ele><time>2026-05-02T07:46:24.031Z</time></trkpt><trkpt lat="43.5521235" lon="12.4850887"><ele>746.0</ele><time>2026-05-02T07:46:25.015Z</time></trkpt><trkpt lat="43.5520248" lon="12.4851737"><ele>746.5</ele><time>2026-05-02T07:46:26.022Z</time></trkpt><trkpt lat="43.5519095" lon="12.4852277"><ele>747.0</ele><time>2026-05-02T07:46:27.025Z</time></trkpt><trkpt lat="43.5517685" lon="12.4852969"><ele>747.5</ele><time>2026-05-02T07:46:28.03Z</time></trkpt><trkpt lat="43.551607" lon="12.4853859"><ele>748.0</ele><time>2026-05-02T07:46:29.018Z</time></trkpt><trkpt lat="43.5514336" lon="12.4854865"><ele>748.0</ele><time>2026-05-02T07:46:30.017Z</time></trkpt><trkpt lat="43.5512304" lon="12.4856002"><ele>748.0</ele><time>2026-05-02T07:46:31.027Z</time></trkpt><trkpt lat="43.5510074" lon="12.4857234"><ele>748.5</ele><time>2026-05-02T07:46:32.026Z</time></trkpt><trkpt lat="43.5507565" lon="12.4858592"><ele>749.0</ele><time>2026-05-02T07:46:33.015Z</time></trkpt><trkpt lat="43.5504984" lon="12.4860079"><ele>750.0</ele><time>2026-05-02T07:46:34.014Z</time></trkpt><trkpt lat="43.5502486" lon="12.4861396"><ele>751.0</ele><time>2026-05-02T07:46:35.017Z</time></trkpt><trkpt lat="43.5500209" lon="12.4862631"><ele>753.5</ele><time>2026-05-02T07:46:36.011Z</time></trkpt><trkpt lat="43.5497971" lon="12.4863838"><ele>756.0</ele><time>2026-05-02T07:46:37.01Z</time></trkpt><trkpt lat="43.5495775" lon="12.4865039"><ele>754.5</ele><time>2026-05-02T07:46:38.01Z</time></trkpt><trkpt lat="43.5493448" lon="12.4866288"><ele>753.0</ele><time>2026-05-02T07:46:39.018Z</time></trkpt><trkpt lat="43.5491045" lon="12.4867596"><ele>753.0</ele><time>2026-05-02T07:46:40.018Z</time></trkpt><trkpt lat="43.5488639" lon="12.4868878"><ele>753.0</ele><time>2026-05-02T07:46:41.013Z</time></trkpt><trkpt lat="43.5486317" lon="12.4870103"><ele>754.5</ele><time>2026-05-02T07:46:42.009Z</time></trkpt><trkpt lat="43.5484187" lon="12.487132"><ele>756.0</ele><time>2026-05-02T07:46:43.02Z</time></trkpt><trkpt lat="43.5482035" lon="12.4872505"><ele>756.0</ele><time>2026-05-02T07:46:44.013Z</time></trkpt><trkpt lat="43.5479937" lon="12.4873604"><ele>756.0</ele><time>2026-05-02T07:46:45.014Z</time></trkpt><trkpt lat="43.5477903" lon="12.4874733"><ele>756.0</ele><time>2026-05-02T07:46:46.009Z</time></trkpt><trkpt lat="43.5475872" lon="12.4875958"><ele>756.0</ele><time>2026-05-02T07:46:47.038Z</time></trkpt><trkpt lat="43.5473891" lon="12.4877265"><ele>756.0</ele><time>2026-05-02T07:46:48.016Z</time></trkpt><trkpt lat="43.5472015" lon="12.4878701"><ele>756.0</ele><time>2026-05-02T07:46:49.02Z</time></trkpt><trkpt lat="43.5470192" lon="12.4880213"><ele>756.6666666666666</ele><time>2026-05-02T07:46:50.012Z</time></trkpt><trkpt lat="43.5468433" lon="12.4881757"><ele>757.3333333333333</ele><time>2026-05-02T07:46:51.021Z</time></trkpt><trkpt lat="43.546678" lon="12.4883304"><ele>758.0</ele><time>2026-05-02T07:46:52.012Z</time></trkpt><trkpt lat="43.5465222" lon="12.4884889"><ele>758.0</ele><time>2026-05-02T07:46:53.015Z</time></trkpt><trkpt lat="43.5463752" lon="12.4886405"><ele>758.0</ele><time>2026-05-02T07:46:54.028Z</time></trkpt><trkpt lat="43.5462392" lon="12.4887929"><ele>758.0</ele><time>2026-05-02T07:46:55.023Z</time></trkpt><trkpt lat="43.5460964" lon="12.4889456"><ele>761.0</ele><time>2026-05-02T07:46:56.019Z</time></trkpt><trkpt lat="43.5459464" lon="12.4890879"><ele>764.0</ele><time>2026-05-02T07:46:57.017Z</time></trkpt><trkpt lat="43.5457898" lon="12.4892064"><ele>767.0</ele><time>2026-05-02T07:46:58.014Z</time></trkpt><trkpt lat="43.5456206" lon="12.4893143"><ele>767.0</ele><time>2026-05-02T07:46:59.012Z</time></trkpt><trkpt lat="43.5454445" lon="12.4894163"><ele>767.0</ele><time>2026-05-02T07:47:00.014Z</time></trkpt><trkpt lat="43.545271" lon="12.4895211"><ele>767.0</ele><time>2026-05-02T07:47:01.012Z</time></trkpt><trkpt lat="43.5451088" lon="12.489628"><ele>768.0</ele><time>2026-05-02T07:47:02.014Z</time></trkpt><trkpt lat="43.5449584" lon="12.4897213"><ele>769.0</ele><time>2026-05-02T07:47:03.014Z</time></trkpt><trkpt lat="43.5448103" lon="12.4898152"><ele>770.0</ele><time>2026-05-02T07:47:04.018Z</time></trkpt><trkpt lat="43.5446729" lon="12.4898976"><ele>770.0</ele><time>2026-05-02T07:47:05.018Z</time></trkpt><trkpt lat="43.5445522" lon="12.4899801"><ele>770.0</ele><time>2026-05-02T07:47:06.014Z</time></trkpt><trkpt lat="43.5444359" lon="12.4900645"><ele>770.0</ele><time>2026-05-02T07:47:07.014Z</time></trkpt><trkpt lat="43.5443288" lon="12.4901342"><ele>770.0</ele><time>2026-05-02T07:47:08.011Z</time></trkpt><trkpt lat="43.5442231" lon="12.4901959"><ele>770.0</ele><time>2026-05-02T07:47:09.017Z</time></trkpt><trkpt lat="43.5441241" lon="12.490268"><ele>770.0</ele><time>2026-05-02T07:47:10.022Z</time></trkpt><trkpt lat="43.5440255" lon="12.4903629"><ele>770.0</ele><time>2026-05-02T07:47:11.01Z</time></trkpt><trkpt lat="43.5439219" lon="12.4904663"><ele>770.0</ele><time>2026-05-02T07:47:12.012Z</time></trkpt><trkpt lat="43.5438206" lon="12.4905872"><ele>771.0</ele><time>2026-05-02T07:47:13.027Z</time></trkpt><trkpt lat="43.5437164" lon="12.4907139"><ele>772.0</ele><time>2026-05-02T07:47:14.021Z</time></trkpt><trkpt lat="43.5436227" lon="12.4908461"><ele>773.0</ele><time>2026-05-02T07:47:15.015Z</time></trkpt><trkpt lat="43.5435265" lon="12.4910191"><ele>774.0</ele><time>2026-05-02T07:47:16.007Z</time></trkpt><trkpt lat="43.5434331" lon="12.4912275"><ele>768.3333333333334</ele><time>2026-05-02T07:47:17.024Z</time></trkpt><trkpt lat="43.543358" lon="12.4914754"><ele>762.6666666666667</ele><time>2026-05-02T07:47:18.022Z</time></trkpt><trkpt lat="43.5432834" lon="12.4917262"><ele>757.0</ele><time>2026-05-02T07:47:19.015Z</time></trkpt><trkpt lat="43.5432061" lon="12.4919722"><ele>761.0</ele><time>2026-05-02T07:47:20.028Z</time></trkpt><trkpt lat="43.5431301" lon="12.4921971"><ele>765.0</ele><time>2026-05-02T07:47:21.015Z</time></trkpt><trkpt lat="43.5430627" lon="12.4924135"><ele>769.0</ele><time>2026-05-02T07:47:22.023Z</time></trkpt><trkpt lat="43.5429992" lon="12.4926193"><ele>769.0</ele><time>2026-05-02T07:47:23.016Z</time></trkpt><trkpt lat="43.5429396" lon="12.4928093"><ele>769.0</ele><time>2026-05-02T07:47:24.006Z</time></trkpt><trkpt lat="43.5428947" lon="12.4929728"><ele>769.0</ele><time>2026-05-02T07:47:25.013Z</time></trkpt><trkpt lat="43.5428569" lon="12.49314"><ele>769.0</ele><time>2026-05-02T07:47:26.043Z</time></trkpt><trkpt lat="43.5428514" lon="12.4933061"><ele>769.0</ele><time>2026-05-02T07:47:27.017Z</time></trkpt><trkpt lat="43.5428746" lon="12.4934741"><ele>769.0</ele><time>2026-05-02T07:47:28.038Z</time></trkpt><trkpt lat="43.5429271" lon="12.4936599"><ele>769.0</ele><time>2026-05-02T07:47:29.018Z</time></trkpt><trkpt lat="43.5429671" lon="12.493872"><ele>769.0</ele><time>2026-05-02T07:47:30.016Z</time></trkpt><trkpt lat="43.5429822" lon="12.4940843"><ele>769.0</ele><time>2026-05-02T07:47:31.015Z</time></trkpt><trkpt lat="43.5429697" lon="12.4943177"><ele>769.0</ele><time>2026-05-02T07:47:32.011Z</time></trkpt><trkpt lat="43.5429439" lon="12.4945415"><ele>769.0</ele><time>2026-05-02T07:47:33.009Z</time></trkpt><trkpt lat="43.5429075" lon="12.4947535"><ele>759.3333333333333</ele><time>2026-05-02T07:47:34.006Z</time></trkpt><trkpt lat="43.5428756" lon="12.4949622"><ele>749.6666666666666</ele><time>2026-05-02T07:47:35.016Z</time></trkpt><trkpt lat="43.5428427" lon="12.4951884"><ele>740.0</ele><time>2026-05-02T07:47:36.044Z</time></trkpt><trkpt lat="43.5428039" lon="12.4954144"><ele>742.75</ele><time>2026-05-02T07:47:37.01Z</time></trkpt><trkpt lat="43.5427682" lon="12.4956122"><ele>745.5</ele><time>2026-05-02T07:47:38.011Z</time></trkpt><trkpt lat="43.5427195" lon="12.4957874"><ele>748.25</ele><time>2026-05-02T07:47:39.007Z</time></trkpt><trkpt lat="43.5426453" lon="12.4959467"><ele>751.0</ele><time>2026-05-02T07:47:40.027Z</time></trkpt><trkpt lat="43.5425507" lon="12.4960641"><ele>751.0</ele><time>2026-05-02T07:47:41.019Z</time></trkpt><trkpt lat="43.5424471" lon="12.4961561"><ele>751.0</ele><time>2026-05-02T07:47:42.012Z</time></trkpt><trkpt lat="43.5423564" lon="12.4962302"><ele>751.0</ele><time>2026-05-02T07:47:43.015Z</time></trkpt><trkpt lat="43.5422836" lon="12.4963091"><ele>751.0</ele><time>2026-05-02T07:47:44.015Z</time></trkpt><trkpt lat="43.5422217" lon="12.4963814"><ele>751.0</ele><time>2026-05-02T07:47:45.021Z</time></trkpt><trkpt lat="43.5421563" lon="12.4964483"><ele>750.75</ele><time>2026-05-02T07:47:46.03Z</time></trkpt><trkpt lat="43.5420758" lon="12.4965338"><ele>750.5</ele><time>2026-05-02T07:47:47.012Z</time></trkpt><trkpt lat="43.5419576" lon="12.4966436"><ele>750.25</ele><time>2026-05-02T07:47:48.017Z</time></trkpt><trkpt lat="43.541818" lon="12.4967688"><ele>750.0</ele><time>2026-05-02T07:47:49.032Z</time></trkpt><trkpt lat="43.5416702" lon="12.4968961"><ele>750.0</ele><time>2026-05-02T07:47:50.018Z</time></trkpt><trkpt lat="43.5415311" lon="12.4970082"><ele>750.0</ele><time>2026-05-02T07:47:51.031Z</time></trkpt><trkpt lat="43.5414012" lon="12.4970982"><ele>750.0</ele><time>2026-05-02T07:47:52.013Z</time></trkpt><trkpt lat="43.5412846" lon="12.4971823"><ele>750.0</ele><time>2026-05-02T07:47:53.033Z</time></trkpt><trkpt lat="43.541166" lon="12.4972658"><ele>748.0</ele><time>2026-05-02T07:47:54.027Z</time></trkpt><trkpt lat="43.5410671" lon="12.4973611"><ele>746.0</ele><time>2026-05-02T07:47:55.049Z</time></trkpt><trkpt lat="43.5409909" lon="12.4974843"><ele>744.0</ele><time>2026-05-02T07:47:56.022Z</time></trkpt><trkpt lat="43.5409391" lon="12.4976466"><ele>742.0</ele><time>2026-05-02T07:47:57.021Z</time></trkpt><trkpt lat="43.5409053" lon="12.4978335"><ele>742.6666666666667</ele><time>2026-05-02T07:47:58.013Z</time></trkpt><trkpt lat="43.5408902" lon="12.4980521"><ele>743.3333333333334</ele><time>2026-05-02T07:47:59.015Z</time></trkpt><trkpt lat="43.5408743" lon="12.498284"><ele>744.0</ele><time>2026-05-02T07:48:00.019Z</time></trkpt><trkpt lat="43.5408497" lon="12.4985164"><ele>744.0</ele><time>2026-05-02T07:48:01.013Z</time></trkpt><trkpt lat="43.5408231" lon="12.4987246"><ele>744.0</ele><time>2026-05-02T07:48:02.021Z</time></trkpt><trkpt lat="43.540794" lon="12.4989321"><ele>744.0</ele><time>2026-05-02T07:48:03.009Z</time></trkpt><trkpt lat="43.5407717" lon="12.499129"><ele>743.75</ele><time>2026-05-02T07:48:04.018Z</time></trkpt><trkpt lat="43.5407526" lon="12.4993211"><ele>743.5</ele><time>2026-05-02T07:48:05.002Z</time></trkpt><trkpt lat="43.5407148" lon="12.4995192"><ele>743.25</ele><time>2026-05-02T07:48:06.02Z</time></trkpt><trkpt lat="43.540657" lon="12.4997112"><ele>743.0</ele><time>2026-05-02T07:48:07.012Z</time></trkpt><trkpt lat="43.5405737" lon="12.499902"><ele>745.3333333333333</ele><time>2026-05-02T07:48:08.013Z</time></trkpt><trkpt lat="43.5404835" lon="12.5000845"><ele>747.6666666666666</ele><time>2026-05-02T07:48:09.022Z</time></trkpt><trkpt lat="43.5403858" lon="12.5002814"><ele>750.0</ele><time>2026-05-02T07:48:10.023Z</time></trkpt><trkpt lat="43.5402783" lon="12.5004976"><ele>740.0</ele><time>2026-05-02T07:48:11.011Z</time></trkpt><trkpt lat="43.5401679" lon="12.5007338"><ele>730.0</ele><time>2026-05-02T07:48:12.008Z</time></trkpt><trkpt lat="43.5400528" lon="12.5009562"><ele>720.0</ele><time>2026-05-02T07:48:13.018Z</time></trkpt><trkpt lat="43.5399464" lon="12.5011778"><ele>724.0</ele><time>2026-05-02T07:48:14.015Z</time></trkpt><trkpt lat="43.5398467" lon="12.5013856"><ele>728.0</ele><time>2026-05-02T07:48:15.014Z</time></trkpt><trkpt lat="43.5397565" lon="12.5015864"><ele>732.0</ele><time>2026-05-02T07:48:16.014Z</time></trkpt><trkpt lat="43.5396661" lon="12.5018051"><ele>732.0</ele><time>2026-05-02T07:48:17.018Z</time></trkpt><trkpt lat="43.5395822" lon="12.5020466"><ele>732.0</ele><time>2026-05-02T07:48:18.016Z</time></trkpt><trkpt lat="43.539503" lon="12.5022775"><ele>732.0</ele><time>2026-05-02T07:48:19.012Z</time></trkpt><trkpt lat="43.5394304" lon="12.502491"><ele>726.5</ele><time>2026-05-02T07:48:20.016Z</time></trkpt><trkpt lat="43.5393609" lon="12.5026776"><ele>721.0</ele><time>2026-05-02T07:48:21.012Z</time></trkpt><trkpt lat="43.539305" lon="12.502841"><ele>715.5</ele><time>2026-05-02T07:48:22.015Z</time></trkpt><trkpt lat="43.539261" lon="12.5029983"><ele>710.0</ele><time>2026-05-02T07:48:23.02Z</time></trkpt><trkpt lat="43.5392322" lon="12.5031432"><ele>710.0</ele><time>2026-05-02T07:48:24.013Z</time></trkpt><trkpt lat="43.5392248" lon="12.5032841"><ele>710.0</ele><time>2026-05-02T07:48:25.024Z</time></trkpt><trkpt lat="43.5392453" lon="12.5034282"><ele>710.0</ele><time>2026-05-02T07:48:26.011Z</time></trkpt><trkpt lat="43.5392708" lon="12.5035629"><ele>710.0</ele><time>2026-05-02T07:48:27.019Z</time></trkpt><trkpt lat="43.5392908" lon="12.5036862"><ele>710.0</ele><time>2026-05-02T07:48:28.031Z</time></trkpt><trkpt lat="43.5392828" lon="12.503792"><ele>710.0</ele><time>2026-05-02T07:48:29.018Z</time></trkpt><trkpt lat="43.5392465" lon="12.5038805"><ele>710.0</ele><time>2026-05-02T07:48:30.016Z</time></trkpt><trkpt lat="43.5391815" lon="12.5039293"><ele>710.0</ele><time>2026-05-02T07:48:31.026Z</time></trkpt><trkpt lat="43.5391072" lon="12.5039452"><ele>710.0</ele><time>2026-05-02T07:48:32.02Z</time></trkpt><trkpt lat="43.5390318" lon="12.5039191"><ele>710.0</ele><time>2026-05-02T07:48:33.018Z</time></trkpt><trkpt lat="43.5389735" lon="12.5038471"><ele>710.0</ele><time>2026-05-02T07:48:34.027Z</time></trkpt><trkpt lat="43.5389351" lon="12.503745"><ele>710.0</ele><time>2026-05-02T07:48:35.023Z</time></trkpt><trkpt lat="43.5389161" lon="12.5036315"><ele>710.0</ele><time>2026-05-02T07:48:36.017Z</time></trkpt><trkpt lat="43.538891" lon="12.5034886"><ele>710.0</ele><time>2026-05-02T07:48:37.03Z</time></trkpt><trkpt lat="43.5388601" lon="12.503327"><ele>710.0</ele><time>2026-05-02T07:48:38.011Z</time></trkpt><trkpt lat="43.5388304" lon="12.5031729"><ele>710.0</ele><time>2026-05-02T07:48:39.025Z</time></trkpt><trkpt lat="43.5388061" lon="12.5030361"><ele>709.3333333333333</ele><time>2026-05-02T07:48:40.01Z</time></trkpt><trkpt lat="43.5387817" lon="12.5029114"><ele>708.6666666666666</ele><time>2026-05-02T07:48:41.012Z</time></trkpt><trkpt lat="43.5387425" lon="12.5028023"><ele>708.0</ele><time>2026-05-02T07:48:42.018Z</time></trkpt><trkpt lat="43.5386896" lon="12.5027205"><ele>707.3333333333334</ele><time>2026-05-02T07:48:43.031Z</time></trkpt><trkpt lat="43.5386177" lon="12.502668"><ele>706.6666666666667</ele><time>2026-05-02T07:48:44.016Z</time></trkpt><trkpt lat="43.5385371" lon="12.5026612"><ele>706.0</ele><time>2026-05-02T07:48:45.027Z</time></trkpt><trkpt lat="43.5384585" lon="12.5026992"><ele>701.4</ele><time>2026-05-02T07:48:46.016Z</time></trkpt><trkpt lat="43.538396" lon="12.5027851"><ele>696.8</ele><time>2026-05-02T07:48:47.02Z</time></trkpt><trkpt lat="43.5383827" lon="12.5028975"><ele>692.1999999999999</ele><time>2026-05-02T07:48:48.023Z</time></trkpt><trkpt lat="43.5383807" lon="12.5030291"><ele>687.5999999999999</ele><time>2026-05-02T07:48:49.022Z</time></trkpt><trkpt lat="43.5384094" lon="12.5031612"><ele>683.0</ele><time>2026-05-02T07:48:50.024Z</time></trkpt><trkpt lat="43.5384439" lon="12.5032932"><ele>683.0</ele><time>2026-05-02T07:48:51.012Z</time></trkpt><trkpt lat="43.5384831" lon="12.5034177"><ele>683.0</ele><time>2026-05-02T07:48:52.02Z</time></trkpt><trkpt lat="43.5385362" lon="12.5035275"><ele>683.0</ele><time>2026-05-02T07:48:53.025Z</time></trkpt><trkpt lat="43.5385964" lon="12.5036281"><ele>683.0</ele><time>2026-05-02T07:48:54.027Z</time></trkpt><trkpt lat="43.5386604" lon="12.5037282"><ele>683.0</ele><time>2026-05-02T07:48:55.025Z</time></trkpt><trkpt lat="43.5387053" lon="12.5038219"><ele>682.8333333333333</ele><time>2026-05-02T07:48:56.022Z</time></trkpt><trkpt lat="43.5387088" lon="12.5039354"><ele>682.6666666666666</ele><time>2026-05-02T07:48:57.019Z</time></trkpt><trkpt lat="43.5386789" lon="12.5040355"><ele>682.5</ele><time>2026-05-02T07:48:58.024Z</time></trkpt><trkpt lat="43.5386088" lon="12.5040964"><ele>682.3333333333334</ele><time>2026-05-02T07:48:59.021Z</time></trkpt><trkpt lat="43.5385291" lon="12.5040998"><ele>682.1666666666667</ele><time>2026-05-02T07:49:00.01Z</time></trkpt><trkpt lat="43.5384573" lon="12.5040672"><ele>682.0</ele><time>2026-05-02T07:49:01.031Z</time></trkpt><trkpt lat="43.5383879" lon="12.5039962"><ele>682.0</ele><time>2026-05-02T07:49:02.028Z</time></trkpt><trkpt lat="43.5383322" lon="12.5038926"><ele>682.0</ele><time>2026-05-02T07:49:03.014Z</time></trkpt><trkpt lat="43.5382878" lon="12.5037502"><ele>682.0</ele><time>2026-05-02T07:49:04.02Z</time></trkpt><trkpt lat="43.5382396" lon="12.5035939"><ele>682.0</ele><time>2026-05-02T07:49:05.022Z</time></trkpt><trkpt lat="43.538182" lon="12.5034324"><ele>682.25</ele><time>2026-05-02T07:49:06.009Z</time></trkpt><trkpt lat="43.5381284" lon="12.5032845"><ele>682.5</ele><time>2026-05-02T07:49:07.012Z</time></trkpt><trkpt lat="43.5380893" lon="12.5031315"><ele>682.75</ele><time>2026-05-02T07:49:08.022Z</time></trkpt><trkpt lat="43.5380836" lon="12.5029779"><ele>683.0</ele><time>2026-05-02T07:49:09.021Z</time></trkpt><trkpt lat="43.5381007" lon="12.5028203"><ele>681.75</ele><time>2026-05-02T07:49:10.007Z</time></trkpt><trkpt lat="43.5381564" lon="12.5026572"><ele>680.5</ele><time>2026-05-02T07:49:11.017Z</time></trkpt><trkpt lat="43.5382235" lon="12.5024967"><ele>679.25</ele><time>2026-05-02T07:49:12.017Z</time></trkpt><trkpt lat="43.5382939" lon="12.5023074"><ele>678.0</ele><time>2026-05-02T07:49:13.014Z</time></trkpt><trkpt lat="43.5383801" lon="12.5020992"><ele>674.3333333333334</ele><time>2026-05-02T07:49:14.019Z</time></trkpt><trkpt lat="43.5384664" lon="12.5018879"><ele>670.6666666666667</ele><time>2026-05-02T07:49:15.013Z</time></trkpt><trkpt lat="43.5385521" lon="12.5016782"><ele>667.0</ele><time>2026-05-02T07:49:16.014Z</time></trkpt><trkpt lat="43.5386347" lon="12.5014741"><ele>667.0</ele><time>2026-05-02T07:49:17.017Z</time></trkpt><trkpt lat="43.538714" lon="12.5012741"><ele>667.0</ele><time>2026-05-02T07:49:18.016Z</time></trkpt><trkpt lat="43.5387902" lon="12.5010906"><ele>667.0</ele><time>2026-05-02T07:49:19.023Z</time></trkpt><trkpt lat="43.5388459" lon="12.5009064"><ele>669.0</ele><time>2026-05-02T07:49:20.012Z</time></trkpt><trkpt lat="43.5388754" lon="12.5007155"><ele>671.0</ele><time>2026-05-02T07:49:21.012Z</time></trkpt><trkpt lat="43.5388901" lon="12.5005212"><ele>673.0</ele><time>2026-05-02T07:49:22.014Z</time></trkpt><trkpt lat="43.5388967" lon="12.5003249"><ele>675.0</ele><time>2026-05-02T07:49:23.019Z</time></trkpt><trkpt lat="43.5389079" lon="12.5001291"><ele>675.0</ele><time>2026-05-02T07:49:24.013Z</time></trkpt><trkpt lat="43.5389276" lon="12.4999402"><ele>675.0</ele><time>2026-05-02T07:49:25.018Z</time></trkpt><trkpt lat="43.5389629" lon="12.4997653"><ele>675.0</ele><time>2026-05-02T07:49:26.022Z</time></trkpt><trkpt lat="43.5390056" lon="12.4995995"><ele>675.0</ele><time>2026-05-02T07:49:27.018Z</time></trkpt><trkpt lat="43.5390525" lon="12.4994479"><ele>673.4</ele><time>2026-05-02T07:49:28.018Z</time></trkpt><trkpt lat="43.5391124" lon="12.4993071"><ele>671.8</ele><time>2026-05-02T07:49:29.026Z</time></trkpt><trkpt lat="43.5391563" lon="12.4991818"><ele>670.2</ele><time>2026-05-02T07:49:30.023Z</time></trkpt><trkpt lat="43.5391754" lon="12.4990762"><ele>668.6</ele><time>2026-05-02T07:49:31.021Z</time></trkpt><trkpt lat="43.5391653" lon="12.4989617"><ele>667.0</ele><time>2026-05-02T07:49:32.014Z</time></trkpt><trkpt lat="43.5391302" lon="12.4988631"><ele>667.0</ele><time>2026-05-02T07:49:33.018Z</time></trkpt><trkpt lat="43.5390647" lon="12.4988002"><ele>667.0</ele><time>2026-05-02T07:49:34.025Z</time></trkpt><trkpt lat="43.5389881" lon="12.4987892"><ele>667.0</ele><time>2026-05-02T07:49:35.011Z</time></trkpt><trkpt lat="43.538907" lon="12.498824"><ele>667.0</ele><time>2026-05-02T07:49:36.013Z</time></trkpt><trkpt lat="43.5388409" lon="12.4988953"><ele>667.0</ele><time>2026-05-02T07:49:37.009Z</time></trkpt><trkpt lat="43.5387902" lon="12.4990301"><ele>667.0</ele><time>2026-05-02T07:49:38.007Z</time></trkpt><trkpt lat="43.5387345" lon="12.4991875"><ele>659.6666666666667</ele><time>2026-05-02T07:49:39.03Z</time></trkpt><trkpt lat="43.5386653" lon="12.4993767"><ele>652.3333333333334</ele><time>2026-05-02T07:49:40.031Z</time></trkpt><trkpt lat="43.538577" lon="12.4995961"><ele>645.0</ele><time>2026-05-02T07:49:41.014Z</time></trkpt><trkpt lat="43.5384746" lon="12.499835"><ele>645.0</ele><time>2026-05-02T07:49:42.021Z</time></trkpt><trkpt lat="43.5383649" lon="12.5000844"><ele>645.0</ele><time>2026-05-02T07:49:43.032Z</time></trkpt><trkpt lat="43.5382537" lon="12.5003551"><ele>645.0</ele><time>2026-05-02T07:49:44.042Z</time></trkpt><trkpt lat="43.5381395" lon="12.5006327"><ele>647.0</ele><time>2026-05-02T07:49:45.024Z</time></trkpt><trkpt lat="43.5380269" lon="12.5008891"><ele>649.0</ele><time>2026-05-02T07:49:46.016Z</time></trkpt><trkpt lat="43.5379199" lon="12.5011235"><ele>651.0</ele><time>2026-05-02T07:49:47.016Z</time></trkpt><trkpt lat="43.5378168" lon="12.5013498"><ele>644.0</ele><time>2026-05-02T07:49:48.012Z</time></trkpt><trkpt lat="43.5377194" lon="12.5015784"><ele>637.0</ele><time>2026-05-02T07:49:49.021Z</time></trkpt><trkpt lat="43.5376245" lon="12.5017968"><ele>630.0</ele><time>2026-05-02T07:49:50.035Z</time></trkpt><trkpt lat="43.5375319" lon="12.5020057"><ele>633.3333333333334</ele><time>2026-05-02T07:49:51.028Z</time></trkpt><trkpt lat="43.5374421" lon="12.5022096"><ele>636.6666666666667</ele><time>2026-05-02T07:49:52.01Z</time></trkpt><trkpt lat="43.5373583" lon="12.5024113"><ele>640.0</ele><time>2026-05-02T07:49:53.016Z</time></trkpt><trkpt lat="43.537289" lon="12.5026084"><ele>640.0</ele><time>2026-05-02T07:49:54.035Z</time></trkpt><trkpt lat="43.5372318" lon="12.5028034"><ele>640.0</ele><time>2026-05-02T07:49:55.027Z</time></trkpt><trkpt lat="43.5371949" lon="12.5029838"><ele>640.0</ele><time>2026-05-02T07:49:56.014Z</time></trkpt><trkpt lat="43.5371667" lon="12.5031411"><ele>640.0</ele><time>2026-05-02T07:49:57.024Z</time></trkpt><trkpt lat="43.5371382" lon="12.5032928"><ele>642.25</ele><time>2026-05-02T07:49:58.016Z</time></trkpt><trkpt lat="43.5370904" lon="12.5034252"><ele>644.5</ele><time>2026-05-02T07:49:59.028Z</time></trkpt><trkpt lat="43.5370241" lon="12.5035488"><ele>646.75</ele><time>2026-05-02T07:50:00.013Z</time></trkpt><trkpt lat="43.5369241" lon="12.5036584"><ele>649.0</ele><time>2026-05-02T07:50:01.022Z</time></trkpt><trkpt lat="43.5368179" lon="12.5037497"><ele>641.5</ele><time>2026-05-02T07:50:02.012Z</time></trkpt><trkpt lat="43.5367117" lon="12.5038351"><ele>634.0</ele><time>2026-05-02T07:50:03.034Z</time></trkpt><trkpt lat="43.5366142" lon="12.503928"><ele>626.5</ele><time>2026-05-02T07:50:04.023Z</time></trkpt><trkpt lat="43.536505" lon="12.5040585"><ele>619.0</ele><time>2026-05-02T07:50:05.012Z</time></trkpt><trkpt lat="43.5363957" lon="12.5042216"><ele>619.0</ele><time>2026-05-02T07:50:06.023Z</time></trkpt><trkpt lat="43.5363014" lon="12.5044029"><ele>619.0</ele><time>2026-05-02T07:50:07.012Z</time></trkpt><trkpt lat="43.5362275" lon="12.5045648"><ele>619.0</ele><time>2026-05-02T07:50:08.027Z</time></trkpt><trkpt lat="43.5361528" lon="12.5047237"><ele>619.0</ele><time>2026-05-02T07:50:09.025Z</time></trkpt><trkpt lat="43.5360792" lon="12.5048633"><ele>613.0</ele><time>2026-05-02T07:50:10.019Z</time></trkpt><trkpt lat="43.5360181" lon="12.5050005"><ele>607.0</ele><time>2026-05-02T07:50:11.023Z</time></trkpt><trkpt lat="43.5359919" lon="12.5051469"><ele>601.0</ele><time>2026-05-02T07:50:12.029Z</time></trkpt><trkpt lat="43.5359923" lon="12.5052927"><ele>595.0</ele><time>2026-05-02T07:50:13.02Z</time></trkpt><trkpt lat="43.5360079" lon="12.5054615"><ele>595.0</ele><time>2026-05-02T07:50:14.021Z</time></trkpt><trkpt lat="43.5360362" lon="12.5056363"><ele>595.0</ele><time>2026-05-02T07:50:15.026Z</time></trkpt><trkpt lat="43.5360512" lon="12.5058058"><ele>595.0</ele><time>2026-05-02T07:50:16.014Z</time></trkpt><trkpt lat="43.5360384" lon="12.5059833"><ele>595.0</ele><time>2026-05-02T07:50:17.023Z</time></trkpt><trkpt lat="43.536011" lon="12.5061311"><ele>596.3333333333334</ele><time>2026-05-02T07:50:18.012Z</time></trkpt><trkpt lat="43.5359704" lon="12.5062546"><ele>597.6666666666667</ele><time>2026-05-02T07:50:19.025Z</time></trkpt><trkpt lat="43.5359221" lon="12.5063522"><ele>599.0</ele><time>2026-05-02T07:50:20.018Z</time></trkpt><trkpt lat="43.5358491" lon="12.5064185"><ele>600.3333333333334</ele><time>2026-05-02T07:50:21.023Z</time></trkpt><trkpt lat="43.5357772" lon="12.5064233"><ele>601.6666666666666</ele><time>2026-05-02T07:50:22.024Z</time></trkpt><trkpt lat="43.5357023" lon="12.5063696"><ele>603.0</ele><time>2026-05-02T07:50:23.012Z</time></trkpt><trkpt lat="43.5356549" lon="12.5062944"><ele>601.4</ele><time>2026-05-02T07:50:24.03Z</time></trkpt><trkpt lat="43.5356509" lon="12.5061895"><ele>599.8</ele><time>2026-05-02T07:50:25.042Z</time></trkpt><trkpt lat="43.5356797" lon="12.5060676"><ele>598.2</ele><time>2026-05-02T07:50:26.032Z</time></trkpt><trkpt lat="43.5357278" lon="12.5059267"><ele>596.6</ele><time>2026-05-02T07:50:27.024Z</time></trkpt><trkpt lat="43.5357757" lon="12.5057754"><ele>595.0</ele><time>2026-05-02T07:50:28.017Z</time></trkpt><trkpt lat="43.5358053" lon="12.5056232"><ele>595.0</ele><time>2026-05-02T07:50:29.011Z</time></trkpt><trkpt lat="43.5358129" lon="12.5054501"><ele>595.0</ele><time>2026-05-02T07:50:30.029Z</time></trkpt><trkpt lat="43.5357944" lon="12.5052383"><ele>595.0</ele><time>2026-05-02T07:50:31.01Z</time></trkpt><trkpt lat="43.5357776" lon="12.5050242"><ele>595.0</ele><time>2026-05-02T07:50:32.014Z</time></trkpt><trkpt lat="43.5357786" lon="12.5048198"><ele>594.25</ele><time>2026-05-02T07:50:33.01Z</time></trkpt><trkpt lat="43.5358047" lon="12.5046212"><ele>593.5</ele><time>2026-05-02T07:50:34.02Z</time></trkpt><trkpt lat="43.5358483" lon="12.504435"><ele>592.75</ele><time>2026-05-02T07:50:35.021Z</time></trkpt><trkpt lat="43.5358948" lon="12.5042691"><ele>592.0</ele><time>2026-05-02T07:50:36.014Z</time></trkpt><trkpt lat="43.535943" lon="12.5041071"><ele>590.6</ele><time>2026-05-02T07:50:37.015Z</time></trkpt><trkpt lat="43.5359903" lon="12.5039657"><ele>589.2</ele><time>2026-05-02T07:50:38.009Z</time></trkpt><trkpt lat="43.5360271" lon="12.5038359"><ele>587.8</ele><time>2026-05-02T07:50:39.027Z</time></trkpt><trkpt lat="43.5360465" lon="12.5037153"><ele>586.4</ele><time>2026-05-02T07:50:40.018Z</time></trkpt><trkpt lat="43.5360301" lon="12.5036061"><ele>585.0</ele><time>2026-05-02T07:50:41.02Z</time></trkpt><trkpt lat="43.5359785" lon="12.5035255"><ele>585.0</ele><time>2026-05-02T07:50:42.016Z</time></trkpt><trkpt lat="43.535903" lon="12.5034805"><ele>585.0</ele><time>2026-05-02T07:50:43.017Z</time></trkpt><trkpt lat="43.5358146" lon="12.5034826"><ele>585.0</ele><time>2026-05-02T07:50:44.019Z</time></trkpt><trkpt lat="43.5357414" lon="12.5035269"><ele>585.0</ele><time>2026-05-02T07:50:45.031Z</time></trkpt><trkpt lat="43.5356868" lon="12.5036062"><ele>585.0</ele><time>2026-05-02T07:50:46.021Z</time></trkpt><trkpt lat="43.5356495" lon="12.5037136"><ele>585.0</ele><time>2026-05-02T07:50:47.031Z</time></trkpt><trkpt lat="43.5356243" lon="12.5038534"><ele>585.0</ele><time>2026-05-02T07:50:48.028Z</time></trkpt><trkpt lat="43.5355978" lon="12.5040169"><ele>585.0</ele><time>2026-05-02T07:50:49.013Z</time></trkpt><trkpt lat="43.5355571" lon="12.5041891"><ele>585.0</ele><time>2026-05-02T07:50:50.022Z</time></trkpt><trkpt lat="43.5355173" lon="12.5043625"><ele>585.0</ele><time>2026-05-02T07:50:51.023Z</time></trkpt><trkpt lat="43.5354897" lon="12.5045461"><ele>586.75</ele><time>2026-05-02T07:50:52.028Z</time></trkpt><trkpt lat="43.5354671" lon="12.5047591"><ele>588.5</ele><time>2026-05-02T07:50:53.022Z</time></trkpt><trkpt lat="43.5354554" lon="12.504967"><ele>590.25</ele><time>2026-05-02T07:50:54.024Z</time></trkpt><trkpt lat="43.5354534" lon="12.5051596"><ele>592.0</ele><time>2026-05-02T07:50:55.021Z</time></trkpt><trkpt lat="43.5354521" lon="12.5053471"><ele>592.75</ele><time>2026-05-02T07:50:56.018Z</time></trkpt><trkpt lat="43.5354373" lon="12.5055294"><ele>593.5</ele><time>2026-05-02T07:50:57.016Z</time></trkpt><trkpt lat="43.5354073" lon="12.5057058"><ele>594.25</ele><time>2026-05-02T07:50:58.018Z</time></trkpt><trkpt lat="43.5353628" lon="12.5058951"><ele>595.0</ele><time>2026-05-02T07:50:59.012Z</time></trkpt><trkpt lat="43.535315" lon="12.5060837"><ele>586.25</ele><time>2026-05-02T07:51:00.017Z</time></trkpt><trkpt lat="43.535269" lon="12.5062645"><ele>577.5</ele><time>2026-05-02T07:51:01.022Z</time></trkpt><trkpt lat="43.5352128" lon="12.506428"><ele>568.75</ele><time>2026-05-02T07:51:02.036Z</time></trkpt><trkpt lat="43.5351395" lon="12.5065781"><ele>560.0</ele><time>2026-05-02T07:51:03.018Z</time></trkpt><trkpt lat="43.5350622" lon="12.5066997"><ele>560.0</ele><time>2026-05-02T07:51:04.013Z</time></trkpt><trkpt lat="43.5349892" lon="12.506817"><ele>560.0</ele><time>2026-05-02T07:51:05.024Z</time></trkpt><trkpt lat="43.5349303" lon="12.5069472"><ele>560.0</ele><time>2026-05-02T07:51:06.034Z</time></trkpt><trkpt lat="43.5348996" lon="12.5070838"><ele>560.0</ele><time>2026-05-02T07:51:07.032Z</time></trkpt><trkpt lat="43.5349025" lon="12.5072299"><ele>560.0</ele><time>2026-05-02T07:51:08.006Z</time></trkpt><trkpt lat="43.534922" lon="12.507387"><ele>560.4</ele><time>2026-05-02T07:51:09.029Z</time></trkpt><trkpt lat="43.5349425" lon="12.5075528"><ele>560.8</ele><time>2026-05-02T07:51:10.031Z</time></trkpt><trkpt lat="43.5349415" lon="12.5077078"><ele>561.2</ele><time>2026-05-02T07:51:11.011Z</time></trkpt><trkpt lat="43.5349183" lon="12.5078456"><ele>561.6</ele><time>2026-05-02T07:51:12.011Z</time></trkpt><trkpt lat="43.5348832" lon="12.5079723"><ele>562.0</ele><time>2026-05-02T07:51:13.023Z</time></trkpt><trkpt lat="43.5348328" lon="12.5080647"><ele>562.6666666666667</ele><time>2026-05-02T07:51:14.019Z</time></trkpt><trkpt lat="43.5347722" lon="12.5081267"><ele>563.3333333333334</ele><time>2026-05-02T07:51:15.009Z</time></trkpt><trkpt lat="43.5346953" lon="12.5081407"><ele>564.0</ele><time>2026-05-02T07:51:16.028Z</time></trkpt><trkpt lat="43.5346233" lon="12.5081134"><ele>564.6666666666666</ele><time>2026-05-02T07:51:17.02Z</time></trkpt><trkpt lat="43.5345811" lon="12.5080383"><ele>565.3333333333333</ele><time>2026-05-02T07:51:18.024Z</time></trkpt><trkpt lat="43.5345474" lon="12.5079304"><ele>566.0</ele><time>2026-05-02T07:51:19.015Z</time></trkpt><trkpt lat="43.5345152" lon="12.5078014"><ele>565.3333333333333</ele><time>2026-05-02T07:51:20.01Z</time></trkpt><trkpt lat="43.5345158" lon="12.5076728"><ele>564.6666666666666</ele><time>2026-05-02T07:51:21.029Z</time></trkpt><trkpt lat="43.5345365" lon="12.5075434"><ele>564.0</ele><time>2026-05-02T07:51:22.013Z</time></trkpt><trkpt lat="43.5345636" lon="12.507442"><ele>563.3333333333334</ele><time>2026-05-02T07:51:23.013Z</time></trkpt><trkpt lat="43.5346176" lon="12.5073491"><ele>562.6666666666667</ele><time>2026-05-02T07:51:24.013Z</time></trkpt><trkpt lat="43.5346685" lon="12.507271"><ele>562.0</ele><time>2026-05-02T07:51:25.012Z</time></trkpt><trkpt lat="43.5347068" lon="12.5071883"><ele>562.0</ele><time>2026-05-02T07:51:26.006Z</time></trkpt><trkpt lat="43.5347007" lon="12.5070943"><ele>562.0</ele><time>2026-05-02T07:51:27.032Z</time></trkpt><trkpt lat="43.5346621" lon="12.5070022"><ele>562.0</ele><time>2026-05-02T07:51:28.008Z</time></trkpt><trkpt lat="43.534611" lon="12.5069457"><ele>562.0</ele><time>2026-05-02T07:51:29.02Z</time></trkpt><trkpt lat="43.5345507" lon="12.5069176"><ele>562.0</ele><time>2026-05-02T07:51:30.012Z</time></trkpt><trkpt lat="43.534436" lon="12.5069588"><ele>562.0</ele><time>2026-05-02T07:51:32.021Z</time></trkpt><trkpt lat="43.5343792" lon="12.5070308"><ele>555.5</ele><time>2026-05-02T07:51:33.025Z</time></trkpt><trkpt lat="43.5343376" lon="12.5071755"><ele>549.0</ele><time>2026-05-02T07:51:34.015Z</time></trkpt><trkpt lat="43.5343198" lon="12.5073473"><ele>542.5</ele><time>2026-05-02T07:51:35.018Z</time></trkpt><trkpt lat="43.534297" lon="12.5075153"><ele>536.0</ele><time>2026-05-02T07:51:36.013Z</time></trkpt><trkpt lat="43.5342657" lon="12.5076855"><ele>536.0</ele><time>2026-05-02T07:51:37.019Z</time></trkpt><trkpt lat="43.5342163" lon="12.5078417"><ele>536.0</ele><time>2026-05-02T07:51:38.021Z</time></trkpt><trkpt lat="43.5341521" lon="12.5079471"><ele>536.0</ele><time>2026-05-02T07:51:39.018Z</time></trkpt><trkpt lat="43.5340626" lon="12.508013"><ele>536.0</ele><time>2026-05-02T07:51:40.012Z</time></trkpt><trkpt lat="43.5339536" lon="12.5080559"><ele>536.0</ele><time>2026-05-02T07:51:41.021Z</time></trkpt><trkpt lat="43.5338287" lon="12.5080479"><ele>536.4</ele><time>2026-05-02T07:51:42.021Z</time></trkpt><trkpt lat="43.5337124" lon="12.5080182"><ele>536.8</ele><time>2026-05-02T07:51:43.02Z</time></trkpt><trkpt lat="43.5336243" lon="12.5080107"><ele>537.1999999999999</ele><time>2026-05-02T07:51:44.009Z</time></trkpt><trkpt lat="43.5335501" lon="12.508041"><ele>537.6</ele><time>2026-05-02T07:51:45.019Z</time></trkpt><trkpt lat="43.5335032" lon="12.5081231"><ele>538.0</ele><time>2026-05-02T07:51:46.018Z</time></trkpt><trkpt lat="43.5334604" lon="12.5082456"><ele>538.0</ele><time>2026-05-02T07:51:47.015Z</time></trkpt><trkpt lat="43.5334119" lon="12.5083933"><ele>538.0</ele><time>2026-05-02T07:51:48.031Z</time></trkpt><trkpt lat="43.5333473" lon="12.508571"><ele>538.0</ele><time>2026-05-02T07:51:49.02Z</time></trkpt><trkpt lat="43.5332739" lon="12.5087821"><ele>538.0</ele><time>2026-05-02T07:51:50.016Z</time></trkpt><trkpt lat="43.533199" lon="12.5089914"><ele>535.6666666666667</ele><time>2026-05-02T07:51:51.023Z</time></trkpt><trkpt lat="43.5331216" lon="12.5091879"><ele>533.3333333333334</ele><time>2026-05-02T07:51:52.025Z</time></trkpt><trkpt lat="43.5330532" lon="12.5093768"><ele>531.0</ele><time>2026-05-02T07:51:53.014Z</time></trkpt><trkpt lat="43.532957" lon="12.5095599"><ele>530.6666666666666</ele><time>2026-05-02T07:51:54.022Z</time></trkpt><trkpt lat="43.5328517" lon="12.5097222"><ele>530.3333333333333</ele><time>2026-05-02T07:51:55.004Z</time></trkpt><trkpt lat="43.5327256" lon="12.5098757"><ele>530.0</ele><time>2026-05-02T07:51:56.014Z</time></trkpt><trkpt lat="43.532566" lon="12.5100201"><ele>530.0</ele><time>2026-05-02T07:51:57.009Z</time></trkpt><trkpt lat="43.5324053" lon="12.510167"><ele>530.0</ele><time>2026-05-02T07:51:58.012Z</time></trkpt><trkpt lat="43.5322551" lon="12.5103541"><ele>530.0</ele><time>2026-05-02T07:51:59.009Z</time></trkpt><trkpt lat="43.5321214" lon="12.5105663"><ele>529.3333333333333</ele><time>2026-05-02T07:52:00.024Z</time></trkpt><trkpt lat="43.5319981" lon="12.5107785"><ele>528.6666666666666</ele><time>2026-05-02T07:52:01.003Z</time></trkpt><trkpt lat="43.5318649" lon="12.5109559"><ele>528.0</ele><time>2026-05-02T07:52:02.017Z</time></trkpt><trkpt lat="43.5317284" lon="12.5110738"><ele>528.0</ele><time>2026-05-02T07:52:03.022Z</time></trkpt><trkpt lat="43.5315888" lon="12.5111521"><ele>528.0</ele><time>2026-05-02T07:52:04.021Z</time></trkpt><trkpt lat="43.5314417" lon="12.5112191"><ele>528.0</ele><time>2026-05-02T07:52:05.015Z</time></trkpt><trkpt lat="43.5312996" lon="12.5113126"><ele>529.6666666666666</ele><time>2026-05-02T07:52:06.008Z</time></trkpt><trkpt lat="43.5311699" lon="12.5114263"><ele>531.3333333333333</ele><time>2026-05-02T07:52:07.016Z</time></trkpt><trkpt lat="43.531049" lon="12.51155"><ele>533.0</ele><time>2026-05-02T07:52:08.02Z</time></trkpt><trkpt lat="43.5309453" lon="12.5116906"><ele>533.0</ele><time>2026-05-02T07:52:09.008Z</time></trkpt><trkpt lat="43.5308596" lon="12.5118438"><ele>533.0</ele><time>2026-05-02T07:52:10.022Z</time></trkpt><trkpt lat="43.5307955" lon="12.5120133"><ele>533.0</ele><time>2026-05-02T07:52:11.02Z</time></trkpt><trkpt lat="43.5307407" lon="12.5122008"><ele>533.0</ele><time>2026-05-02T07:52:12.011Z</time></trkpt><trkpt lat="43.5306709" lon="12.5124067"><ele>527.0</ele><time>2026-05-02T07:52:13.024Z</time></trkpt><trkpt lat="43.530598" lon="12.5126007"><ele>521.0</ele><time>2026-05-02T07:52:14.02Z</time></trkpt><trkpt lat="43.5305212" lon="12.5127972"><ele>515.0</ele><time>2026-05-02T07:52:15.021Z</time></trkpt><trkpt lat="43.5304417" lon="12.5129976"><ele>517.3333333333333</ele><time>2026-05-02T07:52:16.025Z</time></trkpt><trkpt lat="43.530364" lon="12.5132041"><ele>519.6666666666666</ele><time>2026-05-02T07:52:17.02Z</time></trkpt><trkpt lat="43.5302885" lon="12.5133985"><ele>522.0</ele><time>2026-05-02T07:52:18.012Z</time></trkpt><trkpt lat="43.530219" lon="12.5135843"><ele>518.75</ele><time>2026-05-02T07:52:19.012Z</time></trkpt><trkpt lat="43.5301568" lon="12.5137624"><ele>515.5</ele><time>2026-05-02T07:52:20.014Z</time></trkpt><trkpt lat="43.5301019" lon="12.5139424"><ele>512.25</ele><time>2026-05-02T07:52:21.012Z</time></trkpt><trkpt lat="43.5300726" lon="12.5141125"><ele>509.0</ele><time>2026-05-02T07:52:22.019Z</time></trkpt><trkpt lat="43.5300705" lon="12.514284"><ele>509.0</ele><time>2026-05-02T07:52:23.002Z</time></trkpt><trkpt lat="43.5300851" lon="12.5144699"><ele>509.0</ele><time>2026-05-02T07:52:24.005Z</time></trkpt><trkpt lat="43.530105" lon="12.5146559"><ele>509.0</ele><time>2026-05-02T07:52:25.016Z</time></trkpt><trkpt lat="43.5301063" lon="12.5148367"><ele>509.0</ele><time>2026-05-02T07:52:26.021Z</time></trkpt><trkpt lat="43.5300731" lon="12.5150148"><ele>507.0</ele><time>2026-05-02T07:52:27.034Z</time></trkpt><trkpt lat="43.5300137" lon="12.5151984"><ele>505.0</ele><time>2026-05-02T07:52:28.026Z</time></trkpt><trkpt lat="43.5299272" lon="12.5153871"><ele>503.0</ele><time>2026-05-02T07:52:29.02Z</time></trkpt><trkpt lat="43.529846" lon="12.515591"><ele>508.0</ele><time>2026-05-02T07:52:30.021Z</time></trkpt><trkpt lat="43.5297654" lon="12.5157849"><ele>513.0</ele><time>2026-05-02T07:52:31.019Z</time></trkpt><trkpt lat="43.529676" lon="12.5159684"><ele>518.0</ele><time>2026-05-02T07:52:32.026Z</time></trkpt><trkpt lat="43.5295734" lon="12.5161216"><ele>513.0</ele><time>2026-05-02T07:52:33.013Z</time></trkpt><trkpt lat="43.5294613" lon="12.5162586"><ele>508.0</ele><time>2026-05-02T07:52:34.02Z</time></trkpt><trkpt lat="43.5293191" lon="12.516395"><ele>503.0</ele><time>2026-05-02T07:52:35.018Z</time></trkpt><trkpt lat="43.529159" lon="12.5165409"><ele>503.0</ele><time>2026-05-02T07:52:36.011Z</time></trkpt><trkpt lat="43.5289935" lon="12.5166873"><ele>503.0</ele><time>2026-05-02T07:52:37.014Z</time></trkpt><trkpt lat="43.5288404" lon="12.516826"><ele>503.0</ele><time>2026-05-02T07:52:38.02Z</time></trkpt><trkpt lat="43.5286948" lon="12.5169633"><ele>502.0</ele><time>2026-05-02T07:52:39.022Z</time></trkpt><trkpt lat="43.5285487" lon="12.5170994"><ele>501.0</ele><time>2026-05-02T07:52:40.023Z</time></trkpt><trkpt lat="43.5284007" lon="12.5172392"><ele>500.0</ele><time>2026-05-02T07:52:41.017Z</time></trkpt><trkpt lat="43.5282498" lon="12.5173811"><ele>500.0</ele><time>2026-05-02T07:52:42.02Z</time></trkpt><trkpt lat="43.5281" lon="12.517517"><ele>500.0</ele><time>2026-05-02T07:52:43.021Z</time></trkpt><trkpt lat="43.5279548" lon="12.5176455"><ele>500.0</ele><time>2026-05-02T07:52:44.015Z</time></trkpt><trkpt lat="43.5278272" lon="12.5177658"><ele>499.75</ele><time>2026-05-02T07:52:45.021Z</time></trkpt><trkpt lat="43.5277119" lon="12.517867"><ele>499.5</ele><time>2026-05-02T07:52:46.015Z</time></trkpt><trkpt lat="43.52761" lon="12.5179794"><ele>499.25</ele><time>2026-05-02T07:52:47.031Z</time></trkpt><trkpt lat="43.527518" lon="12.5181082"><ele>499.0</ele><time>2026-05-02T07:52:48.014Z</time></trkpt><trkpt lat="43.5274458" lon="12.5182558"><ele>499.0</ele><time>2026-05-02T07:52:49.014Z</time></trkpt><trkpt lat="43.5273927" lon="12.5184192"><ele>499.0</ele><time>2026-05-02T07:52:50.014Z</time></trkpt><trkpt lat="43.527351" lon="12.5186026"><ele>499.0</ele><time>2026-05-02T07:52:51.031Z</time></trkpt><trkpt lat="43.527305" lon="12.5188001"><ele>499.0</ele><time>2026-05-02T07:52:52.014Z</time></trkpt><trkpt lat="43.5272445" lon="12.5189682"><ele>495.0</ele><time>2026-05-02T07:52:53.008Z</time></trkpt><trkpt lat="43.5271575" lon="12.5191307"><ele>491.0</ele><time>2026-05-02T07:52:54.018Z</time></trkpt><trkpt lat="43.5270521" lon="12.5192968"><ele>487.0</ele><time>2026-05-02T07:52:55.015Z</time></trkpt><trkpt lat="43.526936" lon="12.5194687"><ele>489.25</ele><time>2026-05-02T07:52:56.014Z</time></trkpt><trkpt lat="43.5268233" lon="12.5196394"><ele>491.5</ele><time>2026-05-02T07:52:57.009Z</time></trkpt><trkpt lat="43.5267143" lon="12.5197832"><ele>493.75</ele><time>2026-05-02T07:52:58.012Z</time></trkpt><trkpt lat="43.526618" lon="12.5199014"><ele>496.0</ele><time>2026-05-02T07:52:59.013Z</time></trkpt><trkpt lat="43.5265212" lon="12.520026"><ele>496.0</ele><time>2026-05-02T07:53:00.017Z</time></trkpt><trkpt lat="43.5264507" lon="12.5201659"><ele>496.0</ele><time>2026-05-02T07:53:01.022Z</time></trkpt><trkpt lat="43.5264185" lon="12.5203121"><ele>496.0</ele><time>2026-05-02T07:53:02.013Z</time></trkpt><trkpt lat="43.5264147" lon="12.5204772"><ele>496.0</ele><time>2026-05-02T07:53:03.013Z</time></trkpt><trkpt lat="43.5264362" lon="12.5206741"><ele>500.33333333333337</ele><time>2026-05-02T07:53:04.005Z</time></trkpt><trkpt lat="43.5264623" lon="12.5208899"><ele>504.66666666666663</ele><time>2026-05-02T07:53:05.018Z</time></trkpt><trkpt lat="43.5264847" lon="12.521101"><ele>509.0</ele><time>2026-05-02T07:53:06.01Z</time></trkpt><trkpt lat="43.5265005" lon="12.5212947"><ele>512.5</ele><time>2026-05-02T07:53:07.017Z</time></trkpt><trkpt lat="43.5265041" lon="12.5214821"><ele>516.0</ele><time>2026-05-02T07:53:08.006Z</time></trkpt><trkpt lat="43.5264642" lon="12.5216774"><ele>519.5</ele><time>2026-05-02T07:53:09.008Z</time></trkpt><trkpt lat="43.5264085" lon="12.5218432"><ele>523.0</ele><time>2026-05-02T07:53:10.019Z</time></trkpt><trkpt lat="43.5263286" lon="12.5219816"><ele>521.5</ele><time>2026-05-02T07:53:11.009Z</time></trkpt><trkpt lat="43.5262254" lon="12.5220965"><ele>520.0</ele><time>2026-05-02T07:53:12.016Z</time></trkpt><trkpt lat="43.5261008" lon="12.5221926"><ele>518.5</ele><time>2026-05-02T07:53:13.025Z</time></trkpt><trkpt lat="43.5259574" lon="12.5222647"><ele>517.0</ele><time>2026-05-02T07:53:14.014Z</time></trkpt><trkpt lat="43.525792" lon="12.5223318"><ele>517.0</ele><time>2026-05-02T07:53:15.019Z</time></trkpt><trkpt lat="43.5256153" lon="12.5223991"><ele>517.0</ele><time>2026-05-02T07:53:16.011Z</time></trkpt><trkpt lat="43.5254441" lon="12.5224628"><ele>517.0</ele><time>2026-05-02T07:53:17.02Z</time></trkpt><trkpt lat="43.5253021" lon="12.5225229"><ele>518.25</ele><time>2026-05-02T07:53:18.011Z</time></trkpt><trkpt lat="43.5251763" lon="12.5225982"><ele>519.5</ele><time>2026-05-02T07:53:19.009Z</time></trkpt><trkpt lat="43.5250699" lon="12.5227031"><ele>520.75</ele><time>2026-05-02T07:53:20.013Z</time></trkpt><trkpt lat="43.5249632" lon="12.5228511"><ele>522.0</ele><time>2026-05-02T07:53:21.017Z</time></trkpt><trkpt lat="43.5248599" lon="12.5230266"><ele>522.0</ele><time>2026-05-02T07:53:22.01Z</time></trkpt><trkpt lat="43.5247429" lon="12.5232412"><ele>522.0</ele><time>2026-05-02T07:53:23.013Z</time></trkpt><trkpt lat="43.5246172" lon="12.5234525"><ele>522.0</ele><time>2026-05-02T07:53:24.007Z</time></trkpt><trkpt lat="43.5244959" lon="12.5236383"><ele>515.6666666666666</ele><time>2026-05-02T07:53:25.007Z</time></trkpt><trkpt lat="43.5243914" lon="12.5238174"><ele>509.3333333333333</ele><time>2026-05-02T07:53:26.005Z</time></trkpt><trkpt lat="43.5242979" lon="12.5240001"><ele>503.0</ele><time>2026-05-02T07:53:27.014Z</time></trkpt><trkpt lat="43.5242007" lon="12.5241867"><ele>503.0</ele><time>2026-05-02T07:53:28.003Z</time></trkpt><trkpt lat="43.5240935" lon="12.5243595"><ele>503.0</ele><time>2026-05-02T07:53:29.018Z</time></trkpt><trkpt lat="43.5239843" lon="12.5245001"><ele>503.0</ele><time>2026-05-02T07:53:30.001Z</time></trkpt><trkpt lat="43.5238847" lon="12.5246405"><ele>506.5</ele><time>2026-05-02T07:53:31.009Z</time></trkpt><trkpt lat="43.523778" lon="12.5247881"><ele>510.0</ele><time>2026-05-02T07:53:32.006Z</time></trkpt><trkpt lat="43.5236834" lon="12.5249375"><ele>513.5</ele><time>2026-05-02T07:53:33.022Z</time></trkpt><trkpt lat="43.5236049" lon="12.5251103"><ele>517.0</ele><time>2026-05-02T07:53:34.028Z</time></trkpt><trkpt lat="43.5235432" lon="12.5253013"><ele>509.33333333333337</ele><time>2026-05-02T07:53:35.01Z</time></trkpt><trkpt lat="43.5234914" lon="12.5255059"><ele>501.66666666666663</ele><time>2026-05-02T07:53:36.016Z</time></trkpt><trkpt lat="43.5234364" lon="12.5257359"><ele>494.0</ele><time>2026-05-02T07:53:37.011Z</time></trkpt><trkpt lat="43.523385" lon="12.5259811"><ele>496.0</ele><time>2026-05-02T07:53:38.015Z</time></trkpt><trkpt lat="43.5233335" lon="12.5262369"><ele>498.0</ele><time>2026-05-02T07:53:39.008Z</time></trkpt><trkpt lat="43.5232781" lon="12.5264777"><ele>500.0</ele><time>2026-05-02T07:53:40.026Z</time></trkpt><trkpt lat="43.5232209" lon="12.5267215"><ele>500.0</ele><time>2026-05-02T07:53:41.009Z</time></trkpt><trkpt lat="43.5231652" lon="12.5269664"><ele>500.0</ele><time>2026-05-02T07:53:42.01Z</time></trkpt><trkpt lat="43.5231145" lon="12.527215"><ele>500.0</ele><time>2026-05-02T07:53:43.011Z</time></trkpt><trkpt lat="43.5230628" lon="12.5274667"><ele>501.66666666666663</ele><time>2026-05-02T07:53:44.011Z</time></trkpt><trkpt lat="43.5230119" lon="12.5277195"><ele>503.33333333333337</ele><time>2026-05-02T07:53:45.031Z</time></trkpt><trkpt lat="43.5229648" lon="12.5279522"><ele>505.0</ele><time>2026-05-02T07:53:46.024Z</time></trkpt><trkpt lat="43.5229196" lon="12.5281776"><ele>502.0</ele><time>2026-05-02T07:53:47.009Z</time></trkpt><trkpt lat="43.5228658" lon="12.5283888"><ele>499.0</ele><time>2026-05-02T07:53:48.019Z</time></trkpt><trkpt lat="43.5228107" lon="12.5286068"><ele>496.0</ele><time>2026-05-02T07:53:49.02Z</time></trkpt><trkpt lat="43.5227383" lon="12.5288171"><ele>496.0</ele><time>2026-05-02T07:53:50.02Z</time></trkpt><trkpt lat="43.5226394" lon="12.5290041"><ele>496.0</ele><time>2026-05-02T07:53:51.018Z</time></trkpt><trkpt lat="43.5225361" lon="12.5291845"><ele>496.0</ele><time>2026-05-02T07:53:52.016Z</time></trkpt><trkpt lat="43.5224421" lon="12.5293696"><ele>496.0</ele><time>2026-05-02T07:53:53.016Z</time></trkpt><trkpt lat="43.5223657" lon="12.5295566"><ele>496.0</ele><time>2026-05-02T07:53:54.023Z</time></trkpt><trkpt lat="43.5223103" lon="12.5297793"><ele>496.0</ele><time>2026-05-02T07:53:55.029Z</time></trkpt><trkpt lat="43.5222569" lon="12.5300019"><ele>501.6666666666667</ele><time>2026-05-02T07:53:56.02Z</time></trkpt><trkpt lat="43.5222056" lon="12.5302195"><ele>507.33333333333337</ele><time>2026-05-02T07:53:57.001Z</time></trkpt><trkpt lat="43.5221573" lon="12.530424"><ele>513.0</ele><time>2026-05-02T07:53:58.017Z</time></trkpt><trkpt lat="43.522103" lon="12.5306056"><ele>507.75</ele><time>2026-05-02T07:53:59.014Z</time></trkpt><trkpt lat="43.5220331" lon="12.5307776"><ele>502.5</ele><time>2026-05-02T07:54:00.017Z</time></trkpt><trkpt lat="43.521945" lon="12.5309507"><ele>497.25</ele><time>2026-05-02T07:54:01.024Z</time></trkpt><trkpt lat="43.5218665" lon="12.5311127"><ele>492.0</ele><time>2026-05-02T07:54:02.019Z</time></trkpt><trkpt lat="43.5218102" lon="12.531275"><ele>492.0</ele><time>2026-05-02T07:54:03.017Z</time></trkpt><trkpt lat="43.521779" lon="12.5314297"><ele>492.0</ele><time>2026-05-02T07:54:04.026Z</time></trkpt><trkpt lat="43.5217818" lon="12.5315865"><ele>492.0</ele><time>2026-05-02T07:54:05.022Z</time></trkpt><trkpt lat="43.5218084" lon="12.5317581"><ele>492.0</ele><time>2026-05-02T07:54:06.023Z</time></trkpt><trkpt lat="43.5218529" lon="12.5319384"><ele>494.20000000000005</ele><time>2026-05-02T07:54:07.019Z</time></trkpt><trkpt lat="43.521893" lon="12.5321033"><ele>496.40000000000003</ele><time>2026-05-02T07:54:08.009Z</time></trkpt><trkpt lat="43.5219287" lon="12.5322374"><ele>498.59999999999997</ele><time>2026-05-02T07:54:09.03Z</time></trkpt><trkpt lat="43.5219252" lon="12.532377"><ele>500.79999999999995</ele><time>2026-05-02T07:54:10.011Z</time></trkpt><trkpt lat="43.5218894" lon="12.5324832"><ele>503.0</ele><time>2026-05-02T07:54:11.014Z</time></trkpt><trkpt lat="43.5218157" lon="12.5325529"><ele>503.0</ele><time>2026-05-02T07:54:12.006Z</time></trkpt><trkpt lat="43.5217276" lon="12.5325915"><ele>502.99999999999994</ele><time>2026-05-02T07:54:13.018Z</time></trkpt><trkpt lat="43.5216239" lon="12.5325874"><ele>502.99999999999994</ele><time>2026-05-02T07:54:14.005Z</time></trkpt><trkpt lat="43.5215265" lon="12.532587"><ele>503.0</ele><time>2026-05-02T07:54:15.019Z</time></trkpt><trkpt lat="43.5214402" lon="12.5326283"><ele>503.0</ele><time>2026-05-02T07:54:16.011Z</time></trkpt><trkpt lat="43.5213751" lon="12.5327263"><ele>503.0</ele><time>2026-05-02T07:54:17.023Z</time></trkpt><trkpt lat="43.5213244" lon="12.5328635"><ele>503.0</ele><time>2026-05-02T07:54:18.02Z</time></trkpt><trkpt lat="43.5212763" lon="12.5330232"><ele>503.0</ele><time>2026-05-02T07:54:19.019Z</time></trkpt><trkpt lat="43.5212151" lon="12.5331934"><ele>503.0</ele><time>2026-05-02T07:54:20.026Z</time></trkpt><trkpt lat="43.5211387" lon="12.5333831"><ele>502.3333333333333</ele><time>2026-05-02T07:54:21.027Z</time></trkpt><trkpt lat="43.521062" lon="12.5335862"><ele>501.66666666666663</ele><time>2026-05-02T07:54:22.015Z</time></trkpt><trkpt lat="43.5209906" lon="12.5337725"><ele>501.0</ele><time>2026-05-02T07:54:23.017Z</time></trkpt><trkpt lat="43.5209234" lon="12.533949"><ele>501.0</ele><time>2026-05-02T07:54:24.026Z</time></trkpt><trkpt lat="43.5208652" lon="12.5341342"><ele>501.0</ele><time>2026-05-02T07:54:25.031Z</time></trkpt><trkpt lat="43.5208237" lon="12.5343262"><ele>501.0</ele><time>2026-05-02T07:54:26.02Z</time></trkpt><trkpt lat="43.5208195" lon="12.5345227"><ele>501.0</ele><time>2026-05-02T07:54:27.026Z</time></trkpt><trkpt lat="43.520835" lon="12.5347395"><ele>503.66666666666663</ele><time>2026-05-02T07:54:28.015Z</time></trkpt><trkpt lat="43.5208462" lon="12.5349685"><ele>506.3333333333333</ele><time>2026-05-02T07:54:29.021Z</time></trkpt><trkpt lat="43.5208545" lon="12.5351789"><ele>509.0</ele><time>2026-05-02T07:54:30.013Z</time></trkpt><trkpt lat="43.5208577" lon="12.5353775"><ele>509.25</ele><time>2026-05-02T07:54:31.008Z</time></trkpt><trkpt lat="43.5208563" lon="12.5355742"><ele>509.5</ele><time>2026-05-02T07:54:32.015Z</time></trkpt><trkpt lat="43.5208435" lon="12.5357523"><ele>509.75</ele><time>2026-05-02T07:54:33.008Z</time></trkpt><trkpt lat="43.520822" lon="12.5359147"><ele>510.0</ele><time>2026-05-02T07:54:34.019Z</time></trkpt><trkpt lat="43.52079" lon="12.5360613"><ele>510.0</ele><time>2026-05-02T07:54:35.014Z</time></trkpt><trkpt lat="43.5207559" lon="12.5362136"><ele>510.0</ele><time>2026-05-02T07:54:36.025Z</time></trkpt><trkpt lat="43.5207216" lon="12.5363389"><ele>510.0</ele><time>2026-05-02T07:54:37.024Z</time></trkpt><trkpt lat="43.5207017" lon="12.5364366"><ele>510.0</ele><time>2026-05-02T07:54:38.023Z</time></trkpt><trkpt lat="43.520728" lon="12.5365754"><ele>510.0</ele><time>2026-05-02T07:54:40.014Z</time></trkpt><trkpt lat="43.520816" lon="12.5366557"><ele>510.2</ele><time>2026-05-02T07:54:42.02Z</time></trkpt><trkpt lat="43.5208786" lon="12.53668"><ele>510.4</ele><time>2026-05-02T07:54:43.018Z</time></trkpt><trkpt lat="43.5209725" lon="12.536715"><ele>510.6</ele><time>2026-05-02T07:54:44.018Z</time></trkpt><trkpt lat="43.5210931" lon="12.5367775"><ele>510.8</ele><time>2026-05-02T07:54:45.01Z</time></trkpt><trkpt lat="43.5211765" lon="12.5368697"><ele>511.0</ele><time>2026-05-02T07:54:46.027Z</time></trkpt><trkpt lat="43.5212358" lon="12.5369845"><ele>509.5</ele><time>2026-05-02T07:54:47.026Z</time></trkpt><trkpt lat="43.5212676" lon="12.5371323"><ele>508.0</ele><time>2026-05-02T07:54:48.024Z</time></trkpt><trkpt lat="43.5212469" lon="12.5373131"><ele>506.5</ele><time>2026-05-02T07:54:49.032Z</time></trkpt><trkpt lat="43.5212195" lon="12.537483"><ele>505.0</ele><time>2026-05-02T07:54:50.031Z</time></trkpt><trkpt lat="43.5211659" lon="12.5376752"><ele>505.6666666666667</ele><time>2026-05-02T07:54:51.02Z</time></trkpt><trkpt lat="43.5211014" lon="12.537887"><ele>506.33333333333337</ele><time>2026-05-02T07:54:52.006Z</time></trkpt><trkpt lat="43.5210194" lon="12.5381035"><ele>507.0</ele><time>2026-05-02T07:54:53.018Z</time></trkpt><trkpt lat="43.5209168" lon="12.5383009"><ele>507.0</ele><time>2026-05-02T07:54:54.025Z</time></trkpt><trkpt lat="43.5208162" lon="12.5384747"><ele>507.0</ele><time>2026-05-02T07:54:55.034Z</time></trkpt><trkpt lat="43.5207206" lon="12.5386397"><ele>507.0</ele><time>2026-05-02T07:54:56.023Z</time></trkpt><trkpt lat="43.520635" lon="12.538801"><ele>509.25</ele><time>2026-05-02T07:54:57.001Z</time></trkpt><trkpt lat="43.520579" lon="12.5389826"><ele>511.5</ele><time>2026-05-02T07:54:58.023Z</time></trkpt><trkpt lat="43.5205493" lon="12.5391764"><ele>513.75</ele><time>2026-05-02T07:54:59.021Z</time></trkpt><trkpt lat="43.5205458" lon="12.5393857"><ele>516.0</ele><time>2026-05-02T07:55:00.012Z</time></trkpt><trkpt lat="43.5205512" lon="12.5395897"><ele>516.0</ele><time>2026-05-02T07:55:01.021Z</time></trkpt><trkpt lat="43.5205652" lon="12.5397752"><ele>516.0</ele><time>2026-05-02T07:55:02.029Z</time></trkpt><trkpt lat="43.5205604" lon="12.5399533"><ele>516.0</ele><time>2026-05-02T07:55:03.008Z</time></trkpt><trkpt lat="43.5205367" lon="12.5401079"><ele>516.0</ele><time>2026-05-02T07:55:04.028Z</time></trkpt><trkpt lat="43.5204713" lon="12.5402189"><ele>512.4</ele><time>2026-05-02T07:55:05.009Z</time></trkpt><trkpt lat="43.5203764" lon="12.5403047"><ele>508.8</ele><time>2026-05-02T07:55:06.009Z</time></trkpt><trkpt lat="43.5202654" lon="12.540339"><ele>505.19999999999993</ele><time>2026-05-02T07:55:07.012Z</time></trkpt><trkpt lat="43.5201518" lon="12.5403302"><ele>501.59999999999997</ele><time>2026-05-02T07:55:08.024Z</time></trkpt><trkpt lat="43.5200506" lon="12.540282"><ele>498.0</ele><time>2026-05-02T07:55:09.019Z</time></trkpt><trkpt lat="43.5199601" lon="12.5401698"><ele>498.0</ele><time>2026-05-02T07:55:10.006Z</time></trkpt><trkpt lat="43.519887" lon="12.5400461"><ele>498.0</ele><time>2026-05-02T07:55:11.01Z</time></trkpt><trkpt lat="43.5198206" lon="12.5398769"><ele>498.0</ele><time>2026-05-02T07:55:12.022Z</time></trkpt><trkpt lat="43.5197644" lon="12.539699"><ele>498.0</ele><time>2026-05-02T07:55:13.018Z</time></trkpt><trkpt lat="43.5197174" lon="12.5395581"><ele>495.79999999999995</ele><time>2026-05-02T07:55:14.02Z</time></trkpt><trkpt lat="43.5196641" lon="12.5394604"><ele>493.59999999999997</ele><time>2026-05-02T07:55:15.014Z</time></trkpt><trkpt lat="43.5195942" lon="12.5393736"><ele>491.40000000000003</ele><time>2026-05-02T07:55:16.005Z</time></trkpt><trkpt lat="43.5195091" lon="12.5393277"><ele>489.20000000000005</ele><time>2026-05-02T07:55:17.021Z</time></trkpt><trkpt lat="43.5193965" lon="12.5393183"><ele>487.0</ele><time>2026-05-02T07:55:18.009Z</time></trkpt><trkpt lat="43.5192846" lon="12.5393408"><ele>485.40000000000003</ele><time>2026-05-02T07:55:19.025Z</time></trkpt><trkpt lat="43.5191802" lon="12.5393563"><ele>483.80000000000007</ele><time>2026-05-02T07:55:20.015Z</time></trkpt><trkpt lat="43.5190833" lon="12.5393796"><ele>482.2</ele><time>2026-05-02T07:55:21.013Z</time></trkpt><trkpt lat="43.5189961" lon="12.5394219"><ele>480.6</ele><time>2026-05-02T07:55:22.01Z</time></trkpt><trkpt lat="43.5189329" lon="12.5394934"><ele>479.0</ele><time>2026-05-02T07:55:23.025Z</time></trkpt><trkpt lat="43.51888" lon="12.5396079"><ele>485.5</ele><time>2026-05-02T07:55:24.009Z</time></trkpt><trkpt lat="43.5188442" lon="12.5397361"><ele>492.0</ele><time>2026-05-02T07:55:25.013Z</time></trkpt><trkpt lat="43.5188207" lon="12.5398955"><ele>498.5</ele><time>2026-05-02T07:55:26.012Z</time></trkpt><trkpt lat="43.518789" lon="12.5400733"><ele>505.0</ele><time>2026-05-02T07:55:27.022Z</time></trkpt><trkpt lat="43.5187502" lon="12.5402619"><ele>495.6666666666667</ele><time>2026-05-02T07:55:28.028Z</time></trkpt><trkpt lat="43.5186985" lon="12.5404508"><ele>486.33333333333337</ele><time>2026-05-02T07:55:29.029Z</time></trkpt><trkpt lat="43.5186321" lon="12.540659"><ele>477.0</ele><time>2026-05-02T07:55:30.013Z</time></trkpt><trkpt lat="43.5185632" lon="12.5408766"><ele>477.0</ele><time>2026-05-02T07:55:31.026Z</time></trkpt><trkpt lat="43.5184863" lon="12.5410833"><ele>477.0</ele><time>2026-05-02T07:55:32.038Z</time></trkpt><trkpt lat="43.5184069" lon="12.5412811"><ele>477.0</ele><time>2026-05-02T07:55:33.019Z</time></trkpt><trkpt lat="43.5183189" lon="12.541475"><ele>480.66666666666663</ele><time>2026-05-02T07:55:34.011Z</time></trkpt><trkpt lat="43.5182262" lon="12.5416686"><ele>484.3333333333333</ele><time>2026-05-02T07:55:35.007Z</time></trkpt><trkpt lat="43.5181242" lon="12.5418601"><ele>488.0</ele><time>2026-05-02T07:55:36.024Z</time></trkpt><trkpt lat="43.5180242" lon="12.5420309"><ele>490.5</ele><time>2026-05-02T07:55:37.014Z</time></trkpt><trkpt lat="43.5179253" lon="12.5421887"><ele>493.0</ele><time>2026-05-02T07:55:38.016Z</time></trkpt><trkpt lat="43.517835" lon="12.5423421"><ele>495.5</ele><time>2026-05-02T07:55:39.016Z</time></trkpt><trkpt lat="43.5177529" lon="12.5424919"><ele>498.0</ele><time>2026-05-02T07:55:40.017Z</time></trkpt><trkpt lat="43.5176794" lon="12.5426283"><ele>490.25</ele><time>2026-05-02T07:55:41.018Z</time></trkpt><trkpt lat="43.5176116" lon="12.5427549"><ele>482.5</ele><time>2026-05-02T07:55:42.012Z</time></trkpt><trkpt lat="43.5175637" lon="12.5428971"><ele>474.75</ele><time>2026-05-02T07:55:43.018Z</time></trkpt><trkpt lat="43.5175441" lon="12.5430454"><ele>467.0</ele><time>2026-05-02T07:55:44.016Z</time></trkpt><trkpt lat="43.5175602" lon="12.5432018"><ele>467.0</ele><time>2026-05-02T07:55:45.024Z</time></trkpt><trkpt lat="43.5176071" lon="12.5433635"><ele>467.0</ele><time>2026-05-02T07:55:46.012Z</time></trkpt><trkpt lat="43.5176759" lon="12.5435453"><ele>467.0</ele><time>2026-05-02T07:55:47.027Z</time></trkpt><trkpt lat="43.5177525" lon="12.5437448"><ele>467.0</ele><time>2026-05-02T07:55:48.012Z</time></trkpt><trkpt lat="43.5178157" lon="12.5439369"><ele>465.25</ele><time>2026-05-02T07:55:49.014Z</time></trkpt><trkpt lat="43.5178698" lon="12.5441121"><ele>463.5</ele><time>2026-05-02T07:55:50.016Z</time></trkpt><trkpt lat="43.5179237" lon="12.5442836"><ele>461.75</ele><time>2026-05-02T07:55:51.033Z</time></trkpt><trkpt lat="43.5179628" lon="12.5444339"><ele>460.0</ele><time>2026-05-02T07:55:52.018Z</time></trkpt><trkpt lat="43.5179737" lon="12.5445797"><ele>461.8</ele><time>2026-05-02T07:55:53.021Z</time></trkpt><trkpt lat="43.517946" lon="12.5447099"><ele>463.6</ele><time>2026-05-02T07:55:54.029Z</time></trkpt><trkpt lat="43.5178939" lon="12.5448132"><ele>465.4</ele><time>2026-05-02T07:55:55.035Z</time></trkpt><trkpt lat="43.5177984" lon="12.5448773"><ele>467.2</ele><time>2026-05-02T07:55:56.037Z</time></trkpt><trkpt lat="43.5176882" lon="12.5449193"><ele>469.0</ele><time>2026-05-02T07:55:57.012Z</time></trkpt><trkpt lat="43.5175658" lon="12.544917"><ele>469.0</ele><time>2026-05-02T07:55:58.015Z</time></trkpt><trkpt lat="43.5174265" lon="12.5449004"><ele>469.0</ele><time>2026-05-02T07:55:59.022Z</time></trkpt><trkpt lat="43.5172805" lon="12.5448916"><ele>469.0</ele><time>2026-05-02T07:56:00.026Z</time></trkpt><trkpt lat="43.5171389" lon="12.5449059"><ele>469.0</ele><time>2026-05-02T07:56:01.02Z</time></trkpt><trkpt lat="43.5170185" lon="12.5449139"><ele>464.5</ele><time>2026-05-02T07:56:02.017Z</time></trkpt><trkpt lat="43.5169044" lon="12.5449431"><ele>460.0</ele><time>2026-05-02T07:56:03.02Z</time></trkpt><trkpt lat="43.5167976" lon="12.5450094"><ele>455.5</ele><time>2026-05-02T07:56:04.021Z</time></trkpt><trkpt lat="43.5167204" lon="12.5450936"><ele>451.0</ele><time>2026-05-02T07:56:05.016Z</time></trkpt><trkpt lat="43.5166257" lon="12.5452491"><ele>455.0</ele><time>2026-05-02T07:56:06.027Z</time></trkpt><trkpt lat="43.5165383" lon="12.545429"><ele>459.0</ele><time>2026-05-02T07:56:07.025Z</time></trkpt><trkpt lat="43.5164461" lon="12.5456506"><ele>463.0</ele><time>2026-05-02T07:56:08.016Z</time></trkpt><trkpt lat="43.5163392" lon="12.5458859"><ele>463.0</ele><time>2026-05-02T07:56:09.025Z</time></trkpt><trkpt lat="43.5162457" lon="12.5461129"><ele>463.0</ele><time>2026-05-02T07:56:10.014Z</time></trkpt><trkpt lat="43.5161592" lon="12.5463244"><ele>463.0</ele><time>2026-05-02T07:56:11.031Z</time></trkpt><trkpt lat="43.5160747" lon="12.5465078"><ele>459.25</ele><time>2026-05-02T07:56:12.023Z</time></trkpt><trkpt lat="43.5159928" lon="12.5466538"><ele>455.5</ele><time>2026-05-02T07:56:13.034Z</time></trkpt><trkpt lat="43.515891" lon="12.5467611"><ele>451.75</ele><time>2026-05-02T07:56:14.011Z</time></trkpt><trkpt lat="43.5157883" lon="12.5468314"><ele>448.0</ele><time>2026-05-02T07:56:15.024Z</time></trkpt><trkpt lat="43.5156764" lon="12.5468539"><ele>448.0</ele><time>2026-05-02T07:56:16.02Z</time></trkpt><trkpt lat="43.5155737" lon="12.5468522"><ele>447.99999999999994</ele><time>2026-05-02T07:56:17.025Z</time></trkpt><trkpt lat="43.5154751" lon="12.5467901"><ele>447.99999999999994</ele><time>2026-05-02T07:56:18.021Z</time></trkpt><trkpt lat="43.5154005" lon="12.5467001"><ele>448.0</ele><time>2026-05-02T07:56:19.014Z</time></trkpt><trkpt lat="43.5153502" lon="12.5465688"><ele>448.0</ele><time>2026-05-02T07:56:20.019Z</time></trkpt><trkpt lat="43.5153132" lon="12.5464234"><ele>447.0</ele><time>2026-05-02T07:56:21.022Z</time></trkpt><trkpt lat="43.5152824" lon="12.5462533"><ele>445.99999999999994</ele><time>2026-05-02T07:56:22.017Z</time></trkpt><trkpt lat="43.5152691" lon="12.5460908"><ele>444.99999999999994</ele><time>2026-05-02T07:56:23.018Z</time></trkpt><trkpt lat="43.5152417" lon="12.545965"><ele>444.0</ele><time>2026-05-02T07:56:24.023Z</time></trkpt><trkpt lat="43.5151956" lon="12.5458631"><ele>443.0</ele><time>2026-05-02T07:56:25.014Z</time></trkpt><trkpt lat="43.5151226" lon="12.5457945"><ele>442.0</ele><time>2026-05-02T07:56:26.014Z</time></trkpt><trkpt lat="43.5150359" lon="12.5457898"><ele>440.99999999999994</ele><time>2026-05-02T07:56:27.01Z</time></trkpt><trkpt lat="43.5149476" lon="12.5458179"><ele>439.99999999999994</ele><time>2026-05-02T07:56:28.022Z</time></trkpt><trkpt lat="43.5148825" lon="12.5458984"><ele>439.0</ele><time>2026-05-02T07:56:29.032Z</time></trkpt><trkpt lat="43.5148454" lon="12.5460177"><ele>438.0</ele><time>2026-05-02T07:56:30.022Z</time></trkpt><trkpt lat="43.5148236" lon="12.5461743"><ele>439.25</ele><time>2026-05-02T07:56:31.024Z</time></trkpt><trkpt lat="43.5148042" lon="12.5463336"><ele>440.5</ele><time>2026-05-02T07:56:32.041Z</time></trkpt><trkpt lat="43.5147536" lon="12.5464767"><ele>441.75</ele><time>2026-05-02T07:56:33.024Z</time></trkpt><trkpt lat="43.5146798" lon="12.5466223"><ele>443.0</ele><time>2026-05-02T07:56:34.018Z</time></trkpt><trkpt lat="43.5145878" lon="12.5467401"><ele>444.0</ele><time>2026-05-02T07:56:35.017Z</time></trkpt><trkpt lat="43.5144779" lon="12.5468284"><ele>445.0</ele><time>2026-05-02T07:56:36.026Z</time></trkpt><trkpt lat="43.5143525" lon="12.5469208"><ele>446.0</ele><time>2026-05-02T07:56:37.011Z</time></trkpt><trkpt lat="43.5142011" lon="12.5470251"><ele>447.0</ele><time>2026-05-02T07:56:38.026Z</time></trkpt><trkpt lat="43.5140477" lon="12.54714"><ele>447.0</ele><time>2026-05-02T07:56:39.025Z</time></trkpt><trkpt lat="43.5139106" lon="12.5472439"><ele>447.0</ele><time>2026-05-02T07:56:40.015Z</time></trkpt><trkpt lat="43.5137758" lon="12.5473403"><ele>447.0</ele><time>2026-05-02T07:56:41.024Z</time></trkpt><trkpt lat="43.5136458" lon="12.547444"><ele>441.25</ele><time>2026-05-02T07:56:42.027Z</time></trkpt><trkpt lat="43.5135152" lon="12.547536"><ele>435.5</ele><time>2026-05-02T07:56:43.021Z</time></trkpt><trkpt lat="43.5133909" lon="12.5476209"><ele>429.75</ele><time>2026-05-02T07:56:44.015Z</time></trkpt><trkpt lat="43.5132799" lon="12.5477041"><ele>424.0</ele><time>2026-05-02T07:56:45.013Z</time></trkpt><trkpt lat="43.5131867" lon="12.5477771"><ele>425.79999999999995</ele><time>2026-05-02T07:56:46.008Z</time></trkpt><trkpt lat="43.5131096" lon="12.5478774"><ele>427.59999999999997</ele><time>2026-05-02T07:56:47.01Z</time></trkpt><trkpt lat="43.5130567" lon="12.5480024"><ele>429.4</ele><time>2026-05-02T07:56:48.009Z</time></trkpt><trkpt lat="43.5130204" lon="12.5481421"><ele>431.2</ele><time>2026-05-02T07:56:49.008Z</time></trkpt><trkpt lat="43.5130003" lon="12.5483173"><ele>433.0</ele><time>2026-05-02T07:56:50.01Z</time></trkpt><trkpt lat="43.513007" lon="12.5485179"><ele>432.0</ele><time>2026-05-02T07:56:51.008Z</time></trkpt><trkpt lat="43.5130112" lon="12.5487348"><ele>431.0</ele><time>2026-05-02T07:56:52.017Z</time></trkpt><trkpt lat="43.5130207" lon="12.5489477"><ele>430.0</ele><time>2026-05-02T07:56:53.007Z</time></trkpt><trkpt lat="43.5130451" lon="12.549134"><ele>429.0</ele><time>2026-05-02T07:56:54.014Z</time></trkpt><trkpt lat="43.5130898" lon="12.5493225"><ele>429.0</ele><time>2026-05-02T07:56:55.009Z</time></trkpt><trkpt lat="43.5131615" lon="12.5495139"><ele>429.0</ele><time>2026-05-02T07:56:56.015Z</time></trkpt><trkpt lat="43.5132653" lon="12.5497246"><ele>429.0</ele><time>2026-05-02T07:56:57.009Z</time></trkpt><trkpt lat="43.5133894" lon="12.5499525"><ele>424.0</ele><time>2026-05-02T07:56:58.027Z</time></trkpt><trkpt lat="43.513499" lon="12.5501823"><ele>419.0</ele><time>2026-05-02T07:56:59.025Z</time></trkpt><trkpt lat="43.5135949" lon="12.5503937"><ele>414.0</ele><time>2026-05-02T07:57:00.025Z</time></trkpt><trkpt lat="43.513686" lon="12.5505857"><ele>413.75</ele><time>2026-05-02T07:57:01.017Z</time></trkpt><trkpt lat="43.5137729" lon="12.5507563"><ele>413.5</ele><time>2026-05-02T07:57:02.007Z</time></trkpt><trkpt lat="43.5138447" lon="12.5509135"><ele>413.25</ele><time>2026-05-02T07:57:03.04Z</time></trkpt><trkpt lat="43.5139075" lon="12.5510611"><ele>413.0</ele><time>2026-05-02T07:57:04.03Z</time></trkpt><trkpt lat="43.5139484" lon="12.5512035"><ele>412.3333333333333</ele><time>2026-05-02T07:57:05.015Z</time></trkpt><trkpt lat="43.5139608" lon="12.5513388"><ele>411.66666666666663</ele><time>2026-05-02T07:57:06.011Z</time></trkpt><trkpt lat="43.5139556" lon="12.5514662"><ele>411.0</ele><time>2026-05-02T07:57:07.017Z</time></trkpt><trkpt lat="43.5139389" lon="12.5515685"><ele>410.33333333333337</ele><time>2026-05-02T07:57:08.017Z</time></trkpt><trkpt lat="43.5139273" lon="12.5516589"><ele>409.6666666666667</ele><time>2026-05-02T07:57:09.013Z</time></trkpt><trkpt lat="43.5139461" lon="12.551792"><ele>409.0</ele><time>2026-05-02T07:57:11.032Z</time></trkpt><trkpt lat="43.5140347" lon="12.5518942"><ele>409.0</ele><time>2026-05-02T07:57:13.019Z</time></trkpt><trkpt lat="43.5141202" lon="12.5519958"><ele>409.0</ele><time>2026-05-02T07:57:15.044Z</time></trkpt><trkpt lat="43.5141848" lon="12.5520985"><ele>409.0</ele><time>2026-05-02T07:57:17.034Z</time></trkpt><trkpt lat="43.5142373" lon="12.5522191"><ele>409.0</ele><time>2026-05-02T07:57:19.009Z</time></trkpt><trkpt lat="43.5142771" lon="12.5523123"><ele>409.0</ele><time>2026-05-02T07:57:20.019Z</time></trkpt><trkpt lat="43.514312" lon="12.5524246"><ele>406.79999999999995</ele><time>2026-05-02T07:57:21.008Z</time></trkpt><trkpt lat="43.5143587" lon="12.5525524"><ele>404.59999999999997</ele><time>2026-05-02T07:57:22.021Z</time></trkpt><trkpt lat="43.5144056" lon="12.552685"><ele>402.4</ele><time>2026-05-02T07:57:23.015Z</time></trkpt><trkpt lat="43.5144497" lon="12.5528104"><ele>400.2</ele><time>2026-05-02T07:57:24.024Z</time></trkpt><trkpt lat="43.5144954" lon="12.5529363"><ele>398.0</ele><time>2026-05-02T07:57:25.017Z</time></trkpt><trkpt lat="43.5145402" lon="12.5530746"><ele>398.3333333333333</ele><time>2026-05-02T07:57:26.008Z</time></trkpt><trkpt lat="43.5145773" lon="12.5532025"><ele>398.66666666666663</ele><time>2026-05-02T07:57:27.021Z</time></trkpt><trkpt lat="43.5146131" lon="12.5533158"><ele>399.0</ele><time>2026-05-02T07:57:28.009Z</time></trkpt><trkpt lat="43.5146491" lon="12.5534311"><ele>399.33333333333337</ele><time>2026-05-02T07:57:29.032Z</time></trkpt><trkpt lat="43.5146802" lon="12.5535379"><ele>399.6666666666667</ele><time>2026-05-02T07:57:30.01Z</time></trkpt><trkpt lat="43.5147022" lon="12.5536485"><ele>400.0</ele><time>2026-05-02T07:57:31.023Z</time></trkpt><trkpt lat="43.5147234" lon="12.5537516"><ele>400.0</ele><time>2026-05-02T07:57:32.009Z</time></trkpt><trkpt lat="43.5147429" lon="12.5538549"><ele>400.0</ele><time>2026-05-02T07:57:33.017Z</time></trkpt><trkpt lat="43.5147634" lon="12.5539535"><ele>400.0</ele><time>2026-05-02T07:57:34.029Z</time></trkpt><trkpt lat="43.514779" lon="12.5540481"><ele>400.0</ele><time>2026-05-02T07:57:35.012Z</time></trkpt><trkpt lat="43.5147996" lon="12.5542109"><ele>400.0</ele><time>2026-05-02T07:57:37.017Z</time></trkpt><trkpt lat="43.514819" lon="12.5543598"><ele>400.00000000000006</ele><time>2026-05-02T07:57:39.012Z</time></trkpt><trkpt lat="43.5148464" lon="12.5544867"><ele>400.0</ele><time>2026-05-02T07:57:41.022Z</time></trkpt><trkpt lat="43.5148619" lon="12.5545926"><ele>400.0</ele><time>2026-05-02T07:57:44.008Z</time></trkpt><trkpt lat="43.5148398" lon="12.5546789"><ele>400.0</ele><time>2026-05-02T08:00:41.04Z</time></trkpt><trkpt lat="43.5148333" lon="12.5548116"><ele>400.00000000000006</ele><time>2026-05-02T08:00:44.01Z</time></trkpt><trkpt lat="43.5148604" lon="12.5549096"><ele>400.0</ele><time>2026-05-02T08:00:46.021Z</time></trkpt><trkpt lat="43.5148796" lon="12.5550201"><ele>399.83333333333337</ele><time>2026-05-02T08:00:48.015Z</time></trkpt><trkpt lat="43.5148927" lon="12.5551368"><ele>399.6666666666667</ele><time>2026-05-02T08:00:51.024Z</time></trkpt><trkpt lat="43.514891" lon="12.5552482"><ele>399.5</ele><time>2026-05-02T08:00:53.01Z</time></trkpt><trkpt lat="43.5148606" lon="12.5553385"><ele>399.33333333333337</ele><time>2026-05-02T08:00:54.03Z</time></trkpt><trkpt lat="43.5148366" lon="12.5554377"><ele>399.1666666666667</ele><time>2026-05-02T08:00:55.023Z</time></trkpt><trkpt lat="43.5148198" lon="12.5555437"><ele>399.0</ele><time>2026-05-02T08:00:56.022Z</time></trkpt><trkpt lat="43.5147946" lon="12.5556675"><ele>399.0</ele><time>2026-05-02T08:00:57.01Z</time></trkpt><trkpt lat="43.5147763" lon="12.5557929"><ele>399.0</ele><time>2026-05-02T08:00:58.021Z</time></trkpt><trkpt lat="43.5147575" lon="12.5558813"><ele>399.0</ele><time>2026-05-02T08:00:59.016Z</time></trkpt><trkpt lat="43.5147405" lon="12.5560529"><ele>399.0</ele><time>2026-05-02T08:01:01.033Z</time></trkpt><trkpt lat="43.5147267" lon="12.5561399"><ele>399.0</ele><time>2026-05-02T08:01:02.031Z</time></trkpt><trkpt lat="43.5147075" lon="12.5562681"><ele>399.0</ele><time>2026-05-02T08:01:04.028Z</time></trkpt><trkpt lat="43.514687" lon="12.5563824"><ele>399.0</ele><time>2026-05-02T08:01:07.024Z</time></trkpt><trkpt lat="43.514715" lon="12.5562552"><ele>399.0</ele><time>2026-05-02T08:01:14.019Z</time></trkpt><trkpt lat="43.5147281" lon="12.5561422"><ele>399.0</ele><time>2026-05-02T08:01:15.016Z</time></trkpt><trkpt lat="43.5147439" lon="12.5560358"><ele>399.0</ele><time>2026-05-02T08:01:16.012Z</time></trkpt><trkpt lat="43.5147538" lon="12.5559242"><ele>399.0</ele><time>2026-05-02T08:01:17.022Z</time></trkpt><trkpt lat="43.5147668" lon="12.5558183"><ele>399.0</ele><time>2026-05-02T08:01:18.026Z</time></trkpt><trkpt lat="43.5147751" lon="12.5557316"><ele>399.0</ele><time>2026-05-02T08:01:19.021Z</time></trkpt><trkpt lat="43.5147983" lon="12.5555823"><ele>399.0</ele><time>2026-05-02T08:01:21.022Z</time></trkpt><trkpt lat="43.5148276" lon="12.5554618"><ele>399.0</ele><time>2026-05-02T08:01:23.021Z</time></trkpt><trkpt lat="43.5148707" lon="12.5553095"><ele>399.0</ele><time>2026-05-02T08:01:25.023Z</time></trkpt><trkpt lat="43.514888" lon="12.5551943"><ele>399.0</ele><time>2026-05-02T08:01:27.031Z</time></trkpt><trkpt lat="43.5148901" lon="12.5550948"><ele>399.1666666666667</ele><time>2026-05-02T08:01:29.017Z</time></trkpt><trkpt lat="43.5148845" lon="12.5550061"><ele>399.33333333333337</ele><time>2026-05-02T08:01:31.023Z</time></trkpt><trkpt lat="43.5148815" lon="12.5549169"><ele>399.5</ele><time>2026-05-02T08:01:33.016Z</time></trkpt><trkpt lat="43.5148586" lon="12.5548001"><ele>399.6666666666667</ele><time>2026-05-02T08:01:35.015Z</time></trkpt><trkpt lat="43.5148338" lon="12.5547058"><ele>399.83333333333337</ele><time>2026-05-02T08:01:37.04Z</time></trkpt><trkpt lat="43.5148389" lon="12.5545786"><ele>400.0</ele><time>2026-05-02T08:01:39.029Z</time></trkpt><trkpt lat="43.5148296" lon="12.5544862"><ele>400.00000000000006</ele><time>2026-05-02T08:01:40.023Z</time></trkpt><trkpt lat="43.5148187" lon="12.5543935"><ele>400.0</ele><time>2026-05-02T08:01:41.027Z</time></trkpt><trkpt lat="43.5148061" lon="12.5542966"><ele>400.0</ele><time>2026-05-02T08:01:42.008Z</time></trkpt><trkpt lat="43.5147873" lon="12.554166"><ele>400.0</ele><time>2026-05-02T08:01:43.019Z</time></trkpt><trkpt lat="43.5147653" lon="12.5540313"><ele>400.00000000000006</ele><time>2026-05-02T08:01:44.016Z</time></trkpt><trkpt lat="43.5147394" lon="12.5538957"><ele>400.0</ele><time>2026-05-02T08:01:45.028Z</time></trkpt><trkpt lat="43.514709" lon="12.5537449"><ele>398.4</ele><time>2026-05-02T08:01:46.02Z</time></trkpt><trkpt lat="43.5146666" lon="12.5535967"><ele>396.8</ele><time>2026-05-02T08:01:47.026Z</time></trkpt><trkpt lat="43.5146411" lon="12.5534564"><ele>395.20000000000005</ele><time>2026-05-02T08:01:48.019Z</time></trkpt><trkpt lat="43.5146121" lon="12.5533235"><ele>393.6</ele><time>2026-05-02T08:01:49.027Z</time></trkpt><trkpt lat="43.5145717" lon="12.5531833"><ele>392.0</ele><time>2026-05-02T08:01:50.017Z</time></trkpt><trkpt lat="43.5145295" lon="12.5530435"><ele>392.0</ele><time>2026-05-02T08:01:51.018Z</time></trkpt><trkpt lat="43.514484" lon="12.5529048"><ele>392.0</ele><time>2026-05-02T08:01:52.02Z</time></trkpt><trkpt lat="43.5144313" lon="12.5527508"><ele>392.0</ele><time>2026-05-02T08:01:53.034Z</time></trkpt><trkpt lat="43.5143836" lon="12.552595"><ele>392.0</ele><time>2026-05-02T08:01:54.021Z</time></trkpt><trkpt lat="43.5143305" lon="12.5524543"><ele>392.99999999999994</ele><time>2026-05-02T08:01:55.017Z</time></trkpt><trkpt lat="43.5142829" lon="12.5523294"><ele>394.0</ele><time>2026-05-02T08:01:56.02Z</time></trkpt><trkpt lat="43.5142352" lon="12.5522131"><ele>395.0</ele><time>2026-05-02T08:01:57.029Z</time></trkpt><trkpt lat="43.514194" lon="12.5521137"><ele>396.0</ele><time>2026-05-02T08:01:58.026Z</time></trkpt><trkpt lat="43.514151" lon="12.5520224"><ele>396.99999999999994</ele><time>2026-05-02T08:01:59.021Z</time></trkpt><trkpt lat="43.5141146" lon="12.5519239"><ele>398.0</ele><time>2026-05-02T08:02:00.021Z</time></trkpt><trkpt lat="43.514088" lon="12.551836"><ele>400.2</ele><time>2026-05-02T08:02:01.019Z</time></trkpt><trkpt lat="43.5140378" lon="12.5517248"><ele>402.4</ele><time>2026-05-02T08:02:03.018Z</time></trkpt><trkpt lat="43.5139744" lon="12.5516913"><ele>404.59999999999997</ele><time>2026-05-02T08:02:05.024Z</time></trkpt><trkpt lat="43.5138876" lon="12.5517903"><ele>406.79999999999995</ele><time>2026-05-02T08:02:07.022Z</time></trkpt><trkpt lat="43.5138274" lon="12.5518985"><ele>409.0</ele><time>2026-05-02T08:02:08.027Z</time></trkpt><trkpt lat="43.5137541" lon="12.5520192"><ele>404.25</ele><time>2026-05-02T08:02:09.033Z</time></trkpt><trkpt lat="43.5136812" lon="12.5521616"><ele>399.5</ele><time>2026-05-02T08:02:10.019Z</time></trkpt><trkpt lat="43.5136184" lon="12.5522913"><ele>394.75</ele><time>2026-05-02T08:02:11.023Z</time></trkpt><trkpt lat="43.5135526" lon="12.5524201"><ele>390.0</ele><time>2026-05-02T08:02:12.035Z</time></trkpt><trkpt lat="43.5134918" lon="12.5525516"><ele>390.0</ele><time>2026-05-02T08:02:13.026Z</time></trkpt><trkpt lat="43.5134234" lon="12.5526704"><ele>390.0</ele><time>2026-05-02T08:02:14.024Z</time></trkpt><trkpt lat="43.5133595" lon="12.5527995"><ele>390.0</ele><time>2026-05-02T08:02:15.022Z</time></trkpt><trkpt lat="43.5132995" lon="12.5529253"><ele>390.0</ele><time>2026-05-02T08:02:16.021Z</time></trkpt><trkpt lat="43.5132305" lon="12.5530596"><ele>389.75</ele><time>2026-05-02T08:02:17.038Z</time></trkpt><trkpt lat="43.5131511" lon="12.5532079"><ele>389.5</ele><time>2026-05-02T08:02:18.034Z</time></trkpt><trkpt lat="43.5130714" lon="12.5533635"><ele>389.25</ele><time>2026-05-02T08:02:19.024Z</time></trkpt><trkpt lat="43.5129889" lon="12.5535201"><ele>389.0</ele><time>2026-05-02T08:02:20.019Z</time></trkpt><trkpt lat="43.5129174" lon="12.5536631"><ele>390.6</ele><time>2026-05-02T08:02:21.032Z</time></trkpt><trkpt lat="43.5128562" lon="12.553787"><ele>392.2</ele><time>2026-05-02T08:02:22.013Z</time></trkpt><trkpt lat="43.5127933" lon="12.5538923"><ele>393.8</ele><time>2026-05-02T08:02:23.031Z</time></trkpt><trkpt lat="43.5127191" lon="12.55397"><ele>395.40000000000003</ele><time>2026-05-02T08:02:24.015Z</time></trkpt><trkpt lat="43.5126544" lon="12.5539902"><ele>397.0</ele><time>2026-05-02T08:02:25.012Z</time></trkpt><trkpt lat="43.5125503" lon="12.5539148"><ele>397.00000000000006</ele><time>2026-05-02T08:02:27.009Z</time></trkpt><trkpt lat="43.5125101" lon="12.5538276"><ele>397.0</ele><time>2026-05-02T08:02:28.024Z</time></trkpt><trkpt lat="43.5124725" lon="12.5537105"><ele>397.0</ele><time>2026-05-02T08:02:29.024Z</time></trkpt><trkpt lat="43.512428" lon="12.5536079"><ele>397.0</ele><time>2026-05-02T08:02:30.025Z</time></trkpt><trkpt lat="43.5123902" lon="12.5534994"><ele>397.00000000000006</ele><time>2026-05-02T08:02:31.012Z</time></trkpt><trkpt lat="43.512347" lon="12.5534144"><ele>397.0</ele><time>2026-05-02T08:02:32.023Z</time></trkpt><trkpt lat="43.5122837" lon="12.5533375"><ele>396.50000000000006</ele><time>2026-05-02T08:02:33.019Z</time></trkpt><trkpt lat="43.5122071" lon="12.5532794"><ele>396.0</ele><time>2026-05-02T08:02:34.021Z</time></trkpt><trkpt lat="43.5121467" lon="12.5532477"><ele>395.5</ele><time>2026-05-02T08:02:35.012Z</time></trkpt><trkpt lat="43.5120735" lon="12.5532187"><ele>395.0</ele><time>2026-05-02T08:02:36.007Z</time></trkpt><trkpt lat="43.5120074" lon="12.5531757"><ele>394.50000000000006</ele><time>2026-05-02T08:02:37.019Z</time></trkpt><trkpt lat="43.5119396" lon="12.5531048"><ele>394.0</ele><time>2026-05-02T08:02:38.015Z</time></trkpt><trkpt lat="43.5118664" lon="12.5529924"><ele>395.5</ele><time>2026-05-02T08:02:39.013Z</time></trkpt><trkpt lat="43.511796" lon="12.5528317"><ele>397.0</ele><time>2026-05-02T08:02:40.011Z</time></trkpt><trkpt lat="43.5117166" lon="12.5526542"><ele>398.5</ele><time>2026-05-02T08:02:41.016Z</time></trkpt><trkpt lat="43.5116424" lon="12.5524676"><ele>400.0</ele><time>2026-05-02T08:02:42.009Z</time></trkpt><trkpt lat="43.5115644" lon="12.5522977"><ele>400.0</ele><time>2026-05-02T08:02:43.007Z</time></trkpt><trkpt lat="43.5114916" lon="12.5521251"><ele>400.0</ele><time>2026-05-02T08:02:44.025Z</time></trkpt><trkpt lat="43.5114107" lon="12.5519654"><ele>400.0</ele><time>2026-05-02T08:02:45.018Z</time></trkpt><trkpt lat="43.5113339" lon="12.5518049"><ele>400.0</ele><time>2026-05-02T08:02:46.009Z</time></trkpt><trkpt lat="43.511245" lon="12.5516392"><ele>400.33333333333337</ele><time>2026-05-02T08:02:47.01Z</time></trkpt><trkpt lat="43.5111479" lon="12.5514747"><ele>400.66666666666663</ele><time>2026-05-02T08:02:48.014Z</time></trkpt><trkpt lat="43.5110504" lon="12.5513107"><ele>401.0</ele><time>2026-05-02T08:02:49.015Z</time></trkpt><trkpt lat="43.5109557" lon="12.5511486"><ele>401.0</ele><time>2026-05-02T08:02:50.01Z</time></trkpt><trkpt lat="43.5108757" lon="12.550974"><ele>401.0</ele><time>2026-05-02T08:02:51.011Z</time></trkpt><trkpt lat="43.510809" lon="12.5507858"><ele>401.0</ele><time>2026-05-02T08:02:52.014Z</time></trkpt><trkpt lat="43.5107477" lon="12.5505717"><ele>400.3333333333333</ele><time>2026-05-02T08:02:53.023Z</time></trkpt><trkpt lat="43.5106857" lon="12.5503208"><ele>399.66666666666663</ele><time>2026-05-02T08:02:54.011Z</time></trkpt><trkpt lat="43.5106196" lon="12.5500485"><ele>399.0</ele><time>2026-05-02T08:02:55.015Z</time></trkpt><trkpt lat="43.5105647" lon="12.5498018"><ele>399.0</ele><time>2026-05-02T08:02:56.011Z</time></trkpt><trkpt lat="43.5105058" lon="12.5495651"><ele>399.0</ele><time>2026-05-02T08:02:57.016Z</time></trkpt><trkpt lat="43.5104484" lon="12.5493284"><ele>399.0</ele><time>2026-05-02T08:02:58.007Z</time></trkpt><trkpt lat="43.5103853" lon="12.549062"><ele>402.33333333333337</ele><time>2026-05-02T08:02:59.012Z</time></trkpt><trkpt lat="43.5103164" lon="12.5487953"><ele>405.6666666666667</ele><time>2026-05-02T08:03:00.007Z</time></trkpt><trkpt lat="43.5102509" lon="12.5485324"><ele>409.0</ele><time>2026-05-02T08:03:01.016Z</time></trkpt><trkpt lat="43.5101837" lon="12.5482784"><ele>409.0</ele><time>2026-05-02T08:03:02.023Z</time></trkpt><trkpt lat="43.510124" lon="12.5480362"><ele>409.0</ele><time>2026-05-02T08:03:03.039Z</time></trkpt><trkpt lat="43.5100587" lon="12.547793"><ele>409.0</ele><time>2026-05-02T08:03:04.021Z</time></trkpt><trkpt lat="43.5099948" lon="12.5475425"><ele>408.6666666666667</ele><time>2026-05-02T08:03:05.024Z</time></trkpt><trkpt lat="43.5099296" lon="12.5472884"><ele>408.33333333333337</ele><time>2026-05-02T08:03:06.016Z</time></trkpt><trkpt lat="43.5098705" lon="12.54702"><ele>408.0</ele><time>2026-05-02T08:03:07.008Z</time></trkpt><trkpt lat="43.5098049" lon="12.5467586"><ele>406.66666666666663</ele><time>2026-05-02T08:03:08.014Z</time></trkpt><trkpt lat="43.5097402" lon="12.5465122"><ele>405.3333333333333</ele><time>2026-05-02T08:03:09.018Z</time></trkpt><trkpt lat="43.5096788" lon="12.5462639"><ele>404.0</ele><time>2026-05-02T08:03:10.018Z</time></trkpt><trkpt lat="43.5096296" lon="12.5460202"><ele>404.0</ele><time>2026-05-02T08:03:11.011Z</time></trkpt><trkpt lat="43.5095882" lon="12.5457822"><ele>404.0</ele><time>2026-05-02T08:03:12.016Z</time></trkpt><trkpt lat="43.5095508" lon="12.5455619"><ele>404.0</ele><time>2026-05-02T08:03:13.003Z</time></trkpt><trkpt lat="43.5095086" lon="12.5453476"><ele>410.66666666666663</ele><time>2026-05-02T08:03:14.012Z</time></trkpt><trkpt lat="43.5094538" lon="12.5451353"><ele>417.33333333333337</ele><time>2026-05-02T08:03:15.013Z</time></trkpt><trkpt lat="43.5093856" lon="12.5449333"><ele>424.0</ele><time>2026-05-02T08:03:16.031Z</time></trkpt><trkpt lat="43.5093045" lon="12.5447449"><ele>424.0</ele><time>2026-05-02T08:03:17.017Z</time></trkpt><trkpt lat="43.5092089" lon="12.5445622"><ele>424.0</ele><time>2026-05-02T08:03:18.008Z</time></trkpt><trkpt lat="43.509111" lon="12.54438"><ele>424.0</ele><time>2026-05-02T08:03:19.023Z</time></trkpt><trkpt lat="43.5090112" lon="12.5441931"><ele>421.33333333333337</ele><time>2026-05-02T08:03:20.013Z</time></trkpt><trkpt lat="43.5089185" lon="12.5440048"><ele>418.66666666666663</ele><time>2026-05-02T08:03:21.015Z</time></trkpt><trkpt lat="43.5088212" lon="12.5438204"><ele>416.0</ele><time>2026-05-02T08:03:22.015Z</time></trkpt><trkpt lat="43.5087219" lon="12.5436284"><ele>416.0</ele><time>2026-05-02T08:03:23.015Z</time></trkpt><trkpt lat="43.5086185" lon="12.5434196"><ele>416.0</ele><time>2026-05-02T08:03:24.015Z</time></trkpt><trkpt lat="43.5085063" lon="12.543202"><ele>416.0</ele><time>2026-05-02T08:03:25.014Z</time></trkpt><trkpt lat="43.5083864" lon="12.5429705"><ele>413.66666666666663</ele><time>2026-05-02T08:03:26.013Z</time></trkpt><trkpt lat="43.5082615" lon="12.542733"><ele>411.33333333333337</ele><time>2026-05-02T08:03:27.018Z</time></trkpt><trkpt lat="43.5081404" lon="12.5424926"><ele>409.0</ele><time>2026-05-02T08:03:28.012Z</time></trkpt><trkpt lat="43.5080242" lon="12.5422573"><ele>413.0</ele><time>2026-05-02T08:03:29.005Z</time></trkpt><trkpt lat="43.5079038" lon="12.5420307"><ele>417.0</ele><time>2026-05-02T08:03:30.011Z</time></trkpt><trkpt lat="43.5077818" lon="12.5418003"><ele>421.0</ele><time>2026-05-02T08:03:31.019Z</time></trkpt><trkpt lat="43.5076609" lon="12.5415813"><ele>421.0</ele><time>2026-05-02T08:03:32.013Z</time></trkpt><trkpt lat="43.5075431" lon="12.5413597"><ele>421.0</ele><time>2026-05-02T08:03:33.014Z</time></trkpt><trkpt lat="43.507413" lon="12.5411416"><ele>421.0</ele><time>2026-05-02T08:03:34.014Z</time></trkpt><trkpt lat="43.5072698" lon="12.5409237"><ele>420.33333333333337</ele><time>2026-05-02T08:03:35.015Z</time></trkpt><trkpt lat="43.5071201" lon="12.5407127"><ele>419.66666666666663</ele><time>2026-05-02T08:03:36.012Z</time></trkpt><trkpt lat="43.5069772" lon="12.5405129"><ele>419.0</ele><time>2026-05-02T08:03:37.012Z</time></trkpt><trkpt lat="43.5068367" lon="12.5403265"><ele>419.0</ele><time>2026-05-02T08:03:38.011Z</time></trkpt><trkpt lat="43.5067029" lon="12.5401298"><ele>419.0</ele><time>2026-05-02T08:03:39.015Z</time></trkpt><trkpt lat="43.5065707" lon="12.539939"><ele>419.0</ele><time>2026-05-02T08:03:40.018Z</time></trkpt><trkpt lat="43.5064403" lon="12.53976"><ele>419.0</ele><time>2026-05-02T08:03:41.017Z</time></trkpt><trkpt lat="43.5063208" lon="12.5395762"><ele>419.0</ele><time>2026-05-02T08:03:42.015Z</time></trkpt><trkpt lat="43.5062211" lon="12.5393716"><ele>419.0</ele><time>2026-05-02T08:03:43.01Z</time></trkpt><trkpt lat="43.5061378" lon="12.5391515"><ele>422.0</ele><time>2026-05-02T08:03:44.008Z</time></trkpt><trkpt lat="43.5060824" lon="12.5389226"><ele>425.0</ele><time>2026-05-02T08:03:45.007Z</time></trkpt><trkpt lat="43.5060346" lon="12.53869"><ele>428.0</ele><time>2026-05-02T08:03:46.012Z</time></trkpt><trkpt lat="43.5060009" lon="12.5384555"><ele>428.0</ele><time>2026-05-02T08:03:47.016Z</time></trkpt><trkpt lat="43.5059662" lon="12.5382333"><ele>428.0</ele><time>2026-05-02T08:03:48.013Z</time></trkpt><trkpt lat="43.5059346" lon="12.5380313"><ele>428.0</ele><time>2026-05-02T08:03:49.016Z</time></trkpt><trkpt lat="43.5058947" lon="12.537835"><ele>427.0</ele><time>2026-05-02T08:03:50.019Z</time></trkpt><trkpt lat="43.5058599" lon="12.5376272"><ele>426.0</ele><time>2026-05-02T08:03:51.015Z</time></trkpt><trkpt lat="43.5058208" lon="12.5374081"><ele>425.0</ele><time>2026-05-02T08:03:52.019Z</time></trkpt><trkpt lat="43.5057806" lon="12.5371807"><ele>425.3333333333333</ele><time>2026-05-02T08:03:53.003Z</time></trkpt><trkpt lat="43.5057423" lon="12.5369608"><ele>425.66666666666663</ele><time>2026-05-02T08:03:54.012Z</time></trkpt><trkpt lat="43.5057087" lon="12.5367549"><ele>426.0</ele><time>2026-05-02T08:03:55.017Z</time></trkpt><trkpt lat="43.5056715" lon="12.5365557"><ele>426.0</ele><time>2026-05-02T08:03:56.012Z</time></trkpt><trkpt lat="43.5056359" lon="12.5363637"><ele>426.0</ele><time>2026-05-02T08:03:57.014Z</time></trkpt><trkpt lat="43.5055953" lon="12.5361755"><ele>426.0</ele><time>2026-05-02T08:03:58.011Z</time></trkpt><trkpt lat="43.5055446" lon="12.5359888"><ele>426.0</ele><time>2026-05-02T08:03:59.015Z</time></trkpt><trkpt lat="43.5054735" lon="12.5358099"><ele>426.66666666666663</ele><time>2026-05-02T08:04:00.01Z</time></trkpt><trkpt lat="43.505376" lon="12.5356478"><ele>427.3333333333333</ele><time>2026-05-02T08:04:01.022Z</time></trkpt><trkpt lat="43.5052532" lon="12.5354881"><ele>428.0</ele><time>2026-05-02T08:04:02.021Z</time></trkpt><trkpt lat="43.5051109" lon="12.5353253"><ele>428.0</ele><time>2026-05-02T08:04:03.014Z</time></trkpt><trkpt lat="43.5049592" lon="12.53515"><ele>428.0</ele><time>2026-05-02T08:04:04.011Z</time></trkpt><trkpt lat="43.50481" lon="12.5349567"><ele>428.0</ele><time>2026-05-02T08:04:05.008Z</time></trkpt><trkpt lat="43.5046582" lon="12.5347657"><ele>428.66666666666663</ele><time>2026-05-02T08:04:06.013Z</time></trkpt><trkpt lat="43.5045111" lon="12.5345934"><ele>429.33333333333337</ele><time>2026-05-02T08:04:07.021Z</time></trkpt><trkpt lat="43.5043788" lon="12.5344185"><ele>430.0</ele><time>2026-05-02T08:04:08.012Z</time></trkpt><trkpt lat="43.5042434" lon="12.5342415"><ele>430.0</ele><time>2026-05-02T08:04:09.016Z</time></trkpt><trkpt lat="43.5041118" lon="12.5340496"><ele>430.0</ele><time>2026-05-02T08:04:10.021Z</time></trkpt><trkpt lat="43.5039881" lon="12.5338429"><ele>430.0</ele><time>2026-05-02T08:04:11.02Z</time></trkpt><trkpt lat="43.5038736" lon="12.533638"><ele>428.6666666666667</ele><time>2026-05-02T08:04:12.027Z</time></trkpt><trkpt lat="43.5037631" lon="12.5334271"><ele>427.33333333333337</ele><time>2026-05-02T08:04:13.013Z</time></trkpt><trkpt lat="43.5036404" lon="12.5332071"><ele>426.0</ele><time>2026-05-02T08:04:14.025Z</time></trkpt><trkpt lat="43.5035189" lon="12.5329858"><ele>431.33333333333337</ele><time>2026-05-02T08:04:15.027Z</time></trkpt><trkpt lat="43.5034253" lon="12.5327847"><ele>436.6666666666667</ele><time>2026-05-02T08:04:16.029Z</time></trkpt><trkpt lat="43.5033548" lon="12.5325857"><ele>442.0</ele><time>2026-05-02T08:04:17.011Z</time></trkpt><trkpt lat="43.503304" lon="12.5323873"><ele>442.0</ele><time>2026-05-02T08:04:18.006Z</time></trkpt><trkpt lat="43.5032649" lon="12.532167"><ele>442.0</ele><time>2026-05-02T08:04:19.03Z</time></trkpt><trkpt lat="43.5032482" lon="12.5319229"><ele>442.0</ele><time>2026-05-02T08:04:20.015Z</time></trkpt><trkpt lat="43.5032338" lon="12.5316736"><ele>441.33333333333337</ele><time>2026-05-02T08:04:21.008Z</time></trkpt><trkpt lat="43.5032177" lon="12.5314409"><ele>440.66666666666663</ele><time>2026-05-02T08:04:22.015Z</time></trkpt><trkpt lat="43.5032003" lon="12.5312255"><ele>440.0</ele><time>2026-05-02T08:04:23.034Z</time></trkpt><trkpt lat="43.5031746" lon="12.5310285"><ele>440.0</ele><time>2026-05-02T08:04:24.018Z</time></trkpt><trkpt lat="43.5031459" lon="12.5308386"><ele>440.0</ele><time>2026-05-02T08:04:25.015Z</time></trkpt><trkpt lat="43.5031007" lon="12.5306557"><ele>440.0</ele><time>2026-05-02T08:04:26.03Z</time></trkpt><trkpt lat="43.5030235" lon="12.5304682"><ele>440.0</ele><time>2026-05-02T08:04:27.009Z</time></trkpt><trkpt lat="43.5029156" lon="12.5302914"><ele>445.0</ele><time>2026-05-02T08:04:28.014Z</time></trkpt><trkpt lat="43.5027887" lon="12.5301043"><ele>450.0</ele><time>2026-05-02T08:04:29.017Z</time></trkpt><trkpt lat="43.5026606" lon="12.5299232"><ele>455.0</ele><time>2026-05-02T08:04:30.01Z</time></trkpt><trkpt lat="43.5025364" lon="12.5297425"><ele>455.0</ele><time>2026-05-02T08:04:31.008Z</time></trkpt><trkpt lat="43.5024167" lon="12.529566"><ele>455.0</ele><time>2026-05-02T08:04:32.025Z</time></trkpt><trkpt lat="43.5023021" lon="12.529403"><ele>455.0</ele><time>2026-05-02T08:04:33.017Z</time></trkpt><trkpt lat="43.502204" lon="12.5292536"><ele>453.25</ele><time>2026-05-02T08:04:34.016Z</time></trkpt><trkpt lat="43.5021341" lon="12.5290922"><ele>451.5</ele><time>2026-05-02T08:04:35.011Z</time></trkpt><trkpt lat="43.5020838" lon="12.5289248"><ele>449.75</ele><time>2026-05-02T08:04:36.01Z</time></trkpt><trkpt lat="43.502052" lon="12.5287389"><ele>448.0</ele><time>2026-05-02T08:04:37.016Z</time></trkpt><trkpt lat="43.5020428" lon="12.5285222"><ele>455.0</ele><time>2026-05-02T08:04:38.016Z</time></trkpt><trkpt lat="43.5020507" lon="12.5282655"><ele>462.0</ele><time>2026-05-02T08:04:39.006Z</time></trkpt><trkpt lat="43.5020488" lon="12.5280222"><ele>469.0</ele><time>2026-05-02T08:04:40.001Z</time></trkpt><trkpt lat="43.5020438" lon="12.5277728"><ele>470.33333333333337</ele><time>2026-05-02T08:04:41.013Z</time></trkpt><trkpt lat="43.502042" lon="12.5275253"><ele>471.66666666666663</ele><time>2026-05-02T08:04:42.02Z</time></trkpt><trkpt lat="43.5020357" lon="12.5272795"><ele>473.0</ele><time>2026-05-02T08:04:43.013Z</time></trkpt><trkpt lat="43.5020362" lon="12.5270252"><ele>473.3333333333333</ele><time>2026-05-02T08:04:44.014Z</time></trkpt><trkpt lat="43.5020377" lon="12.5267646"><ele>473.66666666666663</ele><time>2026-05-02T08:04:45.027Z</time></trkpt><trkpt lat="43.5020439" lon="12.5265167"><ele>474.0</ele><time>2026-05-02T08:04:46.006Z</time></trkpt><trkpt lat="43.5020467" lon="12.5262686"><ele>475.0</ele><time>2026-05-02T08:04:47.005Z</time></trkpt><trkpt lat="43.5020457" lon="12.5260349"><ele>476.0</ele><time>2026-05-02T08:04:48.012Z</time></trkpt><trkpt lat="43.5020154" lon="12.5258164"><ele>477.0</ele><time>2026-05-02T08:04:49.002Z</time></trkpt><trkpt lat="43.5019708" lon="12.5255878"><ele>476.0</ele><time>2026-05-02T08:04:50.016Z</time></trkpt><trkpt lat="43.5019165" lon="12.5253498"><ele>475.0</ele><time>2026-05-02T08:04:51.017Z</time></trkpt><trkpt lat="43.5018646" lon="12.5251077"><ele>474.0</ele><time>2026-05-02T08:04:52.018Z</time></trkpt><trkpt lat="43.5018151" lon="12.5248577"><ele>474.0</ele><time>2026-05-02T08:04:53.006Z</time></trkpt><trkpt lat="43.5017632" lon="12.5245986"><ele>474.0</ele><time>2026-05-02T08:04:54.014Z</time></trkpt><trkpt lat="43.5017136" lon="12.5243384"><ele>474.0</ele><time>2026-05-02T08:04:55.012Z</time></trkpt><trkpt lat="43.5016741" lon="12.5240878"><ele>469.66666666666663</ele><time>2026-05-02T08:04:56.012Z</time></trkpt><trkpt lat="43.5016407" lon="12.5238228"><ele>465.3333333333333</ele><time>2026-05-02T08:04:57.021Z</time></trkpt><trkpt lat="43.5016092" lon="12.5235459"><ele>461.0</ele><time>2026-05-02T08:04:58.002Z</time></trkpt><trkpt lat="43.501581" lon="12.5232623"><ele>460.0</ele><time>2026-05-02T08:04:59.014Z</time></trkpt><trkpt lat="43.5015512" lon="12.5229952"><ele>459.0</ele><time>2026-05-02T08:05:00.015Z</time></trkpt><trkpt lat="43.5015207" lon="12.5227572"><ele>458.0</ele><time>2026-05-02T08:05:01.006Z</time></trkpt><trkpt lat="43.5014859" lon="12.5225376"><ele>457.66666666666663</ele><time>2026-05-02T08:05:02.006Z</time></trkpt><trkpt lat="43.5014598" lon="12.5223178"><ele>457.33333333333337</ele><time>2026-05-02T08:05:03.004Z</time></trkpt><trkpt lat="43.5014414" lon="12.5220857"><ele>457.0</ele><time>2026-05-02T08:05:04.019Z</time></trkpt><trkpt lat="43.5013974" lon="12.5218374"><ele>458.33333333333337</ele><time>2026-05-02T08:05:05.003Z</time></trkpt><trkpt lat="43.5013487" lon="12.5215987"><ele>459.66666666666663</ele><time>2026-05-02T08:05:06.007Z</time></trkpt><trkpt lat="43.5012917" lon="12.5213775"><ele>461.0</ele><time>2026-05-02T08:05:07.004Z</time></trkpt><trkpt lat="43.5012446" lon="12.5211717"><ele>465.66666666666663</ele><time>2026-05-02T08:05:08.003Z</time></trkpt><trkpt lat="43.5011838" lon="12.520969"><ele>470.33333333333337</ele><time>2026-05-02T08:05:09.015Z</time></trkpt><trkpt lat="43.5011163" lon="12.5207729"><ele>475.0</ele><time>2026-05-02T08:05:10.01Z</time></trkpt><trkpt lat="43.5010408" lon="12.5205859"><ele>475.0</ele><time>2026-05-02T08:05:11.012Z</time></trkpt><trkpt lat="43.5009566" lon="12.5204078"><ele>475.0</ele><time>2026-05-02T08:05:12.014Z</time></trkpt><trkpt lat="43.5008715" lon="12.5202167"><ele>475.0</ele><time>2026-05-02T08:05:13.005Z</time></trkpt><trkpt lat="43.5007828" lon="12.52001"><ele>473.33333333333337</ele><time>2026-05-02T08:05:14.01Z</time></trkpt><trkpt lat="43.5006911" lon="12.5197831"><ele>471.66666666666663</ele><time>2026-05-02T08:05:15.007Z</time></trkpt><trkpt lat="43.5005916" lon="12.5195382"><ele>470.0</ele><time>2026-05-02T08:05:16.007Z</time></trkpt><trkpt lat="43.5004875" lon="12.5192793"><ele>469.0</ele><time>2026-05-02T08:05:17.01Z</time></trkpt><trkpt lat="43.5003825" lon="12.519038"><ele>468.0</ele><time>2026-05-02T08:05:18.002Z</time></trkpt><trkpt lat="43.5002767" lon="12.5188004"><ele>467.0</ele><time>2026-05-02T08:05:19.021Z</time></trkpt><trkpt lat="43.500177" lon="12.518573"><ele>466.66666666666663</ele><time>2026-05-02T08:05:20.006Z</time></trkpt><trkpt lat="43.5000963" lon="12.5183534"><ele>466.33333333333337</ele><time>2026-05-02T08:05:21.009Z</time></trkpt><trkpt lat="43.5000313" lon="12.5181411"><ele>466.0</ele><time>2026-05-02T08:05:22.007Z</time></trkpt><trkpt lat="43.4999788" lon="12.517935"><ele>468.6666666666667</ele><time>2026-05-02T08:05:23.02Z</time></trkpt><trkpt lat="43.49994" lon="12.5177125"><ele>471.33333333333337</ele><time>2026-05-02T08:05:24.004Z</time></trkpt><trkpt lat="43.4999115" lon="12.517501"><ele>474.0</ele><time>2026-05-02T08:05:25.012Z</time></trkpt><trkpt lat="43.4999016" lon="12.5172816"><ele>475.33333333333337</ele><time>2026-05-02T08:05:26.007Z</time></trkpt><trkpt lat="43.4999153" lon="12.5170469"><ele>476.6666666666667</ele><time>2026-05-02T08:05:27.006Z</time></trkpt><trkpt lat="43.4999182" lon="12.5168302"><ele>478.0</ele><time>2026-05-02T08:05:28.015Z</time></trkpt><trkpt lat="43.4999146" lon="12.5166289"><ele>478.0</ele><time>2026-05-02T08:05:29.006Z</time></trkpt><trkpt lat="43.499892" lon="12.5164566"><ele>478.0</ele><time>2026-05-02T08:05:30.006Z</time></trkpt><trkpt lat="43.4998423" lon="12.516302"><ele>478.0</ele><time>2026-05-02T08:05:31.011Z</time></trkpt><trkpt lat="43.4997683" lon="12.516173"><ele>478.0</ele><time>2026-05-02T08:05:32.021Z</time></trkpt><trkpt lat="43.4996626" lon="12.5160712"><ele>476.0</ele><time>2026-05-02T08:05:33.009Z</time></trkpt><trkpt lat="43.4995393" lon="12.5159914"><ele>474.0</ele><time>2026-05-02T08:05:34.002Z</time></trkpt><trkpt lat="43.4994073" lon="12.5158952"><ele>472.0</ele><time>2026-05-02T08:05:35.006Z</time></trkpt><trkpt lat="43.4992457" lon="12.5157815"><ele>472.0</ele><time>2026-05-02T08:05:36.018Z</time></trkpt><trkpt lat="43.4990892" lon="12.515657"><ele>472.0</ele><time>2026-05-02T08:05:37.011Z</time></trkpt><trkpt lat="43.4989404" lon="12.5155447"><ele>472.0</ele><time>2026-05-02T08:05:38.013Z</time></trkpt><trkpt lat="43.4987947" lon="12.5154406"><ele>472.25</ele><time>2026-05-02T08:05:39.028Z</time></trkpt><trkpt lat="43.4986676" lon="12.5153442"><ele>472.5</ele><time>2026-05-02T08:05:40.016Z</time></trkpt><trkpt lat="43.4985532" lon="12.5152191"><ele>472.75</ele><time>2026-05-02T08:05:41.015Z</time></trkpt><trkpt lat="43.4984446" lon="12.5150609"><ele>473.0</ele><time>2026-05-02T08:05:42Z</time></trkpt><trkpt lat="43.4983453" lon="12.5148901"><ele>473.0</ele><time>2026-05-02T08:05:43.009Z</time></trkpt><trkpt lat="43.4982515" lon="12.5147304"><ele>473.0</ele><time>2026-05-02T08:05:44.009Z</time></trkpt><trkpt lat="43.4981643" lon="12.5145767"><ele>473.0</ele><time>2026-05-02T08:05:45.016Z</time></trkpt><trkpt lat="43.4980942" lon="12.514422"><ele>473.0</ele><time>2026-05-02T08:05:46.005Z</time></trkpt><trkpt lat="43.498034" lon="12.5142533"><ele>473.75</ele><time>2026-05-02T08:05:47.014Z</time></trkpt><trkpt lat="43.497997" lon="12.5140751"><ele>474.5</ele><time>2026-05-02T08:05:48.009Z</time></trkpt><trkpt lat="43.4979796" lon="12.5138814"><ele>475.25</ele><time>2026-05-02T08:05:49.011Z</time></trkpt><trkpt lat="43.4979708" lon="12.5136619"><ele>476.0</ele><time>2026-05-02T08:05:50.006Z</time></trkpt><trkpt lat="43.4979666" lon="12.5134325"><ele>476.66666666666663</ele><time>2026-05-02T08:05:51.009Z</time></trkpt><trkpt lat="43.4979653" lon="12.5132021"><ele>477.33333333333337</ele><time>2026-05-02T08:05:52.02Z</time></trkpt><trkpt lat="43.4979629" lon="12.5129619"><ele>478.0</ele><time>2026-05-02T08:05:53.008Z</time></trkpt><trkpt lat="43.4979577" lon="12.5127267"><ele>479.5</ele><time>2026-05-02T08:05:54.005Z</time></trkpt><trkpt lat="43.4979482" lon="12.5124842"><ele>481.0</ele><time>2026-05-02T08:05:55.014Z</time></trkpt><trkpt lat="43.4999115" lon="12.517501"><ele>480.0</ele><time>2026-05-02T08:05:25.012Z</time></trkpt><trkpt lat="43.4999016" lon="12.5172816"><ele>479.0</ele><time>2026-05-02T08:05:26.007Z</time></trkpt><trkpt lat="43.4999153" lon="12.5170469"><ele>478.0</ele><time>2026-05-02T08:05:27.006Z</time></trkpt><trkpt lat="43.4999182" lon="12.5168302"><ele>478.0</ele><time>2026-05-02T08:05:28.015Z</time></trkpt><trkpt lat="43.4999146" lon="12.5166289"><ele>478.0</ele><time>2026-05-02T08:05:29.006Z</time></trkpt><trkpt lat="43.499892" lon="12.5164566"><ele>478.0</ele><time>2026-05-02T08:05:30.006Z</time></trkpt><trkpt lat="43.4998423" lon="12.516302"><ele>478.0</ele><time>2026-05-02T08:05:31.011Z</time></trkpt><trkpt lat="43.4997683" lon="12.516173"><ele>479.0</ele><time>2026-05-02T08:05:32.021Z</time></trkpt><trkpt lat="43.4996626" lon="12.5160712"><ele>480.0</ele><time>2026-05-02T08:05:33.009Z</time></trkpt><trkpt lat="43.4995393" lon="12.5159914"><ele>481.0</ele><time>2026-05-02T08:05:34.002Z</time></trkpt><trkpt lat="43.4994073" lon="12.5158952"><ele>482.0</ele><time>2026-05-02T08:05:35.006Z</time></trkpt><trkpt lat="43.4992457" lon="12.5157815"><ele>478.66666666666663</ele><time>2026-05-02T08:05:36.018Z</time></trkpt><trkpt lat="43.4990892" lon="12.515657"><ele>475.33333333333337</ele><time>2026-05-02T08:05:37.011Z</time></trkpt><trkpt lat="43.4989404" lon="12.5155447"><ele>472.0</ele><time>2026-05-02T08:05:38.013Z</time></trkpt><trkpt lat="43.4987947" lon="12.5154406"><ele>472.25</ele><time>2026-05-02T08:05:39.028Z</time></trkpt><trkpt lat="43.4986676" lon="12.5153442"><ele>472.5</ele><time>2026-05-02T08:05:40.016Z</time></trkpt><trkpt lat="43.4985532" lon="12.5152191"><ele>472.75</ele><time>2026-05-02T08:05:41.015Z</time></trkpt><trkpt lat="43.4984446" lon="12.5150609"><ele>473.0</ele><time>2026-05-02T08:05:42Z</time></trkpt><trkpt lat="43.4983453" lon="12.5148901"><ele>473.0</ele><time>2026-05-02T08:05:43.009Z</time></trkpt><trkpt lat="43.4982515" lon="12.5147304"><ele>473.0</ele><time>2026-05-02T08:05:44.009Z</time></trkpt><trkpt lat="43.4981643" lon="12.5145767"><ele>473.0</ele><time>2026-05-02T08:05:45.016Z</time></trkpt><trkpt lat="43.4980942" lon="12.514422"><ele>473.0</ele><time>2026-05-02T08:05:46.005Z</time></trkpt><trkpt lat="43.498034" lon="12.5142533"><ele>473.75</ele><time>2026-05-02T08:05:47.014Z</time></trkpt><trkpt lat="43.497997" lon="12.5140751"><ele>474.5</ele><time>2026-05-02T08:05:48.009Z</time></trkpt><trkpt lat="43.4979796" lon="12.5138814"><ele>475.25</ele><time>2026-05-02T08:05:49.011Z</time></trkpt><trkpt lat="43.4979708" lon="12.5136619"><ele>476.0</ele><time>2026-05-02T08:05:50.006Z</time></trkpt><trkpt lat="43.4979666" lon="12.5134325"><ele>476.66666666666663</ele><time>2026-05-02T08:05:51.009Z</time></trkpt><trkpt lat="43.4979653" lon="12.5132021"><ele>477.33333333333337</ele><time>2026-05-02T08:05:52.02Z</time></trkpt><trkpt lat="43.4979629" lon="12.5129619"><ele>478.0</ele><time>2026-05-02T08:05:53.008Z</time></trkpt><trkpt lat="43.4979577" lon="12.5127267"><ele>479.0</ele><time>2026-05-02T08:05:54.005Z</time></trkpt><trkpt lat="43.4979482" lon="12.5124842"><ele>480.0</ele><time>2026-05-02T08:05:55.014Z</time></trkpt><trkpt lat="43.4979425" lon="12.5122277"><ele>481.0</ele><time>2026-05-02T08:05:56.021Z</time></trkpt><trkpt lat="43.4979299" lon="12.5119719"><ele>477.33333333333337</ele><time>2026-05-02T08:05:57.007Z</time></trkpt><trkpt lat="43.4979102" lon="12.5117158"><ele>473.66666666666663</ele><time>2026-05-02T08:05:58.009Z</time></trkpt><trkpt lat="43.4979055" lon="12.5114615"><ele>470.0</ele><time>2026-05-02T08:05:59.006Z</time></trkpt><trkpt lat="43.4979002" lon="12.5111962"><ele>470.0</ele><time>2026-05-02T08:06:00.032Z</time></trkpt><trkpt lat="43.4978956" lon="12.5109308"><ele>470.0</ele><time>2026-05-02T08:06:01.003Z</time></trkpt><trkpt lat="43.4978958" lon="12.5106655"><ele>470.0</ele><time>2026-05-02T08:06:02.011Z</time></trkpt><trkpt lat="43.4978899" lon="12.5104066"><ele>470.0</ele><time>2026-05-02T08:06:03.003Z</time></trkpt><trkpt lat="43.4978825" lon="12.5101494"><ele>470.0</ele><time>2026-05-02T08:06:04.005Z</time></trkpt><trkpt lat="43.497876" lon="12.5098971"><ele>470.0</ele><time>2026-05-02T08:06:05.006Z</time></trkpt><trkpt lat="43.4978588" lon="12.5096379"><ele>470.66666666666663</ele><time>2026-05-02T08:06:06.028Z</time></trkpt><trkpt lat="43.4978482" lon="12.5093939"><ele>471.33333333333337</ele><time>2026-05-02T08:06:07.005Z</time></trkpt><trkpt lat="43.4978226" lon="12.5091606"><ele>472.0</ele><time>2026-05-02T08:06:08.004Z</time></trkpt><trkpt lat="43.4977752" lon="12.5089356"><ele>474.0</ele><time>2026-05-02T08:06:09.004Z</time></trkpt><trkpt lat="43.4977006" lon="12.5087055"><ele>476.0</ele><time>2026-05-02T08:06:10.013Z</time></trkpt><trkpt lat="43.497606" lon="12.5084638"><ele>478.0</ele><time>2026-05-02T08:06:11.005Z</time></trkpt><trkpt lat="43.4975159" lon="12.5082208"><ele>478.0</ele><time>2026-05-02T08:06:12.011Z</time></trkpt><trkpt lat="43.4974254" lon="12.5079958"><ele>478.0</ele><time>2026-05-02T08:06:13.012Z</time></trkpt><trkpt lat="43.4973364" lon="12.5077536"><ele>478.0</ele><time>2026-05-02T08:06:14.026Z</time></trkpt><trkpt lat="43.4972432" lon="12.5075209"><ele>476.33333333333337</ele><time>2026-05-02T08:06:15.01Z</time></trkpt><trkpt lat="43.4971502" lon="12.5072799"><ele>474.66666666666663</ele><time>2026-05-02T08:06:16.007Z</time></trkpt><trkpt lat="43.4970584" lon="12.5070421"><ele>473.0</ele><time>2026-05-02T08:06:17.005Z</time></trkpt><trkpt lat="43.4969629" lon="12.5068117"><ele>473.0</ele><time>2026-05-02T08:06:18.018Z</time></trkpt><trkpt lat="43.4968775" lon="12.5065759"><ele>473.0</ele><time>2026-05-02T08:06:19.014Z</time></trkpt><trkpt lat="43.4967875" lon="12.5063471"><ele>473.0</ele><time>2026-05-02T08:06:20.015Z</time></trkpt><trkpt lat="43.4967063" lon="12.5061325"><ele>474.0</ele><time>2026-05-02T08:06:21.01Z</time></trkpt><trkpt lat="43.4966306" lon="12.5059452"><ele>475.0</ele><time>2026-05-02T08:06:22.008Z</time></trkpt><trkpt lat="43.4965648" lon="12.5057657"><ele>476.0</ele><time>2026-05-02T08:06:23.007Z</time></trkpt><trkpt lat="43.4965099" lon="12.5055777"><ele>477.0</ele><time>2026-05-02T08:06:24.012Z</time></trkpt><trkpt lat="43.4964681" lon="12.5053647"><ele>477.33333333333337</ele><time>2026-05-02T08:06:25.014Z</time></trkpt><trkpt lat="43.4964374" lon="12.5051238"><ele>477.6666666666667</ele><time>2026-05-02T08:06:26.003Z</time></trkpt><trkpt lat="43.4964141" lon="12.5048759"><ele>478.0</ele><time>2026-05-02T08:06:27.005Z</time></trkpt><trkpt lat="43.4963918" lon="12.5046351"><ele>478.0</ele><time>2026-05-02T08:06:28.004Z</time></trkpt><trkpt lat="43.4963669" lon="12.504397"><ele>478.0</ele><time>2026-05-02T08:06:29Z</time></trkpt><trkpt lat="43.496339" lon="12.5041579"><ele>478.0</ele><time>2026-05-02T08:06:30.003Z</time></trkpt><trkpt lat="43.4963069" lon="12.5039108"><ele>478.33333333333337</ele><time>2026-05-02T08:06:31.01Z</time></trkpt><trkpt lat="43.4962785" lon="12.5036416"><ele>478.66666666666663</ele><time>2026-05-02T08:06:32.006Z</time></trkpt><trkpt lat="43.4962514" lon="12.5033508"><ele>479.0</ele><time>2026-05-02T08:06:33.008Z</time></trkpt><trkpt lat="43.496218" lon="12.5030426"><ele>481.0</ele><time>2026-05-02T08:06:34.008Z</time></trkpt><trkpt lat="43.4961828" lon="12.5027333"><ele>483.0</ele><time>2026-05-02T08:06:35.02Z</time></trkpt><trkpt lat="43.4961529" lon="12.5024453"><ele>485.0</ele><time>2026-05-02T08:06:36.01Z</time></trkpt><trkpt lat="43.4961232" lon="12.5021612"><ele>486.0</ele><time>2026-05-02T08:06:37.008Z</time></trkpt><trkpt lat="43.4960928" lon="12.5018623"><ele>487.0</ele><time>2026-05-02T08:06:38.009Z</time></trkpt><trkpt lat="43.4960647" lon="12.5015513"><ele>488.0</ele><time>2026-05-02T08:06:39.021Z</time></trkpt><trkpt lat="43.4960336" lon="12.5012336"><ele>488.0</ele><time>2026-05-02T08:06:40.016Z</time></trkpt><trkpt lat="43.4959919" lon="12.5009133"><ele>488.0</ele><time>2026-05-02T08:06:41.012Z</time></trkpt><trkpt lat="43.4959478" lon="12.5005883"><ele>486.66666666666663</ele><time>2026-05-02T08:06:42.012Z</time></trkpt><trkpt lat="43.4959219" lon="12.5002775"><ele>485.33333333333337</ele><time>2026-05-02T08:06:43.014Z</time></trkpt><trkpt lat="43.4958888" lon="12.4999809"><ele>484.0</ele><time>2026-05-02T08:06:44.011Z</time></trkpt><trkpt lat="43.4958519" lon="12.4996843"><ele>484.33333333333337</ele><time>2026-05-02T08:06:45.02Z</time></trkpt><trkpt lat="43.4958223" lon="12.4993903"><ele>484.66666666666663</ele><time>2026-05-02T08:06:46.011Z</time></trkpt><trkpt lat="43.4957919" lon="12.499094"><ele>485.0</ele><time>2026-05-02T08:06:47.015Z</time></trkpt><trkpt lat="43.4957545" lon="12.4987969"><ele>486.3333333333333</ele><time>2026-05-02T08:06:48.013Z</time></trkpt><trkpt lat="43.4956944" lon="12.4985102"><ele>487.66666666666663</ele><time>2026-05-02T08:06:49.014Z</time></trkpt><trkpt lat="43.495607" lon="12.4982343"><ele>489.0</ele><time>2026-05-02T08:06:50.005Z</time></trkpt><trkpt lat="43.4955069" lon="12.4979433"><ele>489.5</ele><time>2026-05-02T08:06:51.012Z</time></trkpt><trkpt lat="43.4954129" lon="12.4976303"><ele>490.0</ele><time>2026-05-02T08:06:52.002Z</time></trkpt><trkpt lat="43.4953275" lon="12.4973539"><ele>490.0</ele><time>2026-05-02T08:06:53.015Z</time></trkpt><trkpt lat="43.495247" lon="12.497087"><ele>490.0</ele><time>2026-05-02T08:06:54.015Z</time></trkpt><trkpt lat="43.4951647" lon="12.4968226"><ele>490.0</ele><time>2026-05-02T08:06:55.014Z</time></trkpt><trkpt lat="43.4950827" lon="12.4965535"><ele>491.6666666666667</ele><time>2026-05-02T08:06:56.006Z</time></trkpt><trkpt lat="43.495001" lon="12.4962801"><ele>493.33333333333337</ele><time>2026-05-02T08:06:57.015Z</time></trkpt><trkpt lat="43.4949167" lon="12.495996"><ele>495.0</ele><time>2026-05-02T08:06:58.01Z</time></trkpt><trkpt lat="43.4948314" lon="12.4957122"><ele>504.0</ele><time>2026-05-02T08:06:59.016Z</time></trkpt><trkpt lat="43.4947366" lon="12.495419"><ele>513.0</ele><time>2026-05-02T08:07:00.011Z</time></trkpt><trkpt lat="43.4946441" lon="12.4951395"><ele>509.66666666666663</ele><time>2026-05-02T08:07:01.021Z</time></trkpt><trkpt lat="43.4945577" lon="12.4948679"><ele>506.3333333333333</ele><time>2026-05-02T08:07:02.013Z</time></trkpt><trkpt lat="43.4944794" lon="12.4946154"><ele>503.0</ele><time>2026-05-02T08:07:03.016Z</time></trkpt><trkpt lat="43.4943967" lon="12.4943804"><ele>503.0</ele><time>2026-05-02T08:07:04.011Z</time></trkpt><trkpt lat="43.4943128" lon="12.4941574"><ele>503.0</ele><time>2026-05-02T08:07:05.012Z</time></trkpt><trkpt lat="43.4942084" lon="12.4939483"><ele>503.0</ele><time>2026-05-02T08:07:06.011Z</time></trkpt><trkpt lat="43.4940778" lon="12.4937454"><ele>502.3333333333333</ele><time>2026-05-02T08:07:07.015Z</time></trkpt><trkpt lat="43.4939265" lon="12.4935355"><ele>501.66666666666663</ele><time>2026-05-02T08:07:08.014Z</time></trkpt><trkpt lat="43.4937818" lon="12.4933319"><ele>501.0</ele><time>2026-05-02T08:07:09.01Z</time></trkpt><trkpt lat="43.4936421" lon="12.4931373"><ele>501.0</ele><time>2026-05-02T08:07:10.012Z</time></trkpt><trkpt lat="43.4934989" lon="12.4929451"><ele>501.0</ele><time>2026-05-02T08:07:11.03Z</time></trkpt><trkpt lat="43.4933523" lon="12.4927406"><ele>501.0</ele><time>2026-05-02T08:07:12.012Z</time></trkpt><trkpt lat="43.4932051" lon="12.4925258"><ele>504.33333333333337</ele><time>2026-05-02T08:07:13.013Z</time></trkpt><trkpt lat="43.4930512" lon="12.4922932"><ele>507.6666666666667</ele><time>2026-05-02T08:07:14.024Z</time></trkpt><trkpt lat="43.4929004" lon="12.492076"><ele>511.0</ele><time>2026-05-02T08:07:15.009Z</time></trkpt><trkpt lat="43.4927598" lon="12.4918681"><ele>511.0</ele><time>2026-05-02T08:07:16.007Z</time></trkpt><trkpt lat="43.4926321" lon="12.4916851"><ele>511.0</ele><time>2026-05-02T08:07:17.007Z</time></trkpt><trkpt lat="43.4925166" lon="12.4915143"><ele>511.0</ele><time>2026-05-02T08:07:18.011Z</time></trkpt><trkpt lat="43.4924035" lon="12.4913578"><ele>514.0</ele><time>2026-05-02T08:07:19.016Z</time></trkpt><trkpt lat="43.4922995" lon="12.491194"><ele>517.0</ele><time>2026-05-02T08:07:20.008Z</time></trkpt><trkpt lat="43.4921955" lon="12.4910142"><ele>520.0</ele><time>2026-05-02T08:07:21.014Z</time></trkpt><trkpt lat="43.4921011" lon="12.490816"><ele>518.3333333333334</ele><time>2026-05-02T08:07:22.014Z</time></trkpt><trkpt lat="43.4920131" lon="12.4905981"><ele>516.6666666666666</ele><time>2026-05-02T08:07:23.025Z</time></trkpt><trkpt lat="43.4919266" lon="12.4903909"><ele>515.0</ele><time>2026-05-02T08:07:24.011Z</time></trkpt><trkpt lat="43.4918455" lon="12.4901957"><ele>515.0</ele><time>2026-05-02T08:07:25.013Z</time></trkpt><trkpt lat="43.4917678" lon="12.4900063"><ele>515.0</ele><time>2026-05-02T08:07:26.022Z</time></trkpt><trkpt lat="43.491695" lon="12.4898325"><ele>515.0</ele><time>2026-05-02T08:07:27.009Z</time></trkpt><trkpt lat="43.4916307" lon="12.4896686"><ele>515.0</ele><time>2026-05-02T08:07:28.01Z</time></trkpt><trkpt lat="43.4915901" lon="12.489487"><ele>517.6666666666666</ele><time>2026-05-02T08:07:29.018Z</time></trkpt><trkpt lat="43.491569" lon="12.4892754"><ele>520.3333333333334</ele><time>2026-05-02T08:07:30.01Z</time></trkpt><trkpt lat="43.4915655" lon="12.4890339"><ele>523.0</ele><time>2026-05-02T08:07:31.011Z</time></trkpt><trkpt lat="43.4915672" lon="12.4887755"><ele>523.0</ele><time>2026-05-02T08:07:32.014Z</time></trkpt><trkpt lat="43.4915615" lon="12.4885042"><ele>523.0</ele><time>2026-05-02T08:07:33.006Z</time></trkpt><trkpt lat="43.4915539" lon="12.4882395"><ele>523.0</ele><time>2026-05-02T08:07:34.016Z</time></trkpt><trkpt lat="43.4915455" lon="12.4879783"><ele>524.0</ele><time>2026-05-02T08:07:35.018Z</time></trkpt><trkpt lat="43.4915361" lon="12.4877244"><ele>525.0</ele><time>2026-05-02T08:07:36.015Z</time></trkpt><trkpt lat="43.4915329" lon="12.4874893"><ele>526.0</ele><time>2026-05-02T08:07:37.009Z</time></trkpt><trkpt lat="43.4915267" lon="12.4872539"><ele>527.6666666666667</ele><time>2026-05-02T08:07:38.013Z</time></trkpt><trkpt lat="43.491518" lon="12.4869791"><ele>529.3333333333334</ele><time>2026-05-02T08:07:39.01Z</time></trkpt><trkpt lat="43.4915119" lon="12.4866715"><ele>531.0</ele><time>2026-05-02T08:07:40.016Z</time></trkpt><trkpt lat="43.4915076" lon="12.4863583"><ele>529.6666666666666</ele><time>2026-05-02T08:07:41.015Z</time></trkpt><trkpt lat="43.4914933" lon="12.4860596"><ele>528.3333333333333</ele><time>2026-05-02T08:07:42.008Z</time></trkpt><trkpt lat="43.491484" lon="12.4857944"><ele>527.0</ele><time>2026-05-02T08:07:43.015Z</time></trkpt><trkpt lat="43.4914805" lon="12.4855355"><ele>527.3333333333333</ele><time>2026-05-02T08:07:44.008Z</time></trkpt><trkpt lat="43.491477" lon="12.4852721"><ele>527.6666666666666</ele><time>2026-05-02T08:07:45.023Z</time></trkpt><trkpt lat="43.491479" lon="12.4849972"><ele>528.0</ele><time>2026-05-02T08:07:46.006Z</time></trkpt><trkpt lat="43.4914915" lon="12.4847129"><ele>528.0</ele><time>2026-05-02T08:07:47.016Z</time></trkpt><trkpt lat="43.4915132" lon="12.4844445"><ele>528.0</ele><time>2026-05-02T08:07:48.009Z</time></trkpt><trkpt lat="43.4915348" lon="12.4841844"><ele>528.0</ele><time>2026-05-02T08:07:49.008Z</time></trkpt><trkpt lat="43.4915594" lon="12.483909"><ele>527.6666666666666</ele><time>2026-05-02T08:07:50.015Z</time></trkpt><trkpt lat="43.4915861" lon="12.483627"><ele>527.3333333333333</ele><time>2026-05-02T08:07:51.013Z</time></trkpt><trkpt lat="43.4916185" lon="12.4833638"><ele>527.0</ele><time>2026-05-02T08:07:52.01Z</time></trkpt><trkpt lat="43.4916595" lon="12.483097"><ele>528.6666666666666</ele><time>2026-05-02T08:07:53.011Z</time></trkpt><trkpt lat="43.4917173" lon="12.4828146"><ele>530.3333333333334</ele><time>2026-05-02T08:07:54.014Z</time></trkpt><trkpt lat="43.4917931" lon="12.4825526"><ele>532.0</ele><time>2026-05-02T08:07:55.021Z</time></trkpt><trkpt lat="43.4918668" lon="12.4823092"><ele>532.0</ele><time>2026-05-02T08:07:56.012Z</time></trkpt><trkpt lat="43.4919378" lon="12.4820663"><ele>532.0</ele><time>2026-05-02T08:07:57.024Z</time></trkpt><trkpt lat="43.4920085" lon="12.4818125"><ele>532.0</ele><time>2026-05-02T08:07:58.024Z</time></trkpt><trkpt lat="43.4920817" lon="12.4815581"><ele>534.6666666666667</ele><time>2026-05-02T08:07:59.011Z</time></trkpt><trkpt lat="43.4921599" lon="12.4813037"><ele>537.3333333333334</ele><time>2026-05-02T08:08:00.017Z</time></trkpt><trkpt lat="43.4922384" lon="12.4810434"><ele>540.0</ele><time>2026-05-02T08:08:01.025Z</time></trkpt><trkpt lat="43.4923199" lon="12.4807717"><ele>540.0</ele><time>2026-05-02T08:08:02.009Z</time></trkpt><trkpt lat="43.4924021" lon="12.4805014"><ele>540.0</ele><time>2026-05-02T08:08:03.009Z</time></trkpt><trkpt lat="43.492483" lon="12.4802334"><ele>540.0</ele><time>2026-05-02T08:08:04.004Z</time></trkpt><trkpt lat="43.4925666" lon="12.4799521"><ele>537.0</ele><time>2026-05-02T08:08:05.006Z</time></trkpt><trkpt lat="43.492649" lon="12.4796588"><ele>534.0</ele><time>2026-05-02T08:08:06.008Z</time></trkpt><trkpt lat="43.4927362" lon="12.4793621"><ele>534.0</ele><time>2026-05-02T08:08:07.009Z</time></trkpt><trkpt lat="43.4928204" lon="12.47908"><ele>534.0</ele><time>2026-05-02T08:08:08.006Z</time></trkpt><trkpt lat="43.4928973" lon="12.4788184"><ele>534.0</ele><time>2026-05-02T08:08:09.013Z</time></trkpt><trkpt lat="43.4929696" lon="12.4785738"><ele>535.6666666666666</ele><time>2026-05-02T08:08:10.013Z</time></trkpt><trkpt lat="43.4930332" lon="12.4783383"><ele>537.3333333333333</ele><time>2026-05-02T08:08:11.011Z</time></trkpt><trkpt lat="43.4930846" lon="12.4781077"><ele>539.0</ele><time>2026-05-02T08:08:12.024Z</time></trkpt><trkpt lat="43.4931175" lon="12.4778735"><ele>539.0</ele><time>2026-05-02T08:08:13.006Z</time></trkpt><trkpt lat="43.4931309" lon="12.4776234"><ele>539.0</ele><time>2026-05-02T08:08:14.006Z</time></trkpt><trkpt lat="43.4931324" lon="12.477339"><ele>539.0</ele><time>2026-05-02T08:08:15.009Z</time></trkpt><trkpt lat="43.4931356" lon="12.4770369"><ele>539.6666666666666</ele><time>2026-05-02T08:08:16.008Z</time></trkpt><trkpt lat="43.4931409" lon="12.4767447"><ele>540.3333333333334</ele><time>2026-05-02T08:08:17.011Z</time></trkpt><trkpt lat="43.4931416" lon="12.4764609"><ele>541.0</ele><time>2026-05-02T08:08:17.999Z</time></trkpt><trkpt lat="43.4931486" lon="12.4761724"><ele>542.3333333333334</ele><time>2026-05-02T08:08:19.016Z</time></trkpt><trkpt lat="43.4931531" lon="12.4758751"><ele>543.6666666666666</ele><time>2026-05-02T08:08:20.009Z</time></trkpt><trkpt lat="43.4931566" lon="12.475563"><ele>545.0</ele><time>2026-05-02T08:08:20.999Z</time></trkpt><trkpt lat="43.4931662" lon="12.4752844"><ele>546.0</ele><time>2026-05-02T08:08:22.024Z</time></trkpt><trkpt lat="43.4931779" lon="12.4750222"><ele>547.0</ele><time>2026-05-02T08:08:23.008Z</time></trkpt><trkpt lat="43.4931774" lon="12.474771"><ele>548.0</ele><time>2026-05-02T08:08:24.006Z</time></trkpt><trkpt lat="43.4931834" lon="12.4744997"><ele>548.3333333333333</ele><time>2026-05-02T08:08:25.007Z</time></trkpt><trkpt lat="43.4931912" lon="12.4742069"><ele>548.6666666666666</ele><time>2026-05-02T08:08:26.014Z</time></trkpt><trkpt lat="43.4931974" lon="12.4739207"><ele>549.0</ele><time>2026-05-02T08:08:27.021Z</time></trkpt><trkpt lat="43.4932046" lon="12.4736473"><ele>551.0</ele><time>2026-05-02T08:08:28.009Z</time></trkpt><trkpt lat="43.4932081" lon="12.4733793"><ele>553.0</ele><time>2026-05-02T08:08:29.017Z</time></trkpt><trkpt lat="43.4932081" lon="12.473139"><ele>555.0</ele><time>2026-05-02T08:08:30.006Z</time></trkpt><trkpt lat="43.4932032" lon="12.4729245"><ele>556.3333333333334</ele><time>2026-05-02T08:08:31.012Z</time></trkpt><trkpt lat="43.493174" lon="12.4727174"><ele>557.6666666666667</ele><time>2026-05-02T08:08:32.009Z</time></trkpt><trkpt lat="43.4931136" lon="12.4725122"><ele>559.0</ele><time>2026-05-02T08:08:33.005Z</time></trkpt><trkpt lat="43.4930202" lon="12.4723205"><ele>560.3333333333334</ele><time>2026-05-02T08:08:34.016Z</time></trkpt><trkpt lat="43.4929004" lon="12.472135"><ele>561.6666666666666</ele><time>2026-05-02T08:08:35.009Z</time></trkpt><trkpt lat="43.492765" lon="12.4719417"><ele>563.0</ele><time>2026-05-02T08:08:36.01Z</time></trkpt><trkpt lat="43.4926356" lon="12.4717475"><ele>563.0</ele><time>2026-05-02T08:08:37.036Z</time></trkpt><trkpt lat="43.492498" lon="12.4715384"><ele>563.0</ele><time>2026-05-02T08:08:38.011Z</time></trkpt><trkpt lat="43.4923412" lon="12.4713025"><ele>563.0</ele><time>2026-05-02T08:08:39.014Z</time></trkpt><trkpt lat="43.4921876" lon="12.4710684"><ele>561.3333333333333</ele><time>2026-05-02T08:08:40.013Z</time></trkpt><trkpt lat="43.4920435" lon="12.4708364"><ele>559.6666666666666</ele><time>2026-05-02T08:08:41.011Z</time></trkpt><trkpt lat="43.4919057" lon="12.4706044"><ele>558.0</ele><time>2026-05-02T08:08:42.012Z</time></trkpt><trkpt lat="43.4917747" lon="12.4703472"><ele>562.0</ele><time>2026-05-02T08:08:43.002Z</time></trkpt><trkpt lat="43.4916529" lon="12.4700983"><ele>566.0</ele><time>2026-05-02T08:08:44.005Z</time></trkpt><trkpt lat="43.4915284" lon="12.4698558"><ele>570.0</ele><time>2026-05-02T08:08:45.011Z</time></trkpt><trkpt lat="43.4914085" lon="12.4696221"><ele>571.6666666666666</ele><time>2026-05-02T08:08:46.015Z</time></trkpt><trkpt lat="43.4913034" lon="12.4694174"><ele>573.3333333333333</ele><time>2026-05-02T08:08:47.02Z</time></trkpt><trkpt lat="43.4912099" lon="12.4692378"><ele>575.0</ele><time>2026-05-02T08:08:48.014Z</time></trkpt><trkpt lat="43.4911261" lon="12.4690702"><ele>575.0</ele><time>2026-05-02T08:08:49.006Z</time></trkpt><trkpt lat="43.491049" lon="12.4689149"><ele>575.0</ele><time>2026-05-02T08:08:50.009Z</time></trkpt><trkpt lat="43.4909819" lon="12.4687654"><ele>575.0</ele><time>2026-05-02T08:08:51.004Z</time></trkpt><trkpt lat="43.4909304" lon="12.4686044"><ele>575.0</ele><time>2026-05-02T08:08:52.016Z</time></trkpt><trkpt lat="43.4908906" lon="12.4684229"><ele>576.5</ele><time>2026-05-02T08:08:53.008Z</time></trkpt><trkpt lat="43.4908672" lon="12.4682406"><ele>578.0</ele><time>2026-05-02T08:08:54.01Z</time></trkpt><trkpt lat="43.4908727" lon="12.4680523"><ele>579.5</ele><time>2026-05-02T08:08:55.008Z</time></trkpt><trkpt lat="43.4908884" lon="12.4678603"><ele>581.0</ele><time>2026-05-02T08:08:56.004Z</time></trkpt><trkpt lat="43.4909113" lon="12.4676682"><ele>581.75</ele><time>2026-05-02T08:08:57.022Z</time></trkpt><trkpt lat="43.4909292" lon="12.4674779"><ele>582.5</ele><time>2026-05-02T08:08:58.012Z</time></trkpt><trkpt lat="43.4909372" lon="12.4672852"><ele>583.25</ele><time>2026-05-02T08:08:59.02Z</time></trkpt><trkpt lat="43.4909368" lon="12.4670776"><ele>584.0</ele><time>2026-05-02T08:09:00.009Z</time></trkpt><trkpt lat="43.4909154" lon="12.4668706"><ele>585.0</ele><time>2026-05-02T08:09:01.006Z</time></trkpt><trkpt lat="43.4908679" lon="12.4666764"><ele>586.0</ele><time>2026-05-02T08:09:02.005Z</time></trkpt><trkpt lat="43.4908017" lon="12.4664876"><ele>587.0</ele><time>2026-05-02T08:09:03.011Z</time></trkpt><trkpt lat="43.4907422" lon="12.4662979"><ele>587.75</ele><time>2026-05-02T08:09:04.012Z</time></trkpt><trkpt lat="43.4907025" lon="12.4661188"><ele>588.5</ele><time>2026-05-02T08:09:05.003Z</time></trkpt><trkpt lat="43.4906993" lon="12.4659494"><ele>589.25</ele><time>2026-05-02T08:09:06.006Z</time></trkpt><trkpt lat="43.4907195" lon="12.4657893"><ele>590.0</ele><time>2026-05-02T08:09:06.999Z</time></trkpt><trkpt lat="43.4907623" lon="12.4656195"><ele>590.25</ele><time>2026-05-02T08:09:08.023Z</time></trkpt><trkpt lat="43.4908157" lon="12.4654376"><ele>590.5</ele><time>2026-05-02T08:09:09.005Z</time></trkpt><trkpt lat="43.4908815" lon="12.4652646"><ele>590.75</ele><time>2026-05-02T08:09:10.011Z</time></trkpt><trkpt lat="43.49096" lon="12.4651199"><ele>591.0</ele><time>2026-05-02T08:09:11.004Z</time></trkpt><trkpt lat="43.4910538" lon="12.4650005"><ele>591.0</ele><time>2026-05-02T08:09:12.002Z</time></trkpt><trkpt lat="43.4911338" lon="12.4648858"><ele>591.0</ele><time>2026-05-02T08:09:13.017Z</time></trkpt><trkpt lat="43.4911959" lon="12.4647547"><ele>591.0</ele><time>2026-05-02T08:09:14.012Z</time></trkpt><trkpt lat="43.4912202" lon="12.4646178"><ele>591.0</ele><time>2026-05-02T08:09:15.005Z</time></trkpt><trkpt lat="43.491213" lon="12.4644669"><ele>591.0</ele><time>2026-05-02T08:09:16.015Z</time></trkpt><trkpt lat="43.4911945" lon="12.4643177"><ele>591.75</ele><time>2026-05-02T08:09:17.004Z</time></trkpt><trkpt lat="43.4911765" lon="12.4641706"><ele>592.5</ele><time>2026-05-02T08:09:18.012Z</time></trkpt><trkpt lat="43.4911772" lon="12.4640126"><ele>593.25</ele><time>2026-05-02T08:09:19.003Z</time></trkpt><trkpt lat="43.4912102" lon="12.4638405"><ele>594.0</ele><time>2026-05-02T08:09:20.007Z</time></trkpt><trkpt lat="43.4912671" lon="12.463657"><ele>597.75</ele><time>2026-05-02T08:09:21.009Z</time></trkpt><trkpt lat="43.49133" lon="12.4634669"><ele>601.5</ele><time>2026-05-02T08:09:22.023Z</time></trkpt><trkpt lat="43.4913789" lon="12.46329"><ele>605.25</ele><time>2026-05-02T08:09:23.014Z</time></trkpt><trkpt lat="43.4914112" lon="12.4631355"><ele>609.0</ele><time>2026-05-02T08:09:24.004Z</time></trkpt><trkpt lat="43.4914148" lon="12.4629978"><ele>609.8333333333334</ele><time>2026-05-02T08:09:25.021Z</time></trkpt><trkpt lat="43.4913809" lon="12.4628887"><ele>610.6666666666666</ele><time>2026-05-02T08:09:26.004Z</time></trkpt><trkpt lat="43.4913237" lon="12.4628044"><ele>611.5</ele><time>2026-05-02T08:09:27.004Z</time></trkpt><trkpt lat="43.4912488" lon="12.462763"><ele>612.3333333333333</ele><time>2026-05-02T08:09:28.006Z</time></trkpt><trkpt lat="43.491167" lon="12.462762"><ele>613.1666666666666</ele><time>2026-05-02T08:09:29.008Z</time></trkpt><trkpt lat="43.4910755" lon="12.4628077"><ele>614.0</ele><time>2026-05-02T08:09:30.003Z</time></trkpt><trkpt lat="43.4909928" lon="12.4628957"><ele>610.75</ele><time>2026-05-02T08:09:31.026Z</time></trkpt><trkpt lat="43.4909302" lon="12.4630174"><ele>607.5</ele><time>2026-05-02T08:09:32.013Z</time></trkpt><trkpt lat="43.4908533" lon="12.4631591"><ele>604.25</ele><time>2026-05-02T08:09:33.018Z</time></trkpt><trkpt lat="43.4907605" lon="12.4633252"><ele>601.0</ele><time>2026-05-02T08:09:34.006Z</time></trkpt><trkpt lat="43.4906456" lon="12.4634945"><ele>601.0</ele><time>2026-05-02T08:09:35.024Z</time></trkpt><trkpt lat="43.4905337" lon="12.46364"><ele>601.0</ele><time>2026-05-02T08:09:36.01Z</time></trkpt><trkpt lat="43.4904378" lon="12.4637781"><ele>601.0</ele><time>2026-05-02T08:09:37.019Z</time></trkpt><trkpt lat="43.4903655" lon="12.4639603"><ele>601.0</ele><time>2026-05-02T08:09:38.022Z</time></trkpt><trkpt lat="43.4903255" lon="12.4641662"><ele>603.6666666666667</ele><time>2026-05-02T08:09:39.015Z</time></trkpt><trkpt lat="43.490267" lon="12.4643712"><ele>606.3333333333334</ele><time>2026-05-02T08:09:40.016Z</time></trkpt><trkpt lat="43.4901949" lon="12.4645586"><ele>609.0</ele><time>2026-05-02T08:09:41.019Z</time></trkpt><trkpt lat="43.4901098" lon="12.4647216"><ele>609.0</ele><time>2026-05-02T08:09:42.036Z</time></trkpt><trkpt lat="43.490026" lon="12.4648722"><ele>609.0</ele><time>2026-05-02T08:09:43.024Z</time></trkpt><trkpt lat="43.4899316" lon="12.4650017"><ele>609.0</ele><time>2026-05-02T08:09:44.021Z</time></trkpt><trkpt lat="43.4898264" lon="12.4651011"><ele>609.0</ele><time>2026-05-02T08:09:45.015Z</time></trkpt><trkpt lat="43.4897185" lon="12.4651393"><ele>609.0</ele><time>2026-05-02T08:09:46.01Z</time></trkpt><trkpt lat="43.4896018" lon="12.4651317"><ele>609.0</ele><time>2026-05-02T08:09:47.014Z</time></trkpt><trkpt lat="43.4894609" lon="12.4650924"><ele>609.0</ele><time>2026-05-02T08:09:48.019Z</time></trkpt><trkpt lat="43.4893158" lon="12.4650303"><ele>609.0</ele><time>2026-05-02T08:09:49.011Z</time></trkpt><trkpt lat="43.4891685" lon="12.4649657"><ele>613.75</ele><time>2026-05-02T08:09:50.006Z</time></trkpt><trkpt lat="43.4890237" lon="12.4649119"><ele>618.5</ele><time>2026-05-02T08:09:51.017Z</time></trkpt><trkpt lat="43.4888884" lon="12.4648689"><ele>623.25</ele><time>2026-05-02T08:09:52.011Z</time></trkpt><trkpt lat="43.4887587" lon="12.4648426"><ele>628.0</ele><time>2026-05-02T08:09:53.016Z</time></trkpt><trkpt lat="43.4886191" lon="12.4648591"><ele>629.0</ele><time>2026-05-02T08:09:53.999Z</time></trkpt><trkpt lat="43.4884779" lon="12.4649103"><ele>630.0</ele><time>2026-05-02T08:09:55.007Z</time></trkpt><trkpt lat="43.4883477" lon="12.4649735"><ele>631.0</ele><time>2026-05-02T08:09:56.019Z</time></trkpt><trkpt lat="43.48823" lon="12.4650497"><ele>632.0</ele><time>2026-05-02T08:09:57.021Z</time></trkpt><trkpt lat="43.4881323" lon="12.465147"><ele>632.0</ele><time>2026-05-02T08:09:58.008Z</time></trkpt><trkpt lat="43.4880513" lon="12.4652664"><ele>632.0</ele><time>2026-05-02T08:09:59.015Z</time></trkpt><trkpt lat="43.4879901" lon="12.4653928"><ele>632.0</ele><time>2026-05-02T08:10:00.013Z</time></trkpt><trkpt lat="43.4879768" lon="12.465518"><ele>632.0</ele><time>2026-05-02T08:10:01.023Z</time></trkpt><trkpt lat="43.4880121" lon="12.4656759"><ele>632.0</ele><time>2026-05-02T08:10:01.997Z</time></trkpt><trkpt lat="43.4880783" lon="12.4658425"><ele>631.3333333333333</ele><time>2026-05-02T08:10:03.023Z</time></trkpt><trkpt lat="43.4881418" lon="12.4660384"><ele>630.6666666666666</ele><time>2026-05-02T08:10:04.01Z</time></trkpt><trkpt lat="43.4881779" lon="12.466257"><ele>630.0</ele><time>2026-05-02T08:10:05.008Z</time></trkpt><trkpt lat="43.4881843" lon="12.46647"><ele>632.0</ele><time>2026-05-02T08:10:06.01Z</time></trkpt><trkpt lat="43.4881985" lon="12.4666702"><ele>634.0</ele><time>2026-05-02T08:10:07.007Z</time></trkpt><trkpt lat="43.4882217" lon="12.4668726"><ele>636.0</ele><time>2026-05-02T08:10:08.006Z</time></trkpt><trkpt lat="43.4882926" lon="12.4670564"><ele>638.0</ele><time>2026-05-02T08:10:09.017Z</time></trkpt><trkpt lat="43.4883673" lon="12.4672123"><ele>641.75</ele><time>2026-05-02T08:10:10.006Z</time></trkpt><trkpt lat="43.4884344" lon="12.4673321"><ele>645.5</ele><time>2026-05-02T08:10:11.011Z</time></trkpt><trkpt lat="43.488479" lon="12.467474"><ele>649.25</ele><time>2026-05-02T08:10:12.004Z</time></trkpt><trkpt lat="43.4884908" lon="12.467634"><ele>653.0</ele><time>2026-05-02T08:10:13.007Z</time></trkpt><trkpt lat="43.4884492" lon="12.4677884"><ele>654.25</ele><time>2026-05-02T08:10:14.01Z</time></trkpt><trkpt lat="43.4883705" lon="12.4679461"><ele>655.5</ele><time>2026-05-02T08:10:15.008Z</time></trkpt><trkpt lat="43.4883069" lon="12.4680917"><ele>656.75</ele><time>2026-05-02T08:10:16.006Z</time></trkpt><trkpt lat="43.4882639" lon="12.4682313"><ele>658.0</ele><time>2026-05-02T08:10:17.011Z</time></trkpt><trkpt lat="43.4882777" lon="12.4683679"><ele>658.0</ele><time>2026-05-02T08:10:18.01Z</time></trkpt><trkpt lat="43.4883142" lon="12.4685131"><ele>658.0</ele><time>2026-05-02T08:10:19.003Z</time></trkpt><trkpt lat="43.4883818" lon="12.4686571"><ele>658.0</ele><time>2026-05-02T08:10:20.002Z</time></trkpt><trkpt lat="43.4884715" lon="12.4688063"><ele>658.0</ele><time>2026-05-02T08:10:21.006Z</time></trkpt><trkpt lat="43.4885914" lon="12.4689441"><ele>662.3333333333334</ele><time>2026-05-02T08:10:22.012Z</time></trkpt><trkpt lat="43.4887186" lon="12.4690789"><ele>666.6666666666666</ele><time>2026-05-02T08:10:23.007Z</time></trkpt><trkpt lat="43.4888432" lon="12.4692134"><ele>671.0</ele><time>2026-05-02T08:10:24.008Z</time></trkpt><trkpt lat="43.4889499" lon="12.4693515"><ele>667.5</ele><time>2026-05-02T08:10:25.014Z</time></trkpt><trkpt lat="43.4890362" lon="12.4694784"><ele>664.0</ele><time>2026-05-02T08:10:26.016Z</time></trkpt><trkpt lat="43.4890996" lon="12.469579"><ele>660.5</ele><time>2026-05-02T08:10:27.009Z</time></trkpt><trkpt lat="43.4891337" lon="12.4696825"><ele>657.0</ele><time>2026-05-02T08:10:28.022Z</time></trkpt><trkpt lat="43.489118" lon="12.4697803"><ele>653.5</ele><time>2026-05-02T08:10:29.032Z</time></trkpt><trkpt lat="43.4890757" lon="12.4698582"><ele>650.0</ele><time>2026-05-02T08:10:30.018Z</time></trkpt><trkpt lat="43.4889903" lon="12.4699304"><ele>650.0</ele><time>2026-05-02T08:10:31.017Z</time></trkpt><trkpt lat="43.4888978" lon="12.4699608"><ele>650.0</ele><time>2026-05-02T08:10:32.008Z</time></trkpt><trkpt lat="43.4887673" lon="12.469985"><ele>650.0</ele><time>2026-05-02T08:10:33.027Z</time></trkpt><trkpt lat="43.4886175" lon="12.4699924"><ele>650.0</ele><time>2026-05-02T08:10:34.013Z</time></trkpt><trkpt lat="43.4884568" lon="12.4700103"><ele>652.75</ele><time>2026-05-02T08:10:35.01Z</time></trkpt><trkpt lat="43.4883145" lon="12.470034"><ele>655.5</ele><time>2026-05-02T08:10:36.009Z</time></trkpt><trkpt lat="43.4881804" lon="12.4700481"><ele>658.25</ele><time>2026-05-02T08:10:37.011Z</time></trkpt><trkpt lat="43.4880516" lon="12.4700408"><ele>661.0</ele><time>2026-05-02T08:10:38.001Z</time></trkpt><trkpt lat="43.4879076" lon="12.4699975"><ele>661.0</ele><time>2026-05-02T08:10:39.025Z</time></trkpt><trkpt lat="43.4877716" lon="12.4699286"><ele>661.0</ele><time>2026-05-02T08:10:40.019Z</time></trkpt><trkpt lat="43.4876485" lon="12.4698444"><ele>661.0</ele><time>2026-05-02T08:10:41.025Z</time></trkpt><trkpt lat="43.4875466" lon="12.4697367"><ele>661.0</ele><time>2026-05-02T08:10:42.028Z</time></trkpt><trkpt lat="43.4874375" lon="12.4695991"><ele>662.75</ele><time>2026-05-02T08:10:43.021Z</time></trkpt><trkpt lat="43.4873474" lon="12.4694401"><ele>664.5</ele><time>2026-05-02T08:10:44.024Z</time></trkpt><trkpt lat="43.4872572" lon="12.46929"><ele>666.25</ele><time>2026-05-02T08:10:45.009Z</time></trkpt><trkpt lat="43.4871575" lon="12.469158"><ele>668.0</ele><time>2026-05-02T08:10:46.012Z</time></trkpt><trkpt lat="43.4870457" lon="12.4690497"><ele>668.0</ele><time>2026-05-02T08:10:47.016Z</time></trkpt><trkpt lat="43.48692" lon="12.4689824"><ele>668.0</ele><time>2026-05-02T08:10:48.014Z</time></trkpt><trkpt lat="43.4867924" lon="12.4689393"><ele>668.0</ele><time>2026-05-02T08:10:49.012Z</time></trkpt><trkpt lat="43.4866795" lon="12.4689023"><ele>668.0</ele><time>2026-05-02T08:10:50.017Z</time></trkpt><trkpt lat="43.4865975" lon="12.4688609"><ele>670.4</ele><time>2026-05-02T08:10:51.011Z</time></trkpt><trkpt lat="43.4865375" lon="12.4687643"><ele>672.8</ele><time>2026-05-02T08:10:52.012Z</time></trkpt><trkpt lat="43.4865171" lon="12.4686342"><ele>675.2</ele><time>2026-05-02T08:10:53.016Z</time></trkpt><trkpt lat="43.4865354" lon="12.4685077"><ele>677.6</ele><time>2026-05-02T08:10:54.015Z</time></trkpt><trkpt lat="43.4866011" lon="12.4683969"><ele>680.0</ele><time>2026-05-02T08:10:55.015Z</time></trkpt><trkpt lat="43.4866802" lon="12.4683518"><ele>680.0</ele><time>2026-05-02T08:10:56.003Z</time></trkpt><trkpt lat="43.486764" lon="12.4683482"><ele>680.0</ele><time>2026-05-02T08:10:57.011Z</time></trkpt><trkpt lat="43.4868653" lon="12.4683798"><ele>680.0</ele><time>2026-05-02T08:10:58.014Z</time></trkpt><trkpt lat="43.4869862" lon="12.4684628"><ele>680.0</ele><time>2026-05-02T08:10:59.016Z</time></trkpt><trkpt lat="43.4871153" lon="12.468592"><ele>679.75</ele><time>2026-05-02T08:11:00.023Z</time></trkpt><trkpt lat="43.4872331" lon="12.4687314"><ele>679.5</ele><time>2026-05-02T08:11:01.013Z</time></trkpt><trkpt lat="43.4873348" lon="12.4688591"><ele>679.25</ele><time>2026-05-02T08:11:02.016Z</time></trkpt><trkpt lat="43.4874307" lon="12.4689685"><ele>679.0</ele><time>2026-05-02T08:11:03.028Z</time></trkpt><trkpt lat="43.4875231" lon="12.4690338"><ele>679.0</ele><time>2026-05-02T08:11:04.013Z</time></trkpt><trkpt lat="43.4876064" lon="12.469042"><ele>679.0</ele><time>2026-05-02T08:11:05.031Z</time></trkpt><trkpt lat="43.4876675" lon="12.4689963"><ele>679.0</ele><time>2026-05-02T08:11:06.005Z</time></trkpt><trkpt lat="43.4877127" lon="12.4689111"><ele>679.0</ele><time>2026-05-02T08:11:07.013Z</time></trkpt><trkpt lat="43.487739" lon="12.4687914"><ele>679.0</ele><time>2026-05-02T08:11:08.015Z</time></trkpt><trkpt lat="43.4877259" lon="12.4686747"><ele>679.0</ele><time>2026-05-02T08:11:09.003Z</time></trkpt><trkpt lat="43.4876648" lon="12.4685685"><ele>680.75</ele><time>2026-05-02T08:11:10.008Z</time></trkpt><trkpt lat="43.4875782" lon="12.4684618"><ele>682.5</ele><time>2026-05-02T08:11:11.014Z</time></trkpt><trkpt lat="43.4874562" lon="12.4683698"><ele>684.25</ele><time>2026-05-02T08:11:12.012Z</time></trkpt><trkpt lat="43.4873301" lon="12.4682424"><ele>686.0</ele><time>2026-05-02T08:11:13.023Z</time></trkpt><trkpt lat="43.4871848" lon="12.4681085"><ele>684.0</ele><time>2026-05-02T08:11:14.01Z</time></trkpt><trkpt lat="43.4870436" lon="12.4679603"><ele>682.0</ele><time>2026-05-02T08:11:15.02Z</time></trkpt><trkpt lat="43.4869116" lon="12.4678169"><ele>680.0</ele><time>2026-05-02T08:11:16.012Z</time></trkpt><trkpt lat="43.4867868" lon="12.4676813"><ele>684.6666666666666</ele><time>2026-05-02T08:11:17.024Z</time></trkpt><trkpt lat="43.4866677" lon="12.4675103"><ele>689.3333333333334</ele><time>2026-05-02T08:11:18.009Z</time></trkpt><trkpt lat="43.4865393" lon="12.46732"><ele>694.0</ele><time>2026-05-02T08:11:19.007Z</time></trkpt><trkpt lat="43.4864108" lon="12.4671099"><ele>692.0</ele><time>2026-05-02T08:11:20.008Z</time></trkpt><trkpt lat="43.4862752" lon="12.4668832"><ele>690.0</ele><time>2026-05-02T08:11:21.016Z</time></trkpt><trkpt lat="43.4861339" lon="12.466668"><ele>688.0</ele><time>2026-05-02T08:11:22.005Z</time></trkpt><trkpt lat="43.4860121" lon="12.4664786"><ele>688.0</ele><time>2026-05-02T08:11:23.034Z</time></trkpt><trkpt lat="43.485891" lon="12.4663018"><ele>688.0</ele><time>2026-05-02T08:11:24.009Z</time></trkpt><trkpt lat="43.4857776" lon="12.4661233"><ele>688.0</ele><time>2026-05-02T08:11:25.008Z</time></trkpt><trkpt lat="43.4856754" lon="12.4659598"><ele>689.25</ele><time>2026-05-02T08:11:26.008Z</time></trkpt><trkpt lat="43.4855665" lon="12.4658319"><ele>690.5</ele><time>2026-05-02T08:11:27.022Z</time></trkpt><trkpt lat="43.4854518" lon="12.4657464"><ele>691.75</ele><time>2026-05-02T08:11:28.014Z</time></trkpt><trkpt lat="43.4853382" lon="12.4656978"><ele>693.0</ele><time>2026-05-02T08:11:29.007Z</time></trkpt><trkpt lat="43.4852333" lon="12.4656744"><ele>693.0</ele><time>2026-05-02T08:11:30.01Z</time></trkpt><trkpt lat="43.4851293" lon="12.4656039"><ele>693.0</ele><time>2026-05-02T08:11:31.011Z</time></trkpt><trkpt lat="43.4850265" lon="12.4654616"><ele>693.0</ele><time>2026-05-02T08:11:32.02Z</time></trkpt><trkpt lat="43.4849374" lon="12.4652776"><ele>693.0</ele><time>2026-05-02T08:11:33.009Z</time></trkpt><trkpt lat="43.4848587" lon="12.4651167"><ele>698.5</ele><time>2026-05-02T08:11:34.022Z</time></trkpt><trkpt lat="43.4847855" lon="12.4649676"><ele>704.0</ele><time>2026-05-02T08:11:35.011Z</time></trkpt><trkpt lat="43.4847271" lon="12.4648243"><ele>709.5</ele><time>2026-05-02T08:11:36.01Z</time></trkpt><trkpt lat="43.4846895" lon="12.4646587"><ele>715.0</ele><time>2026-05-02T08:11:37.009Z</time></trkpt><trkpt lat="43.4846847" lon="12.4644928"><ele>716.8</ele><time>2026-05-02T08:11:38.01Z</time></trkpt><trkpt lat="43.4847061" lon="12.4643488"><ele>718.6</ele><time>2026-05-02T08:11:39.014Z</time></trkpt><trkpt lat="43.4847674" lon="12.4642291"><ele>720.4000000000001</ele><time>2026-05-02T08:11:40.026Z</time></trkpt><trkpt lat="43.4848425" lon="12.4641135"><ele>722.2</ele><time>2026-05-02T08:11:41.009Z</time></trkpt><trkpt lat="43.4849136" lon="12.4639848"><ele>724.0</ele><time>2026-05-02T08:11:42.009Z</time></trkpt><trkpt lat="43.4849518" lon="12.4638515"><ele>728.25</ele><time>2026-05-02T08:11:43.013Z</time></trkpt><trkpt lat="43.4849481" lon="12.4636789"><ele>732.5</ele><time>2026-05-02T08:11:44.007Z</time></trkpt><trkpt lat="43.4849174" lon="12.4635148"><ele>736.75</ele><time>2026-05-02T08:11:45.012Z</time></trkpt><trkpt lat="43.4848711" lon="12.4633602"><ele>741.0</ele><time>2026-05-02T08:11:46.009Z</time></trkpt><trkpt lat="43.4848258" lon="12.4632106"><ele>741.0</ele><time>2026-05-02T08:11:47.005Z</time></trkpt><trkpt lat="43.4847874" lon="12.4630815"><ele>741.0</ele><time>2026-05-02T08:11:48.009Z</time></trkpt><trkpt lat="43.4847258" lon="12.4629701"><ele>741.0</ele><time>2026-05-02T08:11:49.007Z</time></trkpt><trkpt lat="43.4846412" lon="12.4629024"><ele>741.0</ele><time>2026-05-02T08:11:50.009Z</time></trkpt><trkpt lat="43.4845333" lon="12.4628547"><ele>741.0</ele><time>2026-05-02T08:11:51.006Z</time></trkpt><trkpt lat="43.4843966" lon="12.4628224"><ele>741.75</ele><time>2026-05-02T08:11:52.012Z</time></trkpt><trkpt lat="43.4842433" lon="12.4627758"><ele>742.5</ele><time>2026-05-02T08:11:53.013Z</time></trkpt><trkpt lat="43.4841062" lon="12.4626934"><ele>743.25</ele><time>2026-05-02T08:11:54.019Z</time></trkpt><trkpt lat="43.4839905" lon="12.4625855"><ele>744.0</ele><time>2026-05-02T08:11:55.01Z</time></trkpt><trkpt lat="43.4838659" lon="12.4624742"><ele>741.75</ele><time>2026-05-02T08:11:56.016Z</time></trkpt><trkpt lat="43.4837507" lon="12.4623369"><ele>739.5</ele><time>2026-05-02T08:11:57.011Z</time></trkpt><trkpt lat="43.4836467" lon="12.4622107"><ele>737.25</ele><time>2026-05-02T08:11:58.011Z</time></trkpt><trkpt lat="43.4835525" lon="12.4620851"><ele>735.0</ele><time>2026-05-02T08:11:59.007Z</time></trkpt><trkpt lat="43.4834674" lon="12.4619302"><ele>735.0</ele><time>2026-05-02T08:12:00.012Z</time></trkpt><trkpt lat="43.4833955" lon="12.4617591"><ele>735.0</ele><time>2026-05-02T08:12:01.008Z</time></trkpt><trkpt lat="43.4833297" lon="12.4615611"><ele>735.0</ele><time>2026-05-02T08:12:02.012Z</time></trkpt><trkpt lat="43.4832684" lon="12.461348"><ele>741.0</ele><time>2026-05-02T08:12:03.023Z</time></trkpt><trkpt lat="43.4832008" lon="12.461127"><ele>747.0</ele><time>2026-05-02T08:12:04.011Z</time></trkpt><trkpt lat="43.4831323" lon="12.4609014"><ele>753.0</ele><time>2026-05-02T08:12:05.011Z</time></trkpt><trkpt lat="43.4830637" lon="12.4606789"><ele>753.0</ele><time>2026-05-02T08:12:06.007Z</time></trkpt><trkpt lat="43.4830041" lon="12.4604699"><ele>753.0</ele><time>2026-05-02T08:12:07.008Z</time></trkpt><trkpt lat="43.4829445" lon="12.4602832"><ele>753.0</ele><time>2026-05-02T08:12:08.008Z</time></trkpt><trkpt lat="43.4828903" lon="12.4601109"><ele>753.0</ele><time>2026-05-02T08:12:09.008Z</time></trkpt><trkpt lat="43.4828327" lon="12.4599481"><ele>750.5999999999999</ele><time>2026-05-02T08:12:10.006Z</time></trkpt><trkpt lat="43.4827675" lon="12.4598036"><ele>748.1999999999999</ele><time>2026-05-02T08:12:11.024Z</time></trkpt><trkpt lat="43.4826869" lon="12.4597015"><ele>745.8</ele><time>2026-05-02T08:12:12.015Z</time></trkpt><trkpt lat="43.4825902" lon="12.4596437"><ele>743.4</ele><time>2026-05-02T08:12:13.008Z</time></trkpt><trkpt lat="43.4824834" lon="12.4596277"><ele>741.0</ele><time>2026-05-02T08:12:14.016Z</time></trkpt><trkpt lat="43.4823646" lon="12.4596543"><ele>741.0</ele><time>2026-05-02T08:12:15.016Z</time></trkpt><trkpt lat="43.48223" lon="12.4597215"><ele>741.0</ele><time>2026-05-02T08:12:16.014Z</time></trkpt><trkpt lat="43.4820936" lon="12.4598049"><ele>741.0</ele><time>2026-05-02T08:12:17.014Z</time></trkpt><trkpt lat="43.4819668" lon="12.4598867"><ele>741.0</ele><time>2026-05-02T08:12:18.019Z</time></trkpt><trkpt lat="43.4818612" lon="12.4599358"><ele>740.8</ele><time>2026-05-02T08:12:19.013Z</time></trkpt><trkpt lat="43.481757" lon="12.4599416"><ele>740.5999999999999</ele><time>2026-05-02T08:12:20.008Z</time></trkpt><trkpt lat="43.4816641" lon="12.4599009"><ele>740.4</ele><time>2026-05-02T08:12:21.02Z</time></trkpt><trkpt lat="43.4815829" lon="12.4598088"><ele>740.2</ele><time>2026-05-02T08:12:22.011Z</time></trkpt><trkpt lat="43.4815103" lon="12.459675"><ele>740.0</ele><time>2026-05-02T08:12:23.019Z</time></trkpt><trkpt lat="43.481443" lon="12.4595108"><ele>742.5</ele><time>2026-05-02T08:12:24.013Z</time></trkpt><trkpt lat="43.4813879" lon="12.4593382"><ele>745.0</ele><time>2026-05-02T08:12:25.01Z</time></trkpt><trkpt lat="43.4813251" lon="12.4591811"><ele>747.5</ele><time>2026-05-02T08:12:26.007Z</time></trkpt><trkpt lat="43.4812489" lon="12.459056"><ele>750.0</ele><time>2026-05-02T08:12:27.016Z</time></trkpt><trkpt lat="43.4811523" lon="12.4589705"><ele>750.0</ele><time>2026-05-02T08:12:28.009Z</time></trkpt><trkpt lat="43.4810512" lon="12.4589257"><ele>750.0</ele><time>2026-05-02T08:12:29.011Z</time></trkpt><trkpt lat="43.4809405" lon="12.4589125"><ele>750.0</ele><time>2026-05-02T08:12:30.009Z</time></trkpt><trkpt lat="43.4808107" lon="12.4589279"><ele>750.0</ele><time>2026-05-02T08:12:31.01Z</time></trkpt><trkpt lat="43.4806684" lon="12.458953"><ele>750.0</ele><time>2026-05-02T08:12:32.014Z</time></trkpt><trkpt lat="43.4805158" lon="12.4589827"><ele>750.0</ele><time>2026-05-02T08:12:33.017Z</time></trkpt><trkpt lat="43.4803693" lon="12.4589887"><ele>750.0</ele><time>2026-05-02T08:12:34.023Z</time></trkpt><trkpt lat="43.4802343" lon="12.458988"><ele>750.0</ele><time>2026-05-02T08:12:35.016Z</time></trkpt><trkpt lat="43.4801038" lon="12.4589581"><ele>751.0</ele><time>2026-05-02T08:12:36.007Z</time></trkpt><trkpt lat="43.4799642" lon="12.4588977"><ele>752.0</ele><time>2026-05-02T08:12:37.013Z</time></trkpt><trkpt lat="43.4798222" lon="12.4588299"><ele>753.0</ele><time>2026-05-02T08:12:38.019Z</time></trkpt><trkpt lat="43.4796641" lon="12.4587719"><ele>756.3333333333334</ele><time>2026-05-02T08:12:39.015Z</time></trkpt><trkpt lat="43.4795037" lon="12.4587204"><ele>759.6666666666667</ele><time>2026-05-02T08:12:40.023Z</time></trkpt><trkpt lat="43.4793359" lon="12.4586541"><ele>763.0</ele><time>2026-05-02T08:12:41.007Z</time></trkpt><trkpt lat="43.4791682" lon="12.4585704"><ele>763.0</ele><time>2026-05-02T08:12:42.009Z</time></trkpt><trkpt lat="43.4790084" lon="12.4584932"><ele>763.0</ele><time>2026-05-02T08:12:43.025Z</time></trkpt><trkpt lat="43.4788552" lon="12.4584422"><ele>763.0</ele><time>2026-05-02T08:12:44.01Z</time></trkpt><trkpt lat="43.4787037" lon="12.4584158"><ele>758.75</ele><time>2026-05-02T08:12:45.023Z</time></trkpt><trkpt lat="43.4785781" lon="12.4583926"><ele>754.5</ele><time>2026-05-02T08:12:46.014Z</time></trkpt><trkpt lat="43.478465" lon="12.4583466"><ele>750.25</ele><time>2026-05-02T08:12:47.009Z</time></trkpt><trkpt lat="43.4783708" lon="12.458264"><ele>746.0</ele><time>2026-05-02T08:12:48.026Z</time></trkpt><trkpt lat="43.4783143" lon="12.458147"><ele>746.0</ele><time>2026-05-02T08:12:49.027Z</time></trkpt><trkpt lat="43.4782864" lon="12.4580025"><ele>746.0</ele><time>2026-05-02T08:12:50.027Z</time></trkpt><trkpt lat="43.4782662" lon="12.4578517"><ele>746.0</ele><time>2026-05-02T08:12:51.013Z</time></trkpt><trkpt lat="43.4782312" lon="12.4577065"><ele>746.0</ele><time>2026-05-02T08:12:52.013Z</time></trkpt><trkpt lat="43.4781716" lon="12.4575905"><ele>746.0</ele><time>2026-05-02T08:12:53.022Z</time></trkpt><trkpt lat="43.4780895" lon="12.4575099"><ele>743.25</ele><time>2026-05-02T08:12:54.014Z</time></trkpt><trkpt lat="43.4779895" lon="12.4574426"><ele>740.5</ele><time>2026-05-02T08:12:55.02Z</time></trkpt><trkpt lat="43.4778807" lon="12.4573688"><ele>737.75</ele><time>2026-05-02T08:12:56.014Z</time></trkpt><trkpt lat="43.4777763" lon="12.4572796"><ele>735.0</ele><time>2026-05-02T08:12:57.02Z</time></trkpt><trkpt lat="43.4776774" lon="12.4571624"><ele>737.75</ele><time>2026-05-02T08:12:58.014Z</time></trkpt><trkpt lat="43.4775906" lon="12.4570145"><ele>740.5</ele><time>2026-05-02T08:12:59.018Z</time></trkpt><trkpt lat="43.4775144" lon="12.4568842"><ele>743.25</ele><time>2026-05-02T08:13:00.027Z</time></trkpt><trkpt lat="43.4774621" lon="12.4567356"><ele>746.0</ele><time>2026-05-02T08:13:01.016Z</time></trkpt><trkpt lat="43.4774401" lon="12.4565714"><ele>746.0</ele><time>2026-05-02T08:13:02.017Z</time></trkpt><trkpt lat="43.4774438" lon="12.4564086"><ele>746.0</ele><time>2026-05-02T08:13:03.019Z</time></trkpt><trkpt lat="43.4774602" lon="12.4562449"><ele>746.0</ele><time>2026-05-02T08:13:04.014Z</time></trkpt><trkpt lat="43.4774533" lon="12.4561049"><ele>746.0</ele><time>2026-05-02T08:13:05.016Z</time></trkpt><trkpt lat="43.4774215" lon="12.4559852"><ele>746.0</ele><time>2026-05-02T08:13:06.017Z</time></trkpt><trkpt lat="43.4773529" lon="12.455879"><ele>744.75</ele><time>2026-05-02T08:13:07.024Z</time></trkpt><trkpt lat="43.4772579" lon="12.4557934"><ele>743.5</ele><time>2026-05-02T08:13:08.009Z</time></trkpt><trkpt lat="43.4771496" lon="12.4557263"><ele>742.25</ele><time>2026-05-02T08:13:09.012Z</time></trkpt><trkpt lat="43.4770379" lon="12.4556788"><ele>741.0</ele><time>2026-05-02T08:13:10.014Z</time></trkpt><trkpt lat="43.4769251" lon="12.4556519"><ele>741.0</ele><time>2026-05-02T08:13:11.017Z</time></trkpt><trkpt lat="43.4768129" lon="12.4556488"><ele>741.0</ele><time>2026-05-02T08:13:12.023Z</time></trkpt><trkpt lat="43.4766995" lon="12.4556791"><ele>741.0</ele><time>2026-05-02T08:13:13.014Z</time></trkpt><trkpt lat="43.4766013" lon="12.4557232"><ele>741.0</ele><time>2026-05-02T08:13:14.021Z</time></trkpt><trkpt lat="43.4765013" lon="12.4557804"><ele>741.0</ele><time>2026-05-02T08:13:15.016Z</time></trkpt><trkpt lat="43.4763826" lon="12.4558255"><ele>739.5</ele><time>2026-05-02T08:13:16.025Z</time></trkpt><trkpt lat="43.4762522" lon="12.4558743"><ele>738.0</ele><time>2026-05-02T08:13:17.015Z</time></trkpt><trkpt lat="43.4761291" lon="12.4559222"><ele>736.5</ele><time>2026-05-02T08:13:18.016Z</time></trkpt><trkpt lat="43.4760117" lon="12.4559552"><ele>735.0</ele><time>2026-05-02T08:13:19.032Z</time></trkpt><trkpt lat="43.4758915" lon="12.4559595"><ele>735.0</ele><time>2026-05-02T08:13:20.032Z</time></trkpt><trkpt lat="43.475778" lon="12.4559254"><ele>735.0</ele><time>2026-05-02T08:13:21.02Z</time></trkpt><trkpt lat="43.4756806" lon="12.4558602"><ele>735.0</ele><time>2026-05-02T08:13:22.01Z</time></trkpt><trkpt lat="43.475596" lon="12.4557524"><ele>735.0</ele><time>2026-05-02T08:13:23.008Z</time></trkpt><trkpt lat="43.4755177" lon="12.4556136"><ele>733.5</ele><time>2026-05-02T08:13:24.027Z</time></trkpt><trkpt lat="43.4754371" lon="12.4554691"><ele>732.0</ele><time>2026-05-02T08:13:25.022Z</time></trkpt><trkpt lat="43.4753371" lon="12.4553541"><ele>730.5</ele><time>2026-05-02T08:13:26.008Z</time></trkpt><trkpt lat="43.4752153" lon="12.4552681"><ele>729.0</ele><time>2026-05-02T08:13:27.014Z</time></trkpt><trkpt lat="43.4750846" lon="12.4552049"><ele>729.0</ele><time>2026-05-02T08:13:28.013Z</time></trkpt><trkpt lat="43.474968" lon="12.4551105"><ele>729.0</ele><time>2026-05-02T08:13:29.018Z</time></trkpt><trkpt lat="43.4748736" lon="12.4549816"><ele>729.0</ele><time>2026-05-02T08:13:30.02Z</time></trkpt><trkpt lat="43.4748003" lon="12.4548276"><ele>729.0</ele><time>2026-05-02T08:13:31.019Z</time></trkpt><trkpt lat="43.4747377" lon="12.4546646"><ele>731.5</ele><time>2026-05-02T08:13:32.006Z</time></trkpt><trkpt lat="43.4747033" lon="12.4545045"><ele>734.0</ele><time>2026-05-02T08:13:33.021Z</time></trkpt><trkpt lat="43.4746937" lon="12.4543134"><ele>736.5</ele><time>2026-05-02T08:13:34.021Z</time></trkpt><trkpt lat="43.4747002" lon="12.4541324"><ele>739.0</ele><time>2026-05-02T08:13:35.017Z</time></trkpt><trkpt lat="43.4747171" lon="12.4539491"><ele>739.0</ele><time>2026-05-02T08:13:36.016Z</time></trkpt><trkpt lat="43.4747248" lon="12.4537932"><ele>739.0</ele><time>2026-05-02T08:13:37.013Z</time></trkpt><trkpt lat="43.4747298" lon="12.4536503"><ele>739.0</ele><time>2026-05-02T08:13:38.012Z</time></trkpt><trkpt lat="43.4747053" lon="12.4535511"><ele>739.0</ele><time>2026-05-02T08:13:39.018Z</time></trkpt><trkpt lat="43.474645" lon="12.4534805"><ele>739.0</ele><time>2026-05-02T08:13:40.027Z</time></trkpt><trkpt lat="43.4745551" lon="12.4534755"><ele>737.2</ele><time>2026-05-02T08:13:41.009Z</time></trkpt><trkpt lat="43.474475" lon="12.4535072"><ele>735.4000000000001</ele><time>2026-05-02T08:13:42.018Z</time></trkpt><trkpt lat="43.4743838" lon="12.4535583"><ele>733.6</ele><time>2026-05-02T08:13:43.023Z</time></trkpt><trkpt lat="43.474275" lon="12.4536257"><ele>731.8</ele><time>2026-05-02T08:13:44.029Z</time></trkpt><trkpt lat="43.474144" lon="12.453685"><ele>730.0</ele><time>2026-05-02T08:13:45.015Z</time></trkpt><trkpt lat="43.4740096" lon="12.4537499"><ele>724.6666666666667</ele><time>2026-05-02T08:13:46.024Z</time></trkpt><trkpt lat="43.473877" lon="12.4538329"><ele>719.3333333333334</ele><time>2026-05-02T08:13:47.04Z</time></trkpt><trkpt lat="43.4737439" lon="12.4539438"><ele>714.0</ele><time>2026-05-02T08:13:48.019Z</time></trkpt><trkpt lat="43.4736253" lon="12.4540697"><ele>712.75</ele><time>2026-05-02T08:13:49.036Z</time></trkpt><trkpt lat="43.4735212" lon="12.4541703"><ele>711.5</ele><time>2026-05-02T08:13:50.046Z</time></trkpt><trkpt lat="43.4734212" lon="12.454251"><ele>710.25</ele><time>2026-05-02T08:13:51.013Z</time></trkpt><trkpt lat="43.4733148" lon="12.4542998"><ele>709.0</ele><time>2026-05-02T08:13:52.028Z</time></trkpt><trkpt lat="43.4732178" lon="12.4542835"><ele>709.0</ele><time>2026-05-02T08:13:53.022Z</time></trkpt><trkpt lat="43.473112" lon="12.4542178"><ele>709.0</ele><time>2026-05-02T08:13:54.03Z</time></trkpt><trkpt lat="43.4730083" lon="12.4541231"><ele>709.0</ele><time>2026-05-02T08:13:55.014Z</time></trkpt><trkpt lat="43.4728992" lon="12.4540058"><ele>709.0</ele><time>2026-05-02T08:13:56.003Z</time></trkpt><trkpt lat="43.4727774" lon="12.4538755"><ele>706.25</ele><time>2026-05-02T08:13:57.028Z</time></trkpt><trkpt lat="43.4726657" lon="12.453738"><ele>703.5</ele><time>2026-05-02T08:13:58.023Z</time></trkpt><trkpt lat="43.4725781" lon="12.4536006"><ele>700.75</ele><time>2026-05-02T08:13:59.015Z</time></trkpt><trkpt lat="43.4725126" lon="12.4534707"><ele>698.0</ele><time>2026-05-02T08:14:00.017Z</time></trkpt><trkpt lat="43.4724771" lon="12.4533252"><ele>698.0</ele><time>2026-05-02T08:14:01.01Z</time></trkpt><trkpt lat="43.472481" lon="12.4531857"><ele>698.0</ele><time>2026-05-02T08:14:02.012Z</time></trkpt><trkpt lat="43.472519" lon="12.4530447"><ele>698.0</ele><time>2026-05-02T08:14:03.01Z</time></trkpt><trkpt lat="43.4725847" lon="12.4529013"><ele>698.0</ele><time>2026-05-02T08:14:04.022Z</time></trkpt><trkpt lat="43.4726791" lon="12.4527381"><ele>694.0</ele><time>2026-05-02T08:14:05.049Z</time></trkpt><trkpt lat="43.472784" lon="12.4525731"><ele>690.0</ele><time>2026-05-02T08:14:06.011Z</time></trkpt><trkpt lat="43.4728752" lon="12.4523911"><ele>686.0</ele><time>2026-05-02T08:14:07.017Z</time></trkpt><trkpt lat="43.4729425" lon="12.452215"><ele>690.0</ele><time>2026-05-02T08:14:08.029Z</time></trkpt><trkpt lat="43.4729806" lon="12.4520406"><ele>694.0</ele><time>2026-05-02T08:14:09.021Z</time></trkpt><trkpt lat="43.4730086" lon="12.4518849"><ele>698.0</ele><time>2026-05-02T08:14:10.011Z</time></trkpt><trkpt lat="43.473028" lon="12.4517393"><ele>702.0</ele><time>2026-05-02T08:14:11.012Z</time></trkpt><trkpt lat="43.4730239" lon="12.4516132"><ele>706.0</ele><time>2026-05-02T08:14:12.014Z</time></trkpt><trkpt lat="43.4729949" lon="12.4515196"><ele>703.0</ele><time>2026-05-02T08:14:13.019Z</time></trkpt><trkpt lat="43.4729388" lon="12.4514656"><ele>700.0</ele><time>2026-05-02T08:14:14.026Z</time></trkpt><trkpt lat="43.4728694" lon="12.4514524"><ele>697.0</ele><time>2026-05-02T08:14:15.017Z</time></trkpt><trkpt lat="43.4727872" lon="12.4514823"><ele>694.0</ele><time>2026-05-02T08:14:16.008Z</time></trkpt><trkpt lat="43.472685" lon="12.4515446"><ele>691.0</ele><time>2026-05-02T08:14:17.027Z</time></trkpt><trkpt lat="43.472563" lon="12.4516068"><ele>691.0</ele><time>2026-05-02T08:14:18.025Z</time></trkpt><trkpt lat="43.472425" lon="12.4516684"><ele>691.0</ele><time>2026-05-02T08:14:19.014Z</time></trkpt><trkpt lat="43.4722747" lon="12.4517203"><ele>691.0</ele><time>2026-05-02T08:14:20.01Z</time></trkpt><trkpt lat="43.4721166" lon="12.4517653"><ele>691.5</ele><time>2026-05-02T08:14:21.011Z</time></trkpt><trkpt lat="43.4719743" lon="12.4517984"><ele>692.0</ele><time>2026-05-02T08:14:22.019Z</time></trkpt><trkpt lat="43.4718187" lon="12.4518214"><ele>692.5</ele><time>2026-05-02T08:14:23.015Z</time></trkpt><trkpt lat="43.4716724" lon="12.4518332"><ele>693.0</ele><time>2026-05-02T08:14:24.007Z</time></trkpt><trkpt lat="43.4715274" lon="12.451844"><ele>693.0</ele><time>2026-05-02T08:14:25.017Z</time></trkpt><trkpt lat="43.4713909" lon="12.451863"><ele>693.0</ele><time>2026-05-02T08:14:26.024Z</time></trkpt><trkpt lat="43.4712779" lon="12.4519179"><ele>693.0</ele><time>2026-05-02T08:14:27.014Z</time></trkpt><trkpt lat="43.4711636" lon="12.4520067"><ele>693.0</ele><time>2026-05-02T08:14:28.008Z</time></trkpt><trkpt lat="43.4710635" lon="12.4521105"><ele>694.0</ele><time>2026-05-02T08:14:29.018Z</time></trkpt><trkpt lat="43.4709712" lon="12.4521854"><ele>695.0</ele><time>2026-05-02T08:14:30.016Z</time></trkpt><trkpt lat="43.4708628" lon="12.4521839"><ele>696.0</ele><time>2026-05-02T08:14:31.027Z</time></trkpt><trkpt lat="43.4707498" lon="12.4521379"><ele>697.0</ele><time>2026-05-02T08:14:32.017Z</time></trkpt><trkpt lat="43.4706429" lon="12.452059"><ele>697.0</ele><time>2026-05-02T08:14:33.008Z</time></trkpt><trkpt lat="43.4705202" lon="12.4519663"><ele>697.0</ele><time>2026-05-02T08:14:34.01Z</time></trkpt><trkpt lat="43.4703979" lon="12.4518562"><ele>697.0</ele><time>2026-05-02T08:14:35.001Z</time></trkpt><trkpt lat="43.4702721" lon="12.451748"><ele>697.0</ele><time>2026-05-02T08:14:36.013Z</time></trkpt><trkpt lat="43.4701455" lon="12.4516814"><ele>690.3333333333334</ele><time>2026-05-02T08:14:37.004Z</time></trkpt><trkpt lat="43.4700156" lon="12.4516403"><ele>683.6666666666666</ele><time>2026-05-02T08:14:38.01Z</time></trkpt><trkpt lat="43.4698601" lon="12.4516517"><ele>677.0</ele><time>2026-05-02T08:14:39.018Z</time></trkpt><trkpt lat="43.469697" lon="12.4516482"><ele>672.0</ele><time>2026-05-02T08:14:40.008Z</time></trkpt><trkpt lat="43.4695355" lon="12.451602"><ele>667.0</ele><time>2026-05-02T08:14:41.021Z</time></trkpt><trkpt lat="43.4693905" lon="12.4515357"><ele>662.0</ele><time>2026-05-02T08:14:42.017Z</time></trkpt><trkpt lat="43.46926" lon="12.4514642"><ele>662.0</ele><time>2026-05-02T08:14:43.009Z</time></trkpt><trkpt lat="43.4691215" lon="12.4513939"><ele>662.0</ele><time>2026-05-02T08:14:44.011Z</time></trkpt><trkpt lat="43.4689838" lon="12.4513409"><ele>662.0</ele><time>2026-05-02T08:14:45.017Z</time></trkpt><trkpt lat="43.4688581" lon="12.4513069"><ele>662.0</ele><time>2026-05-02T08:14:46.016Z</time></trkpt><trkpt lat="43.46872" lon="12.4513169"><ele>658.75</ele><time>2026-05-02T08:14:47.015Z</time></trkpt><trkpt lat="43.4685801" lon="12.4513398"><ele>655.5</ele><time>2026-05-02T08:14:48.015Z</time></trkpt><trkpt lat="43.4684466" lon="12.4513433"><ele>652.25</ele><time>2026-05-02T08:14:49.004Z</time></trkpt><trkpt lat="43.4683203" lon="12.4513452"><ele>649.0</ele><time>2026-05-02T08:14:50.027Z</time></trkpt><trkpt lat="43.4681957" lon="12.4513044"><ele>647.4000000000001</ele><time>2026-05-02T08:14:51.025Z</time></trkpt><trkpt lat="43.4680738" lon="12.4512378"><ele>645.8</ele><time>2026-05-02T08:14:52.032Z</time></trkpt><trkpt lat="43.4679776" lon="12.4511432"><ele>644.2</ele><time>2026-05-02T08:14:53.024Z</time></trkpt><trkpt lat="43.4679326" lon="12.4510264"><ele>642.5999999999999</ele><time>2026-05-02T08:14:54.013Z</time></trkpt><trkpt lat="43.4679106" lon="12.4508865"><ele>641.0</ele><time>2026-05-02T08:14:55.012Z</time></trkpt><trkpt lat="43.4679351" lon="12.4507511"><ele>645.5</ele><time>2026-05-02T08:14:56.01Z</time></trkpt><trkpt lat="43.4679881" lon="12.4506362"><ele>650.0</ele><time>2026-05-02T08:14:57.021Z</time></trkpt><trkpt lat="43.4680752" lon="12.4505573"><ele>654.5</ele><time>2026-05-02T08:14:58.012Z</time></trkpt><trkpt lat="43.4681835" lon="12.4504977"><ele>659.0</ele><time>2026-05-02T08:14:59.019Z</time></trkpt><trkpt lat="43.4683183" lon="12.4504587"><ele>656.3333333333333</ele><time>2026-05-02T08:15:00.025Z</time></trkpt><trkpt lat="43.4684859" lon="12.4504255"><ele>653.6666666666666</ele><time>2026-05-02T08:15:01.016Z</time></trkpt><trkpt lat="43.4686591" lon="12.4504087"><ele>651.0</ele><time>2026-05-02T08:15:02.03Z</time></trkpt><trkpt lat="43.4688174" lon="12.4503744"><ele>651.0</ele><time>2026-05-02T08:15:03.019Z</time></trkpt><trkpt lat="43.4689764" lon="12.4503373"><ele>651.0</ele><time>2026-05-02T08:15:04.019Z</time></trkpt><trkpt lat="43.4691307" lon="12.4502719"><ele>651.0</ele><time>2026-05-02T08:15:05.025Z</time></trkpt><trkpt lat="43.4692826" lon="12.4501845"><ele>651.0</ele><time>2026-05-02T08:15:06.014Z</time></trkpt><trkpt lat="43.4694221" lon="12.4500995"><ele>651.0</ele><time>2026-05-02T08:15:07.023Z</time></trkpt><trkpt lat="43.4695498" lon="12.450018"><ele>651.0</ele><time>2026-05-02T08:15:08.009Z</time></trkpt><trkpt lat="43.4696685" lon="12.4499423"><ele>651.0</ele><time>2026-05-02T08:15:09.005Z</time></trkpt><trkpt lat="43.4697725" lon="12.449887"><ele>653.4</ele><time>2026-05-02T08:15:10.007Z</time></trkpt><trkpt lat="43.4698516" lon="12.4498069"><ele>655.8</ele><time>2026-05-02T08:15:11.004Z</time></trkpt><trkpt lat="43.4699034" lon="12.449728"><ele>658.1999999999999</ele><time>2026-05-02T08:15:12.01Z</time></trkpt><trkpt lat="43.4699227" lon="12.449599"><ele>660.5999999999999</ele><time>2026-05-02T08:15:13.015Z</time></trkpt><trkpt lat="43.4699053" lon="12.4494592"><ele>663.0</ele><time>2026-05-02T08:15:14.021Z</time></trkpt><trkpt lat="43.4698594" lon="12.4493375"><ele>663.0</ele><time>2026-05-02T08:15:15.007Z</time></trkpt><trkpt lat="43.4697861" lon="12.4492512"><ele>663.0</ele><time>2026-05-02T08:15:16.013Z</time></trkpt><trkpt lat="43.4696959" lon="12.4491956"><ele>663.0</ele><time>2026-05-02T08:15:17.015Z</time></trkpt><trkpt lat="43.4695738" lon="12.4491664"><ele>663.0</ele><time>2026-05-02T08:15:18.009Z</time></trkpt><trkpt lat="43.4694232" lon="12.4491391"><ele>656.6666666666666</ele><time>2026-05-02T08:15:19.016Z</time></trkpt><trkpt lat="43.4692675" lon="12.4490913"><ele>650.3333333333333</ele><time>2026-05-02T08:15:20.012Z</time></trkpt><trkpt lat="43.469109" lon="12.4489922"><ele>644.0</ele><time>2026-05-02T08:15:21.019Z</time></trkpt><trkpt lat="43.468959" lon="12.4488747"><ele>643.6666666666666</ele><time>2026-05-02T08:15:22.016Z</time></trkpt><trkpt lat="43.4687995" lon="12.4487687"><ele>643.3333333333334</ele><time>2026-05-02T08:15:23.028Z</time></trkpt><trkpt lat="43.4686417" lon="12.448679"><ele>643.0</ele><time>2026-05-02T08:15:24.016Z</time></trkpt><trkpt lat="43.4685095" lon="12.448598"><ele>643.0</ele><time>2026-05-02T08:15:25.014Z</time></trkpt><trkpt lat="43.468383" lon="12.4485074"><ele>643.0</ele><time>2026-05-02T08:15:26.023Z</time></trkpt><trkpt lat="43.4682876" lon="12.4484164"><ele>643.0</ele><time>2026-05-02T08:15:27.018Z</time></trkpt><trkpt lat="43.4681899" lon="12.4483173"><ele>643.0</ele><time>2026-05-02T08:15:28.016Z</time></trkpt><trkpt lat="43.4680738" lon="12.4482532"><ele>640.25</ele><time>2026-05-02T08:15:29.016Z</time></trkpt><trkpt lat="43.467943" lon="12.4482188"><ele>637.5</ele><time>2026-05-02T08:15:30.019Z</time></trkpt><trkpt lat="43.4678078" lon="12.448231"><ele>634.75</ele><time>2026-05-02T08:15:31.013Z</time></trkpt><trkpt lat="43.467651" lon="12.4482739"><ele>632.0</ele><time>2026-05-02T08:15:32.02Z</time></trkpt><trkpt lat="43.4675001" lon="12.4483367"><ele>632.0</ele><time>2026-05-02T08:15:33.032Z</time></trkpt><trkpt lat="43.467388" lon="12.4483528"><ele>632.0</ele><time>2026-05-02T08:15:34.017Z</time></trkpt><trkpt lat="43.4672862" lon="12.4483244"><ele>632.0</ele><time>2026-05-02T08:15:35.014Z</time></trkpt><trkpt lat="43.4671849" lon="12.4482724"><ele>632.0</ele><time>2026-05-02T08:15:36.023Z</time></trkpt><trkpt lat="43.4671081" lon="12.4481715"><ele>632.0</ele><time>2026-05-02T08:15:37.034Z</time></trkpt><trkpt lat="43.4670627" lon="12.4480512"><ele>630.2</ele><time>2026-05-02T08:15:38.017Z</time></trkpt><trkpt lat="43.4670556" lon="12.447915"><ele>628.4000000000001</ele><time>2026-05-02T08:15:39.019Z</time></trkpt><trkpt lat="43.4670568" lon="12.4477471"><ele>626.5999999999999</ele><time>2026-05-02T08:15:40.009Z</time></trkpt><trkpt lat="43.4670673" lon="12.4475996"><ele>624.8</ele><time>2026-05-02T08:15:41.019Z</time></trkpt><trkpt lat="43.4670713" lon="12.4474604"><ele>623.0</ele><time>2026-05-02T08:15:42.007Z</time></trkpt><trkpt lat="43.4670515" lon="12.4473246"><ele>623.0</ele><time>2026-05-02T08:15:43.014Z</time></trkpt><trkpt lat="43.4670108" lon="12.447195"><ele>623.0</ele><time>2026-05-02T08:15:44.011Z</time></trkpt><trkpt lat="43.4669385" lon="12.4470952"><ele>623.0</ele><time>2026-05-02T08:15:45.021Z</time></trkpt><trkpt lat="43.4668581" lon="12.4470359"><ele>623.0</ele><time>2026-05-02T08:15:46.018Z</time></trkpt><trkpt lat="43.4667674" lon="12.4470286"><ele>623.0</ele><time>2026-05-02T08:15:47.016Z</time></trkpt><trkpt lat="43.4666834" lon="12.4470898"><ele>623.0</ele><time>2026-05-02T08:15:48.008Z</time></trkpt><trkpt lat="43.4666227" lon="12.4471859"><ele>623.0</ele><time>2026-05-02T08:15:49.019Z</time></trkpt><trkpt lat="43.4665866" lon="12.4473073"><ele>623.0</ele><time>2026-05-02T08:15:50.021Z</time></trkpt><trkpt lat="43.4665858" lon="12.4474299"><ele>623.0</ele><time>2026-05-02T08:15:51.014Z</time></trkpt><trkpt lat="43.466621" lon="12.4475838"><ele>623.0</ele><time>2026-05-02T08:15:52.01Z</time></trkpt><trkpt lat="43.4666695" lon="12.4477645"><ele>623.0</ele><time>2026-05-02T08:15:53.018Z</time></trkpt><trkpt lat="43.466716" lon="12.4479495"><ele>623.0</ele><time>2026-05-02T08:15:54.023Z</time></trkpt><trkpt lat="43.466765" lon="12.4481175"><ele>623.0</ele><time>2026-05-02T08:15:55.024Z</time></trkpt><trkpt lat="43.4667992" lon="12.4482444"><ele>623.0</ele><time>2026-05-02T08:15:56.014Z</time></trkpt><trkpt lat="43.4668168" lon="12.4483604"><ele>622.1666666666666</ele><time>2026-05-02T08:15:57.019Z</time></trkpt><trkpt lat="43.4668088" lon="12.4484648"><ele>621.3333333333333</ele><time>2026-05-02T08:15:58.01Z</time></trkpt><trkpt lat="43.4667764" lon="12.44856"><ele>620.5</ele><time>2026-05-02T08:15:59.011Z</time></trkpt><trkpt lat="43.4667125" lon="12.448616"><ele>619.6666666666666</ele><time>2026-05-02T08:16:00.014Z</time></trkpt><trkpt lat="43.4666279" lon="12.4486367"><ele>618.8333333333334</ele><time>2026-05-02T08:16:01.032Z</time></trkpt><trkpt lat="43.4665397" lon="12.448618"><ele>618.0</ele><time>2026-05-02T08:16:02.017Z</time></trkpt><trkpt lat="43.4664685" lon="12.4485567"><ele>618.0</ele><time>2026-05-02T08:16:03.014Z</time></trkpt><trkpt lat="43.4664154" lon="12.4484624"><ele>618.0</ele><time>2026-05-02T08:16:04.019Z</time></trkpt><trkpt lat="43.4663724" lon="12.4483304"><ele>618.0</ele><time>2026-05-02T08:16:05.04Z</time></trkpt><trkpt lat="43.4663322" lon="12.4481886"><ele>618.0</ele><time>2026-05-02T08:16:06.016Z</time></trkpt><trkpt lat="43.4662938" lon="12.4480258"><ele>618.0</ele><time>2026-05-02T08:16:07.011Z</time></trkpt><trkpt lat="43.4662487" lon="12.4478684"><ele>615.25</ele><time>2026-05-02T08:16:08.027Z</time></trkpt><trkpt lat="43.4661937" lon="12.4477319"><ele>612.5</ele><time>2026-05-02T08:16:09.017Z</time></trkpt><trkpt lat="43.4661033" lon="12.447617"><ele>609.75</ele><time>2026-05-02T08:16:10.013Z</time></trkpt><trkpt lat="43.4659922" lon="12.4475346"><ele>607.0</ele><time>2026-05-02T08:16:11.013Z</time></trkpt><trkpt lat="43.4658646" lon="12.4474808"><ele>607.0</ele><time>2026-05-02T08:16:12.014Z</time></trkpt><trkpt lat="43.4657319" lon="12.4474296"><ele>607.0</ele><time>2026-05-02T08:16:13.017Z</time></trkpt><trkpt lat="43.4656134" lon="12.4473931"><ele>607.0</ele><time>2026-05-02T08:16:14.016Z</time></trkpt><trkpt lat="43.4655008" lon="12.4473482"><ele>607.0</ele><time>2026-05-02T08:16:15.015Z</time></trkpt><trkpt lat="43.4654113" lon="12.44729"><ele>606.2</ele><time>2026-05-02T08:16:16.017Z</time></trkpt><trkpt lat="43.46534" lon="12.4471939"><ele>605.4000000000001</ele><time>2026-05-02T08:16:17.023Z</time></trkpt><trkpt lat="43.4652995" lon="12.4470664"><ele>604.5999999999999</ele><time>2026-05-02T08:16:18.007Z</time></trkpt><trkpt lat="43.4652742" lon="12.4469135"><ele>603.8</ele><time>2026-05-02T08:16:19.015Z</time></trkpt><trkpt lat="43.4652529" lon="12.4467529"><ele>603.0</ele><time>2026-05-02T08:16:20.01Z</time></trkpt><trkpt lat="43.4652163" lon="12.4466119"><ele>603.0</ele><time>2026-05-02T08:16:21.013Z</time></trkpt><trkpt lat="43.4651568" lon="12.4465005"><ele>603.0</ele><time>2026-05-02T08:16:22.01Z</time></trkpt><trkpt lat="43.4650668" lon="12.4464288"><ele>603.0</ele><time>2026-05-02T08:16:23.022Z</time></trkpt><trkpt lat="43.4649628" lon="12.4463785"><ele>603.0</ele><time>2026-05-02T08:16:24.018Z</time></trkpt><trkpt lat="43.4648315" lon="12.4463649"><ele>603.0</ele><time>2026-05-02T08:16:25.014Z</time></trkpt><trkpt lat="43.464673" lon="12.4463614"><ele>600.25</ele><time>2026-05-02T08:16:26.008Z</time></trkpt><trkpt lat="43.4645173" lon="12.4463843"><ele>597.5</ele><time>2026-05-02T08:16:27.019Z</time></trkpt><trkpt lat="43.4643802" lon="12.4464137"><ele>594.75</ele><time>2026-05-02T08:16:28.016Z</time></trkpt><trkpt lat="43.4642488" lon="12.4464426"><ele>592.0</ele><time>2026-05-02T08:16:29.028Z</time></trkpt><trkpt lat="43.4641353" lon="12.4464416"><ele>592.0</ele><time>2026-05-02T08:16:30.031Z</time></trkpt><trkpt lat="43.4640159" lon="12.4464049"><ele>592.0</ele><time>2026-05-02T08:16:31.01Z</time></trkpt><trkpt lat="43.4639127" lon="12.4463288"><ele>592.0</ele><time>2026-05-02T08:16:32.005Z</time></trkpt><trkpt lat="43.463829" lon="12.4462368"><ele>592.0</ele><time>2026-05-02T08:16:33.016Z</time></trkpt><trkpt lat="43.4637723" lon="12.4461312"><ele>592.0</ele><time>2026-05-02T08:16:34.007Z</time></trkpt><trkpt lat="43.4637479" lon="12.4460089"><ele>594.0</ele><time>2026-05-02T08:16:35.009Z</time></trkpt><trkpt lat="43.4637482" lon="12.4458716"><ele>596.0</ele><time>2026-05-02T08:16:36.009Z</time></trkpt><trkpt lat="43.4637948" lon="12.4457548"><ele>598.0</ele><time>2026-05-02T08:16:37.011Z</time></trkpt><trkpt lat="43.4638332" lon="12.4456451"><ele>600.0</ele><time>2026-05-02T08:16:38.018Z</time></trkpt><trkpt lat="43.4638361" lon="12.4455296"><ele>602.0</ele><time>2026-05-02T08:16:39.015Z</time></trkpt><trkpt lat="43.4638067" lon="12.4454184"><ele>599.4</ele><time>2026-05-02T08:16:40.012Z</time></trkpt><trkpt lat="43.4637422" lon="12.4453304"><ele>596.8000000000001</ele><time>2026-05-02T08:16:41.01Z</time></trkpt><trkpt lat="43.4636591" lon="12.4452864"><ele>594.2</ele><time>2026-05-02T08:16:42.016Z</time></trkpt><trkpt lat="43.4635601" lon="12.4452718"><ele>591.6</ele><time>2026-05-02T08:16:43.017Z</time></trkpt><trkpt lat="43.4634397" lon="12.4452805"><ele>589.0</ele><time>2026-05-02T08:16:44.011Z</time></trkpt><trkpt lat="43.4633145" lon="12.445269"><ele>589.0</ele><time>2026-05-02T08:16:45.019Z</time></trkpt><trkpt lat="43.4632065" lon="12.4452148"><ele>589.0</ele><time>2026-05-02T08:16:46.017Z</time></trkpt><trkpt lat="43.463141" lon="12.4451101"><ele>589.0</ele><time>2026-05-02T08:16:47.014Z</time></trkpt><trkpt lat="43.4630945" lon="12.4449749"><ele>589.0</ele><time>2026-05-02T08:16:48.015Z</time></trkpt><trkpt lat="43.4630666" lon="12.4448229"><ele>589.0</ele><time>2026-05-02T08:16:49.024Z</time></trkpt><trkpt lat="43.4630598" lon="12.4446276"><ele>589.5</ele><time>2026-05-02T08:16:50.021Z</time></trkpt><trkpt lat="43.4630711" lon="12.4444508"><ele>590.0</ele><time>2026-05-02T08:16:51.021Z</time></trkpt><trkpt lat="43.4630985" lon="12.4442876"><ele>590.5</ele><time>2026-05-02T08:16:52.02Z</time></trkpt><trkpt lat="43.4631315" lon="12.4441307"><ele>591.0</ele><time>2026-05-02T08:16:53.017Z</time></trkpt><trkpt lat="43.4631639" lon="12.4439955"><ele>591.0</ele><time>2026-05-02T08:16:54.013Z</time></trkpt><trkpt lat="43.4631779" lon="12.4438697"><ele>591.0</ele><time>2026-05-02T08:16:55.018Z</time></trkpt><trkpt lat="43.4631771" lon="12.4437475"><ele>591.0</ele><time>2026-05-02T08:16:56.017Z</time></trkpt><trkpt lat="43.4631488" lon="12.4436374"><ele>591.0</ele><time>2026-05-02T08:16:57.014Z</time></trkpt><trkpt lat="43.4630727" lon="12.4435443"><ele>591.0</ele><time>2026-05-02T08:16:58.021Z</time></trkpt><trkpt lat="43.4629836" lon="12.4435039"><ele>588.5</ele><time>2026-05-02T08:16:59.011Z</time></trkpt><trkpt lat="43.4628579" lon="12.4435013"><ele>586.0</ele><time>2026-05-02T08:17:00.018Z</time></trkpt><trkpt lat="43.4627314" lon="12.4435041"><ele>583.5</ele><time>2026-05-02T08:17:01.018Z</time></trkpt><trkpt lat="43.4626116" lon="12.4434979"><ele>581.0</ele><time>2026-05-02T08:17:02.007Z</time></trkpt><trkpt lat="43.4625071" lon="12.4434206"><ele>581.0</ele><time>2026-05-02T08:17:02.996Z</time></trkpt><trkpt lat="43.4624077" lon="12.4433057"><ele>581.0</ele><time>2026-05-02T08:17:04.033Z</time></trkpt><trkpt lat="43.4622908" lon="12.4431789"><ele>581.0</ele><time>2026-05-02T08:17:05.036Z</time></trkpt><trkpt lat="43.462154" lon="12.4430394"><ele>581.0</ele><time>2026-05-02T08:17:06.008Z</time></trkpt><trkpt lat="43.462013" lon="12.4428995"><ele>578.0</ele><time>2026-05-02T08:17:07.008Z</time></trkpt><trkpt lat="43.4618718" lon="12.442766"><ele>575.0</ele><time>2026-05-02T08:17:08.008Z</time></trkpt><trkpt lat="43.4617365" lon="12.4426379"><ele>572.0</ele><time>2026-05-02T08:17:09.026Z</time></trkpt><trkpt lat="43.4616058" lon="12.4425148"><ele>572.0</ele><time>2026-05-02T08:17:09.999Z</time></trkpt><trkpt lat="43.461473" lon="12.4423826"><ele>572.0</ele><time>2026-05-02T08:17:11.011Z</time></trkpt><trkpt lat="43.4613412" lon="12.442249"><ele>572.0</ele><time>2026-05-02T08:17:12.015Z</time></trkpt><trkpt lat="43.461205" lon="12.4421074"><ele>571.0</ele><time>2026-05-02T08:17:13.004Z</time></trkpt><trkpt lat="43.4610669" lon="12.4419614"><ele>570.0</ele><time>2026-05-02T08:17:14.012Z</time></trkpt><trkpt lat="43.460928" lon="12.4418257"><ele>569.0</ele><time>2026-05-02T08:17:15.018Z</time></trkpt><trkpt lat="43.4607854" lon="12.4416838"><ele>569.0</ele><time>2026-05-02T08:17:16.018Z</time></trkpt><trkpt lat="43.4606466" lon="12.4415453"><ele>569.0</ele><time>2026-05-02T08:17:17.018Z</time></trkpt><trkpt lat="43.460509" lon="12.441408"><ele>569.0</ele><time>2026-05-02T08:17:18.023Z</time></trkpt><trkpt lat="43.4603727" lon="12.4412587"><ele>566.6666666666666</ele><time>2026-05-02T08:17:19.024Z</time></trkpt><trkpt lat="43.4602299" lon="12.4410947"><ele>564.3333333333334</ele><time>2026-05-02T08:17:20.014Z</time></trkpt><trkpt lat="43.4600819" lon="12.4409255"><ele>562.0</ele><time>2026-05-02T08:17:21.007Z</time></trkpt><trkpt lat="43.4599507" lon="12.4407329"><ele>562.0</ele><time>2026-05-02T08:17:22.019Z</time></trkpt><trkpt lat="43.4598244" lon="12.4405421"><ele>562.0</ele><time>2026-05-02T08:17:23.006Z</time></trkpt><trkpt lat="43.4597006" lon="12.4403421"><ele>562.0</ele><time>2026-05-02T08:17:24.009Z</time></trkpt><trkpt lat="43.4595649" lon="12.4401306"><ele>561.0</ele><time>2026-05-02T08:17:25.02Z</time></trkpt><trkpt lat="43.4594227" lon="12.4399162"><ele>560.0</ele><time>2026-05-02T08:17:26.025Z</time></trkpt><trkpt lat="43.4592821" lon="12.4397076"><ele>559.0</ele><time>2026-05-02T08:17:27.014Z</time></trkpt><trkpt lat="43.4591398" lon="12.4395017"><ele>559.0</ele><time>2026-05-02T08:17:28.015Z</time></trkpt><trkpt lat="43.4590009" lon="12.4393046"><ele>559.0</ele><time>2026-05-02T08:17:29.024Z</time></trkpt><trkpt lat="43.4588755" lon="12.4391155"><ele>559.0</ele><time>2026-05-02T08:17:30.022Z</time></trkpt><trkpt lat="43.4587585" lon="12.4389357"><ele>556.0</ele><time>2026-05-02T08:17:31.018Z</time></trkpt><trkpt lat="43.4586451" lon="12.4387534"><ele>553.0</ele><time>2026-05-02T08:17:32.021Z</time></trkpt><trkpt lat="43.4585292" lon="12.4385705"><ele>550.0</ele><time>2026-05-02T08:17:33.017Z</time></trkpt><trkpt lat="43.4584114" lon="12.4383721"><ele>550.0</ele><time>2026-05-02T08:17:34.022Z</time></trkpt><trkpt lat="43.4582912" lon="12.4381586"><ele>550.0</ele><time>2026-05-02T08:17:35.025Z</time></trkpt><trkpt lat="43.4581679" lon="12.4379386"><ele>550.0</ele><time>2026-05-02T08:17:36.016Z</time></trkpt><trkpt lat="43.4580475" lon="12.4377181"><ele>547.6666666666667</ele><time>2026-05-02T08:17:37.025Z</time></trkpt><trkpt lat="43.4579244" lon="12.437494"><ele>545.3333333333334</ele><time>2026-05-02T08:17:38.016Z</time></trkpt><trkpt lat="43.4577985" lon="12.4372695"><ele>543.0</ele><time>2026-05-02T08:17:39.019Z</time></trkpt><trkpt lat="43.457673" lon="12.4370425"><ele>543.0</ele><time>2026-05-02T08:17:40.015Z</time></trkpt><trkpt lat="43.4575488" lon="12.4368161"><ele>543.0</ele><time>2026-05-02T08:17:41.016Z</time></trkpt><trkpt lat="43.4574263" lon="12.4365983"><ele>543.0</ele><time>2026-05-02T08:17:42.02Z</time></trkpt><trkpt lat="43.4573053" lon="12.4363865"><ele>543.6666666666666</ele><time>2026-05-02T08:17:43.024Z</time></trkpt><trkpt lat="43.4571874" lon="12.4361755"><ele>544.3333333333333</ele><time>2026-05-02T08:17:44.014Z</time></trkpt><trkpt lat="43.4570832" lon="12.4359809"><ele>545.0</ele><time>2026-05-02T08:17:45.007Z</time></trkpt><trkpt lat="43.456989" lon="12.4357955"><ele>543.25</ele><time>2026-05-02T08:17:46.013Z</time></trkpt><trkpt lat="43.4568992" lon="12.435626"><ele>541.5</ele><time>2026-05-02T08:17:47.021Z</time></trkpt><trkpt lat="43.4568172" lon="12.4354677"><ele>539.75</ele><time>2026-05-02T08:17:48.008Z</time></trkpt><trkpt lat="43.4567242" lon="12.4353262"><ele>538.0</ele><time>2026-05-02T08:17:49.014Z</time></trkpt><trkpt lat="43.4566062" lon="12.4352083"><ele>538.0</ele><time>2026-05-02T08:17:50.01Z</time></trkpt><trkpt lat="43.4564688" lon="12.4350965"><ele>538.0</ele><time>2026-05-02T08:17:51.01Z</time></trkpt><trkpt lat="43.4563238" lon="12.4350367"><ele>538.0</ele><time>2026-05-02T08:17:52.015Z</time></trkpt><trkpt lat="43.4561702" lon="12.4349956"><ele>536.6666666666667</ele><time>2026-05-02T08:17:53.006Z</time></trkpt><trkpt lat="43.4559969" lon="12.434944"><ele>535.3333333333334</ele><time>2026-05-02T08:17:54.009Z</time></trkpt><trkpt lat="43.4558392" lon="12.4348805"><ele>534.0</ele><time>2026-05-02T08:17:55.028Z</time></trkpt><trkpt lat="43.455693" lon="12.4348492"><ele>534.0</ele><time>2026-05-02T08:17:56.006Z</time></trkpt><trkpt lat="43.4555579" lon="12.4348473"><ele>534.0</ele><time>2026-05-02T08:17:57.026Z</time></trkpt><trkpt lat="43.4554143" lon="12.4348844"><ele>534.0</ele><time>2026-05-02T08:17:58.018Z</time></trkpt><trkpt lat="43.4552635" lon="12.4349617"><ele>534.0</ele><time>2026-05-02T08:17:59.014Z</time></trkpt><trkpt lat="43.4551198" lon="12.4350557"><ele>532.3333333333334</ele><time>2026-05-02T08:18:00.018Z</time></trkpt><trkpt lat="43.454965" lon="12.4351579"><ele>530.6666666666667</ele><time>2026-05-02T08:18:01.032Z</time></trkpt><trkpt lat="43.4548103" lon="12.4352466"><ele>529.0</ele><time>2026-05-02T08:18:02.014Z</time></trkpt><trkpt lat="43.4546436" lon="12.4353069"><ele>528.6666666666667</ele><time>2026-05-02T08:18:03.017Z</time></trkpt><trkpt lat="43.4544737" lon="12.4353322"><ele>528.3333333333334</ele><time>2026-05-02T08:18:04.025Z</time></trkpt><trkpt lat="43.4543024" lon="12.4353125"><ele>528.0</ele><time>2026-05-02T08:18:05.011Z</time></trkpt><trkpt lat="43.4541383" lon="12.4352823"><ele>528.0</ele><time>2026-05-02T08:18:06.017Z</time></trkpt><trkpt lat="43.4539629" lon="12.4352553"><ele>528.0</ele><time>2026-05-02T08:18:07.008Z</time></trkpt><trkpt lat="43.4537982" lon="12.4352361"><ele>528.0</ele><time>2026-05-02T08:18:08.016Z</time></trkpt><trkpt lat="43.4536382" lon="12.4352174"><ele>528.6666666666666</ele><time>2026-05-02T08:18:09.013Z</time></trkpt><trkpt lat="43.4534738" lon="12.4352203"><ele>529.3333333333333</ele><time>2026-05-02T08:18:10.03Z</time></trkpt><trkpt lat="43.4533079" lon="12.4352502"><ele>530.0</ele><time>2026-05-02T08:18:11.037Z</time></trkpt><trkpt lat="43.4531352" lon="12.4352929"><ele>530.0</ele><time>2026-05-02T08:18:12.015Z</time></trkpt><trkpt lat="43.4529654" lon="12.435356"><ele>530.0</ele><time>2026-05-02T08:18:13.016Z</time></trkpt><trkpt lat="43.452791" lon="12.4354059"><ele>530.0</ele><time>2026-05-02T08:18:14.034Z</time></trkpt><trkpt lat="43.4526217" lon="12.4354598"><ele>534.3333333333333</ele><time>2026-05-02T08:18:15.034Z</time></trkpt><trkpt lat="43.4524434" lon="12.435505"><ele>538.6666666666666</ele><time>2026-05-02T08:18:16.023Z</time></trkpt><trkpt lat="43.452254" lon="12.4355163"><ele>543.0</ele><time>2026-05-02T08:18:17.025Z</time></trkpt><trkpt lat="43.4520609" lon="12.4354874"><ele>537.6666666666666</ele><time>2026-05-02T08:18:18.006Z</time></trkpt><trkpt lat="43.4518634" lon="12.4354408"><ele>532.3333333333333</ele><time>2026-05-02T08:18:19.024Z</time></trkpt><trkpt lat="43.4516681" lon="12.4353931"><ele>527.0</ele><time>2026-05-02T08:18:20.017Z</time></trkpt><trkpt lat="43.4514756" lon="12.4353514"><ele>527.0</ele><time>2026-05-02T08:18:21.014Z</time></trkpt><trkpt lat="43.4512802" lon="12.4353097"><ele>527.0</ele><time>2026-05-02T08:18:22.015Z</time></trkpt><trkpt lat="43.4510818" lon="12.4352672"><ele>527.0</ele><time>2026-05-02T08:18:23.017Z</time></trkpt><trkpt lat="43.4508793" lon="12.4352217"><ele>527.0</ele><time>2026-05-02T08:18:24.029Z</time></trkpt><trkpt lat="43.4506731" lon="12.4351699"><ele>527.0</ele><time>2026-05-02T08:18:25.02Z</time></trkpt><trkpt lat="43.4504767" lon="12.4351301"><ele>527.0</ele><time>2026-05-02T08:18:26.019Z</time></trkpt><trkpt lat="43.4502997" lon="12.4350902"><ele>527.3333333333333</ele><time>2026-05-02T08:18:27.015Z</time></trkpt><trkpt lat="43.4501329" lon="12.435044"><ele>527.6666666666666</ele><time>2026-05-02T08:18:28.014Z</time></trkpt><trkpt lat="43.4499673" lon="12.4350022"><ele>528.0</ele><time>2026-05-02T08:18:29.025Z</time></trkpt><trkpt lat="43.4497993" lon="12.4349699"><ele>528.0</ele><time>2026-05-02T08:18:30.008Z</time></trkpt><trkpt lat="43.4496376" lon="12.4349463"><ele>528.0</ele><time>2026-05-02T08:18:31.008Z</time></trkpt><trkpt lat="43.4494726" lon="12.4349475"><ele>528.0</ele><time>2026-05-02T08:18:32.019Z</time></trkpt><trkpt lat="43.4493025" lon="12.4349614"><ele>527.0</ele><time>2026-05-02T08:18:33.032Z</time></trkpt><trkpt lat="43.4491185" lon="12.4350003"><ele>526.0</ele><time>2026-05-02T08:18:34.011Z</time></trkpt><trkpt lat="43.4489347" lon="12.4350512"><ele>525.0</ele><time>2026-05-02T08:18:35.011Z</time></trkpt><trkpt lat="43.4487588" lon="12.4351077"><ele>523.0</ele><time>2026-05-02T08:18:36.01Z</time></trkpt><trkpt lat="43.4485883" lon="12.4351598"><ele>521.0</ele><time>2026-05-02T08:18:37.009Z</time></trkpt><trkpt lat="43.4484364" lon="12.4352236"><ele>519.0</ele><time>2026-05-02T08:18:38.007Z</time></trkpt><trkpt lat="43.448297" lon="12.435281"><ele>519.0</ele><time>2026-05-02T08:18:39.021Z</time></trkpt><trkpt lat="43.4481684" lon="12.4353526"><ele>519.0</ele><time>2026-05-02T08:18:40.032Z</time></trkpt><trkpt lat="43.4480493" lon="12.4354438"><ele>519.0</ele><time>2026-05-02T08:18:41.034Z</time></trkpt><trkpt lat="43.4479442" lon="12.4355481"><ele>519.0</ele><time>2026-05-02T08:18:41.996Z</time></trkpt><trkpt lat="43.4478608" lon="12.4356597"><ele>519.0</ele><time>2026-05-02T08:18:43.009Z</time></trkpt><trkpt lat="43.4477714" lon="12.4357719"><ele>519.0</ele><time>2026-05-02T08:18:44.036Z</time></trkpt><trkpt lat="43.4476689" lon="12.4358575"><ele>519.0</ele><time>2026-05-02T08:18:45.017Z</time></trkpt><trkpt lat="43.4475613" lon="12.4359183"><ele>519.0</ele><time>2026-05-02T08:18:46.029Z</time></trkpt><trkpt lat="43.4474415" lon="12.4359274"><ele>519.0</ele><time>2026-05-02T08:18:47.024Z</time></trkpt><trkpt lat="43.4473063" lon="12.4358961"><ele>519.0</ele><time>2026-05-02T08:18:48.011Z</time></trkpt><trkpt lat="43.4471505" lon="12.4358616"><ele>519.0</ele><time>2026-05-02T08:18:49.028Z</time></trkpt><trkpt lat="43.4469878" lon="12.4358259"><ele>519.75</ele><time>2026-05-02T08:18:50.02Z</time></trkpt><trkpt lat="43.4468317" lon="12.4357887"><ele>520.5</ele><time>2026-05-02T08:18:51.018Z</time></trkpt><trkpt lat="43.4466853" lon="12.4357562"><ele>521.25</ele><time>2026-05-02T08:18:52.02Z</time></trkpt><trkpt lat="43.446548" lon="12.4357308"><ele>522.0</ele><time>2026-05-02T08:18:53.02Z</time></trkpt><trkpt lat="43.4464287" lon="12.4357027"><ele>522.0</ele><time>2026-05-02T08:18:54.016Z</time></trkpt><trkpt lat="43.446306" lon="12.4356763"><ele>522.0</ele><time>2026-05-02T08:18:55.018Z</time></trkpt><trkpt lat="43.4461778" lon="12.4356573"><ele>522.0</ele><time>2026-05-02T08:18:56.012Z</time></trkpt><trkpt lat="43.4460573" lon="12.4356384"><ele>522.0</ele><time>2026-05-02T08:18:57.025Z</time></trkpt><trkpt lat="43.4459442" lon="12.4356184"><ele>522.5</ele><time>2026-05-02T08:18:58.015Z</time></trkpt><trkpt lat="43.4458464" lon="12.4355936"><ele>523.0</ele><time>2026-05-02T08:18:59.002Z</time></trkpt><trkpt lat="43.4457653" lon="12.4355737"><ele>523.5</ele><time>2026-05-02T08:19:00.004Z</time></trkpt><trkpt lat="43.4456709" lon="12.4355496"><ele>524.0</ele><time>2026-05-02T08:19:01.007Z</time></trkpt><trkpt lat="43.4455919" lon="12.4355357"><ele>524.5</ele><time>2026-05-02T08:19:01.991Z</time></trkpt><trkpt lat="43.4455192" lon="12.4355067"><ele>525.0</ele><time>2026-05-02T08:19:02.994Z</time></trkpt><trkpt lat="43.4454509" lon="12.4354883"><ele>525.1666666666666</ele><time>2026-05-02T08:19:03.994Z</time></trkpt><trkpt lat="43.445342" lon="12.4355121"><ele>525.3333333333334</ele><time>2026-05-02T08:19:06.011Z</time></trkpt><trkpt lat="43.4452782" lon="12.4355451"><ele>525.5</ele><time>2026-05-02T08:19:08.026Z</time></trkpt><trkpt lat="43.4452162" lon="12.4355212"><ele>525.6666666666667</ele><time>2026-05-02T08:19:12.007Z</time></trkpt><trkpt lat="43.4451487" lon="12.4354977"><ele>525.8333333333334</ele><time>2026-05-02T08:20:21.015Z</time></trkpt><trkpt lat="43.4450751" lon="12.4354473"><ele>526.0</ele><time>2026-05-02T08:20:24.031Z</time></trkpt><trkpt lat="43.4450083" lon="12.4353939"><ele>526.0</ele><time>2026-05-02T08:20:26.014Z</time></trkpt><trkpt lat="43.4449466" lon="12.4353598"><ele>526.0</ele><time>2026-05-02T08:20:27.017Z</time></trkpt><trkpt lat="43.4448582" lon="12.4353213"><ele>526.0</ele><time>2026-05-02T08:20:28.02Z</time></trkpt><trkpt lat="43.4447594" lon="12.4352816"><ele>526.0</ele><time>2026-05-02T08:20:29.029Z</time></trkpt><trkpt lat="43.4446495" lon="12.4352486"><ele>526.0</ele><time>2026-05-02T08:20:30.015Z</time></trkpt><trkpt lat="43.4445443" lon="12.435218"><ele>526.0</ele><time>2026-05-02T08:20:31.019Z</time></trkpt><trkpt lat="43.4444341" lon="12.4351861"><ele>526.0</ele><time>2026-05-02T08:20:32.019Z</time></trkpt><trkpt lat="43.444336" lon="12.4351581"><ele>526.0</ele><time>2026-05-02T08:20:33.021Z</time></trkpt><trkpt lat="43.4442496" lon="12.4351279"><ele>526.0</ele><time>2026-05-02T08:20:34.037Z</time></trkpt><trkpt lat="43.4441624" lon="12.4350933"><ele>526.0</ele><time>2026-05-02T08:20:35.022Z</time></trkpt><trkpt lat="43.4440661" lon="12.4350601"><ele>526.0</ele><time>2026-05-02T08:20:36.029Z</time></trkpt><trkpt lat="43.4439563" lon="12.4350171"><ele>526.0</ele><time>2026-05-02T08:20:37.028Z</time></trkpt><trkpt lat="43.4438366" lon="12.4349757"><ele>526.0</ele><time>2026-05-02T08:20:38.016Z</time></trkpt><trkpt lat="43.4437161" lon="12.4349321"><ele>526.0</ele><time>2026-05-02T08:20:39.011Z</time></trkpt><trkpt lat="43.4435858" lon="12.4348936"><ele>526.3333333333334</ele><time>2026-05-02T08:20:40.038Z</time></trkpt><trkpt lat="43.4434305" lon="12.4348424"><ele>526.6666666666666</ele><time>2026-05-02T08:20:41.028Z</time></trkpt><trkpt lat="43.4432598" lon="12.4347905"><ele>527.0</ele><time>2026-05-02T08:20:42.034Z</time></trkpt><trkpt lat="43.4430884" lon="12.4347417"><ele>529.3333333333333</ele><time>2026-05-02T08:20:43.022Z</time></trkpt><trkpt lat="43.4429263" lon="12.4347037"><ele>531.6666666666666</ele><time>2026-05-02T08:20:44.012Z</time></trkpt><trkpt lat="43.4427629" lon="12.4346518"><ele>534.0</ele><time>2026-05-02T08:20:45.021Z</time></trkpt><trkpt lat="43.4425976" lon="12.4346061"><ele>527.0</ele><time>2026-05-02T08:20:46.021Z</time></trkpt><trkpt lat="43.4424446" lon="12.4345568"><ele>520.0</ele><time>2026-05-02T08:20:47.008Z</time></trkpt><trkpt lat="43.4423022" lon="12.434503"><ele>513.0</ele><time>2026-05-02T08:20:48.013Z</time></trkpt><trkpt lat="43.4421601" lon="12.4344612"><ele>512.6666666666666</ele><time>2026-05-02T08:20:49.025Z</time></trkpt><trkpt lat="43.4420156" lon="12.4344306"><ele>512.3333333333333</ele><time>2026-05-02T08:20:50.021Z</time></trkpt><trkpt lat="43.4418584" lon="12.4344248"><ele>512.0</ele><time>2026-05-02T08:20:51.023Z</time></trkpt><trkpt lat="43.4416954" lon="12.4344225"><ele>512.0</ele><time>2026-05-02T08:20:52.017Z</time></trkpt><trkpt lat="43.4415121" lon="12.4344228"><ele>512.0</ele><time>2026-05-02T08:20:53.016Z</time></trkpt><trkpt lat="43.4413152" lon="12.4344213"><ele>512.0</ele><time>2026-05-02T08:20:54.018Z</time></trkpt><trkpt lat="43.4411151" lon="12.4344322"><ele>510.66666666666663</ele><time>2026-05-02T08:20:55.026Z</time></trkpt><trkpt lat="43.4409327" lon="12.434442"><ele>509.33333333333337</ele><time>2026-05-02T08:20:56.017Z</time></trkpt><trkpt lat="43.4407568" lon="12.4344414"><ele>508.0</ele><time>2026-05-02T08:20:57.021Z</time></trkpt><trkpt lat="43.4405845" lon="12.4344394"><ele>506.33333333333337</ele><time>2026-05-02T08:20:58.017Z</time></trkpt><trkpt lat="43.4404227" lon="12.4344357"><ele>504.66666666666663</ele><time>2026-05-02T08:20:59.017Z</time></trkpt><trkpt lat="43.4402567" lon="12.4344493"><ele>503.0</ele><time>2026-05-02T08:21:00.019Z</time></trkpt><trkpt lat="43.4400929" lon="12.4344526"><ele>503.0</ele><time>2026-05-02T08:21:01.023Z</time></trkpt><trkpt lat="43.4399344" lon="12.4344492"><ele>503.0</ele><time>2026-05-02T08:21:02.022Z</time></trkpt><trkpt lat="43.4397948" lon="12.4344459"><ele>503.0</ele><time>2026-05-02T08:21:03.029Z</time></trkpt><trkpt lat="43.4396611" lon="12.4344448"><ele>503.0</ele><time>2026-05-02T08:21:04.021Z</time></trkpt><trkpt lat="43.4395451" lon="12.434442"><ele>502.66666666666663</ele><time>2026-05-02T08:21:05.028Z</time></trkpt><trkpt lat="43.4394468" lon="12.4344425"><ele>502.3333333333333</ele><time>2026-05-02T08:21:06.025Z</time></trkpt><trkpt lat="43.4393814" lon="12.4344425"><ele>502.0</ele><time>2026-05-02T08:21:07.019Z</time></trkpt><trkpt lat="43.4392882" lon="12.4344292"><ele>501.66666666666663</ele><time>2026-05-02T08:21:09.02Z</time></trkpt><trkpt lat="43.4392116" lon="12.4344006"><ele>501.3333333333333</ele><time>2026-05-02T08:21:11.01Z</time></trkpt><trkpt lat="43.4391347" lon="12.4344301"><ele>501.0</ele><time>2026-05-02T08:21:13.029Z</time></trkpt><trkpt lat="43.4390961" lon="12.4345181"><ele>501.0</ele><time>2026-05-02T08:21:15.003Z</time></trkpt><trkpt lat="43.439144" lon="12.4346021"><ele>501.0</ele><time>2026-05-02T08:21:17.013Z</time></trkpt><trkpt lat="43.4392338" lon="12.4345724"><ele>501.0</ele><time>2026-05-02T08:21:19.044Z</time></trkpt><trkpt lat="43.4392491" lon="12.4344512"><ele>501.0</ele><time>2026-05-02T08:21:21.01Z</time></trkpt><trkpt lat="43.4391495" lon="12.4343842"><ele>501.0</ele><time>2026-05-02T08:21:23.009Z</time></trkpt><trkpt lat="43.4390665" lon="12.434394"><ele>501.0</ele><time>2026-05-02T08:21:24.026Z</time></trkpt><trkpt lat="43.4389735" lon="12.4344436"><ele>501.0</ele><time>2026-05-02T08:21:25.015Z</time></trkpt><trkpt lat="43.4388558" lon="12.4344433"><ele>501.0</ele><time>2026-05-02T08:21:26.014Z</time></trkpt><trkpt lat="43.4387211" lon="12.4344389"><ele>501.0</ele><time>2026-05-02T08:21:27.029Z</time></trkpt><trkpt lat="43.4385802" lon="12.4344123"><ele>501.33333333333337</ele><time>2026-05-02T08:21:28.033Z</time></trkpt><trkpt lat="43.4384181" lon="12.4343767"><ele>501.6666666666667</ele><time>2026-05-02T08:21:29.018Z</time></trkpt><trkpt lat="43.4382487" lon="12.4343394"><ele>502.0</ele><time>2026-05-02T08:21:30.012Z</time></trkpt><trkpt lat="43.438082" lon="12.4342963"><ele>504.0</ele><time>2026-05-02T08:21:31.017Z</time></trkpt><trkpt lat="43.4379001" lon="12.4342484"><ele>506.0</ele><time>2026-05-02T08:21:32.018Z</time></trkpt><trkpt lat="43.4377289" lon="12.4342056"><ele>508.0</ele><time>2026-05-02T08:21:33.017Z</time></trkpt><trkpt lat="43.4375664" lon="12.4341614"><ele>508.0</ele><time>2026-05-02T08:21:34.033Z</time></trkpt><trkpt lat="43.4374179" lon="12.4341142"><ele>508.0</ele><time>2026-05-02T08:21:35.012Z</time></trkpt><trkpt lat="43.4372794" lon="12.4340801"><ele>508.0</ele><time>2026-05-02T08:21:36.017Z</time></trkpt><trkpt lat="43.437144" lon="12.4340523"><ele>508.0</ele><time>2026-05-02T08:21:37.015Z</time></trkpt><trkpt lat="43.4370207" lon="12.434034"><ele>508.6666666666667</ele><time>2026-05-02T08:21:38.01Z</time></trkpt><trkpt lat="43.4369118" lon="12.4340183"><ele>509.33333333333337</ele><time>2026-05-02T08:21:39.012Z</time></trkpt><trkpt lat="43.436814" lon="12.4340137"><ele>510.0</ele><time>2026-05-02T08:21:40.018Z</time></trkpt><trkpt lat="43.436728" lon="12.4340045"><ele>510.66666666666663</ele><time>2026-05-02T08:21:41.012Z</time></trkpt><trkpt lat="43.4366523" lon="12.4339969"><ele>511.3333333333333</ele><time>2026-05-02T08:21:42.014Z</time></trkpt><trkpt lat="43.4365888" lon="12.4340017"><ele>512.0</ele><time>2026-05-02T08:21:43.033Z</time></trkpt><trkpt lat="43.4364835" lon="12.4340017"><ele>511.99999999999994</ele><time>2026-05-02T08:21:45.017Z</time></trkpt><trkpt lat="43.4364018" lon="12.4339598"><ele>512.0</ele><time>2026-05-02T08:21:47.012Z</time></trkpt><trkpt lat="43.43636" lon="12.4338847"><ele>512.0</ele><time>2026-05-02T08:21:49.021Z</time></trkpt><trkpt lat="43.4362851" lon="12.4339416"><ele>512.0</ele><time>2026-05-02T08:26:04.025Z</time></trkpt><trkpt lat="43.4362484" lon="12.4340203"><ele>511.99999999999994</ele><time>2026-05-02T08:26:08.009Z</time></trkpt><trkpt lat="43.4363128" lon="12.4340369"><ele>512.0</ele><time>2026-05-02T08:26:10.016Z</time></trkpt><trkpt lat="43.4364172" lon="12.4340229"><ele>511.99999999999994</ele><time>2026-05-02T08:26:12.007Z</time></trkpt><trkpt lat="43.4364863" lon="12.4340284"><ele>512.0</ele><time>2026-05-02T08:26:14.02Z</time></trkpt><trkpt lat="43.4365526" lon="12.434034"><ele>512.0</ele><time>2026-05-02T08:26:17.007Z</time></trkpt><trkpt lat="43.4366237" lon="12.4339812"><ele>512.0</ele><time>2026-05-02T08:30:12.01Z</time></trkpt><trkpt lat="43.4367004" lon="12.4339821"><ele>511.99999999999994</ele><time>2026-05-02T08:30:13.016Z</time></trkpt><trkpt lat="43.436788" lon="12.4339996"><ele>512.0</ele><time>2026-05-02T08:30:14.016Z</time></trkpt><trkpt lat="43.4368831" lon="12.4340283"><ele>512.0</ele><time>2026-05-02T08:30:15.017Z</time></trkpt><trkpt lat="43.4369879" lon="12.434048"><ele>512.0</ele><time>2026-05-02T08:30:16.016Z</time></trkpt><trkpt lat="43.4371103" lon="12.434073"><ele>512.0</ele><time>2026-05-02T08:30:17.012Z</time></trkpt><trkpt lat="43.4372409" lon="12.4340958"><ele>512.0</ele><time>2026-05-02T08:30:18.029Z</time></trkpt><trkpt lat="43.4373711" lon="12.434131"><ele>511.0</ele><time>2026-05-02T08:30:19.019Z</time></trkpt><trkpt lat="43.4375065" lon="12.4341644"><ele>510.0</ele><time>2026-05-02T08:30:20.018Z</time></trkpt><trkpt lat="43.4376421" lon="12.4341916"><ele>509.0</ele><time>2026-05-02T08:30:21.013Z</time></trkpt><trkpt lat="43.437779" lon="12.4342234"><ele>508.0</ele><time>2026-05-02T08:30:22.021Z</time></trkpt><trkpt lat="43.437907" lon="12.4342547"><ele>506.5</ele><time>2026-05-02T08:30:23.016Z</time></trkpt><trkpt lat="43.438038" lon="12.4342902"><ele>505.0</ele><time>2026-05-02T08:30:24.017Z</time></trkpt><trkpt lat="43.438171" lon="12.4343296"><ele>503.5</ele><time>2026-05-02T08:30:25.015Z</time></trkpt><trkpt lat="43.4382942" lon="12.4343599"><ele>502.0</ele><time>2026-05-02T08:30:26.028Z</time></trkpt><trkpt lat="43.4384082" lon="12.4343788"><ele>502.00000000000006</ele><time>2026-05-02T08:30:27.039Z</time></trkpt><trkpt lat="43.4385103" lon="12.4344027"><ele>502.0</ele><time>2026-05-02T08:30:28.014Z</time></trkpt><trkpt lat="43.4386039" lon="12.4344253"><ele>502.0</ele><time>2026-05-02T08:30:29.012Z</time></trkpt><trkpt lat="43.4386933" lon="12.434438"><ele>502.0</ele><time>2026-05-02T08:30:30.032Z</time></trkpt><trkpt lat="43.4387746" lon="12.4344412"><ele>502.00000000000006</ele><time>2026-05-02T08:30:31.018Z</time></trkpt><trkpt lat="43.4388436" lon="12.4344404"><ele>502.0</ele><time>2026-05-02T08:30:32.024Z</time></trkpt><trkpt lat="43.4389089" lon="12.4344402"><ele>501.8</ele><time>2026-05-02T08:30:33.021Z</time></trkpt><trkpt lat="43.4390266" lon="12.4344837"><ele>501.6</ele><time>2026-05-02T08:30:35.024Z</time></trkpt><trkpt lat="43.4390854" lon="12.4345404"><ele>501.40000000000003</ele><time>2026-05-02T08:30:36.028Z</time></trkpt><trkpt lat="43.4391493" lon="12.4346215"><ele>501.20000000000005</ele><time>2026-05-02T08:30:37.01Z</time></trkpt><trkpt lat="43.4392141" lon="12.4347347"><ele>501.0</ele><time>2026-05-02T08:30:38.019Z</time></trkpt><trkpt lat="43.4392629" lon="12.4348502"><ele>501.8333333333333</ele><time>2026-05-02T08:30:39.008Z</time></trkpt><trkpt lat="43.4393054" lon="12.434948"><ele>502.66666666666663</ele><time>2026-05-02T08:30:40.004Z</time></trkpt><trkpt lat="43.4393411" lon="12.4350355"><ele>503.5</ele><time>2026-05-02T08:30:41.024Z</time></trkpt><trkpt lat="43.439386" lon="12.4351266"><ele>504.3333333333333</ele><time>2026-05-02T08:30:42.021Z</time></trkpt><trkpt lat="43.4394379" lon="12.435234"><ele>505.16666666666663</ele><time>2026-05-02T08:30:43.02Z</time></trkpt><trkpt lat="43.439492" lon="12.4353557"><ele>506.0</ele><time>2026-05-02T08:30:44.007Z</time></trkpt><trkpt lat="43.4395439" lon="12.4354946"><ele>506.3333333333333</ele><time>2026-05-02T08:30:45.016Z</time></trkpt><trkpt lat="43.4395968" lon="12.4356194"><ele>506.66666666666663</ele><time>2026-05-02T08:30:46.019Z</time></trkpt><trkpt lat="43.4396366" lon="12.435738"><ele>507.0</ele><time>2026-05-02T08:30:47.024Z</time></trkpt><trkpt lat="43.4396746" lon="12.4358399"><ele>507.33333333333337</ele><time>2026-05-02T08:30:48.031Z</time></trkpt><trkpt lat="43.4397088" lon="12.4359205"><ele>507.6666666666667</ele><time>2026-05-02T08:30:49.025Z</time></trkpt><trkpt lat="43.4397487" lon="12.4359991"><ele>508.0</ele><time>2026-05-02T08:30:51.029Z</time></trkpt><trkpt lat="43.4397966" lon="12.4360858"><ele>508.00000000000006</ele><time>2026-05-02T08:31:32.033Z</time></trkpt><trkpt lat="43.439835" lon="12.4361589"><ele>508.0</ele><time>2026-05-02T08:31:33.021Z</time></trkpt><trkpt lat="43.4398812" lon="12.4362463"><ele>508.0</ele><time>2026-05-02T08:31:34.016Z</time></trkpt><trkpt lat="43.4399271" lon="12.4363541"><ele>508.0</ele><time>2026-05-02T08:31:35.018Z</time></trkpt><trkpt lat="43.4399726" lon="12.4364736"><ele>508.00000000000006</ele><time>2026-05-02T08:31:36.026Z</time></trkpt><trkpt lat="43.4400241" lon="12.4366063"><ele>508.0</ele><time>2026-05-02T08:31:37.031Z</time></trkpt><trkpt lat="43.4400774" lon="12.436739"><ele>508.2</ele><time>2026-05-02T08:31:38.026Z</time></trkpt><trkpt lat="43.4401251" lon="12.4368564"><ele>508.4</ele><time>2026-05-02T08:31:39.022Z</time></trkpt><trkpt lat="43.4401716" lon="12.4369724"><ele>508.59999999999997</ele><time>2026-05-02T08:31:40.02Z</time></trkpt><trkpt lat="43.440217" lon="12.4370921"><ele>508.79999999999995</ele><time>2026-05-02T08:31:41.012Z</time></trkpt><trkpt lat="43.4402724" lon="12.4372265"><ele>509.0</ele><time>2026-05-02T08:31:42.024Z</time></trkpt><trkpt lat="43.4403285" lon="12.4373688"><ele>508.5</ele><time>2026-05-02T08:31:43.03Z</time></trkpt><trkpt lat="43.4403937" lon="12.4375297"><ele>508.0</ele><time>2026-05-02T08:31:44.015Z</time></trkpt><trkpt lat="43.44046" lon="12.4376803"><ele>507.5</ele><time>2026-05-02T08:31:45.011Z</time></trkpt><trkpt lat="43.4405238" lon="12.4378407"><ele>507.0</ele><time>2026-05-02T08:31:46.028Z</time></trkpt><trkpt lat="43.4405986" lon="12.4380105"><ele>509.33333333333337</ele><time>2026-05-02T08:31:47.022Z</time></trkpt><trkpt lat="43.4406793" lon="12.4382134"><ele>511.6666666666667</ele><time>2026-05-02T08:31:48.021Z</time></trkpt><trkpt lat="43.44077" lon="12.4384292"><ele>514.0</ele><time>2026-05-02T08:31:49.016Z</time></trkpt><trkpt lat="43.4408666" lon="12.438648"><ele>513.3333333333334</ele><time>2026-05-02T08:31:50.033Z</time></trkpt><trkpt lat="43.44096" lon="12.4388782"><ele>512.6666666666666</ele><time>2026-05-02T08:31:51.012Z</time></trkpt><trkpt lat="43.4410533" lon="12.439101"><ele>512.0</ele><time>2026-05-02T08:31:52.02Z</time></trkpt><trkpt lat="43.4411457" lon="12.4393011"><ele>512.0</ele><time>2026-05-02T08:31:53.017Z</time></trkpt><trkpt lat="43.4412288" lon="12.4394999"><ele>512.0</ele><time>2026-05-02T08:31:54.02Z</time></trkpt><trkpt lat="43.4412995" lon="12.4396943"><ele>512.0</ele><time>2026-05-02T08:31:55.026Z</time></trkpt><trkpt lat="43.4413628" lon="12.4399"><ele>514.3333333333333</ele><time>2026-05-02T08:31:56.028Z</time></trkpt><trkpt lat="43.4414171" lon="12.4401249"><ele>516.6666666666666</ele><time>2026-05-02T08:31:57.028Z</time></trkpt><trkpt lat="43.4414691" lon="12.4403577"><ele>519.0</ele><time>2026-05-02T08:31:58.011Z</time></trkpt><trkpt lat="43.4415144" lon="12.4405923"><ele>519.0</ele><time>2026-05-02T08:31:59.019Z</time></trkpt><trkpt lat="43.4415545" lon="12.440823"><ele>519.0</ele><time>2026-05-02T08:32:00.023Z</time></trkpt><trkpt lat="43.4415934" lon="12.4410526"><ele>519.0</ele><time>2026-05-02T08:32:01.018Z</time></trkpt><trkpt lat="43.4416312" lon="12.4412825"><ele>518.3333333333334</ele><time>2026-05-02T08:32:02.007Z</time></trkpt><trkpt lat="43.4416741" lon="12.441516"><ele>517.6666666666667</ele><time>2026-05-02T08:32:03.033Z</time></trkpt><trkpt lat="43.4417202" lon="12.4417515"><ele>517.0</ele><time>2026-05-02T08:32:04.025Z</time></trkpt><trkpt lat="43.4417628" lon="12.4419865"><ele>517.3333333333334</ele><time>2026-05-02T08:32:05.013Z</time></trkpt><trkpt lat="43.4418055" lon="12.4422245"><ele>517.6666666666666</ele><time>2026-05-02T08:32:06.031Z</time></trkpt><trkpt lat="43.4418508" lon="12.4424617"><ele>518.0</ele><time>2026-05-02T08:32:07.015Z</time></trkpt><trkpt lat="43.4418897" lon="12.442694"><ele>518.0</ele><time>2026-05-02T08:32:08.018Z</time></trkpt><trkpt lat="43.4419296" lon="12.4429241"><ele>518.0</ele><time>2026-05-02T08:32:09.017Z</time></trkpt><trkpt lat="43.4419691" lon="12.4431554"><ele>518.0</ele><time>2026-05-02T08:32:10.018Z</time></trkpt><trkpt lat="43.4420128" lon="12.4433909"><ele>518.0</ele><time>2026-05-02T08:32:11.018Z</time></trkpt><trkpt lat="43.442056" lon="12.4436301"><ele>518.0</ele><time>2026-05-02T08:32:12.001Z</time></trkpt><trkpt lat="43.4420996" lon="12.4438713"><ele>518.0</ele><time>2026-05-02T08:32:13.03Z</time></trkpt><trkpt lat="43.4421422" lon="12.444106"><ele>522.0</ele><time>2026-05-02T08:32:14.019Z</time></trkpt><trkpt lat="43.4421816" lon="12.4443344"><ele>526.0</ele><time>2026-05-02T08:32:15.033Z</time></trkpt><trkpt lat="43.4422227" lon="12.4445644"><ele>530.0</ele><time>2026-05-02T08:32:16.018Z</time></trkpt><trkpt lat="43.4422664" lon="12.444797"><ele>530.0</ele><time>2026-05-02T08:32:17.016Z</time></trkpt><trkpt lat="43.4423076" lon="12.4450294"><ele>530.0</ele><time>2026-05-02T08:32:18.019Z</time></trkpt><trkpt lat="43.4423484" lon="12.4452639"><ele>530.0</ele><time>2026-05-02T08:32:19.022Z</time></trkpt><trkpt lat="43.4423883" lon="12.4455014"><ele>531.6666666666666</ele><time>2026-05-02T08:32:20.009Z</time></trkpt><trkpt lat="43.4424261" lon="12.4457382"><ele>533.3333333333334</ele><time>2026-05-02T08:32:21.017Z</time></trkpt><trkpt lat="43.4424677" lon="12.4459637"><ele>535.0</ele><time>2026-05-02T08:32:22.029Z</time></trkpt><trkpt lat="43.4425037" lon="12.4461849"><ele>534.6666666666667</ele><time>2026-05-02T08:32:23.023Z</time></trkpt><trkpt lat="43.442537" lon="12.4463971"><ele>534.3333333333334</ele><time>2026-05-02T08:32:24.028Z</time></trkpt><trkpt lat="43.4425728" lon="12.4466019"><ele>534.0</ele><time>2026-05-02T08:32:25.027Z</time></trkpt><trkpt lat="43.4426009" lon="12.446809"><ele>534.0</ele><time>2026-05-02T08:32:26.006Z</time></trkpt><trkpt lat="43.4426309" lon="12.446996"><ele>534.0</ele><time>2026-05-02T08:32:27.02Z</time></trkpt><trkpt lat="43.4426605" lon="12.4471721"><ele>534.0</ele><time>2026-05-02T08:32:28.01Z</time></trkpt><trkpt lat="43.4426837" lon="12.4473394"><ele>534.0</ele><time>2026-05-02T08:32:29.024Z</time></trkpt><trkpt lat="43.4427181" lon="12.4475066"><ele>533.6</ele><time>2026-05-02T08:32:30.009Z</time></trkpt><trkpt lat="43.4427496" lon="12.4476694"><ele>533.2</ele><time>2026-05-02T08:32:31.01Z</time></trkpt><trkpt lat="43.442773" lon="12.4478141"><ele>532.8000000000001</ele><time>2026-05-02T08:32:32.045Z</time></trkpt><trkpt lat="43.4427977" lon="12.4479429"><ele>532.4</ele><time>2026-05-02T08:32:33.018Z</time></trkpt><trkpt lat="43.4428198" lon="12.4480762"><ele>532.0</ele><time>2026-05-02T08:32:34.022Z</time></trkpt><trkpt lat="43.4428386" lon="12.4482249"><ele>531.8000000000001</ele><time>2026-05-02T08:32:35.026Z</time></trkpt><trkpt lat="43.4428511" lon="12.4483658"><ele>531.6</ele><time>2026-05-02T08:32:36.024Z</time></trkpt><trkpt lat="43.4428587" lon="12.448479"><ele>531.4000000000001</ele><time>2026-05-02T08:32:37.007Z</time></trkpt><trkpt lat="43.4428451" lon="12.4485709"><ele>531.2</ele><time>2026-05-02T08:32:38.008Z</time></trkpt><trkpt lat="43.4427925" lon="12.4487104"><ele>531.0</ele><time>2026-05-02T08:32:40.037Z</time></trkpt><trkpt lat="43.4427709" lon="12.4488642"><ele>530.0</ele><time>2026-05-02T08:32:42.018Z</time></trkpt><trkpt lat="43.4427926" lon="12.4489516"><ele>529.0</ele><time>2026-05-02T08:32:43.016Z</time></trkpt><trkpt lat="43.4428345" lon="12.449064"><ele>528.0</ele><time>2026-05-02T08:32:44.018Z</time></trkpt><trkpt lat="43.4428782" lon="12.4492079"><ele>527.0</ele><time>2026-05-02T08:32:45.011Z</time></trkpt><trkpt lat="43.4429166" lon="12.4493801"><ele>526.0</ele><time>2026-05-02T08:32:46.023Z</time></trkpt><trkpt lat="43.4429514" lon="12.4495752"><ele>528.3333333333334</ele><time>2026-05-02T08:32:47.017Z</time></trkpt><trkpt lat="43.4429838" lon="12.4497963"><ele>530.6666666666666</ele><time>2026-05-02T08:32:48.017Z</time></trkpt><trkpt lat="43.4430118" lon="12.4500119"><ele>533.0</ele><time>2026-05-02T08:32:49.011Z</time></trkpt><trkpt lat="43.4430643" lon="12.4502257"><ele>533.0</ele><time>2026-05-02T08:32:50.011Z</time></trkpt><trkpt lat="43.4431028" lon="12.4504466"><ele>533.0</ele><time>2026-05-02T08:32:51.002Z</time></trkpt><trkpt lat="43.4431419" lon="12.45069"><ele>533.0</ele><time>2026-05-02T08:32:52.008Z</time></trkpt><trkpt lat="43.4431792" lon="12.450938"><ele>533.3333333333333</ele><time>2026-05-02T08:32:53.009Z</time></trkpt><trkpt lat="43.4432137" lon="12.4511766"><ele>533.6666666666666</ele><time>2026-05-02T08:32:54.01Z</time></trkpt><trkpt lat="43.443256" lon="12.4513832"><ele>534.0</ele><time>2026-05-02T08:32:55.004Z</time></trkpt><trkpt lat="43.4432925" lon="12.4515779"><ele>534.0</ele><time>2026-05-02T08:32:56.009Z</time></trkpt><trkpt lat="43.4433292" lon="12.4517632"><ele>534.0</ele><time>2026-05-02T08:32:57.029Z</time></trkpt><trkpt lat="43.4433653" lon="12.4519605"><ele>534.0</ele><time>2026-05-02T08:32:58.01Z</time></trkpt><trkpt lat="43.4433997" lon="12.4521555"><ele>534.0</ele><time>2026-05-02T08:32:59.003Z</time></trkpt><trkpt lat="43.4434349" lon="12.452346"><ele>534.0</ele><time>2026-05-02T08:33:00.026Z</time></trkpt><trkpt lat="43.44347" lon="12.4525382"><ele>534.0</ele><time>2026-05-02T08:33:01.017Z</time></trkpt><trkpt lat="43.4435043" lon="12.4527133"><ele>534.0</ele><time>2026-05-02T08:33:02.016Z</time></trkpt><trkpt lat="43.4435344" lon="12.4528678"><ele>534.0</ele><time>2026-05-02T08:33:03.004Z</time></trkpt><trkpt lat="43.4435616" lon="12.4530165"><ele>534.2</ele><time>2026-05-02T08:33:04.014Z</time></trkpt><trkpt lat="43.4435885" lon="12.4531624"><ele>534.4</ele><time>2026-05-02T08:33:05.018Z</time></trkpt><trkpt lat="43.4436194" lon="12.4533036"><ele>534.6</ele><time>2026-05-02T08:33:06.014Z</time></trkpt><trkpt lat="43.4436602" lon="12.4534458"><ele>534.8</ele><time>2026-05-02T08:33:07.012Z</time></trkpt><trkpt lat="43.443708" lon="12.4535841"><ele>535.0</ele><time>2026-05-02T08:33:08.012Z</time></trkpt><trkpt lat="43.4437669" lon="12.4537229"><ele>538.75</ele><time>2026-05-02T08:33:09.011Z</time></trkpt><trkpt lat="43.4438301" lon="12.4538632"><ele>542.5</ele><time>2026-05-02T08:33:10.028Z</time></trkpt><trkpt lat="43.4438931" lon="12.4540083"><ele>546.25</ele><time>2026-05-02T08:33:11.008Z</time></trkpt><trkpt lat="43.4439648" lon="12.4541527"><ele>550.0</ele><time>2026-05-02T08:33:12.012Z</time></trkpt><trkpt lat="43.4440348" lon="12.4543001"><ele>550.0</ele><time>2026-05-02T08:33:13.015Z</time></trkpt><trkpt lat="43.444108" lon="12.4544438"><ele>550.0</ele><time>2026-05-02T08:33:14.012Z</time></trkpt><trkpt lat="43.4441834" lon="12.4545837"><ele>550.0</ele><time>2026-05-02T08:33:15.017Z</time></trkpt><trkpt lat="43.444261" lon="12.4547428"><ele>550.0</ele><time>2026-05-02T08:33:16.002Z</time></trkpt><trkpt lat="43.4443479" lon="12.4549142"><ele>548.6666666666667</ele><time>2026-05-02T08:33:17.02Z</time></trkpt><trkpt lat="43.4444373" lon="12.4550875"><ele>547.3333333333334</ele><time>2026-05-02T08:33:18.008Z</time></trkpt><trkpt lat="43.4445259" lon="12.455264"><ele>546.0</ele><time>2026-05-02T08:33:19.006Z</time></trkpt><trkpt lat="43.4446114" lon="12.4554271"><ele>549.25</ele><time>2026-05-02T08:33:20.024Z</time></trkpt><trkpt lat="43.4446933" lon="12.4555896"><ele>552.5</ele><time>2026-05-02T08:33:21.01Z</time></trkpt><trkpt lat="43.4447696" lon="12.4557522"><ele>555.75</ele><time>2026-05-02T08:33:22.006Z</time></trkpt><trkpt lat="43.444846" lon="12.4559028"><ele>559.0</ele><time>2026-05-02T08:33:23.017Z</time></trkpt><trkpt lat="43.4449176" lon="12.4560433"><ele>559.0</ele><time>2026-05-02T08:33:24.009Z</time></trkpt><trkpt lat="43.4449861" lon="12.4561844"><ele>559.0</ele><time>2026-05-02T08:33:25.014Z</time></trkpt><trkpt lat="43.4450603" lon="12.4563359"><ele>559.0</ele><time>2026-05-02T08:33:26.012Z</time></trkpt><trkpt lat="43.4451239" lon="12.4564777"><ele>559.0</ele><time>2026-05-02T08:33:27.019Z</time></trkpt><trkpt lat="43.4451899" lon="12.4566041"><ele>557.5</ele><time>2026-05-02T08:33:28.007Z</time></trkpt><trkpt lat="43.4452484" lon="12.456711"><ele>556.0</ele><time>2026-05-02T08:33:29.004Z</time></trkpt><trkpt lat="43.4452907" lon="12.4568027"><ele>554.5</ele><time>2026-05-02T08:33:30.017Z</time></trkpt><trkpt lat="43.4453454" lon="12.4569143"><ele>553.0</ele><time>2026-05-02T08:33:32.012Z</time></trkpt><trkpt lat="43.4453394" lon="12.4570007"><ele>551.5</ele><time>2026-05-02T08:33:35.014Z</time></trkpt><trkpt lat="43.4452676" lon="12.4570591"><ele>550.0</ele><time>2026-05-02T08:33:37.013Z</time></trkpt><trkpt lat="43.4452087" lon="12.457104"><ele>549.1666666666667</ele><time>2026-05-02T08:33:38.014Z</time></trkpt><trkpt lat="43.4451013" lon="12.4571795"><ele>548.3333333333334</ele><time>2026-05-02T08:33:40.017Z</time></trkpt><trkpt lat="43.4450402" lon="12.4572274"><ele>547.5</ele><time>2026-05-02T08:33:42.021Z</time></trkpt><trkpt lat="43.4449679" lon="12.4572857"><ele>546.6666666666666</ele><time>2026-05-02T08:48:49.021Z</time></trkpt><trkpt lat="43.4448862" lon="12.4573414"><ele>545.8333333333333</ele><time>2026-05-02T08:48:52.018Z</time></trkpt><trkpt lat="43.444828" lon="12.4573871"><ele>545.0</ele><time>2026-05-02T08:48:53.023Z</time></trkpt><trkpt lat="43.4447626" lon="12.4574348"><ele>545.0</ele><time>2026-05-02T08:48:54.007Z</time></trkpt><trkpt lat="43.4446965" lon="12.457482"><ele>545.0</ele><time>2026-05-02T08:48:55.017Z</time></trkpt><trkpt lat="43.4446332" lon="12.4575408"><ele>545.0</ele><time>2026-05-02T08:48:56.021Z</time></trkpt><trkpt lat="43.4445613" lon="12.4575926"><ele>545.0</ele><time>2026-05-02T08:48:57.021Z</time></trkpt><trkpt lat="43.4444921" lon="12.4576128"><ele>545.0</ele><time>2026-05-02T08:48:58.016Z</time></trkpt><trkpt lat="43.4443723" lon="12.4575763"><ele>545.0</ele><time>2026-05-02T08:49:00.004Z</time></trkpt><trkpt lat="43.4443043" lon="12.4575306"><ele>547.6</ele><time>2026-05-02T08:49:01.003Z</time></trkpt><trkpt lat="43.4442308" lon="12.4574924"><ele>550.2</ele><time>2026-05-02T08:49:02.016Z</time></trkpt><trkpt lat="43.4441428" lon="12.457459"><ele>552.8</ele><time>2026-05-02T08:49:03.01Z</time></trkpt><trkpt lat="43.4440443" lon="12.4574287"><ele>555.4</ele><time>2026-05-02T08:49:04.02Z</time></trkpt><trkpt lat="43.4439447" lon="12.4574145"><ele>558.0</ele><time>2026-05-02T08:49:05.018Z</time></trkpt><trkpt lat="43.4438491" lon="12.4574142"><ele>561.8333333333334</ele><time>2026-05-02T08:49:06.008Z</time></trkpt><trkpt lat="43.4437599" lon="12.4574337"><ele>565.6666666666666</ele><time>2026-05-02T08:49:07.014Z</time></trkpt><trkpt lat="43.4436774" lon="12.4574696"><ele>569.5</ele><time>2026-05-02T08:49:07.996Z</time></trkpt><trkpt lat="43.4436118" lon="12.4574969"><ele>573.3333333333333</ele><time>2026-05-02T08:49:09.017Z</time></trkpt><trkpt lat="43.4435291" lon="12.4575154"><ele>577.1666666666666</ele><time>2026-05-02T08:49:11.01Z</time></trkpt><trkpt lat="43.4434873" lon="12.4574415"><ele>581.0</ele><time>2026-05-02T08:49:42.011Z</time></trkpt><trkpt lat="43.4434436" lon="12.4573356"><ele>581.0</ele><time>2026-05-02T08:49:45.038Z</time></trkpt><trkpt lat="43.4434372" lon="12.4572414"><ele>581.0</ele><time>2026-05-02T08:49:46.023Z</time></trkpt><trkpt lat="43.443441" lon="12.4571332"><ele>581.0</ele><time>2026-05-02T08:49:47.01Z</time></trkpt><trkpt lat="43.4434525" lon="12.4570249"><ele>581.0</ele><time>2026-05-02T08:49:48.015Z</time></trkpt><trkpt lat="43.4434563" lon="12.4569179"><ele>581.0</ele><time>2026-05-02T08:49:49.022Z</time></trkpt><trkpt lat="43.4434335" lon="12.4568172"><ele>581.0</ele><time>2026-05-02T08:49:50.01Z</time></trkpt><trkpt lat="43.4433891" lon="12.4567227"><ele>580.1666666666666</ele><time>2026-05-02T08:49:51.026Z</time></trkpt><trkpt lat="43.4433373" lon="12.4566307"><ele>579.3333333333333</ele><time>2026-05-02T08:49:52.022Z</time></trkpt><trkpt lat="43.4432715" lon="12.4565564"><ele>578.5</ele><time>2026-05-02T08:49:53.023Z</time></trkpt><trkpt lat="43.4432009" lon="12.4565043"><ele>577.6666666666666</ele><time>2026-05-02T08:49:54.011Z</time></trkpt><trkpt lat="43.4431207" lon="12.4564957"><ele>576.8333333333334</ele><time>2026-05-02T08:49:55.014Z</time></trkpt><trkpt lat="43.4430282" lon="12.4565095"><ele>576.0</ele><time>2026-05-02T08:49:56.005Z</time></trkpt><trkpt lat="43.4429357" lon="12.4565144"><ele>578.8333333333334</ele><time>2026-05-02T08:49:57.007Z</time></trkpt><trkpt lat="43.442857" lon="12.4564906"><ele>581.6666666666666</ele><time>2026-05-02T08:49:58.023Z</time></trkpt><trkpt lat="43.4427845" lon="12.4564288"><ele>584.5</ele><time>2026-05-02T08:49:59.022Z</time></trkpt><trkpt lat="43.4427154" lon="12.4563494"><ele>587.3333333333333</ele><time>2026-05-02T08:50:00.007Z</time></trkpt><trkpt lat="43.4426495" lon="12.4562615"><ele>590.1666666666666</ele><time>2026-05-02T08:50:00.998Z</time></trkpt><trkpt lat="43.4425904" lon="12.4561533"><ele>593.0</ele><time>2026-05-02T08:50:02.013Z</time></trkpt><trkpt lat="43.44254" lon="12.4560218"><ele>593.0</ele><time>2026-05-02T08:50:03.017Z</time></trkpt><trkpt lat="43.4424958" lon="12.4558742"><ele>593.0</ele><time>2026-05-02T08:50:04.004Z</time></trkpt><trkpt lat="43.4424605" lon="12.4557336"><ele>593.0</ele><time>2026-05-02T08:50:05.012Z</time></trkpt><trkpt lat="43.44242" lon="12.4556282"><ele>593.0</ele><time>2026-05-02T08:50:06.015Z</time></trkpt><trkpt lat="43.4423383" lon="12.4555341"><ele>593.0</ele><time>2026-05-02T08:50:08.007Z</time></trkpt><trkpt lat="43.4422706" lon="12.4555386"><ele>593.0</ele><time>2026-05-02T08:50:09.024Z</time></trkpt><trkpt lat="43.4422" lon="12.4555545"><ele>593.0</ele><time>2026-05-02T08:50:10.011Z</time></trkpt><trkpt lat="43.4421297" lon="12.4555841"><ele>593.0</ele><time>2026-05-02T08:50:11.013Z</time></trkpt><trkpt lat="43.4420493" lon="12.4556153"><ele>593.0</ele><time>2026-05-02T08:50:12.023Z</time></trkpt><trkpt lat="43.4419666" lon="12.455662"><ele>593.0</ele><time>2026-05-02T08:50:13.019Z</time></trkpt><trkpt lat="43.4419188" lon="12.4557299"><ele>593.0</ele><time>2026-05-02T08:50:14.009Z</time></trkpt><trkpt lat="43.4418882" lon="12.4558454"><ele>595.0</ele><time>2026-05-02T08:50:15.001Z</time></trkpt><trkpt lat="43.441863" lon="12.4559711"><ele>597.0</ele><time>2026-05-02T08:50:16.027Z</time></trkpt><trkpt lat="43.441827" lon="12.4561123"><ele>599.0</ele><time>2026-05-02T08:50:17.021Z</time></trkpt><trkpt lat="43.4417891" lon="12.4562352"><ele>601.0</ele><time>2026-05-02T08:50:18.011Z</time></trkpt><trkpt lat="43.4417343" lon="12.4563122"><ele>603.0</ele><time>2026-05-02T08:50:19.039Z</time></trkpt><trkpt lat="43.4416698" lon="12.4563692"><ele>605.3333333333334</ele><time>2026-05-02T08:50:20.022Z</time></trkpt><trkpt lat="43.4415982" lon="12.4563994"><ele>607.6666666666666</ele><time>2026-05-02T08:50:21.01Z</time></trkpt><trkpt lat="43.4415254" lon="12.4564053"><ele>610.0</ele><time>2026-05-02T08:50:22.04Z</time></trkpt><trkpt lat="43.4414539" lon="12.4564183"><ele>612.3333333333333</ele><time>2026-05-02T08:50:23.031Z</time></trkpt><trkpt lat="43.4413815" lon="12.4564269"><ele>614.6666666666666</ele><time>2026-05-02T08:50:24.011Z</time></trkpt><trkpt lat="43.4413096" lon="12.4564082"><ele>617.0</ele><time>2026-05-02T08:50:25.036Z</time></trkpt><trkpt lat="43.4412292" lon="12.4563404"><ele>614.25</ele><time>2026-05-02T08:50:26.031Z</time></trkpt><trkpt lat="43.4411285" lon="12.4562248"><ele>611.5</ele><time>2026-05-02T08:50:27.007Z</time></trkpt><trkpt lat="43.4410256" lon="12.4561018"><ele>608.75</ele><time>2026-05-02T08:50:28.02Z</time></trkpt><trkpt lat="43.4409192" lon="12.4559858"><ele>606.0</ele><time>2026-05-02T08:50:29.026Z</time></trkpt><trkpt lat="43.4408203" lon="12.4558748"><ele>606.0</ele><time>2026-05-02T08:50:30.003Z</time></trkpt><trkpt lat="43.440736" lon="12.4557783"><ele>606.0</ele><time>2026-05-02T08:50:31.02Z</time></trkpt><trkpt lat="43.4406662" lon="12.4556958"><ele>606.0</ele><time>2026-05-02T08:50:32.01Z</time></trkpt><trkpt lat="43.4406063" lon="12.4556535"><ele>606.0</ele><time>2026-05-02T08:50:33.021Z</time></trkpt><trkpt lat="43.4405466" lon="12.4556242"><ele>606.0</ele><time>2026-05-02T08:50:34.018Z</time></trkpt><trkpt lat="43.4404778" lon="12.4556245"><ele>606.0</ele><time>2026-05-02T08:50:35.012Z</time></trkpt><trkpt lat="43.4404019" lon="12.4556437"><ele>606.3333333333334</ele><time>2026-05-02T08:50:36.011Z</time></trkpt><trkpt lat="43.4403291" lon="12.455648"><ele>606.6666666666666</ele><time>2026-05-02T08:50:37.018Z</time></trkpt><trkpt lat="43.4402648" lon="12.455613"><ele>607.0</ele><time>2026-05-02T08:50:38.025Z</time></trkpt><trkpt lat="43.440182" lon="12.4555761"><ele>607.3333333333333</ele><time>2026-05-02T08:50:40.016Z</time></trkpt><trkpt lat="43.4400906" lon="12.4555771"><ele>607.6666666666666</ele><time>2026-05-02T08:50:42.012Z</time></trkpt><trkpt lat="43.4399924" lon="12.4555888"><ele>608.0</ele><time>2026-05-02T08:50:44.019Z</time></trkpt><trkpt lat="43.4398734" lon="12.4556097"><ele>608.0</ele><time>2026-05-02T08:50:46.013Z</time></trkpt><trkpt lat="43.4398104" lon="12.4556303"><ele>608.0</ele><time>2026-05-02T08:50:47.027Z</time></trkpt><trkpt lat="43.4397432" lon="12.4556654"><ele>608.0</ele><time>2026-05-02T08:50:48.021Z</time></trkpt><trkpt lat="43.4396673" lon="12.4557145"><ele>608.0</ele><time>2026-05-02T08:50:49.019Z</time></trkpt><trkpt lat="43.4395816" lon="12.4557677"><ele>608.0</ele><time>2026-05-02T08:50:50.034Z</time></trkpt><trkpt lat="43.4394917" lon="12.4558271"><ele>608.0</ele><time>2026-05-02T08:50:51.029Z</time></trkpt><trkpt lat="43.4393907" lon="12.4558975"><ele>607.5</ele><time>2026-05-02T08:50:52.014Z</time></trkpt><trkpt lat="43.4392797" lon="12.4559753"><ele>607.0</ele><time>2026-05-02T08:50:53.011Z</time></trkpt><trkpt lat="43.4391725" lon="12.45605"><ele>606.5</ele><time>2026-05-02T08:50:54.036Z</time></trkpt><trkpt lat="43.4390648" lon="12.4561317"><ele>606.0</ele><time>2026-05-02T08:50:55.028Z</time></trkpt><trkpt lat="43.438949" lon="12.4562208"><ele>608.5</ele><time>2026-05-02T08:50:56.007Z</time></trkpt><trkpt lat="43.4388357" lon="12.4563114"><ele>611.0</ele><time>2026-05-02T08:50:57.011Z</time></trkpt><trkpt lat="43.4387285" lon="12.4563979"><ele>613.5</ele><time>2026-05-02T08:50:58.015Z</time></trkpt><trkpt lat="43.4386218" lon="12.4564799"><ele>616.0</ele><time>2026-05-02T08:50:59.006Z</time></trkpt><trkpt lat="43.4385262" lon="12.4565403"><ele>617.5</ele><time>2026-05-02T08:51:00.01Z</time></trkpt><trkpt lat="43.4384275" lon="12.4565745"><ele>619.0</ele><time>2026-05-02T08:51:01.013Z</time></trkpt><trkpt lat="43.4383019" lon="12.4565824"><ele>620.5</ele><time>2026-05-02T08:51:02.013Z</time></trkpt><trkpt lat="43.4381732" lon="12.4565781"><ele>622.0</ele><time>2026-05-02T08:51:03.016Z</time></trkpt><trkpt lat="43.4380585" lon="12.4565707"><ele>624.8000000000001</ele><time>2026-05-02T08:51:04.016Z</time></trkpt><trkpt lat="43.4379432" lon="12.4565882"><ele>627.6</ele><time>2026-05-02T08:51:05.013Z</time></trkpt><trkpt lat="43.4378229" lon="12.45662"><ele>630.4000000000001</ele><time>2026-05-02T08:51:06.026Z</time></trkpt><trkpt lat="43.4377155" lon="12.4566492"><ele>633.2</ele><time>2026-05-02T08:51:07.017Z</time></trkpt><trkpt lat="43.4376223" lon="12.4566766"><ele>636.0</ele><time>2026-05-02T08:51:08.013Z</time></trkpt><trkpt lat="43.4375358" lon="12.4566957"><ele>636.0</ele><time>2026-05-02T08:51:09.007Z</time></trkpt><trkpt lat="43.4374415" lon="12.4567258"><ele>636.0</ele><time>2026-05-02T08:51:10.027Z</time></trkpt><trkpt lat="43.4373413" lon="12.4567617"><ele>636.0</ele><time>2026-05-02T08:51:11.006Z</time></trkpt><trkpt lat="43.4372396" lon="12.4567972"><ele>636.0</ele><time>2026-05-02T08:51:12.027Z</time></trkpt><trkpt lat="43.4371343" lon="12.4568397"><ele>636.0</ele><time>2026-05-02T08:51:13.024Z</time></trkpt><trkpt lat="43.4370201" lon="12.4568889"><ele>638.75</ele><time>2026-05-02T08:51:14.005Z</time></trkpt><trkpt lat="43.4368984" lon="12.4569316"><ele>641.5</ele><time>2026-05-02T08:51:15.028Z</time></trkpt><trkpt lat="43.4367735" lon="12.4569663"><ele>644.25</ele><time>2026-05-02T08:51:16.02Z</time></trkpt><trkpt lat="43.4366551" lon="12.4569859"><ele>647.0</ele><time>2026-05-02T08:51:17.007Z</time></trkpt><trkpt lat="43.4365482" lon="12.4569925"><ele>647.0</ele><time>2026-05-02T08:51:18.018Z</time></trkpt><trkpt lat="43.436464" lon="12.4569684"><ele>647.0</ele><time>2026-05-02T08:51:19.028Z</time></trkpt><trkpt lat="43.4363985" lon="12.4569301"><ele>647.0</ele><time>2026-05-02T08:51:20.006Z</time></trkpt><trkpt lat="43.4363495" lon="12.4568671"><ele>647.0</ele><time>2026-05-02T08:51:21.018Z</time></trkpt><trkpt lat="43.4363176" lon="12.4567915"><ele>647.0</ele><time>2026-05-02T08:51:22.016Z</time></trkpt><trkpt lat="43.4362976" lon="12.4566978"><ele>647.0</ele><time>2026-05-02T08:51:23.021Z</time></trkpt><trkpt lat="43.4362962" lon="12.4566"><ele>647.0</ele><time>2026-05-02T08:51:24.009Z</time></trkpt><trkpt lat="43.4362943" lon="12.4565041"><ele>650.8333333333333</ele><time>2026-05-02T08:51:25.029Z</time></trkpt><trkpt lat="43.4362953" lon="12.4564169"><ele>654.6666666666666</ele><time>2026-05-02T08:51:26.023Z</time></trkpt><trkpt lat="43.4362267" lon="12.4563547"><ele>658.5</ele><time>2026-05-02T08:51:29.022Z</time></trkpt><trkpt lat="43.4361623" lon="12.4564591"><ele>662.3333333333334</ele><time>2026-05-02T08:51:31.032Z</time></trkpt><trkpt lat="43.4361444" lon="12.456546"><ele>666.1666666666667</ele><time>2026-05-02T08:51:32.03Z</time></trkpt><trkpt lat="43.4361378" lon="12.4566434"><ele>670.0</ele><time>2026-05-02T08:51:33.011Z</time></trkpt><trkpt lat="43.4361287" lon="12.4567582"><ele>670.0</ele><time>2026-05-02T08:51:34.026Z</time></trkpt><trkpt lat="43.436126" lon="12.4568821"><ele>670.0</ele><time>2026-05-02T08:51:35.018Z</time></trkpt><trkpt lat="43.436133" lon="12.4570155"><ele>670.0</ele><time>2026-05-02T08:51:36.019Z</time></trkpt><trkpt lat="43.4361499" lon="12.4571288"><ele>670.0</ele><time>2026-05-02T08:51:37.026Z</time></trkpt><trkpt lat="43.4361669" lon="12.4572165"><ele>670.0</ele><time>2026-05-02T08:51:38.021Z</time></trkpt><trkpt lat="43.4361934" lon="12.4573283"><ele>670.0</ele><time>2026-05-02T08:51:40.018Z</time></trkpt><trkpt lat="43.4362773" lon="12.45738"><ele>668.8</ele><time>2026-05-02T08:51:50.023Z</time></trkpt><trkpt lat="43.4363778" lon="12.4574804"><ele>667.6</ele><time>2026-05-02T08:51:52.024Z</time></trkpt><trkpt lat="43.4364298" lon="12.4575854"><ele>666.4000000000001</ele><time>2026-05-02T08:51:53.021Z</time></trkpt><trkpt lat="43.4364967" lon="12.4576956"><ele>665.2</ele><time>2026-05-02T08:51:54.019Z</time></trkpt><trkpt lat="43.4365752" lon="12.4578141"><ele>664.0</ele><time>2026-05-02T08:51:55.025Z</time></trkpt><trkpt lat="43.43667" lon="12.4579507"><ele>665.5</ele><time>2026-05-02T08:51:56.013Z</time></trkpt><trkpt lat="43.4367687" lon="12.4580861"><ele>667.0</ele><time>2026-05-02T08:51:57.018Z</time></trkpt><trkpt lat="43.4368751" lon="12.4582368"><ele>668.5</ele><time>2026-05-02T08:51:58.016Z</time></trkpt><trkpt lat="43.4369666" lon="12.4584023"><ele>670.0</ele><time>2026-05-02T08:51:59.013Z</time></trkpt><trkpt lat="43.4370381" lon="12.4585567"><ele>670.0</ele><time>2026-05-02T08:52:00.028Z</time></trkpt><trkpt lat="43.4370933" lon="12.4586877"><ele>670.0</ele><time>2026-05-02T08:52:01.02Z</time></trkpt><trkpt lat="43.4371352" lon="12.4587878"><ele>670.0</ele><time>2026-05-02T08:52:02.014Z</time></trkpt><trkpt lat="43.4371685" lon="12.4588807"><ele>670.0</ele><time>2026-05-02T08:52:03.019Z</time></trkpt><trkpt lat="43.4372017" lon="12.4589666"><ele>670.0</ele><time>2026-05-02T08:52:04.034Z</time></trkpt><trkpt lat="43.4372442" lon="12.4590518"><ele>670.0</ele><time>2026-05-02T08:52:05.014Z</time></trkpt><trkpt lat="43.4373134" lon="12.4591794"><ele>672.3333333333334</ele><time>2026-05-02T08:52:07.021Z</time></trkpt><trkpt lat="43.437361" lon="12.4592806"><ele>674.6666666666667</ele><time>2026-05-02T08:52:09.031Z</time></trkpt><trkpt lat="43.4373863" lon="12.4593997"><ele>677.0</ele><time>2026-05-02T08:52:11.032Z</time></trkpt><trkpt lat="43.437402" lon="12.4595457"><ele>679.3333333333334</ele><time>2026-05-02T08:52:13.021Z</time></trkpt><trkpt lat="43.437447" lon="12.4596086"><ele>681.6666666666666</ele><time>2026-05-02T08:52:16.012Z</time></trkpt><trkpt lat="43.4374219" lon="12.4594932"><ele>684.0</ele><time>2026-05-02T08:52:33.012Z</time></trkpt><trkpt lat="43.4373883" lon="12.4593543"><ele>684.0</ele><time>2026-05-02T08:52:35.006Z</time></trkpt><trkpt lat="43.4373422" lon="12.4592122"><ele>684.0</ele><time>2026-05-02T08:52:37.012Z</time></trkpt><trkpt lat="43.4372784" lon="12.4590652"><ele>684.0</ele><time>2026-05-02T08:52:39.013Z</time></trkpt><trkpt lat="43.437244" lon="12.4589901"><ele>684.0</ele><time>2026-05-02T08:52:40.022Z</time></trkpt><trkpt lat="43.4372011" lon="12.4589095"><ele>684.0</ele><time>2026-05-02T08:52:41.029Z</time></trkpt><trkpt lat="43.4371584" lon="12.4588187"><ele>681.6666666666666</ele><time>2026-05-02T08:52:42.03Z</time></trkpt><trkpt lat="43.4371152" lon="12.4587251"><ele>679.3333333333334</ele><time>2026-05-02T08:52:43.017Z</time></trkpt><trkpt lat="43.4370813" lon="12.4586414"><ele>677.0</ele><time>2026-05-02T08:52:44.016Z</time></trkpt><trkpt lat="43.4370379" lon="12.4585444"><ele>674.6666666666667</ele><time>2026-05-02T08:52:45.015Z</time></trkpt><trkpt lat="43.4369922" lon="12.4584505"><ele>672.3333333333334</ele><time>2026-05-02T08:52:46.018Z</time></trkpt><trkpt lat="43.4369425" lon="12.4583685"><ele>670.0</ele><time>2026-05-02T08:52:47.03Z</time></trkpt><trkpt lat="43.4368951" lon="12.4582922"><ele>670.0</ele><time>2026-05-02T08:52:48.019Z</time></trkpt><trkpt lat="43.4368463" lon="12.4582127"><ele>670.0</ele><time>2026-05-02T08:52:49.016Z</time></trkpt><trkpt lat="43.436797" lon="12.458127"><ele>670.0</ele><time>2026-05-02T08:52:50.009Z</time></trkpt><trkpt lat="43.436748" lon="12.4580389"><ele>670.0</ele><time>2026-05-02T08:52:51.012Z</time></trkpt><trkpt lat="43.4366936" lon="12.457954"><ele>670.0</ele><time>2026-05-02T08:52:52.015Z</time></trkpt><trkpt lat="43.4366403" lon="12.4578736"><ele>670.0</ele><time>2026-05-02T08:52:53.011Z</time></trkpt><trkpt lat="43.4365844" lon="12.4577922"><ele>669.0</ele><time>2026-05-02T08:52:54.016Z</time></trkpt><trkpt lat="43.436521" lon="12.4577119"><ele>668.0</ele><time>2026-05-02T08:52:55.015Z</time></trkpt><trkpt lat="43.4364625" lon="12.4576312"><ele>667.0</ele><time>2026-05-02T08:52:56.015Z</time></trkpt><trkpt lat="43.436407" lon="12.4575541"><ele>666.0</ele><time>2026-05-02T08:52:57.03Z</time></trkpt><trkpt lat="43.4363625" lon="12.4574815"><ele>665.0</ele><time>2026-05-02T08:52:58.036Z</time></trkpt><trkpt lat="43.436287" lon="12.457379"><ele>664.0</ele><time>2026-05-02T08:53:00.018Z</time></trkpt><trkpt lat="43.4362001" lon="12.4573657"><ele>664.0</ele><time>2026-05-02T08:53:02.02Z</time></trkpt><trkpt lat="43.436135" lon="12.4574562"><ele>664.0</ele><time>2026-05-02T08:53:04.036Z</time></trkpt><trkpt lat="43.4360743" lon="12.4575696"><ele>664.0</ele><time>2026-05-02T08:53:06.032Z</time></trkpt><trkpt lat="43.4360038" lon="12.457685"><ele>664.0</ele><time>2026-05-02T08:53:08.024Z</time></trkpt><trkpt lat="43.4359167" lon="12.4577412"><ele>664.0</ele><time>2026-05-02T08:53:10.014Z</time></trkpt><trkpt lat="43.4358349" lon="12.4577442"><ele>664.0</ele><time>2026-05-02T08:53:13.022Z</time></trkpt><trkpt lat="43.4358434" lon="12.4578556"><ele>664.0</ele><time>2026-05-02T08:53:16.016Z</time></trkpt><trkpt lat="43.4359104" lon="12.4579328"><ele>664.0</ele><time>2026-05-02T08:53:18.013Z</time></trkpt><trkpt lat="43.4359065" lon="12.458157"><ele>664.0</ele><time>2026-05-02T08:53:20.027Z</time></trkpt><trkpt lat="43.4358443" lon="12.4583016"><ele>663.0</ele><time>2026-05-02T08:53:21.02Z</time></trkpt><trkpt lat="43.4357682" lon="12.4584212"><ele>662.0</ele><time>2026-05-02T08:53:22.026Z</time></trkpt><trkpt lat="43.4356854" lon="12.4585358"><ele>661.0</ele><time>2026-05-02T08:53:23.008Z</time></trkpt><trkpt lat="43.4355955" lon="12.4586327"><ele>660.0</ele><time>2026-05-02T08:53:24.016Z</time></trkpt><trkpt lat="43.435499" lon="12.4587165"><ele>658.6</ele><time>2026-05-02T08:53:25.026Z</time></trkpt><trkpt lat="43.4353987" lon="12.4587802"><ele>657.2</ele><time>2026-05-02T08:53:26.023Z</time></trkpt><trkpt lat="43.4353007" lon="12.4588355"><ele>655.8</ele><time>2026-05-02T08:53:27.007Z</time></trkpt><trkpt lat="43.4352165" lon="12.4589107"><ele>654.4</ele><time>2026-05-02T08:53:28.021Z</time></trkpt><trkpt lat="43.4351404" lon="12.4590155"><ele>653.0</ele><time>2026-05-02T08:53:29.026Z</time></trkpt><trkpt lat="43.4350784" lon="12.4591685"><ele>653.0</ele><time>2026-05-02T08:53:30.002Z</time></trkpt><trkpt lat="43.4350167" lon="12.4593365"><ele>653.0</ele><time>2026-05-02T08:53:30.999Z</time></trkpt><trkpt lat="43.4349453" lon="12.4594824"><ele>653.0</ele><time>2026-05-02T08:53:32.011Z</time></trkpt><trkpt lat="43.4348542" lon="12.4596256"><ele>653.0</ele><time>2026-05-02T08:53:33.036Z</time></trkpt><trkpt lat="43.4347558" lon="12.459752"><ele>652.0</ele><time>2026-05-02T08:53:34.024Z</time></trkpt><trkpt lat="43.4346603" lon="12.4598649"><ele>651.0</ele><time>2026-05-02T08:53:35.021Z</time></trkpt><trkpt lat="43.4345717" lon="12.4599746"><ele>650.0</ele><time>2026-05-02T08:53:36.029Z</time></trkpt><trkpt lat="43.4344822" lon="12.4600675"><ele>649.0</ele><time>2026-05-02T08:53:37.024Z</time></trkpt><trkpt lat="43.4343908" lon="12.4601488"><ele>649.0</ele><time>2026-05-02T08:53:38.017Z</time></trkpt><trkpt lat="43.4342907" lon="12.4602213"><ele>649.0</ele><time>2026-05-02T08:53:39.009Z</time></trkpt><trkpt lat="43.4341817" lon="12.4602742"><ele>649.0</ele><time>2026-05-02T08:53:40.026Z</time></trkpt><trkpt lat="43.4340589" lon="12.4603135"><ele>649.0</ele><time>2026-05-02T08:53:41.024Z</time></trkpt><trkpt lat="43.4339536" lon="12.4603453"><ele>649.0</ele><time>2026-05-02T08:53:42.016Z</time></trkpt><trkpt lat="43.4338799" lon="12.4603712"><ele>649.0</ele><time>2026-05-02T08:53:43.019Z</time></trkpt><trkpt lat="43.4337677" lon="12.4603988"><ele>649.0</ele><time>2026-05-02T08:53:45.02Z</time></trkpt><trkpt lat="43.4337" lon="12.4604113"><ele>649.0</ele><time>2026-05-02T08:53:46.01Z</time></trkpt><trkpt lat="43.4336282" lon="12.4604153"><ele>649.0</ele><time>2026-05-02T08:53:47.012Z</time></trkpt><trkpt lat="43.4335474" lon="12.4604157"><ele>649.0</ele><time>2026-05-02T08:53:48.01Z</time></trkpt><trkpt lat="43.4334656" lon="12.4604113"><ele>647.0</ele><time>2026-05-02T08:53:49.009Z</time></trkpt><trkpt lat="43.4333709" lon="12.4603914"><ele>645.0</ele><time>2026-05-02T08:53:50.017Z</time></trkpt><trkpt lat="43.4332751" lon="12.4603586"><ele>643.0</ele><time>2026-05-02T08:53:51.031Z</time></trkpt><trkpt lat="43.4331745" lon="12.4603322"><ele>641.0</ele><time>2026-05-02T08:53:52.011Z</time></trkpt><trkpt lat="43.4330742" lon="12.4603197"><ele>639.0</ele><time>2026-05-02T08:53:53.02Z</time></trkpt><trkpt lat="43.4329826" lon="12.4603293"><ele>637.1666666666666</ele><time>2026-05-02T08:53:54.017Z</time></trkpt><trkpt lat="43.4329011" lon="12.4603347"><ele>635.3333333333334</ele><time>2026-05-02T08:53:55.01Z</time></trkpt><trkpt lat="43.4328271" lon="12.4603453"><ele>633.5</ele><time>2026-05-02T08:53:56.014Z</time></trkpt><trkpt lat="43.4327526" lon="12.4603623"><ele>631.6666666666667</ele><time>2026-05-02T08:53:57.036Z</time></trkpt><trkpt lat="43.4326792" lon="12.4603819"><ele>629.8333333333334</ele><time>2026-05-02T08:53:58.021Z</time></trkpt><trkpt lat="43.4326059" lon="12.4604047"><ele>628.0</ele><time>2026-05-02T08:53:59.006Z</time></trkpt><trkpt lat="43.4325342" lon="12.4604268"><ele>628.0</ele><time>2026-05-02T08:54:00.039Z</time></trkpt><trkpt lat="43.4324654" lon="12.4604461"><ele>628.0</ele><time>2026-05-02T08:54:01.021Z</time></trkpt><trkpt lat="43.4323921" lon="12.4604619"><ele>628.0</ele><time>2026-05-02T08:54:02.012Z</time></trkpt><trkpt lat="43.4323202" lon="12.4604829"><ele>628.0</ele><time>2026-05-02T08:54:03.014Z</time></trkpt><trkpt lat="43.4322452" lon="12.4604961"><ele>628.0</ele><time>2026-05-02T08:54:04.014Z</time></trkpt><trkpt lat="43.4321584" lon="12.4605096"><ele>628.0</ele><time>2026-05-02T08:54:05.023Z</time></trkpt><trkpt lat="43.4320716" lon="12.4605307"><ele>627.6</ele><time>2026-05-02T08:54:06.014Z</time></trkpt><trkpt lat="43.4319777" lon="12.4605661"><ele>627.1999999999999</ele><time>2026-05-02T08:54:07.036Z</time></trkpt><trkpt lat="43.431877" lon="12.4606187"><ele>626.8</ele><time>2026-05-02T08:54:08.013Z</time></trkpt><trkpt lat="43.4317777" lon="12.4606785"><ele>626.4</ele><time>2026-05-02T08:54:09.009Z</time></trkpt><trkpt lat="43.4316794" lon="12.4607351"><ele>626.0</ele><time>2026-05-02T08:54:10.009Z</time></trkpt><trkpt lat="43.4315822" lon="12.4607764"><ele>626.0</ele><time>2026-05-02T08:54:11.018Z</time></trkpt><trkpt lat="43.4314886" lon="12.4608004"><ele>626.0</ele><time>2026-05-02T08:54:12.019Z</time></trkpt><trkpt lat="43.4313953" lon="12.460826"><ele>626.0</ele><time>2026-05-02T08:54:13.014Z</time></trkpt><trkpt lat="43.4313145" lon="12.4608555"><ele>626.0</ele><time>2026-05-02T08:54:14.019Z</time></trkpt><trkpt lat="43.4312274" lon="12.4609195"><ele>626.0</ele><time>2026-05-02T08:54:15.013Z</time></trkpt><trkpt lat="43.4311506" lon="12.4610143"><ele>625.0</ele><time>2026-05-02T08:54:16.013Z</time></trkpt><trkpt lat="43.431088" lon="12.4611266"><ele>624.0</ele><time>2026-05-02T08:54:17.031Z</time></trkpt><trkpt lat="43.4310233" lon="12.4612311"><ele>623.0</ele><time>2026-05-02T08:54:18.031Z</time></trkpt><trkpt lat="43.4309584" lon="12.4613319"><ele>622.0</ele><time>2026-05-02T08:54:19.021Z</time></trkpt><trkpt lat="43.4308759" lon="12.4614225"><ele>621.0</ele><time>2026-05-02T08:54:20.013Z</time></trkpt><trkpt lat="43.4307961" lon="12.4614917"><ele>621.0</ele><time>2026-05-02T08:54:21.027Z</time></trkpt><trkpt lat="43.4307098" lon="12.4615621"><ele>621.0</ele><time>2026-05-02T08:54:22.02Z</time></trkpt><trkpt lat="43.4306279" lon="12.4616457"><ele>621.0</ele><time>2026-05-02T08:54:23.029Z</time></trkpt><trkpt lat="43.4305627" lon="12.4617301"><ele>621.0</ele><time>2026-05-02T08:54:24.021Z</time></trkpt><trkpt lat="43.4305048" lon="12.4618098"><ele>621.0</ele><time>2026-05-02T08:54:25.021Z</time></trkpt><trkpt lat="43.4304689" lon="12.4619073"><ele>619.6666666666666</ele><time>2026-05-02T08:54:26.026Z</time></trkpt><trkpt lat="43.430455" lon="12.4620159"><ele>618.3333333333334</ele><time>2026-05-02T08:54:27.031Z</time></trkpt><trkpt lat="43.4304707" lon="12.4621157"><ele>617.0</ele><time>2026-05-02T08:54:28.017Z</time></trkpt><trkpt lat="43.4305089" lon="12.4622079"><ele>615.6666666666667</ele><time>2026-05-02T08:54:29.019Z</time></trkpt><trkpt lat="43.4305766" lon="12.46229"><ele>614.3333333333334</ele><time>2026-05-02T08:54:30.026Z</time></trkpt><trkpt lat="43.4306603" lon="12.4623758"><ele>613.0</ele><time>2026-05-02T08:54:31.017Z</time></trkpt><trkpt lat="43.4307488" lon="12.4624683"><ele>613.0</ele><time>2026-05-02T08:54:32.004Z</time></trkpt><trkpt lat="43.4308348" lon="12.46256"><ele>613.0</ele><time>2026-05-02T08:54:33.022Z</time></trkpt><trkpt lat="43.4309081" lon="12.4626556"><ele>613.0</ele><time>2026-05-02T08:54:34.013Z</time></trkpt><trkpt lat="43.4309872" lon="12.4627626"><ele>613.0</ele><time>2026-05-02T08:54:35.022Z</time></trkpt><trkpt lat="43.4310558" lon="12.4628811"><ele>613.0</ele><time>2026-05-02T08:54:36.018Z</time></trkpt><trkpt lat="43.4311125" lon="12.4629953"><ele>610.8</ele><time>2026-05-02T08:54:37.022Z</time></trkpt><trkpt lat="43.4311569" lon="12.4631276"><ele>608.5999999999999</ele><time>2026-05-02T08:54:38.015Z</time></trkpt><trkpt lat="43.4311794" lon="12.4632643"><ele>606.4000000000001</ele><time>2026-05-02T08:54:39.016Z</time></trkpt><trkpt lat="43.4311958" lon="12.4633905"><ele>604.2</ele><time>2026-05-02T08:54:40.021Z</time></trkpt><trkpt lat="43.4312004" lon="12.4635064"><ele>602.0</ele><time>2026-05-02T08:54:41.016Z</time></trkpt><trkpt lat="43.4311953" lon="12.4636139"><ele>602.0</ele><time>2026-05-02T08:54:42.023Z</time></trkpt><trkpt lat="43.4311803" lon="12.463721"><ele>602.0</ele><time>2026-05-02T08:54:43.031Z</time></trkpt><trkpt lat="43.4311307" lon="12.4638193"><ele>602.0</ele><time>2026-05-02T08:54:44.025Z</time></trkpt><trkpt lat="43.4310421" lon="12.4638986"><ele>602.0</ele><time>2026-05-02T08:54:45.029Z</time></trkpt><trkpt lat="43.430937" lon="12.4639508"><ele>602.0</ele><time>2026-05-02T08:54:46.017Z</time></trkpt><trkpt lat="43.4308115" lon="12.4639963"><ele>601.75</ele><time>2026-05-02T08:54:47.021Z</time></trkpt><trkpt lat="43.4306772" lon="12.4640425"><ele>601.5</ele><time>2026-05-02T08:54:48.017Z</time></trkpt><trkpt lat="43.4305564" lon="12.4640924"><ele>601.25</ele><time>2026-05-02T08:54:49.019Z</time></trkpt><trkpt lat="43.4304381" lon="12.464164"><ele>601.0</ele><time>2026-05-02T08:54:50.012Z</time></trkpt><trkpt lat="43.4303212" lon="12.4642613"><ele>598.75</ele><time>2026-05-02T08:54:51.023Z</time></trkpt><trkpt lat="43.4302092" lon="12.4643684"><ele>596.5</ele><time>2026-05-02T08:54:52.02Z</time></trkpt><trkpt lat="43.4301141" lon="12.464478"><ele>594.25</ele><time>2026-05-02T08:54:53.016Z</time></trkpt><trkpt lat="43.4300108" lon="12.4645748"><ele>592.0</ele><time>2026-05-02T08:54:54.031Z</time></trkpt><trkpt lat="43.4298933" lon="12.4646406"><ele>592.0</ele><time>2026-05-02T08:54:55.026Z</time></trkpt><trkpt lat="43.4297655" lon="12.4646817"><ele>592.0</ele><time>2026-05-02T08:54:56.016Z</time></trkpt><trkpt lat="43.4296409" lon="12.4647183"><ele>592.0</ele><time>2026-05-02T08:54:57.013Z</time></trkpt><trkpt lat="43.4295264" lon="12.4647632"><ele>592.0</ele><time>2026-05-02T08:54:58.012Z</time></trkpt><trkpt lat="43.4294208" lon="12.4648088"><ele>599.0</ele><time>2026-05-02T08:54:59.015Z</time></trkpt><trkpt lat="43.4304689" lon="12.4619073"><ele>599.0</ele><time>2026-05-02T08:54:26.026Z</time></trkpt><trkpt lat="43.430455" lon="12.4620159"><ele>599.0</ele><time>2026-05-02T08:54:27.031Z</time></trkpt><trkpt lat="43.4304707" lon="12.4621157"><ele>599.0</ele><time>2026-05-02T08:54:28.017Z</time></trkpt><trkpt lat="43.4305089" lon="12.4622079"><ele>599.0</ele><time>2026-05-02T08:54:29.019Z</time></trkpt><trkpt lat="43.4305766" lon="12.46229"><ele>599.0</ele><time>2026-05-02T08:54:30.026Z</time></trkpt><trkpt lat="43.4306603" lon="12.4623758"><ele>599.0</ele><time>2026-05-02T08:54:31.017Z</time></trkpt><trkpt lat="43.4307488" lon="12.4624683"><ele>599.6</ele><time>2026-05-02T08:54:32.004Z</time></trkpt><trkpt lat="43.4308348" lon="12.46256"><ele>600.2</ele><time>2026-05-02T08:54:33.022Z</time></trkpt><trkpt lat="43.4309081" lon="12.4626556"><ele>600.8000000000001</ele><time>2026-05-02T08:54:34.013Z</time></trkpt><trkpt lat="43.4309872" lon="12.4627626"><ele>601.4</ele><time>2026-05-02T08:54:35.022Z</time></trkpt><trkpt lat="43.4310558" lon="12.4628811"><ele>602.0</ele><time>2026-05-02T08:54:36.018Z</time></trkpt><trkpt lat="43.4311125" lon="12.4629953"><ele>602.0</ele><time>2026-05-02T08:54:37.022Z</time></trkpt><trkpt lat="43.4311569" lon="12.4631276"><ele>602.0</ele><time>2026-05-02T08:54:38.015Z</time></trkpt><trkpt lat="43.4311794" lon="12.4632643"><ele>602.0</ele><time>2026-05-02T08:54:39.016Z</time></trkpt><trkpt lat="43.4311958" lon="12.4633905"><ele>602.0</ele><time>2026-05-02T08:54:40.021Z</time></trkpt><trkpt lat="43.4312004" lon="12.4635064"><ele>602.0</ele><time>2026-05-02T08:54:41.016Z</time></trkpt><trkpt lat="43.4311953" lon="12.4636139"><ele>602.0</ele><time>2026-05-02T08:54:42.023Z</time></trkpt><trkpt lat="43.4311803" lon="12.463721"><ele>602.0</ele><time>2026-05-02T08:54:43.031Z</time></trkpt><trkpt lat="43.4311307" lon="12.4638193"><ele>602.0</ele><time>2026-05-02T08:54:44.025Z</time></trkpt><trkpt lat="43.4310421" lon="12.4638986"><ele>602.0</ele><time>2026-05-02T08:54:45.029Z</time></trkpt><trkpt lat="43.430937" lon="12.4639508"><ele>602.0</ele><time>2026-05-02T08:54:46.017Z</time></trkpt><trkpt lat="43.4308115" lon="12.4639963"><ele>601.75</ele><time>2026-05-02T08:54:47.021Z</time></trkpt><trkpt lat="43.4306772" lon="12.4640425"><ele>601.5</ele><time>2026-05-02T08:54:48.017Z</time></trkpt><trkpt lat="43.4305564" lon="12.4640924"><ele>601.25</ele><time>2026-05-02T08:54:49.019Z</time></trkpt><trkpt lat="43.4304381" lon="12.464164"><ele>601.0</ele><time>2026-05-02T08:54:50.012Z</time></trkpt><trkpt lat="43.4303212" lon="12.4642613"><ele>598.75</ele><time>2026-05-02T08:54:51.023Z</time></trkpt><trkpt lat="43.4302092" lon="12.4643684"><ele>596.5</ele><time>2026-05-02T08:54:52.02Z</time></trkpt><trkpt lat="43.4301141" lon="12.464478"><ele>594.25</ele><time>2026-05-02T08:54:53.016Z</time></trkpt><trkpt lat="43.4300108" lon="12.4645748"><ele>592.0</ele><time>2026-05-02T08:54:54.031Z</time></trkpt><trkpt lat="43.4298933" lon="12.4646406"><ele>592.0</ele><time>2026-05-02T08:54:55.026Z</time></trkpt><trkpt lat="43.4297655" lon="12.4646817"><ele>592.0</ele><time>2026-05-02T08:54:56.016Z</time></trkpt><trkpt lat="43.4296409" lon="12.4647183"><ele>592.0</ele><time>2026-05-02T08:54:57.013Z</time></trkpt><trkpt lat="43.4295264" lon="12.4647632"><ele>592.0</ele><time>2026-05-02T08:54:58.012Z</time></trkpt><trkpt lat="43.4294208" lon="12.4648088"><ele>588.8000000000001</ele><time>2026-05-02T08:54:59.015Z</time></trkpt><trkpt lat="43.4293195" lon="12.4648449"><ele>585.6</ele><time>2026-05-02T08:55:00.018Z</time></trkpt><trkpt lat="43.429238" lon="12.4648507"><ele>582.4000000000001</ele><time>2026-05-02T08:55:01.008Z</time></trkpt><trkpt lat="43.4291654" lon="12.4647896"><ele>579.2</ele><time>2026-05-02T08:55:02.012Z</time></trkpt><trkpt lat="43.429105" lon="12.4646943"><ele>576.0</ele><time>2026-05-02T08:55:03.009Z</time></trkpt><trkpt lat="43.4290588" lon="12.4645617"><ele>575.75</ele><time>2026-05-02T08:55:04.02Z</time></trkpt><trkpt lat="43.4290141" lon="12.4644046"><ele>575.5</ele><time>2026-05-02T08:55:05.014Z</time></trkpt><trkpt lat="43.4289722" lon="12.4642407"><ele>575.25</ele><time>2026-05-02T08:55:06.018Z</time></trkpt><trkpt lat="43.4289375" lon="12.4640964"><ele>575.0</ele><time>2026-05-02T08:55:07.015Z</time></trkpt><trkpt lat="43.4289024" lon="12.4639591"><ele>575.0</ele><time>2026-05-02T08:55:08.004Z</time></trkpt><trkpt lat="43.4288602" lon="12.4638409"><ele>575.0</ele><time>2026-05-02T08:55:09.017Z</time></trkpt><trkpt lat="43.4288003" lon="12.4637155"><ele>575.0</ele><time>2026-05-02T08:55:10.018Z</time></trkpt><trkpt lat="43.4287279" lon="12.4636031"><ele>575.0</ele><time>2026-05-02T08:55:11.023Z</time></trkpt><trkpt lat="43.4286491" lon="12.4635023"><ele>575.0</ele><time>2026-05-02T08:55:12.025Z</time></trkpt><trkpt lat="43.4285622" lon="12.4634081"><ele>571.75</ele><time>2026-05-02T08:55:13.019Z</time></trkpt><trkpt lat="43.4284712" lon="12.4633218"><ele>568.5</ele><time>2026-05-02T08:55:14.021Z</time></trkpt><trkpt lat="43.4283635" lon="12.4632636"><ele>565.25</ele><time>2026-05-02T08:55:15.013Z</time></trkpt><trkpt lat="43.4282353" lon="12.4632388"><ele>562.0</ele><time>2026-05-02T08:55:16.023Z</time></trkpt><trkpt lat="43.4281024" lon="12.4632386"><ele>560.5</ele><time>2026-05-02T08:55:17.013Z</time></trkpt><trkpt lat="43.4279749" lon="12.4632536"><ele>559.0</ele><time>2026-05-02T08:55:18.028Z</time></trkpt><trkpt lat="43.4278519" lon="12.4632602"><ele>557.5</ele><time>2026-05-02T08:55:19.022Z</time></trkpt><trkpt lat="43.4277414" lon="12.4632662"><ele>556.0</ele><time>2026-05-02T08:55:20.021Z</time></trkpt><trkpt lat="43.4276417" lon="12.4632687"><ele>556.0</ele><time>2026-05-02T08:55:21.025Z</time></trkpt><trkpt lat="43.4275543" lon="12.4632847"><ele>556.0</ele><time>2026-05-02T08:55:22.015Z</time></trkpt><trkpt lat="43.4274741" lon="12.4633224"><ele>556.0</ele><time>2026-05-02T08:55:23.011Z</time></trkpt><trkpt lat="43.4274141" lon="12.4633836"><ele>556.0</ele><time>2026-05-02T08:55:24.022Z</time></trkpt><trkpt lat="43.4273722" lon="12.4634716"><ele>556.0</ele><time>2026-05-02T08:55:25.008Z</time></trkpt><trkpt lat="43.4273581" lon="12.4635744"><ele>556.0</ele><time>2026-05-02T08:55:26.028Z</time></trkpt><trkpt lat="43.4273641" lon="12.4636951"><ele>555.75</ele><time>2026-05-02T08:55:27.012Z</time></trkpt><trkpt lat="43.4274071" lon="12.463832"><ele>555.5</ele><time>2026-05-02T08:55:28.012Z</time></trkpt><trkpt lat="43.427467" lon="12.463984"><ele>555.25</ele><time>2026-05-02T08:55:29.011Z</time></trkpt><trkpt lat="43.4275518" lon="12.4641469"><ele>555.0</ele><time>2026-05-02T08:55:30.014Z</time></trkpt><trkpt lat="43.4276438" lon="12.4643091"><ele>555.0</ele><time>2026-05-02T08:55:31.002Z</time></trkpt><trkpt lat="43.4277222" lon="12.4644637"><ele>555.0</ele><time>2026-05-02T08:55:32.02Z</time></trkpt><trkpt lat="43.4277929" lon="12.4646"><ele>555.0</ele><time>2026-05-02T08:55:33.007Z</time></trkpt><trkpt lat="43.4278619" lon="12.4647347"><ele>555.0</ele><time>2026-05-02T08:55:34.016Z</time></trkpt><trkpt lat="43.4279179" lon="12.4648715"><ele>552.6</ele><time>2026-05-02T08:55:35.016Z</time></trkpt><trkpt lat="43.4279423" lon="12.4650069"><ele>550.2</ele><time>2026-05-02T08:55:36.042Z</time></trkpt><trkpt lat="43.4279538" lon="12.4651475"><ele>547.8</ele><time>2026-05-02T08:55:37.017Z</time></trkpt><trkpt lat="43.4279261" lon="12.4652776"><ele>545.4</ele><time>2026-05-02T08:55:38.008Z</time></trkpt><trkpt lat="43.4278686" lon="12.4653893"><ele>543.0</ele><time>2026-05-02T08:55:39.018Z</time></trkpt><trkpt lat="43.4277744" lon="12.4654822"><ele>543.0</ele><time>2026-05-02T08:55:40.032Z</time></trkpt><trkpt lat="43.4276646" lon="12.4655678"><ele>543.0</ele><time>2026-05-02T08:55:41.024Z</time></trkpt><trkpt lat="43.4275445" lon="12.465667"><ele>543.0</ele><time>2026-05-02T08:55:42.014Z</time></trkpt><trkpt lat="43.4274364" lon="12.4657754"><ele>543.0</ele><time>2026-05-02T08:55:43.009Z</time></trkpt><trkpt lat="43.4273417" lon="12.4658757"><ele>543.0</ele><time>2026-05-02T08:55:44.02Z</time></trkpt><trkpt lat="43.4272633" lon="12.4659782"><ele>543.0</ele><time>2026-05-02T08:55:45.037Z</time></trkpt><trkpt lat="43.4271948" lon="12.4660888"><ele>543.0</ele><time>2026-05-02T08:55:46.022Z</time></trkpt><trkpt lat="43.4271458" lon="12.4662031"><ele>543.0</ele><time>2026-05-02T08:55:47.022Z</time></trkpt><trkpt lat="43.427105" lon="12.4663123"><ele>543.0</ele><time>2026-05-02T08:55:48.021Z</time></trkpt><trkpt lat="43.4270796" lon="12.4664193"><ele>543.3333333333334</ele><time>2026-05-02T08:55:49.037Z</time></trkpt><trkpt lat="43.4270646" lon="12.4665331"><ele>543.6666666666666</ele><time>2026-05-02T08:55:50.01Z</time></trkpt><trkpt lat="43.4270665" lon="12.466638"><ele>544.0</ele><time>2026-05-02T08:55:51.007Z</time></trkpt><trkpt lat="43.4270793" lon="12.4667446"><ele>544.3333333333333</ele><time>2026-05-02T08:55:52.03Z</time></trkpt><trkpt lat="43.4271028" lon="12.4668472"><ele>544.6666666666666</ele><time>2026-05-02T08:55:53.016Z</time></trkpt><trkpt lat="43.4271404" lon="12.4669441"><ele>545.0</ele><time>2026-05-02T08:55:54.011Z</time></trkpt><trkpt lat="43.4271787" lon="12.4670445"><ele>544.1666666666666</ele><time>2026-05-02T08:55:55.008Z</time></trkpt><trkpt lat="43.4272095" lon="12.467147"><ele>543.3333333333333</ele><time>2026-05-02T08:55:56.01Z</time></trkpt><trkpt lat="43.4272362" lon="12.4672506"><ele>542.5</ele><time>2026-05-02T08:55:57.017Z</time></trkpt><trkpt lat="43.4272555" lon="12.4673556"><ele>541.6666666666666</ele><time>2026-05-02T08:55:58.015Z</time></trkpt><trkpt lat="43.4272761" lon="12.4674556"><ele>540.8333333333334</ele><time>2026-05-02T08:55:59.011Z</time></trkpt><trkpt lat="43.4273009" lon="12.4675551"><ele>540.0</ele><time>2026-05-02T08:56:00.018Z</time></trkpt><trkpt lat="43.4273256" lon="12.4676546"><ele>540.0</ele><time>2026-05-02T08:56:01.006Z</time></trkpt><trkpt lat="43.4273547" lon="12.4677739"><ele>540.0</ele><time>2026-05-02T08:56:02.025Z</time></trkpt><trkpt lat="43.4273864" lon="12.4679226"><ele>540.0</ele><time>2026-05-02T08:56:03.01Z</time></trkpt><trkpt lat="43.4274148" lon="12.4680923"><ele>540.0</ele><time>2026-05-02T08:56:04Z</time></trkpt><trkpt lat="43.4274454" lon="12.4682858"><ele>536.3333333333334</ele><time>2026-05-02T08:56:05.008Z</time></trkpt><trkpt lat="43.4274779" lon="12.4685013"><ele>532.6666666666667</ele><time>2026-05-02T08:56:06.009Z</time></trkpt><trkpt lat="43.427512" lon="12.468736"><ele>529.0</ele><time>2026-05-02T08:56:07.005Z</time></trkpt><trkpt lat="43.4275424" lon="12.4689855"><ele>527.0</ele><time>2026-05-02T08:56:08.005Z</time></trkpt><trkpt lat="43.4275741" lon="12.4692405"><ele>525.0</ele><time>2026-05-02T08:56:09.023Z</time></trkpt><trkpt lat="43.4276107" lon="12.4694906"><ele>523.0</ele><time>2026-05-02T08:56:10.021Z</time></trkpt><trkpt lat="43.4276462" lon="12.4697215"><ele>521.3333333333334</ele><time>2026-05-02T08:56:11.02Z</time></trkpt><trkpt lat="43.4276802" lon="12.4699481"><ele>519.6666666666666</ele><time>2026-05-02T08:56:12.01Z</time></trkpt><trkpt lat="43.4277056" lon="12.4701676"><ele>518.0</ele><time>2026-05-02T08:56:13.015Z</time></trkpt><trkpt lat="43.4277342" lon="12.4703968"><ele>516.0</ele><time>2026-05-02T08:56:14.019Z</time></trkpt><trkpt lat="43.4277747" lon="12.4706094"><ele>514.0</ele><time>2026-05-02T08:56:15.028Z</time></trkpt><trkpt lat="43.427812" lon="12.4708083"><ele>512.0</ele><time>2026-05-02T08:56:16.013Z</time></trkpt><trkpt lat="43.42785" lon="12.4710037"><ele>512.0</ele><time>2026-05-02T08:56:17.014Z</time></trkpt><trkpt lat="43.4278837" lon="12.4711916"><ele>512.0</ele><time>2026-05-02T08:56:18.009Z</time></trkpt><trkpt lat="43.4279061" lon="12.4713616"><ele>512.0</ele><time>2026-05-02T08:56:19.018Z</time></trkpt><trkpt lat="43.4279192" lon="12.4715182"><ele>512.0</ele><time>2026-05-02T08:56:20.013Z</time></trkpt><trkpt lat="43.4279211" lon="12.4716481"><ele>511.8333333333333</ele><time>2026-05-02T08:56:21.007Z</time></trkpt><trkpt lat="43.4279179" lon="12.4717544"><ele>511.66666666666663</ele><time>2026-05-02T08:56:22.024Z</time></trkpt><trkpt lat="43.4279023" lon="12.471892"><ele>511.5</ele><time>2026-05-02T08:56:24.01Z</time></trkpt><trkpt lat="43.4279053" lon="12.4719872"><ele>511.33333333333337</ele><time>2026-05-02T08:56:26.026Z</time></trkpt><trkpt lat="43.4279662" lon="12.4720287"><ele>511.1666666666667</ele><time>2026-05-02T08:56:28.018Z</time></trkpt><trkpt lat="43.428095" lon="12.4720592"><ele>511.0</ele><time>2026-05-02T08:56:30.012Z</time></trkpt><trkpt lat="43.4281844" lon="12.4720796"><ele>511.20000000000005</ele><time>2026-05-02T08:56:31.014Z</time></trkpt><trkpt lat="43.4282765" lon="12.4721164"><ele>511.40000000000003</ele><time>2026-05-02T08:56:32.019Z</time></trkpt><trkpt lat="43.4283685" lon="12.4721687"><ele>511.6</ele><time>2026-05-02T08:56:33.015Z</time></trkpt><trkpt lat="43.4284487" lon="12.4722354"><ele>511.8</ele><time>2026-05-02T08:56:34.015Z</time></trkpt><trkpt lat="43.4285203" lon="12.4723175"><ele>512.0</ele><time>2026-05-02T08:56:35.015Z</time></trkpt><trkpt lat="43.428576" lon="12.4724086"><ele>512.0</ele><time>2026-05-02T08:56:36.011Z</time></trkpt><trkpt lat="43.4286257" lon="12.4725116"><ele>512.0</ele><time>2026-05-02T08:56:37.004Z</time></trkpt><trkpt lat="43.4286601" lon="12.4726195"><ele>512.0</ele><time>2026-05-02T08:56:38.01Z</time></trkpt><trkpt lat="43.4286747" lon="12.472736"><ele>512.0</ele><time>2026-05-02T08:56:39.009Z</time></trkpt><trkpt lat="43.4286837" lon="12.4728775"><ele>512.0</ele><time>2026-05-02T08:56:40.014Z</time></trkpt><trkpt lat="43.4286975" lon="12.4730488"><ele>513.75</ele><time>2026-05-02T08:56:41.013Z</time></trkpt><trkpt lat="43.4287054" lon="12.4732278"><ele>515.5</ele><time>2026-05-02T08:56:42.033Z</time></trkpt><trkpt lat="43.4287092" lon="12.4734079"><ele>517.25</ele><time>2026-05-02T08:56:43.021Z</time></trkpt><trkpt lat="43.4287176" lon="12.4735616"><ele>519.0</ele><time>2026-05-02T08:56:44.014Z</time></trkpt><trkpt lat="43.4287283" lon="12.4736994"><ele>520.2</ele><time>2026-05-02T08:56:45.021Z</time></trkpt><trkpt lat="43.4287446" lon="12.4738348"><ele>521.4</ele><time>2026-05-02T08:56:46.027Z</time></trkpt><trkpt lat="43.428763" lon="12.4739589"><ele>522.6</ele><time>2026-05-02T08:56:47.019Z</time></trkpt><trkpt lat="43.4287993" lon="12.4740746"><ele>523.8</ele><time>2026-05-02T08:56:48.024Z</time></trkpt><trkpt lat="43.4288387" lon="12.4741844"><ele>525.0</ele><time>2026-05-02T08:56:49.021Z</time></trkpt><trkpt lat="43.4288891" lon="12.4742892"><ele>526.0</ele><time>2026-05-02T08:56:49.995Z</time></trkpt><trkpt lat="43.4289412" lon="12.4743928"><ele>527.0</ele><time>2026-05-02T08:56:51.009Z</time></trkpt><trkpt lat="43.4289813" lon="12.4745136"><ele>528.0</ele><time>2026-05-02T08:56:52.01Z</time></trkpt><trkpt lat="43.4289999" lon="12.4746396"><ele>529.0</ele><time>2026-05-02T08:56:53.011Z</time></trkpt><trkpt lat="43.429006" lon="12.4747525"><ele>530.0</ele><time>2026-05-02T08:56:54.008Z</time></trkpt><trkpt lat="43.4290033" lon="12.4748535"><ele>531.0</ele><time>2026-05-02T08:56:55.01Z</time></trkpt><trkpt lat="43.4289995" lon="12.4749597"><ele>532.5714285714286</ele><time>2026-05-02T08:56:56.027Z</time></trkpt><trkpt lat="43.4290005" lon="12.4750685"><ele>534.1428571428572</ele><time>2026-05-02T08:56:57.01Z</time></trkpt><trkpt lat="43.4290017" lon="12.4751704"><ele>535.7142857142858</ele><time>2026-05-02T08:56:58.009Z</time></trkpt><trkpt lat="43.4290146" lon="12.4752695"><ele>537.2857142857143</ele><time>2026-05-02T08:56:59.021Z</time></trkpt><trkpt lat="43.4290337" lon="12.4753621"><ele>538.8571428571429</ele><time>2026-05-02T08:57:00.036Z</time></trkpt><trkpt lat="43.4290631" lon="12.4754482"><ele>540.4285714285714</ele><time>2026-05-02T08:57:01.018Z</time></trkpt><trkpt lat="43.4290894" lon="12.475531"><ele>542.0</ele><time>2026-05-02T08:57:02.025Z</time></trkpt><trkpt lat="43.4291271" lon="12.4756481"><ele>542.0</ele><time>2026-05-02T08:57:04.011Z</time></trkpt><trkpt lat="43.4291628" lon="12.4757357"><ele>542.0</ele><time>2026-05-02T08:57:06.007Z</time></trkpt><trkpt lat="43.4292246" lon="12.475687"><ele>542.0</ele><time>2026-05-02T08:57:09.037Z</time></trkpt><trkpt lat="43.4292046" lon="12.4755588"><ele>542.0</ele><time>2026-05-02T08:57:11.013Z</time></trkpt><trkpt lat="43.4291796" lon="12.4754712"><ele>542.0</ele><time>2026-05-02T08:57:12.02Z</time></trkpt><trkpt lat="43.4291653" lon="12.4752945"><ele>542.0</ele><time>2026-05-02T08:57:14.031Z</time></trkpt><trkpt lat="43.4291883" lon="12.475209"><ele>542.0</ele><time>2026-05-02T08:57:15.009Z</time></trkpt><trkpt lat="43.429221" lon="12.4751298"><ele>542.0</ele><time>2026-05-02T08:57:16.006Z</time></trkpt><trkpt lat="43.4293119" lon="12.4750045"><ele>542.0</ele><time>2026-05-02T08:57:18.004Z</time></trkpt><trkpt lat="43.4294322" lon="12.4749438"><ele>542.0</ele><time>2026-05-02T08:57:20.008Z</time></trkpt><trkpt lat="43.4295022" lon="12.4749274"><ele>542.0</ele><time>2026-05-02T08:57:21.015Z</time></trkpt><trkpt lat="43.4295744" lon="12.4749097"><ele>544.0</ele><time>2026-05-02T08:57:22.002Z</time></trkpt><trkpt lat="43.4296476" lon="12.4749168"><ele>546.0</ele><time>2026-05-02T08:57:23.036Z</time></trkpt><trkpt lat="43.4297242" lon="12.4749454"><ele>548.0</ele><time>2026-05-02T08:57:24.038Z</time></trkpt><trkpt lat="43.4298036" lon="12.4749826"><ele>550.0</ele><time>2026-05-02T08:57:25.024Z</time></trkpt><trkpt lat="43.4298738" lon="12.4750472"><ele>552.0</ele><time>2026-05-02T08:57:26.012Z</time></trkpt><trkpt lat="43.4299423" lon="12.4751145"><ele>554.0</ele><time>2026-05-02T08:57:27.016Z</time></trkpt><trkpt lat="43.4300162" lon="12.4751764"><ele>554.0</ele><time>2026-05-02T08:57:28.013Z</time></trkpt><trkpt lat="43.430086" lon="12.4752396"><ele>554.0</ele><time>2026-05-02T08:57:29.016Z</time></trkpt><trkpt lat="43.4301698" lon="12.4753227"><ele>554.0</ele><time>2026-05-02T08:57:30.013Z</time></trkpt><trkpt lat="43.4302687" lon="12.4754075"><ele>554.0</ele><time>2026-05-02T08:57:31.01Z</time></trkpt><trkpt lat="43.4303681" lon="12.475498"><ele>554.0</ele><time>2026-05-02T08:57:32.017Z</time></trkpt><trkpt lat="43.4304665" lon="12.4755959"><ele>559.25</ele><time>2026-05-02T08:57:33.011Z</time></trkpt><trkpt lat="43.4305638" lon="12.4757036"><ele>564.5</ele><time>2026-05-02T08:57:34.012Z</time></trkpt><trkpt lat="43.4306619" lon="12.4758131"><ele>569.75</ele><time>2026-05-02T08:57:35.013Z</time></trkpt><trkpt lat="43.4307537" lon="12.475917"><ele>575.0</ele><time>2026-05-02T08:57:36.029Z</time></trkpt><trkpt lat="43.4308429" lon="12.4760182"><ele>575.0</ele><time>2026-05-02T08:57:37.02Z</time></trkpt><trkpt lat="43.4309307" lon="12.4761258"><ele>575.0</ele><time>2026-05-02T08:57:38.012Z</time></trkpt><trkpt lat="43.4310169" lon="12.4762321"><ele>575.0</ele><time>2026-05-02T08:57:39.019Z</time></trkpt><trkpt lat="43.431093" lon="12.4763357"><ele>575.0</ele><time>2026-05-02T08:57:40.011Z</time></trkpt><trkpt lat="43.4311671" lon="12.4764341"><ele>575.0</ele><time>2026-05-02T08:57:41.014Z</time></trkpt><trkpt lat="43.43124" lon="12.4765365"><ele>576.1666666666666</ele><time>2026-05-02T08:57:42.011Z</time></trkpt><trkpt lat="43.4312848" lon="12.4766342"><ele>577.3333333333333</ele><time>2026-05-02T08:57:43.017Z</time></trkpt><trkpt lat="43.4313118" lon="12.4767325"><ele>578.5</ele><time>2026-05-02T08:57:44.03Z</time></trkpt><trkpt lat="43.4313485" lon="12.4768475"><ele>579.6666666666666</ele><time>2026-05-02T08:57:45.03Z</time></trkpt><trkpt lat="43.4313918" lon="12.4769535"><ele>580.8333333333334</ele><time>2026-05-02T08:57:46.003Z</time></trkpt><trkpt lat="43.4314228" lon="12.4770402"><ele>582.0</ele><time>2026-05-02T08:57:47.025Z</time></trkpt><trkpt lat="43.4314357" lon="12.47714"><ele>584.2</ele><time>2026-05-02T08:57:49.013Z</time></trkpt><trkpt lat="43.4313609" lon="12.4771637"><ele>586.4000000000001</ele><time>2026-05-02T08:57:51.003Z</time></trkpt><trkpt lat="43.4312694" lon="12.4770853"><ele>588.5999999999999</ele><time>2026-05-02T08:57:53.002Z</time></trkpt><trkpt lat="43.4311925" lon="12.4770151"><ele>590.8</ele><time>2026-05-02T08:57:54.006Z</time></trkpt><trkpt lat="43.4311131" lon="12.4769483"><ele>593.0</ele><time>2026-05-02T08:57:55.009Z</time></trkpt><trkpt lat="43.4310227" lon="12.4768966"><ele>593.0</ele><time>2026-05-02T08:57:56.019Z</time></trkpt><trkpt lat="43.4309444" lon="12.4768539"><ele>593.0</ele><time>2026-05-02T08:57:56.997Z</time></trkpt><trkpt lat="43.430863" lon="12.4768166"><ele>593.0</ele><time>2026-05-02T08:57:58.007Z</time></trkpt><trkpt lat="43.43078" lon="12.4767936"><ele>593.0</ele><time>2026-05-02T08:57:59.01Z</time></trkpt><trkpt lat="43.4307115" lon="12.4767759"><ele>593.0</ele><time>2026-05-02T08:58:00.024Z</time></trkpt><trkpt lat="43.4306139" lon="12.4767887"><ele>593.0</ele><time>2026-05-02T08:58:02.027Z</time></trkpt><trkpt lat="43.4305871" lon="12.4768787"><ele>593.0</ele><time>2026-05-02T08:58:04.013Z</time></trkpt><trkpt lat="43.4306223" lon="12.4769779"><ele>593.0</ele><time>2026-05-02T08:58:06.021Z</time></trkpt><trkpt lat="43.4306823" lon="12.4770669"><ele>593.0</ele><time>2026-05-02T08:58:08.023Z</time></trkpt><trkpt lat="43.4307744" lon="12.477183"><ele>593.0</ele><time>2026-05-02T08:58:10.015Z</time></trkpt><trkpt lat="43.4308649" lon="12.4772939"><ele>593.0</ele><time>2026-05-02T08:58:12.008Z</time></trkpt><trkpt lat="43.4309428" lon="12.4773834"><ele>595.0</ele><time>2026-05-02T08:58:14.015Z</time></trkpt><trkpt lat="43.4310167" lon="12.4774727"><ele>597.0</ele><time>2026-05-02T08:58:16.019Z</time></trkpt><trkpt lat="43.4310885" lon="12.4775464"><ele>599.0</ele><time>2026-05-02T08:58:18.013Z</time></trkpt><trkpt lat="43.431158" lon="12.4776314"><ele>601.0</ele><time>2026-05-02T08:58:20.009Z</time></trkpt><trkpt lat="43.4312364" lon="12.4777339"><ele>603.0</ele><time>2026-05-02T08:58:22.015Z</time></trkpt><trkpt lat="43.4312894" lon="12.4777855"><ele>602.5714285714286</ele><time>2026-05-02T08:58:23.013Z</time></trkpt><trkpt lat="43.4313418" lon="12.4778518"><ele>602.1428571428571</ele><time>2026-05-02T08:58:24.019Z</time></trkpt><trkpt lat="43.431397" lon="12.4779227"><ele>601.7142857142857</ele><time>2026-05-02T08:58:25.011Z</time></trkpt><trkpt lat="43.4314472" lon="12.4780039"><ele>601.2857142857142</ele><time>2026-05-02T08:58:26.018Z</time></trkpt><trkpt lat="43.4314781" lon="12.4780894"><ele>600.8571428571429</ele><time>2026-05-02T08:58:27.017Z</time></trkpt><trkpt lat="43.4314922" lon="12.4781816"><ele>600.4285714285713</ele><time>2026-05-02T08:58:28.012Z</time></trkpt><trkpt lat="43.4315002" lon="12.4782945"><ele>600.0</ele><time>2026-05-02T08:58:29.026Z</time></trkpt><trkpt lat="43.4314965" lon="12.4784143"><ele>603.75</ele><time>2026-05-02T08:58:30.018Z</time></trkpt><trkpt lat="43.4314941" lon="12.4785502"><ele>607.5</ele><time>2026-05-02T08:58:31.01Z</time></trkpt><trkpt lat="43.4314944" lon="12.4787048"><ele>611.25</ele><time>2026-05-02T08:58:32.027Z</time></trkpt><trkpt lat="43.4314829" lon="12.4788737"><ele>615.0</ele><time>2026-05-02T08:58:33.017Z</time></trkpt><trkpt lat="43.4314638" lon="12.4790531"><ele>617.5</ele><time>2026-05-02T08:58:34.017Z</time></trkpt><trkpt lat="43.4314457" lon="12.4792416"><ele>620.0</ele><time>2026-05-02T08:58:35.02Z</time></trkpt><trkpt lat="43.4314333" lon="12.479437"><ele>622.5</ele><time>2026-05-02T08:58:36.026Z</time></trkpt><trkpt lat="43.4314158" lon="12.4796348"><ele>625.0</ele><time>2026-05-02T08:58:37.015Z</time></trkpt><trkpt lat="43.4313899" lon="12.47984"><ele>626.0</ele><time>2026-05-02T08:58:38.014Z</time></trkpt><trkpt lat="43.4313525" lon="12.480058"><ele>627.0</ele><time>2026-05-02T08:58:39.013Z</time></trkpt><trkpt lat="43.4313179" lon="12.4802616"><ele>628.0</ele><time>2026-05-02T08:58:40.015Z</time></trkpt><trkpt lat="43.4312894" lon="12.4804513"><ele>629.25</ele><time>2026-05-02T08:58:41.01Z</time></trkpt><trkpt lat="43.4312613" lon="12.4806374"><ele>630.5</ele><time>2026-05-02T08:58:42.013Z</time></trkpt><trkpt lat="43.4312284" lon="12.4808292"><ele>631.75</ele><time>2026-05-02T08:58:43.008Z</time></trkpt><trkpt lat="43.4311849" lon="12.481023"><ele>633.0</ele><time>2026-05-02T08:58:44.01Z</time></trkpt><trkpt lat="43.4311296" lon="12.4812236"><ele>634.0</ele><time>2026-05-02T08:58:45.019Z</time></trkpt><trkpt lat="43.4310715" lon="12.4814283"><ele>635.0</ele><time>2026-05-02T08:58:46.02Z</time></trkpt><trkpt lat="43.4310151" lon="12.4816156"><ele>636.0</ele><time>2026-05-02T08:58:47.009Z</time></trkpt><trkpt lat="43.430973" lon="12.4817885"><ele>637.0</ele><time>2026-05-02T08:58:48.019Z</time></trkpt><trkpt lat="43.4309371" lon="12.4819694"><ele>639.5</ele><time>2026-05-02T08:58:49.018Z</time></trkpt><trkpt lat="43.4309193" lon="12.4821467"><ele>642.0</ele><time>2026-05-02T08:58:50.016Z</time></trkpt><trkpt lat="43.4309021" lon="12.4823036"><ele>644.5</ele><time>2026-05-02T08:58:51.016Z</time></trkpt><trkpt lat="43.4309055" lon="12.4824434"><ele>647.0</ele><time>2026-05-02T08:58:52.027Z</time></trkpt><trkpt lat="43.4309523" lon="12.4825781"><ele>647.0</ele><time>2026-05-02T08:58:53.026Z</time></trkpt><trkpt lat="43.4310108" lon="12.4827387"><ele>647.0</ele><time>2026-05-02T08:58:54Z</time></trkpt><trkpt lat="43.4310741" lon="12.482881"><ele>647.0</ele><time>2026-05-02T08:58:55.022Z</time></trkpt><trkpt lat="43.4311293" lon="12.4829899"><ele>647.0</ele><time>2026-05-02T08:58:56.003Z</time></trkpt><trkpt lat="43.4311679" lon="12.4830646"><ele>647.0</ele><time>2026-05-02T08:58:57.009Z</time></trkpt><trkpt lat="43.4311927" lon="12.483213"><ele>647.0</ele><time>2026-05-02T08:58:59.03Z</time></trkpt><trkpt lat="43.4311118" lon="12.4833572"><ele>647.0</ele><time>2026-05-02T08:59:01.03Z</time></trkpt><trkpt lat="43.431026" lon="12.4834487"><ele>647.0</ele><time>2026-05-02T08:59:02.027Z</time></trkpt><trkpt lat="43.4309319" lon="12.4835598"><ele>647.0</ele><time>2026-05-02T08:59:03.009Z</time></trkpt><trkpt lat="43.4308382" lon="12.4836688"><ele>645.8</ele><time>2026-05-02T08:59:04.014Z</time></trkpt><trkpt lat="43.4307451" lon="12.4837723"><ele>644.6</ele><time>2026-05-02T08:59:05.039Z</time></trkpt><trkpt lat="43.4306552" lon="12.483859"><ele>643.4</ele><time>2026-05-02T08:59:06.007Z</time></trkpt><trkpt lat="43.4305852" lon="12.4839473"><ele>642.1999999999999</ele><time>2026-05-02T08:59:07.012Z</time></trkpt><trkpt lat="43.4305325" lon="12.4840454"><ele>641.0</ele><time>2026-05-02T08:59:08.014Z</time></trkpt><trkpt lat="43.4304879" lon="12.4841704"><ele>639.5</ele><time>2026-05-02T08:59:09.018Z</time></trkpt><trkpt lat="43.4304615" lon="12.4843295"><ele>638.0</ele><time>2026-05-02T08:59:10.017Z</time></trkpt><trkpt lat="43.4304362" lon="12.4844932"><ele>636.5</ele><time>2026-05-02T08:59:11.032Z</time></trkpt><trkpt lat="43.4304048" lon="12.4846672"><ele>635.0</ele><time>2026-05-02T08:59:12.015Z</time></trkpt><trkpt lat="43.43037" lon="12.4848174"><ele>635.0</ele><time>2026-05-02T08:59:13.01Z</time></trkpt><trkpt lat="43.4303462" lon="12.4849412"><ele>635.0</ele><time>2026-05-02T08:59:14.018Z</time></trkpt><trkpt lat="43.4303295" lon="12.4850726"><ele>635.0</ele><time>2026-05-02T08:59:15.008Z</time></trkpt><trkpt lat="43.4303233" lon="12.4852014"><ele>635.0</ele><time>2026-05-02T08:59:16.025Z</time></trkpt><trkpt lat="43.430323" lon="12.4853447"><ele>635.0</ele><time>2026-05-02T08:59:17.02Z</time></trkpt><trkpt lat="43.4303277" lon="12.4854905"><ele>635.4</ele><time>2026-05-02T08:59:18.014Z</time></trkpt><trkpt lat="43.4303389" lon="12.4856233"><ele>635.8</ele><time>2026-05-02T08:59:19.01Z</time></trkpt><trkpt lat="43.4303628" lon="12.4857499"><ele>636.2</ele><time>2026-05-02T08:59:20.01Z</time></trkpt><trkpt lat="43.4304021" lon="12.4858727"><ele>636.6</ele><time>2026-05-02T08:59:21.008Z</time></trkpt><trkpt lat="43.430445" lon="12.4859954"><ele>637.0</ele><time>2026-05-02T08:59:22.018Z</time></trkpt><trkpt lat="43.4304923" lon="12.4861264"><ele>638.3333333333334</ele><time>2026-05-02T08:59:23.006Z</time></trkpt><trkpt lat="43.4305445" lon="12.4862592"><ele>639.6666666666667</ele><time>2026-05-02T08:59:24.006Z</time></trkpt><trkpt lat="43.4305797" lon="12.4863756"><ele>641.0</ele><time>2026-05-02T08:59:25.008Z</time></trkpt><trkpt lat="43.4306031" lon="12.4864671"><ele>642.3333333333334</ele><time>2026-05-02T08:59:26.012Z</time></trkpt><trkpt lat="43.4306206" lon="12.486559"><ele>643.6666666666666</ele><time>2026-05-02T08:59:27.004Z</time></trkpt><trkpt lat="43.4306264" lon="12.4866635"><ele>645.0</ele><time>2026-05-02T08:59:28.015Z</time></trkpt><trkpt lat="43.4306274" lon="12.4867983"><ele>646.25</ele><time>2026-05-02T08:59:29.009Z</time></trkpt><trkpt lat="43.4306282" lon="12.48697"><ele>647.5</ele><time>2026-05-02T08:59:30.01Z</time></trkpt><trkpt lat="43.4306106" lon="12.4871643"><ele>648.75</ele><time>2026-05-02T08:59:31.004Z</time></trkpt><trkpt lat="43.4305953" lon="12.4873584"><ele>650.0</ele><time>2026-05-02T08:59:32.014Z</time></trkpt><trkpt lat="43.4305773" lon="12.4875608"><ele>651.25</ele><time>2026-05-02T08:59:33.012Z</time></trkpt><trkpt lat="43.4305592" lon="12.4877473"><ele>652.5</ele><time>2026-05-02T08:59:34.012Z</time></trkpt><trkpt lat="43.4305366" lon="12.4879237"><ele>653.75</ele><time>2026-05-02T08:59:35.017Z</time></trkpt><trkpt lat="43.4305281" lon="12.4880994"><ele>655.0</ele><time>2026-05-02T08:59:36.022Z</time></trkpt><trkpt lat="43.4305242" lon="12.4882708"><ele>657.0</ele><time>2026-05-02T08:59:37.01Z</time></trkpt><trkpt lat="43.4305251" lon="12.4884456"><ele>659.0</ele><time>2026-05-02T08:59:38.019Z</time></trkpt><trkpt lat="43.4305328" lon="12.4886249"><ele>661.0</ele><time>2026-05-02T08:59:39.02Z</time></trkpt><trkpt lat="43.430541" lon="12.4888016"><ele>663.0</ele><time>2026-05-02T08:59:40.004Z</time></trkpt><trkpt lat="43.4305455" lon="12.4889517"><ele>664.1666666666666</ele><time>2026-05-02T08:59:41.005Z</time></trkpt><trkpt lat="43.4305481" lon="12.4890638"><ele>665.3333333333334</ele><time>2026-05-02T08:59:42.011Z</time></trkpt><trkpt lat="43.4305542" lon="12.4891559"><ele>666.5</ele><time>2026-05-02T08:59:43.012Z</time></trkpt><trkpt lat="43.4306071" lon="12.4892845"><ele>667.6666666666667</ele><time>2026-05-02T08:59:45.006Z</time></trkpt><trkpt lat="43.4306688" lon="12.4893985"><ele>668.8333333333334</ele><time>2026-05-02T08:59:47.019Z</time></trkpt><trkpt lat="43.4307104" lon="12.4894731"><ele>670.0</ele><time>2026-05-02T08:59:48.013Z</time></trkpt><trkpt lat="43.4307545" lon="12.489564"><ele>671.6666666666667</ele><time>2026-05-02T08:59:49.018Z</time></trkpt><trkpt lat="43.4307909" lon="12.4896504"><ele>673.3333333333334</ele><time>2026-05-02T08:59:50.008Z</time></trkpt><trkpt lat="43.4308112" lon="12.4897388"><ele>675.0</ele><time>2026-05-02T08:59:51.009Z</time></trkpt><trkpt lat="43.4308238" lon="12.4898437"><ele>676.6666666666666</ele><time>2026-05-02T08:59:52.01Z</time></trkpt><trkpt lat="43.4308409" lon="12.4899599"><ele>678.3333333333333</ele><time>2026-05-02T08:59:53.01Z</time></trkpt><trkpt lat="43.4308702" lon="12.4900739"><ele>680.0</ele><time>2026-05-02T08:59:54.016Z</time></trkpt><trkpt lat="43.4309194" lon="12.4901606"><ele>680.0</ele><time>2026-05-02T08:59:55.012Z</time></trkpt><trkpt lat="43.4309843" lon="12.4902058"><ele>680.0</ele><time>2026-05-02T08:59:56.001Z</time></trkpt><trkpt lat="43.4310594" lon="12.4902122"><ele>680.0</ele><time>2026-05-02T08:59:57.012Z</time></trkpt><trkpt lat="43.4311388" lon="12.4901892"><ele>680.0</ele><time>2026-05-02T08:59:58.018Z</time></trkpt><trkpt lat="43.4312285" lon="12.4901295"><ele>680.0</ele><time>2026-05-02T08:59:59.013Z</time></trkpt><trkpt lat="43.4313218" lon="12.4900431"><ele>680.0</ele><time>2026-05-02T09:00:00.009Z</time></trkpt><trkpt lat="43.4314088" lon="12.4899374"><ele>680.0</ele><time>2026-05-02T09:00:01.007Z</time></trkpt><trkpt lat="43.4314964" lon="12.4898262"><ele>680.0</ele><time>2026-05-02T09:00:02.005Z</time></trkpt><trkpt lat="43.431573" lon="12.4897534"><ele>680.0</ele><time>2026-05-02T09:00:03.013Z</time></trkpt><trkpt lat="43.4316456" lon="12.4897098"><ele>680.0</ele><time>2026-05-02T09:00:04.004Z</time></trkpt><trkpt lat="43.4317157" lon="12.4897123"><ele>680.0</ele><time>2026-05-02T09:00:05.004Z</time></trkpt><trkpt lat="43.4317856" lon="12.4897293"><ele>680.0</ele><time>2026-05-02T09:00:06.016Z</time></trkpt><trkpt lat="43.4318587" lon="12.4897587"><ele>680.0</ele><time>2026-05-02T09:00:07.012Z</time></trkpt><trkpt lat="43.431928" lon="12.4898128"><ele>680.0</ele><time>2026-05-02T09:00:08.012Z</time></trkpt><trkpt lat="43.4320013" lon="12.4898953"><ele>680.0</ele><time>2026-05-02T09:00:09.01Z</time></trkpt><trkpt lat="43.4320838" lon="12.4899773"><ele>680.0</ele><time>2026-05-02T09:00:10.015Z</time></trkpt><trkpt lat="43.4321744" lon="12.490065"><ele>680.0</ele><time>2026-05-02T09:00:11.019Z</time></trkpt><trkpt lat="43.4322579" lon="12.4901628"><ele>679.8</ele><time>2026-05-02T09:00:12.017Z</time></trkpt><trkpt lat="43.4323349" lon="12.490267"><ele>679.6</ele><time>2026-05-02T09:00:13.009Z</time></trkpt><trkpt lat="43.4323962" lon="12.490388"><ele>679.4000000000001</ele><time>2026-05-02T09:00:14.017Z</time></trkpt><trkpt lat="43.4324502" lon="12.4905068"><ele>679.2</ele><time>2026-05-02T09:00:15.017Z</time></trkpt><trkpt lat="43.4324824" lon="12.490609"><ele>679.0</ele><time>2026-05-02T09:00:16.009Z</time></trkpt><trkpt lat="43.4325024" lon="12.4907105"><ele>681.1666666666667</ele><time>2026-05-02T09:00:17.012Z</time></trkpt><trkpt lat="43.4325026" lon="12.4908089"><ele>683.3333333333334</ele><time>2026-05-02T09:00:18.023Z</time></trkpt><trkpt lat="43.4324869" lon="12.4909122"><ele>685.5</ele><time>2026-05-02T09:00:19.009Z</time></trkpt><trkpt lat="43.4324611" lon="12.4910274"><ele>687.6666666666666</ele><time>2026-05-02T09:00:20.014Z</time></trkpt><trkpt lat="43.4324398" lon="12.4911506"><ele>689.8333333333333</ele><time>2026-05-02T09:00:21.006Z</time></trkpt><trkpt lat="43.4324395" lon="12.4912712"><ele>692.0</ele><time>2026-05-02T09:00:22.011Z</time></trkpt><trkpt lat="43.4324563" lon="12.4913951"><ele>693.5</ele><time>2026-05-02T09:00:23.031Z</time></trkpt><trkpt lat="43.4324969" lon="12.4915104"><ele>695.0</ele><time>2026-05-02T09:00:24.028Z</time></trkpt><trkpt lat="43.4325536" lon="12.4916032"><ele>696.5</ele><time>2026-05-02T09:00:25.024Z</time></trkpt><trkpt lat="43.4326171" lon="12.4916619"><ele>698.0</ele><time>2026-05-02T09:00:26.003Z</time></trkpt><trkpt lat="43.4326817" lon="12.4916688"><ele>699.5</ele><time>2026-05-02T09:00:27.011Z</time></trkpt><trkpt lat="43.4327577" lon="12.4916702"><ele>701.0</ele><time>2026-05-02T09:00:28.007Z</time></trkpt><trkpt lat="43.4328363" lon="12.491666"><ele>701.0</ele><time>2026-05-02T09:00:29.022Z</time></trkpt><trkpt lat="43.4329181" lon="12.4916849"><ele>701.0</ele><time>2026-05-02T09:00:30.02Z</time></trkpt><trkpt lat="43.4330175" lon="12.4917097"><ele>701.0</ele><time>2026-05-02T09:00:31.008Z</time></trkpt><trkpt lat="43.4331281" lon="12.4917397"><ele>701.0</ele><time>2026-05-02T09:00:32.004Z</time></trkpt><trkpt lat="43.4332367" lon="12.4917742"><ele>701.0</ele><time>2026-05-02T09:00:33.013Z</time></trkpt><trkpt lat="43.4333243" lon="12.4918046"><ele>700.8333333333333</ele><time>2026-05-02T09:00:34.012Z</time></trkpt><trkpt lat="43.4333991" lon="12.4918242"><ele>700.6666666666666</ele><time>2026-05-02T09:00:35.003Z</time></trkpt><trkpt lat="43.4334745" lon="12.4918048"><ele>700.5</ele><time>2026-05-02T09:00:36.011Z</time></trkpt><trkpt lat="43.4335407" lon="12.4917432"><ele>700.3333333333334</ele><time>2026-05-02T09:00:37.014Z</time></trkpt><trkpt lat="43.4336044" lon="12.4916448"><ele>700.1666666666667</ele><time>2026-05-02T09:00:38.01Z</time></trkpt><trkpt lat="43.4336647" lon="12.4915118"><ele>700.0</ele><time>2026-05-02T09:00:39.012Z</time></trkpt><trkpt lat="43.4337226" lon="12.4913618"><ele>697.6</ele><time>2026-05-02T09:00:40.017Z</time></trkpt><trkpt lat="43.433778" lon="12.4912145"><ele>695.2</ele><time>2026-05-02T09:00:41.032Z</time></trkpt><trkpt lat="43.4338271" lon="12.491081"><ele>692.8</ele><time>2026-05-02T09:00:42.025Z</time></trkpt><trkpt lat="43.4338823" lon="12.4909695"><ele>690.4</ele><time>2026-05-02T09:00:43.019Z</time></trkpt><trkpt lat="43.4339455" lon="12.4908652"><ele>688.0</ele><time>2026-05-02T09:00:44.037Z</time></trkpt><trkpt lat="43.4340232" lon="12.4907472"><ele>691.4</ele><time>2026-05-02T09:00:45.017Z</time></trkpt><trkpt lat="43.4341006" lon="12.4906378"><ele>694.8</ele><time>2026-05-02T09:00:46.011Z</time></trkpt><trkpt lat="43.4341569" lon="12.490528"><ele>698.2</ele><time>2026-05-02T09:00:47.014Z</time></trkpt><trkpt lat="43.4341948" lon="12.4904109"><ele>701.6</ele><time>2026-05-02T09:00:48.027Z</time></trkpt><trkpt lat="43.4342248" lon="12.4902874"><ele>705.0</ele><time>2026-05-02T09:00:49.032Z</time></trkpt><trkpt lat="43.434237" lon="12.4901591"><ele>705.0</ele><time>2026-05-02T09:00:50.025Z</time></trkpt><trkpt lat="43.4342409" lon="12.4900333"><ele>705.0</ele><time>2026-05-02T09:00:51.019Z</time></trkpt><trkpt lat="43.434249" lon="12.4899292"><ele>705.0</ele><time>2026-05-02T09:00:52.011Z</time></trkpt><trkpt lat="43.4342615" lon="12.489837"><ele>705.0</ele><time>2026-05-02T09:00:53.016Z</time></trkpt><trkpt lat="43.4342837" lon="12.4897361"><ele>705.0</ele><time>2026-05-02T09:00:54.003Z</time></trkpt><trkpt lat="43.4343153" lon="12.4896338"><ele>705.0</ele><time>2026-05-02T09:00:55.021Z</time></trkpt><trkpt lat="43.4343397" lon="12.4895271"><ele>704.1666666666666</ele><time>2026-05-02T09:00:56.006Z</time></trkpt><trkpt lat="43.4343639" lon="12.4894359"><ele>703.3333333333334</ele><time>2026-05-02T09:00:57.021Z</time></trkpt><trkpt lat="43.4343871" lon="12.4893526"><ele>702.5</ele><time>2026-05-02T09:00:58.011Z</time></trkpt><trkpt lat="43.4344555" lon="12.4892008"><ele>701.6666666666667</ele><time>2026-05-02T09:01:00.016Z</time></trkpt><trkpt lat="43.4344945" lon="12.4891076"><ele>700.8333333333334</ele><time>2026-05-02T09:01:01.006Z</time></trkpt><trkpt lat="43.434517" lon="12.4890072"><ele>700.0</ele><time>2026-05-02T09:01:02.02Z</time></trkpt><trkpt lat="43.4345446" lon="12.488919"><ele>700.0</ele><time>2026-05-02T09:01:03.008Z</time></trkpt><trkpt lat="43.4345909" lon="12.4888013"><ele>700.0</ele><time>2026-05-02T09:01:05.008Z</time></trkpt><trkpt lat="43.4346483" lon="12.4887201"><ele>700.0</ele><time>2026-05-02T09:01:07.016Z</time></trkpt><trkpt lat="43.4347361" lon="12.4887372"><ele>700.0</ele><time>2026-05-02T09:01:09.015Z</time></trkpt><trkpt lat="43.4347963" lon="12.4888313"><ele>700.0</ele><time>2026-05-02T09:01:11.009Z</time></trkpt><trkpt lat="43.4348736" lon="12.4889658"><ele>704.4</ele><time>2026-05-02T09:01:13.025Z</time></trkpt><trkpt lat="43.4349203" lon="12.489034"><ele>708.8</ele><time>2026-05-02T09:01:14.024Z</time></trkpt><trkpt lat="43.4349529" lon="12.4891852"><ele>713.2</ele><time>2026-05-02T09:01:16.007Z</time></trkpt><trkpt lat="43.4349294" lon="12.4893115"><ele>717.6</ele><time>2026-05-02T09:01:18.015Z</time></trkpt><trkpt lat="43.4348946" lon="12.4894742"><ele>722.0</ele><time>2026-05-02T09:01:20.04Z</time></trkpt><trkpt lat="43.4348807" lon="12.4895902"><ele>723.4000000000001</ele><time>2026-05-02T09:01:21.027Z</time></trkpt><trkpt lat="43.4348614" lon="12.489732"><ele>724.8000000000001</ele><time>2026-05-02T09:01:22.033Z</time></trkpt><trkpt lat="43.4348352" lon="12.489878"><ele>726.2</ele><time>2026-05-02T09:01:23.017Z</time></trkpt><trkpt lat="43.4348025" lon="12.4900092"><ele>727.6</ele><time>2026-05-02T09:01:24.03Z</time></trkpt><trkpt lat="43.4347622" lon="12.4901383"><ele>729.0</ele><time>2026-05-02T09:01:25.035Z</time></trkpt><trkpt lat="43.4347096" lon="12.490254"><ele>729.0</ele><time>2026-05-02T09:01:26.022Z</time></trkpt><trkpt lat="43.4346435" lon="12.4903798"><ele>729.0</ele><time>2026-05-02T09:01:27.038Z</time></trkpt><trkpt lat="43.4345764" lon="12.4904929"><ele>729.0</ele><time>2026-05-02T09:01:28.033Z</time></trkpt><trkpt lat="43.4345136" lon="12.4906026"><ele>729.0</ele><time>2026-05-02T09:01:29.015Z</time></trkpt><trkpt lat="43.4344575" lon="12.4906964"><ele>729.0</ele><time>2026-05-02T09:01:30.02Z</time></trkpt><trkpt lat="43.4344089" lon="12.4907924"><ele>726.6</ele><time>2026-05-02T09:01:31.025Z</time></trkpt><trkpt lat="43.4343811" lon="12.490889"><ele>724.2</ele><time>2026-05-02T09:01:32.011Z</time></trkpt><trkpt lat="43.4343773" lon="12.491004"><ele>721.8000000000001</ele><time>2026-05-02T09:01:33.034Z</time></trkpt><trkpt lat="43.4343655" lon="12.4911282"><ele>719.4000000000001</ele><time>2026-05-02T09:01:34.024Z</time></trkpt><trkpt lat="43.4343423" lon="12.4912749"><ele>717.0</ele><time>2026-05-02T09:01:35.02Z</time></trkpt><trkpt lat="43.4343148" lon="12.4914153"><ele>717.0</ele><time>2026-05-02T09:01:36.01Z</time></trkpt><trkpt lat="43.4342928" lon="12.4915325"><ele>717.0</ele><time>2026-05-02T09:01:37.018Z</time></trkpt><trkpt lat="43.4342924" lon="12.4916326"><ele>717.0</ele><time>2026-05-02T09:01:38.014Z</time></trkpt><trkpt lat="43.4343083" lon="12.4917335"><ele>717.0</ele><time>2026-05-02T09:01:39.013Z</time></trkpt><trkpt lat="43.4343324" lon="12.4918401"><ele>717.0</ele><time>2026-05-02T09:01:40.018Z</time></trkpt><trkpt lat="43.4343754" lon="12.4919429"><ele>717.0</ele><time>2026-05-02T09:01:41.01Z</time></trkpt><trkpt lat="43.4344182" lon="12.4920394"><ele>717.1666666666666</ele><time>2026-05-02T09:01:42.016Z</time></trkpt><trkpt lat="43.4344757" lon="12.4921269"><ele>717.3333333333334</ele><time>2026-05-02T09:01:43.016Z</time></trkpt><trkpt lat="43.4345362" lon="12.4922033"><ele>717.5</ele><time>2026-05-02T09:01:44.018Z</time></trkpt><trkpt lat="43.4345962" lon="12.4922745"><ele>717.6666666666667</ele><time>2026-05-02T09:01:45.028Z</time></trkpt><trkpt lat="43.4346462" lon="12.4924037"><ele>717.8333333333334</ele><time>2026-05-02T09:01:47.015Z</time></trkpt><trkpt lat="43.4346539" lon="12.4925021"><ele>718.0</ele><time>2026-05-02T09:01:49.023Z</time></trkpt><trkpt lat="43.4346071" lon="12.4925925"><ele>718.0</ele><time>2026-05-02T09:01:52.021Z</time></trkpt><trkpt lat="43.434549" lon="12.4926487"><ele>718.0</ele><time>2026-05-02T09:01:54.011Z</time></trkpt><trkpt lat="43.4344518" lon="12.492738"><ele>718.0</ele><time>2026-05-02T09:01:56.016Z</time></trkpt><trkpt lat="43.4343546" lon="12.4928107"><ele>718.0</ele><time>2026-05-02T09:01:57.997Z</time></trkpt><trkpt lat="43.4342922" lon="12.492844"><ele>718.0</ele><time>2026-05-02T09:01:59.021Z</time></trkpt><trkpt lat="43.4342014" lon="12.4928875"><ele>720.3333333333334</ele><time>2026-05-02T09:02:00.031Z</time></trkpt><trkpt lat="43.4341071" lon="12.4929286"><ele>722.6666666666667</ele><time>2026-05-02T09:02:01.011Z</time></trkpt><trkpt lat="43.4340211" lon="12.4929557"><ele>725.0</ele><time>2026-05-02T09:02:02.019Z</time></trkpt><trkpt lat="43.4339666" lon="12.4930035"><ele>727.3333333333334</ele><time>2026-05-02T09:02:04.012Z</time></trkpt><trkpt lat="43.4339972" lon="12.4930807"><ele>729.6666666666666</ele><time>2026-05-02T09:02:06.013Z</time></trkpt><trkpt lat="43.4340973" lon="12.4931221"><ele>732.0</ele><time>2026-05-02T09:02:08.02Z</time></trkpt><trkpt lat="43.4341745" lon="12.4932133"><ele>732.0</ele><time>2026-05-02T09:02:10.033Z</time></trkpt><trkpt lat="43.4341812" lon="12.4933798"><ele>732.0</ele><time>2026-05-02T09:02:12.013Z</time></trkpt><trkpt lat="43.4341562" lon="12.4934818"><ele>732.0</ele><time>2026-05-02T09:02:13.011Z</time></trkpt><trkpt lat="43.4341231" lon="12.4935978"><ele>732.0</ele><time>2026-05-02T09:02:14.016Z</time></trkpt><trkpt lat="43.4340898" lon="12.4937127"><ele>732.0</ele><time>2026-05-02T09:02:15.009Z</time></trkpt><trkpt lat="43.4340545" lon="12.4938291"><ele>734.4000000000001</ele><time>2026-05-02T09:02:16.027Z</time></trkpt><trkpt lat="43.4340167" lon="12.4939603"><ele>736.8000000000001</ele><time>2026-05-02T09:02:17.025Z</time></trkpt><trkpt lat="43.4339905" lon="12.4940969"><ele>739.2</ele><time>2026-05-02T09:02:18.008Z</time></trkpt><trkpt lat="43.433979" lon="12.4942345"><ele>741.6</ele><time>2026-05-02T09:02:19.018Z</time></trkpt><trkpt lat="43.4339785" lon="12.4943528"><ele>744.0</ele><time>2026-05-02T09:02:20.028Z</time></trkpt><trkpt lat="43.4339803" lon="12.4944592"><ele>744.0</ele><time>2026-05-02T09:02:21.009Z</time></trkpt><trkpt lat="43.4339769" lon="12.4945523"><ele>744.0</ele><time>2026-05-02T09:02:22.019Z</time></trkpt><trkpt lat="43.4339252" lon="12.4946974"><ele>744.0</ele><time>2026-05-02T09:02:24.01Z</time></trkpt><trkpt lat="43.4338702" lon="12.4947399"><ele>744.0</ele><time>2026-05-02T09:02:25.014Z</time></trkpt><trkpt lat="43.4337927" lon="12.4947659"><ele>744.0</ele><time>2026-05-02T09:02:26.016Z</time></trkpt><trkpt lat="43.4336999" lon="12.4947587"><ele>744.0</ele><time>2026-05-02T09:02:27.014Z</time></trkpt><trkpt lat="43.4336023" lon="12.4947597"><ele>747.8333333333334</ele><time>2026-05-02T09:02:28.007Z</time></trkpt><trkpt lat="43.433512" lon="12.4947801"><ele>751.6666666666666</ele><time>2026-05-02T09:02:29.012Z</time></trkpt><trkpt lat="43.4334406" lon="12.4948435"><ele>755.5</ele><time>2026-05-02T09:02:30.014Z</time></trkpt><trkpt lat="43.4333944" lon="12.4949459"><ele>759.3333333333333</ele><time>2026-05-02T09:02:31.03Z</time></trkpt><trkpt lat="43.4333533" lon="12.4950555"><ele>763.1666666666666</ele><time>2026-05-02T09:02:32.014Z</time></trkpt><trkpt lat="43.4333152" lon="12.4951558"><ele>767.0</ele><time>2026-05-02T09:02:33.021Z</time></trkpt><trkpt lat="43.4332825" lon="12.4952528"><ele>767.0</ele><time>2026-05-02T09:02:34.018Z</time></trkpt><trkpt lat="43.4332588" lon="12.4953407"><ele>767.0</ele><time>2026-05-02T09:02:35.034Z</time></trkpt><trkpt lat="43.4332065" lon="12.4954929"><ele>767.0</ele><time>2026-05-02T09:02:37.015Z</time></trkpt><trkpt lat="43.4331532" lon="12.4956349"><ele>767.0</ele><time>2026-05-02T09:02:39.008Z</time></trkpt><trkpt lat="43.4331136" lon="12.495764"><ele>767.0</ele><time>2026-05-02T09:02:41.021Z</time></trkpt><trkpt lat="43.4330823" lon="12.4958949"><ele>766.0</ele><time>2026-05-02T09:02:43.007Z</time></trkpt><trkpt lat="43.4330488" lon="12.4960318"><ele>765.0</ele><time>2026-05-02T09:02:45.009Z</time></trkpt><trkpt lat="43.433014" lon="12.4961735"><ele>764.0</ele><time>2026-05-02T09:02:47.01Z</time></trkpt><trkpt lat="43.4329879" lon="12.4963287"><ele>763.0</ele><time>2026-05-02T09:02:49.016Z</time></trkpt><trkpt lat="43.432973" lon="12.4964183"><ele>762.0</ele><time>2026-05-02T09:02:50.008Z</time></trkpt><trkpt lat="43.4329596" lon="12.4965431"><ele>761.6</ele><time>2026-05-02T09:02:51.011Z</time></trkpt><trkpt lat="43.4329491" lon="12.4966787"><ele>761.2</ele><time>2026-05-02T09:02:52.026Z</time></trkpt><trkpt lat="43.4329451" lon="12.4968246"><ele>760.8</ele><time>2026-05-02T09:02:53.012Z</time></trkpt><trkpt lat="43.4329608" lon="12.4969767"><ele>760.4</ele><time>2026-05-02T09:02:54.01Z</time></trkpt><trkpt lat="43.4330061" lon="12.4971388"><ele>760.0</ele><time>2026-05-02T09:02:55.007Z</time></trkpt><trkpt lat="43.4330656" lon="12.497299"><ele>760.0</ele><time>2026-05-02T09:02:56.012Z</time></trkpt><trkpt lat="43.4331234" lon="12.4974481"><ele>760.0</ele><time>2026-05-02T09:02:57.005Z</time></trkpt><trkpt lat="43.4331718" lon="12.4975979"><ele>760.0</ele><time>2026-05-02T09:02:58.017Z</time></trkpt><trkpt lat="43.4332078" lon="12.49777"><ele>760.0</ele><time>2026-05-02T09:02:59.027Z</time></trkpt><trkpt lat="43.4332412" lon="12.4979478"><ele>759.3333333333334</ele><time>2026-05-02T09:03:00.014Z</time></trkpt><trkpt lat="43.43327" lon="12.4981546"><ele>758.6666666666666</ele><time>2026-05-02T09:03:01.017Z</time></trkpt><trkpt lat="43.4332906" lon="12.4983675"><ele>758.0</ele><time>2026-05-02T09:03:02.01Z</time></trkpt><trkpt lat="43.4333172" lon="12.4985842"><ele>757.25</ele><time>2026-05-02T09:03:03.025Z</time></trkpt><trkpt lat="43.4333573" lon="12.4987908"><ele>756.5</ele><time>2026-05-02T09:03:04.015Z</time></trkpt><trkpt lat="43.4334088" lon="12.49898"><ele>755.75</ele><time>2026-05-02T09:03:05.022Z</time></trkpt><trkpt lat="43.4334462" lon="12.4991536"><ele>755.0</ele><time>2026-05-02T09:03:06.009Z</time></trkpt><trkpt lat="43.4334746" lon="12.499308"><ele>755.0</ele><time>2026-05-02T09:03:07.004Z</time></trkpt><trkpt lat="43.4334888" lon="12.4994473"><ele>755.0</ele><time>2026-05-02T09:03:08.019Z</time></trkpt><trkpt lat="43.4334774" lon="12.4995884"><ele>755.0</ele><time>2026-05-02T09:03:09.017Z</time></trkpt><trkpt lat="43.4334611" lon="12.4997122"><ele>755.0</ele><time>2026-05-02T09:03:10.01Z</time></trkpt><trkpt lat="43.4334293" lon="12.4998232"><ele>755.0</ele><time>2026-05-02T09:03:11.033Z</time></trkpt><trkpt lat="43.4333917" lon="12.4999331"><ele>756.6666666666666</ele><time>2026-05-02T09:03:12.018Z</time></trkpt><trkpt lat="43.4333445" lon="12.5000328"><ele>758.3333333333333</ele><time>2026-05-02T09:03:13.005Z</time></trkpt><trkpt lat="43.4332854" lon="12.5001332"><ele>760.0</ele><time>2026-05-02T09:03:14.022Z</time></trkpt><trkpt lat="43.4332182" lon="12.5002147"><ele>761.6666666666666</ele><time>2026-05-02T09:03:15.01Z</time></trkpt><trkpt lat="43.4331456" lon="12.500283"><ele>763.3333333333334</ele><time>2026-05-02T09:03:16.004Z</time></trkpt><trkpt lat="43.4330646" lon="12.5003363"><ele>765.0</ele><time>2026-05-02T09:03:17.016Z</time></trkpt><trkpt lat="43.4329687" lon="12.5003861"><ele>768.3333333333334</ele><time>2026-05-02T09:03:18.017Z</time></trkpt><trkpt lat="43.4328636" lon="12.5004256"><ele>771.6666666666667</ele><time>2026-05-02T09:03:19.013Z</time></trkpt><trkpt lat="43.4327614" lon="12.5004329"><ele>775.0</ele><time>2026-05-02T09:03:20.012Z</time></trkpt><trkpt lat="43.4326767" lon="12.5004463"><ele>778.3333333333334</ele><time>2026-05-02T09:03:21.001Z</time></trkpt><trkpt lat="43.43261" lon="12.5004613"><ele>781.6666666666667</ele><time>2026-05-02T09:03:22.004Z</time></trkpt><trkpt lat="43.4325922" lon="12.5005466"><ele>785.0</ele><time>2026-05-02T09:03:25.007Z</time></trkpt><trkpt lat="43.4326527" lon="12.5005932"><ele>785.0</ele><time>2026-05-02T09:03:45.003Z</time></trkpt><trkpt lat="43.4327706" lon="12.5005851"><ele>785.0</ele><time>2026-05-02T09:03:47.014Z</time></trkpt><trkpt lat="43.432853" lon="12.5005699"><ele>785.0</ele><time>2026-05-02T09:03:48.01Z</time></trkpt><trkpt lat="43.4329444" lon="12.5005761"><ele>785.0</ele><time>2026-05-02T09:03:49.004Z</time></trkpt><trkpt lat="43.4330487" lon="12.5005802"><ele>785.0</ele><time>2026-05-02T09:03:50.003Z</time></trkpt><trkpt lat="43.4331464" lon="12.5005999"><ele>785.8333333333334</ele><time>2026-05-02T09:03:51.022Z</time></trkpt><trkpt lat="43.4332367" lon="12.5006074"><ele>786.6666666666667</ele><time>2026-05-02T09:03:52.001Z</time></trkpt><trkpt lat="43.433313" lon="12.500624"><ele>787.5</ele><time>2026-05-02T09:03:53.009Z</time></trkpt><trkpt lat="43.4333932" lon="12.5006493"><ele>788.3333333333333</ele><time>2026-05-02T09:03:54.008Z</time></trkpt><trkpt lat="43.4334636" lon="12.500708"><ele>789.1666666666666</ele><time>2026-05-02T09:03:55Z</time></trkpt><trkpt lat="43.4335152" lon="12.500785"><ele>790.0</ele><time>2026-05-02T09:03:56.018Z</time></trkpt><trkpt lat="43.4335508" lon="12.5008749"><ele>789.9999999999999</ele><time>2026-05-02T09:03:57.009Z</time></trkpt><trkpt lat="43.4335787" lon="12.5009876"><ele>790.0</ele><time>2026-05-02T09:03:57.998Z</time></trkpt><trkpt lat="43.4335984" lon="12.5011109"><ele>790.0</ele><time>2026-05-02T09:03:59.01Z</time></trkpt><trkpt lat="43.4336289" lon="12.5012189"><ele>790.0</ele><time>2026-05-02T09:04:00.016Z</time></trkpt><trkpt lat="43.4336857" lon="12.5012812"><ele>789.9999999999999</ele><time>2026-05-02T09:04:01.003Z</time></trkpt><trkpt lat="43.4337742" lon="12.5013217"><ele>790.0</ele><time>2026-05-02T09:04:02.007Z</time></trkpt><trkpt lat="43.4338896" lon="12.501342"><ele>793.0</ele><time>2026-05-02T09:04:03.01Z</time></trkpt><trkpt lat="43.4340115" lon="12.5013504"><ele>796.0</ele><time>2026-05-02T09:04:03.999Z</time></trkpt><trkpt lat="43.4341275" lon="12.5013632"><ele>799.0</ele><time>2026-05-02T09:04:05.027Z</time></trkpt><trkpt lat="43.4342335" lon="12.5013787"><ele>802.0</ele><time>2026-05-02T09:04:06.008Z</time></trkpt><trkpt lat="43.4343226" lon="12.5014016"><ele>805.0</ele><time>2026-05-02T09:04:06.998Z</time></trkpt><trkpt lat="43.4343868" lon="12.5014528"><ele>804.9999999999999</ele><time>2026-05-02T09:04:08.014Z</time></trkpt><trkpt lat="43.4344444" lon="12.5016101"><ele>805.0</ele><time>2026-05-02T09:04:10.01Z</time></trkpt><trkpt lat="43.4344549" lon="12.5017147"><ele>805.0</ele><time>2026-05-02T09:04:11.001Z</time></trkpt><trkpt lat="43.4344763" lon="12.501817"><ele>805.0</ele><time>2026-05-02T09:04:12.029Z</time></trkpt><trkpt lat="43.4345295" lon="12.5019059"><ele>804.9999999999999</ele><time>2026-05-02T09:04:13.005Z</time></trkpt><trkpt lat="43.4345932" lon="12.5019622"><ele>805.0</ele><time>2026-05-02T09:04:14.01Z</time></trkpt><trkpt lat="43.434668" lon="12.5020076"><ele>802.0</ele><time>2026-05-02T09:04:15.015Z</time></trkpt><trkpt lat="43.4347647" lon="12.5020356"><ele>799.0</ele><time>2026-05-02T09:04:15.999Z</time></trkpt><trkpt lat="43.4348855" lon="12.5020225"><ele>796.0</ele><time>2026-05-02T09:04:17.005Z</time></trkpt><trkpt lat="43.4350131" lon="12.5020002"><ele>793.0</ele><time>2026-05-02T09:04:18.021Z</time></trkpt><trkpt lat="43.4351363" lon="12.5019892"><ele>793.0</ele><time>2026-05-02T09:04:19.018Z</time></trkpt><trkpt lat="43.4352332" lon="12.5019963"><ele>793.0</ele><time>2026-05-02T09:04:20.007Z</time></trkpt><trkpt lat="43.4353288" lon="12.5020091"><ele>793.0</ele><time>2026-05-02T09:04:21.007Z</time></trkpt><trkpt lat="43.435414" lon="12.502019"><ele>793.0</ele><time>2026-05-02T09:04:22.02Z</time></trkpt><trkpt lat="43.4354991" lon="12.5020328"><ele>793.0</ele><time>2026-05-02T09:04:23.013Z</time></trkpt><trkpt lat="43.435584" lon="12.5020519"><ele>794.9999999999999</ele><time>2026-05-02T09:04:24.011Z</time></trkpt><trkpt lat="43.4356622" lon="12.5020846"><ele>797.0</ele><time>2026-05-02T09:04:25.016Z</time></trkpt><trkpt lat="43.4357333" lon="12.5021462"><ele>799.0</ele><time>2026-05-02T09:04:26.016Z</time></trkpt><trkpt lat="43.4357956" lon="12.5022176"><ele>801.0</ele><time>2026-05-02T09:04:27.016Z</time></trkpt><trkpt lat="43.4358407" lon="12.5023096"><ele>802.9999999999999</ele><time>2026-05-02T09:04:27.997Z</time></trkpt><trkpt lat="43.4358681" lon="12.5024115"><ele>805.0</ele><time>2026-05-02T09:04:29.017Z</time></trkpt><trkpt lat="43.4358869" lon="12.5025241"><ele>805.0</ele><time>2026-05-02T09:04:30.017Z</time></trkpt><trkpt lat="43.4358754" lon="12.5026505"><ele>805.0</ele><time>2026-05-02T09:04:31.02Z</time></trkpt><trkpt lat="43.4358487" lon="12.5028141"><ele>805.0</ele><time>2026-05-02T09:04:32.011Z</time></trkpt><trkpt lat="43.4358104" lon="12.5029714"><ele>805.0</ele><time>2026-05-02T09:04:33.01Z</time></trkpt><trkpt lat="43.4357671" lon="12.5031156"><ele>805.0</ele><time>2026-05-02T09:04:34.007Z</time></trkpt><trkpt lat="43.4357363" lon="12.5032408"><ele>804.8</ele><time>2026-05-02T09:04:35.008Z</time></trkpt><trkpt lat="43.435722" lon="12.5033667"><ele>804.6</ele><time>2026-05-02T09:04:36.014Z</time></trkpt><trkpt lat="43.4357338" lon="12.5034748"><ele>804.4000000000001</ele><time>2026-05-02T09:04:37.009Z</time></trkpt><trkpt lat="43.4357674" lon="12.5035759"><ele>804.2</ele><time>2026-05-02T09:04:38.005Z</time></trkpt><trkpt lat="43.4358238" lon="12.5036964"><ele>804.0</ele><time>2026-05-02T09:04:39.02Z</time></trkpt><trkpt lat="43.4358878" lon="12.5038125"><ele>805.0</ele><time>2026-05-02T09:04:40.012Z</time></trkpt><trkpt lat="43.4359677" lon="12.5039044"><ele>806.0</ele><time>2026-05-02T09:04:41.015Z</time></trkpt><trkpt lat="43.4360324" lon="12.5039596"><ele>807.0</ele><time>2026-05-02T09:04:42.004Z</time></trkpt><trkpt lat="43.4360723" lon="12.5040285"><ele>808.0</ele><time>2026-05-02T09:04:43.018Z</time></trkpt><trkpt lat="43.4360939" lon="12.50412"><ele>809.0</ele><time>2026-05-02T09:04:44.013Z</time></trkpt><trkpt lat="43.436101" lon="12.5042231"><ele>810.0</ele><time>2026-05-02T09:04:45.011Z</time></trkpt><trkpt lat="43.4361079" lon="12.5043662"><ele>810.0</ele><time>2026-05-02T09:04:46.007Z</time></trkpt><trkpt lat="43.4361209" lon="12.5045175"><ele>810.0</ele><time>2026-05-02T09:04:47.007Z</time></trkpt><trkpt lat="43.4361481" lon="12.5046677"><ele>810.0</ele><time>2026-05-02T09:04:48.005Z</time></trkpt><trkpt lat="43.4361932" lon="12.5048207"><ele>810.0</ele><time>2026-05-02T09:04:49.02Z</time></trkpt><trkpt lat="43.4362432" lon="12.5049807"><ele>810.0</ele><time>2026-05-02T09:04:50.012Z</time></trkpt><trkpt lat="43.4363175" lon="12.5051188"><ele>810.0</ele><time>2026-05-02T09:04:51.003Z</time></trkpt><trkpt lat="43.4364116" lon="12.5052425"><ele>810.0</ele><time>2026-05-02T09:04:52.013Z</time></trkpt><trkpt lat="43.436508" lon="12.5053538"><ele>810.0</ele><time>2026-05-02T09:04:53.016Z</time></trkpt><trkpt lat="43.4366051" lon="12.5054496"><ele>810.0</ele><time>2026-05-02T09:04:54.016Z</time></trkpt><trkpt lat="43.436715" lon="12.5055281"><ele>810.0</ele><time>2026-05-02T09:04:55.011Z</time></trkpt><trkpt lat="43.436814" lon="12.5055767"><ele>810.0</ele><time>2026-05-02T09:04:56.003Z</time></trkpt><trkpt lat="43.436903" lon="12.505632"><ele>810.0</ele><time>2026-05-02T09:04:57.003Z</time></trkpt><trkpt lat="43.4369906" lon="12.5057268"><ele>810.0</ele><time>2026-05-02T09:04:58.006Z</time></trkpt><trkpt lat="43.4370846" lon="12.5058387"><ele>810.25</ele><time>2026-05-02T09:04:58.999Z</time></trkpt><trkpt lat="43.4371959" lon="12.5059583"><ele>810.5</ele><time>2026-05-02T09:05:00.007Z</time></trkpt><trkpt lat="43.4373011" lon="12.506048"><ele>810.75</ele><time>2026-05-02T09:05:01.008Z</time></trkpt><trkpt lat="43.4373977" lon="12.5060984"><ele>811.0</ele><time>2026-05-02T09:05:02.005Z</time></trkpt><trkpt lat="43.4374998" lon="12.5061347"><ele>811.0</ele><time>2026-05-02T09:05:03.002Z</time></trkpt><trkpt lat="43.4376076" lon="12.506156"><ele>811.0</ele><time>2026-05-02T09:05:04.009Z</time></trkpt><trkpt lat="43.437713" lon="12.5061549"><ele>811.0</ele><time>2026-05-02T09:05:05.002Z</time></trkpt><trkpt lat="43.437822" lon="12.5061491"><ele>811.0</ele><time>2026-05-02T09:05:06.008Z</time></trkpt><trkpt lat="43.4379316" lon="12.5061513"><ele>811.0</ele><time>2026-05-02T09:05:07Z</time></trkpt><trkpt lat="43.4380493" lon="12.5061711"><ele>810.8</ele><time>2026-05-02T09:05:08Z</time></trkpt><trkpt lat="43.4381598" lon="12.5062033"><ele>810.5999999999999</ele><time>2026-05-02T09:05:09.006Z</time></trkpt><trkpt lat="43.4382713" lon="12.5062226"><ele>810.4</ele><time>2026-05-02T09:05:09.998Z</time></trkpt><trkpt lat="43.4383815" lon="12.5062146"><ele>810.2</ele><time>2026-05-02T09:05:11.01Z</time></trkpt><trkpt lat="43.4384857" lon="12.506175"><ele>810.0</ele><time>2026-05-02T09:05:11.998Z</time></trkpt><trkpt lat="43.4385844" lon="12.5060926"><ele>810.0</ele><time>2026-05-02T09:05:13Z</time></trkpt><trkpt lat="43.4386696" lon="12.5059907"><ele>810.0</ele><time>2026-05-02T09:05:14.008Z</time></trkpt><trkpt lat="43.4387442" lon="12.5058951"><ele>810.0</ele><time>2026-05-02T09:05:15.005Z</time></trkpt><trkpt lat="43.4387961" lon="12.5057792"><ele>810.0</ele><time>2026-05-02T09:05:16.004Z</time></trkpt><trkpt lat="43.4388342" lon="12.5056748"><ele>810.0</ele><time>2026-05-02T09:05:17.009Z</time></trkpt><trkpt lat="43.4388614" lon="12.5055707"><ele>810.0</ele><time>2026-05-02T09:05:18Z</time></trkpt><trkpt lat="43.4388938" lon="12.5054793"><ele>810.0</ele><time>2026-05-02T09:05:19.008Z</time></trkpt><trkpt lat="43.4389421" lon="12.5053985"><ele>810.0</ele><time>2026-05-02T09:05:19.997Z</time></trkpt><trkpt lat="43.438995" lon="12.5053467"><ele>810.0</ele><time>2026-05-02T09:05:21.008Z</time></trkpt><trkpt lat="43.4391124" lon="12.505294"><ele>810.0</ele><time>2026-05-02T09:05:23.012Z</time></trkpt><trkpt lat="43.4391768" lon="12.5052814"><ele>810.0</ele><time>2026-05-02T09:05:24.006Z</time></trkpt><trkpt lat="43.4392481" lon="12.5052838"><ele>810.0</ele><time>2026-05-02T09:05:25.005Z</time></trkpt><trkpt lat="43.4393323" lon="12.5053056"><ele>810.0</ele><time>2026-05-02T09:05:26.004Z</time></trkpt><trkpt lat="43.4394177" lon="12.505328"><ele>810.0</ele><time>2026-05-02T09:05:27.001Z</time></trkpt><trkpt lat="43.4395145" lon="12.5053251"><ele>810.0</ele><time>2026-05-02T09:05:28.014Z</time></trkpt><trkpt lat="43.4396113" lon="12.505297"><ele>810.0</ele><time>2026-05-02T09:05:29.014Z</time></trkpt><trkpt lat="43.4397009" lon="12.5052509"><ele>809.6</ele><time>2026-05-02T09:05:30.009Z</time></trkpt><trkpt lat="43.4398016" lon="12.5052093"><ele>809.2</ele><time>2026-05-02T09:05:31.005Z</time></trkpt><trkpt lat="43.4398847" lon="12.5051507"><ele>808.8</ele><time>2026-05-02T09:05:32.008Z</time></trkpt><trkpt lat="43.4399466" lon="12.5050743"><ele>808.4</ele><time>2026-05-02T09:05:33.007Z</time></trkpt><trkpt lat="43.4400018" lon="12.504988"><ele>808.0</ele><time>2026-05-02T09:05:34.03Z</time></trkpt><trkpt lat="43.4400518" lon="12.5048869"><ele>808.0</ele><time>2026-05-02T09:05:35.015Z</time></trkpt><trkpt lat="43.4401025" lon="12.5047724"><ele>808.0</ele><time>2026-05-02T09:05:36.01Z</time></trkpt><trkpt lat="43.4401512" lon="12.5046467"><ele>808.0</ele><time>2026-05-02T09:05:37.024Z</time></trkpt><trkpt lat="43.4401969" lon="12.5045038"><ele>808.0</ele><time>2026-05-02T09:05:38.021Z</time></trkpt><trkpt lat="43.4402479" lon="12.5043449"><ele>808.0</ele><time>2026-05-02T09:05:39.004Z</time></trkpt><trkpt lat="43.4402903" lon="12.5041902"><ele>804.25</ele><time>2026-05-02T09:05:40.015Z</time></trkpt><trkpt lat="43.4403333" lon="12.5040248"><ele>800.5</ele><time>2026-05-02T09:05:41.003Z</time></trkpt><trkpt lat="43.4403782" lon="12.5038611"><ele>796.75</ele><time>2026-05-02T09:05:42.014Z</time></trkpt><trkpt lat="43.4404044" lon="12.5037096"><ele>793.0</ele><time>2026-05-02T09:05:43.007Z</time></trkpt><trkpt lat="43.4404081" lon="12.5035621"><ele>791.5</ele><time>2026-05-02T09:05:44.008Z</time></trkpt><trkpt lat="43.440403" lon="12.5034081"><ele>790.0</ele><time>2026-05-02T09:05:45.005Z</time></trkpt><trkpt lat="43.4403967" lon="12.5032498"><ele>788.5</ele><time>2026-05-02T09:05:46.016Z</time></trkpt><trkpt lat="43.4403753" lon="12.5030871"><ele>787.0</ele><time>2026-05-02T09:05:47.012Z</time></trkpt><trkpt lat="43.4403333" lon="12.5029089"><ele>787.0</ele><time>2026-05-02T09:05:48.01Z</time></trkpt><trkpt lat="43.4402907" lon="12.5027316"><ele>787.0</ele><time>2026-05-02T09:05:49.007Z</time></trkpt><trkpt lat="43.440252" lon="12.5025641"><ele>787.0</ele><time>2026-05-02T09:05:50.012Z</time></trkpt><trkpt lat="43.4402234" lon="12.5024181"><ele>787.0</ele><time>2026-05-02T09:05:51.02Z</time></trkpt><trkpt lat="43.440204" lon="12.502282"><ele>786.9999999999999</ele><time>2026-05-02T09:05:52.011Z</time></trkpt><trkpt lat="43.4401904" lon="12.502148"><ele>787.0</ele><time>2026-05-02T09:05:53.008Z</time></trkpt><trkpt lat="43.4401814" lon="12.5020237"><ele>787.0</ele><time>2026-05-02T09:05:54.021Z</time></trkpt><trkpt lat="43.4401714" lon="12.501909"><ele>787.0</ele><time>2026-05-02T09:05:55.013Z</time></trkpt><trkpt lat="43.4401652" lon="12.5018096"><ele>786.9999999999999</ele><time>2026-05-02T09:05:56.014Z</time></trkpt><trkpt lat="43.4401723" lon="12.5017175"><ele>787.0</ele><time>2026-05-02T09:05:57.014Z</time></trkpt><trkpt lat="43.4402286" lon="12.5015899"><ele>789.0</ele><time>2026-05-02T09:05:59.008Z</time></trkpt><trkpt lat="43.4403357" lon="12.5015191"><ele>791.0</ele><time>2026-05-02T09:06:01.018Z</time></trkpt><trkpt lat="43.4403974" lon="12.5014924"><ele>793.0</ele><time>2026-05-02T09:06:02.019Z</time></trkpt><trkpt lat="43.4404726" lon="12.501453"><ele>795.0</ele><time>2026-05-02T09:06:03.005Z</time></trkpt><trkpt lat="43.4405595" lon="12.5013739"><ele>797.0</ele><time>2026-05-02T09:06:03.994Z</time></trkpt><trkpt lat="43.440646" lon="12.5012686"><ele>796.75</ele><time>2026-05-02T09:06:05.008Z</time></trkpt><trkpt lat="43.4407294" lon="12.5011644"><ele>796.5</ele><time>2026-05-02T09:06:06.017Z</time></trkpt><trkpt lat="43.4408118" lon="12.5010442"><ele>796.25</ele><time>2026-05-02T09:06:07.016Z</time></trkpt><trkpt lat="43.4408897" lon="12.500932"><ele>796.0</ele><time>2026-05-02T09:06:08.013Z</time></trkpt><trkpt lat="43.4409762" lon="12.5008224"><ele>796.0</ele><time>2026-05-02T09:06:09.03Z</time></trkpt><trkpt lat="43.4410531" lon="12.5007271"><ele>796.0</ele><time>2026-05-02T09:06:10.019Z</time></trkpt><trkpt lat="43.4411191" lon="12.5006232"><ele>796.0</ele><time>2026-05-02T09:06:11.012Z</time></trkpt><trkpt lat="43.4411782" lon="12.5005168"><ele>796.0</ele><time>2026-05-02T09:06:12.016Z</time></trkpt><trkpt lat="43.4412357" lon="12.5004065"><ele>796.0</ele><time>2026-05-02T09:06:13.001Z</time></trkpt><trkpt lat="43.4412919" lon="12.5002985"><ele>793.3333333333333</ele><time>2026-05-02T09:06:14.024Z</time></trkpt><trkpt lat="43.4413473" lon="12.5002219"><ele>790.6666666666666</ele><time>2026-05-02T09:06:15.019Z</time></trkpt><trkpt lat="43.4414054" lon="12.5001732"><ele>788.0</ele><time>2026-05-02T09:06:16.006Z</time></trkpt><trkpt lat="43.4414701" lon="12.5001186"><ele>785.3333333333333</ele><time>2026-05-02T09:06:17.03Z</time></trkpt><trkpt lat="43.4415568" lon="12.500064"><ele>782.6666666666666</ele><time>2026-05-02T09:06:18.025Z</time></trkpt><trkpt lat="43.4416483" lon="12.5000068"><ele>780.0</ele><time>2026-05-02T09:06:19.005Z</time></trkpt><trkpt lat="43.4417419" lon="12.4999506"><ele>780.0</ele><time>2026-05-02T09:06:20.008Z</time></trkpt><trkpt lat="43.4418326" lon="12.4999057"><ele>780.0</ele><time>2026-05-02T09:06:21.012Z</time></trkpt><trkpt lat="43.441916" lon="12.4998541"><ele>780.0</ele><time>2026-05-02T09:06:22.003Z</time></trkpt><trkpt lat="43.4420048" lon="12.4998039"><ele>780.0</ele><time>2026-05-02T09:06:23.006Z</time></trkpt><trkpt lat="43.4420931" lon="12.4997516"><ele>780.0</ele><time>2026-05-02T09:06:24.011Z</time></trkpt><trkpt lat="43.442188" lon="12.4997045"><ele>778.6</ele><time>2026-05-02T09:06:25.018Z</time></trkpt><trkpt lat="43.4422918" lon="12.4996659"><ele>777.2</ele><time>2026-05-02T09:06:25.999Z</time></trkpt><trkpt lat="43.4423885" lon="12.4996551"><ele>775.8</ele><time>2026-05-02T09:06:26.994Z</time></trkpt><trkpt lat="43.4424775" lon="12.4996594"><ele>774.4</ele><time>2026-05-02T09:06:28.013Z</time></trkpt><trkpt lat="43.4425709" lon="12.4996671"><ele>773.0</ele><time>2026-05-02T09:06:29.013Z</time></trkpt><trkpt lat="43.4426816" lon="12.4996927"><ele>773.0</ele><time>2026-05-02T09:06:30.008Z</time></trkpt><trkpt lat="43.4428051" lon="12.4997333"><ele>773.0</ele><time>2026-05-02T09:06:31.011Z</time></trkpt><trkpt lat="43.442923" lon="12.4997724"><ele>773.0</ele><time>2026-05-02T09:06:32.019Z</time></trkpt><trkpt lat="43.443047" lon="12.4998154"><ele>773.0</ele><time>2026-05-02T09:06:33.024Z</time></trkpt><trkpt lat="43.4431608" lon="12.4998575"><ele>771.5999999999999</ele><time>2026-05-02T09:06:34.04Z</time></trkpt><trkpt lat="43.4432671" lon="12.4998981"><ele>770.1999999999999</ele><time>2026-05-02T09:06:35.015Z</time></trkpt><trkpt lat="43.4433618" lon="12.4999324"><ele>768.8</ele><time>2026-05-02T09:06:36.009Z</time></trkpt><trkpt lat="43.4434462" lon="12.4999667"><ele>767.4</ele><time>2026-05-02T09:06:37.005Z</time></trkpt><trkpt lat="43.443517" lon="12.5000116"><ele>766.0</ele><time>2026-05-02T09:06:38.002Z</time></trkpt><trkpt lat="43.443581" lon="12.5000843"><ele>766.0</ele><time>2026-05-02T09:06:39.002Z</time></trkpt><trkpt lat="43.443639" lon="12.5001902"><ele>766.0</ele><time>2026-05-02T09:06:40.003Z</time></trkpt><trkpt lat="43.4436868" lon="12.500268"><ele>766.0</ele><time>2026-05-02T09:06:41.005Z</time></trkpt><trkpt lat="43.4437478" lon="12.5003268"><ele>766.0</ele><time>2026-05-02T09:06:42.008Z</time></trkpt><trkpt lat="43.4438149" lon="12.5003419"><ele>766.0</ele><time>2026-05-02T09:06:43.006Z</time></trkpt><trkpt lat="43.4438882" lon="12.5003524"><ele>766.0</ele><time>2026-05-02T09:06:44.006Z</time></trkpt><trkpt lat="43.4439558" lon="12.5003436"><ele>766.5999999999999</ele><time>2026-05-02T09:06:44.997Z</time></trkpt><trkpt lat="43.4440356" lon="12.5003312"><ele>767.2</ele><time>2026-05-02T09:06:45.998Z</time></trkpt><trkpt lat="43.4441249" lon="12.5003174"><ele>767.8</ele><time>2026-05-02T09:06:47.002Z</time></trkpt><trkpt lat="43.4442052" lon="12.5003057"><ele>768.4000000000001</ele><time>2026-05-02T09:06:48.001Z</time></trkpt><trkpt lat="43.4443052" lon="12.5002983"><ele>769.0</ele><time>2026-05-02T09:06:49.001Z</time></trkpt><trkpt lat="43.4444092" lon="12.5003289"><ele>769.0</ele><time>2026-05-02T09:06:49.995Z</time></trkpt><trkpt lat="43.4444976" lon="12.5003805"><ele>769.0</ele><time>2026-05-02T09:06:50.993Z</time></trkpt><trkpt lat="43.4445643" lon="12.5004505"><ele>769.0</ele><time>2026-05-02T09:06:51.998Z</time></trkpt><trkpt lat="43.4446199" lon="12.5005282"><ele>769.0</ele><time>2026-05-02T09:06:53.005Z</time></trkpt><trkpt lat="43.4446734" lon="12.500584"><ele>769.0</ele><time>2026-05-02T09:06:53.995Z</time></trkpt><trkpt lat="43.444802" lon="12.5005618"><ele>766.7142857142857</ele><time>2026-05-02T09:06:56.006Z</time></trkpt><trkpt lat="43.4448768" lon="12.5004364"><ele>764.4285714285714</ele><time>2026-05-02T09:06:57.999Z</time></trkpt><trkpt lat="43.4449041" lon="12.5003582"><ele>762.1428571428571</ele><time>2026-05-02T09:06:59.015Z</time></trkpt><trkpt lat="43.4449329" lon="12.5002671"><ele>759.8571428571429</ele><time>2026-05-02T09:07:00.002Z</time></trkpt><trkpt lat="43.4449734" lon="12.500198"><ele>757.5714285714287</ele><time>2026-05-02T09:07:01.004Z</time></trkpt><trkpt lat="43.4450268" lon="12.5001426"><ele>755.2857142857143</ele><time>2026-05-02T09:07:02.006Z</time></trkpt><trkpt lat="43.4450915" lon="12.5001444"><ele>753.0</ele><time>2026-05-02T09:07:03.006Z</time></trkpt><trkpt lat="43.4451593" lon="12.5001789"><ele>753.0</ele><time>2026-05-02T09:07:04.012Z</time></trkpt><trkpt lat="43.4452302" lon="12.500239"><ele>753.0</ele><time>2026-05-02T09:07:04.998Z</time></trkpt><trkpt lat="43.4452987" lon="12.5003095"><ele>753.0</ele><time>2026-05-02T09:07:06.01Z</time></trkpt><trkpt lat="43.445367" lon="12.5003703"><ele>753.0</ele><time>2026-05-02T09:07:07.012Z</time></trkpt><trkpt lat="43.4454337" lon="12.5004387"><ele>753.0</ele><time>2026-05-02T09:07:08.014Z</time></trkpt><trkpt lat="43.4455015" lon="12.5005099"><ele>753.0</ele><time>2026-05-02T09:07:09.015Z</time></trkpt><trkpt lat="43.4455734" lon="12.5005728"><ele>748.4</ele><time>2026-05-02T09:07:10.002Z</time></trkpt><trkpt lat="43.445653" lon="12.5006566"><ele>743.8</ele><time>2026-05-02T09:07:11.019Z</time></trkpt><trkpt lat="43.4457169" lon="12.5007452"><ele>739.2</ele><time>2026-05-02T09:07:12.003Z</time></trkpt><trkpt lat="43.4457816" lon="12.5008316"><ele>734.6</ele><time>2026-05-02T09:07:13.006Z</time></trkpt><trkpt lat="43.4458431" lon="12.5009288"><ele>730.0</ele><time>2026-05-02T09:07:14.006Z</time></trkpt><trkpt lat="43.4459019" lon="12.5010346"><ele>730.0</ele><time>2026-05-02T09:07:15.007Z</time></trkpt><trkpt lat="43.4459576" lon="12.5011441"><ele>730.0</ele><time>2026-05-02T09:07:15.991Z</time></trkpt><trkpt lat="43.4460126" lon="12.5012477"><ele>730.0</ele><time>2026-05-02T09:07:17.005Z</time></trkpt><trkpt lat="43.4460615" lon="12.501363"><ele>730.0</ele><time>2026-05-02T09:07:18.014Z</time></trkpt><trkpt lat="43.4461075" lon="12.5014854"><ele>730.0</ele><time>2026-05-02T09:07:19.001Z</time></trkpt><trkpt lat="43.4461504" lon="12.5016062"><ele>730.1666666666667</ele><time>2026-05-02T09:07:19.999Z</time></trkpt><trkpt lat="43.446192" lon="12.501725"><ele>730.3333333333334</ele><time>2026-05-02T09:07:21.002Z</time></trkpt><trkpt lat="43.4462328" lon="12.5018399"><ele>730.5</ele><time>2026-05-02T09:07:21.999Z</time></trkpt><trkpt lat="43.4462762" lon="12.5019432"><ele>730.6666666666666</ele><time>2026-05-02T09:07:23.006Z</time></trkpt><trkpt lat="43.446314" lon="12.5020395"><ele>730.8333333333333</ele><time>2026-05-02T09:07:24.009Z</time></trkpt><trkpt lat="43.4463523" lon="12.502135"><ele>731.0</ele><time>2026-05-02T09:07:25.013Z</time></trkpt><trkpt lat="43.4463971" lon="12.5022198"><ele>727.6666666666666</ele><time>2026-05-02T09:07:26.004Z</time></trkpt><trkpt lat="43.4464445" lon="12.5023041"><ele>724.3333333333333</ele><time>2026-05-02T09:07:27.005Z</time></trkpt><trkpt lat="43.4465008" lon="12.5023838"><ele>721.0</ele><time>2026-05-02T09:07:28.006Z</time></trkpt><trkpt lat="43.4465604" lon="12.5024464"><ele>717.6666666666666</ele><time>2026-05-02T09:07:29.007Z</time></trkpt><trkpt lat="43.4466206" lon="12.5024924"><ele>714.3333333333334</ele><time>2026-05-02T09:07:30.007Z</time></trkpt><trkpt lat="43.4466867" lon="12.5025246"><ele>711.0</ele><time>2026-05-02T09:07:30.999Z</time></trkpt><trkpt lat="43.4467726" lon="12.5025467"><ele>711.0</ele><time>2026-05-02T09:07:32.006Z</time></trkpt><trkpt lat="43.4468724" lon="12.5025778"><ele>711.0</ele><time>2026-05-02T09:07:33.005Z</time></trkpt><trkpt lat="43.4469809" lon="12.5026273"><ele>711.0</ele><time>2026-05-02T09:07:34.008Z</time></trkpt><trkpt lat="43.4471141" lon="12.5026863"><ele>711.0</ele><time>2026-05-02T09:07:35.012Z</time></trkpt><trkpt lat="43.4472546" lon="12.502746"><ele>709.5</ele><time>2026-05-02T09:07:36.009Z</time></trkpt><trkpt lat="43.4473888" lon="12.5028159"><ele>708.0</ele><time>2026-05-02T09:07:37.004Z</time></trkpt><trkpt lat="43.4475067" lon="12.5028873"><ele>706.5</ele><time>2026-05-02T09:07:38.008Z</time></trkpt><trkpt lat="43.4476039" lon="12.5029467"><ele>705.0</ele><time>2026-05-02T09:07:39.009Z</time></trkpt><trkpt lat="43.4476793" lon="12.5029885"><ele>704.9999999999999</ele><time>2026-05-02T09:07:40.008Z</time></trkpt><trkpt lat="43.4477478" lon="12.502998"><ele>705.0</ele><time>2026-05-02T09:07:41.021Z</time></trkpt><trkpt lat="43.4478112" lon="12.5029581"><ele>705.0</ele><time>2026-05-02T09:07:42.007Z</time></trkpt><trkpt lat="43.4478615" lon="12.5028942"><ele>705.0</ele><time>2026-05-02T09:07:43.019Z</time></trkpt><trkpt lat="43.4478924" lon="12.502808"><ele>705.0</ele><time>2026-05-02T09:07:44.008Z</time></trkpt><trkpt lat="43.4478933" lon="12.5027128"><ele>704.9999999999999</ele><time>2026-05-02T09:07:45.016Z</time></trkpt><trkpt lat="43.447884" lon="12.502612"><ele>705.0</ele><time>2026-05-02T09:07:46.006Z</time></trkpt><trkpt lat="43.4478644" lon="12.5024574"><ele>709.6666666666666</ele><time>2026-05-02T09:07:47.002Z</time></trkpt><trkpt lat="43.4478282" lon="12.5022545"><ele>714.3333333333333</ele><time>2026-05-02T09:07:48.005Z</time></trkpt><trkpt lat="43.4477953" lon="12.5020374"><ele>719.0</ele><time>2026-05-02T09:07:48.999Z</time></trkpt><trkpt lat="43.4477554" lon="12.5018212"><ele>719.3333333333333</ele><time>2026-05-02T09:07:50.002Z</time></trkpt><trkpt lat="43.4477041" lon="12.5016049"><ele>719.6666666666666</ele><time>2026-05-02T09:07:51.002Z</time></trkpt><trkpt lat="43.4476512" lon="12.5013895"><ele>720.0</ele><time>2026-05-02T09:07:52.015Z</time></trkpt><trkpt lat="43.4476109" lon="12.5011896"><ele>720.0</ele><time>2026-05-02T09:07:53.009Z</time></trkpt><trkpt lat="43.4475779" lon="12.5009897"><ele>720.0</ele><time>2026-05-02T09:07:54.011Z</time></trkpt><trkpt lat="43.4475533" lon="12.500819"><ele>720.0</ele><time>2026-05-02T09:07:55.007Z</time></trkpt><trkpt lat="43.4475421" lon="12.5006669"><ele>720.0</ele><time>2026-05-02T09:07:55.998Z</time></trkpt><trkpt lat="43.4475435" lon="12.5005343"><ele>719.0</ele><time>2026-05-02T09:07:57.017Z</time></trkpt><trkpt lat="43.4475637" lon="12.5004082"><ele>718.0</ele><time>2026-05-02T09:07:58.005Z</time></trkpt><trkpt lat="43.4476165" lon="12.5002954"><ele>717.0</ele><time>2026-05-02T09:07:59.013Z</time></trkpt><trkpt lat="43.4476908" lon="12.5001762"><ele>716.0</ele><time>2026-05-02T09:08:00.001Z</time></trkpt><trkpt lat="43.4477745" lon="12.5000542"><ele>715.0</ele><time>2026-05-02T09:08:01.002Z</time></trkpt><trkpt lat="43.4478563" lon="12.4999428"><ele>715.0</ele><time>2026-05-02T09:08:02.004Z</time></trkpt><trkpt lat="43.4479445" lon="12.4998508"><ele>715.0</ele><time>2026-05-02T09:08:03.014Z</time></trkpt><trkpt lat="43.448041" lon="12.4997661"><ele>715.0</ele><time>2026-05-02T09:08:04.009Z</time></trkpt><trkpt lat="43.4481447" lon="12.4997001"><ele>715.0</ele><time>2026-05-02T09:08:05.001Z</time></trkpt><trkpt lat="43.4482587" lon="12.4996371"><ele>712.0</ele><time>2026-05-02T09:08:06.007Z</time></trkpt><trkpt lat="43.4483751" lon="12.4995673"><ele>709.0</ele><time>2026-05-02T09:08:07.009Z</time></trkpt><trkpt lat="43.4484891" lon="12.4994958"><ele>706.0</ele><time>2026-05-02T09:08:08.013Z</time></trkpt><trkpt lat="43.448589" lon="12.4994252"><ele>703.0</ele><time>2026-05-02T09:08:09.007Z</time></trkpt><trkpt lat="43.4486706" lon="12.4993482"><ele>703.0</ele><time>2026-05-02T09:08:10.018Z</time></trkpt><trkpt lat="43.448743" lon="12.4992555"><ele>703.0</ele><time>2026-05-02T09:08:11.014Z</time></trkpt><trkpt lat="43.4488065" lon="12.4991497"><ele>703.0</ele><time>2026-05-02T09:08:12.001Z</time></trkpt><trkpt lat="43.4488617" lon="12.4990449"><ele>703.0</ele><time>2026-05-02T09:08:13.005Z</time></trkpt><trkpt lat="43.4489206" lon="12.4989514"><ele>703.0</ele><time>2026-05-02T09:08:14.012Z</time></trkpt><trkpt lat="43.4489977" lon="12.4988871"><ele>702.5</ele><time>2026-05-02T09:08:15Z</time></trkpt><trkpt lat="43.4490882" lon="12.4988479"><ele>702.0</ele><time>2026-05-02T09:08:16.003Z</time></trkpt><trkpt lat="43.4491931" lon="12.4988175"><ele>701.5</ele><time>2026-05-02T09:08:16.995Z</time></trkpt><trkpt lat="43.4493117" lon="12.4988184"><ele>701.0</ele><time>2026-05-02T09:08:18.017Z</time></trkpt><trkpt lat="43.4494495" lon="12.4988197"><ele>701.0</ele><time>2026-05-02T09:08:19.008Z</time></trkpt><trkpt lat="43.4495987" lon="12.498829"><ele>701.0</ele><time>2026-05-02T09:08:20.003Z</time></trkpt><trkpt lat="43.4497688" lon="12.4988379"><ele>701.0</ele><time>2026-05-02T09:08:21.019Z</time></trkpt><trkpt lat="43.4499551" lon="12.4988479"><ele>699.6666666666666</ele><time>2026-05-02T09:08:22.002Z</time></trkpt><trkpt lat="43.4501542" lon="12.4988421"><ele>698.3333333333334</ele><time>2026-05-02T09:08:23.004Z</time></trkpt><trkpt lat="43.4503477" lon="12.4988321"><ele>697.0</ele><time>2026-05-02T09:08:24.015Z</time></trkpt><trkpt lat="43.4505203" lon="12.4988092"><ele>697.0</ele><time>2026-05-02T09:08:25.016Z</time></trkpt><trkpt lat="43.4506968" lon="12.498758"><ele>697.0</ele><time>2026-05-02T09:08:26.014Z</time></trkpt><trkpt lat="43.4508623" lon="12.4986976"><ele>697.0</ele><time>2026-05-02T09:08:27.01Z</time></trkpt><trkpt lat="43.4510066" lon="12.4986269"><ele>697.75</ele><time>2026-05-02T09:08:28.008Z</time></trkpt><trkpt lat="43.451136" lon="12.4985711"><ele>698.5</ele><time>2026-05-02T09:08:29.008Z</time></trkpt><trkpt lat="43.4512619" lon="12.4985251"><ele>699.25</ele><time>2026-05-02T09:08:30.016Z</time></trkpt><trkpt lat="43.4513775" lon="12.4984913"><ele>700.0</ele><time>2026-05-02T09:08:31.023Z</time></trkpt><trkpt lat="43.4514832" lon="12.4984954"><ele>700.0</ele><time>2026-05-02T09:08:32.015Z</time></trkpt><trkpt lat="43.4515792" lon="12.4985302"><ele>700.0</ele><time>2026-05-02T09:08:33.012Z</time></trkpt><trkpt lat="43.4516745" lon="12.4985914"><ele>700.0</ele><time>2026-05-02T09:08:34.013Z</time></trkpt><trkpt lat="43.4517638" lon="12.4986832"><ele>700.0</ele><time>2026-05-02T09:08:35.012Z</time></trkpt><trkpt lat="43.4518471" lon="12.4987971"><ele>700.0</ele><time>2026-05-02T09:08:36.009Z</time></trkpt><trkpt lat="43.4519154" lon="12.4989314"><ele>700.0</ele><time>2026-05-02T09:08:37.01Z</time></trkpt><trkpt lat="43.4519735" lon="12.4990817"><ele>700.0</ele><time>2026-05-02T09:08:38.006Z</time></trkpt><trkpt lat="43.4520243" lon="12.4992311"><ele>700.0</ele><time>2026-05-02T09:08:39.023Z</time></trkpt><trkpt lat="43.4520837" lon="12.4993554"><ele>700.0</ele><time>2026-05-02T09:08:40.038Z</time></trkpt><trkpt lat="43.4521656" lon="12.4994595"><ele>700.0</ele><time>2026-05-02T09:08:41.018Z</time></trkpt><trkpt lat="43.4522624" lon="12.499549"><ele>700.0</ele><time>2026-05-02T09:08:42.008Z</time></trkpt><trkpt lat="43.4523778" lon="12.4996294"><ele>700.0</ele><time>2026-05-02T09:08:43.015Z</time></trkpt><trkpt lat="43.4525089" lon="12.4997005"><ele>700.0</ele><time>2026-05-02T09:08:44.008Z</time></trkpt><trkpt lat="43.4526267" lon="12.499758"><ele>700.0</ele><time>2026-05-02T09:08:45.01Z</time></trkpt><trkpt lat="43.452723" lon="12.4997895"><ele>700.0</ele><time>2026-05-02T09:08:46.011Z</time></trkpt><trkpt lat="43.4528073" lon="12.499786"><ele>700.0</ele><time>2026-05-02T09:08:47.013Z</time></trkpt><trkpt lat="43.4528909" lon="12.4997501"><ele>700.0</ele><time>2026-05-02T09:08:48.018Z</time></trkpt><trkpt lat="43.4529535" lon="12.4996899"><ele>700.0</ele><time>2026-05-02T09:08:49.008Z</time></trkpt><trkpt lat="43.4530069" lon="12.4996038"><ele>700.0</ele><time>2026-05-02T09:08:50.013Z</time></trkpt><trkpt lat="43.4530446" lon="12.4995055"><ele>703.0</ele><time>2026-05-02T09:08:51.004Z</time></trkpt><trkpt lat="43.4530702" lon="12.4993858"><ele>706.0</ele><time>2026-05-02T09:08:52.006Z</time></trkpt><trkpt lat="43.4531031" lon="12.4992328"><ele>709.0</ele><time>2026-05-02T09:08:53.011Z</time></trkpt><trkpt lat="43.4531437" lon="12.4990804"><ele>712.0</ele><time>2026-05-02T09:08:54.007Z</time></trkpt><trkpt lat="43.4532089" lon="12.4989368"><ele>715.0</ele><time>2026-05-02T09:08:55.015Z</time></trkpt><trkpt lat="43.4532836" lon="12.4988218"><ele>715.0</ele><time>2026-05-02T09:08:56.016Z</time></trkpt><trkpt lat="43.4533626" lon="12.4987479"><ele>715.0</ele><time>2026-05-02T09:08:57.01Z</time></trkpt><trkpt lat="43.4534404" lon="12.4987092"><ele>715.0</ele><time>2026-05-02T09:08:58.014Z</time></trkpt><trkpt lat="43.4535242" lon="12.4987111"><ele>715.0</ele><time>2026-05-02T09:08:59.01Z</time></trkpt><trkpt lat="43.4536231" lon="12.4987245"><ele>715.0</ele><time>2026-05-02T09:09:00.009Z</time></trkpt><trkpt lat="43.453723" lon="12.4987618"><ele>718.0</ele><time>2026-05-02T09:09:01.008Z</time></trkpt><trkpt lat="43.453826" lon="12.498823"><ele>721.0</ele><time>2026-05-02T09:09:02.01Z</time></trkpt><trkpt lat="43.4539281" lon="12.498887"><ele>724.0</ele><time>2026-05-02T09:09:03.008Z</time></trkpt><trkpt lat="43.4540395" lon="12.4989696"><ele>727.0</ele><time>2026-05-02T09:09:04.013Z</time></trkpt><trkpt lat="43.4541354" lon="12.4990706"><ele>727.0</ele><time>2026-05-02T09:09:05.003Z</time></trkpt><trkpt lat="43.454225" lon="12.4991883"><ele>727.0</ele><time>2026-05-02T09:09:06.006Z</time></trkpt><trkpt lat="43.4543064" lon="12.4992746"><ele>727.0</ele><time>2026-05-02T09:09:07.009Z</time></trkpt><trkpt lat="43.4543784" lon="12.4993296"><ele>727.0</ele><time>2026-05-02T09:09:08.012Z</time></trkpt><trkpt lat="43.454464" lon="12.4993533"><ele>727.0</ele><time>2026-05-02T09:09:09.011Z</time></trkpt><trkpt lat="43.4545337" lon="12.4993415"><ele>727.0</ele><time>2026-05-02T09:09:10Z</time></trkpt><trkpt lat="43.4546039" lon="12.4992941"><ele>727.0</ele><time>2026-05-02T09:09:11.003Z</time></trkpt><trkpt lat="43.4546672" lon="12.4992438"><ele>727.0</ele><time>2026-05-02T09:09:12.005Z</time></trkpt><trkpt lat="43.4547344" lon="12.4992022"><ele>727.0</ele><time>2026-05-02T09:09:13.006Z</time></trkpt><trkpt lat="43.4548015" lon="12.4991866"><ele>727.0</ele><time>2026-05-02T09:09:14.009Z</time></trkpt><trkpt lat="43.4548966" lon="12.4992187"><ele>727.0</ele><time>2026-05-02T09:09:14.999Z</time></trkpt><trkpt lat="43.4550008" lon="12.4992844"><ele>726.25</ele><time>2026-05-02T09:09:16.006Z</time></trkpt><trkpt lat="43.4550976" lon="12.4993948"><ele>725.5</ele><time>2026-05-02T09:09:17.006Z</time></trkpt><trkpt lat="43.4552119" lon="12.4994955"><ele>724.75</ele><time>2026-05-02T09:09:18.002Z</time></trkpt><trkpt lat="43.4553071" lon="12.4995792"><ele>724.0</ele><time>2026-05-02T09:09:19.01Z</time></trkpt><trkpt lat="43.4553836" lon="12.4996303"><ele>728.2</ele><time>2026-05-02T09:09:20.012Z</time></trkpt><trkpt lat="43.4554655" lon="12.4996624"><ele>732.4000000000001</ele><time>2026-05-02T09:09:21.008Z</time></trkpt><trkpt lat="43.4555541" lon="12.4996748"><ele>736.6</ele><time>2026-05-02T09:09:22.009Z</time></trkpt><trkpt lat="43.4556551" lon="12.4996636"><ele>740.8</ele><time>2026-05-02T09:09:23.013Z</time></trkpt><trkpt lat="43.455754" lon="12.4996455"><ele>745.0</ele><time>2026-05-02T09:09:24.012Z</time></trkpt><trkpt lat="43.4558514" lon="12.4996324"><ele>745.0</ele><time>2026-05-02T09:09:25.006Z</time></trkpt><trkpt lat="43.4559268" lon="12.499647"><ele>745.0</ele><time>2026-05-02T09:09:26.011Z</time></trkpt><trkpt lat="43.45599" lon="12.4997118"><ele>745.0</ele><time>2026-05-02T09:09:27.006Z</time></trkpt><trkpt lat="43.4560556" lon="12.4997908"><ele>745.0</ele><time>2026-05-02T09:09:28.014Z</time></trkpt><trkpt lat="43.4560991" lon="12.4998858"><ele>745.0</ele><time>2026-05-02T09:09:29.024Z</time></trkpt><trkpt lat="43.456141" lon="12.499976"><ele>745.0</ele><time>2026-05-02T09:09:30.016Z</time></trkpt><trkpt lat="43.4561902" lon="12.5000467"><ele>745.0</ele><time>2026-05-02T09:09:31.03Z</time></trkpt><trkpt lat="43.4562489" lon="12.5001054"><ele>745.0</ele><time>2026-05-02T09:09:32.016Z</time></trkpt><trkpt lat="43.4563294" lon="12.5001543"><ele>745.0</ele><time>2026-05-02T09:09:33.006Z</time></trkpt><trkpt lat="43.4564233" lon="12.5002043"><ele>745.0</ele><time>2026-05-02T09:09:34.015Z</time></trkpt><trkpt lat="43.456513" lon="12.50024"><ele>745.0</ele><time>2026-05-02T09:09:35.025Z</time></trkpt><trkpt lat="43.4566016" lon="12.5002646"><ele>745.0</ele><time>2026-05-02T09:09:36.014Z</time></trkpt><trkpt lat="43.4566881" lon="12.5002844"><ele>749.0</ele><time>2026-05-02T09:09:37.008Z</time></trkpt><trkpt lat="43.4567848" lon="12.5002866"><ele>753.0</ele><time>2026-05-02T09:09:38.007Z</time></trkpt><trkpt lat="43.4568863" lon="12.500284"><ele>757.0</ele><time>2026-05-02T09:09:38.999Z</time></trkpt><trkpt lat="43.4569884" lon="12.5003042"><ele>761.0</ele><time>2026-05-02T09:09:40.009Z</time></trkpt><trkpt lat="43.4570681" lon="12.50035"><ele>765.0</ele><time>2026-05-02T09:09:41.005Z</time></trkpt><trkpt lat="43.4571429" lon="12.5004375"><ele>765.0</ele><time>2026-05-02T09:09:42.009Z</time></trkpt><trkpt lat="43.4572044" lon="12.5005413"><ele>765.0</ele><time>2026-05-02T09:09:43.003Z</time></trkpt><trkpt lat="43.4572737" lon="12.5006608"><ele>765.0</ele><time>2026-05-02T09:09:44.006Z</time></trkpt><trkpt lat="43.457337" lon="12.500782"><ele>765.0</ele><time>2026-05-02T09:09:45.012Z</time></trkpt><trkpt lat="43.4574087" lon="12.5009265"><ele>765.0</ele><time>2026-05-02T09:09:45.999Z</time></trkpt><trkpt lat="43.4574583" lon="12.5010775"><ele>765.0</ele><time>2026-05-02T09:09:47Z</time></trkpt><trkpt lat="43.4574741" lon="12.5012389"><ele>765.0</ele><time>2026-05-02T09:09:48.011Z</time></trkpt><trkpt lat="43.4574667" lon="12.5013901"><ele>765.0</ele><time>2026-05-02T09:09:49.001Z</time></trkpt><trkpt lat="43.4574475" lon="12.501515"><ele>765.0</ele><time>2026-05-02T09:09:50.016Z</time></trkpt><trkpt lat="43.4574326" lon="12.5016227"><ele>765.0</ele><time>2026-05-02T09:09:51.023Z</time></trkpt><trkpt lat="43.4574402" lon="12.5017327"><ele>763.1666666666666</ele><time>2026-05-02T09:09:51.999Z</time></trkpt><trkpt lat="43.4574688" lon="12.5018226"><ele>761.3333333333334</ele><time>2026-05-02T09:09:53.005Z</time></trkpt><trkpt lat="43.4575055" lon="12.501895"><ele>759.5</ele><time>2026-05-02T09:09:54.024Z</time></trkpt><trkpt lat="43.4575722" lon="12.501929"><ele>757.6666666666667</ele><time>2026-05-02T09:09:55.014Z</time></trkpt><trkpt lat="43.4576537" lon="12.501961"><ele>755.8333333333334</ele><time>2026-05-02T09:09:56.002Z</time></trkpt><trkpt lat="43.4577515" lon="12.5019963"><ele>754.0</ele><time>2026-05-02T09:09:57.013Z</time></trkpt><trkpt lat="43.457861" lon="12.5020532"><ele>754.0</ele><time>2026-05-02T09:09:58.011Z</time></trkpt><trkpt lat="43.4579664" lon="12.5021257"><ele>754.0</ele><time>2026-05-02T09:09:59.013Z</time></trkpt><trkpt lat="43.4580501" lon="12.5022034"><ele>754.0</ele><time>2026-05-02T09:10:00.012Z</time></trkpt><trkpt lat="43.4581222" lon="12.5022807"><ele>754.0</ele><time>2026-05-02T09:10:01.011Z</time></trkpt><trkpt lat="43.4581952" lon="12.5023438"><ele>754.0</ele><time>2026-05-02T09:10:02.01Z</time></trkpt><trkpt lat="43.4582741" lon="12.5023953"><ele>754.0</ele><time>2026-05-02T09:10:03.02Z</time></trkpt><trkpt lat="43.4583615" lon="12.5024275"><ele>754.0</ele><time>2026-05-02T09:10:04.019Z</time></trkpt><trkpt lat="43.4584555" lon="12.5024239"><ele>754.0</ele><time>2026-05-02T09:10:05.012Z</time></trkpt><trkpt lat="43.4585521" lon="12.5023874"><ele>754.0</ele><time>2026-05-02T09:10:06.017Z</time></trkpt><trkpt lat="43.4586384" lon="12.5023461"><ele>754.0</ele><time>2026-05-02T09:10:07.015Z</time></trkpt><trkpt lat="43.4587209" lon="12.5023032"><ele>754.2</ele><time>2026-05-02T09:10:08.021Z</time></trkpt><trkpt lat="43.458797" lon="12.5022442"><ele>754.4000000000001</ele><time>2026-05-02T09:10:09.014Z</time></trkpt><trkpt lat="43.4588657" lon="12.5021579"><ele>754.6</ele><time>2026-05-02T09:10:10.017Z</time></trkpt><trkpt lat="43.4589317" lon="12.5020268"><ele>754.8</ele><time>2026-05-02T09:10:11.016Z</time></trkpt><trkpt lat="43.4589904" lon="12.5018843"><ele>755.0</ele><time>2026-05-02T09:10:12.016Z</time></trkpt><trkpt lat="43.4590536" lon="12.5017473"><ele>755.0</ele><time>2026-05-02T09:10:13.015Z</time></trkpt><trkpt lat="43.4591184" lon="12.5016286"><ele>755.0</ele><time>2026-05-02T09:10:14.009Z</time></trkpt><trkpt lat="43.4591967" lon="12.50152"><ele>755.0</ele><time>2026-05-02T09:10:14.996Z</time></trkpt><trkpt lat="43.4592898" lon="12.5014299"><ele>755.0</ele><time>2026-05-02T09:10:16.009Z</time></trkpt><trkpt lat="43.4593935" lon="12.5013411"><ele>754.0</ele><time>2026-05-02T09:10:17.026Z</time></trkpt><trkpt lat="43.4595113" lon="12.5012437"><ele>753.0</ele><time>2026-05-02T09:10:17.995Z</time></trkpt><trkpt lat="43.459633" lon="12.5011502"><ele>752.0</ele><time>2026-05-02T09:10:19.017Z</time></trkpt><trkpt lat="43.4597552" lon="12.5010505"><ele>751.0</ele><time>2026-05-02T09:10:20.028Z</time></trkpt><trkpt lat="43.4598619" lon="12.5009569"><ele>751.0</ele><time>2026-05-02T09:10:21.019Z</time></trkpt><trkpt lat="43.4599567" lon="12.5008686"><ele>751.0</ele><time>2026-05-02T09:10:22.004Z</time></trkpt><trkpt lat="43.4600586" lon="12.5008036"><ele>751.0</ele><time>2026-05-02T09:10:23.024Z</time></trkpt><trkpt lat="43.4601715" lon="12.5007593"><ele>751.0</ele><time>2026-05-02T09:10:24.016Z</time></trkpt><trkpt lat="43.4602948" lon="12.5007252"><ele>751.0</ele><time>2026-05-02T09:10:25.007Z</time></trkpt><trkpt lat="43.4604218" lon="12.5007134"><ele>751.0</ele><time>2026-05-02T09:10:26.012Z</time></trkpt><trkpt lat="43.460551" lon="12.5007191"><ele>751.0</ele><time>2026-05-02T09:10:27.008Z</time></trkpt><trkpt lat="43.4606868" lon="12.5007457"><ele>751.0</ele><time>2026-05-02T09:10:28.015Z</time></trkpt><trkpt lat="43.460808" lon="12.5007992"><ele>752.25</ele><time>2026-05-02T09:10:29.017Z</time></trkpt><trkpt lat="43.460918" lon="12.500872"><ele>753.5</ele><time>2026-05-02T09:10:30.009Z</time></trkpt><trkpt lat="43.4610114" lon="12.5009841"><ele>754.75</ele><time>2026-05-02T09:10:31.011Z</time></trkpt><trkpt lat="43.4610936" lon="12.501102"><ele>756.0</ele><time>2026-05-02T09:10:32.004Z</time></trkpt><trkpt lat="43.4611684" lon="12.5011985"><ele>753.0</ele><time>2026-05-02T09:10:33.007Z</time></trkpt><trkpt lat="43.4612512" lon="12.5012789"><ele>750.0</ele><time>2026-05-02T09:10:34.013Z</time></trkpt><trkpt lat="43.4613484" lon="12.5013534"><ele>747.0</ele><time>2026-05-02T09:10:35.007Z</time></trkpt><trkpt lat="43.46147" lon="12.5014176"><ele>744.0</ele><time>2026-05-02T09:10:36.008Z</time></trkpt><trkpt lat="43.4615987" lon="12.501471"><ele>744.0</ele><time>2026-05-02T09:10:37.008Z</time></trkpt><trkpt lat="43.461725" lon="12.5015183"><ele>744.0</ele><time>2026-05-02T09:10:38.006Z</time></trkpt><trkpt lat="43.4618402" lon="12.501585"><ele>744.0</ele><time>2026-05-02T09:10:39.004Z</time></trkpt><trkpt lat="43.4619596" lon="12.5016837"><ele>744.0</ele><time>2026-05-02T09:10:40.019Z</time></trkpt><trkpt lat="43.4620663" lon="12.5017971"><ele>746.0</ele><time>2026-05-02T09:10:41.015Z</time></trkpt><trkpt lat="43.4621501" lon="12.5019261"><ele>748.0</ele><time>2026-05-02T09:10:42.014Z</time></trkpt><trkpt lat="43.4622258" lon="12.5020704"><ele>750.0</ele><time>2026-05-02T09:10:43.001Z</time></trkpt><trkpt lat="43.4622763" lon="12.5022212"><ele>752.0</ele><time>2026-05-02T09:10:44.01Z</time></trkpt><trkpt lat="43.4623159" lon="12.5023641"><ele>752.0</ele><time>2026-05-02T09:10:45.011Z</time></trkpt><trkpt lat="43.4623631" lon="12.5025004"><ele>752.0</ele><time>2026-05-02T09:10:46.017Z</time></trkpt><trkpt lat="43.4624254" lon="12.5026301"><ele>752.0</ele><time>2026-05-02T09:10:47.007Z</time></trkpt><trkpt lat="43.4625116" lon="12.5027577"><ele>752.0</ele><time>2026-05-02T09:10:48.014Z</time></trkpt><trkpt lat="43.4626004" lon="12.5028863"><ele>751.6</ele><time>2026-05-02T09:10:49.016Z</time></trkpt><trkpt lat="43.462684" lon="12.5029967"><ele>751.2</ele><time>2026-05-02T09:10:50.009Z</time></trkpt><trkpt lat="43.4627592" lon="12.5030903"><ele>750.8</ele><time>2026-05-02T09:10:51.011Z</time></trkpt><trkpt lat="43.4628506" lon="12.5031555"><ele>750.4</ele><time>2026-05-02T09:10:52.008Z</time></trkpt><trkpt lat="43.4629638" lon="12.5032135"><ele>750.0</ele><time>2026-05-02T09:10:53.007Z</time></trkpt><trkpt lat="43.4630947" lon="12.5032679"><ele>750.0</ele><time>2026-05-02T09:10:54.014Z</time></trkpt><trkpt lat="43.4632324" lon="12.5033415"><ele>750.0</ele><time>2026-05-02T09:10:55.01Z</time></trkpt><trkpt lat="43.4633627" lon="12.5034474"><ele>750.0</ele><time>2026-05-02T09:10:56.015Z</time></trkpt><trkpt lat="43.4634898" lon="12.5035648"><ele>750.0</ele><time>2026-05-02T09:10:57.015Z</time></trkpt><trkpt lat="43.4636215" lon="12.5036879"><ele>750.0</ele><time>2026-05-02T09:10:58.017Z</time></trkpt><trkpt lat="43.4637476" lon="12.503805"><ele>750.0</ele><time>2026-05-02T09:10:59.017Z</time></trkpt><trkpt lat="43.4638703" lon="12.5039136"><ele>749.75</ele><time>2026-05-02T09:11:00.013Z</time></trkpt><trkpt lat="43.4639891" lon="12.5040038"><ele>749.5</ele><time>2026-05-02T09:11:01.012Z</time></trkpt><trkpt lat="43.4641043" lon="12.5040921"><ele>749.25</ele><time>2026-05-02T09:11:02.005Z</time></trkpt><trkpt lat="43.4642056" lon="12.5041907"><ele>749.0</ele><time>2026-05-02T09:11:03.001Z</time></trkpt><trkpt lat="43.4642873" lon="12.5043143"><ele>749.0</ele><time>2026-05-02T09:11:04.015Z</time></trkpt><trkpt lat="43.4643579" lon="12.5044309"><ele>749.0</ele><time>2026-05-02T09:11:05.009Z</time></trkpt><trkpt lat="43.4644234" lon="12.5045464"><ele>749.0</ele><time>2026-05-02T09:11:06.01Z</time></trkpt><trkpt lat="43.4644994" lon="12.5046411"><ele>749.0</ele><time>2026-05-02T09:11:07.012Z</time></trkpt><trkpt lat="43.4645808" lon="12.5047101"><ele>749.0</ele><time>2026-05-02T09:11:08.011Z</time></trkpt><trkpt lat="43.4646509" lon="12.5047603"><ele>749.0</ele><time>2026-05-02T09:11:09.01Z</time></trkpt><trkpt lat="43.4647149" lon="12.5047975"><ele>749.0</ele><time>2026-05-02T09:11:10.01Z</time></trkpt><trkpt lat="43.4647954" lon="12.5048323"><ele>749.0</ele><time>2026-05-02T09:11:11.012Z</time></trkpt><trkpt lat="43.4648808" lon="12.5048546"><ele>749.0</ele><time>2026-05-02T09:11:12.019Z</time></trkpt><trkpt lat="43.4649556" lon="12.5048781"><ele>749.0</ele><time>2026-05-02T09:11:13.011Z</time></trkpt><trkpt lat="43.4650384" lon="12.5049035"><ele>749.0</ele><time>2026-05-02T09:11:14.016Z</time></trkpt><trkpt lat="43.4651235" lon="12.504923"><ele>749.0</ele><time>2026-05-02T09:11:15.012Z</time></trkpt><trkpt lat="43.4651965" lon="12.5049457"><ele>749.0</ele><time>2026-05-02T09:11:16.009Z</time></trkpt><trkpt lat="43.4652675" lon="12.5049611"><ele>749.0</ele><time>2026-05-02T09:11:17.004Z</time></trkpt><trkpt lat="43.4653357" lon="12.5049759"><ele>749.0</ele><time>2026-05-02T09:11:18.007Z</time></trkpt><trkpt lat="43.4654034" lon="12.5049868"><ele>749.0</ele><time>2026-05-02T09:11:19.011Z</time></trkpt><trkpt lat="43.4655103" lon="12.5049991"><ele>749.0</ele><time>2026-05-02T09:11:21.021Z</time></trkpt><trkpt lat="43.4655841" lon="12.5050093"><ele>748.4000000000001</ele><time>2026-05-02T09:11:23.014Z</time></trkpt><trkpt lat="43.4657114" lon="12.5050007"><ele>747.8</ele><time>2026-05-02T09:12:38.014Z</time></trkpt><trkpt lat="43.4658001" lon="12.5049937"><ele>747.2</ele><time>2026-05-02T09:12:39.009Z</time></trkpt><trkpt lat="43.465909" lon="12.5049914"><ele>746.5999999999999</ele><time>2026-05-02T09:12:40.009Z</time></trkpt><trkpt lat="43.4660324" lon="12.5049933"><ele>746.0</ele><time>2026-05-02T09:12:41.011Z</time></trkpt><trkpt lat="43.4661626" lon="12.5049947"><ele>746.5</ele><time>2026-05-02T09:12:42.011Z</time></trkpt><trkpt lat="43.4662955" lon="12.5049957"><ele>747.0</ele><time>2026-05-02T09:12:43.017Z</time></trkpt><trkpt lat="43.4664234" lon="12.504993"><ele>747.5</ele><time>2026-05-02T09:12:44.015Z</time></trkpt><trkpt lat="43.4665516" lon="12.504988"><ele>748.0</ele><time>2026-05-02T09:12:45.01Z</time></trkpt><trkpt lat="43.4666919" lon="12.504981"><ele>748.0</ele><time>2026-05-02T09:12:46.012Z</time></trkpt><trkpt lat="43.4668426" lon="12.5049514"><ele>748.0</ele><time>2026-05-02T09:12:47.011Z</time></trkpt><trkpt lat="43.466999" lon="12.504913"><ele>748.0</ele><time>2026-05-02T09:12:48.013Z</time></trkpt><trkpt lat="43.4671501" lon="12.5048751"><ele>748.25</ele><time>2026-05-02T09:12:49.019Z</time></trkpt><trkpt lat="43.4672917" lon="12.5048427"><ele>748.5</ele><time>2026-05-02T09:12:50.027Z</time></trkpt><trkpt lat="43.4674281" lon="12.5048214"><ele>748.75</ele><time>2026-05-02T09:12:51.019Z</time></trkpt><trkpt lat="43.4675742" lon="12.5048135"><ele>749.0</ele><time>2026-05-02T09:12:52.016Z</time></trkpt><trkpt lat="43.4677153" lon="12.5048257"><ele>749.0</ele><time>2026-05-02T09:12:53.01Z</time></trkpt><trkpt lat="43.4678484" lon="12.504842"><ele>749.0</ele><time>2026-05-02T09:12:54.018Z</time></trkpt><trkpt lat="43.4679625" lon="12.5048702"><ele>749.0</ele><time>2026-05-02T09:12:55.024Z</time></trkpt><trkpt lat="43.468072" lon="12.5049141"><ele>749.0</ele><time>2026-05-02T09:12:56.014Z</time></trkpt><trkpt lat="43.4681717" lon="12.504983"><ele>749.4000000000001</ele><time>2026-05-02T09:12:57.017Z</time></trkpt><trkpt lat="43.4682553" lon="12.5050646"><ele>749.8</ele><time>2026-05-02T09:12:58.022Z</time></trkpt><trkpt lat="43.4683348" lon="12.5051666"><ele>750.2</ele><time>2026-05-02T09:12:59.014Z</time></trkpt><trkpt lat="43.4684231" lon="12.5052698"><ele>750.5999999999999</ele><time>2026-05-02T09:13:00.018Z</time></trkpt><trkpt lat="43.4685097" lon="12.5053703"><ele>751.0</ele><time>2026-05-02T09:13:01.015Z</time></trkpt><trkpt lat="43.4686028" lon="12.5054631"><ele>752.5</ele><time>2026-05-02T09:13:02.016Z</time></trkpt><trkpt lat="43.4687126" lon="12.5055538"><ele>754.0</ele><time>2026-05-02T09:13:03.026Z</time></trkpt><trkpt lat="43.4688455" lon="12.5056387"><ele>755.5</ele><time>2026-05-02T09:13:04.011Z</time></trkpt><trkpt lat="43.4689835" lon="12.50571"><ele>757.0</ele><time>2026-05-02T09:13:05.014Z</time></trkpt><trkpt lat="43.4691299" lon="12.5057762"><ele>757.5</ele><time>2026-05-02T09:13:06.02Z</time></trkpt><trkpt lat="43.4692756" lon="12.5058383"><ele>758.0</ele><time>2026-05-02T09:13:07.015Z</time></trkpt><trkpt lat="43.4694125" lon="12.5058984"><ele>758.5</ele><time>2026-05-02T09:13:08.008Z</time></trkpt><trkpt lat="43.4695295" lon="12.5059522"><ele>759.0</ele><time>2026-05-02T09:13:09.012Z</time></trkpt><trkpt lat="43.4696474" lon="12.5059991"><ele>756.0</ele><time>2026-05-02T09:13:10.012Z</time></trkpt><trkpt lat="43.4697619" lon="12.5060449"><ele>753.0</ele><time>2026-05-02T09:13:11.015Z</time></trkpt><trkpt lat="43.4698682" lon="12.5060801"><ele>750.0</ele><time>2026-05-02T09:13:12.018Z</time></trkpt><trkpt lat="43.4699575" lon="12.506109"><ele>747.0</ele><time>2026-05-02T09:13:13.013Z</time></trkpt><trkpt lat="43.4700414" lon="12.5061434"><ele>744.0</ele><time>2026-05-02T09:13:14.01Z</time></trkpt><trkpt lat="43.4701015" lon="12.5061754"><ele>744.8571428571429</ele><time>2026-05-02T09:13:15.017Z</time></trkpt><trkpt lat="43.470153" lon="12.5062486"><ele>745.7142857142858</ele><time>2026-05-02T09:13:18.015Z</time></trkpt><trkpt lat="43.4701829" lon="12.5063658"><ele>746.5714285714287</ele><time>2026-05-02T09:13:21.011Z</time></trkpt><trkpt lat="43.4701904" lon="12.5064558"><ele>747.4285714285714</ele><time>2026-05-02T09:13:22.025Z</time></trkpt><trkpt lat="43.4702243" lon="12.5065387"><ele>748.2857142857142</ele><time>2026-05-02T09:13:23.011Z</time></trkpt><trkpt lat="43.4702754" lon="12.5066079"><ele>749.1428571428572</ele><time>2026-05-02T09:13:24.01Z</time></trkpt><trkpt lat="43.4703427" lon="12.5066635"><ele>750.0</ele><time>2026-05-02T09:13:25.009Z</time></trkpt><trkpt lat="43.4704331" lon="12.5067142"><ele>748.0</ele><time>2026-05-02T09:13:26.003Z</time></trkpt><trkpt lat="43.4705364" lon="12.5067552"><ele>746.0</ele><time>2026-05-02T09:13:27.013Z</time></trkpt><trkpt lat="43.4706397" lon="12.5067982"><ele>744.0</ele><time>2026-05-02T09:13:28.009Z</time></trkpt><trkpt lat="43.4707283" lon="12.5068462"><ele>742.0</ele><time>2026-05-02T09:13:29.005Z</time></trkpt><trkpt lat="43.4708138" lon="12.5068692"><ele>740.0</ele><time>2026-05-02T09:13:30.009Z</time></trkpt><trkpt lat="43.4709043" lon="12.5068686"><ele>740.0</ele><time>2026-05-02T09:13:31.009Z</time></trkpt><trkpt lat="43.4709993" lon="12.5068322"><ele>740.0</ele><time>2026-05-02T09:13:32.01Z</time></trkpt><trkpt lat="43.4710843" lon="12.5067803"><ele>740.0</ele><time>2026-05-02T09:13:33.011Z</time></trkpt><trkpt lat="43.4711814" lon="12.5067153"><ele>740.0</ele><time>2026-05-02T09:13:34.016Z</time></trkpt><trkpt lat="43.4712836" lon="12.5066387"><ele>740.0</ele><time>2026-05-02T09:13:35.01Z</time></trkpt><trkpt lat="43.4713788" lon="12.5065552"><ele>740.0</ele><time>2026-05-02T09:13:36.008Z</time></trkpt><trkpt lat="43.47146" lon="12.5064543"><ele>740.0</ele><time>2026-05-02T09:13:37.003Z</time></trkpt><trkpt lat="43.4715331" lon="12.5063306"><ele>740.0</ele><time>2026-05-02T09:13:38.013Z</time></trkpt><trkpt lat="43.4716031" lon="12.5061785"><ele>740.0</ele><time>2026-05-02T09:13:39.003Z</time></trkpt><trkpt lat="43.4716757" lon="12.5060181"><ele>737.6666666666666</ele><time>2026-05-02T09:13:40.014Z</time></trkpt><trkpt lat="43.4717542" lon="12.5058363"><ele>735.3333333333334</ele><time>2026-05-02T09:13:41.012Z</time></trkpt><trkpt lat="43.4718462" lon="12.5056322"><ele>733.0</ele><time>2026-05-02T09:13:42.017Z</time></trkpt><trkpt lat="43.4719474" lon="12.5054215"><ele>729.3333333333334</ele><time>2026-05-02T09:13:43.014Z</time></trkpt><trkpt lat="43.4720501" lon="12.5052143"><ele>725.6666666666666</ele><time>2026-05-02T09:13:44.015Z</time></trkpt><trkpt lat="43.4721482" lon="12.5050105"><ele>722.0</ele><time>2026-05-02T09:13:45.015Z</time></trkpt><trkpt lat="43.4722276" lon="12.5048323"><ele>722.0</ele><time>2026-05-02T09:13:46.024Z</time></trkpt><trkpt lat="43.4722916" lon="12.504694"><ele>722.0</ele><time>2026-05-02T09:13:47.02Z</time></trkpt><trkpt lat="43.4723556" lon="12.5045808"><ele>722.0</ele><time>2026-05-02T09:13:48.007Z</time></trkpt><trkpt lat="43.4724337" lon="12.5045012"><ele>722.0</ele><time>2026-05-02T09:13:49.007Z</time></trkpt><trkpt lat="43.4725136" lon="12.5044364"><ele>722.0</ele><time>2026-05-02T09:13:50.014Z</time></trkpt><trkpt lat="43.472617" lon="12.5043992"><ele>721.75</ele><time>2026-05-02T09:13:51.031Z</time></trkpt><trkpt lat="43.4727283" lon="12.5043746"><ele>721.5</ele><time>2026-05-02T09:13:52.015Z</time></trkpt><trkpt lat="43.4728387" lon="12.5043761"><ele>721.25</ele><time>2026-05-02T09:13:53.007Z</time></trkpt><trkpt lat="43.4729634" lon="12.5043939"><ele>721.0</ele><time>2026-05-02T09:13:54.014Z</time></trkpt><trkpt lat="43.4730822" lon="12.5044277"><ele>721.0</ele><time>2026-05-02T09:13:55.015Z</time></trkpt><trkpt lat="43.4731965" lon="12.5044638"><ele>721.0</ele><time>2026-05-02T09:13:56.017Z</time></trkpt><trkpt lat="43.4733066" lon="12.5044895"><ele>721.0</ele><time>2026-05-02T09:13:57.015Z</time></trkpt><trkpt lat="43.4734156" lon="12.5045113"><ele>721.0</ele><time>2026-05-02T09:13:58.013Z</time></trkpt><trkpt lat="43.4735331" lon="12.5045271"><ele>721.0</ele><time>2026-05-02T09:13:59.014Z</time></trkpt><trkpt lat="43.4736597" lon="12.5045378"><ele>721.0</ele><time>2026-05-02T09:14:00.028Z</time></trkpt><trkpt lat="43.4737947" lon="12.5045456"><ele>721.0</ele><time>2026-05-02T09:14:01.02Z</time></trkpt><trkpt lat="43.4739382" lon="12.5045423"><ele>721.0</ele><time>2026-05-02T09:14:02.01Z</time></trkpt><trkpt lat="43.4740764" lon="12.5045469"><ele>717.25</ele><time>2026-05-02T09:14:03.019Z</time></trkpt><trkpt lat="43.4742013" lon="12.5045546"><ele>713.5</ele><time>2026-05-02T09:14:04.02Z</time></trkpt><trkpt lat="43.4743157" lon="12.5045641"><ele>709.75</ele><time>2026-05-02T09:14:05.025Z</time></trkpt><trkpt lat="43.4744332" lon="12.5045588"><ele>706.0</ele><time>2026-05-02T09:14:06.008Z</time></trkpt><trkpt lat="43.4745435" lon="12.5045335"><ele>708.5</ele><time>2026-05-02T09:14:07.021Z</time></trkpt><trkpt lat="43.4746541" lon="12.5044813"><ele>711.0</ele><time>2026-05-02T09:14:08.019Z</time></trkpt><trkpt lat="43.4747494" lon="12.504391"><ele>713.5</ele><time>2026-05-02T09:14:09.007Z</time></trkpt><trkpt lat="43.4748332" lon="12.5042848"><ele>716.0</ele><time>2026-05-02T09:14:10.019Z</time></trkpt><trkpt lat="43.4748864" lon="12.5041439"><ele>716.0</ele><time>2026-05-02T09:14:11.004Z</time></trkpt><trkpt lat="43.4749319" lon="12.5039928"><ele>716.0</ele><time>2026-05-02T09:14:12.001Z</time></trkpt><trkpt lat="43.4749776" lon="12.503831"><ele>716.0</ele><time>2026-05-02T09:14:13.008Z</time></trkpt><trkpt lat="43.4750123" lon="12.5036622"><ele>716.0</ele><time>2026-05-02T09:14:14.013Z</time></trkpt><trkpt lat="43.4750501" lon="12.5035087"><ele>717.0</ele><time>2026-05-02T09:14:15.005Z</time></trkpt><trkpt lat="43.4751108" lon="12.5034078"><ele>718.0</ele><time>2026-05-02T09:14:16.002Z</time></trkpt><trkpt lat="43.4751932" lon="12.5033675"><ele>719.0</ele><time>2026-05-02T09:14:17.002Z</time></trkpt><trkpt lat="43.4752988" lon="12.5033552"><ele>720.0</ele><time>2026-05-02T09:14:18.007Z</time></trkpt><trkpt lat="43.4754167" lon="12.5033472"><ele>721.0</ele><time>2026-05-02T09:14:19.025Z</time></trkpt><trkpt lat="43.4755347" lon="12.5033295"><ele>721.0</ele><time>2026-05-02T09:14:20.011Z</time></trkpt><trkpt lat="43.4756364" lon="12.5033061"><ele>721.0</ele><time>2026-05-02T09:14:21Z</time></trkpt><trkpt lat="43.475724" lon="12.50327"><ele>721.0</ele><time>2026-05-02T09:14:22.016Z</time></trkpt><trkpt lat="43.4758084" lon="12.5031923"><ele>721.0</ele><time>2026-05-02T09:14:23.006Z</time></trkpt><trkpt lat="43.4758778" lon="12.50307"><ele>721.0</ele><time>2026-05-02T09:14:24.005Z</time></trkpt><trkpt lat="43.4759533" lon="12.5029182"><ele>719.0</ele><time>2026-05-02T09:14:25.015Z</time></trkpt><trkpt lat="43.476025" lon="12.5027325"><ele>717.0</ele><time>2026-05-02T09:14:26.003Z</time></trkpt><trkpt lat="43.4760927" lon="12.5025705"><ele>715.0</ele><time>2026-05-02T09:14:27.01Z</time></trkpt><trkpt lat="43.4761571" lon="12.5024404"><ele>713.0</ele><time>2026-05-02T09:14:28.01Z</time></trkpt><trkpt lat="43.4762197" lon="12.5023411"><ele>713.0</ele><time>2026-05-02T09:14:29.004Z</time></trkpt><trkpt lat="43.4762916" lon="12.5022859"><ele>713.0</ele><time>2026-05-02T09:14:30.017Z</time></trkpt><trkpt lat="43.4763629" lon="12.5022684"><ele>713.0</ele><time>2026-05-02T09:14:31.002Z</time></trkpt><trkpt lat="43.4764378" lon="12.5022856"><ele>713.0</ele><time>2026-05-02T09:14:32.014Z</time></trkpt><trkpt lat="43.4765277" lon="12.5023277"><ele>713.0</ele><time>2026-05-02T09:14:33.021Z</time></trkpt><trkpt lat="43.4766421" lon="12.5023726"><ele>713.0</ele><time>2026-05-02T09:14:34.005Z</time></trkpt><trkpt lat="43.4767721" lon="12.5024174"><ele>713.0</ele><time>2026-05-02T09:14:35.011Z</time></trkpt><trkpt lat="43.4768963" lon="12.5024559"><ele>713.0</ele><time>2026-05-02T09:14:35.998Z</time></trkpt><trkpt lat="43.4770142" lon="12.502491"><ele>713.0</ele><time>2026-05-02T09:14:37.019Z</time></trkpt><trkpt lat="43.4771334" lon="12.5025135"><ele>713.0</ele><time>2026-05-02T09:14:38.019Z</time></trkpt><trkpt lat="43.4772572" lon="12.5025171"><ele>710.4</ele><time>2026-05-02T09:14:39.011Z</time></trkpt><trkpt lat="43.477371" lon="12.5025102"><ele>707.8</ele><time>2026-05-02T09:14:40.018Z</time></trkpt><trkpt lat="43.4774736" lon="12.5024967"><ele>705.2</ele><time>2026-05-02T09:14:41.018Z</time></trkpt><trkpt lat="43.4775634" lon="12.5024616"><ele>702.6</ele><time>2026-05-02T09:14:42.01Z</time></trkpt><trkpt lat="43.477643" lon="12.502406"><ele>700.0</ele><time>2026-05-02T09:14:43.005Z</time></trkpt><trkpt lat="43.4777173" lon="12.5023294"><ele>700.0</ele><time>2026-05-02T09:14:43.996Z</time></trkpt><trkpt lat="43.4778008" lon="12.5022474"><ele>700.0</ele><time>2026-05-02T09:14:45.002Z</time></trkpt><trkpt lat="43.4778958" lon="12.5021644"><ele>700.0</ele><time>2026-05-02T09:14:46.008Z</time></trkpt><trkpt lat="43.4779975" lon="12.5020898"><ele>700.0</ele><time>2026-05-02T09:14:47.009Z</time></trkpt><trkpt lat="43.4781087" lon="12.5020254"><ele>701.25</ele><time>2026-05-02T09:14:48.022Z</time></trkpt><trkpt lat="43.4782162" lon="12.5019598"><ele>702.5</ele><time>2026-05-02T09:14:48.999Z</time></trkpt><trkpt lat="43.4783295" lon="12.501909"><ele>703.75</ele><time>2026-05-02T09:14:50.005Z</time></trkpt><trkpt lat="43.4784364" lon="12.5018672"><ele>705.0</ele><time>2026-05-02T09:14:51.009Z</time></trkpt><trkpt lat="43.4785402" lon="12.5018434"><ele>705.0</ele><time>2026-05-02T09:14:52.011Z</time></trkpt><trkpt lat="43.4786344" lon="12.5018268"><ele>705.0</ele><time>2026-05-02T09:14:53.006Z</time></trkpt><trkpt lat="43.4787272" lon="12.5017951"><ele>705.0</ele><time>2026-05-02T09:14:54.006Z</time></trkpt><trkpt lat="43.4788126" lon="12.5017439"><ele>705.0</ele><time>2026-05-02T09:14:55.005Z</time></trkpt><trkpt lat="43.4788981" lon="12.5016665"><ele>705.0</ele><time>2026-05-02T09:14:56.009Z</time></trkpt><trkpt lat="43.4789858" lon="12.5015621"><ele>703.2</ele><time>2026-05-02T09:14:57.017Z</time></trkpt><trkpt lat="43.4790683" lon="12.5014512"><ele>701.4</ele><time>2026-05-02T09:14:58.009Z</time></trkpt><trkpt lat="43.4791579" lon="12.5013438"><ele>699.5999999999999</ele><time>2026-05-02T09:14:59.005Z</time></trkpt><trkpt lat="43.4792439" lon="12.5012672"><ele>697.8</ele><time>2026-05-02T09:15:00.003Z</time></trkpt><trkpt lat="43.4793352" lon="12.5012015"><ele>696.0</ele><time>2026-05-02T09:15:01.007Z</time></trkpt><trkpt lat="43.4794315" lon="12.5011628"><ele>696.0</ele><time>2026-05-02T09:15:02.016Z</time></trkpt><trkpt lat="43.4795252" lon="12.5011335"><ele>696.0</ele><time>2026-05-02T09:15:03.014Z</time></trkpt><trkpt lat="43.4796238" lon="12.5011258"><ele>696.0</ele><time>2026-05-02T09:15:04.009Z</time></trkpt><trkpt lat="43.4797052" lon="12.5011078"><ele>696.0</ele><time>2026-05-02T09:15:05.006Z</time></trkpt><trkpt lat="43.4797752" lon="12.5010876"><ele>696.0</ele><time>2026-05-02T09:15:06.009Z</time></trkpt><trkpt lat="43.4798673" lon="12.5010698"><ele>696.0</ele><time>2026-05-02T09:15:08.013Z</time></trkpt><trkpt lat="43.4799302" lon="12.5011123"><ele>695.0</ele><time>2026-05-02T09:15:11.013Z</time></trkpt><trkpt lat="43.4799358" lon="12.5012078"><ele>694.0</ele><time>2026-05-02T09:15:14.021Z</time></trkpt><trkpt lat="43.4799495" lon="12.5013624"><ele>693.0</ele><time>2026-05-02T09:15:16.003Z</time></trkpt><trkpt lat="43.4799802" lon="12.501475"><ele>692.0</ele><time>2026-05-02T09:15:18.016Z</time></trkpt><trkpt lat="43.4800192" lon="12.5015705"><ele>691.0</ele><time>2026-05-02T09:15:21.011Z</time></trkpt><trkpt lat="43.48004" lon="12.5016744"><ele>690.0</ele><time>2026-05-02T09:15:24.012Z</time></trkpt><trkpt lat="43.4800541" lon="12.5017859"><ele>690.0</ele><time>2026-05-02T09:15:27.012Z</time></trkpt><trkpt lat="43.4800727" lon="12.5018942"><ele>690.0</ele><time>2026-05-02T09:15:30.009Z</time></trkpt><trkpt lat="43.4801091" lon="12.5020036"><ele>690.0</ele><time>2026-05-02T09:15:34.008Z</time></trkpt><trkpt lat="43.4801745" lon="12.5021437"><ele>690.0</ele><time>2026-05-02T09:15:36.023Z</time></trkpt><trkpt lat="43.480229" lon="12.5022226"><ele>690.0</ele><time>2026-05-02T09:15:37.01Z</time></trkpt><trkpt lat="43.4802839" lon="12.5022875"><ele>690.0</ele><time>2026-05-02T09:15:38.015Z</time></trkpt><trkpt lat="43.4803412" lon="12.5023348"><ele>688.0</ele><time>2026-05-02T09:15:39.013Z</time></trkpt><trkpt lat="43.4804079" lon="12.5023862"><ele>686.0</ele><time>2026-05-02T09:15:40.009Z</time></trkpt><trkpt lat="43.4804774" lon="12.5024167"><ele>684.0</ele><time>2026-05-02T09:15:41.014Z</time></trkpt><trkpt lat="43.4805491" lon="12.5024368"><ele>682.0</ele><time>2026-05-02T09:15:42.004Z</time></trkpt><trkpt lat="43.480613" lon="12.5024497"><ele>680.0</ele><time>2026-05-02T09:15:43.012Z</time></trkpt><trkpt lat="43.4807283" lon="12.5024714"><ele>678.0</ele><time>2026-05-02T09:15:45.01Z</time></trkpt><trkpt lat="43.4808471" lon="12.5024798"><ele>678.0</ele><time>2026-05-02T09:15:47.009Z</time></trkpt><trkpt lat="43.4809124" lon="12.502475"><ele>678.0</ele><time>2026-05-02T09:15:48.009Z</time></trkpt><trkpt lat="43.4809761" lon="12.5024672"><ele>678.0</ele><time>2026-05-02T09:15:49.01Z</time></trkpt><trkpt lat="43.4810416" lon="12.5024596"><ele>678.0</ele><time>2026-05-02T09:15:50.012Z</time></trkpt><trkpt lat="43.4811112" lon="12.5024538"><ele>678.0</ele><time>2026-05-02T09:15:51.011Z</time></trkpt><trkpt lat="43.4812278" lon="12.5024572"><ele>678.0</ele><time>2026-05-02T09:15:53.015Z</time></trkpt><trkpt lat="43.4813405" lon="12.5024591"><ele>677.0</ele><time>2026-05-02T09:15:55.009Z</time></trkpt><trkpt lat="43.4814581" lon="12.5024845"><ele>676.0</ele><time>2026-05-02T09:15:57.006Z</time></trkpt><trkpt lat="43.4815642" lon="12.5025098"><ele>675.0</ele><time>2026-05-02T09:15:59.005Z</time></trkpt><trkpt lat="43.4816838" lon="12.5025166"><ele>674.0</ele><time>2026-05-02T09:16:01.012Z</time></trkpt><trkpt lat="43.4818051" lon="12.5025368"><ele>674.0</ele><time>2026-05-02T09:16:03.009Z</time></trkpt><trkpt lat="43.4818651" lon="12.5025774"><ele>674.0</ele><time>2026-05-02T09:16:04.007Z</time></trkpt><trkpt lat="43.4819558" lon="12.5026744"><ele>674.0</ele><time>2026-05-02T09:16:06.012Z</time></trkpt><trkpt lat="43.4820272" lon="12.5027828"><ele>674.0</ele><time>2026-05-02T09:16:08.011Z</time></trkpt><trkpt lat="43.4820761" lon="12.502838"><ele>674.0</ele><time>2026-05-02T09:16:09.009Z</time></trkpt><trkpt lat="43.4821299" lon="12.5028862"><ele>674.0</ele><time>2026-05-02T09:16:10.009Z</time></trkpt><trkpt lat="43.4821876" lon="12.5029252"><ele>672.0000000000001</ele><time>2026-05-02T09:16:11.007Z</time></trkpt><trkpt lat="43.4822451" lon="12.5029612"><ele>670.0</ele><time>2026-05-02T09:16:12.009Z</time></trkpt><trkpt lat="43.4823058" lon="12.5029912"><ele>668.0</ele><time>2026-05-02T09:16:13.012Z</time></trkpt><trkpt lat="43.4823712" lon="12.5030201"><ele>666.0</ele><time>2026-05-02T09:16:14.002Z</time></trkpt><trkpt lat="43.4824382" lon="12.5030591"><ele>664.0</ele><time>2026-05-02T09:16:15.012Z</time></trkpt><trkpt lat="43.4824995" lon="12.5030985"><ele>662.0000000000001</ele><time>2026-05-02T09:16:16.012Z</time></trkpt><trkpt lat="43.4825649" lon="12.5031263"><ele>660.0</ele><time>2026-05-02T09:16:17.013Z</time></trkpt><trkpt lat="43.482626" lon="12.5031498"><ele>660.0000000000001</ele><time>2026-05-02T09:16:18.011Z</time></trkpt><trkpt lat="43.4826935" lon="12.5031539"><ele>660.0</ele><time>2026-05-02T09:16:19.008Z</time></trkpt><trkpt lat="43.4827636" lon="12.5031431"><ele>660.0</ele><time>2026-05-02T09:16:20.012Z</time></trkpt><trkpt lat="43.4828248" lon="12.5031065"><ele>660.0</ele><time>2026-05-02T09:16:21.011Z</time></trkpt><trkpt lat="43.482883" lon="12.5030689"><ele>660.0</ele><time>2026-05-02T09:16:22.016Z</time></trkpt><trkpt lat="43.482941" lon="12.5030215"><ele>660.0000000000001</ele><time>2026-05-02T09:16:23.012Z</time></trkpt><trkpt lat="43.482996" lon="12.5029615"><ele>660.0</ele><time>2026-05-02T09:16:24.01Z</time></trkpt><trkpt lat="43.4830571" lon="12.5029112"><ele>660.3333333333334</ele><time>2026-05-02T09:16:25.008Z</time></trkpt><trkpt lat="43.4831265" lon="12.5028845"><ele>660.6666666666666</ele><time>2026-05-02T09:16:26.02Z</time></trkpt><trkpt lat="43.4831977" lon="12.5028915"><ele>661.0</ele><time>2026-05-02T09:16:27.016Z</time></trkpt><trkpt lat="43.4832599" lon="12.5029273"><ele>661.3333333333333</ele><time>2026-05-02T09:16:28.002Z</time></trkpt><trkpt lat="43.4833263" lon="12.5029769"><ele>661.6666666666666</ele><time>2026-05-02T09:16:29.01Z</time></trkpt><trkpt lat="43.4833993" lon="12.5030333"><ele>662.0</ele><time>2026-05-02T09:16:30.014Z</time></trkpt><trkpt lat="43.4834885" lon="12.5030997"><ele>662.0</ele><time>2026-05-02T09:16:31.016Z</time></trkpt><trkpt lat="43.4835702" lon="12.5031871"><ele>662.0</ele><time>2026-05-02T09:16:32.01Z</time></trkpt><trkpt lat="43.4836589" lon="12.5032805"><ele>662.0</ele><time>2026-05-02T09:16:33.009Z</time></trkpt><trkpt lat="43.4837445" lon="12.50339"><ele>662.0</ele><time>2026-05-02T09:16:34Z</time></trkpt><trkpt lat="43.4838247" lon="12.5035025"><ele>662.0</ele><time>2026-05-02T09:16:35.014Z</time></trkpt><trkpt lat="43.4838937" lon="12.5036167"><ele>660.0</ele><time>2026-05-02T09:16:36.02Z</time></trkpt><trkpt lat="43.4839717" lon="12.5037288"><ele>658.0</ele><time>2026-05-02T09:16:37.008Z</time></trkpt><trkpt lat="43.484035" lon="12.5038343"><ele>656.0</ele><time>2026-05-02T09:16:38.012Z</time></trkpt><trkpt lat="43.4840889" lon="12.5039356"><ele>654.0</ele><time>2026-05-02T09:16:39.014Z</time></trkpt><trkpt lat="43.4841448" lon="12.5040097"><ele>652.0</ele><time>2026-05-02T09:16:40.014Z</time></trkpt><trkpt lat="43.484201" lon="12.5040631"><ele>650.0</ele><time>2026-05-02T09:16:41.001Z</time></trkpt><trkpt lat="43.4842684" lon="12.5040878"><ele>650.0</ele><time>2026-05-02T09:16:42.007Z</time></trkpt><trkpt lat="43.484339" lon="12.504089"><ele>650.0</ele><time>2026-05-02T09:16:43.014Z</time></trkpt><trkpt lat="43.4844056" lon="12.5040613"><ele>650.0</ele><time>2026-05-02T09:16:44.023Z</time></trkpt><trkpt lat="43.4844711" lon="12.5040077"><ele>650.0</ele><time>2026-05-02T09:16:45.014Z</time></trkpt><trkpt lat="43.4845399" lon="12.5039495"><ele>650.0</ele><time>2026-05-02T09:16:46.01Z</time></trkpt><trkpt lat="43.4846166" lon="12.5039023"><ele>650.0</ele><time>2026-05-02T09:16:47.009Z</time></trkpt><trkpt lat="43.4847299" lon="12.5039113"><ele>652.0</ele><time>2026-05-02T09:16:48.011Z</time></trkpt><trkpt lat="43.4848523" lon="12.5039253"><ele>654.0</ele><time>2026-05-02T09:16:49.008Z</time></trkpt><trkpt lat="43.4849701" lon="12.5039704"><ele>656.0</ele><time>2026-05-02T09:16:50.008Z</time></trkpt><trkpt lat="43.4851085" lon="12.5040535"><ele>658.0</ele><time>2026-05-02T09:16:51.001Z</time></trkpt><trkpt lat="43.4852313" lon="12.5041511"><ele>658.0</ele><time>2026-05-02T09:16:52.006Z</time></trkpt><trkpt lat="43.4853511" lon="12.5042501"><ele>658.0</ele><time>2026-05-02T09:16:53.006Z</time></trkpt><trkpt lat="43.4854704" lon="12.5043667"><ele>658.0</ele><time>2026-05-02T09:16:54.017Z</time></trkpt><trkpt lat="43.4855836" lon="12.5044897"><ele>658.0</ele><time>2026-05-02T09:16:55.008Z</time></trkpt><trkpt lat="43.4856818" lon="12.5045935"><ele>655.6666666666667</ele><time>2026-05-02T09:16:56.006Z</time></trkpt><trkpt lat="43.4857598" lon="12.5046943"><ele>653.3333333333334</ele><time>2026-05-02T09:16:57.008Z</time></trkpt><trkpt lat="43.4858244" lon="12.5047769"><ele>651.0</ele><time>2026-05-02T09:16:58.011Z</time></trkpt><trkpt lat="43.4858818" lon="12.5048427"><ele>648.6666666666666</ele><time>2026-05-02T09:16:59.011Z</time></trkpt><trkpt lat="43.4859419" lon="12.504876"><ele>646.3333333333333</ele><time>2026-05-02T09:17:00.017Z</time></trkpt><trkpt lat="43.4860454" lon="12.5048308"><ele>644.0</ele><time>2026-05-02T09:17:02.01Z</time></trkpt><trkpt lat="43.4861075" lon="12.5046831"><ele>646.4000000000001</ele><time>2026-05-02T09:17:04.009Z</time></trkpt><trkpt lat="43.4861152" lon="12.5045698"><ele>648.8</ele><time>2026-05-02T09:17:05.01Z</time></trkpt><trkpt lat="43.4861029" lon="12.5044367"><ele>651.2</ele><time>2026-05-02T09:17:06.01Z</time></trkpt><trkpt lat="43.4860964" lon="12.5042984"><ele>653.5999999999999</ele><time>2026-05-02T09:17:07.005Z</time></trkpt><trkpt lat="43.4860877" lon="12.5041527"><ele>656.0</ele><time>2026-05-02T09:17:08.014Z</time></trkpt><trkpt lat="43.4860893" lon="12.5040219"><ele>656.0</ele><time>2026-05-02T09:17:09.001Z</time></trkpt><trkpt lat="43.4860948" lon="12.5038779"><ele>656.0</ele><time>2026-05-02T09:17:10.001Z</time></trkpt><trkpt lat="43.486101" lon="12.5037445"><ele>656.0</ele><time>2026-05-02T09:17:11.008Z</time></trkpt><trkpt lat="43.486102" lon="12.5036242"><ele>656.0</ele><time>2026-05-02T09:17:12.009Z</time></trkpt><trkpt lat="43.4860901" lon="12.5035078"><ele>656.0</ele><time>2026-05-02T09:17:13.015Z</time></trkpt><trkpt lat="43.4860768" lon="12.5033783"><ele>656.8</ele><time>2026-05-02T09:17:14.017Z</time></trkpt><trkpt lat="43.4860639" lon="12.5032514"><ele>657.5999999999999</ele><time>2026-05-02T09:17:14.991Z</time></trkpt><trkpt lat="43.4860549" lon="12.5031155"><ele>658.4</ele><time>2026-05-02T09:17:16.015Z</time></trkpt><trkpt lat="43.4860596" lon="12.5029785"><ele>659.2</ele><time>2026-05-02T09:17:17.014Z</time></trkpt><trkpt lat="43.4860679" lon="12.5028581"><ele>660.0</ele><time>2026-05-02T09:17:18.028Z</time></trkpt><trkpt lat="43.4861146" lon="12.5027565"><ele>660.6</ele><time>2026-05-02T09:17:19.012Z</time></trkpt><trkpt lat="43.4861822" lon="12.5026606"><ele>661.2</ele><time>2026-05-02T09:17:20.01Z</time></trkpt><trkpt lat="43.4862606" lon="12.5025663"><ele>661.8</ele><time>2026-05-02T09:17:21.007Z</time></trkpt><trkpt lat="43.4863295" lon="12.5024843"><ele>662.4</ele><time>2026-05-02T09:17:21.998Z</time></trkpt><trkpt lat="43.4864139" lon="12.5024045"><ele>663.0</ele><time>2026-05-02T09:17:23.012Z</time></trkpt><trkpt lat="43.4865153" lon="12.5023623"><ele>658.5999999999999</ele><time>2026-05-02T09:17:24.006Z</time></trkpt><trkpt lat="43.4866182" lon="12.5023769"><ele>654.1999999999999</ele><time>2026-05-02T09:17:25.01Z</time></trkpt><trkpt lat="43.48672" lon="12.5024172"><ele>649.8</ele><time>2026-05-02T09:17:26.003Z</time></trkpt><trkpt lat="43.4868305" lon="12.5024306"><ele>645.4</ele><time>2026-05-02T09:17:27.012Z</time></trkpt><trkpt lat="43.4869532" lon="12.5024389"><ele>641.0</ele><time>2026-05-02T09:17:28.013Z</time></trkpt><trkpt lat="43.4870817" lon="12.5024358"><ele>642.0</ele><time>2026-05-02T09:17:29.012Z</time></trkpt><trkpt lat="43.487213" lon="12.5024651"><ele>643.0</ele><time>2026-05-02T09:17:30.015Z</time></trkpt><trkpt lat="43.4873327" lon="12.5025161"><ele>644.0</ele><time>2026-05-02T09:17:31.015Z</time></trkpt><trkpt lat="43.4874386" lon="12.502592"><ele>645.0</ele><time>2026-05-02T09:17:32.004Z</time></trkpt><trkpt lat="43.4875273" lon="12.5026774"><ele>645.0</ele><time>2026-05-02T09:17:33.01Z</time></trkpt><trkpt lat="43.4875805" lon="12.5027814"><ele>645.0</ele><time>2026-05-02T09:17:34.007Z</time></trkpt><trkpt lat="43.4876187" lon="12.5028991"><ele>645.0</ele><time>2026-05-02T09:17:35.003Z</time></trkpt><trkpt lat="43.4876424" lon="12.5030402"><ele>645.0</ele><time>2026-05-02T09:17:35.999Z</time></trkpt><trkpt lat="43.487653" lon="12.5031965"><ele>645.0</ele><time>2026-05-02T09:17:37.014Z</time></trkpt><trkpt lat="43.4876649" lon="12.5033195"><ele>645.5</ele><time>2026-05-02T09:17:38.004Z</time></trkpt><trkpt lat="43.4876965" lon="12.503403"><ele>646.0</ele><time>2026-05-02T09:17:39.008Z</time></trkpt><trkpt lat="43.4877471" lon="12.5034616"><ele>646.5</ele><time>2026-05-02T09:17:40.006Z</time></trkpt><trkpt lat="43.4878066" lon="12.5034953"><ele>647.0</ele><time>2026-05-02T09:17:41.014Z</time></trkpt><trkpt lat="43.4878799" lon="12.5035093"><ele>647.5</ele><time>2026-05-02T09:17:42.008Z</time></trkpt><trkpt lat="43.4879667" lon="12.5035248"><ele>648.0</ele><time>2026-05-02T09:17:42.995Z</time></trkpt><trkpt lat="43.4880566" lon="12.5035642"><ele>648.0</ele><time>2026-05-02T09:17:44.006Z</time></trkpt><trkpt lat="43.488146" lon="12.5036244"><ele>648.0</ele><time>2026-05-02T09:17:45.008Z</time></trkpt><trkpt lat="43.4882183" lon="12.503694"><ele>648.0</ele><time>2026-05-02T09:17:46.008Z</time></trkpt><trkpt lat="43.4882754" lon="12.5037771"><ele>648.0</ele><time>2026-05-02T09:17:47.004Z</time></trkpt><trkpt lat="43.4883068" lon="12.5039059"><ele>648.0</ele><time>2026-05-02T09:17:48Z</time></trkpt><trkpt lat="43.488331" lon="12.5040324"><ele>643.1666666666666</ele><time>2026-05-02T09:17:49.01Z</time></trkpt><trkpt lat="43.4883504" lon="12.5041625"><ele>638.3333333333334</ele><time>2026-05-02T09:17:50.005Z</time></trkpt><trkpt lat="43.4883738" lon="12.504284"><ele>633.5</ele><time>2026-05-02T09:17:51.013Z</time></trkpt><trkpt lat="43.4884055" lon="12.5043943"><ele>628.6666666666667</ele><time>2026-05-02T09:17:52.022Z</time></trkpt><trkpt lat="43.4884603" lon="12.5044918"><ele>623.8333333333334</ele><time>2026-05-02T09:17:53.006Z</time></trkpt><trkpt lat="43.4885251" lon="12.5045681"><ele>619.0</ele><time>2026-05-02T09:17:54.015Z</time></trkpt><trkpt lat="43.4886043" lon="12.5046127"><ele>618.4</ele><time>2026-05-02T09:17:55.012Z</time></trkpt><trkpt lat="43.4886945" lon="12.504646"><ele>617.8</ele><time>2026-05-02T09:17:56.016Z</time></trkpt><trkpt lat="43.4887919" lon="12.5046896"><ele>617.2</ele><time>2026-05-02T09:17:57.009Z</time></trkpt><trkpt lat="43.4888873" lon="12.5047411"><ele>616.6</ele><time>2026-05-02T09:17:58.007Z</time></trkpt><trkpt lat="43.4889772" lon="12.5048146"><ele>616.0</ele><time>2026-05-02T09:17:59.015Z</time></trkpt><trkpt lat="43.4890567" lon="12.5049022"><ele>616.0</ele><time>2026-05-02T09:18:00.007Z</time></trkpt><trkpt lat="43.4891322" lon="12.5050017"><ele>616.0</ele><time>2026-05-02T09:18:01.015Z</time></trkpt><trkpt lat="43.4892032" lon="12.5051038"><ele>616.0</ele><time>2026-05-02T09:18:02.008Z</time></trkpt><trkpt lat="43.4892687" lon="12.5052105"><ele>616.0</ele><time>2026-05-02T09:18:03Z</time></trkpt><trkpt lat="43.489331" lon="12.5053177"><ele>616.0</ele><time>2026-05-02T09:18:04.01Z</time></trkpt><trkpt lat="43.489393" lon="12.5054223"><ele>612.2</ele><time>2026-05-02T09:18:05.018Z</time></trkpt><trkpt lat="43.4894681" lon="12.5054985"><ele>608.4000000000001</ele><time>2026-05-02T09:18:06.015Z</time></trkpt><trkpt lat="43.4895526" lon="12.5055583"><ele>604.6</ele><time>2026-05-02T09:18:07.017Z</time></trkpt><trkpt lat="43.4896441" lon="12.5056083"><ele>600.8000000000001</ele><time>2026-05-02T09:18:08.018Z</time></trkpt><trkpt lat="43.4897463" lon="12.5056438"><ele>597.0</ele><time>2026-05-02T09:18:09.01Z</time></trkpt><trkpt lat="43.4898507" lon="12.5056608"><ele>597.0</ele><time>2026-05-02T09:18:10.03Z</time></trkpt><trkpt lat="43.4899619" lon="12.5056512"><ele>597.0</ele><time>2026-05-02T09:18:11.015Z</time></trkpt><trkpt lat="43.4900566" lon="12.5056298"><ele>597.0</ele><time>2026-05-02T09:18:12.03Z</time></trkpt><trkpt lat="43.4901446" lon="12.5056"><ele>597.0</ele><time>2026-05-02T09:18:13.006Z</time></trkpt><trkpt lat="43.4902067" lon="12.5055675"><ele>597.0</ele><time>2026-05-02T09:18:14.006Z</time></trkpt><trkpt lat="43.4903062" lon="12.505538"><ele>597.0</ele><time>2026-05-02T09:18:16.009Z</time></trkpt><trkpt lat="43.4903591" lon="12.5055945"><ele>597.0</ele><time>2026-05-02T09:18:18.007Z</time></trkpt><trkpt lat="43.4902801" lon="12.5057005"><ele>597.0</ele><time>2026-05-02T09:18:21.016Z</time></trkpt><trkpt lat="43.4902045" lon="12.5057284"><ele>597.0</ele><time>2026-05-02T09:18:22.024Z</time></trkpt><trkpt lat="43.4901014" lon="12.5057465"><ele>597.0</ele><time>2026-05-02T09:18:23.016Z</time></trkpt><trkpt lat="43.4899835" lon="12.5057756"><ele>597.0</ele><time>2026-05-02T09:18:24.023Z</time></trkpt><trkpt lat="43.4898676" lon="12.505798"><ele>597.0</ele><time>2026-05-02T09:18:25.012Z</time></trkpt><trkpt lat="43.4897575" lon="12.5058143"><ele>597.0</ele><time>2026-05-02T09:18:26.004Z</time></trkpt><trkpt lat="43.4896499" lon="12.5058316"><ele>597.0</ele><time>2026-05-02T09:18:27.012Z</time></trkpt><trkpt lat="43.4895445" lon="12.5058366"><ele>597.0</ele><time>2026-05-02T09:18:28.015Z</time></trkpt><trkpt lat="43.4894445" lon="12.5058511"><ele>596.6666666666666</ele><time>2026-05-02T09:18:29.008Z</time></trkpt><trkpt lat="43.4893466" lon="12.5058755"><ele>596.3333333333334</ele><time>2026-05-02T09:18:30.002Z</time></trkpt><trkpt lat="43.4892549" lon="12.5059181"><ele>596.0</ele><time>2026-05-02T09:18:31.009Z</time></trkpt><trkpt lat="43.4891761" lon="12.5059668"><ele>595.6666666666667</ele><time>2026-05-02T09:18:32.019Z</time></trkpt><trkpt lat="43.4891101" lon="12.5060299"><ele>595.3333333333334</ele><time>2026-05-02T09:18:33.007Z</time></trkpt><trkpt lat="43.4890395" lon="12.5060723"><ele>595.0</ele><time>2026-05-02T09:18:34.025Z</time></trkpt><trkpt lat="43.4889649" lon="12.5060845"><ele>595.0</ele><time>2026-05-02T09:18:35.013Z</time></trkpt><trkpt lat="43.4888993" lon="12.5060463"><ele>595.0</ele><time>2026-05-02T09:18:36.015Z</time></trkpt><trkpt lat="43.4888109" lon="12.5059414"><ele>595.0</ele><time>2026-05-02T09:18:38.021Z</time></trkpt><trkpt lat="43.4887259" lon="12.5058715"><ele>595.0</ele><time>2026-05-02T09:18:40.003Z</time></trkpt><trkpt lat="43.4886644" lon="12.5059432"><ele>595.0</ele><time>2026-05-02T09:18:42.013Z</time></trkpt><trkpt lat="43.4886862" lon="12.5060774"><ele>592.5</ele><time>2026-05-02T09:18:44.022Z</time></trkpt><trkpt lat="43.4887218" lon="12.506174"><ele>590.0</ele><time>2026-05-02T09:18:45.001Z</time></trkpt><trkpt lat="43.488764" lon="12.5062734"><ele>587.5</ele><time>2026-05-02T09:18:46.003Z</time></trkpt><trkpt lat="43.4887939" lon="12.5063712"><ele>585.0</ele><time>2026-05-02T09:18:47.021Z</time></trkpt><trkpt lat="43.4888135" lon="12.5064777"><ele>582.5</ele><time>2026-05-02T09:18:48.009Z</time></trkpt><trkpt lat="43.4888355" lon="12.5065754"><ele>580.0</ele><time>2026-05-02T09:18:49.014Z</time></trkpt><trkpt lat="43.4888913" lon="12.5067014"><ele>578.5</ele><time>2026-05-02T09:18:51.008Z</time></trkpt><trkpt lat="43.4889884" lon="12.5067138"><ele>577.0</ele><time>2026-05-02T09:18:53.006Z</time></trkpt><trkpt lat="43.4890782" lon="12.5066204"><ele>575.5</ele><time>2026-05-02T09:18:55.019Z</time></trkpt><trkpt lat="43.4891287" lon="12.5065511"><ele>574.0</ele><time>2026-05-02T09:18:56.002Z</time></trkpt><trkpt lat="43.4891826" lon="12.5064901"><ele>572.5</ele><time>2026-05-02T09:18:57.024Z</time></trkpt><trkpt lat="43.4892409" lon="12.5064377"><ele>571.0</ele><time>2026-05-02T09:18:58.02Z</time></trkpt><trkpt lat="43.4893132" lon="12.5064176"><ele>571.0</ele><time>2026-05-02T09:18:59.003Z</time></trkpt><trkpt lat="43.4893904" lon="12.5064318"><ele>571.0</ele><time>2026-05-02T09:19:00.017Z</time></trkpt><trkpt lat="43.4894911" lon="12.5064542"><ele>571.0</ele><time>2026-05-02T09:19:01.008Z</time></trkpt><trkpt lat="43.4895885" lon="12.5064711"><ele>571.0</ele><time>2026-05-02T09:19:02.01Z</time></trkpt><trkpt lat="43.4896739" lon="12.5064739"><ele>571.0</ele><time>2026-05-02T09:19:03.008Z</time></trkpt><trkpt lat="43.489756" lon="12.5064809"><ele>571.0</ele><time>2026-05-02T09:19:04.002Z</time></trkpt><trkpt lat="43.4898324" lon="12.5065158"><ele>570.0</ele><time>2026-05-02T09:19:05.009Z</time></trkpt><trkpt lat="43.4899225" lon="12.5065781"><ele>569.0</ele><time>2026-05-02T09:19:06.01Z</time></trkpt><trkpt lat="43.4900119" lon="12.5066496"><ele>568.0</ele><time>2026-05-02T09:19:07.005Z</time></trkpt><trkpt lat="43.4900964" lon="12.5067397"><ele>567.0</ele><time>2026-05-02T09:19:08.007Z</time></trkpt><trkpt lat="43.4901938" lon="12.5068443"><ele>566.0</ele><time>2026-05-02T09:19:09.003Z</time></trkpt><trkpt lat="43.4902992" lon="12.506943"><ele>566.0</ele><time>2026-05-02T09:19:10.003Z</time></trkpt><trkpt lat="43.4904005" lon="12.5070301"><ele>566.0</ele><time>2026-05-02T09:19:11.007Z</time></trkpt><trkpt lat="43.4904989" lon="12.5071169"><ele>566.0</ele><time>2026-05-02T09:19:12.002Z</time></trkpt><trkpt lat="43.4905906" lon="12.5071982"><ele>566.0</ele><time>2026-05-02T09:19:13.008Z</time></trkpt><trkpt lat="43.4906769" lon="12.507253"><ele>566.0</ele><time>2026-05-02T09:19:14.01Z</time></trkpt><trkpt lat="43.4907615" lon="12.5073087"><ele>563.8</ele><time>2026-05-02T09:19:15.009Z</time></trkpt><trkpt lat="43.4908561" lon="12.5073563"><ele>561.6</ele><time>2026-05-02T09:19:16.003Z</time></trkpt><trkpt lat="43.4909462" lon="12.5073969"><ele>559.4</ele><time>2026-05-02T09:19:17.012Z</time></trkpt><trkpt lat="43.4910287" lon="12.5074388"><ele>557.2</ele><time>2026-05-02T09:19:18.003Z</time></trkpt><trkpt lat="43.4911058" lon="12.5074878"><ele>555.0</ele><time>2026-05-02T09:19:19.012Z</time></trkpt><trkpt lat="43.491183" lon="12.5075556"><ele>555.0</ele><time>2026-05-02T09:19:20.003Z</time></trkpt><trkpt lat="43.4912435" lon="12.5076254"><ele>555.0</ele><time>2026-05-02T09:19:21.007Z</time></trkpt><trkpt lat="43.4913049" lon="12.5076958"><ele>555.0</ele><time>2026-05-02T09:19:22.004Z</time></trkpt><trkpt lat="43.4913614" lon="12.5077638"><ele>555.0</ele><time>2026-05-02T09:19:23.011Z</time></trkpt><trkpt lat="43.4914022" lon="12.5078567"><ele>555.0</ele><time>2026-05-02T09:19:24.01Z</time></trkpt><trkpt lat="43.4914306" lon="12.5079701"><ele>555.0</ele><time>2026-05-02T09:19:25.005Z</time></trkpt><trkpt lat="43.4914368" lon="12.5080901"><ele>554.0</ele><time>2026-05-02T09:19:26.003Z</time></trkpt><trkpt lat="43.4914301" lon="12.5082236"><ele>553.0</ele><time>2026-05-02T09:19:27.012Z</time></trkpt><trkpt lat="43.4914128" lon="12.5083579"><ele>552.0</ele><time>2026-05-02T09:19:28.015Z</time></trkpt><trkpt lat="43.4913922" lon="12.5084845"><ele>551.0</ele><time>2026-05-02T09:19:29.019Z</time></trkpt><trkpt lat="43.4913676" lon="12.5086095"><ele>550.0</ele><time>2026-05-02T09:19:30.005Z</time></trkpt><trkpt lat="43.4913396" lon="12.5087323"><ele>547.1666666666667</ele><time>2026-05-02T09:19:31.023Z</time></trkpt><trkpt lat="43.4913165" lon="12.5088338"><ele>544.3333333333334</ele><time>2026-05-02T09:19:32.03Z</time></trkpt><trkpt lat="43.4913055" lon="12.5089242"><ele>541.5</ele><time>2026-05-02T09:19:33.006Z</time></trkpt><trkpt lat="43.4913332" lon="12.5090628"><ele>538.6666666666666</ele><time>2026-05-02T09:19:35.006Z</time></trkpt><trkpt lat="43.4914272" lon="12.5091312"><ele>535.8333333333333</ele><time>2026-05-02T09:19:37.014Z</time></trkpt><trkpt lat="43.491488" lon="12.5091068"><ele>533.0</ele><time>2026-05-02T09:19:38.004Z</time></trkpt><trkpt lat="43.4915783" lon="12.5089795"><ele>533.0</ele><time>2026-05-02T09:19:40.012Z</time></trkpt><trkpt lat="43.4916247" lon="12.5088753"><ele>533.0</ele><time>2026-05-02T09:19:40.995Z</time></trkpt><trkpt lat="43.4916688" lon="12.5087728"><ele>533.0</ele><time>2026-05-02T09:19:42.008Z</time></trkpt><trkpt lat="43.4917125" lon="12.5086853"><ele>533.0</ele><time>2026-05-02T09:19:43.008Z</time></trkpt><trkpt lat="43.4917655" lon="12.5086181"><ele>533.0</ele><time>2026-05-02T09:19:44.004Z</time></trkpt><trkpt lat="43.4918333" lon="12.5085905"><ele>533.0</ele><time>2026-05-02T09:19:45.009Z</time></trkpt><trkpt lat="43.4919049" lon="12.5086117"><ele>533.0</ele><time>2026-05-02T09:19:46.016Z</time></trkpt><trkpt lat="43.491968" lon="12.5086807"><ele>533.0</ele><time>2026-05-02T09:19:47.004Z</time></trkpt><trkpt lat="43.4920202" lon="12.508768"><ele>533.0</ele><time>2026-05-02T09:19:48.006Z</time></trkpt><trkpt lat="43.4920409" lon="12.5088772"><ele>533.0</ele><time>2026-05-02T09:19:49.006Z</time></trkpt><trkpt lat="43.4920597" lon="12.509004"><ele>533.0</ele><time>2026-05-02T09:19:50.016Z</time></trkpt><trkpt lat="43.4920722" lon="12.5091098"><ele>533.0</ele><time>2026-05-02T09:19:51.005Z</time></trkpt><trkpt lat="43.4921124" lon="12.5092107"><ele>532.8333333333333</ele><time>2026-05-02T09:19:52.006Z</time></trkpt><trkpt lat="43.492171" lon="12.5092852"><ele>532.6666666666666</ele><time>2026-05-02T09:19:53.008Z</time></trkpt><trkpt lat="43.4922342" lon="12.5093483"><ele>532.5</ele><time>2026-05-02T09:19:54.005Z</time></trkpt><trkpt lat="43.492298" lon="12.5093909"><ele>532.3333333333334</ele><time>2026-05-02T09:19:55.009Z</time></trkpt><trkpt lat="43.492378" lon="12.509424"><ele>532.1666666666667</ele><time>2026-05-02T09:19:56.007Z</time></trkpt><trkpt lat="43.4924594" lon="12.5094416"><ele>532.0</ele><time>2026-05-02T09:19:57.008Z</time></trkpt><trkpt lat="43.4925404" lon="12.5094474"><ele>532.0</ele><time>2026-05-02T09:19:58.003Z</time></trkpt><trkpt lat="43.4926141" lon="12.5094338"><ele>532.0</ele><time>2026-05-02T09:19:59.003Z</time></trkpt><trkpt lat="43.4926928" lon="12.509411"><ele>532.0</ele><time>2026-05-02T09:19:59.996Z</time></trkpt><trkpt lat="43.4927647" lon="12.5093729"><ele>532.0</ele><time>2026-05-02T09:20:01.005Z</time></trkpt><trkpt lat="43.4928269" lon="12.509318"><ele>532.0</ele><time>2026-05-02T09:20:02.01Z</time></trkpt><trkpt lat="43.4928794" lon="12.5092414"><ele>532.0</ele><time>2026-05-02T09:20:03.002Z</time></trkpt><trkpt lat="43.4929187" lon="12.5091376"><ele>528.2</ele><time>2026-05-02T09:20:03.997Z</time></trkpt><trkpt lat="43.4929667" lon="12.5090274"><ele>524.4000000000001</ele><time>2026-05-02T09:20:05.01Z</time></trkpt><trkpt lat="43.4930314" lon="12.5089174"><ele>520.5999999999999</ele><time>2026-05-02T09:20:06.008Z</time></trkpt><trkpt lat="43.4930893" lon="12.5088475"><ele>516.8</ele><time>2026-05-02T09:20:07.007Z</time></trkpt><trkpt lat="43.4931987" lon="12.5087958"><ele>513.0</ele><time>2026-05-02T09:20:09.02Z</time></trkpt><trkpt lat="43.4932606" lon="12.5088225"><ele>513.0</ele><time>2026-05-02T09:20:10.013Z</time></trkpt><trkpt lat="43.4933166" lon="12.5088827"><ele>513.0</ele><time>2026-05-02T09:20:11.005Z</time></trkpt><trkpt lat="43.4933832" lon="12.5089527"><ele>513.0</ele><time>2026-05-02T09:20:11.999Z</time></trkpt><trkpt lat="43.4934564" lon="12.5090281"><ele>513.0</ele><time>2026-05-02T09:20:13Z</time></trkpt><trkpt lat="43.4935244" lon="12.5090969"><ele>513.0</ele><time>2026-05-02T09:20:14.005Z</time></trkpt><trkpt lat="43.4936031" lon="12.5091368"><ele>513.0</ele><time>2026-05-02T09:20:14.998Z</time></trkpt><trkpt lat="43.493694" lon="12.5091665"><ele>513.1999999999999</ele><time>2026-05-02T09:20:16.01Z</time></trkpt><trkpt lat="43.4937911" lon="12.5091737"><ele>513.4</ele><time>2026-05-02T09:20:17.008Z</time></trkpt><trkpt lat="43.4938976" lon="12.5091763"><ele>513.5999999999999</ele><time>2026-05-02T09:20:18Z</time></trkpt><trkpt lat="43.4940004" lon="12.5091989"><ele>513.8</ele><time>2026-05-02T09:20:19.003Z</time></trkpt><trkpt lat="43.494088" lon="12.5092334"><ele>514.0</ele><time>2026-05-02T09:20:20.008Z</time></trkpt><trkpt lat="43.4941772" lon="12.5092547"><ele>514.0</ele><time>2026-05-02T09:20:21.006Z</time></trkpt><trkpt lat="43.4942703" lon="12.5092727"><ele>514.0</ele><time>2026-05-02T09:20:22.003Z</time></trkpt><trkpt lat="43.4943752" lon="12.5093085"><ele>514.0</ele><time>2026-05-02T09:20:22.997Z</time></trkpt><trkpt lat="43.4944681" lon="12.5093495"><ele>514.0</ele><time>2026-05-02T09:20:24.008Z</time></trkpt><trkpt lat="43.4945435" lon="12.5093873"><ele>514.0</ele><time>2026-05-02T09:20:25.006Z</time></trkpt><trkpt lat="43.4946111" lon="12.5094125"><ele>511.83333333333337</ele><time>2026-05-02T09:20:26.009Z</time></trkpt><trkpt lat="43.4946798" lon="12.5094015"><ele>509.6666666666667</ele><time>2026-05-02T09:20:27.003Z</time></trkpt><trkpt lat="43.4947423" lon="12.5093596"><ele>507.5</ele><time>2026-05-02T09:20:28.016Z</time></trkpt><trkpt lat="43.494804" lon="12.5092991"><ele>505.33333333333337</ele><time>2026-05-02T09:20:29.003Z</time></trkpt><trkpt lat="43.4948606" lon="12.5092507"><ele>503.1666666666667</ele><time>2026-05-02T09:20:30.008Z</time></trkpt><trkpt lat="43.4949454" lon="12.5092324"><ele>501.0</ele><time>2026-05-02T09:20:32.007Z</time></trkpt><trkpt lat="43.4949775" lon="12.5093634"><ele>501.0</ele><time>2026-05-02T09:20:33.999Z</time></trkpt><trkpt lat="43.4949283" lon="12.5095048"><ele>501.0</ele><time>2026-05-02T09:20:36.011Z</time></trkpt><trkpt lat="43.494889" lon="12.5095815"><ele>501.0</ele><time>2026-05-02T09:20:37.007Z</time></trkpt><trkpt lat="43.4948462" lon="12.5096603"><ele>501.0</ele><time>2026-05-02T09:20:37.997Z</time></trkpt><trkpt lat="43.4947941" lon="12.5097239"><ele>501.0</ele><time>2026-05-02T09:20:39.021Z</time></trkpt><trkpt lat="43.4947293" lon="12.5097798"><ele>501.0</ele><time>2026-05-02T09:20:40.015Z</time></trkpt><trkpt lat="43.4946668" lon="12.5098164"><ele>498.8333333333333</ele><time>2026-05-02T09:20:41.016Z</time></trkpt><trkpt lat="43.4946041" lon="12.5098378"><ele>496.66666666666663</ele><time>2026-05-02T09:20:42.007Z</time></trkpt><trkpt lat="43.4945402" lon="12.5098435"><ele>494.5</ele><time>2026-05-02T09:20:43.012Z</time></trkpt><trkpt lat="43.4944367" lon="12.5098542"><ele>492.3333333333333</ele><time>2026-05-02T09:20:45.004Z</time></trkpt><trkpt lat="43.4944104" lon="12.5099452"><ele>490.16666666666663</ele><time>2026-05-02T09:20:47.008Z</time></trkpt><trkpt lat="43.4944542" lon="12.510016"><ele>488.0</ele><time>2026-05-02T09:20:49.014Z</time></trkpt><trkpt lat="43.4945493" lon="12.510055"><ele>487.99999999999994</ele><time>2026-05-02T09:20:51.007Z</time></trkpt><trkpt lat="43.4946303" lon="12.5100718"><ele>488.0</ele><time>2026-05-02T09:20:52.011Z</time></trkpt><trkpt lat="43.4947245" lon="12.5100945"><ele>488.0</ele><time>2026-05-02T09:20:53Z</time></trkpt><trkpt lat="43.4948154" lon="12.5101117"><ele>488.0</ele><time>2026-05-02T09:20:54.006Z</time></trkpt><trkpt lat="43.4948964" lon="12.5101353"><ele>487.99999999999994</ele><time>2026-05-02T09:20:55.011Z</time></trkpt><trkpt lat="43.4949733" lon="12.5101706"><ele>488.0</ele><time>2026-05-02T09:20:56.013Z</time></trkpt><trkpt lat="43.4950375" lon="12.5102228"><ele>488.0</ele><time>2026-05-02T09:20:57.008Z</time></trkpt><trkpt lat="43.4950862" lon="12.510304"><ele>487.99999999999994</ele><time>2026-05-02T09:20:58.008Z</time></trkpt><trkpt lat="43.4951296" lon="12.5104211"><ele>487.99999999999994</ele><time>2026-05-02T09:20:59.003Z</time></trkpt><trkpt lat="43.4951693" lon="12.5105566"><ele>488.0</ele><time>2026-05-02T09:21:00.008Z</time></trkpt><trkpt lat="43.4952069" lon="12.5107199"><ele>488.0</ele><time>2026-05-02T09:21:00.995Z</time></trkpt><trkpt lat="43.4952535" lon="12.5108966"><ele>484.66666666666663</ele><time>2026-05-02T09:21:01.996Z</time></trkpt><trkpt lat="43.4953071" lon="12.5110853"><ele>481.33333333333337</ele><time>2026-05-02T09:21:03.001Z</time></trkpt><trkpt lat="43.4953618" lon="12.5112836"><ele>478.0</ele><time>2026-05-02T09:21:04.002Z</time></trkpt><trkpt lat="43.4954149" lon="12.5114909"><ele>476.75</ele><time>2026-05-02T09:21:04.995Z</time></trkpt><trkpt lat="43.4954709" lon="12.5116964"><ele>475.5</ele><time>2026-05-02T09:21:05.999Z</time></trkpt><trkpt lat="43.4955189" lon="12.5118774"><ele>474.25</ele><time>2026-05-02T09:21:06.996Z</time></trkpt><trkpt lat="43.49557" lon="12.5120449"><ele>473.0</ele><time>2026-05-02T09:21:08.004Z</time></trkpt><trkpt lat="43.4956187" lon="12.5122041"><ele>472.2</ele><time>2026-05-02T09:21:09.007Z</time></trkpt><trkpt lat="43.4956607" lon="12.5123623"><ele>471.4</ele><time>2026-05-02T09:21:10.014Z</time></trkpt><trkpt lat="43.4956998" lon="12.5124955"><ele>470.59999999999997</ele><time>2026-05-02T09:21:11.02Z</time></trkpt><trkpt lat="43.4957252" lon="12.5126217"><ele>469.79999999999995</ele><time>2026-05-02T09:21:12.011Z</time></trkpt><trkpt lat="43.4957302" lon="12.5127546"><ele>469.0</ele><time>2026-05-02T09:21:13.011Z</time></trkpt><trkpt lat="43.4957282" lon="12.5129107"><ele>469.0</ele><time>2026-05-02T09:21:14.026Z</time></trkpt><trkpt lat="43.4957247" lon="12.5130764"><ele>469.0</ele><time>2026-05-02T09:21:15.032Z</time></trkpt><trkpt lat="43.4957189" lon="12.5132298"><ele>469.0</ele><time>2026-05-02T09:21:16.002Z</time></trkpt><trkpt lat="43.4957191" lon="12.513366"><ele>469.0</ele><time>2026-05-02T09:21:17.013Z</time></trkpt><trkpt lat="43.4957228" lon="12.5134855"><ele>469.0</ele><time>2026-05-02T09:21:18.017Z</time></trkpt><trkpt lat="43.4957296" lon="12.5135737"><ele>469.0</ele><time>2026-05-02T09:21:19.021Z</time></trkpt><trkpt lat="43.4958079" lon="12.5136786"><ele>469.0</ele><time>2026-05-02T09:21:21.007Z</time></trkpt><trkpt lat="43.4959166" lon="12.5136652"><ele>469.0</ele><time>2026-05-02T09:21:23.008Z</time></trkpt><trkpt lat="43.495996" lon="12.5136489"><ele>469.0</ele><time>2026-05-02T09:21:24.011Z</time></trkpt><trkpt lat="43.4960927" lon="12.5136425"><ele>469.0</ele><time>2026-05-02T09:21:25Z</time></trkpt><trkpt lat="43.4961986" lon="12.5136478"><ele>468.4</ele><time>2026-05-02T09:21:26.002Z</time></trkpt><trkpt lat="43.4963039" lon="12.5136566"><ele>467.79999999999995</ele><time>2026-05-02T09:21:27.007Z</time></trkpt><trkpt lat="43.4963936" lon="12.5136853"><ele>467.20000000000005</ele><time>2026-05-02T09:21:28.003Z</time></trkpt><trkpt lat="43.4964729" lon="12.513744"><ele>466.6</ele><time>2026-05-02T09:21:29.002Z</time></trkpt><trkpt lat="43.4965415" lon="12.5138272"><ele>466.0</ele><time>2026-05-02T09:21:30.008Z</time></trkpt><trkpt lat="43.4965952" lon="12.5139273"><ele>467.1666666666667</ele><time>2026-05-02T09:21:31.001Z</time></trkpt><trkpt lat="43.4966412" lon="12.5140115"><ele>468.33333333333337</ele><time>2026-05-02T09:21:32.001Z</time></trkpt><trkpt lat="43.496696" lon="12.514093"><ele>469.5</ele><time>2026-05-02T09:21:32.998Z</time></trkpt><trkpt lat="43.4967607" lon="12.5141541"><ele>470.66666666666663</ele><time>2026-05-02T09:21:34.006Z</time></trkpt><trkpt lat="43.4968314" lon="12.5142163"><ele>471.8333333333333</ele><time>2026-05-02T09:21:35.008Z</time></trkpt><trkpt lat="43.4969165" lon="12.5142634"><ele>473.0</ele><time>2026-05-02T09:21:35.993Z</time></trkpt><trkpt lat="43.4970058" lon="12.5143096"><ele>473.3333333333333</ele><time>2026-05-02T09:21:37.003Z</time></trkpt><trkpt lat="43.4970912" lon="12.5143581"><ele>473.66666666666663</ele><time>2026-05-02T09:21:38Z</time></trkpt><trkpt lat="43.4971605" lon="12.5144148"><ele>474.0</ele><time>2026-05-02T09:21:39.001Z</time></trkpt><trkpt lat="43.4972202" lon="12.5144746"><ele>474.33333333333337</ele><time>2026-05-02T09:21:39.999Z</time></trkpt><trkpt lat="43.4972778" lon="12.5145507"><ele>474.6666666666667</ele><time>2026-05-02T09:21:41.008Z</time></trkpt><trkpt lat="43.4973427" lon="12.5146476"><ele>475.0</ele><time>2026-05-02T09:21:42.004Z</time></trkpt><trkpt lat="43.4974107" lon="12.5147514"><ele>475.0</ele><time>2026-05-02T09:21:43.003Z</time></trkpt><trkpt lat="43.4974662" lon="12.5148579"><ele>475.0</ele><time>2026-05-02T09:21:44.013Z</time></trkpt><trkpt lat="43.4975131" lon="12.5149583"><ele>475.0</ele><time>2026-05-02T09:21:44.998Z</time></trkpt><trkpt lat="43.497562" lon="12.5150682"><ele>475.0</ele><time>2026-05-02T09:21:46.011Z</time></trkpt><trkpt lat="43.4976149" lon="12.5151873"><ele>475.0</ele><time>2026-05-02T09:21:47.017Z</time></trkpt><trkpt lat="43.4976778" lon="12.5153205"><ele>477.00000000000006</ele><time>2026-05-02T09:21:48.011Z</time></trkpt><trkpt lat="43.4977338" lon="12.5154345"><ele>479.0</ele><time>2026-05-02T09:21:48.998Z</time></trkpt><trkpt lat="43.4977827" lon="12.5155194"><ele>481.0</ele><time>2026-05-02T09:21:50.01Z</time></trkpt><trkpt lat="43.4978362" lon="12.5155843"><ele>483.0</ele><time>2026-05-02T09:21:51.007Z</time></trkpt><trkpt lat="43.4979082" lon="12.5156662"><ele>485.00000000000006</ele><time>2026-05-02T09:21:53.023Z</time></trkpt><trkpt lat="43.4978755" lon="12.5157552"><ele>487.0</ele><time>2026-05-02T09:21:57.007Z</time></trkpt><trkpt lat="43.497763" lon="12.5156801"><ele>487.0</ele><time>2026-05-02T09:21:59.004Z</time></trkpt><trkpt lat="43.4976874" lon="12.5155953"><ele>487.00000000000006</ele><time>2026-05-02T09:21:59.999Z</time></trkpt><trkpt lat="43.4976035" lon="12.5154934"><ele>487.00000000000006</ele><time>2026-05-02T09:22:01.001Z</time></trkpt><trkpt lat="43.4975189" lon="12.5153938"><ele>487.0</ele><time>2026-05-02T09:22:01.996Z</time></trkpt><trkpt lat="43.49744" lon="12.5153022"><ele>487.0</ele><time>2026-05-02T09:22:02.995Z</time></trkpt><trkpt lat="43.4973697" lon="12.5152275"><ele>486.0</ele><time>2026-05-02T09:22:03.999Z</time></trkpt><trkpt lat="43.4973119" lon="12.5151703"><ele>485.00000000000006</ele><time>2026-05-02T09:22:05.008Z</time></trkpt><trkpt lat="43.4972401" lon="12.5151081"><ele>484.00000000000006</ele><time>2026-05-02T09:22:06.022Z</time></trkpt><trkpt lat="43.4971529" lon="12.5150513"><ele>483.0</ele><time>2026-05-02T09:22:07.002Z</time></trkpt><trkpt lat="43.4970587" lon="12.5150202"><ele>482.0</ele><time>2026-05-02T09:22:08.009Z</time></trkpt><trkpt lat="43.4969515" lon="12.5150152"><ele>481.99999999999994</ele><time>2026-05-02T09:22:09.004Z</time></trkpt><trkpt lat="43.4968404" lon="12.5150185"><ele>482.0</ele><time>2026-05-02T09:22:10.006Z</time></trkpt><trkpt lat="43.4967409" lon="12.5150285"><ele>482.0</ele><time>2026-05-02T09:22:11.008Z</time></trkpt><trkpt lat="43.496661" lon="12.515042"><ele>482.0</ele><time>2026-05-02T09:22:12.001Z</time></trkpt><trkpt lat="43.4965925" lon="12.5150512"><ele>481.99999999999994</ele><time>2026-05-02T09:22:12.999Z</time></trkpt><trkpt lat="43.4965071" lon="12.5150636"><ele>482.0</ele><time>2026-05-02T09:22:14.011Z</time></trkpt><trkpt lat="43.4964159" lon="12.5150801"><ele>481.99999999999994</ele><time>2026-05-02T09:22:15.017Z</time></trkpt><trkpt lat="43.4963441" lon="12.5151061"><ele>482.0</ele><time>2026-05-02T09:22:16.015Z</time></trkpt><trkpt lat="43.4962761" lon="12.5151605"><ele>482.0</ele><time>2026-05-02T09:22:17.014Z</time></trkpt><trkpt lat="43.4962202" lon="12.5152356"><ele>482.0</ele><time>2026-05-02T09:22:18.005Z</time></trkpt><trkpt lat="43.4961845" lon="12.5153391"><ele>481.99999999999994</ele><time>2026-05-02T09:22:19.004Z</time></trkpt><trkpt lat="43.4961831" lon="12.515449"><ele>482.0</ele><time>2026-05-02T09:22:20.013Z</time></trkpt><trkpt lat="43.4962066" lon="12.5155692"><ele>485.0</ele><time>2026-05-02T09:22:21.029Z</time></trkpt><trkpt lat="43.4962573" lon="12.5156988"><ele>488.0</ele><time>2026-05-02T09:22:22.011Z</time></trkpt><trkpt lat="43.4963144" lon="12.5158452"><ele>491.0</ele><time>2026-05-02T09:22:23.01Z</time></trkpt><trkpt lat="43.4963726" lon="12.5159985"><ele>494.0</ele><time>2026-05-02T09:22:23.997Z</time></trkpt><trkpt lat="43.496437" lon="12.5161602"><ele>497.0</ele><time>2026-05-02T09:22:25.003Z</time></trkpt><trkpt lat="43.496504" lon="12.5163257"><ele>500.0</ele><time>2026-05-02T09:22:26.003Z</time></trkpt><trkpt lat="43.4965731" lon="12.5164925"><ele>503.0</ele><time>2026-05-02T09:22:27.004Z</time></trkpt><trkpt lat="43.4966434" lon="12.5166616"><ele>506.0</ele><time>2026-05-02T09:22:28.002Z</time></trkpt><trkpt lat="43.4967181" lon="12.5168273"><ele>506.0</ele><time>2026-05-02T09:22:29.002Z</time></trkpt><trkpt lat="43.4967908" lon="12.5169962"><ele>506.0</ele><time>2026-05-02T09:22:30.008Z</time></trkpt><trkpt lat="43.4968679" lon="12.5171641"><ele>506.0</ele><time>2026-05-02T09:22:31.003Z</time></trkpt><trkpt lat="43.4969496" lon="12.5173443"><ele>506.0</ele><time>2026-05-02T09:22:32.004Z</time></trkpt><trkpt lat="43.4970197" lon="12.5175105"><ele>505.0</ele><time>2026-05-02T09:22:32.998Z</time></trkpt><trkpt lat="43.4970737" lon="12.5176526"><ele>504.0</ele><time>2026-05-02T09:22:33.991Z</time></trkpt><trkpt lat="43.4971336" lon="12.5177939"><ele>503.0</ele><time>2026-05-02T09:22:35.005Z</time></trkpt><trkpt lat="43.4971993" lon="12.5179336"><ele>502.0</ele><time>2026-05-02T09:22:36.013Z</time></trkpt><trkpt lat="43.4972596" lon="12.5180623"><ele>504.20000000000005</ele><time>2026-05-02T09:22:36.999Z</time></trkpt><trkpt lat="43.4973183" lon="12.5181681"><ele>506.40000000000003</ele><time>2026-05-02T09:22:38.001Z</time></trkpt><trkpt lat="43.4973839" lon="12.518272"><ele>508.59999999999997</ele><time>2026-05-02T09:22:39.004Z</time></trkpt><trkpt lat="43.4974627" lon="12.5183579"><ele>510.79999999999995</ele><time>2026-05-02T09:22:40.003Z</time></trkpt><trkpt lat="43.4975589" lon="12.5184247"><ele>513.0</ele><time>2026-05-02T09:22:41.01Z</time></trkpt><trkpt lat="43.4976585" lon="12.5184688"><ele>513.0</ele><time>2026-05-02T09:22:42.004Z</time></trkpt><trkpt lat="43.4977642" lon="12.5185164"><ele>513.0</ele><time>2026-05-02T09:22:43.01Z</time></trkpt><trkpt lat="43.4978635" lon="12.5185794"><ele>513.0</ele><time>2026-05-02T09:22:44.002Z</time></trkpt><trkpt lat="43.4979573" lon="12.5186444"><ele>513.0</ele><time>2026-05-02T09:22:44.998Z</time></trkpt><trkpt lat="43.4980277" lon="12.5187219"><ele>513.0</ele><time>2026-05-02T09:22:45.999Z</time></trkpt><trkpt lat="43.4980826" lon="12.5188106"><ele>514.4</ele><time>2026-05-02T09:22:46.999Z</time></trkpt><trkpt lat="43.4981168" lon="12.518893"><ele>515.8</ele><time>2026-05-02T09:22:48.019Z</time></trkpt><trkpt lat="43.4980941" lon="12.5190273"><ele>517.2</ele><time>2026-05-02T09:22:49.998Z</time></trkpt><trkpt lat="43.4979833" lon="12.5190993"><ele>518.6</ele><time>2026-05-02T09:22:52.017Z</time></trkpt><trkpt lat="43.49791" lon="12.5190882"><ele>520.0</ele><time>2026-05-02T09:22:53.005Z</time></trkpt><trkpt lat="43.4978221" lon="12.5190584"><ele>523.5</ele><time>2026-05-02T09:22:54.016Z</time></trkpt><trkpt lat="43.4977196" lon="12.5190116"><ele>527.0</ele><time>2026-05-02T09:22:55.022Z</time></trkpt><trkpt lat="43.4975907" lon="12.5189694"><ele>530.5</ele><time>2026-05-02T09:22:56.017Z</time></trkpt><trkpt lat="43.4974536" lon="12.5189391"><ele>534.0</ele><time>2026-05-02T09:22:57.021Z</time></trkpt><trkpt lat="43.4973128" lon="12.5189552"><ele>534.0</ele><time>2026-05-02T09:22:58.02Z</time></trkpt><trkpt lat="43.4971547" lon="12.5190024"><ele>534.0</ele><time>2026-05-02T09:22:58.999Z</time></trkpt><trkpt lat="43.4969782" lon="12.5190524"><ele>534.0</ele><time>2026-05-02T09:23:00.014Z</time></trkpt><trkpt lat="43.4968068" lon="12.5190881"><ele>535.25</ele><time>2026-05-02T09:23:01Z</time></trkpt><trkpt lat="43.4966518" lon="12.519099"><ele>536.5</ele><time>2026-05-02T09:23:02.002Z</time></trkpt><trkpt lat="43.4965133" lon="12.5190734"><ele>537.75</ele><time>2026-05-02T09:23:03.015Z</time></trkpt><trkpt lat="43.4964056" lon="12.5190173"><ele>539.0</ele><time>2026-05-02T09:23:04.007Z</time></trkpt><trkpt lat="43.4963279" lon="12.5189274"><ele>539.0</ele><time>2026-05-02T09:23:04.999Z</time></trkpt><trkpt lat="43.4962781" lon="12.5187973"><ele>539.0</ele><time>2026-05-02T09:23:06.013Z</time></trkpt><trkpt lat="43.4962498" lon="12.5186232"><ele>539.0</ele><time>2026-05-02T09:23:07.008Z</time></trkpt><trkpt lat="43.4962193" lon="12.5184196"><ele>539.0</ele><time>2026-05-02T09:23:07.991Z</time></trkpt><trkpt lat="43.4961688" lon="12.5182172"><ele>539.0</ele><time>2026-05-02T09:23:09.006Z</time></trkpt><trkpt lat="43.4960876" lon="12.5180238"><ele>539.0</ele><time>2026-05-02T09:23:10Z</time></trkpt><trkpt lat="43.4959757" lon="12.5178293"><ele>539.0</ele><time>2026-05-02T09:23:10.997Z</time></trkpt><trkpt lat="43.4958408" lon="12.5176095"><ele>539.0</ele><time>2026-05-02T09:23:11.999Z</time></trkpt><trkpt lat="43.4956925" lon="12.5173768"><ele>539.0</ele><time>2026-05-02T09:23:13.002Z</time></trkpt><trkpt lat="43.4955493" lon="12.51717"><ele>539.0</ele><time>2026-05-02T09:23:14.004Z</time></trkpt><trkpt lat="43.4954203" lon="12.5169992"><ele>543.3333333333333</ele><time>2026-05-02T09:23:15Z</time></trkpt><trkpt lat="43.4952993" lon="12.5168483"><ele>547.6666666666666</ele><time>2026-05-02T09:23:15.996Z</time></trkpt><trkpt lat="43.4951818" lon="12.5167108"><ele>552.0</ele><time>2026-05-02T09:23:17.006Z</time></trkpt><trkpt lat="43.495061" lon="12.5165875"><ele>552.0</ele><time>2026-05-02T09:23:18.001Z</time></trkpt><trkpt lat="43.4949307" lon="12.5164964"><ele>552.0</ele><time>2026-05-02T09:23:18.998Z</time></trkpt><trkpt lat="43.4948" lon="12.5164263"><ele>552.0</ele><time>2026-05-02T09:23:20.007Z</time></trkpt><trkpt lat="43.4946824" lon="12.5163395"><ele>552.0</ele><time>2026-05-02T09:23:21.026Z</time></trkpt><trkpt lat="43.4945846" lon="12.5162208"><ele>556.6666666666666</ele><time>2026-05-02T09:23:22.001Z</time></trkpt><trkpt lat="43.4944934" lon="12.5160557"><ele>561.3333333333333</ele><time>2026-05-02T09:23:22.994Z</time></trkpt><trkpt lat="43.4944017" lon="12.5158442"><ele>566.0</ele><time>2026-05-02T09:23:24Z</time></trkpt><trkpt lat="43.4943076" lon="12.515588"><ele>562.6666666666666</ele><time>2026-05-02T09:23:25.009Z</time></trkpt><trkpt lat="43.4942055" lon="12.5153309"><ele>559.3333333333334</ele><time>2026-05-02T09:23:26.003Z</time></trkpt><trkpt lat="43.494114" lon="12.5151045"><ele>556.0</ele><time>2026-05-02T09:23:27.003Z</time></trkpt><trkpt lat="43.4940362" lon="12.5149298"><ele>556.0</ele><time>2026-05-02T09:23:27.999Z</time></trkpt><trkpt lat="43.49397" lon="12.5147874"><ele>556.0</ele><time>2026-05-02T09:23:29.003Z</time></trkpt><trkpt lat="43.493901" lon="12.5146587"><ele>556.0</ele><time>2026-05-02T09:23:30.006Z</time></trkpt><trkpt lat="43.4938165" lon="12.5145607"><ele>556.0</ele><time>2026-05-02T09:23:31.008Z</time></trkpt><trkpt lat="43.4937172" lon="12.5145054"><ele>558.4</ele><time>2026-05-02T09:23:32.009Z</time></trkpt><trkpt lat="43.4936038" lon="12.5144692"><ele>560.8</ele><time>2026-05-02T09:23:33.007Z</time></trkpt><trkpt lat="43.4934975" lon="12.5144641"><ele>563.1999999999999</ele><time>2026-05-02T09:23:33.999Z</time></trkpt><trkpt lat="43.4933976" lon="12.5144866"><ele>565.6</ele><time>2026-05-02T09:23:35.009Z</time></trkpt><trkpt lat="43.4933051" lon="12.5145462"><ele>568.0</ele><time>2026-05-02T09:23:36.006Z</time></trkpt><trkpt lat="43.4932216" lon="12.5146428"><ele>568.0</ele><time>2026-05-02T09:23:37.006Z</time></trkpt><trkpt lat="43.4931267" lon="12.5147891"><ele>568.0</ele><time>2026-05-02T09:23:38.004Z</time></trkpt><trkpt lat="43.4930196" lon="12.5149428"><ele>568.0</ele><time>2026-05-02T09:23:39.001Z</time></trkpt><trkpt lat="43.4928909" lon="12.5150809"><ele>568.25</ele><time>2026-05-02T09:23:40.014Z</time></trkpt><trkpt lat="43.4927718" lon="12.5151951"><ele>568.5</ele><time>2026-05-02T09:23:41.008Z</time></trkpt><trkpt lat="43.4926641" lon="12.51529"><ele>568.75</ele><time>2026-05-02T09:23:41.997Z</time></trkpt><trkpt lat="43.4925808" lon="12.515397"><ele>569.0</ele><time>2026-05-02T09:23:43.013Z</time></trkpt><trkpt lat="43.4925047" lon="12.515553"><ele>569.0</ele><time>2026-05-02T09:23:44.015Z</time></trkpt><trkpt lat="43.4924352" lon="12.5157307"><ele>569.0</ele><time>2026-05-02T09:23:45.028Z</time></trkpt><trkpt lat="43.4923616" lon="12.5159028"><ele>569.0</ele><time>2026-05-02T09:23:46.008Z</time></trkpt><trkpt lat="43.4922577" lon="12.5160519"><ele>569.0</ele><time>2026-05-02T09:23:47.015Z</time></trkpt><trkpt lat="43.4921206" lon="12.5161954"><ele>567.3333333333333</ele><time>2026-05-02T09:23:48.01Z</time></trkpt><trkpt lat="43.4919661" lon="12.5163202"><ele>565.6666666666666</ele><time>2026-05-02T09:23:49.006Z</time></trkpt><trkpt lat="43.4917953" lon="12.5164387"><ele>564.0</ele><time>2026-05-02T09:23:50Z</time></trkpt><trkpt lat="43.4916046" lon="12.516535"><ele>564.0</ele><time>2026-05-02T09:23:51.006Z</time></trkpt><trkpt lat="43.4914026" lon="12.516609"><ele>564.0</ele><time>2026-05-02T09:23:52.016Z</time></trkpt><trkpt lat="43.4912053" lon="12.5166686"><ele>564.0</ele><time>2026-05-02T09:23:53.014Z</time></trkpt><trkpt lat="43.4910376" lon="12.5167002"><ele>563.8</ele><time>2026-05-02T09:23:53.999Z</time></trkpt><trkpt lat="43.4909084" lon="12.5167279"><ele>563.5999999999999</ele><time>2026-05-02T09:23:55.001Z</time></trkpt><trkpt lat="43.4908059" lon="12.5167594"><ele>563.4</ele><time>2026-05-02T09:23:55.999Z</time></trkpt><trkpt lat="43.4907261" lon="12.5167789"><ele>563.1999999999999</ele><time>2026-05-02T09:23:57.008Z</time></trkpt><trkpt lat="43.49066" lon="12.5168112"><ele>563.0</ele><time>2026-05-02T09:23:58.009Z</time></trkpt><trkpt lat="43.4906018" lon="12.5168519"><ele>563.0</ele><time>2026-05-02T09:23:59.009Z</time></trkpt><trkpt lat="43.4905499" lon="12.5169112"><ele>563.0</ele><time>2026-05-02T09:24:00.02Z</time></trkpt><trkpt lat="43.4904885" lon="12.5170283"><ele>563.0</ele><time>2026-05-02T09:24:02.006Z</time></trkpt><trkpt lat="43.4904712" lon="12.5171598"><ele>563.0</ele><time>2026-05-02T09:24:04.013Z</time></trkpt><trkpt lat="43.4904066" lon="12.5172811"><ele>563.0</ele><time>2026-05-02T09:24:05.999Z</time></trkpt><trkpt lat="43.4904735" lon="12.5171063"><ele>563.0</ele><time>2026-05-02T09:24:19.009Z</time></trkpt><trkpt lat="43.4905287" lon="12.5169796"><ele>563.0</ele><time>2026-05-02T09:24:20.006Z</time></trkpt><trkpt lat="43.4905961" lon="12.5168799"><ele>563.0</ele><time>2026-05-02T09:24:21.021Z</time></trkpt><trkpt lat="43.4906735" lon="12.5167932"><ele>563.0</ele><time>2026-05-02T09:24:22.001Z</time></trkpt><trkpt lat="43.4907785" lon="12.5167434"><ele>563.0</ele><time>2026-05-02T09:24:23.016Z</time></trkpt><trkpt lat="43.4908919" lon="12.516727"><ele>563.0</ele><time>2026-05-02T09:24:24.008Z</time></trkpt><trkpt lat="43.4909924" lon="12.516712"><ele>563.0</ele><time>2026-05-02T09:24:25.013Z</time></trkpt><trkpt lat="43.4910774" lon="12.5166957"><ele>563.0</ele><time>2026-05-02T09:24:26.015Z</time></trkpt><trkpt lat="43.4911511" lon="12.5166766"><ele>563.0</ele><time>2026-05-02T09:24:27.003Z</time></trkpt><trkpt lat="43.4912164" lon="12.5166657"><ele>563.0</ele><time>2026-05-02T09:24:28.004Z</time></trkpt><trkpt lat="43.4912968" lon="12.5166233"><ele>563.0</ele><time>2026-05-02T09:24:30.005Z</time></trkpt><trkpt lat="43.4913041" lon="12.5165231"><ele>563.0</ele><time>2026-05-02T09:24:32.002Z</time></trkpt><trkpt lat="43.4912564" lon="12.5163912"><ele>563.0</ele><time>2026-05-02T09:24:34.016Z</time></trkpt><trkpt lat="43.4912032" lon="12.5162295"><ele>563.0</ele><time>2026-05-02T09:24:36.019Z</time></trkpt><trkpt lat="43.4911579" lon="12.5161473"><ele>563.0</ele><time>2026-05-02T09:24:37.003Z</time></trkpt><trkpt lat="43.491103" lon="12.5160892"><ele>563.0</ele><time>2026-05-02T09:24:38.003Z</time></trkpt><trkpt lat="43.491047" lon="12.516041"><ele>563.0</ele><time>2026-05-02T09:24:38.999Z</time></trkpt><trkpt lat="43.4909786" lon="12.5159914"><ele>561.3333333333333</ele><time>2026-05-02T09:24:40.002Z</time></trkpt><trkpt lat="43.4909082" lon="12.5159633"><ele>559.6666666666666</ele><time>2026-05-02T09:24:40.998Z</time></trkpt><trkpt lat="43.490823" lon="12.5159566"><ele>558.0</ele><time>2026-05-02T09:24:42.006Z</time></trkpt><trkpt lat="43.4907281" lon="12.5159473"><ele>556.3333333333334</ele><time>2026-05-02T09:24:43.012Z</time></trkpt><trkpt lat="43.490637" lon="12.5159366"><ele>554.6666666666667</ele><time>2026-05-02T09:24:44.007Z</time></trkpt><trkpt lat="43.4905563" lon="12.5159369"><ele>553.0</ele><time>2026-05-02T09:24:45.011Z</time></trkpt><trkpt lat="43.4904704" lon="12.5159368"><ele>550.3333333333334</ele><time>2026-05-02T09:24:46.013Z</time></trkpt><trkpt lat="43.4903873" lon="12.5159507"><ele>547.6666666666667</ele><time>2026-05-02T09:24:47.008Z</time></trkpt><trkpt lat="43.4903095" lon="12.5159749"><ele>545.0</ele><time>2026-05-02T09:24:48.004Z</time></trkpt><trkpt lat="43.4902289" lon="12.5160104"><ele>542.3333333333334</ele><time>2026-05-02T09:24:49.003Z</time></trkpt><trkpt lat="43.4901477" lon="12.5160512"><ele>539.6666666666666</ele><time>2026-05-02T09:24:50.019Z</time></trkpt><trkpt lat="43.490075" lon="12.5160938"><ele>537.0</ele><time>2026-05-02T09:24:51.006Z</time></trkpt><trkpt lat="43.4900061" lon="12.5161426"><ele>537.0</ele><time>2026-05-02T09:24:51.996Z</time></trkpt><trkpt lat="43.4899429" lon="12.5161908"><ele>537.0</ele><time>2026-05-02T09:24:53.005Z</time></trkpt><trkpt lat="43.4898775" lon="12.5162421"><ele>537.0</ele><time>2026-05-02T09:24:54.017Z</time></trkpt><trkpt lat="43.4898054" lon="12.51628"><ele>537.0</ele><time>2026-05-02T09:24:55.01Z</time></trkpt><trkpt lat="43.4897177" lon="12.5162722"><ele>537.0</ele><time>2026-05-02T09:24:56.022Z</time></trkpt><trkpt lat="43.4896368" lon="12.5162544"><ele>537.0</ele><time>2026-05-02T09:24:57.001Z</time></trkpt><trkpt lat="43.4895571" lon="12.5162293"><ele>535.0</ele><time>2026-05-02T09:24:58.004Z</time></trkpt><trkpt lat="43.4894748" lon="12.5162194"><ele>533.0</ele><time>2026-05-02T09:24:59.014Z</time></trkpt><trkpt lat="43.4893902" lon="12.5162208"><ele>531.0</ele><time>2026-05-02T09:25:00.024Z</time></trkpt><trkpt lat="43.4893117" lon="12.5162265"><ele>529.0</ele><time>2026-05-02T09:25:01.005Z</time></trkpt><trkpt lat="43.4892371" lon="12.5162287"><ele>527.0</ele><time>2026-05-02T09:25:02.009Z</time></trkpt><trkpt lat="43.4891725" lon="12.5162204"><ele>525.0</ele><time>2026-05-02T09:25:03.022Z</time></trkpt><trkpt lat="43.4891096" lon="12.5161921"><ele>525.0</ele><time>2026-05-02T09:25:04.036Z</time></trkpt><trkpt lat="43.4890541" lon="12.5161463"><ele>525.0</ele><time>2026-05-02T09:25:05.019Z</time></trkpt><trkpt lat="43.4889862" lon="12.5160071"><ele>525.0</ele><time>2026-05-02T09:25:07.001Z</time></trkpt><trkpt lat="43.4889777" lon="12.5159204"><ele>525.0</ele><time>2026-05-02T09:25:08.003Z</time></trkpt><trkpt lat="43.4889899" lon="12.515814"><ele>525.0</ele><time>2026-05-02T09:25:09.017Z</time></trkpt><trkpt lat="43.4890334" lon="12.5156996"><ele>525.0</ele><time>2026-05-02T09:25:10.007Z</time></trkpt><trkpt lat="43.4890839" lon="12.5155707"><ele>525.0</ele><time>2026-05-02T09:25:11.017Z</time></trkpt><trkpt lat="43.4891348" lon="12.5154289"><ele>525.0</ele><time>2026-05-02T09:25:12.01Z</time></trkpt><trkpt lat="43.4891866" lon="12.5152751"><ele>525.0</ele><time>2026-05-02T09:25:13.012Z</time></trkpt><trkpt lat="43.4892413" lon="12.5151215"><ele>525.0</ele><time>2026-05-02T09:25:14.001Z</time></trkpt><trkpt lat="43.489283" lon="12.5149795"><ele>522.6666666666666</ele><time>2026-05-02T09:25:15.004Z</time></trkpt><trkpt lat="43.489314" lon="12.5148577"><ele>520.3333333333334</ele><time>2026-05-02T09:25:16.005Z</time></trkpt><trkpt lat="43.4893377" lon="12.5147584"><ele>518.0</ele><time>2026-05-02T09:25:17.005Z</time></trkpt><trkpt lat="43.489371" lon="12.5146636"><ele>515.6666666666667</ele><time>2026-05-02T09:25:18.005Z</time></trkpt><trkpt lat="43.4894062" lon="12.5145673"><ele>513.3333333333334</ele><time>2026-05-02T09:25:19.009Z</time></trkpt><trkpt lat="43.489442" lon="12.5144862"><ele>511.0</ele><time>2026-05-02T09:25:20.002Z</time></trkpt><trkpt lat="43.4894906" lon="12.5143838"><ele>509.00000000000006</ele><time>2026-05-02T09:25:22.011Z</time></trkpt><trkpt lat="43.4894748" lon="12.5142944"><ele>507.0</ele><time>2026-05-02T09:25:24.006Z</time></trkpt><trkpt lat="43.4893966" lon="12.5142516"><ele>505.0</ele><time>2026-05-02T09:25:26.005Z</time></trkpt><trkpt lat="43.4893271" lon="12.5142474"><ele>503.0</ele><time>2026-05-02T09:25:27.019Z</time></trkpt><trkpt lat="43.4892389" lon="12.5142478"><ele>501.00000000000006</ele><time>2026-05-02T09:25:28.009Z</time></trkpt><trkpt lat="43.4891413" lon="12.5142456"><ele>499.0</ele><time>2026-05-02T09:25:29.006Z</time></trkpt><trkpt lat="43.4890462" lon="12.5142338"><ele>499.0</ele><time>2026-05-02T09:25:30.024Z</time></trkpt><trkpt lat="43.4889432" lon="12.5142217"><ele>499.0</ele><time>2026-05-02T09:25:31.01Z</time></trkpt><trkpt lat="43.4888358" lon="12.5142067"><ele>499.0</ele><time>2026-05-02T09:25:32.001Z</time></trkpt><trkpt lat="43.4887185" lon="12.5142051"><ele>499.0</ele><time>2026-05-02T09:25:33.016Z</time></trkpt><trkpt lat="43.4886029" lon="12.5142212"><ele>499.0</ele><time>2026-05-02T09:25:34.016Z</time></trkpt><trkpt lat="43.4884894" lon="12.5142434"><ele>497.0</ele><time>2026-05-02T09:25:35.008Z</time></trkpt><trkpt lat="43.4883793" lon="12.5142667"><ele>495.0</ele><time>2026-05-02T09:25:36.013Z</time></trkpt><trkpt lat="43.4882736" lon="12.5142695"><ele>493.0</ele><time>2026-05-02T09:25:37.012Z</time></trkpt><trkpt lat="43.4881655" lon="12.5142368"><ele>491.0</ele><time>2026-05-02T09:25:38.003Z</time></trkpt><trkpt lat="43.4880508" lon="12.5141766"><ele>491.0</ele><time>2026-05-02T09:25:39.01Z</time></trkpt><trkpt lat="43.487928" lon="12.5140989"><ele>491.0</ele><time>2026-05-02T09:25:40.005Z</time></trkpt><trkpt lat="43.4877952" lon="12.514019"><ele>491.0</ele><time>2026-05-02T09:25:41.005Z</time></trkpt><trkpt lat="43.4876519" lon="12.5139249"><ele>491.0</ele><time>2026-05-02T09:25:41.998Z</time></trkpt><trkpt lat="43.4875201" lon="12.5138473"><ele>490.4</ele><time>2026-05-02T09:25:42.997Z</time></trkpt><trkpt lat="43.487402" lon="12.5137915"><ele>489.8</ele><time>2026-05-02T09:25:44.008Z</time></trkpt><trkpt lat="43.4873013" lon="12.513749"><ele>489.19999999999993</ele><time>2026-05-02T09:25:45.005Z</time></trkpt><trkpt lat="43.4872044" lon="12.5137186"><ele>488.59999999999997</ele><time>2026-05-02T09:25:46.005Z</time></trkpt><trkpt lat="43.4871038" lon="12.5136983"><ele>488.0</ele><time>2026-05-02T09:25:47.007Z</time></trkpt><trkpt lat="43.4869957" lon="12.5136908"><ele>487.75</ele><time>2026-05-02T09:25:48.022Z</time></trkpt><trkpt lat="43.4868778" lon="12.513703"><ele>487.5</ele><time>2026-05-02T09:25:49.011Z</time></trkpt><trkpt lat="43.4867648" lon="12.5137167"><ele>487.25</ele><time>2026-05-02T09:25:49.993Z</time></trkpt><trkpt lat="43.4866548" lon="12.5137488"><ele>487.0</ele><time>2026-05-02T09:25:51.007Z</time></trkpt><trkpt lat="43.486537" lon="12.5137877"><ele>489.5</ele><time>2026-05-02T09:25:51.997Z</time></trkpt><trkpt lat="43.4864196" lon="12.5138418"><ele>492.0</ele><time>2026-05-02T09:25:53.003Z</time></trkpt><trkpt lat="43.4862952" lon="12.5139135"><ele>494.5</ele><time>2026-05-02T09:25:53.997Z</time></trkpt><trkpt lat="43.4861766" lon="12.5140021"><ele>497.0</ele><time>2026-05-02T09:25:54.997Z</time></trkpt><trkpt lat="43.486054" lon="12.5141111"><ele>497.0</ele><time>2026-05-02T09:25:55.991Z</time></trkpt><trkpt lat="43.4859345" lon="12.5142292"><ele>497.0</ele><time>2026-05-02T09:25:56.996Z</time></trkpt><trkpt lat="43.485827" lon="12.5143437"><ele>497.0</ele><time>2026-05-02T09:25:58.001Z</time></trkpt><trkpt lat="43.4857307" lon="12.514451"><ele>497.0</ele><time>2026-05-02T09:25:59.008Z</time></trkpt><trkpt lat="43.4856431" lon="12.5145529"><ele>498.20000000000005</ele><time>2026-05-02T09:25:59.995Z</time></trkpt><trkpt lat="43.4855447" lon="12.5146527"><ele>499.40000000000003</ele><time>2026-05-02T09:26:00.995Z</time></trkpt><trkpt lat="43.4854317" lon="12.5147217"><ele>500.59999999999997</ele><time>2026-05-02T09:26:02Z</time></trkpt><trkpt lat="43.4853331" lon="12.5147672"><ele>501.79999999999995</ele><time>2026-05-02T09:26:02.999Z</time></trkpt><trkpt lat="43.4852514" lon="12.514794"><ele>503.0</ele><time>2026-05-02T09:26:04.001Z</time></trkpt><trkpt lat="43.485183" lon="12.5148282"><ele>503.0</ele><time>2026-05-02T09:26:04.993Z</time></trkpt><trkpt lat="43.485115" lon="12.5148803"><ele>502.99999999999994</ele><time>2026-05-02T09:26:06.003Z</time></trkpt><trkpt lat="43.485042" lon="12.5149662"><ele>502.99999999999994</ele><time>2026-05-02T09:26:07.003Z</time></trkpt><trkpt lat="43.4849559" lon="12.5150786"><ele>503.0</ele><time>2026-05-02T09:26:07.996Z</time></trkpt><trkpt lat="43.484862" lon="12.5151757"><ele>503.0</ele><time>2026-05-02T09:26:09.004Z</time></trkpt><trkpt lat="43.4847527" lon="12.5152501"><ele>503.0</ele><time>2026-05-02T09:26:09.997Z</time></trkpt><trkpt lat="43.4846374" lon="12.5153158"><ele>503.0</ele><time>2026-05-02T09:26:11Z</time></trkpt><trkpt lat="43.484517" lon="12.5153697"><ele>503.0</ele><time>2026-05-02T09:26:11.991Z</time></trkpt><trkpt lat="43.4844095" lon="12.5154349"><ele>503.0</ele><time>2026-05-02T09:26:12.996Z</time></trkpt><trkpt lat="43.4843155" lon="12.5155167"><ele>503.25</ele><time>2026-05-02T09:26:14.001Z</time></trkpt><trkpt lat="43.4842246" lon="12.5156082"><ele>503.5</ele><time>2026-05-02T09:26:15.005Z</time></trkpt><trkpt lat="43.4841355" lon="12.5157188"><ele>503.75</ele><time>2026-05-02T09:26:15.998Z</time></trkpt><trkpt lat="43.4840517" lon="12.5158449"><ele>504.0</ele><time>2026-05-02T09:26:16.998Z</time></trkpt><trkpt lat="43.4839712" lon="12.5160035"><ele>504.0</ele><time>2026-05-02T09:26:18.005Z</time></trkpt><trkpt lat="43.4838911" lon="12.5161844"><ele>504.0</ele><time>2026-05-02T09:26:19.007Z</time></trkpt><trkpt lat="43.4838061" lon="12.5163744"><ele>504.0</ele><time>2026-05-02T09:26:19.996Z</time></trkpt><trkpt lat="43.4837036" lon="12.51656"><ele>503.0</ele><time>2026-05-02T09:26:21.011Z</time></trkpt><trkpt lat="43.4835927" lon="12.5167421"><ele>502.0</ele><time>2026-05-02T09:26:22.002Z</time></trkpt><trkpt lat="43.4834753" lon="12.5169168"><ele>501.0</ele><time>2026-05-02T09:26:23.015Z</time></trkpt><trkpt lat="43.4833548" lon="12.5170862"><ele>506.66666666666663</ele><time>2026-05-02T09:26:23.995Z</time></trkpt><trkpt lat="43.4832396" lon="12.5172404"><ele>512.3333333333333</ele><time>2026-05-02T09:26:25.007Z</time></trkpt><trkpt lat="43.4831185" lon="12.517391"><ele>518.0</ele><time>2026-05-02T09:26:26.002Z</time></trkpt><trkpt lat="43.4829846" lon="12.5175175"><ele>513.0</ele><time>2026-05-02T09:26:26.999Z</time></trkpt><trkpt lat="43.4828355" lon="12.5176356"><ele>508.0</ele><time>2026-05-02T09:26:27.998Z</time></trkpt><trkpt lat="43.482676" lon="12.5177425"><ele>503.0</ele><time>2026-05-02T09:26:29.003Z</time></trkpt><trkpt lat="43.4825172" lon="12.5178399"><ele>507.0</ele><time>2026-05-02T09:26:29.999Z</time></trkpt><trkpt lat="43.4823653" lon="12.5179534"><ele>511.0</ele><time>2026-05-02T09:26:31Z</time></trkpt><trkpt lat="43.4822164" lon="12.5180834"><ele>515.0</ele><time>2026-05-02T09:26:32.001Z</time></trkpt><trkpt lat="43.4820555" lon="12.5182291"><ele>515.0</ele><time>2026-05-02T09:26:33.008Z</time></trkpt><trkpt lat="43.481872" lon="12.518357"><ele>515.0</ele><time>2026-05-02T09:26:33.999Z</time></trkpt><trkpt lat="43.4816939" lon="12.5184865"><ele>515.0</ele><time>2026-05-02T09:26:35.005Z</time></trkpt><trkpt lat="43.4815337" lon="12.518614"><ele>515.0</ele><time>2026-05-02T09:26:36.001Z</time></trkpt><trkpt lat="43.4813841" lon="12.518723"><ele>515.0</ele><time>2026-05-02T09:26:37.002Z</time></trkpt><trkpt lat="43.4812309" lon="12.518816"><ele>515.0</ele><time>2026-05-02T09:26:38.001Z</time></trkpt><trkpt lat="43.481087" lon="12.5188881"><ele>516.5</ele><time>2026-05-02T09:26:38.99Z</time></trkpt><trkpt lat="43.4809582" lon="12.5189371"><ele>518.0</ele><time>2026-05-02T09:26:39.999Z</time></trkpt><trkpt lat="43.4808497" lon="12.5189775"><ele>519.5</ele><time>2026-05-02T09:26:40.997Z</time></trkpt><trkpt lat="43.4807531" lon="12.5190376"><ele>521.0</ele><time>2026-05-02T09:26:42.002Z</time></trkpt><trkpt lat="43.48067" lon="12.5191256"><ele>521.0</ele><time>2026-05-02T09:26:43.002Z</time></trkpt><trkpt lat="43.4805927" lon="12.5192289"><ele>521.0</ele><time>2026-05-02T09:26:44Z</time></trkpt><trkpt lat="43.48051" lon="12.5193512"><ele>521.0</ele><time>2026-05-02T09:26:44.999Z</time></trkpt><trkpt lat="43.4804265" lon="12.5194829"><ele>521.0</ele><time>2026-05-02T09:26:46.005Z</time></trkpt><trkpt lat="43.4803169" lon="12.5196183"><ele>521.5</ele><time>2026-05-02T09:26:47.005Z</time></trkpt><trkpt lat="43.4802047" lon="12.5197484"><ele>522.0</ele><time>2026-05-02T09:26:47.996Z</time></trkpt><trkpt lat="43.4800806" lon="12.5198685"><ele>522.5</ele><time>2026-05-02T09:26:48.995Z</time></trkpt><trkpt lat="43.4799687" lon="12.5199773"><ele>523.0</ele><time>2026-05-02T09:26:49.99Z</time></trkpt><trkpt lat="43.4798496" lon="12.5200939"><ele>523.0</ele><time>2026-05-02T09:26:51.003Z</time></trkpt><trkpt lat="43.4797174" lon="12.520185"><ele>523.0</ele><time>2026-05-02T09:26:51.996Z</time></trkpt><trkpt lat="43.4795872" lon="12.520268"><ele>523.0</ele><time>2026-05-02T09:26:52.995Z</time></trkpt><trkpt lat="43.4794519" lon="12.5203534"><ele>523.0</ele><time>2026-05-02T09:26:53.992Z</time></trkpt><trkpt lat="43.4793137" lon="12.520421"><ele>525.0</ele><time>2026-05-02T09:26:54.993Z</time></trkpt><trkpt lat="43.4791734" lon="12.5204792"><ele>527.0</ele><time>2026-05-02T09:26:56.004Z</time></trkpt><trkpt lat="43.4790445" lon="12.5205273"><ele>529.0</ele><time>2026-05-02T09:26:56.991Z</time></trkpt><trkpt lat="43.4789173" lon="12.5205875"><ele>531.0</ele><time>2026-05-02T09:26:57.994Z</time></trkpt><trkpt lat="43.478806" lon="12.5206429"><ele>529.0</ele><time>2026-05-02T09:26:58.991Z</time></trkpt><trkpt lat="43.4786957" lon="12.5207"><ele>527.0</ele><time>2026-05-02T09:26:59.996Z</time></trkpt><trkpt lat="43.4785687" lon="12.52074"><ele>525.0</ele><time>2026-05-02T09:27:01.004Z</time></trkpt><trkpt lat="43.4784425" lon="12.520772"><ele>523.0</ele><time>2026-05-02T09:27:01.988Z</time></trkpt><trkpt lat="43.4782958" lon="12.5208079"><ele>523.0</ele><time>2026-05-02T09:27:03.006Z</time></trkpt><trkpt lat="43.4781349" lon="12.5208598"><ele>523.0</ele><time>2026-05-02T09:27:03.994Z</time></trkpt><trkpt lat="43.4779585" lon="12.5209122"><ele>523.0</ele><time>2026-05-02T09:27:04.986Z</time></trkpt><trkpt lat="43.4777788" lon="12.5209538"><ele>522.6666666666667</ele><time>2026-05-02T09:27:05.998Z</time></trkpt><trkpt lat="43.4776088" lon="12.5209938"><ele>522.3333333333334</ele><time>2026-05-02T09:27:07.003Z</time></trkpt><trkpt lat="43.4774511" lon="12.5210434"><ele>522.0</ele><time>2026-05-02T09:27:07.985Z</time></trkpt><trkpt lat="43.4772962" lon="12.5210999"><ele>522.0</ele><time>2026-05-02T09:27:08.999Z</time></trkpt><trkpt lat="43.4771431" lon="12.5211598"><ele>522.0</ele><time>2026-05-02T09:27:09.987Z</time></trkpt><trkpt lat="43.4770035" lon="12.521203"><ele>522.0</ele><time>2026-05-02T09:27:11.011Z</time></trkpt><trkpt lat="43.4768788" lon="12.5212526"><ele>522.0</ele><time>2026-05-02T09:27:12.001Z</time></trkpt><trkpt lat="43.47675" lon="12.5213033"><ele>522.25</ele><time>2026-05-02T09:27:13.002Z</time></trkpt><trkpt lat="43.4766189" lon="12.5213809"><ele>522.5</ele><time>2026-05-02T09:27:14.003Z</time></trkpt><trkpt lat="43.4764938" lon="12.5214728"><ele>522.75</ele><time>2026-05-02T09:27:14.997Z</time></trkpt><trkpt lat="43.4763723" lon="12.5215775"><ele>523.0</ele><time>2026-05-02T09:27:15.996Z</time></trkpt><trkpt lat="43.4762574" lon="12.5217047"><ele>523.0</ele><time>2026-05-02T09:27:17.01Z</time></trkpt><trkpt lat="43.4761586" lon="12.5218513"><ele>523.0</ele><time>2026-05-02T09:27:18.006Z</time></trkpt><trkpt lat="43.4760656" lon="12.52202"><ele>523.0</ele><time>2026-05-02T09:27:18.996Z</time></trkpt><trkpt lat="43.4759633" lon="12.5222271"><ele>526.6666666666667</ele><time>2026-05-02T09:27:20.008Z</time></trkpt><trkpt lat="43.4758595" lon="12.5224248"><ele>530.3333333333334</ele><time>2026-05-02T09:27:20.987Z</time></trkpt><trkpt lat="43.4757529" lon="12.5226091"><ele>534.0</ele><time>2026-05-02T09:27:21.995Z</time></trkpt><trkpt lat="43.4756412" lon="12.5227685"><ele>533.3333333333334</ele><time>2026-05-02T09:27:22.992Z</time></trkpt><trkpt lat="43.4755292" lon="12.5229199"><ele>532.6666666666667</ele><time>2026-05-02T09:27:23.995Z</time></trkpt><trkpt lat="43.4754062" lon="12.523068"><ele>532.0</ele><time>2026-05-02T09:27:25.01Z</time></trkpt><trkpt lat="43.4752648" lon="12.5232208"><ele>532.0</ele><time>2026-05-02T09:27:26.014Z</time></trkpt><trkpt lat="43.4751023" lon="12.5233706"><ele>532.0</ele><time>2026-05-02T09:27:26.997Z</time></trkpt><trkpt lat="43.4749369" lon="12.5235325"><ele>532.0</ele><time>2026-05-02T09:27:27.998Z</time></trkpt><trkpt lat="43.4747823" lon="12.5236775"><ele>533.0</ele><time>2026-05-02T09:27:28.995Z</time></trkpt><trkpt lat="43.474642" lon="12.5238123"><ele>534.0</ele><time>2026-05-02T09:27:29.996Z</time></trkpt><trkpt lat="43.4745193" lon="12.5239218"><ele>535.0</ele><time>2026-05-02T09:27:30.992Z</time></trkpt><trkpt lat="43.4744059" lon="12.5240301"><ele>535.0</ele><time>2026-05-02T09:27:32.003Z</time></trkpt><trkpt lat="43.4743073" lon="12.5241525"><ele>535.0</ele><time>2026-05-02T09:27:33.006Z</time></trkpt><trkpt lat="43.4742083" lon="12.5242696"><ele>535.0</ele><time>2026-05-02T09:27:33.989Z</time></trkpt><trkpt lat="43.4741213" lon="12.5243538"><ele>535.0</ele><time>2026-05-02T09:27:34.994Z</time></trkpt><trkpt lat="43.4740485" lon="12.5243908"><ele>535.0</ele><time>2026-05-02T09:27:35.996Z</time></trkpt><trkpt lat="43.4739757" lon="12.5243965"><ele>535.0</ele><time>2026-05-02T09:27:36.994Z</time></trkpt><trkpt lat="43.4738854" lon="12.5243738"><ele>535.0</ele><time>2026-05-02T09:27:37.991Z</time></trkpt><trkpt lat="43.4737709" lon="12.5243304"><ele>535.0</ele><time>2026-05-02T09:27:39.002Z</time></trkpt><trkpt lat="43.4736448" lon="12.5242898"><ele>535.0</ele><time>2026-05-02T09:27:40.001Z</time></trkpt><trkpt lat="43.4735069" lon="12.524252"><ele>534.2</ele><time>2026-05-02T09:27:40.991Z</time></trkpt><trkpt lat="43.473382" lon="12.5242079"><ele>533.4</ele><time>2026-05-02T09:27:41.986Z</time></trkpt><trkpt lat="43.4732721" lon="12.5241837"><ele>532.6</ele><time>2026-05-02T09:27:42.992Z</time></trkpt><trkpt lat="43.4731816" lon="12.5241626"><ele>531.8</ele><time>2026-05-02T09:27:44.009Z</time></trkpt><trkpt lat="43.4730971" lon="12.524136"><ele>531.0</ele><time>2026-05-02T09:27:44.994Z</time></trkpt><trkpt lat="43.4730291" lon="12.5241161"><ele>531.0</ele><time>2026-05-02T09:27:45.996Z</time></trkpt><trkpt lat="43.4729694" lon="12.5240828"><ele>531.0</ele><time>2026-05-02T09:27:47.009Z</time></trkpt><trkpt lat="43.4729192" lon="12.5240265"><ele>531.0</ele><time>2026-05-02T09:27:48Z</time></trkpt><trkpt lat="43.4728734" lon="12.5239423"><ele>531.0</ele><time>2026-05-02T09:27:48.999Z</time></trkpt><trkpt lat="43.4728415" lon="12.523848"><ele>531.0</ele><time>2026-05-02T09:27:50.004Z</time></trkpt><trkpt lat="43.4728099" lon="12.523754"><ele>531.0</ele><time>2026-05-02T09:27:50.998Z</time></trkpt><trkpt lat="43.4727579" lon="12.5236787"><ele>531.0</ele><time>2026-05-02T09:27:51.993Z</time></trkpt><trkpt lat="43.4726815" lon="12.5236133"><ele>528.75</ele><time>2026-05-02T09:27:52.996Z</time></trkpt><trkpt lat="43.4725908" lon="12.5235512"><ele>526.5</ele><time>2026-05-02T09:27:54.001Z</time></trkpt><trkpt lat="43.4724771" lon="12.5234726"><ele>524.25</ele><time>2026-05-02T09:27:54.996Z</time></trkpt><trkpt lat="43.4723449" lon="12.5233732"><ele>522.0</ele><time>2026-05-02T09:27:56.009Z</time></trkpt><trkpt lat="43.4722034" lon="12.5232895"><ele>523.0</ele><time>2026-05-02T09:27:57.008Z</time></trkpt><trkpt lat="43.472057" lon="12.5232306"><ele>524.0</ele><time>2026-05-02T09:27:57.997Z</time></trkpt><trkpt lat="43.4718982" lon="12.5231789"><ele>525.0</ele><time>2026-05-02T09:27:59.01Z</time></trkpt><trkpt lat="43.4717347" lon="12.5231432"><ele>525.0</ele><time>2026-05-02T09:27:59.994Z</time></trkpt><trkpt lat="43.4715749" lon="12.5230979"><ele>525.0</ele><time>2026-05-02T09:28:00.992Z</time></trkpt><trkpt lat="43.4714071" lon="12.523031"><ele>525.0</ele><time>2026-05-02T09:28:02.017Z</time></trkpt><trkpt lat="43.4712378" lon="12.5229409"><ele>526.6666666666666</ele><time>2026-05-02T09:28:02.999Z</time></trkpt><trkpt lat="43.4710645" lon="12.5228364"><ele>528.3333333333333</ele><time>2026-05-02T09:28:03.997Z</time></trkpt><trkpt lat="43.4708958" lon="12.5227279"><ele>530.0</ele><time>2026-05-02T09:28:04.992Z</time></trkpt><trkpt lat="43.4707463" lon="12.5226232"><ele>530.0</ele><time>2026-05-02T09:28:05.994Z</time></trkpt><trkpt lat="43.4706251" lon="12.5225584"><ele>530.0</ele><time>2026-05-02T09:28:06.993Z</time></trkpt><trkpt lat="43.4705287" lon="12.5225081"><ele>530.0</ele><time>2026-05-02T09:28:07.99Z</time></trkpt><trkpt lat="43.4704377" lon="12.5224602"><ele>530.0</ele><time>2026-05-02T09:28:08.989Z</time></trkpt><trkpt lat="43.4703607" lon="12.5223923"><ele>530.0</ele><time>2026-05-02T09:28:09.997Z</time></trkpt><trkpt lat="43.4702959" lon="12.5222933"><ele>531.75</ele><time>2026-05-02T09:28:11.002Z</time></trkpt><trkpt lat="43.4702247" lon="12.5221869"><ele>533.5</ele><time>2026-05-02T09:28:12Z</time></trkpt><trkpt lat="43.4701338" lon="12.5220781"><ele>535.25</ele><time>2026-05-02T09:28:13.003Z</time></trkpt><trkpt lat="43.4700272" lon="12.5219948"><ele>537.0</ele><time>2026-05-02T09:28:14.005Z</time></trkpt><trkpt lat="43.4699084" lon="12.5219071"><ele>537.0</ele><time>2026-05-02T09:28:15.003Z</time></trkpt><trkpt lat="43.4697759" lon="12.521825"><ele>537.0</ele><time>2026-05-02T09:28:16.011Z</time></trkpt><trkpt lat="43.4696379" lon="12.5217469"><ele>537.0</ele><time>2026-05-02T09:28:17.011Z</time></trkpt><trkpt lat="43.4694856" lon="12.5216614"><ele>536.3333333333334</ele><time>2026-05-02T09:28:17.995Z</time></trkpt><trkpt lat="43.4693338" lon="12.5215788"><ele>535.6666666666667</ele><time>2026-05-02T09:28:19.007Z</time></trkpt><trkpt lat="43.4691922" lon="12.521498"><ele>535.0</ele><time>2026-05-02T09:28:19.996Z</time></trkpt><trkpt lat="43.4690695" lon="12.5214169"><ele>535.0</ele><time>2026-05-02T09:28:20.995Z</time></trkpt><trkpt lat="43.4689648" lon="12.5213118"><ele>535.0</ele><time>2026-05-02T09:28:22.003Z</time></trkpt><trkpt lat="43.4688736" lon="12.5211758"><ele>535.0</ele><time>2026-05-02T09:28:23.008Z</time></trkpt><trkpt lat="43.4687956" lon="12.5210206"><ele>535.0</ele><time>2026-05-02T09:28:24Z</time></trkpt><trkpt lat="43.4687263" lon="12.5208391"><ele>536.3333333333334</ele><time>2026-05-02T09:28:25.003Z</time></trkpt><trkpt lat="43.4686613" lon="12.5206277"><ele>537.6666666666666</ele><time>2026-05-02T09:28:26.001Z</time></trkpt><trkpt lat="43.4685948" lon="12.5204249"><ele>539.0</ele><time>2026-05-02T09:28:27.002Z</time></trkpt><trkpt lat="43.4685278" lon="12.5202431"><ele>539.75</ele><time>2026-05-02T09:28:28.003Z</time></trkpt><trkpt lat="43.4684509" lon="12.5200921"><ele>540.5</ele><time>2026-05-02T09:28:29.002Z</time></trkpt><trkpt lat="43.4683615" lon="12.5199491"><ele>541.25</ele><time>2026-05-02T09:28:30.002Z</time></trkpt><trkpt lat="43.4682579" lon="12.5198176"><ele>542.0</ele><time>2026-05-02T09:28:30.995Z</time></trkpt><trkpt lat="43.4681358" lon="12.5196831"><ele>542.3333333333333</ele><time>2026-05-02T09:28:32.004Z</time></trkpt><trkpt lat="43.4680074" lon="12.5195386"><ele>542.6666666666666</ele><time>2026-05-02T09:28:32.991Z</time></trkpt><trkpt lat="43.4678685" lon="12.5193947"><ele>543.0</ele><time>2026-05-02T09:28:33.989Z</time></trkpt><trkpt lat="43.4677468" lon="12.5192578"><ele>543.0</ele><time>2026-05-02T09:28:34.996Z</time></trkpt><trkpt lat="43.4676355" lon="12.5191121"><ele>543.0</ele><time>2026-05-02T09:28:35.997Z</time></trkpt><trkpt lat="43.4675423" lon="12.518988"><ele>543.0</ele><time>2026-05-02T09:28:36.994Z</time></trkpt><trkpt lat="43.4674723" lon="12.5188616"><ele>543.0</ele><time>2026-05-02T09:28:38.004Z</time></trkpt><trkpt lat="43.467415" lon="12.5187138"><ele>546.0</ele><time>2026-05-02T09:28:38.991Z</time></trkpt><trkpt lat="43.4673681" lon="12.5185538"><ele>549.0</ele><time>2026-05-02T09:28:40Z</time></trkpt><trkpt lat="43.4673264" lon="12.5183577"><ele>552.0</ele><time>2026-05-02T09:28:41Z</time></trkpt><trkpt lat="43.4672898" lon="12.5181581"><ele>555.0</ele><time>2026-05-02T09:28:41.997Z</time></trkpt><trkpt lat="43.4672379" lon="12.5179623"><ele>556.8</ele><time>2026-05-02T09:28:42.996Z</time></trkpt><trkpt lat="43.4671948" lon="12.5178096"><ele>558.6</ele><time>2026-05-02T09:28:44.002Z</time></trkpt><trkpt lat="43.4671677" lon="12.5176617"><ele>560.4</ele><time>2026-05-02T09:28:44.991Z</time></trkpt><trkpt lat="43.4671541" lon="12.5175216"><ele>562.2</ele><time>2026-05-02T09:28:45.993Z</time></trkpt><trkpt lat="43.4671303" lon="12.5174067"><ele>564.0</ele><time>2026-05-02T09:28:46.994Z</time></trkpt><trkpt lat="43.4670973" lon="12.5172941"><ele>562.8</ele><time>2026-05-02T09:28:47.998Z</time></trkpt><trkpt lat="43.4670523" lon="12.5171961"><ele>561.5999999999999</ele><time>2026-05-02T09:28:49Z</time></trkpt><trkpt lat="43.4669809" lon="12.5171387"><ele>560.4</ele><time>2026-05-02T09:28:49.995Z</time></trkpt><trkpt lat="43.466905" lon="12.5170892"><ele>559.1999999999999</ele><time>2026-05-02T09:28:50.991Z</time></trkpt><trkpt lat="43.46682" lon="12.5170345"><ele>558.0</ele><time>2026-05-02T09:28:51.997Z</time></trkpt><trkpt lat="43.4667167" lon="12.5169733"><ele>558.0</ele><time>2026-05-02T09:28:53.009Z</time></trkpt><trkpt lat="43.4666038" lon="12.5168773"><ele>558.0</ele><time>2026-05-02T09:28:54.002Z</time></trkpt><trkpt lat="43.4664869" lon="12.5167671"><ele>558.0</ele><time>2026-05-02T09:28:55.006Z</time></trkpt><trkpt lat="43.4663909" lon="12.5166703"><ele>558.0</ele><time>2026-05-02T09:28:56.007Z</time></trkpt><trkpt lat="43.4663093" lon="12.516591"><ele>556.0</ele><time>2026-05-02T09:28:56.995Z</time></trkpt><trkpt lat="43.4662365" lon="12.5165238"><ele>554.0</ele><time>2026-05-02T09:28:58.008Z</time></trkpt><trkpt lat="43.4661666" lon="12.5164616"><ele>552.0</ele><time>2026-05-02T09:28:59.01Z</time></trkpt><trkpt lat="43.4660952" lon="12.5164264"><ele>550.0</ele><time>2026-05-02T09:28:59.999Z</time></trkpt><trkpt lat="43.4660058" lon="12.5164027"><ele>548.0</ele><time>2026-05-02T09:29:01.003Z</time></trkpt><trkpt lat="43.4658917" lon="12.5163884"><ele>548.0</ele><time>2026-05-02T09:29:02.008Z</time></trkpt><trkpt lat="43.4657501" lon="12.5163667"><ele>548.0</ele><time>2026-05-02T09:29:03Z</time></trkpt><trkpt lat="43.4656034" lon="12.5163279"><ele>548.0</ele><time>2026-05-02T09:29:03.998Z</time></trkpt><trkpt lat="43.4654673" lon="12.5162799"><ele>548.0</ele><time>2026-05-02T09:29:05.006Z</time></trkpt><trkpt lat="43.4653487" lon="12.5162274"><ele>551.8</ele><time>2026-05-02T09:29:06.008Z</time></trkpt><trkpt lat="43.4652343" lon="12.5161625"><ele>555.5999999999999</ele><time>2026-05-02T09:29:07.008Z</time></trkpt><trkpt lat="43.4651312" lon="12.5160797"><ele>559.4000000000001</ele><time>2026-05-02T09:29:08.004Z</time></trkpt><trkpt lat="43.4650624" lon="12.5159823"><ele>563.2</ele><time>2026-05-02T09:29:08.997Z</time></trkpt><trkpt lat="43.4650049" lon="12.5158635"><ele>567.0</ele><time>2026-05-02T09:29:10.001Z</time></trkpt><trkpt lat="43.4649531" lon="12.5157387"><ele>567.0</ele><time>2026-05-02T09:29:11.004Z</time></trkpt><trkpt lat="43.4648977" lon="12.5156105"><ele>567.0</ele><time>2026-05-02T09:29:11.998Z</time></trkpt><trkpt lat="43.464834" lon="12.5154607"><ele>567.0</ele><time>2026-05-02T09:29:13.001Z</time></trkpt><trkpt lat="43.4647767" lon="12.515319"><ele>567.0</ele><time>2026-05-02T09:29:14.009Z</time></trkpt><trkpt lat="43.4647214" lon="12.5152054"><ele>565.4</ele><time>2026-05-02T09:29:15.007Z</time></trkpt><trkpt lat="43.4646586" lon="12.5151342"><ele>563.8000000000001</ele><time>2026-05-02T09:29:16.023Z</time></trkpt><trkpt lat="43.4645832" lon="12.5150693"><ele>562.2</ele><time>2026-05-02T09:29:17.023Z</time></trkpt><trkpt lat="43.4644974" lon="12.5150076"><ele>560.6</ele><time>2026-05-02T09:29:18.014Z</time></trkpt><trkpt lat="43.4644149" lon="12.5149394"><ele>559.0</ele><time>2026-05-02T09:29:19.003Z</time></trkpt><trkpt lat="43.4643336" lon="12.514848"><ele>560.8</ele><time>2026-05-02T09:29:20.008Z</time></trkpt><trkpt lat="43.4642698" lon="12.5147423"><ele>562.5999999999999</ele><time>2026-05-02T09:29:21.012Z</time></trkpt><trkpt lat="43.4642323" lon="12.5146195"><ele>564.4</ele><time>2026-05-02T09:29:22.002Z</time></trkpt><trkpt lat="43.4642153" lon="12.5144983"><ele>566.1999999999999</ele><time>2026-05-02T09:29:22.999Z</time></trkpt><trkpt lat="43.4641897" lon="12.5143794"><ele>568.0</ele><time>2026-05-02T09:29:24.001Z</time></trkpt><trkpt lat="43.46414" lon="12.5142886"><ele>568.0</ele><time>2026-05-02T09:29:25Z</time></trkpt><trkpt lat="43.4640755" lon="12.5142427"><ele>568.0</ele><time>2026-05-02T09:29:26.006Z</time></trkpt><trkpt lat="43.463997" lon="12.5142366"><ele>568.0</ele><time>2026-05-02T09:29:27.01Z</time></trkpt><trkpt lat="43.4639164" lon="12.5142403"><ele>568.0</ele><time>2026-05-02T09:29:27.991Z</time></trkpt><trkpt lat="43.4638313" lon="12.5142373"><ele>568.0</ele><time>2026-05-02T09:29:29.012Z</time></trkpt><trkpt lat="43.463739" lon="12.5142209"><ele>568.0</ele><time>2026-05-02T09:29:30.008Z</time></trkpt><trkpt lat="43.463673" lon="12.514169"><ele>571.6666666666667</ele><time>2026-05-02T09:29:31.004Z</time></trkpt><trkpt lat="43.4636213" lon="12.514098"><ele>575.3333333333334</ele><time>2026-05-02T09:29:32.013Z</time></trkpt><trkpt lat="43.4635571" lon="12.5140769"><ele>579.0</ele><time>2026-05-02T09:29:34.005Z</time></trkpt><trkpt lat="43.463548" lon="12.514185"><ele>582.6666666666666</ele><time>2026-05-02T09:29:36.008Z</time></trkpt><trkpt lat="43.4635556" lon="12.5142841"><ele>586.3333333333333</ele><time>2026-05-02T09:29:37.011Z</time></trkpt><trkpt lat="43.4635492" lon="12.5144006"><ele>590.0</ele><time>2026-05-02T09:29:38.01Z</time></trkpt><trkpt lat="43.4635432" lon="12.5145496"><ele>591.4</ele><time>2026-05-02T09:29:38.994Z</time></trkpt><trkpt lat="43.4635456" lon="12.5147035"><ele>592.8</ele><time>2026-05-02T09:29:40.015Z</time></trkpt><trkpt lat="43.4635347" lon="12.5148228"><ele>594.2</ele><time>2026-05-02T09:29:41.014Z</time></trkpt><trkpt lat="43.4634664" lon="12.5149195"><ele>595.6</ele><time>2026-05-02T09:29:43.001Z</time></trkpt><trkpt lat="43.4633671" lon="12.5148386"><ele>597.0</ele><time>2026-05-02T09:29:45.009Z</time></trkpt><trkpt lat="43.4633164" lon="12.5147716"><ele>597.0</ele><time>2026-05-02T09:29:45.994Z</time></trkpt><trkpt lat="43.4632388" lon="12.5146719"><ele>597.0</ele><time>2026-05-02T09:29:47.019Z</time></trkpt><trkpt lat="43.463146" lon="12.5145533"><ele>597.0</ele><time>2026-05-02T09:29:48.009Z</time></trkpt><trkpt lat="43.4630539" lon="12.5144346"><ele>597.0</ele><time>2026-05-02T09:29:49.006Z</time></trkpt><trkpt lat="43.4629649" lon="12.5143264"><ele>601.6</ele><time>2026-05-02T09:29:50.006Z</time></trkpt><trkpt lat="43.4628977" lon="12.5142101"><ele>606.2</ele><time>2026-05-02T09:29:51.02Z</time></trkpt><trkpt lat="43.4628583" lon="12.5141028"><ele>610.8</ele><time>2026-05-02T09:29:52.003Z</time></trkpt><trkpt lat="43.4628421" lon="12.5139623"><ele>615.4</ele><time>2026-05-02T09:29:53.002Z</time></trkpt><trkpt lat="43.4628188" lon="12.5138356"><ele>620.0</ele><time>2026-05-02T09:29:54.002Z</time></trkpt><trkpt lat="43.4627863" lon="12.5137422"><ele>618.0</ele><time>2026-05-02T09:29:55.002Z</time></trkpt><trkpt lat="43.4627273" lon="12.5136521"><ele>616.0</ele><time>2026-05-02T09:29:56.014Z</time></trkpt><trkpt lat="43.4626412" lon="12.5135464"><ele>614.0</ele><time>2026-05-02T09:29:57.024Z</time></trkpt><trkpt lat="43.4625452" lon="12.513433"><ele>612.0</ele><time>2026-05-02T09:29:58.001Z</time></trkpt><trkpt lat="43.4624488" lon="12.5132922"><ele>612.0</ele><time>2026-05-02T09:29:59.024Z</time></trkpt><trkpt lat="43.4623685" lon="12.5131475"><ele>612.0</ele><time>2026-05-02T09:30:00.01Z</time></trkpt><trkpt lat="43.4623045" lon="12.5130178"><ele>612.0</ele><time>2026-05-02T09:30:00.998Z</time></trkpt><trkpt lat="43.4622313" lon="12.5128945"><ele>612.0</ele><time>2026-05-02T09:30:02.019Z</time></trkpt><trkpt lat="43.4621364" lon="12.5127759"><ele>613.25</ele><time>2026-05-02T09:30:03.004Z</time></trkpt><trkpt lat="43.4620432" lon="12.5126527"><ele>614.5</ele><time>2026-05-02T09:30:04.011Z</time></trkpt><trkpt lat="43.4619557" lon="12.5125495"><ele>615.75</ele><time>2026-05-02T09:30:05.011Z</time></trkpt><trkpt lat="43.4618652" lon="12.5124645"><ele>617.0</ele><time>2026-05-02T09:30:06.008Z</time></trkpt><trkpt lat="43.4617698" lon="12.5124186"><ele>617.0</ele><time>2026-05-02T09:30:07.002Z</time></trkpt><trkpt lat="43.4616624" lon="12.5124116"><ele>617.0</ele><time>2026-05-02T09:30:08.03Z</time></trkpt><trkpt lat="43.4615481" lon="12.512403"><ele>617.0</ele><time>2026-05-02T09:30:08.998Z</time></trkpt><trkpt lat="43.4614156" lon="12.5124001"><ele>617.0</ele><time>2026-05-02T09:30:10.02Z</time></trkpt><trkpt lat="43.4612632" lon="12.5124039"><ele>620.2</ele><time>2026-05-02T09:30:11.012Z</time></trkpt><trkpt lat="43.4611157" lon="12.5124036"><ele>623.4000000000001</ele><time>2026-05-02T09:30:12.004Z</time></trkpt><trkpt lat="43.4609961" lon="12.5123915"><ele>626.5999999999999</ele><time>2026-05-02T09:30:13.016Z</time></trkpt><trkpt lat="43.4609012" lon="12.5123735"><ele>629.8</ele><time>2026-05-02T09:30:14.013Z</time></trkpt><trkpt lat="43.4608426" lon="12.5123398"><ele>633.0</ele><time>2026-05-02T09:30:14.992Z</time></trkpt><trkpt lat="43.4607646" lon="12.5122367"><ele>633.0</ele><time>2026-05-02T09:30:17.004Z</time></trkpt><trkpt lat="43.4607735" lon="12.5120802"><ele>633.0</ele><time>2026-05-02T09:30:19.007Z</time></trkpt><trkpt lat="43.4607895" lon="12.5119814"><ele>633.0</ele><time>2026-05-02T09:30:20Z</time></trkpt><trkpt lat="43.4608009" lon="12.5118769"><ele>633.0</ele><time>2026-05-02T09:30:21.006Z</time></trkpt><trkpt lat="43.4608076" lon="12.5117371"><ele>633.0</ele><time>2026-05-02T09:30:22.015Z</time></trkpt><trkpt lat="43.4608058" lon="12.5115573"><ele>631.8</ele><time>2026-05-02T09:30:22.997Z</time></trkpt><trkpt lat="43.4608132" lon="12.5114002"><ele>630.5999999999999</ele><time>2026-05-02T09:30:24.007Z</time></trkpt><trkpt lat="43.4608155" lon="12.5112813"><ele>629.4000000000001</ele><time>2026-05-02T09:30:25.02Z</time></trkpt><trkpt lat="43.4608093" lon="12.511187"><ele>628.2</ele><time>2026-05-02T09:30:26Z</time></trkpt><trkpt lat="43.4607086" lon="12.5110683"><ele>627.0</ele><time>2026-05-02T09:30:28.012Z</time></trkpt><trkpt lat="43.4606312" lon="12.5110422"><ele>626.8000000000001</ele><time>2026-05-02T09:30:29.013Z</time></trkpt><trkpt lat="43.4605459" lon="12.5110491"><ele>626.6</ele><time>2026-05-02T09:30:29.997Z</time></trkpt><trkpt lat="43.4604621" lon="12.5110862"><ele>626.4000000000001</ele><time>2026-05-02T09:30:31.006Z</time></trkpt><trkpt lat="43.460362" lon="12.5111194"><ele>626.2</ele><time>2026-05-02T09:30:32.011Z</time></trkpt><trkpt lat="43.4602615" lon="12.5111457"><ele>626.0</ele><time>2026-05-02T09:30:33Z</time></trkpt><trkpt lat="43.4601519" lon="12.5111483"><ele>626.0</ele><time>2026-05-02T09:30:33.999Z</time></trkpt><trkpt lat="43.4600344" lon="12.5111289"><ele>626.0</ele><time>2026-05-02T09:30:35.012Z</time></trkpt><trkpt lat="43.4599216" lon="12.5111022"><ele>626.0</ele><time>2026-05-02T09:30:35.991Z</time></trkpt><trkpt lat="43.4598246" lon="12.5110869"><ele>626.0</ele><time>2026-05-02T09:30:36.999Z</time></trkpt><trkpt lat="43.4597351" lon="12.5111018"><ele>626.0</ele><time>2026-05-02T09:30:38Z</time></trkpt><trkpt lat="43.459644" lon="12.5111578"><ele>630.75</ele><time>2026-05-02T09:30:39.016Z</time></trkpt><trkpt lat="43.4595622" lon="12.5112408"><ele>635.5</ele><time>2026-05-02T09:30:40.006Z</time></trkpt><trkpt lat="43.4594748" lon="12.5113354"><ele>640.25</ele><time>2026-05-02T09:30:41.003Z</time></trkpt><trkpt lat="43.4593757" lon="12.5114361"><ele>645.0</ele><time>2026-05-02T09:30:42.011Z</time></trkpt><trkpt lat="43.4592735" lon="12.5115346"><ele>645.0</ele><time>2026-05-02T09:30:43.01Z</time></trkpt><trkpt lat="43.4591755" lon="12.5116277"><ele>645.0</ele><time>2026-05-02T09:30:44.021Z</time></trkpt><trkpt lat="43.4590899" lon="12.5116967"><ele>645.0</ele><time>2026-05-02T09:30:45.007Z</time></trkpt><trkpt lat="43.4590122" lon="12.5117425"><ele>645.0</ele><time>2026-05-02T09:30:45.997Z</time></trkpt><trkpt lat="43.4589355" lon="12.51178"><ele>645.0</ele><time>2026-05-02T09:30:47.003Z</time></trkpt><trkpt lat="43.4588403" lon="12.5118184"><ele>646.25</ele><time>2026-05-02T09:30:48.002Z</time></trkpt><trkpt lat="43.458702" lon="12.5118459"><ele>647.5</ele><time>2026-05-02T09:30:48.999Z</time></trkpt><trkpt lat="43.4585471" lon="12.5118547"><ele>648.75</ele><time>2026-05-02T09:30:50.001Z</time></trkpt><trkpt lat="43.4583932" lon="12.5118574"><ele>650.0</ele><time>2026-05-02T09:30:51.001Z</time></trkpt><trkpt lat="43.4582521" lon="12.5118564"><ele>650.0</ele><time>2026-05-02T09:30:51.999Z</time></trkpt><trkpt lat="43.4581195" lon="12.5118716"><ele>650.0</ele><time>2026-05-02T09:30:53.011Z</time></trkpt><trkpt lat="43.4579928" lon="12.5119114"><ele>650.0</ele><time>2026-05-02T09:30:54.014Z</time></trkpt><trkpt lat="43.4578706" lon="12.5119379"><ele>650.0</ele><time>2026-05-02T09:30:55.008Z</time></trkpt><trkpt lat="43.4577453" lon="12.511955"><ele>651.75</ele><time>2026-05-02T09:30:56Z</time></trkpt><trkpt lat="43.4576211" lon="12.511959"><ele>653.5</ele><time>2026-05-02T09:30:57.005Z</time></trkpt><trkpt lat="43.4574935" lon="12.5119442"><ele>655.25</ele><time>2026-05-02T09:30:58.012Z</time></trkpt><trkpt lat="43.45738" lon="12.5119205"><ele>657.0</ele><time>2026-05-02T09:30:59.024Z</time></trkpt><trkpt lat="43.4572845" lon="12.5118975"><ele>657.0</ele><time>2026-05-02T09:31:00.012Z</time></trkpt><trkpt lat="43.4571896" lon="12.5118679"><ele>657.0</ele><time>2026-05-02T09:31:01.002Z</time></trkpt><trkpt lat="43.4571008" lon="12.5118317"><ele>657.0</ele><time>2026-05-02T09:31:02.018Z</time></trkpt><trkpt lat="43.4570339" lon="12.5117665"><ele>657.0</ele><time>2026-05-02T09:31:03.012Z</time></trkpt><trkpt lat="43.4569888" lon="12.5116789"><ele>657.0</ele><time>2026-05-02T09:31:03.987Z</time></trkpt><trkpt lat="43.4569736" lon="12.5115673"><ele>657.0</ele><time>2026-05-02T09:31:05Z</time></trkpt><trkpt lat="43.4569684" lon="12.5114463"><ele>664.5</ele><time>2026-05-02T09:31:05.992Z</time></trkpt><trkpt lat="43.456972" lon="12.511311"><ele>672.0</ele><time>2026-05-02T09:31:06.991Z</time></trkpt><trkpt lat="43.4569883" lon="12.5111587"><ele>679.5</ele><time>2026-05-02T09:31:08.014Z</time></trkpt><trkpt lat="43.457025" lon="12.5109913"><ele>687.0</ele><time>2026-05-02T09:31:09.015Z</time></trkpt><trkpt lat="43.4570687" lon="12.5108339"><ele>687.5</ele><time>2026-05-02T09:31:10.002Z</time></trkpt><trkpt lat="43.4571076" lon="12.5106894"><ele>688.0</ele><time>2026-05-02T09:31:11.004Z</time></trkpt><trkpt lat="43.4571269" lon="12.5105565"><ele>688.5</ele><time>2026-05-02T09:31:12.007Z</time></trkpt><trkpt lat="43.4571219" lon="12.5104467"><ele>689.0</ele><time>2026-05-02T09:31:13.005Z</time></trkpt><trkpt lat="43.4570912" lon="12.5103523"><ele>689.5</ele><time>2026-05-02T09:31:13.998Z</time></trkpt><trkpt lat="43.4570374" lon="12.5102693"><ele>690.0</ele><time>2026-05-02T09:31:15.007Z</time></trkpt><trkpt lat="43.4569746" lon="12.5101816"><ele>687.25</ele><time>2026-05-02T09:31:16.01Z</time></trkpt><trkpt lat="43.4568899" lon="12.5100826"><ele>684.5</ele><time>2026-05-02T09:31:17.018Z</time></trkpt><trkpt lat="43.4567907" lon="12.510007"><ele>681.75</ele><time>2026-05-02T09:31:18.02Z</time></trkpt><trkpt lat="43.4566824" lon="12.5099448"><ele>679.0</ele><time>2026-05-02T09:31:18.998Z</time></trkpt><trkpt lat="43.4565728" lon="12.5098995"><ele>679.0</ele><time>2026-05-02T09:31:20.003Z</time></trkpt><trkpt lat="43.4564801" lon="12.5098714"><ele>679.0</ele><time>2026-05-02T09:31:21.004Z</time></trkpt><trkpt lat="43.4563649" lon="12.5098865"><ele>679.0</ele><time>2026-05-02T09:31:22.006Z</time></trkpt><trkpt lat="43.4562408" lon="12.5099041"><ele>679.0</ele><time>2026-05-02T09:31:23.001Z</time></trkpt><trkpt lat="43.4561005" lon="12.5099247"><ele>680.5</ele><time>2026-05-02T09:31:24.008Z</time></trkpt><trkpt lat="43.455951" lon="12.5099468"><ele>682.0</ele><time>2026-05-02T09:31:25.002Z</time></trkpt><trkpt lat="43.4558153" lon="12.5099574"><ele>683.5</ele><time>2026-05-02T09:31:25.996Z</time></trkpt><trkpt lat="43.455675" lon="12.5099377"><ele>685.0</ele><time>2026-05-02T09:31:27.009Z</time></trkpt><trkpt lat="43.4555349" lon="12.5099342"><ele>686.8</ele><time>2026-05-02T09:31:28Z</time></trkpt><trkpt lat="43.4554162" lon="12.5099238"><ele>688.6</ele><time>2026-05-02T09:31:29Z</time></trkpt><trkpt lat="43.4553123" lon="12.5099021"><ele>690.4000000000001</ele><time>2026-05-02T09:31:29.994Z</time></trkpt><trkpt lat="43.455219" lon="12.5098749"><ele>692.2</ele><time>2026-05-02T09:31:31.008Z</time></trkpt><trkpt lat="43.4551351" lon="12.5098299"><ele>694.0</ele><time>2026-05-02T09:31:31.99Z</time></trkpt><trkpt lat="43.4550597" lon="12.5097275"><ele>694.0</ele><time>2026-05-02T09:31:33.007Z</time></trkpt><trkpt lat="43.454993" lon="12.5096146"><ele>694.0</ele><time>2026-05-02T09:31:33.989Z</time></trkpt><trkpt lat="43.4549221" lon="12.5094949"><ele>694.0</ele><time>2026-05-02T09:31:34.998Z</time></trkpt><trkpt lat="43.4548426" lon="12.5093766"><ele>694.0</ele><time>2026-05-02T09:31:36.002Z</time></trkpt><trkpt lat="43.4547553" lon="12.5092603"><ele>695.0</ele><time>2026-05-02T09:31:37.004Z</time></trkpt><trkpt lat="43.4546542" lon="12.5091365"><ele>696.0</ele><time>2026-05-02T09:31:38.013Z</time></trkpt><trkpt lat="43.4545427" lon="12.5090188"><ele>697.0</ele><time>2026-05-02T09:31:39.003Z</time></trkpt><trkpt lat="43.454426" lon="12.508905"><ele>698.0</ele><time>2026-05-02T09:31:39.998Z</time></trkpt><trkpt lat="43.4543052" lon="12.508793"><ele>691.0</ele><time>2026-05-02T09:31:41.015Z</time></trkpt><trkpt lat="43.4541883" lon="12.5086728"><ele>684.0</ele><time>2026-05-02T09:31:42.005Z</time></trkpt><trkpt lat="43.4540569" lon="12.5085553"><ele>677.0</ele><time>2026-05-02T09:31:42.996Z</time></trkpt><trkpt lat="43.4539046" lon="12.5084496"><ele>683.0</ele><time>2026-05-02T09:31:44.009Z</time></trkpt><trkpt lat="43.4537491" lon="12.5083603"><ele>689.0</ele><time>2026-05-02T09:31:45.003Z</time></trkpt><trkpt lat="43.4535967" lon="12.5082829"><ele>695.0</ele><time>2026-05-02T09:31:45.991Z</time></trkpt><trkpt lat="43.4534724" lon="12.5082133"><ele>695.0</ele><time>2026-05-02T09:31:47.011Z</time></trkpt><trkpt lat="43.4533638" lon="12.5081318"><ele>695.0</ele><time>2026-05-02T09:31:48.003Z</time></trkpt><trkpt lat="43.4532485" lon="12.5080378"><ele>695.0</ele><time>2026-05-02T09:31:48.996Z</time></trkpt><trkpt lat="43.4531231" lon="12.5079482"><ele>695.0</ele><time>2026-05-02T09:31:50.011Z</time></trkpt><trkpt lat="43.4529944" lon="12.5078487"><ele>690.75</ele><time>2026-05-02T09:31:50.998Z</time></trkpt><trkpt lat="43.4528701" lon="12.5077518"><ele>686.5</ele><time>2026-05-02T09:31:51.999Z</time></trkpt><trkpt lat="43.4527561" lon="12.5076653"><ele>682.25</ele><time>2026-05-02T09:31:53.004Z</time></trkpt><trkpt lat="43.4526518" lon="12.5075857"><ele>678.0</ele><time>2026-05-02T09:31:54.005Z</time></trkpt><trkpt lat="43.4525724" lon="12.5075435"><ele>678.0</ele><time>2026-05-02T09:31:55.008Z</time></trkpt><trkpt lat="43.4524555" lon="12.5075538"><ele>678.0</ele><time>2026-05-02T09:31:56.995Z</time></trkpt><trkpt lat="43.4523723" lon="12.5075969"><ele>678.0</ele><time>2026-05-02T09:31:58Z</time></trkpt><trkpt lat="43.45228" lon="12.5076511"><ele>678.0</ele><time>2026-05-02T09:31:59.019Z</time></trkpt><trkpt lat="43.4521671" lon="12.5077016"><ele>678.0</ele><time>2026-05-02T09:32:00.01Z</time></trkpt><trkpt lat="43.4520286" lon="12.507756"><ele>677.25</ele><time>2026-05-02T09:32:01.004Z</time></trkpt><trkpt lat="43.4518914" lon="12.5078083"><ele>676.5</ele><time>2026-05-02T09:32:02.009Z</time></trkpt><trkpt lat="43.451751" lon="12.5078606"><ele>675.75</ele><time>2026-05-02T09:32:03.011Z</time></trkpt><trkpt lat="43.4516386" lon="12.5079073"><ele>675.0</ele><time>2026-05-02T09:32:03.998Z</time></trkpt><trkpt lat="43.4515408" lon="12.5079556"><ele>675.2</ele><time>2026-05-02T09:32:05.004Z</time></trkpt><trkpt lat="43.4514644" lon="12.5080008"><ele>675.4</ele><time>2026-05-02T09:32:06.012Z</time></trkpt><trkpt lat="43.4514045" lon="12.5080719"><ele>675.5999999999999</ele><time>2026-05-02T09:32:06.992Z</time></trkpt><trkpt lat="43.4513566" lon="12.5081699"><ele>675.8</ele><time>2026-05-02T09:32:08.004Z</time></trkpt><trkpt lat="43.4513154" lon="12.5083004"><ele>676.0</ele><time>2026-05-02T09:32:09.008Z</time></trkpt><trkpt lat="43.4512559" lon="12.5084441"><ele>676.0</ele><time>2026-05-02T09:32:10.008Z</time></trkpt><trkpt lat="43.4511765" lon="12.5085936"><ele>676.0</ele><time>2026-05-02T09:32:11.004Z</time></trkpt><trkpt lat="43.451086" lon="12.508753"><ele>676.0</ele><time>2026-05-02T09:32:12.019Z</time></trkpt><trkpt lat="43.4543052" lon="12.508793"><ele>676.3333333333334</ele><time>2026-05-02T09:31:41.015Z</time></trkpt><trkpt lat="43.4541883" lon="12.5086728"><ele>676.6666666666666</ele><time>2026-05-02T09:31:42.005Z</time></trkpt><trkpt lat="43.4540569" lon="12.5085553"><ele>677.0</ele><time>2026-05-02T09:31:42.996Z</time></trkpt><trkpt lat="43.4539046" lon="12.5084496"><ele>683.0</ele><time>2026-05-02T09:31:44.009Z</time></trkpt><trkpt lat="43.4537491" lon="12.5083603"><ele>689.0</ele><time>2026-05-02T09:31:45.003Z</time></trkpt><trkpt lat="43.4535967" lon="12.5082829"><ele>695.0</ele><time>2026-05-02T09:31:45.991Z</time></trkpt><trkpt lat="43.4534724" lon="12.5082133"><ele>695.0</ele><time>2026-05-02T09:31:47.011Z</time></trkpt><trkpt lat="43.4533638" lon="12.5081318"><ele>695.0</ele><time>2026-05-02T09:31:48.003Z</time></trkpt><trkpt lat="43.4532485" lon="12.5080378"><ele>695.0</ele><time>2026-05-02T09:31:48.996Z</time></trkpt><trkpt lat="43.4531231" lon="12.5079482"><ele>695.0</ele><time>2026-05-02T09:31:50.011Z</time></trkpt><trkpt lat="43.4529944" lon="12.5078487"><ele>690.75</ele><time>2026-05-02T09:31:50.998Z</time></trkpt><trkpt lat="43.4528701" lon="12.5077518"><ele>686.5</ele><time>2026-05-02T09:31:51.999Z</time></trkpt><trkpt lat="43.4527561" lon="12.5076653"><ele>682.25</ele><time>2026-05-02T09:31:53.004Z</time></trkpt><trkpt lat="43.4526518" lon="12.5075857"><ele>678.0</ele><time>2026-05-02T09:31:54.005Z</time></trkpt><trkpt lat="43.4525724" lon="12.5075435"><ele>678.0</ele><time>2026-05-02T09:31:55.008Z</time></trkpt><trkpt lat="43.4524555" lon="12.5075538"><ele>678.0</ele><time>2026-05-02T09:31:56.995Z</time></trkpt><trkpt lat="43.4523723" lon="12.5075969"><ele>678.0</ele><time>2026-05-02T09:31:58Z</time></trkpt><trkpt lat="43.45228" lon="12.5076511"><ele>678.0</ele><time>2026-05-02T09:31:59.019Z</time></trkpt><trkpt lat="43.4521671" lon="12.5077016"><ele>678.0</ele><time>2026-05-02T09:32:00.01Z</time></trkpt><trkpt lat="43.4520286" lon="12.507756"><ele>677.25</ele><time>2026-05-02T09:32:01.004Z</time></trkpt><trkpt lat="43.4518914" lon="12.5078083"><ele>676.5</ele><time>2026-05-02T09:32:02.009Z</time></trkpt><trkpt lat="43.451751" lon="12.5078606"><ele>675.75</ele><time>2026-05-02T09:32:03.011Z</time></trkpt><trkpt lat="43.4516386" lon="12.5079073"><ele>675.0</ele><time>2026-05-02T09:32:03.998Z</time></trkpt><trkpt lat="43.4515408" lon="12.5079556"><ele>675.2</ele><time>2026-05-02T09:32:05.004Z</time></trkpt><trkpt lat="43.4514644" lon="12.5080008"><ele>675.4</ele><time>2026-05-02T09:32:06.012Z</time></trkpt><trkpt lat="43.4514045" lon="12.5080719"><ele>675.5999999999999</ele><time>2026-05-02T09:32:06.992Z</time></trkpt><trkpt lat="43.4513566" lon="12.5081699"><ele>675.8</ele><time>2026-05-02T09:32:08.004Z</time></trkpt><trkpt lat="43.4513154" lon="12.5083004"><ele>676.0</ele><time>2026-05-02T09:32:09.008Z</time></trkpt><trkpt lat="43.4512559" lon="12.5084441"><ele>676.0</ele><time>2026-05-02T09:32:10.008Z</time></trkpt><trkpt lat="43.4511765" lon="12.5085936"><ele>676.0</ele><time>2026-05-02T09:32:11.004Z</time></trkpt><trkpt lat="43.451086" lon="12.508753"><ele>676.0</ele><time>2026-05-02T09:32:12.019Z</time></trkpt><trkpt lat="43.4509914" lon="12.508921"><ele>676.0</ele><time>2026-05-02T09:32:13.006Z</time></trkpt><trkpt lat="43.4509091" lon="12.5090716"><ele>677.8</ele><time>2026-05-02T09:32:13.991Z</time></trkpt><trkpt lat="43.4508567" lon="12.5091791"><ele>679.5999999999999</ele><time>2026-05-02T09:32:15.002Z</time></trkpt><trkpt lat="43.4508243" lon="12.5092608"><ele>681.4</ele><time>2026-05-02T09:32:16.007Z</time></trkpt><trkpt lat="43.4508452" lon="12.5093779"><ele>683.2</ele><time>2026-05-02T09:32:18.012Z</time></trkpt><trkpt lat="43.4509564" lon="12.5094373"><ele>685.0</ele><time>2026-05-02T09:32:19.995Z</time></trkpt><trkpt lat="43.4510361" lon="12.5094706"><ele>685.0</ele><time>2026-05-02T09:32:21.008Z</time></trkpt><trkpt lat="43.4511487" lon="12.5095282"><ele>685.0</ele><time>2026-05-02T09:32:22.005Z</time></trkpt><trkpt lat="43.4512661" lon="12.5095958"><ele>685.0</ele><time>2026-05-02T09:32:23.009Z</time></trkpt><trkpt lat="43.4513892" lon="12.509656"><ele>685.0</ele><time>2026-05-02T09:32:24.004Z</time></trkpt><trkpt lat="43.4515127" lon="12.5096897"><ele>692.0</ele><time>2026-05-02T09:32:25.004Z</time></trkpt><trkpt lat="43.451635" lon="12.5097133"><ele>699.0</ele><time>2026-05-02T09:32:25.999Z</time></trkpt><trkpt lat="43.4517485" lon="12.5097175"><ele>706.0</ele><time>2026-05-02T09:32:26.998Z</time></trkpt><trkpt lat="43.4518725" lon="12.5096863"><ele>713.0</ele><time>2026-05-02T09:32:28.007Z</time></trkpt><trkpt lat="43.4520093" lon="12.5096245"><ele>711.5999999999999</ele><time>2026-05-02T09:32:29.004Z</time></trkpt><trkpt lat="43.4521354" lon="12.509553"><ele>710.1999999999999</ele><time>2026-05-02T09:32:30.005Z</time></trkpt><trkpt lat="43.4522449" lon="12.5094872"><ele>708.8</ele><time>2026-05-02T09:32:30.996Z</time></trkpt><trkpt lat="43.4523318" lon="12.5094349"><ele>707.4</ele><time>2026-05-02T09:32:31.987Z</time></trkpt><trkpt lat="43.4524123" lon="12.5094114"><ele>706.0</ele><time>2026-05-02T09:32:33.003Z</time></trkpt><trkpt lat="43.4524785" lon="12.5094116"><ele>706.0</ele><time>2026-05-02T09:32:33.996Z</time></trkpt><trkpt lat="43.4525454" lon="12.5094251"><ele>706.0</ele><time>2026-05-02T09:32:35.005Z</time></trkpt><trkpt lat="43.4526295" lon="12.5094597"><ele>706.0</ele><time>2026-05-02T09:32:36Z</time></trkpt><trkpt lat="43.4527295" lon="12.5095006"><ele>706.0</ele><time>2026-05-02T09:32:36.995Z</time></trkpt><trkpt lat="43.4528352" lon="12.5095583"><ele>706.0</ele><time>2026-05-02T09:32:38.013Z</time></trkpt><trkpt lat="43.4529418" lon="12.5096181"><ele>710.25</ele><time>2026-05-02T09:32:39.002Z</time></trkpt><trkpt lat="43.4530386" lon="12.5096863"><ele>714.5</ele><time>2026-05-02T09:32:39.999Z</time></trkpt><trkpt lat="43.4531314" lon="12.5097648"><ele>718.75</ele><time>2026-05-02T09:32:41.002Z</time></trkpt><trkpt lat="43.4532371" lon="12.509852"><ele>723.0</ele><time>2026-05-02T09:32:42.001Z</time></trkpt><trkpt lat="43.4533433" lon="12.5099472"><ele>723.0</ele><time>2026-05-02T09:32:43.005Z</time></trkpt><trkpt lat="43.4534546" lon="12.5100375"><ele>723.0</ele><time>2026-05-02T09:32:44.008Z</time></trkpt><trkpt lat="43.4535587" lon="12.5101033"><ele>723.0</ele><time>2026-05-02T09:32:45.004Z</time></trkpt><trkpt lat="43.4536487" lon="12.5101404"><ele>723.0</ele><time>2026-05-02T09:32:46.012Z</time></trkpt><trkpt lat="43.4537169" lon="12.5101686"><ele>723.0</ele><time>2026-05-02T09:32:47.004Z</time></trkpt><trkpt lat="43.4537852" lon="12.510217"><ele>722.0</ele><time>2026-05-02T09:32:48.009Z</time></trkpt><trkpt lat="43.4538335" lon="12.5102953"><ele>721.0</ele><time>2026-05-02T09:32:48.994Z</time></trkpt><trkpt lat="43.4538738" lon="12.5103942"><ele>720.0</ele><time>2026-05-02T09:32:49.995Z</time></trkpt><trkpt lat="43.4539147" lon="12.5105027"><ele>719.0</ele><time>2026-05-02T09:32:51.002Z</time></trkpt><trkpt lat="43.4539445" lon="12.5106248"><ele>718.0</ele><time>2026-05-02T09:32:52.004Z</time></trkpt><trkpt lat="43.4539617" lon="12.5107416"><ele>717.0</ele><time>2026-05-02T09:32:53.003Z</time></trkpt><trkpt lat="43.4539649" lon="12.5108612"><ele>717.0</ele><time>2026-05-02T09:32:54.003Z</time></trkpt><trkpt lat="43.453951" lon="12.5109863"><ele>717.0</ele><time>2026-05-02T09:32:55.013Z</time></trkpt><trkpt lat="43.4539291" lon="12.5111194"><ele>717.0</ele><time>2026-05-02T09:32:55.997Z</time></trkpt><trkpt lat="43.453899" lon="12.5112701"><ele>717.0</ele><time>2026-05-02T09:32:56.996Z</time></trkpt><trkpt lat="43.4538647" lon="12.5114353"><ele>717.0</ele><time>2026-05-02T09:32:58.003Z</time></trkpt><trkpt lat="43.4538384" lon="12.5116374"><ele>718.25</ele><time>2026-05-02T09:32:59.008Z</time></trkpt><trkpt lat="43.4538149" lon="12.5118389"><ele>719.5</ele><time>2026-05-02T09:32:59.999Z</time></trkpt><trkpt lat="43.4537955" lon="12.5120104"><ele>720.75</ele><time>2026-05-02T09:33:00.999Z</time></trkpt><trkpt lat="43.4537954" lon="12.5121627"><ele>722.0</ele><time>2026-05-02T09:33:01.996Z</time></trkpt><trkpt lat="43.453821" lon="12.5122984"><ele>725.0</ele><time>2026-05-02T09:33:02.998Z</time></trkpt><trkpt lat="43.4538685" lon="12.5124227"><ele>728.0</ele><time>2026-05-02T09:33:04Z</time></trkpt><trkpt lat="43.4539314" lon="12.5125327"><ele>731.0</ele><time>2026-05-02T09:33:05.01Z</time></trkpt><trkpt lat="43.454024" lon="12.5126413"><ele>734.0</ele><time>2026-05-02T09:33:06.004Z</time></trkpt><trkpt lat="43.4541266" lon="12.5127708"><ele>734.0</ele><time>2026-05-02T09:33:06.999Z</time></trkpt><trkpt lat="43.4542379" lon="12.512897"><ele>734.0</ele><time>2026-05-02T09:33:08Z</time></trkpt><trkpt lat="43.4543524" lon="12.5130063"><ele>734.0</ele><time>2026-05-02T09:33:09.007Z</time></trkpt><trkpt lat="43.4544594" lon="12.5130901"><ele>734.0</ele><time>2026-05-02T09:33:10.015Z</time></trkpt><trkpt lat="43.4545364" lon="12.5131527"><ele>735.3333333333333</ele><time>2026-05-02T09:33:10.997Z</time></trkpt><trkpt lat="43.4545906" lon="12.5132126"><ele>736.6666666666666</ele><time>2026-05-02T09:33:11.997Z</time></trkpt><trkpt lat="43.4546226" lon="12.513359"><ele>738.0</ele><time>2026-05-02T09:33:13.999Z</time></trkpt><trkpt lat="43.4545324" lon="12.513456"><ele>739.3333333333334</ele><time>2026-05-02T09:33:15.999Z</time></trkpt><trkpt lat="43.454468" lon="12.5134685"><ele>740.6666666666667</ele><time>2026-05-02T09:33:17.018Z</time></trkpt><trkpt lat="43.4543955" lon="12.5134573"><ele>742.0</ele><time>2026-05-02T09:33:18.008Z</time></trkpt><trkpt lat="43.4543054" lon="12.5134295"><ele>744.2</ele><time>2026-05-02T09:33:19.018Z</time></trkpt><trkpt lat="43.4542152" lon="12.5133805"><ele>746.4000000000001</ele><time>2026-05-02T09:33:20.014Z</time></trkpt><trkpt lat="43.454132" lon="12.5133078"><ele>748.5999999999999</ele><time>2026-05-02T09:33:21.001Z</time></trkpt><trkpt lat="43.4540578" lon="12.5132427"><ele>750.8</ele><time>2026-05-02T09:33:22.019Z</time></trkpt><trkpt lat="43.4539706" lon="12.513198"><ele>753.0</ele><time>2026-05-02T09:33:23.016Z</time></trkpt><trkpt lat="43.4538787" lon="12.5131691"><ele>757.0</ele><time>2026-05-02T09:33:24.005Z</time></trkpt><trkpt lat="43.453774" lon="12.5131516"><ele>761.0</ele><time>2026-05-02T09:33:25.004Z</time></trkpt><trkpt lat="43.4536569" lon="12.513121"><ele>765.0</ele><time>2026-05-02T09:33:26.014Z</time></trkpt><trkpt lat="43.4535188" lon="12.5130507"><ele>769.0</ele><time>2026-05-02T09:33:27.002Z</time></trkpt><trkpt lat="43.4533857" lon="12.512948"><ele>768.6666666666666</ele><time>2026-05-02T09:33:28.004Z</time></trkpt><trkpt lat="43.4532331" lon="12.5128533"><ele>768.3333333333333</ele><time>2026-05-02T09:33:29.011Z</time></trkpt><trkpt lat="43.4530649" lon="12.5127416"><ele>768.0</ele><time>2026-05-02T09:33:30.013Z</time></trkpt><trkpt lat="43.4528957" lon="12.5126423"><ele>768.0</ele><time>2026-05-02T09:33:31.007Z</time></trkpt><trkpt lat="43.4527332" lon="12.5125476"><ele>768.0</ele><time>2026-05-02T09:33:31.996Z</time></trkpt><trkpt lat="43.4525864" lon="12.512446"><ele>768.0</ele><time>2026-05-02T09:33:33.002Z</time></trkpt><trkpt lat="43.4524486" lon="12.5123626"><ele>768.0</ele><time>2026-05-02T09:33:34.001Z</time></trkpt><trkpt lat="43.4523154" lon="12.5123"><ele>768.0</ele><time>2026-05-02T09:33:35.006Z</time></trkpt><trkpt lat="43.4522104" lon="12.5122384"><ele>768.0</ele><time>2026-05-02T09:33:36.009Z</time></trkpt><trkpt lat="43.4521138" lon="12.5122038"><ele>768.0</ele><time>2026-05-02T09:33:37.012Z</time></trkpt><trkpt lat="43.4520376" lon="12.5121938"><ele>768.0</ele><time>2026-05-02T09:33:38.004Z</time></trkpt><trkpt lat="43.4519798" lon="12.5122316"><ele>768.5999999999999</ele><time>2026-05-02T09:33:39.013Z</time></trkpt><trkpt lat="43.4519381" lon="12.5123019"><ele>769.1999999999999</ele><time>2026-05-02T09:33:40.008Z</time></trkpt><trkpt lat="43.4518976" lon="12.5123951"><ele>769.8</ele><time>2026-05-02T09:33:40.993Z</time></trkpt><trkpt lat="43.4518772" lon="12.5125269"><ele>770.4</ele><time>2026-05-02T09:33:42.008Z</time></trkpt><trkpt lat="43.4518501" lon="12.5126668"><ele>771.0</ele><time>2026-05-02T09:33:43.011Z</time></trkpt><trkpt lat="43.4517998" lon="12.5128183"><ele>773.0</ele><time>2026-05-02T09:33:44.009Z</time></trkpt><trkpt lat="43.4517293" lon="12.5129541"><ele>775.0</ele><time>2026-05-02T09:33:45.001Z</time></trkpt><trkpt lat="43.4516523" lon="12.5130747"><ele>777.0</ele><time>2026-05-02T09:33:46.012Z</time></trkpt><trkpt lat="43.451548" lon="12.5131899"><ele>779.0</ele><time>2026-05-02T09:33:47.02Z</time></trkpt><trkpt lat="43.4514287" lon="12.5133004"><ele>776.6666666666667</ele><time>2026-05-02T09:33:47.998Z</time></trkpt><trkpt lat="43.451287" lon="12.5134188"><ele>774.3333333333333</ele><time>2026-05-02T09:33:49.019Z</time></trkpt><trkpt lat="43.4511425" lon="12.5135214"><ele>772.0</ele><time>2026-05-02T09:33:50.011Z</time></trkpt><trkpt lat="43.4509851" lon="12.5136094"><ele>772.0</ele><time>2026-05-02T09:33:51.016Z</time></trkpt><trkpt lat="43.4508222" lon="12.5136748"><ele>772.0</ele><time>2026-05-02T09:33:51.998Z</time></trkpt><trkpt lat="43.450644" lon="12.5137156"><ele>772.0</ele><time>2026-05-02T09:33:53.019Z</time></trkpt><trkpt lat="43.4504567" lon="12.5137535"><ele>776.75</ele><time>2026-05-02T09:33:54.013Z</time></trkpt><trkpt lat="43.4502858" lon="12.5137815"><ele>781.5</ele><time>2026-05-02T09:33:55.008Z</time></trkpt><trkpt lat="43.4501488" lon="12.5138107"><ele>786.25</ele><time>2026-05-02T09:33:55.998Z</time></trkpt><trkpt lat="43.4500263" lon="12.51384"><ele>791.0</ele><time>2026-05-02T09:33:56.996Z</time></trkpt><trkpt lat="43.4499402" lon="12.513858"><ele>791.0000000000001</ele><time>2026-05-02T09:33:58.012Z</time></trkpt><trkpt lat="43.4498788" lon="12.513884"><ele>791.0</ele><time>2026-05-02T09:33:59.005Z</time></trkpt><trkpt lat="43.4498277" lon="12.5139399"><ele>791.0</ele><time>2026-05-02T09:34:00.005Z</time></trkpt><trkpt lat="43.4498019" lon="12.5140475"><ele>791.0</ele><time>2026-05-02T09:34:01.009Z</time></trkpt><trkpt lat="43.449806" lon="12.51416"><ele>791.0000000000001</ele><time>2026-05-02T09:34:01.996Z</time></trkpt><trkpt lat="43.4498257" lon="12.5142953"><ele>791.0</ele><time>2026-05-02T09:34:03.005Z</time></trkpt><trkpt lat="43.4498621" lon="12.5144678"><ele>792.0</ele><time>2026-05-02T09:34:04.003Z</time></trkpt><trkpt lat="43.4498869" lon="12.5146641"><ele>793.0</ele><time>2026-05-02T09:34:05.021Z</time></trkpt><trkpt lat="43.4498829" lon="12.5148491"><ele>794.0</ele><time>2026-05-02T09:34:06.007Z</time></trkpt><trkpt lat="43.4498608" lon="12.5150623"><ele>795.0</ele><time>2026-05-02T09:34:07.002Z</time></trkpt><trkpt lat="43.4498385" lon="12.5152516"><ele>794.4</ele><time>2026-05-02T09:34:08.008Z</time></trkpt><trkpt lat="43.4498369" lon="12.5154221"><ele>793.8</ele><time>2026-05-02T09:34:09.009Z</time></trkpt><trkpt lat="43.4498402" lon="12.5155732"><ele>793.2</ele><time>2026-05-02T09:34:10.004Z</time></trkpt><trkpt lat="43.4497974" lon="12.5157081"><ele>792.6</ele><time>2026-05-02T09:34:11.001Z</time></trkpt><trkpt lat="43.4497514" lon="12.5158055"><ele>792.0</ele><time>2026-05-02T09:34:12.009Z</time></trkpt><trkpt lat="43.4496735" lon="12.5158798"><ele>792.8</ele><time>2026-05-02T09:34:12.999Z</time></trkpt><trkpt lat="43.4495957" lon="12.5158775"><ele>793.6</ele><time>2026-05-02T09:34:13.992Z</time></trkpt><trkpt lat="43.4495235" lon="12.5158543"><ele>794.4</ele><time>2026-05-02T09:34:15.002Z</time></trkpt><trkpt lat="43.4494519" lon="12.5158036"><ele>795.1999999999999</ele><time>2026-05-02T09:34:15.996Z</time></trkpt><trkpt lat="43.4493405" lon="12.5157441"><ele>796.0</ele><time>2026-05-02T09:34:17.009Z</time></trkpt><trkpt lat="43.4492063" lon="12.5156882"><ele>796.0</ele><time>2026-05-02T09:34:18.003Z</time></trkpt><trkpt lat="43.4490582" lon="12.5156354"><ele>796.0</ele><time>2026-05-02T09:34:19.003Z</time></trkpt><trkpt lat="43.4489244" lon="12.5155831"><ele>796.0</ele><time>2026-05-02T09:34:20.004Z</time></trkpt><trkpt lat="43.4487968" lon="12.515507"><ele>796.0</ele><time>2026-05-02T09:34:20.989Z</time></trkpt><trkpt lat="43.4486753" lon="12.5154006"><ele>797.5</ele><time>2026-05-02T09:34:22.009Z</time></trkpt><trkpt lat="43.448562" lon="12.5152801"><ele>799.0</ele><time>2026-05-02T09:34:23.005Z</time></trkpt><trkpt lat="43.4484735" lon="12.5151674"><ele>800.5</ele><time>2026-05-02T09:34:23.999Z</time></trkpt><trkpt lat="43.4484046" lon="12.5150837"><ele>802.0</ele><time>2026-05-02T09:34:25.011Z</time></trkpt><trkpt lat="43.4483002" lon="12.5150478"><ele>802.0</ele><time>2026-05-02T09:34:26.995Z</time></trkpt><trkpt lat="43.4482352" lon="12.5151036"><ele>802.0</ele><time>2026-05-02T09:34:28.003Z</time></trkpt><trkpt lat="43.4481711" lon="12.5151831"><ele>802.0</ele><time>2026-05-02T09:34:29.011Z</time></trkpt><trkpt lat="43.4480957" lon="12.5152786"><ele>802.0</ele><time>2026-05-02T09:34:30.011Z</time></trkpt><trkpt lat="43.4480094" lon="12.5153931"><ele>802.0</ele><time>2026-05-02T09:34:31.011Z</time></trkpt><trkpt lat="43.4479434" lon="12.5155206"><ele>803.2</ele><time>2026-05-02T09:34:31.997Z</time></trkpt><trkpt lat="43.4478786" lon="12.5156404"><ele>804.4000000000001</ele><time>2026-05-02T09:34:33.006Z</time></trkpt><trkpt lat="43.4477954" lon="12.5157219"><ele>805.5999999999999</ele><time>2026-05-02T09:34:33.994Z</time></trkpt><trkpt lat="43.447693" lon="12.5157573"><ele>806.8</ele><time>2026-05-02T09:34:34.996Z</time></trkpt><trkpt lat="43.4475723" lon="12.5157589"><ele>808.0</ele><time>2026-05-02T09:34:35.994Z</time></trkpt><trkpt lat="43.4474365" lon="12.5157463"><ele>808.0</ele><time>2026-05-02T09:34:37Z</time></trkpt><trkpt lat="43.4472933" lon="12.5157433"><ele>808.0</ele><time>2026-05-02T09:34:37.999Z</time></trkpt><trkpt lat="43.4471512" lon="12.5157383"><ele>808.0</ele><time>2026-05-02T09:34:39.018Z</time></trkpt><trkpt lat="43.4470217" lon="12.5157453"><ele>808.0</ele><time>2026-05-02T09:34:40.004Z</time></trkpt><trkpt lat="43.446908" lon="12.5157657"><ele>809.4</ele><time>2026-05-02T09:34:41.002Z</time></trkpt><trkpt lat="43.4468043" lon="12.515814"><ele>810.8</ele><time>2026-05-02T09:34:42.002Z</time></trkpt><trkpt lat="43.4467042" lon="12.5158944"><ele>812.2</ele><time>2026-05-02T09:34:43.009Z</time></trkpt><trkpt lat="43.4466194" lon="12.5159897"><ele>813.6</ele><time>2026-05-02T09:34:44.002Z</time></trkpt><trkpt lat="43.4465426" lon="12.5160967"><ele>815.0</ele><time>2026-05-02T09:34:45.009Z</time></trkpt><trkpt lat="43.4464614" lon="12.5161911"><ele>817.0</ele><time>2026-05-02T09:34:46.029Z</time></trkpt><trkpt lat="43.4463732" lon="12.5162596"><ele>819.0</ele><time>2026-05-02T09:34:47.001Z</time></trkpt><trkpt lat="43.4462749" lon="12.5163125"><ele>821.0</ele><time>2026-05-02T09:34:48.013Z</time></trkpt><trkpt lat="43.4461732" lon="12.5163827"><ele>823.0</ele><time>2026-05-02T09:34:49.022Z</time></trkpt><trkpt lat="43.4460804" lon="12.5164808"><ele>825.0</ele><time>2026-05-02T09:34:50.014Z</time></trkpt><trkpt lat="43.4459849" lon="12.5166082"><ele>825.0</ele><time>2026-05-02T09:34:51.008Z</time></trkpt><trkpt lat="43.4458976" lon="12.5167093"><ele>825.0</ele><time>2026-05-02T09:34:52.024Z</time></trkpt><trkpt lat="43.4458202" lon="12.5167911"><ele>825.0</ele><time>2026-05-02T09:34:53.009Z</time></trkpt><trkpt lat="43.4457351" lon="12.5168636"><ele>825.0</ele><time>2026-05-02T09:34:54.004Z</time></trkpt><trkpt lat="43.4456519" lon="12.5169053"><ele>825.0</ele><time>2026-05-02T09:34:55Z</time></trkpt><trkpt lat="43.4455771" lon="12.5169163"><ele>825.0</ele><time>2026-05-02T09:34:56.017Z</time></trkpt><trkpt lat="43.4454833" lon="12.5168697"><ele>825.0</ele><time>2026-05-02T09:34:57.002Z</time></trkpt><trkpt lat="43.4453792" lon="12.5167909"><ele>825.0</ele><time>2026-05-02T09:34:58.01Z</time></trkpt><trkpt lat="43.4452508" lon="12.5167145"><ele>825.0</ele><time>2026-05-02T09:34:59.008Z</time></trkpt><trkpt lat="43.4451274" lon="12.5166303"><ele>826.0</ele><time>2026-05-02T09:35:00.005Z</time></trkpt><trkpt lat="43.4450212" lon="12.5165599"><ele>827.0</ele><time>2026-05-02T09:35:01.01Z</time></trkpt><trkpt lat="43.4449283" lon="12.5165222"><ele>828.0</ele><time>2026-05-02T09:35:02.002Z</time></trkpt><trkpt lat="43.444844" lon="12.5165089"><ele>829.0</ele><time>2026-05-02T09:35:03.005Z</time></trkpt><trkpt lat="43.444755" lon="12.516533"><ele>830.0</ele><time>2026-05-02T09:35:04.011Z</time></trkpt><trkpt lat="43.4446654" lon="12.5166095"><ele>829.8</ele><time>2026-05-02T09:35:04.999Z</time></trkpt><trkpt lat="43.4445859" lon="12.516721"><ele>829.6</ele><time>2026-05-02T09:35:05.997Z</time></trkpt><trkpt lat="43.4445153" lon="12.5168508"><ele>829.4000000000001</ele><time>2026-05-02T09:35:07.011Z</time></trkpt><trkpt lat="43.4444525" lon="12.5169757"><ele>829.2</ele><time>2026-05-02T09:35:08.009Z</time></trkpt><trkpt lat="43.4444038" lon="12.5170698"><ele>829.0</ele><time>2026-05-02T09:35:08.996Z</time></trkpt><trkpt lat="43.4443449" lon="12.5171332"><ele>829.0</ele><time>2026-05-02T09:35:10.008Z</time></trkpt><trkpt lat="43.4442543" lon="12.5171643"><ele>829.0</ele><time>2026-05-02T09:35:11.019Z</time></trkpt><trkpt lat="43.4441513" lon="12.5171749"><ele>829.0</ele><time>2026-05-02T09:35:11.994Z</time></trkpt><trkpt lat="43.4440272" lon="12.5171755"><ele>829.0</ele><time>2026-05-02T09:35:13.002Z</time></trkpt><trkpt lat="43.443898" lon="12.5171715"><ele>831.75</ele><time>2026-05-02T09:35:13.996Z</time></trkpt><trkpt lat="43.4437695" lon="12.5171743"><ele>834.5</ele><time>2026-05-02T09:35:15.005Z</time></trkpt><trkpt lat="43.4436468" lon="12.5171832"><ele>837.25</ele><time>2026-05-02T09:35:15.998Z</time></trkpt><trkpt lat="43.4435318" lon="12.517211"><ele>840.0</ele><time>2026-05-02T09:35:17.012Z</time></trkpt><trkpt lat="43.4434247" lon="12.5172744"><ele>840.0</ele><time>2026-05-02T09:35:18.005Z</time></trkpt><trkpt lat="43.4433157" lon="12.5173495"><ele>840.0</ele><time>2026-05-02T09:35:19.001Z</time></trkpt><trkpt lat="43.4432313" lon="12.5173888"><ele>840.0</ele><time>2026-05-02T09:35:20.034Z</time></trkpt><trkpt lat="43.4431626" lon="12.5174091"><ele>840.0</ele><time>2026-05-02T09:35:21.018Z</time></trkpt><trkpt lat="43.4430622" lon="12.5173803"><ele>840.0</ele><time>2026-05-02T09:35:23.01Z</time></trkpt><trkpt lat="43.4430037" lon="12.5173405"><ele>840.0</ele><time>2026-05-02T09:35:25.022Z</time></trkpt><trkpt lat="43.4429427" lon="12.5172939"><ele>839.8333333333334</ele><time>2026-05-02T09:54:27.009Z</time></trkpt><trkpt lat="43.4428788" lon="12.5172399"><ele>839.6666666666667</ele><time>2026-05-02T09:54:31.025Z</time></trkpt><trkpt lat="43.4428195" lon="12.5171968"><ele>839.5</ele><time>2026-05-02T09:54:35.006Z</time></trkpt><trkpt lat="43.4427651" lon="12.5171505"><ele>839.3333333333334</ele><time>2026-05-02T09:54:38.005Z</time></trkpt><trkpt lat="43.4426978" lon="12.5170841"><ele>839.1666666666667</ele><time>2026-05-02T09:55:20.008Z</time></trkpt><trkpt lat="43.4426173" lon="12.5170299"><ele>839.0</ele><time>2026-05-02T09:55:23.008Z</time></trkpt><trkpt lat="43.442546" lon="12.516961"><ele>839.0</ele><time>2026-05-02T09:55:26.011Z</time></trkpt><trkpt lat="43.442467" lon="12.5169091"><ele>839.0</ele><time>2026-05-02T09:55:29Z</time></trkpt><trkpt lat="43.4424046" lon="12.5168788"><ele>839.0</ele><time>2026-05-02T09:55:31.004Z</time></trkpt><trkpt lat="43.4423157" lon="12.5168484"><ele>839.0</ele><time>2026-05-02T09:55:34.001Z</time></trkpt><trkpt lat="43.4422466" lon="12.5168536"><ele>839.0</ele><time>2026-05-02T09:55:36.005Z</time></trkpt><trkpt lat="43.4421839" lon="12.5168648"><ele>839.0</ele><time>2026-05-02T09:55:38.018Z</time></trkpt><trkpt lat="43.4421178" lon="12.5168787"><ele>839.0</ele><time>2026-05-02T09:55:39.999Z</time></trkpt><trkpt lat="43.4420549" lon="12.5168917"><ele>837.7142857142857</ele><time>2026-05-02T09:55:42.015Z</time></trkpt><trkpt lat="43.4419917" lon="12.5169092"><ele>836.4285714285714</ele><time>2026-05-02T09:55:44.006Z</time></trkpt><trkpt lat="43.4419288" lon="12.5169321"><ele>835.1428571428571</ele><time>2026-05-02T09:55:46.012Z</time></trkpt><trkpt lat="43.4418583" lon="12.5169619"><ele>833.8571428571429</ele><time>2026-05-02T09:55:47.999Z</time></trkpt><trkpt lat="43.4417889" lon="12.5169767"><ele>832.5714285714287</ele><time>2026-05-02T09:55:50.011Z</time></trkpt><trkpt lat="43.441707" lon="12.5170004"><ele>831.2857142857143</ele><time>2026-05-02T09:55:53.009Z</time></trkpt><trkpt lat="43.4416224" lon="12.5170142"><ele>830.0</ele><time>2026-05-02T09:55:56.001Z</time></trkpt><trkpt lat="43.4415298" lon="12.5170028"><ele>830.0</ele><time>2026-05-02T09:55:59.014Z</time></trkpt><trkpt lat="43.4414579" lon="12.5170002"><ele>830.0</ele><time>2026-05-02T09:56:01.014Z</time></trkpt><trkpt lat="43.4413796" lon="12.5170301"><ele>830.0</ele><time>2026-05-02T09:56:30.001Z</time></trkpt><trkpt lat="43.4413123" lon="12.5170132"><ele>830.0</ele><time>2026-05-02T09:56:34Z</time></trkpt><trkpt lat="43.4412445" lon="12.5170121"><ele>830.0</ele><time>2026-05-02T09:56:36.999Z</time></trkpt><trkpt lat="43.4411805" lon="12.516997"><ele>830.0</ele><time>2026-05-02T09:56:39.006Z</time></trkpt><trkpt lat="43.441104" lon="12.516992"><ele>830.0</ele><time>2026-05-02T09:56:41.003Z</time></trkpt><trkpt lat="43.4410135" lon="12.5169997"><ele>828.2</ele><time>2026-05-02T09:56:43.012Z</time></trkpt><trkpt lat="43.4409172" lon="12.5170237"><ele>826.4</ele><time>2026-05-02T09:56:45.005Z</time></trkpt><trkpt lat="43.4408175" lon="12.5170664"><ele>824.5999999999999</ele><time>2026-05-02T09:56:46.994Z</time></trkpt><trkpt lat="43.4407143" lon="12.517119"><ele>822.8</ele><time>2026-05-02T09:56:48.996Z</time></trkpt><trkpt lat="43.4406047" lon="12.5171775"><ele>821.0</ele><time>2026-05-02T09:56:50.998Z</time></trkpt><trkpt lat="43.4405066" lon="12.5172368"><ele>819.0</ele><time>2026-05-02T09:56:52.998Z</time></trkpt><trkpt lat="43.4404091" lon="12.5172931"><ele>817.0</ele><time>2026-05-02T09:56:55.003Z</time></trkpt><trkpt lat="43.4403095" lon="12.5173572"><ele>815.0</ele><time>2026-05-02T09:56:57.001Z</time></trkpt><trkpt lat="43.4402147" lon="12.5174217"><ele>813.0</ele><time>2026-05-02T09:56:59.003Z</time></trkpt><trkpt lat="43.4401119" lon="12.5174914"><ele>811.0</ele><time>2026-05-02T09:57:01.004Z</time></trkpt><trkpt lat="43.4400137" lon="12.5175753"><ele>811.0</ele><time>2026-05-02T09:57:03.002Z</time></trkpt><trkpt lat="43.439908" lon="12.5176783"><ele>811.0</ele><time>2026-05-02T09:57:05.002Z</time></trkpt><trkpt lat="43.4398623" lon="12.5177427"><ele>811.0</ele><time>2026-05-02T09:57:05.997Z</time></trkpt><trkpt lat="43.4397902" lon="12.5178675"><ele>811.0</ele><time>2026-05-02T09:57:07.993Z</time></trkpt><trkpt lat="43.4397102" lon="12.5179701"><ele>811.0</ele><time>2026-05-02T09:57:09.997Z</time></trkpt><trkpt lat="43.4396161" lon="12.5180528"><ele>810.9999999999999</ele><time>2026-05-02T09:57:12.005Z</time></trkpt><trkpt lat="43.4395234" lon="12.5181302"><ele>811.0</ele><time>2026-05-02T09:57:14.003Z</time></trkpt><trkpt lat="43.4394575" lon="12.5181643"><ele>811.0</ele><time>2026-05-02T09:57:17.003Z</time></trkpt><trkpt lat="43.439386" lon="12.5181951"><ele>811.0</ele><time>2026-05-02T10:00:41.014Z</time></trkpt><trkpt lat="43.4393169" lon="12.5182237"><ele>810.9999999999999</ele><time>2026-05-02T10:00:43.012Z</time></trkpt><trkpt lat="43.4392024" lon="12.51825"><ele>811.0</ele><time>2026-05-02T10:00:45.006Z</time></trkpt><trkpt lat="43.4391272" lon="12.5182572"><ele>810.9999999999999</ele><time>2026-05-02T10:00:46Z</time></trkpt><trkpt lat="43.4390512" lon="12.5182701"><ele>811.0</ele><time>2026-05-02T10:00:47.011Z</time></trkpt><trkpt lat="43.43899" lon="12.5182965"><ele>811.0</ele><time>2026-05-02T10:00:48.003Z</time></trkpt><trkpt lat="43.4389268" lon="12.5184187"><ele>811.0</ele><time>2026-05-02T10:00:50.005Z</time></trkpt><trkpt lat="43.4389292" lon="12.5185869"><ele>810.9999999999999</ele><time>2026-05-02T10:00:52.005Z</time></trkpt><trkpt lat="43.4389352" lon="12.5186871"><ele>811.0</ele><time>2026-05-02T10:00:53.016Z</time></trkpt><trkpt lat="43.4389399" lon="12.5187799"><ele>811.6666666666666</ele><time>2026-05-02T10:00:54.003Z</time></trkpt><trkpt lat="43.4389294" lon="12.5188739"><ele>812.3333333333333</ele><time>2026-05-02T10:00:55.001Z</time></trkpt><trkpt lat="43.4389136" lon="12.5189599"><ele>813.0</ele><time>2026-05-02T10:00:56.003Z</time></trkpt><trkpt lat="43.4388905" lon="12.5190503"><ele>813.6666666666667</ele><time>2026-05-02T10:00:56.998Z</time></trkpt><trkpt lat="43.4388611" lon="12.5191314"><ele>814.3333333333334</ele><time>2026-05-02T10:00:57.997Z</time></trkpt><trkpt lat="43.4388293" lon="12.5192086"><ele>815.0</ele><time>2026-05-02T10:00:58.996Z</time></trkpt><trkpt lat="43.4387529" lon="12.5193511"><ele>813.0000000000001</ele><time>2026-05-02T10:01:01.004Z</time></trkpt><trkpt lat="43.4386656" lon="12.5194755"><ele>811.0</ele><time>2026-05-02T10:01:03.001Z</time></trkpt><trkpt lat="43.4386219" lon="12.5195394"><ele>809.0</ele><time>2026-05-02T10:01:04.003Z</time></trkpt><trkpt lat="43.4385353" lon="12.5196644"><ele>807.0</ele><time>2026-05-02T10:01:06Z</time></trkpt><trkpt lat="43.4384905" lon="12.5197309"><ele>805.0000000000001</ele><time>2026-05-02T10:01:07.007Z</time></trkpt><trkpt lat="43.4384457" lon="12.5197927"><ele>803.0</ele><time>2026-05-02T10:01:07.997Z</time></trkpt><trkpt lat="43.4383541" lon="12.5199078"><ele>803.0000000000001</ele><time>2026-05-02T10:01:10Z</time></trkpt><trkpt lat="43.4383019" lon="12.5199724"><ele>803.0</ele><time>2026-05-02T10:01:10.997Z</time></trkpt><trkpt lat="43.4382396" lon="12.520032"><ele>803.0</ele><time>2026-05-02T10:01:11.993Z</time></trkpt><trkpt lat="43.4381566" lon="12.5200867"><ele>803.0</ele><time>2026-05-02T10:01:12.998Z</time></trkpt><trkpt lat="43.4380608" lon="12.5201307"><ele>803.0000000000001</ele><time>2026-05-02T10:01:13.998Z</time></trkpt><trkpt lat="43.4379652" lon="12.5201689"><ele>803.0</ele><time>2026-05-02T10:01:15.002Z</time></trkpt><trkpt lat="43.4378798" lon="12.5202012"><ele>800.5000000000001</ele><time>2026-05-02T10:01:15.998Z</time></trkpt><trkpt lat="43.4378002" lon="12.5202378"><ele>798.0</ele><time>2026-05-02T10:01:16.997Z</time></trkpt><trkpt lat="43.4377144" lon="12.5202721"><ele>795.5</ele><time>2026-05-02T10:01:17.999Z</time></trkpt><trkpt lat="43.4376335" lon="12.5203102"><ele>793.0</ele><time>2026-05-02T10:01:18.993Z</time></trkpt><trkpt lat="43.4375599" lon="12.5203362"><ele>790.5000000000001</ele><time>2026-05-02T10:01:20.006Z</time></trkpt><trkpt lat="43.4374838" lon="12.52037"><ele>788.0</ele><time>2026-05-02T10:01:20.994Z</time></trkpt><trkpt lat="43.4374036" lon="12.5204096"><ele>787.5000000000001</ele><time>2026-05-02T10:01:22.008Z</time></trkpt><trkpt lat="43.4373216" lon="12.5204535"><ele>787.0</ele><time>2026-05-02T10:01:23Z</time></trkpt><trkpt lat="43.4372442" lon="12.5205075"><ele>786.5</ele><time>2026-05-02T10:01:23.997Z</time></trkpt><trkpt lat="43.4371686" lon="12.5205591"><ele>786.0</ele><time>2026-05-02T10:01:25.004Z</time></trkpt><trkpt lat="43.4370981" lon="12.5206249"><ele>785.5000000000001</ele><time>2026-05-02T10:01:25.999Z</time></trkpt><trkpt lat="43.4370338" lon="12.5206874"><ele>785.0</ele><time>2026-05-02T10:01:26.996Z</time></trkpt><trkpt lat="43.4369766" lon="12.5207446"><ele>787.6666666666667</ele><time>2026-05-02T10:01:27.999Z</time></trkpt><trkpt lat="43.4369298" lon="12.5208074"><ele>790.3333333333334</ele><time>2026-05-02T10:01:29.004Z</time></trkpt><trkpt lat="43.436882" lon="12.5208647"><ele>793.0</ele><time>2026-05-02T10:01:29.998Z</time></trkpt><trkpt lat="43.4368256" lon="12.520911"><ele>795.6666666666667</ele><time>2026-05-02T10:01:30.998Z</time></trkpt><trkpt lat="43.4367232" lon="12.5209388"><ele>798.3333333333334</ele><time>2026-05-02T10:01:33.019Z</time></trkpt><trkpt lat="43.4366536" lon="12.5209196"><ele>801.0</ele><time>2026-05-02T10:01:35.006Z</time></trkpt><trkpt lat="43.4365715" lon="12.5209356"><ele>801.0</ele><time>2026-05-02T10:08:42.02Z</time></trkpt><trkpt lat="43.4364469" lon="12.520963"><ele>801.0</ele><time>2026-05-02T10:08:45.004Z</time></trkpt><trkpt lat="43.436369" lon="12.5209954"><ele>801.0</ele><time>2026-05-02T10:08:46.004Z</time></trkpt><trkpt lat="43.4362765" lon="12.5210444"><ele>801.0</ele><time>2026-05-02T10:08:47.014Z</time></trkpt><trkpt lat="43.4361657" lon="12.5211213"><ele>801.0</ele><time>2026-05-02T10:08:48.008Z</time></trkpt><trkpt lat="43.4360662" lon="12.5211947"><ele>800.5</ele><time>2026-05-02T10:08:49.017Z</time></trkpt><trkpt lat="43.4359876" lon="12.521257"><ele>800.0</ele><time>2026-05-02T10:08:50.004Z</time></trkpt><trkpt lat="43.4359183" lon="12.5213152"><ele>799.5</ele><time>2026-05-02T10:08:51.011Z</time></trkpt><trkpt lat="43.4358608" lon="12.5213734"><ele>799.0</ele><time>2026-05-02T10:08:52.004Z</time></trkpt><trkpt lat="43.4358097" lon="12.5214447"><ele>798.5</ele><time>2026-05-02T10:08:53.012Z</time></trkpt><trkpt lat="43.4357527" lon="12.5215299"><ele>798.0</ele><time>2026-05-02T10:08:54.022Z</time></trkpt><trkpt lat="43.4356932" lon="12.5216178"><ele>798.0</ele><time>2026-05-02T10:08:54.997Z</time></trkpt><trkpt lat="43.4356223" lon="12.5217175"><ele>798.0</ele><time>2026-05-02T10:08:56Z</time></trkpt><trkpt lat="43.4355442" lon="12.5218203"><ele>798.0</ele><time>2026-05-02T10:08:57.011Z</time></trkpt><trkpt lat="43.4354634" lon="12.521919"><ele>798.0</ele><time>2026-05-02T10:08:58.006Z</time></trkpt><trkpt lat="43.4353813" lon="12.5220145"><ele>798.0</ele><time>2026-05-02T10:08:58.998Z</time></trkpt><trkpt lat="43.4352953" lon="12.5220844"><ele>800.0</ele><time>2026-05-02T10:09:00.002Z</time></trkpt><trkpt lat="43.4352086" lon="12.5221316"><ele>802.0</ele><time>2026-05-02T10:09:01Z</time></trkpt><trkpt lat="43.4351176" lon="12.5221479"><ele>804.0</ele><time>2026-05-02T10:09:02Z</time></trkpt><trkpt lat="43.4350299" lon="12.5221458"><ele>806.0</ele><time>2026-05-02T10:09:03.006Z</time></trkpt><trkpt lat="43.4349519" lon="12.5221398"><ele>808.0</ele><time>2026-05-02T10:09:04.019Z</time></trkpt><trkpt lat="43.4348804" lon="12.5221418"><ele>810.0</ele><time>2026-05-02T10:09:05.003Z</time></trkpt><trkpt lat="43.4348079" lon="12.5221612"><ele>809.9999999999999</ele><time>2026-05-02T10:09:06.003Z</time></trkpt><trkpt lat="43.434749" lon="12.522207"><ele>810.0</ele><time>2026-05-02T10:09:06.993Z</time></trkpt><trkpt lat="43.434709" lon="12.5222815"><ele>810.0</ele><time>2026-05-02T10:09:08.002Z</time></trkpt><trkpt lat="43.4346876" lon="12.5223817"><ele>810.0</ele><time>2026-05-02T10:09:09.013Z</time></trkpt><trkpt lat="43.4346787" lon="12.5224805"><ele>810.0</ele><time>2026-05-02T10:09:10.02Z</time></trkpt><trkpt lat="43.4346692" lon="12.5225915"><ele>809.9999999999999</ele><time>2026-05-02T10:09:11.002Z</time></trkpt><trkpt lat="43.43464" lon="12.5226998"><ele>810.0</ele><time>2026-05-02T10:09:12.013Z</time></trkpt><trkpt lat="43.434587" lon="12.5227847"><ele>810.5</ele><time>2026-05-02T10:09:13.009Z</time></trkpt><trkpt lat="43.4345316" lon="12.5228565"><ele>811.0</ele><time>2026-05-02T10:09:14.006Z</time></trkpt><trkpt lat="43.4344696" lon="12.5229192"><ele>811.5</ele><time>2026-05-02T10:09:15.004Z</time></trkpt><trkpt lat="43.4344007" lon="12.5229788"><ele>812.0</ele><time>2026-05-02T10:09:16.008Z</time></trkpt><trkpt lat="43.4343319" lon="12.5230147"><ele>812.5</ele><time>2026-05-02T10:09:16.996Z</time></trkpt><trkpt lat="43.4342661" lon="12.5230426"><ele>813.0</ele><time>2026-05-02T10:09:18Z</time></trkpt><trkpt lat="43.4341952" lon="12.523065"><ele>813.0</ele><time>2026-05-02T10:09:19.007Z</time></trkpt><trkpt lat="43.4341278" lon="12.5230795"><ele>813.0</ele><time>2026-05-02T10:09:20.01Z</time></trkpt><trkpt lat="43.4340636" lon="12.5230818"><ele>813.0</ele><time>2026-05-02T10:09:21.006Z</time></trkpt><trkpt lat="43.4339957" lon="12.5230882"><ele>813.0</ele><time>2026-05-02T10:09:22.012Z</time></trkpt><trkpt lat="43.4339289" lon="12.5230924"><ele>813.0</ele><time>2026-05-02T10:09:22.997Z</time></trkpt><trkpt lat="43.4338006" lon="12.5231099"><ele>813.0</ele><time>2026-05-02T10:09:25.008Z</time></trkpt><trkpt lat="43.4337368" lon="12.5231135"><ele>811.2</ele><time>2026-05-02T10:09:25.998Z</time></trkpt><trkpt lat="43.4336724" lon="12.5231092"><ele>809.4</ele><time>2026-05-02T10:09:27.001Z</time></trkpt><trkpt lat="43.4335507" lon="12.5230766"><ele>807.6</ele><time>2026-05-02T10:09:28.998Z</time></trkpt><trkpt lat="43.4334299" lon="12.5230389"><ele>805.8000000000001</ele><time>2026-05-02T10:09:31.001Z</time></trkpt><trkpt lat="43.4333694" lon="12.5230134"><ele>804.0</ele><time>2026-05-02T10:09:32.001Z</time></trkpt><trkpt lat="43.4332576" lon="12.522958"><ele>804.0</ele><time>2026-05-02T10:09:34.001Z</time></trkpt><trkpt lat="43.4331583" lon="12.5228985"><ele>804.0</ele><time>2026-05-02T10:09:36.001Z</time></trkpt><trkpt lat="43.4330695" lon="12.5228847"><ele>804.0</ele><time>2026-05-02T10:09:38.016Z</time></trkpt><trkpt lat="43.4330115" lon="12.5229523"><ele>804.0</ele><time>2026-05-02T10:09:39.999Z</time></trkpt><trkpt lat="43.4330059" lon="12.5230574"><ele>804.0</ele><time>2026-05-02T10:10:07.003Z</time></trkpt><trkpt lat="43.4329995" lon="12.5231753"><ele>804.0</ele><time>2026-05-02T10:10:09.004Z</time></trkpt><trkpt lat="43.4330067" lon="12.5232823"><ele>804.0</ele><time>2026-05-02T10:10:10.008Z</time></trkpt><trkpt lat="43.4330046" lon="12.5234029"><ele>804.0</ele><time>2026-05-02T10:10:11.007Z</time></trkpt><trkpt lat="43.4329947" lon="12.5235138"><ele>804.0</ele><time>2026-05-02T10:10:12.011Z</time></trkpt><trkpt lat="43.4329668" lon="12.5236184"><ele>804.0</ele><time>2026-05-02T10:10:13.009Z</time></trkpt><trkpt lat="43.4329096" lon="12.5237084"><ele>804.0</ele><time>2026-05-02T10:10:14Z</time></trkpt><trkpt lat="43.4328365" lon="12.5237707"><ele>804.0</ele><time>2026-05-02T10:10:14.998Z</time></trkpt><trkpt lat="43.432753" lon="12.5238171"><ele>799.75</ele><time>2026-05-02T10:10:16.003Z</time></trkpt><trkpt lat="43.4326513" lon="12.5238638"><ele>795.5</ele><time>2026-05-02T10:10:17.01Z</time></trkpt><trkpt lat="43.4325415" lon="12.5238915"><ele>791.25</ele><time>2026-05-02T10:10:18.013Z</time></trkpt><trkpt lat="43.4324179" lon="12.5238694"><ele>787.0</ele><time>2026-05-02T10:10:19.009Z</time></trkpt><trkpt lat="43.4323075" lon="12.523821"><ele>787.0</ele><time>2026-05-02T10:10:20.01Z</time></trkpt><trkpt lat="43.4321802" lon="12.5237509"><ele>787.0</ele><time>2026-05-02T10:10:21.01Z</time></trkpt><trkpt lat="43.4320458" lon="12.5236708"><ele>787.0</ele><time>2026-05-02T10:10:22.001Z</time></trkpt><trkpt lat="43.4319092" lon="12.5235925"><ele>787.0</ele><time>2026-05-02T10:10:23.01Z</time></trkpt><trkpt lat="43.4317776" lon="12.5235175"><ele>784.0</ele><time>2026-05-02T10:10:24.01Z</time></trkpt><trkpt lat="43.4316318" lon="12.5234334"><ele>781.0</ele><time>2026-05-02T10:10:25.009Z</time></trkpt><trkpt lat="43.4314821" lon="12.5233532"><ele>778.0</ele><time>2026-05-02T10:10:26.012Z</time></trkpt><trkpt lat="43.4313345" lon="12.5232861"><ele>779.25</ele><time>2026-05-02T10:10:27.009Z</time></trkpt><trkpt lat="43.4311915" lon="12.5232336"><ele>780.5</ele><time>2026-05-02T10:10:28.01Z</time></trkpt><trkpt lat="43.4310498" lon="12.5231885"><ele>781.75</ele><time>2026-05-02T10:10:29.015Z</time></trkpt><trkpt lat="43.4309202" lon="12.5231472"><ele>783.0</ele><time>2026-05-02T10:10:30.011Z</time></trkpt><trkpt lat="43.4308105" lon="12.5231114"><ele>783.0</ele><time>2026-05-02T10:10:30.992Z</time></trkpt><trkpt lat="43.4307128" lon="12.5231023"><ele>783.0</ele><time>2026-05-02T10:10:31.998Z</time></trkpt><trkpt lat="43.4306116" lon="12.5231147"><ele>783.0</ele><time>2026-05-02T10:10:33.009Z</time></trkpt><trkpt lat="43.4305145" lon="12.5231664"><ele>783.0</ele><time>2026-05-02T10:10:34.006Z</time></trkpt><trkpt lat="43.4304243" lon="12.5232601"><ele>783.0</ele><time>2026-05-02T10:10:34.999Z</time></trkpt><trkpt lat="43.4303514" lon="12.5233742"><ele>783.4</ele><time>2026-05-02T10:10:36.014Z</time></trkpt><trkpt lat="43.430295" lon="12.5235187"><ele>783.8</ele><time>2026-05-02T10:10:37.002Z</time></trkpt><trkpt lat="43.4302472" lon="12.5236807"><ele>784.2</ele><time>2026-05-02T10:10:37.997Z</time></trkpt><trkpt lat="43.4302057" lon="12.5237978"><ele>784.6</ele><time>2026-05-02T10:10:39.025Z</time></trkpt><trkpt lat="43.4301586" lon="12.5238662"><ele>785.0</ele><time>2026-05-02T10:10:40.007Z</time></trkpt><trkpt lat="43.4300549" lon="12.5238946"><ele>785.0</ele><time>2026-05-02T10:10:42.009Z</time></trkpt><trkpt lat="43.429986" lon="12.523852"><ele>785.0</ele><time>2026-05-02T10:10:43.02Z</time></trkpt><trkpt lat="43.4298972" lon="12.5237743"><ele>785.0</ele><time>2026-05-02T10:10:44.012Z</time></trkpt><trkpt lat="43.4298091" lon="12.5236688"><ele>785.0</ele><time>2026-05-02T10:10:45.005Z</time></trkpt><trkpt lat="43.4297139" lon="12.5235411"><ele>785.0</ele><time>2026-05-02T10:10:46Z</time></trkpt><trkpt lat="43.4296135" lon="12.5233952"><ele>785.25</ele><time>2026-05-02T10:10:47.01Z</time></trkpt><trkpt lat="43.4295124" lon="12.5232571"><ele>785.5</ele><time>2026-05-02T10:10:48.01Z</time></trkpt><trkpt lat="43.4294159" lon="12.5231495"><ele>785.75</ele><time>2026-05-02T10:10:48.996Z</time></trkpt><trkpt lat="43.4293172" lon="12.5230603"><ele>786.0</ele><time>2026-05-02T10:10:50.006Z</time></trkpt><trkpt lat="43.4292126" lon="12.5230028"><ele>786.0</ele><time>2026-05-02T10:10:51.006Z</time></trkpt><trkpt lat="43.4291028" lon="12.5229864"><ele>786.0</ele><time>2026-05-02T10:10:51.995Z</time></trkpt><trkpt lat="43.4289932" lon="12.5230061"><ele>786.0</ele><time>2026-05-02T10:10:53.01Z</time></trkpt><trkpt lat="43.4288752" lon="12.5230553"><ele>786.0</ele><time>2026-05-02T10:10:54.001Z</time></trkpt><trkpt lat="43.4287622" lon="12.5231067"><ele>787.5</ele><time>2026-05-02T10:10:55.055Z</time></trkpt><trkpt lat="43.4286583" lon="12.523164"><ele>789.0</ele><time>2026-05-02T10:10:55.999Z</time></trkpt><trkpt lat="43.4285696" lon="12.5232502"><ele>790.5</ele><time>2026-05-02T10:10:57.004Z</time></trkpt><trkpt lat="43.4285019" lon="12.5233767"><ele>792.0</ele><time>2026-05-02T10:10:58.006Z</time></trkpt><trkpt lat="43.4284557" lon="12.5235263"><ele>792.0</ele><time>2026-05-02T10:10:59.004Z</time></trkpt><trkpt lat="43.4284219" lon="12.5236765"><ele>792.0</ele><time>2026-05-02T10:10:59.994Z</time></trkpt><trkpt lat="43.4283765" lon="12.5237919"><ele>792.0</ele><time>2026-05-02T10:11:00.998Z</time></trkpt><trkpt lat="43.4283012" lon="12.5238949"><ele>792.0</ele><time>2026-05-02T10:11:02.006Z</time></trkpt><trkpt lat="43.4282064" lon="12.5239642"><ele>792.0</ele><time>2026-05-02T10:11:03.001Z</time></trkpt><trkpt lat="43.4280994" lon="12.5240224"><ele>790.25</ele><time>2026-05-02T10:11:04.003Z</time></trkpt><trkpt lat="43.4279851" lon="12.5240567"><ele>788.5</ele><time>2026-05-02T10:11:04.993Z</time></trkpt><trkpt lat="43.4278713" lon="12.524064"><ele>786.75</ele><time>2026-05-02T10:11:06.02Z</time></trkpt><trkpt lat="43.427756" lon="12.5240512"><ele>785.0</ele><time>2026-05-02T10:11:07.025Z</time></trkpt><trkpt lat="43.4276403" lon="12.524022"><ele>785.0</ele><time>2026-05-02T10:11:08.01Z</time></trkpt><trkpt lat="43.4275282" lon="12.5239783"><ele>785.0</ele><time>2026-05-02T10:11:09.013Z</time></trkpt><trkpt lat="43.4274298" lon="12.5239304"><ele>785.0</ele><time>2026-05-02T10:11:10.024Z</time></trkpt><trkpt lat="43.4273422" lon="12.52388"><ele>785.0</ele><time>2026-05-02T10:11:11.004Z</time></trkpt><trkpt lat="43.4272688" lon="12.5238433"><ele>785.0</ele><time>2026-05-02T10:11:12Z</time></trkpt><trkpt lat="43.4271877" lon="12.523844"><ele>785.6</ele><time>2026-05-02T10:11:13.007Z</time></trkpt><trkpt lat="43.4271134" lon="12.5238658"><ele>786.2</ele><time>2026-05-02T10:11:14.004Z</time></trkpt><trkpt lat="43.4270318" lon="12.5239255"><ele>786.8</ele><time>2026-05-02T10:11:15.011Z</time></trkpt><trkpt lat="43.4269492" lon="12.5240244"><ele>787.4</ele><time>2026-05-02T10:11:16.011Z</time></trkpt><trkpt lat="43.4268631" lon="12.5241564"><ele>788.0</ele><time>2026-05-02T10:11:17.013Z</time></trkpt><trkpt lat="43.4267686" lon="12.5243103"><ele>788.0</ele><time>2026-05-02T10:11:18.01Z</time></trkpt><trkpt lat="43.4266684" lon="12.5244733"><ele>788.0</ele><time>2026-05-02T10:11:19.016Z</time></trkpt><trkpt lat="43.4265667" lon="12.524644"><ele>788.0</ele><time>2026-05-02T10:11:20.003Z</time></trkpt><trkpt lat="43.4264511" lon="12.5248057"><ele>784.6666666666667</ele><time>2026-05-02T10:11:21.003Z</time></trkpt><trkpt lat="43.4263156" lon="12.5249612"><ele>781.3333333333333</ele><time>2026-05-02T10:11:22.007Z</time></trkpt><trkpt lat="43.4261751" lon="12.525123"><ele>778.0</ele><time>2026-05-02T10:11:22.997Z</time></trkpt><trkpt lat="43.4260412" lon="12.5252887"><ele>778.3333333333333</ele><time>2026-05-02T10:11:23.997Z</time></trkpt><trkpt lat="43.4259097" lon="12.5254759"><ele>778.6666666666667</ele><time>2026-05-02T10:11:24.999Z</time></trkpt><trkpt lat="43.4257736" lon="12.5256777"><ele>779.0</ele><time>2026-05-02T10:11:26.008Z</time></trkpt><trkpt lat="43.4256397" lon="12.5258781"><ele>779.0</ele><time>2026-05-02T10:11:27.001Z</time></trkpt><trkpt lat="43.4255162" lon="12.5260676"><ele>779.0</ele><time>2026-05-02T10:11:28.007Z</time></trkpt><trkpt lat="43.4254103" lon="12.526226"><ele>779.0</ele><time>2026-05-02T10:11:28.997Z</time></trkpt><trkpt lat="43.4253195" lon="12.5263688"><ele>779.25</ele><time>2026-05-02T10:11:30.025Z</time></trkpt><trkpt lat="43.4252326" lon="12.526507"><ele>779.5</ele><time>2026-05-02T10:11:31.002Z</time></trkpt><trkpt lat="43.4251544" lon="12.5266294"><ele>779.75</ele><time>2026-05-02T10:11:31.996Z</time></trkpt><trkpt lat="43.4250897" lon="12.5267486"><ele>780.0</ele><time>2026-05-02T10:11:32.995Z</time></trkpt><trkpt lat="43.4250274" lon="12.5268491"><ele>780.0</ele><time>2026-05-02T10:11:34.003Z</time></trkpt><trkpt lat="43.4249804" lon="12.5269469"><ele>780.0</ele><time>2026-05-02T10:11:35.006Z</time></trkpt><trkpt lat="43.4249458" lon="12.5270363"><ele>780.0</ele><time>2026-05-02T10:11:36.001Z</time></trkpt><trkpt lat="43.4248863" lon="12.5271821"><ele>780.0</ele><time>2026-05-02T10:11:38.001Z</time></trkpt><trkpt lat="43.4248095" lon="12.5273418"><ele>780.0</ele><time>2026-05-02T10:11:40.005Z</time></trkpt><trkpt lat="43.4247659" lon="12.5274425"><ele>781.8333333333334</ele><time>2026-05-02T10:11:41.012Z</time></trkpt><trkpt lat="43.424731" lon="12.5275486"><ele>783.6666666666667</ele><time>2026-05-02T10:11:42.005Z</time></trkpt><trkpt lat="43.4247138" lon="12.5276734"><ele>785.5</ele><time>2026-05-02T10:11:43.001Z</time></trkpt><trkpt lat="43.4247216" lon="12.5277817"><ele>787.3333333333334</ele><time>2026-05-02T10:11:44.019Z</time></trkpt><trkpt lat="43.4247452" lon="12.5278951"><ele>789.1666666666667</ele><time>2026-05-02T10:11:45.013Z</time></trkpt><trkpt lat="43.424793" lon="12.5279995"><ele>791.0</ele><time>2026-05-02T10:11:46.011Z</time></trkpt><trkpt lat="43.4248578" lon="12.5280981"><ele>791.8</ele><time>2026-05-02T10:11:47.014Z</time></trkpt><trkpt lat="43.4249391" lon="12.5281965"><ele>792.5999999999999</ele><time>2026-05-02T10:11:48.001Z</time></trkpt><trkpt lat="43.4250147" lon="12.5283001"><ele>793.4</ele><time>2026-05-02T10:11:48.996Z</time></trkpt><trkpt lat="43.4250787" lon="12.5284093"><ele>794.2</ele><time>2026-05-02T10:11:49.994Z</time></trkpt><trkpt lat="43.425131" lon="12.5285336"><ele>795.0</ele><time>2026-05-02T10:11:51.008Z</time></trkpt><trkpt lat="43.4251718" lon="12.5286609"><ele>795.75</ele><time>2026-05-02T10:11:52.004Z</time></trkpt><trkpt lat="43.42519" lon="12.5288077"><ele>796.5</ele><time>2026-05-02T10:11:52.998Z</time></trkpt><trkpt lat="43.4251728" lon="12.5289648"><ele>797.25</ele><time>2026-05-02T10:11:53.998Z</time></trkpt><trkpt lat="43.4251365" lon="12.5291287"><ele>798.0</ele><time>2026-05-02T10:11:54.997Z</time></trkpt><trkpt lat="43.4250782" lon="12.5292927"><ele>798.0</ele><time>2026-05-02T10:11:56.001Z</time></trkpt><trkpt lat="43.4250121" lon="12.5294451"><ele>798.0</ele><time>2026-05-02T10:11:57.017Z</time></trkpt><trkpt lat="43.4249179" lon="12.5295803"><ele>798.0</ele><time>2026-05-02T10:11:58.002Z</time></trkpt><trkpt lat="43.4248224" lon="12.5296833"><ele>798.0</ele><time>2026-05-02T10:11:59.015Z</time></trkpt><trkpt lat="43.4247271" lon="12.5297644"><ele>798.5</ele><time>2026-05-02T10:12:00.011Z</time></trkpt><trkpt lat="43.424624" lon="12.5298314"><ele>799.0</ele><time>2026-05-02T10:12:00.992Z</time></trkpt><trkpt lat="43.4245046" lon="12.5298711"><ele>799.5</ele><time>2026-05-02T10:12:01.993Z</time></trkpt><trkpt lat="43.4243846" lon="12.5299024"><ele>800.0</ele><time>2026-05-02T10:12:03.006Z</time></trkpt><trkpt lat="43.4242725" lon="12.5299543"><ele>800.0</ele><time>2026-05-02T10:12:04.003Z</time></trkpt><trkpt lat="43.4241694" lon="12.5300107"><ele>800.0</ele><time>2026-05-02T10:12:05.001Z</time></trkpt><trkpt lat="43.4240625" lon="12.5300441"><ele>800.0</ele><time>2026-05-02T10:12:06.001Z</time></trkpt><trkpt lat="43.4239478" lon="12.5300249"><ele>800.0</ele><time>2026-05-02T10:12:07.011Z</time></trkpt><trkpt lat="43.4238388" lon="12.5299883"><ele>800.0</ele><time>2026-05-02T10:12:08.004Z</time></trkpt><trkpt lat="43.4237478" lon="12.5299217"><ele>802.8</ele><time>2026-05-02T10:12:08.989Z</time></trkpt><trkpt lat="43.4236788" lon="12.5298415"><ele>805.6</ele><time>2026-05-02T10:12:10.034Z</time></trkpt><trkpt lat="43.4236189" lon="12.5297375"><ele>808.4000000000001</ele><time>2026-05-02T10:12:10.992Z</time></trkpt><trkpt lat="43.4235538" lon="12.5296156"><ele>811.2</ele><time>2026-05-02T10:12:11.997Z</time></trkpt><trkpt lat="43.4234749" lon="12.5294814"><ele>814.0</ele><time>2026-05-02T10:12:12.994Z</time></trkpt><trkpt lat="43.4233977" lon="12.5293394"><ele>807.0</ele><time>2026-05-02T10:12:13.993Z</time></trkpt><trkpt lat="43.4233294" lon="12.5291956"><ele>800.0</ele><time>2026-05-02T10:12:15.006Z</time></trkpt><trkpt lat="43.4232675" lon="12.5290591"><ele>793.0</ele><time>2026-05-02T10:12:16.003Z</time></trkpt><trkpt lat="43.4232017" lon="12.5289351"><ele>786.0</ele><time>2026-05-02T10:12:17.01Z</time></trkpt><trkpt lat="43.4231382" lon="12.5288296"><ele>786.0</ele><time>2026-05-02T10:12:18.01Z</time></trkpt><trkpt lat="43.4230703" lon="12.5287584"><ele>786.0</ele><time>2026-05-02T10:12:19.002Z</time></trkpt><trkpt lat="43.4229986" lon="12.528722"><ele>786.0</ele><time>2026-05-02T10:12:20.006Z</time></trkpt><trkpt lat="43.4229244" lon="12.5287405"><ele>786.0</ele><time>2026-05-02T10:12:21.012Z</time></trkpt><trkpt lat="43.4228568" lon="12.5288069"><ele>786.0</ele><time>2026-05-02T10:12:22.006Z</time></trkpt><trkpt lat="43.4227875" lon="12.528926"><ele>786.0</ele><time>2026-05-02T10:12:22.996Z</time></trkpt><trkpt lat="43.4227139" lon="12.5290524"><ele>786.4</ele><time>2026-05-02T10:12:24.002Z</time></trkpt><trkpt lat="43.4226365" lon="12.5291518"><ele>786.8</ele><time>2026-05-02T10:12:25.012Z</time></trkpt><trkpt lat="43.4225537" lon="12.5292324"><ele>787.1999999999999</ele><time>2026-05-02T10:12:25.996Z</time></trkpt><trkpt lat="43.4224636" lon="12.5292729"><ele>787.5999999999999</ele><time>2026-05-02T10:12:27.005Z</time></trkpt><trkpt lat="43.4223637" lon="12.5292747"><ele>788.0</ele><time>2026-05-02T10:12:28Z</time></trkpt><trkpt lat="43.4222573" lon="12.5292329"><ele>788.0</ele><time>2026-05-02T10:12:28.99Z</time></trkpt><trkpt lat="43.4221628" lon="12.5291464"><ele>788.0</ele><time>2026-05-02T10:12:30.004Z</time></trkpt><trkpt lat="43.4220608" lon="12.529018"><ele>788.0</ele><time>2026-05-02T10:12:30.991Z</time></trkpt><trkpt lat="43.421937" lon="12.5288764"><ele>788.0</ele><time>2026-05-02T10:12:31.997Z</time></trkpt><trkpt lat="43.4217964" lon="12.52874"><ele>784.5</ele><time>2026-05-02T10:12:32.99Z</time></trkpt><trkpt lat="43.4216624" lon="12.5286074"><ele>781.0</ele><time>2026-05-02T10:12:34.001Z</time></trkpt><trkpt lat="43.4215513" lon="12.5284992"><ele>777.5</ele><time>2026-05-02T10:12:35.008Z</time></trkpt><trkpt lat="43.4214568" lon="12.5284031"><ele>774.0</ele><time>2026-05-02T10:12:36Z</time></trkpt><trkpt lat="43.4213833" lon="12.5283308"><ele>774.0</ele><time>2026-05-02T10:12:37.009Z</time></trkpt><trkpt lat="43.421324" lon="12.5282771"><ele>774.0</ele><time>2026-05-02T10:12:38.017Z</time></trkpt><trkpt lat="43.4212413" lon="12.5281966"><ele>774.0</ele><time>2026-05-02T10:12:39.996Z</time></trkpt><trkpt lat="43.421165" lon="12.5282181"><ele>774.0</ele><time>2026-05-02T10:12:42.01Z</time></trkpt><trkpt lat="43.4211629" lon="12.52833"><ele>774.0</ele><time>2026-05-02T10:12:45.005Z</time></trkpt><trkpt lat="43.4211938" lon="12.5284591"><ele>774.0</ele><time>2026-05-02T10:12:46.998Z</time></trkpt><trkpt lat="43.4212151" lon="12.5285522"><ele>773.0</ele><time>2026-05-02T10:12:47.995Z</time></trkpt><trkpt lat="43.4212442" lon="12.528667"><ele>772.0</ele><time>2026-05-02T10:12:49.006Z</time></trkpt><trkpt lat="43.4212658" lon="12.5287976"><ele>771.0</ele><time>2026-05-02T10:12:50.011Z</time></trkpt><trkpt lat="43.4212824" lon="12.5289381"><ele>770.0</ele><time>2026-05-02T10:12:50.999Z</time></trkpt><trkpt lat="43.4212957" lon="12.5290829"><ele>769.0</ele><time>2026-05-02T10:12:52.003Z</time></trkpt><trkpt lat="43.4213015" lon="12.5292378"><ele>774.0</ele><time>2026-05-02T10:12:52.998Z</time></trkpt><trkpt lat="43.4213201" lon="12.5293912"><ele>779.0</ele><time>2026-05-02T10:12:53.993Z</time></trkpt><trkpt lat="43.4213524" lon="12.5295412"><ele>784.0</ele><time>2026-05-02T10:12:55.011Z</time></trkpt><trkpt lat="43.4213918" lon="12.5296702"><ele>789.0</ele><time>2026-05-02T10:12:56.01Z</time></trkpt><trkpt lat="43.4214293" lon="12.5297921"><ele>794.0</ele><time>2026-05-02T10:12:57.003Z</time></trkpt><trkpt lat="43.421461" lon="12.5299185"><ele>796.4000000000001</ele><time>2026-05-02T10:12:58.006Z</time></trkpt><trkpt lat="43.421487" lon="12.5300512"><ele>798.8</ele><time>2026-05-02T10:12:59.016Z</time></trkpt><trkpt lat="43.4214953" lon="12.5301838"><ele>801.2</ele><time>2026-05-02T10:13:00.008Z</time></trkpt><trkpt lat="43.4214822" lon="12.5303101"><ele>803.5999999999999</ele><time>2026-05-02T10:13:01.006Z</time></trkpt><trkpt lat="43.4214534" lon="12.5304188"><ele>806.0</ele><time>2026-05-02T10:13:02.003Z</time></trkpt><trkpt lat="43.4214078" lon="12.5305123"><ele>807.1999999999999</ele><time>2026-05-02T10:13:02.994Z</time></trkpt><trkpt lat="43.4213415" lon="12.5305992"><ele>808.4</ele><time>2026-05-02T10:13:03.987Z</time></trkpt><trkpt lat="43.4212574" lon="12.53068"><ele>809.6</ele><time>2026-05-02T10:13:05.003Z</time></trkpt><trkpt lat="43.4211541" lon="12.5307592"><ele>810.8</ele><time>2026-05-02T10:13:05.99Z</time></trkpt><trkpt lat="43.4210477" lon="12.5308275"><ele>812.0</ele><time>2026-05-02T10:13:06.997Z</time></trkpt><trkpt lat="43.4209385" lon="12.530873"><ele>809.4000000000001</ele><time>2026-05-02T10:13:08.015Z</time></trkpt><trkpt lat="43.420825" lon="12.5308903"><ele>806.8000000000001</ele><time>2026-05-02T10:13:09.001Z</time></trkpt><trkpt lat="43.4207111" lon="12.5308734"><ele>804.2</ele><time>2026-05-02T10:13:10.003Z</time></trkpt><trkpt lat="43.4206057" lon="12.5308488"><ele>801.6</ele><time>2026-05-02T10:13:11Z</time></trkpt><trkpt lat="43.420519" lon="12.5308186"><ele>799.0</ele><time>2026-05-02T10:13:12.001Z</time></trkpt><trkpt lat="43.4204437" lon="12.5307958"><ele>796.6</ele><time>2026-05-02T10:13:13.002Z</time></trkpt><trkpt lat="43.42038" lon="12.5307888"><ele>794.2</ele><time>2026-05-02T10:13:13.996Z</time></trkpt><trkpt lat="43.4202757" lon="12.5308594"><ele>791.8000000000001</ele><time>2026-05-02T10:13:15.999Z</time></trkpt><trkpt lat="43.4202478" lon="12.5309483"><ele>789.4000000000001</ele><time>2026-05-02T10:13:17.009Z</time></trkpt><trkpt lat="43.4202567" lon="12.5311472"><ele>787.0</ele><time>2026-05-02T10:13:18.995Z</time></trkpt><trkpt lat="43.4202857" lon="12.5312825"><ele>785.75</ele><time>2026-05-02T10:13:19.995Z</time></trkpt><trkpt lat="43.4203138" lon="12.5314503"><ele>784.5</ele><time>2026-05-02T10:13:21.003Z</time></trkpt><trkpt lat="43.4203518" lon="12.5316429"><ele>783.25</ele><time>2026-05-02T10:13:22.005Z</time></trkpt><trkpt lat="43.4203845" lon="12.5318197"><ele>782.0</ele><time>2026-05-02T10:13:22.994Z</time></trkpt><trkpt lat="43.4204084" lon="12.5319594"><ele>783.0</ele><time>2026-05-02T10:13:24Z</time></trkpt><trkpt lat="43.4204194" lon="12.532098"><ele>784.0</ele><time>2026-05-02T10:13:25.003Z</time></trkpt><trkpt lat="43.4204011" lon="12.5322099"><ele>785.0</ele><time>2026-05-02T10:13:25.996Z</time></trkpt><trkpt lat="43.4203515" lon="12.5323186"><ele>786.0</ele><time>2026-05-02T10:13:27Z</time></trkpt><trkpt lat="43.4202729" lon="12.5324274"><ele>787.0</ele><time>2026-05-02T10:13:28Z</time></trkpt><trkpt lat="43.4201793" lon="12.5325225"><ele>786.9999999999999</ele><time>2026-05-02T10:13:28.998Z</time></trkpt><trkpt lat="43.4200945" lon="12.5326199"><ele>787.0</ele><time>2026-05-02T10:13:29.998Z</time></trkpt><trkpt lat="43.4200395" lon="12.5327089"><ele>787.0</ele><time>2026-05-02T10:13:31.005Z</time></trkpt><trkpt lat="43.4200061" lon="12.5328074"><ele>787.0</ele><time>2026-05-02T10:13:32Z</time></trkpt><trkpt lat="43.4200048" lon="12.5329153"><ele>786.9999999999999</ele><time>2026-05-02T10:13:32.997Z</time></trkpt><trkpt lat="43.4200256" lon="12.5330408"><ele>787.0</ele><time>2026-05-02T10:13:34.01Z</time></trkpt><trkpt lat="43.4200566" lon="12.5332003"><ele>788.0</ele><time>2026-05-02T10:13:35.003Z</time></trkpt><trkpt lat="43.420082" lon="12.5333736"><ele>789.0</ele><time>2026-05-02T10:13:36.007Z</time></trkpt><trkpt lat="43.4200829" lon="12.5335334"><ele>790.0</ele><time>2026-05-02T10:13:36.998Z</time></trkpt><trkpt lat="43.4200665" lon="12.5336787"><ele>791.0</ele><time>2026-05-02T10:13:37.995Z</time></trkpt><trkpt lat="43.4200488" lon="12.5338005"><ele>792.0</ele><time>2026-05-02T10:13:38.999Z</time></trkpt><trkpt lat="43.4200214" lon="12.5339082"><ele>792.0</ele><time>2026-05-02T10:13:40.003Z</time></trkpt><trkpt lat="43.4199941" lon="12.5340012"><ele>792.0</ele><time>2026-05-02T10:13:41.003Z</time></trkpt><trkpt lat="43.4199535" lon="12.5340967"><ele>792.0</ele><time>2026-05-02T10:13:42.004Z</time></trkpt><trkpt lat="43.4199033" lon="12.5342206"><ele>792.0</ele><time>2026-05-02T10:13:42.996Z</time></trkpt><trkpt lat="43.4198379" lon="12.534361"><ele>792.0</ele><time>2026-05-02T10:13:44.012Z</time></trkpt><trkpt lat="43.4197643" lon="12.5345002"><ele>790.2</ele><time>2026-05-02T10:13:45.01Z</time></trkpt><trkpt lat="43.4196924" lon="12.5346365"><ele>788.4000000000001</ele><time>2026-05-02T10:13:46.001Z</time></trkpt><trkpt lat="43.4196231" lon="12.5347557"><ele>786.5999999999999</ele><time>2026-05-02T10:13:47.005Z</time></trkpt><trkpt lat="43.4195539" lon="12.5348544"><ele>784.8</ele><time>2026-05-02T10:13:48.004Z</time></trkpt><trkpt lat="43.4194737" lon="12.5349294"><ele>783.0</ele><time>2026-05-02T10:13:49.01Z</time></trkpt><trkpt lat="43.4193804" lon="12.5349845"><ele>782.5999999999999</ele><time>2026-05-02T10:13:50.007Z</time></trkpt><trkpt lat="43.4192733" lon="12.5350116"><ele>782.1999999999999</ele><time>2026-05-02T10:13:51Z</time></trkpt><trkpt lat="43.4191671" lon="12.5350177"><ele>781.8</ele><time>2026-05-02T10:13:52.004Z</time></trkpt><trkpt lat="43.4190736" lon="12.5350069"><ele>781.4</ele><time>2026-05-02T10:13:53.011Z</time></trkpt><trkpt lat="43.4189874" lon="12.5349962"><ele>781.0</ele><time>2026-05-02T10:13:54.004Z</time></trkpt><trkpt lat="43.4189128" lon="12.5349914"><ele>781.0</ele><time>2026-05-02T10:13:55.002Z</time></trkpt><trkpt lat="43.4188425" lon="12.5350033"><ele>781.0</ele><time>2026-05-02T10:13:56.009Z</time></trkpt><trkpt lat="43.4187458" lon="12.5351213"><ele>781.0</ele><time>2026-05-02T10:13:58.006Z</time></trkpt><trkpt lat="43.4187148" lon="12.5352146"><ele>781.0</ele><time>2026-05-02T10:13:59.006Z</time></trkpt><trkpt lat="43.4187129" lon="12.5353363"><ele>781.0</ele><time>2026-05-02T10:14:00.001Z</time></trkpt><trkpt lat="43.4187226" lon="12.5354578"><ele>778.0</ele><time>2026-05-02T10:14:01.004Z</time></trkpt><trkpt lat="43.4187369" lon="12.5355875"><ele>775.0</ele><time>2026-05-02T10:14:02.008Z</time></trkpt><trkpt lat="43.4187515" lon="12.5357187"><ele>772.0</ele><time>2026-05-02T10:14:02.998Z</time></trkpt><trkpt lat="43.4187574" lon="12.5358444"><ele>769.0</ele><time>2026-05-02T10:14:04.003Z</time></trkpt><trkpt lat="43.4187485" lon="12.5359755"><ele>766.0</ele><time>2026-05-02T10:14:05.008Z</time></trkpt><trkpt lat="43.4187135" lon="12.5361018"><ele>766.0</ele><time>2026-05-02T10:14:06.001Z</time></trkpt><trkpt lat="43.4186682" lon="12.536208"><ele>766.0</ele><time>2026-05-02T10:14:07.005Z</time></trkpt><trkpt lat="43.4186057" lon="12.5362841"><ele>766.0</ele><time>2026-05-02T10:14:07.997Z</time></trkpt><trkpt lat="43.4185201" lon="12.5363413"><ele>766.0</ele><time>2026-05-02T10:14:09.019Z</time></trkpt><trkpt lat="43.4184137" lon="12.5363733"><ele>766.0</ele><time>2026-05-02T10:14:10.013Z</time></trkpt><trkpt lat="43.4182905" lon="12.5363816"><ele>766.8</ele><time>2026-05-02T10:14:11.004Z</time></trkpt><trkpt lat="43.4181619" lon="12.5363885"><ele>767.5999999999999</ele><time>2026-05-02T10:14:12.015Z</time></trkpt><trkpt lat="43.4180685" lon="12.5364373"><ele>768.4</ele><time>2026-05-02T10:14:13.015Z</time></trkpt><trkpt lat="43.4179822" lon="12.5365057"><ele>769.2</ele><time>2026-05-02T10:14:13.999Z</time></trkpt><trkpt lat="43.4178928" lon="12.5366052"><ele>770.0</ele><time>2026-05-02T10:14:15.017Z</time></trkpt><trkpt lat="43.4178073" lon="12.5367142"><ele>770.75</ele><time>2026-05-02T10:14:16.001Z</time></trkpt><trkpt lat="43.417716" lon="12.5368408"><ele>771.5</ele><time>2026-05-02T10:14:17Z</time></trkpt><trkpt lat="43.4176162" lon="12.5369943"><ele>772.25</ele><time>2026-05-02T10:14:17.998Z</time></trkpt><trkpt lat="43.4175121" lon="12.5371594"><ele>773.0</ele><time>2026-05-02T10:14:19.007Z</time></trkpt><trkpt lat="43.4174166" lon="12.5373135"><ele>775.75</ele><time>2026-05-02T10:14:20.008Z</time></trkpt><trkpt lat="43.4173412" lon="12.5374456"><ele>778.5</ele><time>2026-05-02T10:14:20.996Z</time></trkpt><trkpt lat="43.4172718" lon="12.5375831"><ele>781.25</ele><time>2026-05-02T10:14:22.004Z</time></trkpt><trkpt lat="43.4172195" lon="12.5377233"><ele>784.0</ele><time>2026-05-02T10:14:23.003Z</time></trkpt><trkpt lat="43.4171808" lon="12.5379105"><ele>785.3333333333333</ele><time>2026-05-02T10:14:24.005Z</time></trkpt><trkpt lat="43.4171545" lon="12.5381415"><ele>786.6666666666667</ele><time>2026-05-02T10:14:25.006Z</time></trkpt><trkpt lat="43.4171261" lon="12.5383928"><ele>788.0</ele><time>2026-05-02T10:14:26.005Z</time></trkpt><trkpt lat="43.4170741" lon="12.5386788"><ele>774.5</ele><time>2026-05-02T10:14:27.017Z</time></trkpt><trkpt lat="43.4170148" lon="12.5389705"><ele>761.0</ele><time>2026-05-02T10:14:28.01Z</time></trkpt><trkpt lat="43.4169507" lon="12.5392746"><ele>766.0</ele><time>2026-05-02T10:14:29.004Z</time></trkpt><trkpt lat="43.4168814" lon="12.5395741"><ele>771.0</ele><time>2026-05-02T10:14:30.018Z</time></trkpt><trkpt lat="43.4168038" lon="12.5398853"><ele>771.0</ele><time>2026-05-02T10:14:31Z</time></trkpt><trkpt lat="43.4167241" lon="12.5402028"><ele>771.0</ele><time>2026-05-02T10:14:32.001Z</time></trkpt><trkpt lat="43.4166443" lon="12.5405083"><ele>772.0</ele><time>2026-05-02T10:14:33.001Z</time></trkpt><trkpt lat="43.4165739" lon="12.5407817"><ele>773.0</ele><time>2026-05-02T10:14:33.996Z</time></trkpt><trkpt lat="43.4165102" lon="12.5410195"><ele>774.0</ele><time>2026-05-02T10:14:35.006Z</time></trkpt><trkpt lat="43.4164507" lon="12.5412303"><ele>774.75</ele><time>2026-05-02T10:14:36.027Z</time></trkpt><trkpt lat="43.416398" lon="12.5414203"><ele>775.5</ele><time>2026-05-02T10:14:37.004Z</time></trkpt><trkpt lat="43.4163541" lon="12.5415907"><ele>776.25</ele><time>2026-05-02T10:14:38.001Z</time></trkpt><trkpt lat="43.4163126" lon="12.5417472"><ele>777.0</ele><time>2026-05-02T10:14:38.998Z</time></trkpt><trkpt lat="43.416275" lon="12.5419058"><ele>773.75</ele><time>2026-05-02T10:14:40.011Z</time></trkpt><trkpt lat="43.4162458" lon="12.5420799"><ele>770.5</ele><time>2026-05-02T10:14:41.004Z</time></trkpt><trkpt lat="43.416215" lon="12.5422658"><ele>767.25</ele><time>2026-05-02T10:14:42.004Z</time></trkpt><trkpt lat="43.4162105" lon="12.542451"><ele>764.0</ele><time>2026-05-02T10:14:43.011Z</time></trkpt><trkpt lat="43.4162181" lon="12.5426452"><ele>764.0</ele><time>2026-05-02T10:14:44.006Z</time></trkpt><trkpt lat="43.4162402" lon="12.5428382"><ele>764.0</ele><time>2026-05-02T10:14:44.997Z</time></trkpt><trkpt lat="43.4162564" lon="12.5430154"><ele>764.0</ele><time>2026-05-02T10:14:46.007Z</time></trkpt><trkpt lat="43.4162591" lon="12.543199"><ele>764.0</ele><time>2026-05-02T10:14:46.992Z</time></trkpt><trkpt lat="43.416248" lon="12.5433628"><ele>764.6</ele><time>2026-05-02T10:14:48.018Z</time></trkpt><trkpt lat="43.41621" lon="12.5435002"><ele>765.2</ele><time>2026-05-02T10:14:49.004Z</time></trkpt><trkpt lat="43.4161512" lon="12.5436069"><ele>765.8000000000001</ele><time>2026-05-02T10:14:50.014Z</time></trkpt><trkpt lat="43.4160734" lon="12.5436748"><ele>766.4000000000001</ele><time>2026-05-02T10:14:51.001Z</time></trkpt><trkpt lat="43.4159889" lon="12.5437303"><ele>767.0</ele><time>2026-05-02T10:14:52.017Z</time></trkpt><trkpt lat="43.4158784" lon="12.5437682"><ele>767.6666666666666</ele><time>2026-05-02T10:14:53.015Z</time></trkpt><trkpt lat="43.4157434" lon="12.543811"><ele>768.3333333333333</ele><time>2026-05-02T10:14:54.031Z</time></trkpt><trkpt lat="43.4155936" lon="12.5438556"><ele>769.0</ele><time>2026-05-02T10:14:55.018Z</time></trkpt><trkpt lat="43.4154375" lon="12.5439008"><ele>769.6</ele><time>2026-05-02T10:14:56.006Z</time></trkpt><trkpt lat="43.4153044" lon="12.5439415"><ele>770.2</ele><time>2026-05-02T10:14:57.025Z</time></trkpt><trkpt lat="43.4151881" lon="12.543978"><ele>770.8000000000001</ele><time>2026-05-02T10:14:58.002Z</time></trkpt><trkpt lat="43.4150917" lon="12.5440227"><ele>771.4000000000001</ele><time>2026-05-02T10:14:59.011Z</time></trkpt><trkpt lat="43.4150092" lon="12.5440715"><ele>772.0</ele><time>2026-05-02T10:15:00.018Z</time></trkpt><trkpt lat="43.4149418" lon="12.5441197"><ele>771.9999999999999</ele><time>2026-05-02T10:15:00.995Z</time></trkpt><trkpt lat="43.4148786" lon="12.5441744"><ele>772.0</ele><time>2026-05-02T10:15:01.996Z</time></trkpt><trkpt lat="43.4148143" lon="12.5442437"><ele>772.0</ele><time>2026-05-02T10:15:02.998Z</time></trkpt><trkpt lat="43.4147509" lon="12.5443158"><ele>772.0</ele><time>2026-05-02T10:15:04Z</time></trkpt><trkpt lat="43.4146887" lon="12.5443954"><ele>771.9999999999999</ele><time>2026-05-02T10:15:04.999Z</time></trkpt><trkpt lat="43.4146223" lon="12.5444825"><ele>772.0</ele><time>2026-05-02T10:15:06.009Z</time></trkpt><trkpt lat="43.4145538" lon="12.5445673"><ele>775.5</ele><time>2026-05-02T10:15:07Z</time></trkpt><trkpt lat="43.4144837" lon="12.5446619"><ele>779.0</ele><time>2026-05-02T10:15:08.006Z</time></trkpt><trkpt lat="43.4144185" lon="12.5447924"><ele>782.5</ele><time>2026-05-02T10:15:09.004Z</time></trkpt><trkpt lat="43.4143519" lon="12.5449284"><ele>786.0</ele><time>2026-05-02T10:15:10.01Z</time></trkpt><trkpt lat="43.4142823" lon="12.545059"><ele>786.0</ele><time>2026-05-02T10:15:11.006Z</time></trkpt><trkpt lat="43.414206" lon="12.545191"><ele>786.0</ele><time>2026-05-02T10:15:12.011Z</time></trkpt><trkpt lat="43.4141155" lon="12.5453297"><ele>786.0</ele><time>2026-05-02T10:15:13.012Z</time></trkpt><trkpt lat="43.4140257" lon="12.5454587"><ele>786.0</ele><time>2026-05-02T10:15:13.994Z</time></trkpt><trkpt lat="43.4139379" lon="12.5456023"><ele>785.5</ele><time>2026-05-02T10:15:15.004Z</time></trkpt><trkpt lat="43.4138537" lon="12.5457515"><ele>785.0</ele><time>2026-05-02T10:15:16.003Z</time></trkpt><trkpt lat="43.4137769" lon="12.5458985"><ele>784.5</ele><time>2026-05-02T10:15:17.012Z</time></trkpt><trkpt lat="43.4137089" lon="12.5460435"><ele>784.0</ele><time>2026-05-02T10:15:17.997Z</time></trkpt><trkpt lat="43.4136429" lon="12.5462011"><ele>789.0</ele><time>2026-05-02T10:15:18.994Z</time></trkpt><trkpt lat="43.4135919" lon="12.546383"><ele>794.0</ele><time>2026-05-02T10:15:20.016Z</time></trkpt><trkpt lat="43.4135529" lon="12.5465912"><ele>799.0</ele><time>2026-05-02T10:15:21.004Z</time></trkpt><trkpt lat="43.413529" lon="12.5467952"><ele>804.0</ele><time>2026-05-02T10:15:21.995Z</time></trkpt><trkpt lat="43.413518" lon="12.5469844"><ele>803.2</ele><time>2026-05-02T10:15:22.999Z</time></trkpt><trkpt lat="43.4135146" lon="12.5471468"><ele>802.4000000000001</ele><time>2026-05-02T10:15:24.011Z</time></trkpt><trkpt lat="43.4135255" lon="12.5472853"><ele>801.6</ele><time>2026-05-02T10:15:24.999Z</time></trkpt><trkpt lat="43.4135517" lon="12.5474205"><ele>800.8</ele><time>2026-05-02T10:15:26.002Z</time></trkpt><trkpt lat="43.4135977" lon="12.5475586"><ele>800.0</ele><time>2026-05-02T10:15:27.009Z</time></trkpt><trkpt lat="43.4136783" lon="12.5476961"><ele>800.0</ele><time>2026-05-02T10:15:28Z</time></trkpt><trkpt lat="43.4137768" lon="12.5478404"><ele>800.0</ele><time>2026-05-02T10:15:29.003Z</time></trkpt><trkpt lat="43.4138839" lon="12.5480058"><ele>800.0</ele><time>2026-05-02T10:15:30.004Z</time></trkpt><trkpt lat="43.4139854" lon="12.5481671"><ele>798.75</ele><time>2026-05-02T10:15:30.997Z</time></trkpt><trkpt lat="43.4140821" lon="12.5483126"><ele>797.5</ele><time>2026-05-02T10:15:31.996Z</time></trkpt><trkpt lat="43.4141728" lon="12.5484617"><ele>796.25</ele><time>2026-05-02T10:15:33.006Z</time></trkpt><trkpt lat="43.4142595" lon="12.5485993"><ele>795.0</ele><time>2026-05-02T10:15:34.002Z</time></trkpt><trkpt lat="43.4143419" lon="12.5487353"><ele>793.8</ele><time>2026-05-02T10:15:35.011Z</time></trkpt><trkpt lat="43.4144173" lon="12.5488558"><ele>792.6</ele><time>2026-05-02T10:15:36.006Z</time></trkpt><trkpt lat="43.414489" lon="12.5489558"><ele>791.4000000000001</ele><time>2026-05-02T10:15:37.002Z</time></trkpt><trkpt lat="43.4145571" lon="12.5490369"><ele>790.2</ele><time>2026-05-02T10:15:37.999Z</time></trkpt><trkpt lat="43.4146228" lon="12.5491032"><ele>789.0</ele><time>2026-05-02T10:15:39Z</time></trkpt><trkpt lat="43.4146896" lon="12.549151"><ele>788.1666666666666</ele><time>2026-05-02T10:15:40.008Z</time></trkpt><trkpt lat="43.4147638" lon="12.5491784"><ele>787.3333333333333</ele><time>2026-05-02T10:15:41.01Z</time></trkpt><trkpt lat="43.4148439" lon="12.5491854"><ele>786.5</ele><time>2026-05-02T10:15:41.996Z</time></trkpt><trkpt lat="43.4149339" lon="12.5491534"><ele>785.6666666666666</ele><time>2026-05-02T10:15:43Z</time></trkpt><trkpt lat="43.4150235" lon="12.5491032"><ele>784.8333333333333</ele><time>2026-05-02T10:15:44.002Z</time></trkpt><trkpt lat="43.4151156" lon="12.5490472"><ele>784.0</ele><time>2026-05-02T10:15:44.993Z</time></trkpt><trkpt lat="43.4152114" lon="12.5489669"><ele>784.0</ele><time>2026-05-02T10:15:45.996Z</time></trkpt><trkpt lat="43.4153171" lon="12.5488751"><ele>784.0</ele><time>2026-05-02T10:15:46.999Z</time></trkpt><trkpt lat="43.4154202" lon="12.5487575"><ele>784.0</ele><time>2026-05-02T10:15:47.997Z</time></trkpt><trkpt lat="43.4155203" lon="12.5486218"><ele>784.0</ele><time>2026-05-02T10:15:49.006Z</time></trkpt><trkpt lat="43.4156218" lon="12.5484673"><ele>782.75</ele><time>2026-05-02T10:15:50Z</time></trkpt><trkpt lat="43.4157203" lon="12.5483075"><ele>781.5</ele><time>2026-05-02T10:15:51.007Z</time></trkpt><trkpt lat="43.4158147" lon="12.5481534"><ele>780.25</ele><time>2026-05-02T10:15:51.999Z</time></trkpt><trkpt lat="43.4159026" lon="12.5480047"><ele>779.0</ele><time>2026-05-02T10:15:53.001Z</time></trkpt><trkpt lat="43.4159907" lon="12.547864"><ele>776.75</ele><time>2026-05-02T10:15:53.992Z</time></trkpt><trkpt lat="43.4160716" lon="12.547716"><ele>774.5</ele><time>2026-05-02T10:15:54.996Z</time></trkpt><trkpt lat="43.4161469" lon="12.5475593"><ele>772.25</ele><time>2026-05-02T10:15:56.001Z</time></trkpt><trkpt lat="43.4162262" lon="12.5474024"><ele>770.0</ele><time>2026-05-02T10:15:56.993Z</time></trkpt><trkpt lat="43.4163109" lon="12.5472583"><ele>768.5</ele><time>2026-05-02T10:15:57.991Z</time></trkpt><trkpt lat="43.4164088" lon="12.547118"><ele>767.0</ele><time>2026-05-02T10:15:58.998Z</time></trkpt><trkpt lat="43.4165226" lon="12.5469725"><ele>765.5</ele><time>2026-05-02T10:16:00.004Z</time></trkpt><trkpt lat="43.4166365" lon="12.5468351"><ele>764.0</ele><time>2026-05-02T10:16:00.994Z</time></trkpt><trkpt lat="43.4167454" lon="12.5467013"><ele>764.0</ele><time>2026-05-02T10:16:01.988Z</time></trkpt><trkpt lat="43.4168462" lon="12.546578"><ele>764.0</ele><time>2026-05-02T10:16:02.996Z</time></trkpt><trkpt lat="43.4169343" lon="12.5464586"><ele>764.0</ele><time>2026-05-02T10:16:03.992Z</time></trkpt><trkpt lat="43.417015" lon="12.5463524"><ele>764.0</ele><time>2026-05-02T10:16:05.003Z</time></trkpt><trkpt lat="43.4170948" lon="12.5462592"><ele>764.8000000000001</ele><time>2026-05-02T10:16:05.986Z</time></trkpt><trkpt lat="43.4171761" lon="12.546198"><ele>765.6</ele><time>2026-05-02T10:16:06.985Z</time></trkpt><trkpt lat="43.4172686" lon="12.5461605"><ele>766.4</ele><time>2026-05-02T10:16:07.989Z</time></trkpt><trkpt lat="43.4173658" lon="12.5461602"><ele>767.2</ele><time>2026-05-02T10:16:08.993Z</time></trkpt><trkpt lat="43.4174785" lon="12.5461936"><ele>768.0</ele><time>2026-05-02T10:16:09.988Z</time></trkpt><trkpt lat="43.4175997" lon="12.5462359"><ele>768.0</ele><time>2026-05-02T10:16:10.985Z</time></trkpt><trkpt lat="43.4177248" lon="12.5462635"><ele>768.0</ele><time>2026-05-02T10:16:11.997Z</time></trkpt><trkpt lat="43.4178528" lon="12.5462668"><ele>768.0</ele><time>2026-05-02T10:16:12.984Z</time></trkpt><trkpt lat="43.4179915" lon="12.5462376"><ele>768.0</ele><time>2026-05-02T10:16:13.988Z</time></trkpt><trkpt lat="43.4181408" lon="12.5461968"><ele>759.6666666666666</ele><time>2026-05-02T10:16:14.991Z</time></trkpt><trkpt lat="43.4183017" lon="12.5461462"><ele>751.3333333333333</ele><time>2026-05-02T10:16:15.992Z</time></trkpt><trkpt lat="43.4184668" lon="12.5460992"><ele>743.0</ele><time>2026-05-02T10:16:16.993Z</time></trkpt><trkpt lat="43.4186363" lon="12.5460485"><ele>743.0</ele><time>2026-05-02T10:16:17.991Z</time></trkpt><trkpt lat="43.4188074" lon="12.5459877"><ele>743.0</ele><time>2026-05-02T10:16:19.008Z</time></trkpt><trkpt lat="43.418967" lon="12.545924"><ele>743.0</ele><time>2026-05-02T10:16:20.002Z</time></trkpt><trkpt lat="43.4191296" lon="12.5458611"><ele>743.0</ele><time>2026-05-02T10:16:20.992Z</time></trkpt><trkpt lat="43.4192852" lon="12.5458071"><ele>743.0</ele><time>2026-05-02T10:16:21.989Z</time></trkpt><trkpt lat="43.4194237" lon="12.5457701"><ele>743.0</ele><time>2026-05-02T10:16:22.996Z</time></trkpt><trkpt lat="43.4195628" lon="12.5457566"><ele>743.0</ele><time>2026-05-02T10:16:23.991Z</time></trkpt><trkpt lat="43.4197069" lon="12.5457598"><ele>743.0</ele><time>2026-05-02T10:16:24.99Z</time></trkpt><trkpt lat="43.4198664" lon="12.5457706"><ele>743.0</ele><time>2026-05-02T10:16:26Z</time></trkpt><trkpt lat="43.420022" lon="12.5458048"><ele>743.0</ele><time>2026-05-02T10:16:26.99Z</time></trkpt><trkpt lat="43.4201615" lon="12.5458407"><ele>743.0</ele><time>2026-05-02T10:16:27.989Z</time></trkpt><trkpt lat="43.4202997" lon="12.5458745"><ele>743.0</ele><time>2026-05-02T10:16:28.993Z</time></trkpt><trkpt lat="43.4204327" lon="12.545904"><ele>743.0</ele><time>2026-05-02T10:16:29.993Z</time></trkpt><trkpt lat="43.4205473" lon="12.5459159"><ele>743.0</ele><time>2026-05-02T10:16:31.003Z</time></trkpt><trkpt lat="43.4206523" lon="12.5458903"><ele>742.0</ele><time>2026-05-02T10:16:32Z</time></trkpt><trkpt lat="43.4207668" lon="12.5458294"><ele>741.0</ele><time>2026-05-02T10:16:32.996Z</time></trkpt><trkpt lat="43.4208872" lon="12.5457353"><ele>740.0</ele><time>2026-05-02T10:16:33.993Z</time></trkpt><trkpt lat="43.4210307" lon="12.5456355"><ele>739.0</ele><time>2026-05-02T10:16:35.005Z</time></trkpt><trkpt lat="43.4211924" lon="12.5455604"><ele>738.3333333333334</ele><time>2026-05-02T10:16:36.008Z</time></trkpt><trkpt lat="43.421356" lon="12.5455004"><ele>737.6666666666666</ele><time>2026-05-02T10:16:36.993Z</time></trkpt><trkpt lat="43.4215101" lon="12.5454479"><ele>737.0</ele><time>2026-05-02T10:16:37.992Z</time></trkpt><trkpt lat="43.4216533" lon="12.545407"><ele>732.75</ele><time>2026-05-02T10:16:38.993Z</time></trkpt><trkpt lat="43.4217891" lon="12.5453737"><ele>728.5</ele><time>2026-05-02T10:16:39.995Z</time></trkpt><trkpt lat="43.4219153" lon="12.5453502"><ele>724.25</ele><time>2026-05-02T10:16:40.994Z</time></trkpt><trkpt lat="43.4220202" lon="12.54534"><ele>720.0</ele><time>2026-05-02T10:16:41.998Z</time></trkpt><trkpt lat="43.4221064" lon="12.5453565"><ele>722.4</ele><time>2026-05-02T10:16:42.996Z</time></trkpt><trkpt lat="43.4221828" lon="12.5454096"><ele>724.8</ele><time>2026-05-02T10:16:43.996Z</time></trkpt><trkpt lat="43.4222662" lon="12.5454794"><ele>727.2</ele><time>2026-05-02T10:16:44.995Z</time></trkpt><trkpt lat="43.4223487" lon="12.5455596"><ele>729.6</ele><time>2026-05-02T10:16:45.996Z</time></trkpt><trkpt lat="43.4224409" lon="12.5456393"><ele>732.0</ele><time>2026-05-02T10:16:47.002Z</time></trkpt><trkpt lat="43.4225385" lon="12.54572"><ele>732.0</ele><time>2026-05-02T10:16:47.995Z</time></trkpt><trkpt lat="43.4226381" lon="12.5458007"><ele>732.0</ele><time>2026-05-02T10:16:49.001Z</time></trkpt><trkpt lat="43.4227505" lon="12.5458871"><ele>732.0</ele><time>2026-05-02T10:16:49.993Z</time></trkpt><trkpt lat="43.4228533" lon="12.5459699"><ele>732.0</ele><time>2026-05-02T10:16:50.998Z</time></trkpt><trkpt lat="43.4229405" lon="12.5460519"><ele>732.4000000000001</ele><time>2026-05-02T10:16:52.001Z</time></trkpt><trkpt lat="43.4230061" lon="12.5461394"><ele>732.8000000000001</ele><time>2026-05-02T10:16:53.008Z</time></trkpt><trkpt lat="43.4230585" lon="12.5462462"><ele>733.2</ele><time>2026-05-02T10:16:54.001Z</time></trkpt><trkpt lat="43.4231084" lon="12.5463762"><ele>733.6</ele><time>2026-05-02T10:16:54.996Z</time></trkpt><trkpt lat="43.4231679" lon="12.5465142"><ele>734.0</ele><time>2026-05-02T10:16:55.999Z</time></trkpt><trkpt lat="43.4232472" lon="12.5466456"><ele>734.0</ele><time>2026-05-02T10:16:57.002Z</time></trkpt><trkpt lat="43.4233473" lon="12.5467713"><ele>734.0</ele><time>2026-05-02T10:16:58Z</time></trkpt><trkpt lat="43.4234441" lon="12.5468995"><ele>734.0</ele><time>2026-05-02T10:16:59Z</time></trkpt><trkpt lat="43.4235298" lon="12.5470257"><ele>734.0</ele><time>2026-05-02T10:16:59.989Z</time></trkpt><trkpt lat="43.42362" lon="12.5471288"><ele>737.5</ele><time>2026-05-02T10:17:01.003Z</time></trkpt><trkpt lat="43.4237174" lon="12.5472129"><ele>741.0</ele><time>2026-05-02T10:17:01.984Z</time></trkpt><trkpt lat="43.4238313" lon="12.5472486"><ele>744.5</ele><time>2026-05-02T10:17:02.999Z</time></trkpt><trkpt lat="43.4239473" lon="12.5472631"><ele>748.0</ele><time>2026-05-02T10:17:03.99Z</time></trkpt><trkpt lat="43.4240738" lon="12.5472654"><ele>748.0</ele><time>2026-05-02T10:17:04.991Z</time></trkpt><trkpt lat="43.4241948" lon="12.5472597"><ele>748.0</ele><time>2026-05-02T10:17:05.992Z</time></trkpt><trkpt lat="43.4243083" lon="12.5472664"><ele>748.0</ele><time>2026-05-02T10:17:06.997Z</time></trkpt><trkpt lat="43.4244256" lon="12.5473073"><ele>748.0</ele><time>2026-05-02T10:17:07.996Z</time></trkpt><trkpt lat="43.4245471" lon="12.5473606"><ele>744.25</ele><time>2026-05-02T10:17:08.993Z</time></trkpt><trkpt lat="43.4246847" lon="12.5474138"><ele>740.5</ele><time>2026-05-02T10:17:09.99Z</time></trkpt><trkpt lat="43.4248239" lon="12.5474441"><ele>736.75</ele><time>2026-05-02T10:17:10.985Z</time></trkpt><trkpt lat="43.4249476" lon="12.5474536"><ele>733.0</ele><time>2026-05-02T10:17:11.993Z</time></trkpt><trkpt lat="43.4250587" lon="12.54747"><ele>733.0</ele><time>2026-05-02T10:17:12.998Z</time></trkpt><trkpt lat="43.4251527" lon="12.5474977"><ele>733.0</ele><time>2026-05-02T10:17:13.995Z</time></trkpt><trkpt lat="43.4252348" lon="12.5475267"><ele>733.0</ele><time>2026-05-02T10:17:14.998Z</time></trkpt><trkpt lat="43.4253048" lon="12.5475839"><ele>733.0</ele><time>2026-05-02T10:17:15.982Z</time></trkpt><trkpt lat="43.4253591" lon="12.5476728"><ele>733.0</ele><time>2026-05-02T10:17:16.992Z</time></trkpt><trkpt lat="43.4253999" lon="12.5477924"><ele>733.0</ele><time>2026-05-02T10:17:17.993Z</time></trkpt><trkpt lat="43.4254163" lon="12.5479191"><ele>737.4</ele><time>2026-05-02T10:17:19.001Z</time></trkpt><trkpt lat="43.4254206" lon="12.5480581"><ele>741.8</ele><time>2026-05-02T10:17:19.992Z</time></trkpt><trkpt lat="43.425423" lon="12.5482099"><ele>746.2</ele><time>2026-05-02T10:17:21.005Z</time></trkpt><trkpt lat="43.4254341" lon="12.5483596"><ele>750.6</ele><time>2026-05-02T10:17:21.998Z</time></trkpt><trkpt lat="43.4254616" lon="12.5484978"><ele>755.0</ele><time>2026-05-02T10:17:23.001Z</time></trkpt><trkpt lat="43.4255089" lon="12.5486118"><ele>749.4</ele><time>2026-05-02T10:17:23.989Z</time></trkpt><trkpt lat="43.4255674" lon="12.548707"><ele>743.8</ele><time>2026-05-02T10:17:25.002Z</time></trkpt><trkpt lat="43.4256501" lon="12.5487685"><ele>738.2</ele><time>2026-05-02T10:17:25.987Z</time></trkpt><trkpt lat="43.4257394" lon="12.5488065"><ele>732.6</ele><time>2026-05-02T10:17:26.992Z</time></trkpt><trkpt lat="43.425826" lon="12.5488349"><ele>727.0</ele><time>2026-05-02T10:17:28Z</time></trkpt><trkpt lat="43.4259218" lon="12.5488301"><ele>727.0</ele><time>2026-05-02T10:17:29.004Z</time></trkpt><trkpt lat="43.426021" lon="12.5487879"><ele>727.0</ele><time>2026-05-02T10:17:30Z</time></trkpt><trkpt lat="43.4261292" lon="12.5487307"><ele>727.0</ele><time>2026-05-02T10:17:30.998Z</time></trkpt><trkpt lat="43.4262472" lon="12.5486539"><ele>727.0</ele><time>2026-05-02T10:17:31.994Z</time></trkpt><trkpt lat="43.426374" lon="12.5485717"><ele>718.6666666666667</ele><time>2026-05-02T10:17:33.01Z</time></trkpt><trkpt lat="43.4265177" lon="12.5484868"><ele>710.3333333333334</ele><time>2026-05-02T10:17:33.996Z</time></trkpt><trkpt lat="43.4266551" lon="12.5484036"><ele>702.0</ele><time>2026-05-02T10:17:34.998Z</time></trkpt><trkpt lat="43.4267918" lon="12.5483136"><ele>702.0</ele><time>2026-05-02T10:17:36.01Z</time></trkpt><trkpt lat="43.4269272" lon="12.5482257"><ele>702.0</ele><time>2026-05-02T10:17:37.007Z</time></trkpt><trkpt lat="43.4270492" lon="12.5481386"><ele>702.0</ele><time>2026-05-02T10:17:37.992Z</time></trkpt><trkpt lat="43.4271657" lon="12.5480697"><ele>702.0</ele><time>2026-05-02T10:17:39.013Z</time></trkpt><trkpt lat="43.4272645" lon="12.5480093"><ele>701.6666666666666</ele><time>2026-05-02T10:17:40.009Z</time></trkpt><trkpt lat="43.4273497" lon="12.5479566"><ele>701.3333333333334</ele><time>2026-05-02T10:17:41.002Z</time></trkpt><trkpt lat="43.427437" lon="12.5479289"><ele>701.0</ele><time>2026-05-02T10:17:41.993Z</time></trkpt><trkpt lat="43.4275231" lon="12.5479288"><ele>700.6666666666667</ele><time>2026-05-02T10:17:43Z</time></trkpt><trkpt lat="43.4276041" lon="12.5479556"><ele>700.3333333333334</ele><time>2026-05-02T10:17:43.988Z</time></trkpt><trkpt lat="43.4276866" lon="12.5480087"><ele>700.0</ele><time>2026-05-02T10:17:44.99Z</time></trkpt><trkpt lat="43.4277808" lon="12.5480946"><ele>700.0</ele><time>2026-05-02T10:17:45.996Z</time></trkpt><trkpt lat="43.427893" lon="12.5482112"><ele>700.0</ele><time>2026-05-02T10:17:47.003Z</time></trkpt><trkpt lat="43.4280155" lon="12.5483391"><ele>700.0</ele><time>2026-05-02T10:17:47.998Z</time></trkpt><trkpt lat="43.4281548" lon="12.5484696"><ele>698.6666666666667</ele><time>2026-05-02T10:17:48.996Z</time></trkpt><trkpt lat="43.4282944" lon="12.5485932"><ele>697.3333333333334</ele><time>2026-05-02T10:17:49.993Z</time></trkpt><trkpt lat="43.4284309" lon="12.5486984"><ele>696.0</ele><time>2026-05-02T10:17:50.999Z</time></trkpt><trkpt lat="43.4285682" lon="12.548789"><ele>696.0</ele><time>2026-05-02T10:17:52.002Z</time></trkpt><trkpt lat="43.4287234" lon="12.5488694"><ele>696.0</ele><time>2026-05-02T10:17:53.003Z</time></trkpt><trkpt lat="43.4289018" lon="12.548947"><ele>696.0</ele><time>2026-05-02T10:17:54.01Z</time></trkpt><trkpt lat="43.4290939" lon="12.5490295"><ele>692.3333333333334</ele><time>2026-05-02T10:17:54.992Z</time></trkpt><trkpt lat="43.4292798" lon="12.5490928"><ele>688.6666666666667</ele><time>2026-05-02T10:17:56.002Z</time></trkpt><trkpt lat="43.4294343" lon="12.549147"><ele>685.0</ele><time>2026-05-02T10:17:57.002Z</time></trkpt><trkpt lat="43.4295668" lon="12.5491855"><ele>681.75</ele><time>2026-05-02T10:17:57.993Z</time></trkpt><trkpt lat="43.4296897" lon="12.5492359"><ele>678.5</ele><time>2026-05-02T10:17:58.999Z</time></trkpt><trkpt lat="43.4297971" lon="12.5492988"><ele>675.25</ele><time>2026-05-02T10:17:59.991Z</time></trkpt><trkpt lat="43.4299001" lon="12.5493878"><ele>672.0</ele><time>2026-05-02T10:18:01Z</time></trkpt><trkpt lat="43.4299908" lon="12.5494873"><ele>676.5</ele><time>2026-05-02T10:18:01.998Z</time></trkpt><trkpt lat="43.4300701" lon="12.5496013"><ele>681.0</ele><time>2026-05-02T10:18:02.993Z</time></trkpt><trkpt lat="43.4301315" lon="12.5497399"><ele>685.5</ele><time>2026-05-02T10:18:04Z</time></trkpt><trkpt lat="43.4301699" lon="12.5498808"><ele>690.0</ele><time>2026-05-02T10:18:05.007Z</time></trkpt><trkpt lat="43.4302001" lon="12.5500443"><ele>690.0</ele><time>2026-05-02T10:18:05.996Z</time></trkpt><trkpt lat="43.4302414" lon="12.5502154"><ele>690.0</ele><time>2026-05-02T10:18:06.989Z</time></trkpt><trkpt lat="43.4302896" lon="12.5503664"><ele>690.0</ele><time>2026-05-02T10:18:07.999Z</time></trkpt><trkpt lat="43.4303604" lon="12.5504901"><ele>690.0</ele><time>2026-05-02T10:18:09.009Z</time></trkpt><trkpt lat="43.430445" lon="12.5505638"><ele>689.2</ele><time>2026-05-02T10:18:09.986Z</time></trkpt><trkpt lat="43.430539" lon="12.5506141"><ele>688.4</ele><time>2026-05-02T10:18:11.005Z</time></trkpt><trkpt lat="43.4306393" lon="12.5506451"><ele>687.5999999999999</ele><time>2026-05-02T10:18:11.99Z</time></trkpt><trkpt lat="43.4307488" lon="12.5506788"><ele>686.8</ele><time>2026-05-02T10:18:12.998Z</time></trkpt><trkpt lat="43.4308572" lon="12.5507474"><ele>686.0</ele><time>2026-05-02T10:18:14.012Z</time></trkpt><trkpt lat="43.4309755" lon="12.5508612"><ele>686.0</ele><time>2026-05-02T10:18:15Z</time></trkpt><trkpt lat="43.4311128" lon="12.550963"><ele>686.0</ele><time>2026-05-02T10:18:16.011Z</time></trkpt><trkpt lat="43.4312547" lon="12.551033"><ele>686.0</ele><time>2026-05-02T10:18:16.998Z</time></trkpt><trkpt lat="43.4313841" lon="12.551068"><ele>686.0</ele><time>2026-05-02T10:18:18.002Z</time></trkpt><trkpt lat="43.4314875" lon="12.5511098"><ele>685.0</ele><time>2026-05-02T10:18:19.004Z</time></trkpt><trkpt lat="43.4315652" lon="12.5511786"><ele>684.0</ele><time>2026-05-02T10:18:19.995Z</time></trkpt><trkpt lat="43.4316192" lon="12.5512755"><ele>683.0</ele><time>2026-05-02T10:18:20.999Z</time></trkpt><trkpt lat="43.4316335" lon="12.5513793"><ele>682.0</ele><time>2026-05-02T10:18:21.996Z</time></trkpt><trkpt lat="43.4316397" lon="12.5515091"><ele>681.0</ele><time>2026-05-02T10:18:23.003Z</time></trkpt><trkpt lat="43.4316326" lon="12.5516563"><ele>681.0</ele><time>2026-05-02T10:18:24.01Z</time></trkpt><trkpt lat="43.4316237" lon="12.5518077"><ele>681.0</ele><time>2026-05-02T10:18:24.995Z</time></trkpt><trkpt lat="43.4316395" lon="12.5519621"><ele>681.0</ele><time>2026-05-02T10:18:26.004Z</time></trkpt><trkpt lat="43.4316884" lon="12.552109"><ele>681.0</ele><time>2026-05-02T10:18:26.999Z</time></trkpt><trkpt lat="43.4317698" lon="12.552264"><ele>682.5</ele><time>2026-05-02T10:18:28Z</time></trkpt><trkpt lat="43.4318573" lon="12.5524163"><ele>684.0</ele><time>2026-05-02T10:18:28.993Z</time></trkpt><trkpt lat="43.4319467" lon="12.5525829"><ele>685.5</ele><time>2026-05-02T10:18:30.002Z</time></trkpt><trkpt lat="43.4320434" lon="12.5527398"><ele>687.0</ele><time>2026-05-02T10:18:30.995Z</time></trkpt><trkpt lat="43.4321406" lon="12.552879"><ele>688.75</ele><time>2026-05-02T10:18:31.997Z</time></trkpt><trkpt lat="43.4322332" lon="12.5530028"><ele>690.5</ele><time>2026-05-02T10:18:33.002Z</time></trkpt><trkpt lat="43.432333" lon="12.5531113"><ele>692.25</ele><time>2026-05-02T10:18:33.992Z</time></trkpt><trkpt lat="43.4324196" lon="12.5531962"><ele>694.0</ele><time>2026-05-02T10:18:35.005Z</time></trkpt><trkpt lat="43.4325" lon="12.5532683"><ele>694.0</ele><time>2026-05-02T10:18:35.995Z</time></trkpt><trkpt lat="43.4325749" lon="12.5533252"><ele>694.0</ele><time>2026-05-02T10:18:37.002Z</time></trkpt><trkpt lat="43.4326446" lon="12.5533781"><ele>694.0</ele><time>2026-05-02T10:18:38.003Z</time></trkpt><trkpt lat="43.4327074" lon="12.5534376"><ele>694.0</ele><time>2026-05-02T10:18:38.994Z</time></trkpt><trkpt lat="43.4327601" lon="12.5535072"><ele>694.0</ele><time>2026-05-02T10:18:39.988Z</time></trkpt><trkpt lat="43.4327969" lon="12.5535799"><ele>694.0</ele><time>2026-05-02T10:18:41.002Z</time></trkpt><trkpt lat="43.4328282" lon="12.5536628"><ele>694.0</ele><time>2026-05-02T10:18:41.998Z</time></trkpt><trkpt lat="43.4329053" lon="12.553817"><ele>693.4000000000001</ele><time>2026-05-02T10:18:44.001Z</time></trkpt><trkpt lat="43.432965" lon="12.5538947"><ele>692.8</ele><time>2026-05-02T10:18:44.999Z</time></trkpt><trkpt lat="43.4330381" lon="12.5539619"><ele>692.2</ele><time>2026-05-02T10:18:45.991Z</time></trkpt><trkpt lat="43.4331299" lon="12.554012"><ele>691.5999999999999</ele><time>2026-05-02T10:18:46.988Z</time></trkpt><trkpt lat="43.4332221" lon="12.5540244"><ele>691.0</ele><time>2026-05-02T10:18:47.993Z</time></trkpt><trkpt lat="43.4333125" lon="12.5540308"><ele>691.0</ele><time>2026-05-02T10:18:48.992Z</time></trkpt><trkpt lat="43.4334214" lon="12.5540109"><ele>691.0</ele><time>2026-05-02T10:18:49.987Z</time></trkpt><trkpt lat="43.4335225" lon="12.5539887"><ele>691.0</ele><time>2026-05-02T10:18:50.989Z</time></trkpt><trkpt lat="43.4336522" lon="12.5539508"><ele>691.0</ele><time>2026-05-02T10:18:51.995Z</time></trkpt><trkpt lat="43.4337917" lon="12.553892"><ele>686.75</ele><time>2026-05-02T10:18:53.006Z</time></trkpt><trkpt lat="43.4339308" lon="12.5538637"><ele>682.5</ele><time>2026-05-02T10:18:53.999Z</time></trkpt><trkpt lat="43.4340633" lon="12.5538199"><ele>678.25</ele><time>2026-05-02T10:18:55.003Z</time></trkpt><trkpt lat="43.4341668" lon="12.5537957"><ele>674.0</ele><time>2026-05-02T10:18:55.987Z</time></trkpt><trkpt lat="43.4342597" lon="12.5537715"><ele>674.0</ele><time>2026-05-02T10:18:57.004Z</time></trkpt><trkpt lat="43.4343395" lon="12.5537548"><ele>674.0</ele><time>2026-05-02T10:18:58.002Z</time></trkpt><trkpt lat="43.4344283" lon="12.5538107"><ele>674.0</ele><time>2026-05-02T10:18:59.992Z</time></trkpt><trkpt lat="43.4344768" lon="12.5538816"><ele>674.0</ele><time>2026-05-02T10:19:01.002Z</time></trkpt><trkpt lat="43.4345211" lon="12.5539984"><ele>674.0</ele><time>2026-05-02T10:19:01.987Z</time></trkpt><trkpt lat="43.4345634" lon="12.5541317"><ele>674.0</ele><time>2026-05-02T10:19:02.997Z</time></trkpt><trkpt lat="43.4346246" lon="12.554277"><ele>674.0</ele><time>2026-05-02T10:19:04.002Z</time></trkpt><trkpt lat="43.4347174" lon="12.5544314"><ele>674.0</ele><time>2026-05-02T10:19:04.997Z</time></trkpt><trkpt lat="43.4348287" lon="12.5545999"><ele>674.0</ele><time>2026-05-02T10:19:05.989Z</time></trkpt><trkpt lat="43.4349481" lon="12.5547548"><ele>671.5</ele><time>2026-05-02T10:19:06.989Z</time></trkpt><trkpt lat="43.4350532" lon="12.5548977"><ele>669.0</ele><time>2026-05-02T10:19:07.985Z</time></trkpt><trkpt lat="43.4351508" lon="12.5550321"><ele>666.5</ele><time>2026-05-02T10:19:08.994Z</time></trkpt><trkpt lat="43.4352335" lon="12.5551459"><ele>664.0</ele><time>2026-05-02T10:19:09.985Z</time></trkpt><trkpt lat="43.4353064" lon="12.5552446"><ele>664.0</ele><time>2026-05-02T10:19:10.989Z</time></trkpt><trkpt lat="43.4353613" lon="12.5553412"><ele>664.0</ele><time>2026-05-02T10:19:11.991Z</time></trkpt><trkpt lat="43.4353977" lon="12.5554626"><ele>664.0</ele><time>2026-05-02T10:19:12.985Z</time></trkpt><trkpt lat="43.435418" lon="12.5556102"><ele>664.0</ele><time>2026-05-02T10:19:13.993Z</time></trkpt><trkpt lat="43.4354258" lon="12.5557682"><ele>664.0</ele><time>2026-05-02T10:19:14.993Z</time></trkpt><trkpt lat="43.4354404" lon="12.5559305"><ele>664.0</ele><time>2026-05-02T10:19:15.996Z</time></trkpt><trkpt lat="43.4354827" lon="12.5560988"><ele>664.0</ele><time>2026-05-02T10:19:16.989Z</time></trkpt><trkpt lat="43.435542" lon="12.5562552"><ele>664.0</ele><time>2026-05-02T10:19:18.006Z</time></trkpt><trkpt lat="43.4356225" lon="12.5564206"><ele>664.0</ele><time>2026-05-02T10:19:18.986Z</time></trkpt><trkpt lat="43.4356915" lon="12.556586"><ele>664.0</ele><time>2026-05-02T10:19:19.984Z</time></trkpt><trkpt lat="43.4357564" lon="12.5567248"><ele>664.0</ele><time>2026-05-02T10:19:20.993Z</time></trkpt><trkpt lat="43.435824" lon="12.5568324"><ele>664.0</ele><time>2026-05-02T10:19:21.991Z</time></trkpt><trkpt lat="43.4358973" lon="12.5569083"><ele>664.0</ele><time>2026-05-02T10:19:22.988Z</time></trkpt><trkpt lat="43.4359838" lon="12.5569371"><ele>664.0</ele><time>2026-05-02T10:19:23.991Z</time></trkpt><trkpt lat="43.4360769" lon="12.5569436"><ele>664.0</ele><time>2026-05-02T10:19:24.991Z</time></trkpt><trkpt lat="43.4361792" lon="12.5569389"><ele>664.0</ele><time>2026-05-02T10:19:25.992Z</time></trkpt><trkpt lat="43.4362905" lon="12.5569121"><ele>664.0</ele><time>2026-05-02T10:19:26.989Z</time></trkpt><trkpt lat="43.4364126" lon="12.5568882"><ele>664.0</ele><time>2026-05-02T10:19:28.006Z</time></trkpt><trkpt lat="43.43653" lon="12.556878"><ele>663.0</ele><time>2026-05-02T10:19:29Z</time></trkpt><trkpt lat="43.4366523" lon="12.5568799"><ele>662.0</ele><time>2026-05-02T10:19:30.004Z</time></trkpt><trkpt lat="43.4367707" lon="12.5569031"><ele>661.0</ele><time>2026-05-02T10:19:30.995Z</time></trkpt><trkpt lat="43.4368794" lon="12.5569536"><ele>660.0</ele><time>2026-05-02T10:19:32.005Z</time></trkpt><trkpt lat="43.4369962" lon="12.5570311"><ele>663.0</ele><time>2026-05-02T10:19:32.993Z</time></trkpt><trkpt lat="43.4371139" lon="12.5571207"><ele>666.0</ele><time>2026-05-02T10:19:33.997Z</time></trkpt><trkpt lat="43.4372099" lon="12.5572004"><ele>669.0</ele><time>2026-05-02T10:19:34.994Z</time></trkpt><trkpt lat="43.437283" lon="12.5572723"><ele>672.0</ele><time>2026-05-02T10:19:35.981Z</time></trkpt><trkpt lat="43.4373201" lon="12.5573593"><ele>675.0</ele><time>2026-05-02T10:19:36.989Z</time></trkpt><trkpt lat="43.4373359" lon="12.557456"><ele>675.0</ele><time>2026-05-02T10:19:37.989Z</time></trkpt><trkpt lat="43.4373252" lon="12.5575575"><ele>675.0</ele><time>2026-05-02T10:19:38.991Z</time></trkpt><trkpt lat="43.437286" lon="12.5576353"><ele>675.0</ele><time>2026-05-02T10:19:39.989Z</time></trkpt><trkpt lat="43.437227" lon="12.5576854"><ele>675.0</ele><time>2026-05-02T10:19:40.991Z</time></trkpt><trkpt lat="43.4371547" lon="12.557703"><ele>675.0</ele><time>2026-05-02T10:19:41.997Z</time></trkpt><trkpt lat="43.437078" lon="12.5576766"><ele>675.0</ele><time>2026-05-02T10:19:42.992Z</time></trkpt><trkpt lat="43.4370034" lon="12.5576181"><ele>676.0</ele><time>2026-05-02T10:19:43.997Z</time></trkpt><trkpt lat="43.4369362" lon="12.5575511"><ele>677.0</ele><time>2026-05-02T10:19:44.988Z</time></trkpt><trkpt lat="43.436867" lon="12.5574835"><ele>678.0</ele><time>2026-05-02T10:19:45.991Z</time></trkpt><trkpt lat="43.4367903" lon="12.557426"><ele>679.0</ele><time>2026-05-02T10:19:46.997Z</time></trkpt><trkpt lat="43.4367115" lon="12.557386"><ele>680.0</ele><time>2026-05-02T10:19:48.008Z</time></trkpt><trkpt lat="43.4366335" lon="12.5573832"><ele>681.0</ele><time>2026-05-02T10:19:49.011Z</time></trkpt><trkpt lat="43.4365378" lon="12.5574036"><ele>681.0</ele><time>2026-05-02T10:19:49.994Z</time></trkpt><trkpt lat="43.4364328" lon="12.5574314"><ele>681.0</ele><time>2026-05-02T10:19:50.996Z</time></trkpt><trkpt lat="43.4363236" lon="12.5574839"><ele>681.0</ele><time>2026-05-02T10:19:51.995Z</time></trkpt><trkpt lat="43.4362121" lon="12.5575491"><ele>681.0</ele><time>2026-05-02T10:19:52.999Z</time></trkpt><trkpt lat="43.4361047" lon="12.5576261"><ele>681.25</ele><time>2026-05-02T10:19:53.999Z</time></trkpt><trkpt lat="43.4360069" lon="12.5577197"><ele>681.5</ele><time>2026-05-02T10:19:54.995Z</time></trkpt><trkpt lat="43.4359179" lon="12.5578202"><ele>681.75</ele><time>2026-05-02T10:19:56.001Z</time></trkpt><trkpt lat="43.4358383" lon="12.5579164"><ele>682.0</ele><time>2026-05-02T10:19:57.002Z</time></trkpt><trkpt lat="43.4357393" lon="12.5579963"><ele>681.0</ele><time>2026-05-02T10:19:57.994Z</time></trkpt><trkpt lat="43.4356172" lon="12.5580552"><ele>680.0</ele><time>2026-05-02T10:19:58.992Z</time></trkpt><trkpt lat="43.4354847" lon="12.558113"><ele>679.0</ele><time>2026-05-02T10:19:59.996Z</time></trkpt><trkpt lat="43.4353543" lon="12.5581797"><ele>678.0</ele><time>2026-05-02T10:20:00.992Z</time></trkpt><trkpt lat="43.4352221" lon="12.5582436"><ele>680.25</ele><time>2026-05-02T10:20:02.002Z</time></trkpt><trkpt lat="43.4350934" lon="12.5583074"><ele>682.5</ele><time>2026-05-02T10:20:03.002Z</time></trkpt><trkpt lat="43.4349755" lon="12.5583845"><ele>684.75</ele><time>2026-05-02T10:20:04Z</time></trkpt><trkpt lat="43.4348631" lon="12.5584662"><ele>687.0</ele><time>2026-05-02T10:20:04.998Z</time></trkpt><trkpt lat="43.4347501" lon="12.5585415"><ele>687.0</ele><time>2026-05-02T10:20:05.993Z</time></trkpt><trkpt lat="43.4346513" lon="12.5586237"><ele>687.0</ele><time>2026-05-02T10:20:06.992Z</time></trkpt><trkpt lat="43.4345663" lon="12.5587055"><ele>687.0</ele><time>2026-05-02T10:20:07.991Z</time></trkpt><trkpt lat="43.4344973" lon="12.5587921"><ele>687.0</ele><time>2026-05-02T10:20:08.995Z</time></trkpt><trkpt lat="43.4344493" lon="12.558896"><ele>687.0</ele><time>2026-05-02T10:20:09.987Z</time></trkpt><trkpt lat="43.4344184" lon="12.5590167"><ele>686.4000000000001</ele><time>2026-05-02T10:20:10.992Z</time></trkpt><trkpt lat="43.4344106" lon="12.5591429"><ele>685.8000000000001</ele><time>2026-05-02T10:20:11.983Z</time></trkpt><trkpt lat="43.4344274" lon="12.559286"><ele>685.2</ele><time>2026-05-02T10:20:13.004Z</time></trkpt><trkpt lat="43.4344515" lon="12.559428"><ele>684.6</ele><time>2026-05-02T10:20:13.992Z</time></trkpt><trkpt lat="43.4344689" lon="12.5595828"><ele>684.0</ele><time>2026-05-02T10:20:14.994Z</time></trkpt><trkpt lat="43.4344667" lon="12.5597451"><ele>679.8000000000001</ele><time>2026-05-02T10:20:15.991Z</time></trkpt><trkpt lat="43.4344566" lon="12.5598983"><ele>675.6</ele><time>2026-05-02T10:20:16.994Z</time></trkpt><trkpt lat="43.4344387" lon="12.5600408"><ele>671.4</ele><time>2026-05-02T10:20:17.991Z</time></trkpt><trkpt lat="43.4344205" lon="12.560176"><ele>667.2</ele><time>2026-05-02T10:20:18.993Z</time></trkpt><trkpt lat="43.4344007" lon="12.5602898"><ele>663.0</ele><time>2026-05-02T10:20:19.996Z</time></trkpt><trkpt lat="43.4343695" lon="12.5603885"><ele>660.5</ele><time>2026-05-02T10:20:20.994Z</time></trkpt><trkpt lat="43.4343247" lon="12.560477"><ele>658.0</ele><time>2026-05-02T10:20:21.985Z</time></trkpt><trkpt lat="43.4342531" lon="12.560537"><ele>655.5</ele><time>2026-05-02T10:20:23.004Z</time></trkpt><trkpt lat="43.4341709" lon="12.5605614"><ele>653.0</ele><time>2026-05-02T10:20:24.002Z</time></trkpt><trkpt lat="43.4340755" lon="12.5605711"><ele>650.5</ele><time>2026-05-02T10:20:24.998Z</time></trkpt><trkpt lat="43.4339712" lon="12.5605554"><ele>648.0</ele><time>2026-05-02T10:20:25.998Z</time></trkpt><trkpt lat="43.4338613" lon="12.5605117"><ele>647.0</ele><time>2026-05-02T10:20:27.001Z</time></trkpt><trkpt lat="43.4337319" lon="12.5604404"><ele>646.0</ele><time>2026-05-02T10:20:28.005Z</time></trkpt><trkpt lat="43.433605" lon="12.5603642"><ele>645.0</ele><time>2026-05-02T10:20:29.001Z</time></trkpt><trkpt lat="43.4334794" lon="12.5603149"><ele>644.0</ele><time>2026-05-02T10:20:30Z</time></trkpt><trkpt lat="43.4333507" lon="12.5603008"><ele>644.0</ele><time>2026-05-02T10:20:31.007Z</time></trkpt><trkpt lat="43.4332539" lon="12.5603283"><ele>644.0</ele><time>2026-05-02T10:20:31.999Z</time></trkpt><trkpt lat="43.4331676" lon="12.5603837"><ele>644.0</ele><time>2026-05-02T10:20:32.991Z</time></trkpt><trkpt lat="43.4330872" lon="12.5604431"><ele>644.0</ele><time>2026-05-02T10:20:34.003Z</time></trkpt><trkpt lat="43.4330074" lon="12.5604973"><ele>644.0</ele><time>2026-05-02T10:20:34.989Z</time></trkpt><trkpt lat="43.4329286" lon="12.560507"><ele>642.6</ele><time>2026-05-02T10:20:35.996Z</time></trkpt><trkpt lat="43.4328457" lon="12.5604805"><ele>641.2</ele><time>2026-05-02T10:20:37.006Z</time></trkpt><trkpt lat="43.4327579" lon="12.5604174"><ele>639.8000000000001</ele><time>2026-05-02T10:20:37.998Z</time></trkpt><trkpt lat="43.4326682" lon="12.5603194"><ele>638.4000000000001</ele><time>2026-05-02T10:20:39.006Z</time></trkpt><trkpt lat="43.4325726" lon="12.5601951"><ele>637.0</ele><time>2026-05-02T10:20:40.005Z</time></trkpt><trkpt lat="43.432475" lon="12.5600775"><ele>640.5</ele><time>2026-05-02T10:20:40.995Z</time></trkpt><trkpt lat="43.4323663" lon="12.5599869"><ele>644.0</ele><time>2026-05-02T10:20:41.991Z</time></trkpt><trkpt lat="43.4322505" lon="12.5599244"><ele>647.5</ele><time>2026-05-02T10:20:42.992Z</time></trkpt><trkpt lat="43.4321177" lon="12.5598712"><ele>651.0</ele><time>2026-05-02T10:20:44.002Z</time></trkpt><trkpt lat="43.4320016" lon="12.5598245"><ele>651.0</ele><time>2026-05-02T10:20:45.007Z</time></trkpt><trkpt lat="43.4319095" lon="12.5597536"><ele>651.0</ele><time>2026-05-02T10:20:46.012Z</time></trkpt><trkpt lat="43.4318233" lon="12.5596756"><ele>651.0</ele><time>2026-05-02T10:20:46.997Z</time></trkpt><trkpt lat="43.4317359" lon="12.5596086"><ele>651.0</ele><time>2026-05-02T10:20:48.007Z</time></trkpt><trkpt lat="43.4316473" lon="12.5595568"><ele>651.0</ele><time>2026-05-02T10:20:48.997Z</time></trkpt><trkpt lat="43.4315464" lon="12.5595549"><ele>651.0</ele><time>2026-05-02T10:20:49.998Z</time></trkpt><trkpt lat="43.4314409" lon="12.5595786"><ele>651.0</ele><time>2026-05-02T10:20:50.997Z</time></trkpt><trkpt lat="43.4313343" lon="12.5596422"><ele>651.0</ele><time>2026-05-02T10:20:51.993Z</time></trkpt><trkpt lat="43.4312389" lon="12.5597275"><ele>651.0</ele><time>2026-05-02T10:20:53.011Z</time></trkpt><trkpt lat="43.431158" lon="12.5598377"><ele>653.4</ele><time>2026-05-02T10:20:53.99Z</time></trkpt><trkpt lat="43.4310842" lon="12.5599742"><ele>655.8</ele><time>2026-05-02T10:20:55.004Z</time></trkpt><trkpt lat="43.4310243" lon="12.5600951"><ele>658.1999999999999</ele><time>2026-05-02T10:20:56.013Z</time></trkpt><trkpt lat="43.4309552" lon="12.5601774"><ele>660.5999999999999</ele><time>2026-05-02T10:20:57Z</time></trkpt><trkpt lat="43.4308784" lon="12.5602232"><ele>663.0</ele><time>2026-05-02T10:20:58Z</time></trkpt><trkpt lat="43.4307952" lon="12.560224"><ele>663.0</ele><time>2026-05-02T10:20:59.004Z</time></trkpt><trkpt lat="43.4307056" lon="12.5601901"><ele>663.0</ele><time>2026-05-02T10:21:00.004Z</time></trkpt><trkpt lat="43.4306103" lon="12.5601387"><ele>663.0</ele><time>2026-05-02T10:21:01Z</time></trkpt><trkpt lat="43.4305208" lon="12.5600712"><ele>663.0</ele><time>2026-05-02T10:21:01.999Z</time></trkpt><trkpt lat="43.4304459" lon="12.5600024"><ele>663.0</ele><time>2026-05-02T10:21:03Z</time></trkpt><trkpt lat="43.4303818" lon="12.5599585"><ele>661.0</ele><time>2026-05-02T10:21:03.991Z</time></trkpt><trkpt lat="43.4302689" lon="12.5599831"><ele>659.0</ele><time>2026-05-02T10:21:05.994Z</time></trkpt><trkpt lat="43.430261" lon="12.5601285"><ele>657.0</ele><time>2026-05-02T10:21:07.994Z</time></trkpt><trkpt lat="43.430345" lon="12.5602665"><ele>655.0</ele><time>2026-05-02T10:21:09.994Z</time></trkpt><trkpt lat="43.4304038" lon="12.5603542"><ele>653.0</ele><time>2026-05-02T10:21:10.997Z</time></trkpt><trkpt lat="43.430458" lon="12.5604586"><ele>652.0</ele><time>2026-05-02T10:21:11.997Z</time></trkpt><trkpt lat="43.4304897" lon="12.5605685"><ele>651.0</ele><time>2026-05-02T10:21:12.998Z</time></trkpt><trkpt lat="43.4304972" lon="12.5607149"><ele>650.0</ele><time>2026-05-02T10:21:13.995Z</time></trkpt><trkpt lat="43.4304989" lon="12.5608734"><ele>649.0</ele><time>2026-05-02T10:21:15Z</time></trkpt><trkpt lat="43.4304911" lon="12.5610328"><ele>648.0</ele><time>2026-05-02T10:21:16.001Z</time></trkpt><trkpt lat="43.430491" lon="12.5611813"><ele>646.0</ele><time>2026-05-02T10:21:16.99Z</time></trkpt><trkpt lat="43.4304864" lon="12.5613175"><ele>644.0</ele><time>2026-05-02T10:21:17.991Z</time></trkpt><trkpt lat="43.4304854" lon="12.5614498"><ele>642.0</ele><time>2026-05-02T10:21:18.997Z</time></trkpt><trkpt lat="43.4304937" lon="12.5615715"><ele>640.0</ele><time>2026-05-02T10:21:19.996Z</time></trkpt><trkpt lat="43.4305047" lon="12.5616933"><ele>638.0</ele><time>2026-05-02T10:21:20.999Z</time></trkpt><trkpt lat="43.4305276" lon="12.5618194"><ele>638.0</ele><time>2026-05-02T10:21:22.003Z</time></trkpt><trkpt lat="43.4305761" lon="12.5619497"><ele>638.0</ele><time>2026-05-02T10:21:23.005Z</time></trkpt><trkpt lat="43.4306296" lon="12.5620873"><ele>638.0</ele><time>2026-05-02T10:21:24.006Z</time></trkpt><trkpt lat="43.4306756" lon="12.5622169"><ele>638.0</ele><time>2026-05-02T10:21:24.996Z</time></trkpt><trkpt lat="43.4307056" lon="12.5623365"><ele>638.0</ele><time>2026-05-02T10:21:25.995Z</time></trkpt><trkpt lat="43.430725" lon="12.5624564"><ele>637.8</ele><time>2026-05-02T10:21:26.999Z</time></trkpt><trkpt lat="43.4307349" lon="12.5625732"><ele>637.5999999999999</ele><time>2026-05-02T10:21:27.994Z</time></trkpt><trkpt lat="43.4307364" lon="12.5627046"><ele>637.4000000000001</ele><time>2026-05-02T10:21:28.992Z</time></trkpt><trkpt lat="43.4307299" lon="12.5628468"><ele>637.2</ele><time>2026-05-02T10:21:29.995Z</time></trkpt><trkpt lat="43.4306948" lon="12.5629919"><ele>637.0</ele><time>2026-05-02T10:21:31.001Z</time></trkpt><trkpt lat="43.4306422" lon="12.5631323"><ele>637.0</ele><time>2026-05-02T10:21:31.998Z</time></trkpt><trkpt lat="43.4305689" lon="12.5632615"><ele>637.0</ele><time>2026-05-02T10:21:33.002Z</time></trkpt><trkpt lat="43.4304897" lon="12.5633888"><ele>637.0</ele><time>2026-05-02T10:21:34.001Z</time></trkpt><trkpt lat="43.4304198" lon="12.5635082"><ele>637.0</ele><time>2026-05-02T10:21:35.002Z</time></trkpt><trkpt lat="43.4303534" lon="12.5636292"><ele>631.6</ele><time>2026-05-02T10:21:35.995Z</time></trkpt><trkpt lat="43.4302978" lon="12.5637443"><ele>626.2</ele><time>2026-05-02T10:21:37.008Z</time></trkpt><trkpt lat="43.4302497" lon="12.5638538"><ele>620.8</ele><time>2026-05-02T10:21:38.006Z</time></trkpt><trkpt lat="43.430213" lon="12.5639634"><ele>615.4</ele><time>2026-05-02T10:21:38.998Z</time></trkpt><trkpt lat="43.4301821" lon="12.5640737"><ele>610.0</ele><time>2026-05-02T10:21:39.995Z</time></trkpt><trkpt lat="43.4301613" lon="12.5641848"><ele>610.0</ele><time>2026-05-02T10:21:40.994Z</time></trkpt><trkpt lat="43.4301547" lon="12.5642967"><ele>610.0</ele><time>2026-05-02T10:21:41.995Z</time></trkpt><trkpt lat="43.4301593" lon="12.5644121"><ele>610.0</ele><time>2026-05-02T10:21:42.988Z</time></trkpt><trkpt lat="43.4301595" lon="12.5645227"><ele>610.0</ele><time>2026-05-02T10:21:43.995Z</time></trkpt><trkpt lat="43.4301676" lon="12.5646252"><ele>610.0</ele><time>2026-05-02T10:21:45.002Z</time></trkpt><trkpt lat="43.4302038" lon="12.5647784"><ele>610.0</ele><time>2026-05-02T10:21:47Z</time></trkpt><trkpt lat="43.4302836" lon="12.5649141"><ele>609.1666666666667</ele><time>2026-05-02T10:21:49.009Z</time></trkpt><trkpt lat="43.4303452" lon="12.564976"><ele>608.3333333333334</ele><time>2026-05-02T10:21:49.995Z</time></trkpt><trkpt lat="43.4304154" lon="12.565033"><ele>607.5</ele><time>2026-05-02T10:21:51.004Z</time></trkpt><trkpt lat="43.4304914" lon="12.5650918"><ele>606.6666666666666</ele><time>2026-05-02T10:21:52.004Z</time></trkpt><trkpt lat="43.4305556" lon="12.5651654"><ele>605.8333333333333</ele><time>2026-05-02T10:21:53.012Z</time></trkpt><trkpt lat="43.4306102" lon="12.5652612"><ele>605.0</ele><time>2026-05-02T10:21:53.986Z</time></trkpt><trkpt lat="43.4306556" lon="12.5653625"><ele>603.8</ele><time>2026-05-02T10:21:54.998Z</time></trkpt><trkpt lat="43.4307047" lon="12.5654923"><ele>602.6</ele><time>2026-05-02T10:21:55.998Z</time></trkpt><trkpt lat="43.4307493" lon="12.5656412"><ele>601.4</ele><time>2026-05-02T10:21:56.996Z</time></trkpt><trkpt lat="43.4307874" lon="12.5657726"><ele>600.2</ele><time>2026-05-02T10:21:57.991Z</time></trkpt><trkpt lat="43.4308213" lon="12.5658902"><ele>599.0</ele><time>2026-05-02T10:21:58.995Z</time></trkpt><trkpt lat="43.4308543" lon="12.5660051"><ele>599.0</ele><time>2026-05-02T10:21:59.995Z</time></trkpt><trkpt lat="43.4308871" lon="12.5661176"><ele>599.0</ele><time>2026-05-02T10:22:00.998Z</time></trkpt><trkpt lat="43.4309044" lon="12.5662311"><ele>599.0</ele><time>2026-05-02T10:22:02.001Z</time></trkpt><trkpt lat="43.430916" lon="12.5663342"><ele>599.0</ele><time>2026-05-02T10:22:02.994Z</time></trkpt><trkpt lat="43.4309472" lon="12.5664144"><ele>599.0</ele><time>2026-05-02T10:22:04.002Z</time></trkpt><trkpt lat="43.4309931" lon="12.5664752"><ele>599.0</ele><time>2026-05-02T10:22:04.995Z</time></trkpt><trkpt lat="43.43106" lon="12.5665338"><ele>596.4</ele><time>2026-05-02T10:22:05.996Z</time></trkpt><trkpt lat="43.4311465" lon="12.5665868"><ele>593.8</ele><time>2026-05-02T10:22:06.991Z</time></trkpt><trkpt lat="43.4312354" lon="12.5666416"><ele>591.2</ele><time>2026-05-02T10:22:07.994Z</time></trkpt><trkpt lat="43.4313316" lon="12.5667158"><ele>588.6</ele><time>2026-05-02T10:22:08.99Z</time></trkpt><trkpt lat="43.4314393" lon="12.5667961"><ele>586.0</ele><time>2026-05-02T10:22:09.993Z</time></trkpt><trkpt lat="43.431552" lon="12.5668851"><ele>586.0</ele><time>2026-05-02T10:22:10.997Z</time></trkpt><trkpt lat="43.4316616" lon="12.5669713"><ele>586.0</ele><time>2026-05-02T10:22:11.996Z</time></trkpt><trkpt lat="43.4317704" lon="12.5670624"><ele>586.0</ele><time>2026-05-02T10:22:12.991Z</time></trkpt><trkpt lat="43.4318649" lon="12.5671533"><ele>586.0</ele><time>2026-05-02T10:22:13.991Z</time></trkpt><trkpt lat="43.4319485" lon="12.5672283"><ele>583.1666666666667</ele><time>2026-05-02T10:22:14.994Z</time></trkpt><trkpt lat="43.4320185" lon="12.5672938"><ele>580.3333333333334</ele><time>2026-05-02T10:22:15.993Z</time></trkpt><trkpt lat="43.4320849" lon="12.5673515"><ele>577.5</ele><time>2026-05-02T10:22:16.995Z</time></trkpt><trkpt lat="43.4321385" lon="12.5674136"><ele>574.6666666666666</ele><time>2026-05-02T10:22:18Z</time></trkpt><trkpt lat="43.4321892" lon="12.5675194"><ele>571.8333333333333</ele><time>2026-05-02T10:22:19.993Z</time></trkpt><trkpt lat="43.4322068" lon="12.5676053"><ele>569.0</ele><time>2026-05-02T10:22:23.003Z</time></trkpt><trkpt lat="43.4322208" lon="12.5677242"><ele>567.0</ele><time>2026-05-02T10:22:25.996Z</time></trkpt><trkpt lat="43.4322401" lon="12.5678879"><ele>565.0</ele><time>2026-05-02T10:22:27.994Z</time></trkpt><trkpt lat="43.4322409" lon="12.5679858"><ele>563.0</ele><time>2026-05-02T10:22:29.002Z</time></trkpt><trkpt lat="43.4322354" lon="12.568086"><ele>561.0</ele><time>2026-05-02T10:22:29.998Z</time></trkpt><trkpt lat="43.4322311" lon="12.5681731"><ele>559.0</ele><time>2026-05-02T10:22:30.998Z</time></trkpt><trkpt lat="43.4322007" lon="12.5683141"><ele>557.0</ele><time>2026-05-02T10:22:32.999Z</time></trkpt><trkpt lat="43.432126" lon="12.5683956"><ele>553.6</ele><time>2026-05-02T10:22:35.004Z</time></trkpt><trkpt lat="43.4320114" lon="12.5683681"><ele>550.2</ele><time>2026-05-02T10:22:36.993Z</time></trkpt><trkpt lat="43.4319145" lon="12.5683305"><ele>546.8</ele><time>2026-05-02T10:22:39.005Z</time></trkpt><trkpt lat="43.4318208" lon="12.5683625"><ele>543.4</ele><time>2026-05-02T10:22:41.003Z</time></trkpt><trkpt lat="43.4317832" lon="12.5684825"><ele>540.0</ele><time>2026-05-02T10:22:43.008Z</time></trkpt><trkpt lat="43.4317838" lon="12.5686427"><ele>538.1666666666666</ele><time>2026-05-02T10:22:45.003Z</time></trkpt><trkpt lat="43.4317801" lon="12.5687294"><ele>536.3333333333334</ele><time>2026-05-02T10:22:45.989Z</time></trkpt><trkpt lat="43.4317543" lon="12.5688889"><ele>534.5</ele><time>2026-05-02T10:22:48.002Z</time></trkpt><trkpt lat="43.4317325" lon="12.5689754"><ele>532.6666666666667</ele><time>2026-05-02T10:22:48.998Z</time></trkpt><trkpt lat="43.4317098" lon="12.5690578"><ele>530.8333333333334</ele><time>2026-05-02T10:22:50.001Z</time></trkpt><trkpt lat="43.4316807" lon="12.5691352"><ele>529.0</ele><time>2026-05-02T10:22:51.005Z</time></trkpt><trkpt lat="43.431586" lon="12.5692484"><ele>529.0</ele><time>2026-05-02T10:22:53.006Z</time></trkpt><trkpt lat="43.4314673" lon="12.5692705"><ele>529.0</ele><time>2026-05-02T10:22:54.998Z</time></trkpt><trkpt lat="43.4313631" lon="12.5692025"><ele>529.0</ele><time>2026-05-02T10:22:56.996Z</time></trkpt><trkpt lat="43.4313282" lon="12.569121"><ele>529.0</ele><time>2026-05-02T10:22:57.998Z</time></trkpt><trkpt lat="43.4313135" lon="12.5690173"><ele>529.0</ele><time>2026-05-02T10:22:58.998Z</time></trkpt><trkpt lat="43.4313" lon="12.5689168"><ele>530.4</ele><time>2026-05-02T10:22:59.994Z</time></trkpt><trkpt lat="43.4312793" lon="12.5688202"><ele>531.8</ele><time>2026-05-02T10:23:01.002Z</time></trkpt><trkpt lat="43.4312429" lon="12.5687474"><ele>533.2</ele><time>2026-05-02T10:23:02.003Z</time></trkpt><trkpt lat="43.4311383" lon="12.56873"><ele>534.6</ele><time>2026-05-02T10:23:04.001Z</time></trkpt><trkpt lat="43.4310758" lon="12.5688131"><ele>536.0</ele><time>2026-05-02T10:23:05.99Z</time></trkpt><trkpt lat="43.4310123" lon="12.568977"><ele>536.0</ele><time>2026-05-02T10:23:08.009Z</time></trkpt><trkpt lat="43.4309741" lon="12.5690672"><ele>536.0</ele><time>2026-05-02T10:23:09.001Z</time></trkpt><trkpt lat="43.4309322" lon="12.5691464"><ele>536.0</ele><time>2026-05-02T10:23:10.011Z</time></trkpt><trkpt lat="43.4308822" lon="12.5692371"><ele>536.0</ele><time>2026-05-02T10:23:11Z</time></trkpt><trkpt lat="43.4308308" lon="12.569335"><ele>536.0</ele><time>2026-05-02T10:23:12.003Z</time></trkpt><trkpt lat="43.4307793" lon="12.5694188"><ele>536.0</ele><time>2026-05-02T10:23:13.005Z</time></trkpt><trkpt lat="43.4307169" lon="12.5694945"><ele>536.6</ele><time>2026-05-02T10:23:14.003Z</time></trkpt><trkpt lat="43.4306497" lon="12.5695717"><ele>537.2</ele><time>2026-05-02T10:23:15.009Z</time></trkpt><trkpt lat="43.4305783" lon="12.5696437"><ele>537.8</ele><time>2026-05-02T10:23:16.011Z</time></trkpt><trkpt lat="43.43049" lon="12.5696838"><ele>538.4</ele><time>2026-05-02T10:23:16.999Z</time></trkpt><trkpt lat="43.4303878" lon="12.5697354"><ele>539.0</ele><time>2026-05-02T10:23:18.007Z</time></trkpt><trkpt lat="43.4302793" lon="12.5697794"><ele>539.0</ele><time>2026-05-02T10:23:19.009Z</time></trkpt><trkpt lat="43.4301705" lon="12.5698323"><ele>539.0</ele><time>2026-05-02T10:23:20Z</time></trkpt><trkpt lat="43.4300613" lon="12.5699153"><ele>539.0</ele><time>2026-05-02T10:23:21.002Z</time></trkpt><trkpt lat="43.4299528" lon="12.5700187"><ele>539.0</ele><time>2026-05-02T10:23:21.998Z</time></trkpt><trkpt lat="43.429862" lon="12.5701193"><ele>539.0</ele><time>2026-05-02T10:23:23.003Z</time></trkpt><trkpt lat="43.4297843" lon="12.5702035"><ele>539.0</ele><time>2026-05-02T10:23:23.998Z</time></trkpt><trkpt lat="43.4297161" lon="12.5702699"><ele>539.0</ele><time>2026-05-02T10:23:25.001Z</time></trkpt><trkpt lat="43.4296536" lon="12.5703378"><ele>539.0</ele><time>2026-05-02T10:23:26.007Z</time></trkpt><trkpt lat="43.4295942" lon="12.5704252"><ele>539.0</ele><time>2026-05-02T10:23:26.998Z</time></trkpt><trkpt lat="43.4295336" lon="12.570538"><ele>539.6</ele><time>2026-05-02T10:23:28.005Z</time></trkpt><trkpt lat="43.4294764" lon="12.570669"><ele>540.2</ele><time>2026-05-02T10:23:28.997Z</time></trkpt><trkpt lat="43.4294193" lon="12.5707999"><ele>540.8000000000001</ele><time>2026-05-02T10:23:30.007Z</time></trkpt><trkpt lat="43.4293842" lon="12.5709273"><ele>541.4</ele><time>2026-05-02T10:23:30.992Z</time></trkpt><trkpt lat="43.4293643" lon="12.5710557"><ele>542.0</ele><time>2026-05-02T10:23:31.996Z</time></trkpt><trkpt lat="43.4293598" lon="12.5711927"><ele>539.2</ele><time>2026-05-02T10:23:32.994Z</time></trkpt><trkpt lat="43.4293616" lon="12.5713226"><ele>536.4000000000001</ele><time>2026-05-02T10:23:33.999Z</time></trkpt><trkpt lat="43.4293532" lon="12.571447"><ele>533.5999999999999</ele><time>2026-05-02T10:23:34.991Z</time></trkpt><trkpt lat="43.4293317" lon="12.5715733"><ele>530.8</ele><time>2026-05-02T10:23:36Z</time></trkpt><trkpt lat="43.4292969" lon="12.5717003"><ele>528.0</ele><time>2026-05-02T10:23:36.994Z</time></trkpt><trkpt lat="43.4292398" lon="12.5718389"><ele>528.0</ele><time>2026-05-02T10:23:38.005Z</time></trkpt><trkpt lat="43.4291705" lon="12.5719738"><ele>528.0</ele><time>2026-05-02T10:23:39.001Z</time></trkpt><trkpt lat="43.4290946" lon="12.5721102"><ele>528.0</ele><time>2026-05-02T10:23:40.016Z</time></trkpt><trkpt lat="43.4290073" lon="12.5722296"><ele>528.0</ele><time>2026-05-02T10:23:41Z</time></trkpt><trkpt lat="43.4289145" lon="12.5723357"><ele>530.6</ele><time>2026-05-02T10:23:42.006Z</time></trkpt><trkpt lat="43.4288276" lon="12.5724139"><ele>533.1999999999999</ele><time>2026-05-02T10:23:42.992Z</time></trkpt><trkpt lat="43.4287412" lon="12.5724621"><ele>535.8</ele><time>2026-05-02T10:23:44.007Z</time></trkpt><trkpt lat="43.4286552" lon="12.5724826"><ele>538.4</ele><time>2026-05-02T10:23:44.999Z</time></trkpt><trkpt lat="43.4285603" lon="12.5724865"><ele>541.0</ele><time>2026-05-02T10:23:46.009Z</time></trkpt><trkpt lat="43.4284593" lon="12.5724732"><ele>541.0</ele><time>2026-05-02T10:23:46.999Z</time></trkpt><trkpt lat="43.4283633" lon="12.5724564"><ele>541.0</ele><time>2026-05-02T10:23:47.998Z</time></trkpt><trkpt lat="43.4282811" lon="12.572429"><ele>541.0</ele><time>2026-05-02T10:23:49.007Z</time></trkpt><trkpt lat="43.4282134" lon="12.5724088"><ele>541.0</ele><time>2026-05-02T10:23:49.994Z</time></trkpt><trkpt lat="43.4281194" lon="12.5724274"><ele>541.0</ele><time>2026-05-02T10:23:52.003Z</time></trkpt><trkpt lat="43.4280484" lon="12.572572"><ele>541.0</ele><time>2026-05-02T10:23:54.007Z</time></trkpt><trkpt lat="43.4280153" lon="12.5727006"><ele>541.0</ele><time>2026-05-02T10:23:55Z</time></trkpt><trkpt lat="43.4279544" lon="12.5728761"><ele>541.0</ele><time>2026-05-02T10:23:56.017Z</time></trkpt><trkpt lat="43.4278843" lon="12.5730545"><ele>541.0</ele><time>2026-05-02T10:23:57.014Z</time></trkpt><trkpt lat="43.4278136" lon="12.5732154"><ele>540.0</ele><time>2026-05-02T10:23:57.996Z</time></trkpt><trkpt lat="43.4277448" lon="12.5733593"><ele>539.0</ele><time>2026-05-02T10:23:59.003Z</time></trkpt><trkpt lat="43.4276596" lon="12.5734936"><ele>538.0</ele><time>2026-05-02T10:24:00.006Z</time></trkpt><trkpt lat="43.4275587" lon="12.5736348"><ele>537.0</ele><time>2026-05-02T10:24:01.005Z</time></trkpt><trkpt lat="43.4274538" lon="12.5737827"><ele>537.0</ele><time>2026-05-02T10:24:02.012Z</time></trkpt><trkpt lat="43.427345" lon="12.5739282"><ele>537.0</ele><time>2026-05-02T10:24:02.998Z</time></trkpt><trkpt lat="43.4272402" lon="12.5740689"><ele>537.0</ele><time>2026-05-02T10:24:04.004Z</time></trkpt><trkpt lat="43.4271463" lon="12.574202"><ele>537.0</ele><time>2026-05-02T10:24:04.991Z</time></trkpt><trkpt lat="43.4270655" lon="12.57432"><ele>537.4</ele><time>2026-05-02T10:24:05.996Z</time></trkpt><trkpt lat="43.4269943" lon="12.5744295"><ele>537.8000000000001</ele><time>2026-05-02T10:24:06.999Z</time></trkpt><trkpt lat="43.426928" lon="12.5745185"><ele>538.2</ele><time>2026-05-02T10:24:07.991Z</time></trkpt><trkpt lat="43.4268664" lon="12.5746035"><ele>538.6</ele><time>2026-05-02T10:24:09.002Z</time></trkpt><trkpt lat="43.4268015" lon="12.5746963"><ele>539.0</ele><time>2026-05-02T10:24:09.999Z</time></trkpt><trkpt lat="43.4267198" lon="12.5747875"><ele>539.0</ele><time>2026-05-02T10:24:11.001Z</time></trkpt><trkpt lat="43.4266325" lon="12.5748713"><ele>539.0</ele><time>2026-05-02T10:24:11.997Z</time></trkpt><trkpt lat="43.4265491" lon="12.5749475"><ele>539.0</ele><time>2026-05-02T10:24:13.008Z</time></trkpt><trkpt lat="43.4264742" lon="12.5750125"><ele>539.0</ele><time>2026-05-02T10:24:14.004Z</time></trkpt><trkpt lat="43.426408" lon="12.575088"><ele>539.0</ele><time>2026-05-02T10:24:15.007Z</time></trkpt><trkpt lat="43.4263462" lon="12.5751713"><ele>539.2</ele><time>2026-05-02T10:24:16.006Z</time></trkpt><trkpt lat="43.4262958" lon="12.5752679"><ele>539.4</ele><time>2026-05-02T10:24:17.023Z</time></trkpt><trkpt lat="43.4262618" lon="12.5753768"><ele>539.6</ele><time>2026-05-02T10:24:17.993Z</time></trkpt><trkpt lat="43.4262411" lon="12.5754847"><ele>539.8</ele><time>2026-05-02T10:24:18.999Z</time></trkpt><trkpt lat="43.426235" lon="12.5756168"><ele>540.0</ele><time>2026-05-02T10:24:19.99Z</time></trkpt><trkpt lat="43.4262423" lon="12.5757612"><ele>540.0</ele><time>2026-05-02T10:24:20.999Z</time></trkpt><trkpt lat="43.4262568" lon="12.5758992"><ele>540.0</ele><time>2026-05-02T10:24:22.005Z</time></trkpt><trkpt lat="43.4262706" lon="12.5760426"><ele>540.0</ele><time>2026-05-02T10:24:22.999Z</time></trkpt><trkpt lat="43.426283" lon="12.5761761"><ele>540.0</ele><time>2026-05-02T10:24:23.992Z</time></trkpt><trkpt lat="43.4263002" lon="12.5763054"><ele>540.0</ele><time>2026-05-02T10:24:24.991Z</time></trkpt><trkpt lat="43.4263243" lon="12.5764488"><ele>535.6</ele><time>2026-05-02T10:24:25.996Z</time></trkpt><trkpt lat="43.4263539" lon="12.5765916"><ele>531.2</ele><time>2026-05-02T10:24:26.995Z</time></trkpt><trkpt lat="43.4263822" lon="12.5767305"><ele>526.8</ele><time>2026-05-02T10:24:27.992Z</time></trkpt><trkpt lat="43.4264069" lon="12.5768732"><ele>522.4</ele><time>2026-05-02T10:24:28.994Z</time></trkpt><trkpt lat="43.4264307" lon="12.5770244"><ele>518.0</ele><time>2026-05-02T10:24:29.998Z</time></trkpt><trkpt lat="43.4264533" lon="12.5771737"><ele>516.0</ele><time>2026-05-02T10:24:30.997Z</time></trkpt><trkpt lat="43.4264732" lon="12.5773177"><ele>514.0</ele><time>2026-05-02T10:24:31.991Z</time></trkpt><trkpt lat="43.426495" lon="12.5774573"><ele>511.99999999999994</ele><time>2026-05-02T10:24:32.99Z</time></trkpt><trkpt lat="43.426519" lon="12.5775943"><ele>510.0</ele><time>2026-05-02T10:24:34Z</time></trkpt><trkpt lat="43.4265365" lon="12.5777335"><ele>508.0</ele><time>2026-05-02T10:24:35.005Z</time></trkpt><trkpt lat="43.4265451" lon="12.5778759"><ele>506.25</ele><time>2026-05-02T10:24:36.002Z</time></trkpt><trkpt lat="43.4265393" lon="12.5780272"><ele>504.5</ele><time>2026-05-02T10:24:37.002Z</time></trkpt><trkpt lat="43.426531" lon="12.5781879"><ele>502.75</ele><time>2026-05-02T10:24:37.997Z</time></trkpt><trkpt lat="43.4265251" lon="12.5783589"><ele>501.0</ele><time>2026-05-02T10:24:39.004Z</time></trkpt><trkpt lat="43.426526" lon="12.5785285"><ele>500.4</ele><time>2026-05-02T10:24:40.004Z</time></trkpt><trkpt lat="43.4265341" lon="12.5786867"><ele>499.8</ele><time>2026-05-02T10:24:40.996Z</time></trkpt><trkpt lat="43.4265489" lon="12.5788368"><ele>499.19999999999993</ele><time>2026-05-02T10:24:41.994Z</time></trkpt><trkpt lat="43.4265765" lon="12.5789687"><ele>498.59999999999997</ele><time>2026-05-02T10:24:43.005Z</time></trkpt><trkpt lat="43.4266175" lon="12.5790772"><ele>498.0</ele><time>2026-05-02T10:24:43.991Z</time></trkpt><trkpt lat="43.4266748" lon="12.5791768"><ele>498.0</ele><time>2026-05-02T10:24:44.996Z</time></trkpt><trkpt lat="43.4267397" lon="12.5792688"><ele>497.99999999999994</ele><time>2026-05-02T10:24:45.994Z</time></trkpt><trkpt lat="43.426811" lon="12.5793657"><ele>497.99999999999994</ele><time>2026-05-02T10:24:47.004Z</time></trkpt><trkpt lat="43.426884" lon="12.5794635"><ele>498.0</ele><time>2026-05-02T10:24:48.001Z</time></trkpt><trkpt lat="43.4269495" lon="12.5795506"><ele>498.0</ele><time>2026-05-02T10:24:48.986Z</time></trkpt><trkpt lat="43.4270091" lon="12.5796523"><ele>498.2</ele><time>2026-05-02T10:24:50.004Z</time></trkpt><trkpt lat="43.4270489" lon="12.5797636"><ele>498.4</ele><time>2026-05-02T10:24:51.001Z</time></trkpt><trkpt lat="43.4270734" lon="12.5798857"><ele>498.59999999999997</ele><time>2026-05-02T10:24:51.994Z</time></trkpt><trkpt lat="43.4270901" lon="12.5800114"><ele>498.79999999999995</ele><time>2026-05-02T10:24:53Z</time></trkpt><trkpt lat="43.4270984" lon="12.5801405"><ele>499.0</ele><time>2026-05-02T10:24:53.999Z</time></trkpt><trkpt lat="43.4270839" lon="12.5802647"><ele>497.4</ele><time>2026-05-02T10:24:54.993Z</time></trkpt><trkpt lat="43.4270507" lon="12.5803854"><ele>495.79999999999995</ele><time>2026-05-02T10:24:56Z</time></trkpt><trkpt lat="43.4269965" lon="12.5804927"><ele>494.20000000000005</ele><time>2026-05-02T10:24:56.999Z</time></trkpt><trkpt lat="43.426922" lon="12.5805954"><ele>492.6</ele><time>2026-05-02T10:24:57.998Z</time></trkpt><trkpt lat="43.4268371" lon="12.5807029"><ele>491.0</ele><time>2026-05-02T10:24:58.997Z</time></trkpt><trkpt lat="43.4267421" lon="12.5808153"><ele>491.0</ele><time>2026-05-02T10:25:00.003Z</time></trkpt><trkpt lat="43.4266411" lon="12.5809449"><ele>491.0</ele><time>2026-05-02T10:25:01.007Z</time></trkpt><trkpt lat="43.4265295" lon="12.5810874"><ele>491.0</ele><time>2026-05-02T10:25:01.995Z</time></trkpt><trkpt lat="43.4264212" lon="12.5812332"><ele>491.0</ele><time>2026-05-02T10:25:02.987Z</time></trkpt><trkpt lat="43.4263178" lon="12.5813942"><ele>492.0</ele><time>2026-05-02T10:25:03.991Z</time></trkpt><trkpt lat="43.4262206" lon="12.5815594"><ele>493.0</ele><time>2026-05-02T10:25:04.99Z</time></trkpt><trkpt lat="43.4261287" lon="12.5817246"><ele>494.0</ele><time>2026-05-02T10:25:06.004Z</time></trkpt><trkpt lat="43.4260422" lon="12.5818832"><ele>492.25</ele><time>2026-05-02T10:25:07.002Z</time></trkpt><trkpt lat="43.4259603" lon="12.5820387"><ele>490.5</ele><time>2026-05-02T10:25:07.998Z</time></trkpt><trkpt lat="43.4258827" lon="12.5822075"><ele>488.75</ele><time>2026-05-02T10:25:08.995Z</time></trkpt><trkpt lat="43.4258007" lon="12.5823938"><ele>487.0</ele><time>2026-05-02T10:25:10Z</time></trkpt><trkpt lat="43.4257298" lon="12.582593"><ele>487.0</ele><time>2026-05-02T10:25:11.001Z</time></trkpt><trkpt lat="43.4256552" lon="12.5828132"><ele>487.0</ele><time>2026-05-02T10:25:11.998Z</time></trkpt><trkpt lat="43.4255802" lon="12.5830528"><ele>487.0</ele><time>2026-05-02T10:25:13.012Z</time></trkpt><trkpt lat="43.4255177" lon="12.5832968"><ele>491.6666666666667</ele><time>2026-05-02T10:25:13.997Z</time></trkpt><trkpt lat="43.4254662" lon="12.5835407"><ele>496.33333333333337</ele><time>2026-05-02T10:25:14.993Z</time></trkpt><trkpt lat="43.4254232" lon="12.5837831"><ele>501.0</ele><time>2026-05-02T10:25:15.998Z</time></trkpt><trkpt lat="43.4253864" lon="12.584025"><ele>501.0</ele><time>2026-05-02T10:25:17.01Z</time></trkpt><trkpt lat="43.4253626" lon="12.5842704"><ele>501.0</ele><time>2026-05-02T10:25:17.994Z</time></trkpt><trkpt lat="43.4253504" lon="12.584513"><ele>501.0</ele><time>2026-05-02T10:25:19.001Z</time></trkpt><trkpt lat="43.4253387" lon="12.5847475"><ele>497.75</ele><time>2026-05-02T10:25:19.997Z</time></trkpt><trkpt lat="43.4253403" lon="12.5849575"><ele>494.5</ele><time>2026-05-02T10:25:20.999Z</time></trkpt><trkpt lat="43.4253305" lon="12.5851347"><ele>491.25</ele><time>2026-05-02T10:25:22.006Z</time></trkpt><trkpt lat="43.4253199" lon="12.585266"><ele>488.0</ele><time>2026-05-02T10:25:23.001Z</time></trkpt><trkpt lat="43.4252815" lon="12.5853755"><ele>488.0</ele><time>2026-05-02T10:25:25.008Z</time></trkpt><trkpt lat="43.425174" lon="12.5854704"><ele>487.99999999999994</ele><time>2026-05-02T10:25:26.989Z</time></trkpt><trkpt lat="43.4251022" lon="12.5855268"><ele>487.99999999999994</ele><time>2026-05-02T10:25:27.997Z</time></trkpt><trkpt lat="43.4250382" lon="12.5855897"><ele>488.0</ele><time>2026-05-02T10:25:28.986Z</time></trkpt><trkpt lat="43.4249778" lon="12.5856397"><ele>488.0</ele><time>2026-05-02T10:25:29.991Z</time></trkpt><trkpt lat="43.4248741" lon="12.5856566"><ele>488.0</ele><time>2026-05-02T10:25:32.02Z</time></trkpt><trkpt lat="43.4247835" lon="12.5855657"><ele>487.99999999999994</ele><time>2026-05-02T10:25:33.99Z</time></trkpt><trkpt lat="43.4247167" lon="12.5854017"><ele>487.99999999999994</ele><time>2026-05-02T10:25:35.993Z</time></trkpt><trkpt lat="43.42467" lon="12.585292"><ele>488.0</ele><time>2026-05-02T10:25:37Z</time></trkpt><trkpt lat="43.4246199" lon="12.5851803"><ele>488.0</ele><time>2026-05-02T10:25:37.99Z</time></trkpt><trkpt lat="43.4245785" lon="12.5850819"><ele>489.3333333333333</ele><time>2026-05-02T10:25:39.006Z</time></trkpt><trkpt lat="43.4245189" lon="12.5849762"><ele>490.66666666666663</ele><time>2026-05-02T10:25:41.002Z</time></trkpt><trkpt lat="43.4244753" lon="12.5848847"><ele>492.0</ele><time>2026-05-02T10:26:11.999Z</time></trkpt><trkpt lat="43.4243901" lon="12.5847669"><ele>493.33333333333337</ele><time>2026-05-02T10:26:14.007Z</time></trkpt><trkpt lat="43.424334" lon="12.5847047"><ele>494.6666666666667</ele><time>2026-05-02T10:26:15.004Z</time></trkpt><trkpt lat="43.42427" lon="12.5846451"><ele>496.0</ele><time>2026-05-02T10:26:16.002Z</time></trkpt><trkpt lat="43.424202" lon="12.5845865"><ele>496.00000000000006</ele><time>2026-05-02T10:26:17Z</time></trkpt><trkpt lat="43.4241413" lon="12.5845208"><ele>496.0</ele><time>2026-05-02T10:26:18.008Z</time></trkpt><trkpt lat="43.4240875" lon="12.5844657"><ele>496.0</ele><time>2026-05-02T10:26:18.993Z</time></trkpt><trkpt lat="43.4239993" lon="12.5843495"><ele>496.0</ele><time>2026-05-02T10:26:21.023Z</time></trkpt><trkpt lat="43.4239505" lon="12.5842734"><ele>496.00000000000006</ele><time>2026-05-02T10:26:23.007Z</time></trkpt><trkpt lat="43.4239137" lon="12.5841976"><ele>496.0</ele><time>2026-05-02T10:26:35.988Z</time></trkpt><trkpt lat="43.4238388" lon="12.5841609"><ele>499.6</ele><time>2026-05-02T10:26:37.987Z</time></trkpt><trkpt lat="43.4237691" lon="12.5841431"><ele>503.20000000000005</ele><time>2026-05-02T10:26:38.981Z</time></trkpt><trkpt lat="43.4236868" lon="12.5841457"><ele>506.79999999999995</ele><time>2026-05-02T10:26:39.995Z</time></trkpt><trkpt lat="43.4235885" lon="12.5841414"><ele>510.4</ele><time>2026-05-02T10:26:40.987Z</time></trkpt><trkpt lat="43.4234762" lon="12.5841337"><ele>514.0</ele><time>2026-05-02T10:26:42Z</time></trkpt><trkpt lat="43.4233532" lon="12.5841363"><ele>514.0</ele><time>2026-05-02T10:26:42.995Z</time></trkpt><trkpt lat="43.423242" lon="12.5841697"><ele>514.0</ele><time>2026-05-02T10:26:43.997Z</time></trkpt><trkpt lat="43.4231219" lon="12.5842304"><ele>514.0</ele><time>2026-05-02T10:26:45.004Z</time></trkpt><trkpt lat="43.4229762" lon="12.5842843"><ele>514.0</ele><time>2026-05-02T10:26:45.982Z</time></trkpt><trkpt lat="43.422827" lon="12.5843215"><ele>515.0</ele><time>2026-05-02T10:26:46.993Z</time></trkpt><trkpt lat="43.4226862" lon="12.5843546"><ele>516.0</ele><time>2026-05-02T10:26:48.007Z</time></trkpt><trkpt lat="43.4225558" lon="12.5843869"><ele>517.0</ele><time>2026-05-02T10:26:48.988Z</time></trkpt><trkpt lat="43.4224441" lon="12.5844197"><ele>518.0</ele><time>2026-05-02T10:26:49.992Z</time></trkpt><trkpt lat="43.4223547" lon="12.5844401"><ele>518.0</ele><time>2026-05-02T10:26:51.014Z</time></trkpt><trkpt lat="43.4222783" lon="12.5844407"><ele>518.0</ele><time>2026-05-02T10:26:52.005Z</time></trkpt><trkpt lat="43.4222093" lon="12.584438"><ele>518.0</ele><time>2026-05-02T10:26:52.984Z</time></trkpt><trkpt lat="43.422148" lon="12.5844177"><ele>518.0</ele><time>2026-05-02T10:26:53.998Z</time></trkpt><trkpt lat="43.4220694" lon="12.5843822"><ele>518.0</ele><time>2026-05-02T10:26:54.981Z</time></trkpt><trkpt lat="43.4219845" lon="12.5843349"><ele>518.0</ele><time>2026-05-02T10:26:55.999Z</time></trkpt><trkpt lat="43.4219089" lon="12.5843106"><ele>518.0</ele><time>2026-05-02T10:26:56.995Z</time></trkpt><trkpt lat="43.4218307" lon="12.5842943"><ele>518.0</ele><time>2026-05-02T10:26:57.99Z</time></trkpt><trkpt lat="43.4217391" lon="12.5842923"><ele>518.0</ele><time>2026-05-02T10:26:59.001Z</time></trkpt><trkpt lat="43.421636" lon="12.5842873"><ele>518.0</ele><time>2026-05-02T10:26:59.991Z</time></trkpt><trkpt lat="43.4215221" lon="12.5842821"><ele>518.0</ele><time>2026-05-02T10:27:00.995Z</time></trkpt><trkpt lat="43.4214151" lon="12.5842932"><ele>519.1999999999999</ele><time>2026-05-02T10:27:02Z</time></trkpt><trkpt lat="43.4213098" lon="12.5843082"><ele>520.4</ele><time>2026-05-02T10:27:03.01Z</time></trkpt><trkpt lat="43.4212075" lon="12.5843255"><ele>521.5999999999999</ele><time>2026-05-02T10:27:04.005Z</time></trkpt><trkpt lat="43.421114" lon="12.5843128"><ele>522.8</ele><time>2026-05-02T10:27:04.992Z</time></trkpt><trkpt lat="43.4210176" lon="12.5842659"><ele>524.0</ele><time>2026-05-02T10:27:06.004Z</time></trkpt><trkpt lat="43.4209187" lon="12.5842258"><ele>524.0</ele><time>2026-05-02T10:27:07.012Z</time></trkpt><trkpt lat="43.4208183" lon="12.5841849"><ele>524.0</ele><time>2026-05-02T10:27:07.988Z</time></trkpt><trkpt lat="43.4207296" lon="12.5841246"><ele>524.0</ele><time>2026-05-02T10:27:08.988Z</time></trkpt><trkpt lat="43.4206617" lon="12.584054"><ele>524.0</ele><time>2026-05-02T10:27:09.997Z</time></trkpt><trkpt lat="43.4206022" lon="12.5839845"><ele>524.0</ele><time>2026-05-02T10:27:11Z</time></trkpt><trkpt lat="43.4205357" lon="12.5839577"><ele>524.0</ele><time>2026-05-02T10:27:11.996Z</time></trkpt><trkpt lat="43.4204507" lon="12.5839475"><ele>527.5</ele><time>2026-05-02T10:27:13.029Z</time></trkpt><trkpt lat="43.4203495" lon="12.5839614"><ele>531.0</ele><time>2026-05-02T10:27:13.991Z</time></trkpt><trkpt lat="43.4202273" lon="12.5839934"><ele>534.5</ele><time>2026-05-02T10:27:14.993Z</time></trkpt><trkpt lat="43.4200988" lon="12.5840317"><ele>538.0</ele><time>2026-05-02T10:27:15.998Z</time></trkpt><trkpt lat="43.4200011" lon="12.5840927"><ele>538.0</ele><time>2026-05-02T10:27:17.002Z</time></trkpt><trkpt lat="43.4199213" lon="12.5841387"><ele>538.0</ele><time>2026-05-02T10:27:18.009Z</time></trkpt><trkpt lat="43.4198432" lon="12.5841598"><ele>538.0</ele><time>2026-05-02T10:27:19.002Z</time></trkpt><trkpt lat="43.4197504" lon="12.5841756"><ele>538.0</ele><time>2026-05-02T10:27:20.005Z</time></trkpt><trkpt lat="43.4196422" lon="12.5841762"><ele>538.0</ele><time>2026-05-02T10:27:20.996Z</time></trkpt><trkpt lat="43.4195259" lon="12.5841735"><ele>536.75</ele><time>2026-05-02T10:27:21.992Z</time></trkpt><trkpt lat="43.4193973" lon="12.5841532"><ele>535.5</ele><time>2026-05-02T10:27:23.009Z</time></trkpt><trkpt lat="43.4192505" lon="12.5841334"><ele>534.25</ele><time>2026-05-02T10:27:24.009Z</time></trkpt><trkpt lat="43.4191087" lon="12.5841307"><ele>533.0</ele><time>2026-05-02T10:27:24.999Z</time></trkpt><trkpt lat="43.4189792" lon="12.5841317"><ele>533.0</ele><time>2026-05-02T10:27:26.005Z</time></trkpt><trkpt lat="43.418847" lon="12.5841609"><ele>533.0</ele><time>2026-05-02T10:27:26.994Z</time></trkpt><trkpt lat="43.4187209" lon="12.5842094"><ele>533.0</ele><time>2026-05-02T10:27:28.003Z</time></trkpt><trkpt lat="43.4186101" lon="12.5842697"><ele>533.0</ele><time>2026-05-02T10:27:28.996Z</time></trkpt><trkpt lat="43.4184996" lon="12.5843455"><ele>534.0</ele><time>2026-05-02T10:27:29.992Z</time></trkpt><trkpt lat="43.4183986" lon="12.5844436"><ele>535.0</ele><time>2026-05-02T10:27:31.004Z</time></trkpt><trkpt lat="43.4182967" lon="12.5845665"><ele>536.0</ele><time>2026-05-02T10:27:32.013Z</time></trkpt><trkpt lat="43.4182056" lon="12.5846884"><ele>537.0</ele><time>2026-05-02T10:27:33.002Z</time></trkpt><trkpt lat="43.4181157" lon="12.5847915"><ele>535.6</ele><time>2026-05-02T10:27:33.999Z</time></trkpt><trkpt lat="43.4180145" lon="12.5848791"><ele>534.2</ele><time>2026-05-02T10:27:34.989Z</time></trkpt><trkpt lat="43.4179113" lon="12.5849586"><ele>532.8</ele><time>2026-05-02T10:27:35.997Z</time></trkpt><trkpt lat="43.4178383" lon="12.5850471"><ele>531.4</ele><time>2026-05-02T10:27:36.998Z</time></trkpt><trkpt lat="43.4177825" lon="12.5851413"><ele>530.0</ele><time>2026-05-02T10:27:37.996Z</time></trkpt><trkpt lat="43.4177354" lon="12.5852419"><ele>530.0</ele><time>2026-05-02T10:27:38.991Z</time></trkpt><trkpt lat="43.4176878" lon="12.5853166"><ele>530.0</ele><time>2026-05-02T10:27:39.995Z</time></trkpt><trkpt lat="43.4176295" lon="12.5853787"><ele>530.0</ele><time>2026-05-02T10:27:41.001Z</time></trkpt><trkpt lat="43.4175593" lon="12.5854116"><ele>530.0</ele><time>2026-05-02T10:27:41.995Z</time></trkpt><trkpt lat="43.417472" lon="12.5854326"><ele>530.0</ele><time>2026-05-02T10:27:43.004Z</time></trkpt><trkpt lat="43.417354" lon="12.5854341"><ele>530.0</ele><time>2026-05-02T10:27:44.002Z</time></trkpt><trkpt lat="43.4172307" lon="12.5854477"><ele>525.4</ele><time>2026-05-02T10:27:45.011Z</time></trkpt><trkpt lat="43.4171247" lon="12.5854587"><ele>520.8</ele><time>2026-05-02T10:27:46.002Z</time></trkpt><trkpt lat="43.4170195" lon="12.5854521"><ele>516.2</ele><time>2026-05-02T10:27:47.008Z</time></trkpt><trkpt lat="43.4169298" lon="12.5854196"><ele>511.6</ele><time>2026-05-02T10:27:48.005Z</time></trkpt><trkpt lat="43.4168397" lon="12.5853881"><ele>507.0</ele><time>2026-05-02T10:27:48.985Z</time></trkpt><trkpt lat="43.4167433" lon="12.5853785"><ele>507.0</ele><time>2026-05-02T10:27:50.006Z</time></trkpt><trkpt lat="43.4166331" lon="12.5853803"><ele>507.0</ele><time>2026-05-02T10:27:51.001Z</time></trkpt><trkpt lat="43.4165191" lon="12.5853835"><ele>507.0</ele><time>2026-05-02T10:27:51.99Z</time></trkpt><trkpt lat="43.4163974" lon="12.5853827"><ele>507.0</ele><time>2026-05-02T10:27:53.006Z</time></trkpt><trkpt lat="43.4162751" lon="12.5853827"><ele>506.40000000000003</ele><time>2026-05-02T10:27:54.021Z</time></trkpt><trkpt lat="43.4161607" lon="12.5853921"><ele>505.80000000000007</ele><time>2026-05-02T10:27:55.014Z</time></trkpt><trkpt lat="43.4160493" lon="12.5853864"><ele>505.2</ele><time>2026-05-02T10:27:55.988Z</time></trkpt><trkpt lat="43.4159429" lon="12.5853673"><ele>504.6</ele><time>2026-05-02T10:27:57.013Z</time></trkpt><trkpt lat="43.4158413" lon="12.5853402"><ele>504.0</ele><time>2026-05-02T10:27:57.993Z</time></trkpt><trkpt lat="43.4157481" lon="12.5852896"><ele>504.8333333333333</ele><time>2026-05-02T10:27:59Z</time></trkpt><trkpt lat="43.4156571" lon="12.5852299"><ele>505.66666666666663</ele><time>2026-05-02T10:27:59.996Z</time></trkpt><trkpt lat="43.4155768" lon="12.5851582"><ele>506.5</ele><time>2026-05-02T10:28:01.009Z</time></trkpt><trkpt lat="43.4155063" lon="12.5850874"><ele>507.3333333333333</ele><time>2026-05-02T10:28:01.997Z</time></trkpt><trkpt lat="43.4154478" lon="12.585027"><ele>508.16666666666663</ele><time>2026-05-02T10:28:02.993Z</time></trkpt><trkpt lat="43.4153872" lon="12.5849845"><ele>509.0</ele><time>2026-05-02T10:28:04.004Z</time></trkpt><trkpt lat="43.4152995" lon="12.5850021"><ele>509.0</ele><time>2026-05-02T10:28:05.994Z</time></trkpt><trkpt lat="43.4152329" lon="12.5850337"><ele>509.0</ele><time>2026-05-02T10:28:08.022Z</time></trkpt><trkpt lat="43.4151296" lon="12.5849713"><ele>509.0</ele><time>2026-05-02T10:28:10.002Z</time></trkpt><trkpt lat="43.4150574" lon="12.5848941"><ele>509.0</ele><time>2026-05-02T10:28:11.004Z</time></trkpt><trkpt lat="43.4149788" lon="12.5848129"><ele>509.0</ele><time>2026-05-02T10:28:11.993Z</time></trkpt><trkpt lat="43.4148948" lon="12.5847285"><ele>509.0</ele><time>2026-05-02T10:28:12.998Z</time></trkpt><trkpt lat="43.4148169" lon="12.5846616"><ele>509.0</ele><time>2026-05-02T10:28:14.004Z</time></trkpt><trkpt lat="43.414738" lon="12.5845902"><ele>509.0</ele><time>2026-05-02T10:28:15.013Z</time></trkpt><trkpt lat="43.4146552" lon="12.5845137"><ele>509.0</ele><time>2026-05-02T10:28:16.008Z</time></trkpt><trkpt lat="43.4145615" lon="12.5844435"><ele>509.0</ele><time>2026-05-02T10:28:16.998Z</time></trkpt><trkpt lat="43.414481" lon="12.5843689"><ele>509.4</ele><time>2026-05-02T10:28:17.995Z</time></trkpt><trkpt lat="43.4143957" lon="12.584292"><ele>509.79999999999995</ele><time>2026-05-02T10:28:18.993Z</time></trkpt><trkpt lat="43.4143102" lon="12.5842075"><ele>510.20000000000005</ele><time>2026-05-02T10:28:19.987Z</time></trkpt><trkpt lat="43.4142252" lon="12.5841306"><ele>510.6</ele><time>2026-05-02T10:28:20.999Z</time></trkpt><trkpt lat="43.4141451" lon="12.5840588"><ele>511.0</ele><time>2026-05-02T10:28:22.002Z</time></trkpt><trkpt lat="43.4140782" lon="12.5839975"><ele>511.0</ele><time>2026-05-02T10:28:23.005Z</time></trkpt><trkpt lat="43.4140215" lon="12.5839444"><ele>511.0</ele><time>2026-05-02T10:28:23.996Z</time></trkpt><trkpt lat="43.4139256" lon="12.5838568"><ele>511.0</ele><time>2026-05-02T10:28:25.997Z</time></trkpt><trkpt lat="43.4138259" lon="12.5837741"><ele>511.0</ele><time>2026-05-02T10:28:27.996Z</time></trkpt><trkpt lat="43.4137437" lon="12.5837026"><ele>511.0</ele><time>2026-05-02T10:28:29.005Z</time></trkpt><trkpt lat="43.4136479" lon="12.5836106"><ele>513.6666666666667</ele><time>2026-05-02T10:28:29.994Z</time></trkpt><trkpt lat="43.4135335" lon="12.5835094"><ele>516.3333333333334</ele><time>2026-05-02T10:28:30.999Z</time></trkpt><trkpt lat="43.4134077" lon="12.5833888"><ele>519.0</ele><time>2026-05-02T10:28:31.988Z</time></trkpt><trkpt lat="43.4132701" lon="12.5832634"><ele>519.0</ele><time>2026-05-02T10:28:33Z</time></trkpt><trkpt lat="43.4131313" lon="12.5831395"><ele>519.0</ele><time>2026-05-02T10:28:33.997Z</time></trkpt><trkpt lat="43.4129925" lon="12.583016"><ele>519.0</ele><time>2026-05-02T10:28:35.006Z</time></trkpt><trkpt lat="43.4128558" lon="12.5828919"><ele>518.6666666666666</ele><time>2026-05-02T10:28:36.005Z</time></trkpt><trkpt lat="43.4127187" lon="12.5827648"><ele>518.3333333333333</ele><time>2026-05-02T10:28:37.002Z</time></trkpt><trkpt lat="43.4125812" lon="12.5826314"><ele>518.0</ele><time>2026-05-02T10:28:37.998Z</time></trkpt><trkpt lat="43.4124431" lon="12.5825008"><ele>518.0</ele><time>2026-05-02T10:28:39Z</time></trkpt><trkpt lat="43.4123071" lon="12.5823802"><ele>518.0</ele><time>2026-05-02T10:28:39.998Z</time></trkpt><trkpt lat="43.4121829" lon="12.5822733"><ele>518.0</ele><time>2026-05-02T10:28:40.997Z</time></trkpt><trkpt lat="43.4120644" lon="12.5821668"><ele>517.75</ele><time>2026-05-02T10:28:41.996Z</time></trkpt><trkpt lat="43.411947" lon="12.5820603"><ele>517.5</ele><time>2026-05-02T10:28:42.997Z</time></trkpt><trkpt lat="43.4118271" lon="12.5819448"><ele>517.25</ele><time>2026-05-02T10:28:44.001Z</time></trkpt><trkpt lat="43.4117054" lon="12.5818342"><ele>517.0</ele><time>2026-05-02T10:28:45.002Z</time></trkpt><trkpt lat="43.4115805" lon="12.5817266"><ele>519.6666666666667</ele><time>2026-05-02T10:28:45.997Z</time></trkpt><trkpt lat="43.4114524" lon="12.5816202"><ele>522.3333333333334</ele><time>2026-05-02T10:28:46.989Z</time></trkpt><trkpt lat="43.4113206" lon="12.581514"><ele>525.0</ele><time>2026-05-02T10:28:47.999Z</time></trkpt><trkpt lat="43.4111922" lon="12.5814082"><ele>525.6666666666666</ele><time>2026-05-02T10:28:49.015Z</time></trkpt><trkpt lat="43.4110616" lon="12.5812984"><ele>526.3333333333333</ele><time>2026-05-02T10:28:50.004Z</time></trkpt><trkpt lat="43.4109304" lon="12.5811825"><ele>527.0</ele><time>2026-05-02T10:28:50.99Z</time></trkpt><trkpt lat="43.4107874" lon="12.5810668"><ele>530.6666666666666</ele><time>2026-05-02T10:28:51.993Z</time></trkpt><trkpt lat="43.4106317" lon="12.5809417"><ele>534.3333333333334</ele><time>2026-05-02T10:28:53.001Z</time></trkpt><trkpt lat="43.4104677" lon="12.580826"><ele>538.0</ele><time>2026-05-02T10:28:53.998Z</time></trkpt><trkpt lat="43.4102961" lon="12.5807304"><ele>538.0</ele><time>2026-05-02T10:28:55.006Z</time></trkpt><trkpt lat="43.4101167" lon="12.5806782"><ele>538.0</ele><time>2026-05-02T10:28:56.004Z</time></trkpt><trkpt lat="43.4099301" lon="12.5806421"><ele>538.0</ele><time>2026-05-02T10:28:56.996Z</time></trkpt><trkpt lat="43.4097385" lon="12.5806172"><ele>539.3333333333334</ele><time>2026-05-02T10:28:57.997Z</time></trkpt><trkpt lat="43.4095482" lon="12.5806012"><ele>540.6666666666666</ele><time>2026-05-02T10:28:58.996Z</time></trkpt><trkpt lat="43.4093678" lon="12.5805804"><ele>542.0</ele><time>2026-05-02T10:28:59.996Z</time></trkpt><trkpt lat="43.4091954" lon="12.5805407"><ele>542.0</ele><time>2026-05-02T10:29:01.002Z</time></trkpt><trkpt lat="43.4090165" lon="12.5804754"><ele>542.0</ele><time>2026-05-02T10:29:02.002Z</time></trkpt><trkpt lat="43.408838" lon="12.580411"><ele>542.0</ele><time>2026-05-02T10:29:03.009Z</time></trkpt><trkpt lat="43.4086497" lon="12.5803625"><ele>554.3333333333333</ele><time>2026-05-02T10:29:03.998Z</time></trkpt><trkpt lat="43.4084668" lon="12.58033"><ele>566.6666666666666</ele><time>2026-05-02T10:29:04.998Z</time></trkpt><trkpt lat="43.4082915" lon="12.5803067"><ele>579.0</ele><time>2026-05-02T10:29:05.999Z</time></trkpt><trkpt lat="43.4081268" lon="12.5802885"><ele>575.25</ele><time>2026-05-02T10:29:06.998Z</time></trkpt><trkpt lat="43.407974" lon="12.5802489"><ele>571.5</ele><time>2026-05-02T10:29:07.993Z</time></trkpt><trkpt lat="43.4078339" lon="12.5801952"><ele>567.75</ele><time>2026-05-02T10:29:08.995Z</time></trkpt><trkpt lat="43.4077128" lon="12.5801282"><ele>564.0</ele><time>2026-05-02T10:29:09.989Z</time></trkpt><trkpt lat="43.4076084" lon="12.5800582"><ele>564.0</ele><time>2026-05-02T10:29:10.987Z</time></trkpt><trkpt lat="43.4075221" lon="12.5799862"><ele>564.0</ele><time>2026-05-02T10:29:11.983Z</time></trkpt><trkpt lat="43.4074488" lon="12.5799318"><ele>564.0</ele><time>2026-05-02T10:29:12.985Z</time></trkpt><trkpt lat="43.4073793" lon="12.5798913"><ele>564.0</ele><time>2026-05-02T10:29:14.001Z</time></trkpt><trkpt lat="43.4073119" lon="12.579879"><ele>564.0</ele><time>2026-05-02T10:29:14.99Z</time></trkpt><trkpt lat="43.4072095" lon="12.5798768"><ele>564.0</ele><time>2026-05-02T10:29:16.982Z</time></trkpt><trkpt lat="43.4071281" lon="12.5798284"><ele>563.0</ele><time>2026-05-02T10:29:19.009Z</time></trkpt><trkpt lat="43.4070024" lon="12.5797681"><ele>562.0</ele><time>2026-05-02T10:29:20.997Z</time></trkpt><trkpt lat="43.4069161" lon="12.5797261"><ele>561.0</ele><time>2026-05-02T10:29:21.996Z</time></trkpt><trkpt lat="43.4068142" lon="12.5796977"><ele>560.0</ele><time>2026-05-02T10:29:22.998Z</time></trkpt><trkpt lat="43.4067184" lon="12.5796709"><ele>559.0</ele><time>2026-05-02T10:29:23.994Z</time></trkpt><trkpt lat="43.4066232" lon="12.579657"><ele>559.0</ele><time>2026-05-02T10:29:24.988Z</time></trkpt><trkpt lat="43.4065262" lon="12.5796454"><ele>559.0</ele><time>2026-05-02T10:29:25.997Z</time></trkpt><trkpt lat="43.4064374" lon="12.579649"><ele>559.0</ele><time>2026-05-02T10:29:26.994Z</time></trkpt><trkpt lat="43.4063547" lon="12.5796511"><ele>559.0</ele><time>2026-05-02T10:29:28.013Z</time></trkpt><trkpt lat="43.4062729" lon="12.5796528"><ele>559.0</ele><time>2026-05-02T10:29:29.005Z</time></trkpt><trkpt lat="43.4061943" lon="12.5796523"><ele>559.0</ele><time>2026-05-02T10:29:30.004Z</time></trkpt><trkpt lat="43.4061203" lon="12.579639"><ele>559.0</ele><time>2026-05-02T10:29:31.006Z</time></trkpt><trkpt lat="43.4060226" lon="12.5796138"><ele>559.0</ele><time>2026-05-02T10:29:33.011Z</time></trkpt><trkpt lat="43.4060975" lon="12.579662"><ele>559.0</ele><time>2026-05-02T10:29:39.012Z</time></trkpt><trkpt lat="43.4061942" lon="12.579664"><ele>559.0</ele><time>2026-05-02T10:29:39.99Z</time></trkpt><trkpt lat="43.4063195" lon="12.5796688"><ele>559.0</ele><time>2026-05-02T10:29:40.994Z</time></trkpt><trkpt lat="43.4065011" lon="12.5796609"><ele>559.0</ele><time>2026-05-02T10:29:41.991Z</time></trkpt><trkpt lat="43.4066774" lon="12.5796635"><ele>559.0</ele><time>2026-05-02T10:29:42.997Z</time></trkpt><trkpt lat="43.4068445" lon="12.5796871"><ele>559.0</ele><time>2026-05-02T10:29:43.988Z</time></trkpt><trkpt lat="43.4069974" lon="12.5797348"><ele>559.0</ele><time>2026-05-02T10:29:44.997Z</time></trkpt><trkpt lat="43.4071037" lon="12.5798004"><ele>559.0</ele><time>2026-05-02T10:29:46.004Z</time></trkpt><trkpt lat="43.4071616" lon="12.5798521"><ele>559.0</ele><time>2026-05-02T10:29:46.998Z</time></trkpt><trkpt lat="43.4072397" lon="12.5799313"><ele>559.0</ele><time>2026-05-02T10:29:48.999Z</time></trkpt><trkpt lat="43.4073006" lon="12.5799557"><ele>559.0</ele><time>2026-05-02T10:30:24.995Z</time></trkpt><trkpt lat="43.40731" lon="12.5798483"><ele>559.0</ele><time>2026-05-02T10:30:34.991Z</time></trkpt><trkpt lat="43.40724" lon="12.579773"><ele>559.0</ele><time>2026-05-02T10:30:36.009Z</time></trkpt><trkpt lat="43.4071662" lon="12.5796884"><ele>559.0</ele><time>2026-05-02T10:30:36.994Z</time></trkpt><trkpt lat="43.4070647" lon="12.5795932"><ele>559.0</ele><time>2026-05-02T10:30:37.999Z</time></trkpt><trkpt lat="43.4069414" lon="12.5794864"><ele>559.0</ele><time>2026-05-02T10:30:38.994Z</time></trkpt><trkpt lat="43.4067967" lon="12.5793608"><ele>564.0</ele><time>2026-05-02T10:30:40.001Z</time></trkpt><trkpt lat="43.4066446" lon="12.5792548"><ele>569.0</ele><time>2026-05-02T10:30:41.006Z</time></trkpt><trkpt lat="43.4064869" lon="12.5791662"><ele>574.0</ele><time>2026-05-02T10:30:41.988Z</time></trkpt><trkpt lat="43.4063075" lon="12.5790814"><ele>574.0</ele><time>2026-05-02T10:30:42.987Z</time></trkpt><trkpt lat="43.4061089" lon="12.5790062"><ele>574.0</ele><time>2026-05-02T10:30:43.99Z</time></trkpt><trkpt lat="43.405895" lon="12.5789274"><ele>574.0</ele><time>2026-05-02T10:30:44.997Z</time></trkpt><trkpt lat="43.4056715" lon="12.5788315"><ele>573.0</ele><time>2026-05-02T10:30:45.991Z</time></trkpt><trkpt lat="43.4054689" lon="12.5787518"><ele>572.0</ele><time>2026-05-02T10:30:46.994Z</time></trkpt><trkpt lat="43.405281" lon="12.5786756"><ele>571.0</ele><time>2026-05-02T10:30:47.982Z</time></trkpt><trkpt lat="43.4050889" lon="12.5785949"><ele>579.0</ele><time>2026-05-02T10:30:48.985Z</time></trkpt><trkpt lat="43.4048827" lon="12.578511"><ele>587.0</ele><time>2026-05-02T10:30:49.996Z</time></trkpt><trkpt lat="43.4046847" lon="12.5784257"><ele>595.0</ele><time>2026-05-02T10:30:50.986Z</time></trkpt><trkpt lat="43.4044889" lon="12.5783585"><ele>595.0</ele><time>2026-05-02T10:30:51.986Z</time></trkpt><trkpt lat="43.4042987" lon="12.5782932"><ele>595.0</ele><time>2026-05-02T10:30:52.986Z</time></trkpt><trkpt lat="43.4041024" lon="12.5782334"><ele>595.0</ele><time>2026-05-02T10:30:53.987Z</time></trkpt><trkpt lat="43.4039105" lon="12.5781793"><ele>594.6666666666667</ele><time>2026-05-02T10:30:54.984Z</time></trkpt><trkpt lat="43.4037264" lon="12.5781431"><ele>594.3333333333334</ele><time>2026-05-02T10:30:55.99Z</time></trkpt><trkpt lat="43.4035543" lon="12.5781132"><ele>594.0</ele><time>2026-05-02T10:30:56.998Z</time></trkpt><trkpt lat="43.4033723" lon="12.5781136"><ele>594.0</ele><time>2026-05-02T10:30:57.991Z</time></trkpt><trkpt lat="43.4031754" lon="12.5781393"><ele>594.0</ele><time>2026-05-02T10:30:58.988Z</time></trkpt><trkpt lat="43.4029715" lon="12.5781767"><ele>594.0</ele><time>2026-05-02T10:31:00.002Z</time></trkpt><trkpt lat="43.4027633" lon="12.5782161"><ele>599.0</ele><time>2026-05-02T10:31:01.01Z</time></trkpt><trkpt lat="43.402571" lon="12.5782566"><ele>604.0</ele><time>2026-05-02T10:31:01.998Z</time></trkpt><trkpt lat="43.4024006" lon="12.5783037"><ele>609.0</ele><time>2026-05-02T10:31:03.002Z</time></trkpt><trkpt lat="43.4022334" lon="12.5783471"><ele>614.3333333333334</ele><time>2026-05-02T10:31:03.992Z</time></trkpt><trkpt lat="43.4020702" lon="12.5783745"><ele>619.6666666666667</ele><time>2026-05-02T10:31:04.988Z</time></trkpt><trkpt lat="43.4019126" lon="12.5784075"><ele>625.0</ele><time>2026-05-02T10:31:05.991Z</time></trkpt><trkpt lat="43.4017652" lon="12.5784271"><ele>625.0</ele><time>2026-05-02T10:31:06.998Z</time></trkpt><trkpt lat="43.4016191" lon="12.5784136"><ele>625.0</ele><time>2026-05-02T10:31:07.997Z</time></trkpt><trkpt lat="43.4014644" lon="12.5783677"><ele>625.0</ele><time>2026-05-02T10:31:08.996Z</time></trkpt><trkpt lat="43.4012982" lon="12.5783015"><ele>624.3333333333334</ele><time>2026-05-02T10:31:09.996Z</time></trkpt><trkpt lat="43.4011341" lon="12.57824"><ele>623.6666666666666</ele><time>2026-05-02T10:31:11.002Z</time></trkpt><trkpt lat="43.4009634" lon="12.5781706"><ele>623.0</ele><time>2026-05-02T10:31:11.994Z</time></trkpt><trkpt lat="43.4007745" lon="12.5780891"><ele>623.0</ele><time>2026-05-02T10:31:12.998Z</time></trkpt><trkpt lat="43.4005812" lon="12.578011"><ele>623.0</ele><time>2026-05-02T10:31:14.005Z</time></trkpt><trkpt lat="43.4003934" lon="12.5779226"><ele>623.0</ele><time>2026-05-02T10:31:14.997Z</time></trkpt><trkpt lat="43.4002196" lon="12.5778253"><ele>627.6666666666666</ele><time>2026-05-02T10:31:15.994Z</time></trkpt><trkpt lat="43.4000558" lon="12.5777347"><ele>632.3333333333334</ele><time>2026-05-02T10:31:16.994Z</time></trkpt><trkpt lat="43.3998942" lon="12.5776314"><ele>637.0</ele><time>2026-05-02T10:31:17.991Z</time></trkpt><trkpt lat="43.3997431" lon="12.5775282"><ele>637.0</ele><time>2026-05-02T10:31:18.988Z</time></trkpt><trkpt lat="43.3996007" lon="12.5774284"><ele>637.0</ele><time>2026-05-02T10:31:19.986Z</time></trkpt><trkpt lat="43.3994604" lon="12.5773149"><ele>637.0</ele><time>2026-05-02T10:31:20.991Z</time></trkpt><trkpt lat="43.3993223" lon="12.5771705"><ele>641.0</ele><time>2026-05-02T10:31:21.989Z</time></trkpt><trkpt lat="43.3991878" lon="12.5770035"><ele>645.0</ele><time>2026-05-02T10:31:23.003Z</time></trkpt><trkpt lat="43.3990566" lon="12.5768174"><ele>649.0</ele><time>2026-05-02T10:31:23.988Z</time></trkpt><trkpt lat="43.3989429" lon="12.5766269"><ele>650.6666666666667</ele><time>2026-05-02T10:31:25.015Z</time></trkpt><trkpt lat="43.3988321" lon="12.5764333"><ele>652.3333333333334</ele><time>2026-05-02T10:31:25.987Z</time></trkpt><trkpt lat="43.3987121" lon="12.5762374"><ele>654.0</ele><time>2026-05-02T10:31:26.996Z</time></trkpt><trkpt lat="43.3985872" lon="12.5760669"><ele>654.0</ele><time>2026-05-02T10:31:27.984Z</time></trkpt><trkpt lat="43.3984559" lon="12.5759193"><ele>654.0</ele><time>2026-05-02T10:31:28.986Z</time></trkpt><trkpt lat="43.3983152" lon="12.5757953"><ele>654.0</ele><time>2026-05-02T10:31:30.005Z</time></trkpt><trkpt lat="43.3981524" lon="12.5756733"><ele>662.3333333333334</ele><time>2026-05-02T10:31:30.981Z</time></trkpt><trkpt lat="43.3979804" lon="12.5755792"><ele>670.6666666666667</ele><time>2026-05-02T10:31:31.99Z</time></trkpt><trkpt lat="43.3978004" lon="12.5754846"><ele>679.0</ele><time>2026-05-02T10:31:32.978Z</time></trkpt><trkpt lat="43.3976151" lon="12.5753885"><ele>676.6666666666667</ele><time>2026-05-02T10:31:33.969Z</time></trkpt><trkpt lat="43.3974201" lon="12.5752757"><ele>674.3333333333334</ele><time>2026-05-02T10:31:34.988Z</time></trkpt><trkpt lat="43.3972196" lon="12.5751538"><ele>672.0</ele><time>2026-05-02T10:31:35.972Z</time></trkpt><trkpt lat="43.3883842" lon="12.5702738"><ele>664.6666666666666</ele><time>2026-05-02T10:32:28.006Z</time></trkpt><trkpt lat="43.3882816" lon="12.5700205"><ele>657.3333333333333</ele><time>2026-05-02T10:32:28.992Z</time></trkpt><trkpt lat="43.3881793" lon="12.5697852"><ele>650.0</ele><time>2026-05-02T10:32:29.99Z</time></trkpt><trkpt lat="43.3880618" lon="12.5695466"><ele>644.6666666666666</ele><time>2026-05-02T10:32:30.997Z</time></trkpt><trkpt lat="43.3879608" lon="12.5693142"><ele>639.3333333333334</ele><time>2026-05-02T10:32:31.99Z</time></trkpt><trkpt lat="43.3878771" lon="12.569101"><ele>634.0</ele><time>2026-05-02T10:32:33.006Z</time></trkpt><trkpt lat="43.3877993" lon="12.5689118"><ele>634.0</ele><time>2026-05-02T10:32:34.003Z</time></trkpt><trkpt lat="43.3877172" lon="12.5687478"><ele>634.0</ele><time>2026-05-02T10:32:34.994Z</time></trkpt><trkpt lat="43.3876243" lon="12.5686265"><ele>634.0</ele><time>2026-05-02T10:32:35.996Z</time></trkpt><trkpt lat="43.3875176" lon="12.5685346"><ele>634.0</ele><time>2026-05-02T10:32:36.987Z</time></trkpt><trkpt lat="43.3873928" lon="12.5684855"><ele>638.0</ele><time>2026-05-02T10:32:38.005Z</time></trkpt><trkpt lat="43.3872655" lon="12.5684649"><ele>642.0</ele><time>2026-05-02T10:32:38.993Z</time></trkpt><trkpt lat="43.3871291" lon="12.5684924"><ele>646.0</ele><time>2026-05-02T10:32:39.991Z</time></trkpt><trkpt lat="43.3869832" lon="12.568528"><ele>650.0</ele><time>2026-05-02T10:32:41.003Z</time></trkpt><trkpt lat="43.3868441" lon="12.568554"><ele>650.0</ele><time>2026-05-02T10:32:42Z</time></trkpt><trkpt lat="43.3867067" lon="12.5685616"><ele>650.0</ele><time>2026-05-02T10:32:42.992Z</time></trkpt><trkpt lat="43.386563" lon="12.5685351"><ele>650.0</ele><time>2026-05-02T10:32:43.989Z</time></trkpt><trkpt lat="43.3864085" lon="12.5684804"><ele>650.0</ele><time>2026-05-02T10:32:44.987Z</time></trkpt><trkpt lat="43.3862592" lon="12.5683839"><ele>641.6666666666666</ele><time>2026-05-02T10:32:45.995Z</time></trkpt><trkpt lat="43.3861301" lon="12.5682497"><ele>633.3333333333334</ele><time>2026-05-02T10:32:46.988Z</time></trkpt><trkpt lat="43.3860034" lon="12.5680777"><ele>625.0</ele><time>2026-05-02T10:32:47.99Z</time></trkpt><trkpt lat="43.3858814" lon="12.5678792"><ele>622.3333333333334</ele><time>2026-05-02T10:32:48.996Z</time></trkpt><trkpt lat="43.3857369" lon="12.5676623"><ele>619.6666666666666</ele><time>2026-05-02T10:32:49.986Z</time></trkpt><trkpt lat="43.3855797" lon="12.5674307"><ele>617.0</ele><time>2026-05-02T10:32:50.999Z</time></trkpt><trkpt lat="43.3854131" lon="12.5671896"><ele>619.5</ele><time>2026-05-02T10:32:51.993Z</time></trkpt><trkpt lat="43.3852239" lon="12.5669344"><ele>622.0</ele><time>2026-05-02T10:32:53.001Z</time></trkpt><trkpt lat="43.3850285" lon="12.5666864"><ele>622.0</ele><time>2026-05-02T10:32:54.002Z</time></trkpt><trkpt lat="43.384831" lon="12.566459"><ele>622.0</ele><time>2026-05-02T10:32:54.992Z</time></trkpt><trkpt lat="43.3846426" lon="12.5662324"><ele>616.5</ele><time>2026-05-02T10:32:55.994Z</time></trkpt><trkpt lat="43.3844724" lon="12.5660118"><ele>611.0</ele><time>2026-05-02T10:32:56.983Z</time></trkpt><trkpt lat="43.3843253" lon="12.5657942"><ele>611.0</ele><time>2026-05-02T10:32:57.981Z</time></trkpt><trkpt lat="43.38419" lon="12.5655812"><ele>611.0</ele><time>2026-05-02T10:32:58.991Z</time></trkpt><trkpt lat="43.3840622" lon="12.5653767"><ele>611.0</ele><time>2026-05-02T10:32:59.995Z</time></trkpt><trkpt lat="43.3839371" lon="12.5651738"><ele>608.3333333333333</ele><time>2026-05-02T10:33:00.997Z</time></trkpt><trkpt lat="43.3838202" lon="12.5649753"><ele>605.6666666666666</ele><time>2026-05-02T10:33:01.994Z</time></trkpt><trkpt lat="43.3837058" lon="12.5647881"><ele>603.0</ele><time>2026-05-02T10:33:02.995Z</time></trkpt><trkpt lat="43.3835965" lon="12.5646177"><ele>608.0</ele><time>2026-05-02T10:33:03.993Z</time></trkpt><trkpt lat="43.3834929" lon="12.5644584"><ele>613.0</ele><time>2026-05-02T10:33:04.993Z</time></trkpt><trkpt lat="43.383391" lon="12.5642986"><ele>618.0</ele><time>2026-05-02T10:33:05.995Z</time></trkpt><trkpt lat="43.3832823" lon="12.5641357"><ele>618.0</ele><time>2026-05-02T10:33:06.998Z</time></trkpt><trkpt lat="43.3831744" lon="12.5639708"><ele>618.0</ele><time>2026-05-02T10:33:07.99Z</time></trkpt><trkpt lat="43.3830743" lon="12.5638125"><ele>618.0</ele><time>2026-05-02T10:33:08.987Z</time></trkpt><trkpt lat="43.3829726" lon="12.5636658"><ele>611.6666666666666</ele><time>2026-05-02T10:33:09.989Z</time></trkpt><trkpt lat="43.382861" lon="12.5635362"><ele>605.3333333333333</ele><time>2026-05-02T10:33:10.987Z</time></trkpt><trkpt lat="43.3827357" lon="12.563411"><ele>599.0</ele><time>2026-05-02T10:33:11.988Z</time></trkpt><trkpt lat="43.3825894" lon="12.563304"><ele>599.0</ele><time>2026-05-02T10:33:12.996Z</time></trkpt><trkpt lat="43.382436" lon="12.5631969"><ele>599.0</ele><time>2026-05-02T10:33:14.001Z</time></trkpt><trkpt lat="43.3822684" lon="12.5631044"><ele>599.0</ele><time>2026-05-02T10:33:14.986Z</time></trkpt><trkpt lat="43.382101" lon="12.563038"><ele>593.6666666666666</ele><time>2026-05-02T10:33:15.986Z</time></trkpt><trkpt lat="43.3819354" lon="12.5629945"><ele>588.3333333333334</ele><time>2026-05-02T10:33:16.985Z</time></trkpt><trkpt lat="43.3817777" lon="12.562968"><ele>583.0</ele><time>2026-05-02T10:33:17.996Z</time></trkpt><trkpt lat="43.3816276" lon="12.5629427"><ele>583.0</ele><time>2026-05-02T10:33:18.99Z</time></trkpt><trkpt lat="43.381481" lon="12.5629216"><ele>583.0</ele><time>2026-05-02T10:33:19.991Z</time></trkpt><trkpt lat="43.3813386" lon="12.5628981"><ele>583.0</ele><time>2026-05-02T10:33:20.995Z</time></trkpt><trkpt lat="43.3812041" lon="12.5628682"><ele>583.0</ele><time>2026-05-02T10:33:21.993Z</time></trkpt><trkpt lat="43.3810657" lon="12.5628314"><ele>584.0</ele><time>2026-05-02T10:33:22.986Z</time></trkpt><trkpt lat="43.3809233" lon="12.5627939"><ele>585.0</ele><time>2026-05-02T10:33:24.005Z</time></trkpt><trkpt lat="43.3807801" lon="12.5627522"><ele>586.0</ele><time>2026-05-02T10:33:24.992Z</time></trkpt><trkpt lat="43.3806329" lon="12.5626973"><ele>587.0</ele><time>2026-05-02T10:33:25.992Z</time></trkpt><trkpt lat="43.3804791" lon="12.5626295"><ele>582.3333333333333</ele><time>2026-05-02T10:33:26.987Z</time></trkpt><trkpt lat="43.3803238" lon="12.5625361"><ele>577.6666666666666</ele><time>2026-05-02T10:33:28.004Z</time></trkpt><trkpt lat="43.3801522" lon="12.5624114"><ele>573.0</ele><time>2026-05-02T10:33:28.979Z</time></trkpt><trkpt lat="43.3799549" lon="12.562267"><ele>573.0</ele><time>2026-05-02T10:33:29.996Z</time></trkpt><trkpt lat="43.3797422" lon="12.5621132"><ele>573.0</ele><time>2026-05-02T10:33:30.997Z</time></trkpt><trkpt lat="43.3795234" lon="12.5619567"><ele>579.0</ele><time>2026-05-02T10:33:31.995Z</time></trkpt><trkpt lat="43.3793142" lon="12.5617922"><ele>585.0</ele><time>2026-05-02T10:33:32.991Z</time></trkpt><trkpt lat="43.3791053" lon="12.5616148"><ele>585.0</ele><time>2026-05-02T10:33:33.994Z</time></trkpt><trkpt lat="43.3789028" lon="12.5614113"><ele>585.0</ele><time>2026-05-02T10:33:34.994Z</time></trkpt><trkpt lat="43.3787221" lon="12.56122"><ele>585.0</ele><time>2026-05-02T10:33:35.985Z</time></trkpt><trkpt lat="43.378557" lon="12.5610343"><ele>585.0</ele><time>2026-05-02T10:33:36.989Z</time></trkpt><trkpt lat="43.3783876" lon="12.560855"><ele>585.0</ele><time>2026-05-02T10:33:38Z</time></trkpt><trkpt lat="43.3782027" lon="12.5606984"><ele>570.5</ele><time>2026-05-02T10:33:38.985Z</time></trkpt><trkpt lat="43.3780022" lon="12.5605715"><ele>556.0</ele><time>2026-05-02T10:33:39.989Z</time></trkpt><trkpt lat="43.3777859" lon="12.5604649"><ele>556.0</ele><time>2026-05-02T10:33:40.992Z</time></trkpt><trkpt lat="43.3775659" lon="12.5603812"><ele>556.0</ele><time>2026-05-02T10:33:41.99Z</time></trkpt><trkpt lat="43.3773496" lon="12.5603217"><ele>556.0</ele><time>2026-05-02T10:33:42.991Z</time></trkpt><trkpt lat="43.3771493" lon="12.5602491"><ele>561.0</ele><time>2026-05-02T10:33:43.989Z</time></trkpt><trkpt lat="43.3769547" lon="12.5601567"><ele>566.0</ele><time>2026-05-02T10:33:44.99Z</time></trkpt><trkpt lat="43.3767659" lon="12.5600477"><ele>571.0</ele><time>2026-05-02T10:33:45.985Z</time></trkpt><trkpt lat="43.3765702" lon="12.5599279"><ele>571.0</ele><time>2026-05-02T10:33:46.984Z</time></trkpt><trkpt lat="43.3763707" lon="12.5598023"><ele>571.0</ele><time>2026-05-02T10:33:47.983Z</time></trkpt><trkpt lat="43.3761781" lon="12.5596746"><ele>571.0</ele><time>2026-05-02T10:33:48.988Z</time></trkpt><trkpt lat="43.3759949" lon="12.5595385"><ele>570.3333333333334</ele><time>2026-05-02T10:33:49.982Z</time></trkpt><trkpt lat="43.375812" lon="12.5594232"><ele>569.6666666666666</ele><time>2026-05-02T10:33:50.99Z</time></trkpt><trkpt lat="43.3756169" lon="12.5593187"><ele>569.0</ele><time>2026-05-02T10:33:51.987Z</time></trkpt><trkpt lat="43.3754091" lon="12.5592322"><ele>569.0</ele><time>2026-05-02T10:33:52.986Z</time></trkpt><trkpt lat="43.3752021" lon="12.5591565"><ele>569.0</ele><time>2026-05-02T10:33:53.987Z</time></trkpt><trkpt lat="43.3749929" lon="12.5590911"><ele>569.0</ele><time>2026-05-02T10:33:54.994Z</time></trkpt><trkpt lat="43.3747856" lon="12.5590158"><ele>575.3333333333333</ele><time>2026-05-02T10:33:55.985Z</time></trkpt><trkpt lat="43.3745769" lon="12.5589214"><ele>581.6666666666666</ele><time>2026-05-02T10:33:56.983Z</time></trkpt><trkpt lat="43.3743698" lon="12.5588065"><ele>588.0</ele><time>2026-05-02T10:33:57.99Z</time></trkpt><trkpt lat="43.3741739" lon="12.558694"><ele>588.0</ele><time>2026-05-02T10:33:58.983Z</time></trkpt><trkpt lat="43.3739854" lon="12.558586"><ele>588.0</ele><time>2026-05-02T10:33:59.985Z</time></trkpt><trkpt lat="43.3737886" lon="12.5584766"><ele>588.0</ele><time>2026-05-02T10:34:00.991Z</time></trkpt><trkpt lat="43.3735854" lon="12.5583818"><ele>578.3333333333334</ele><time>2026-05-02T10:34:01.991Z</time></trkpt><trkpt lat="43.3733829" lon="12.5583028"><ele>568.6666666666667</ele><time>2026-05-02T10:34:03.002Z</time></trkpt><trkpt lat="43.3731845" lon="12.5582326"><ele>559.0</ele><time>2026-05-02T10:34:03.985Z</time></trkpt><trkpt lat="43.3729962" lon="12.5581656"><ele>551.6666666666667</ele><time>2026-05-02T10:34:04.994Z</time></trkpt><trkpt lat="43.3728109" lon="12.5581023"><ele>544.3333333333334</ele><time>2026-05-02T10:34:05.987Z</time></trkpt><trkpt lat="43.3726178" lon="12.5580376"><ele>537.0</ele><time>2026-05-02T10:34:06.992Z</time></trkpt><trkpt lat="43.3724212" lon="12.5579773"><ele>537.0</ele><time>2026-05-02T10:34:07.995Z</time></trkpt><trkpt lat="43.3722277" lon="12.5579402"><ele>537.0</ele><time>2026-05-02T10:34:08.991Z</time></trkpt><trkpt lat="43.3720336" lon="12.5579453"><ele>537.0</ele><time>2026-05-02T10:34:09.988Z</time></trkpt><trkpt lat="43.3718397" lon="12.5579733"><ele>532.3333333333334</ele><time>2026-05-02T10:34:10.989Z</time></trkpt><trkpt lat="43.3716592" lon="12.5580014"><ele>527.6666666666667</ele><time>2026-05-02T10:34:11.996Z</time></trkpt><trkpt lat="43.371478" lon="12.5580165"><ele>523.0</ele><time>2026-05-02T10:34:13.007Z</time></trkpt><trkpt lat="43.3712894" lon="12.5580105"><ele>520.6666666666667</ele><time>2026-05-02T10:34:14.004Z</time></trkpt><trkpt lat="43.3710969" lon="12.557964"><ele>518.3333333333334</ele><time>2026-05-02T10:34:15Z</time></trkpt><trkpt lat="43.3709096" lon="12.557909"><ele>516.0</ele><time>2026-05-02T10:34:15.988Z</time></trkpt><trkpt lat="43.3707343" lon="12.5578663"><ele>534.6666666666666</ele><time>2026-05-02T10:34:16.999Z</time></trkpt><trkpt lat="43.3705551" lon="12.5578377"><ele>553.3333333333333</ele><time>2026-05-02T10:34:17.988Z</time></trkpt><trkpt lat="43.3703649" lon="12.5578281"><ele>572.0</ele><time>2026-05-02T10:34:18.98Z</time></trkpt><trkpt lat="43.3701633" lon="12.5578347"><ele>557.3333333333333</ele><time>2026-05-02T10:34:19.991Z</time></trkpt><trkpt lat="43.3699668" lon="12.5578756"><ele>542.6666666666666</ele><time>2026-05-02T10:34:20.987Z</time></trkpt><trkpt lat="43.3697837" lon="12.5579268"><ele>528.0</ele><time>2026-05-02T10:34:21.989Z</time></trkpt><trkpt lat="43.3696071" lon="12.5579678"><ele>528.0</ele><time>2026-05-02T10:34:22.987Z</time></trkpt><trkpt lat="43.3694369" lon="12.5580002"><ele>528.0</ele><time>2026-05-02T10:34:23.986Z</time></trkpt><trkpt lat="43.3692701" lon="12.5579988"><ele>528.0</ele><time>2026-05-02T10:34:24.995Z</time></trkpt><trkpt lat="43.3690937" lon="12.5579802"><ele>528.0</ele><time>2026-05-02T10:34:25.992Z</time></trkpt><trkpt lat="43.3689104" lon="12.5579252"><ele>528.0</ele><time>2026-05-02T10:34:26.986Z</time></trkpt><trkpt lat="43.3687184" lon="12.5578767"><ele>528.0</ele><time>2026-05-02T10:34:27.983Z</time></trkpt><trkpt lat="43.3685315" lon="12.5578413"><ele>523.0</ele><time>2026-05-02T10:34:28.997Z</time></trkpt><trkpt lat="43.3683585" lon="12.5578202"><ele>518.0</ele><time>2026-05-02T10:34:29.986Z</time></trkpt><trkpt lat="43.3681767" lon="12.5578361"><ele>513.0</ele><time>2026-05-02T10:34:30.984Z</time></trkpt><trkpt lat="43.3679866" lon="12.5578719"><ele>513.0</ele><time>2026-05-02T10:34:31.984Z</time></trkpt><trkpt lat="43.3677943" lon="12.5579254"><ele>513.0</ele><time>2026-05-02T10:34:32.993Z</time></trkpt><trkpt lat="43.3676035" lon="12.5579918"><ele>513.0</ele><time>2026-05-02T10:34:33.99Z</time></trkpt><trkpt lat="43.367421" lon="12.5580522"><ele>513.0</ele><time>2026-05-02T10:34:34.984Z</time></trkpt><trkpt lat="43.3672512" lon="12.5580973"><ele>513.0</ele><time>2026-05-02T10:34:35.983Z</time></trkpt><trkpt lat="43.3670849" lon="12.5581366"><ele>513.0</ele><time>2026-05-02T10:34:36.988Z</time></trkpt><trkpt lat="43.366922" lon="12.5581469"><ele>513.6666666666666</ele><time>2026-05-02T10:34:38.003Z</time></trkpt><trkpt lat="43.3667658" lon="12.5581403"><ele>514.3333333333333</ele><time>2026-05-02T10:34:38.99Z</time></trkpt><trkpt lat="43.3666081" lon="12.5581025"><ele>515.0</ele><time>2026-05-02T10:34:39.989Z</time></trkpt><trkpt lat="43.3664501" lon="12.5580419"><ele>516.3333333333333</ele><time>2026-05-02T10:34:40.992Z</time></trkpt><trkpt lat="43.3662863" lon="12.5579574"><ele>517.6666666666666</ele><time>2026-05-02T10:34:41.987Z</time></trkpt><trkpt lat="43.3661257" lon="12.5578453"><ele>519.0</ele><time>2026-05-02T10:34:42.99Z</time></trkpt><trkpt lat="43.3659626" lon="12.557723"><ele>519.0</ele><time>2026-05-02T10:34:43.988Z</time></trkpt><trkpt lat="43.365807" lon="12.5576017"><ele>519.0</ele><time>2026-05-02T10:34:44.986Z</time></trkpt><trkpt lat="43.3656693" lon="12.5574951"><ele>519.0</ele><time>2026-05-02T10:34:45.995Z</time></trkpt><trkpt lat="43.3655381" lon="12.5573861"><ele>516.5</ele><time>2026-05-02T10:34:46.988Z</time></trkpt><trkpt lat="43.3654145" lon="12.5572699"><ele>514.0</ele><time>2026-05-02T10:34:47.983Z</time></trkpt><trkpt lat="43.3652995" lon="12.5571472"><ele>511.5</ele><time>2026-05-02T10:34:48.98Z</time></trkpt><trkpt lat="43.3651962" lon="12.557012"><ele>509.0</ele><time>2026-05-02T10:34:49.992Z</time></trkpt><trkpt lat="43.3651036" lon="12.5568637"><ele>509.0</ele><time>2026-05-02T10:34:50.984Z</time></trkpt><trkpt lat="43.3650116" lon="12.5567133"><ele>509.0</ele><time>2026-05-02T10:34:51.987Z</time></trkpt><trkpt lat="43.3649154" lon="12.5565776"><ele>509.0</ele><time>2026-05-02T10:34:52.992Z</time></trkpt><trkpt lat="43.3648132" lon="12.5564707"><ele>509.0</ele><time>2026-05-02T10:34:53.993Z</time></trkpt><trkpt lat="43.3647084" lon="12.5563821"><ele>505.25</ele><time>2026-05-02T10:34:54.996Z</time></trkpt><trkpt lat="43.3646078" lon="12.5562976"><ele>501.5</ele><time>2026-05-02T10:34:55.991Z</time></trkpt><trkpt lat="43.3645159" lon="12.5562105"><ele>497.75</ele><time>2026-05-02T10:34:56.986Z</time></trkpt><trkpt lat="43.3644241" lon="12.5561164"><ele>494.0</ele><time>2026-05-02T10:34:57.995Z</time></trkpt><trkpt lat="43.3643269" lon="12.5560014"><ele>494.0</ele><time>2026-05-02T10:34:58.994Z</time></trkpt><trkpt lat="43.3642499" lon="12.5558592"><ele>494.0</ele><time>2026-05-02T10:34:59.987Z</time></trkpt><trkpt lat="43.3642028" lon="12.5557138"><ele>494.0</ele><time>2026-05-02T10:35:00.995Z</time></trkpt><trkpt lat="43.3641662" lon="12.5555915"><ele>494.0</ele><time>2026-05-02T10:35:01.999Z</time></trkpt><trkpt lat="43.3641455" lon="12.5554916"><ele>494.0</ele><time>2026-05-02T10:35:02.994Z</time></trkpt><trkpt lat="43.3640971" lon="12.5553642"><ele>493.99999999999994</ele><time>2026-05-02T10:35:04.995Z</time></trkpt><trkpt lat="43.3640367" lon="12.5553104"><ele>494.0</ele><time>2026-05-02T10:35:07.991Z</time></trkpt><trkpt lat="43.3640312" lon="12.555415"><ele>494.0</ele><time>2026-05-02T10:35:11.002Z</time></trkpt><trkpt lat="43.3640756" lon="12.5554881"><ele>494.0</ele><time>2026-05-02T10:35:11.993Z</time></trkpt><trkpt lat="43.3641515" lon="12.5555685"><ele>493.99999999999994</ele><time>2026-05-02T10:35:12.993Z</time></trkpt><trkpt lat="43.3642105" lon="12.5557113"><ele>494.0</ele><time>2026-05-02T10:35:14.009Z</time></trkpt><trkpt lat="43.3642645" lon="12.5558786"><ele>494.0</ele><time>2026-05-02T10:35:14.999Z</time></trkpt><trkpt lat="43.364342" lon="12.5560402"><ele>494.0</ele><time>2026-05-02T10:35:15.999Z</time></trkpt><trkpt lat="43.3644103" lon="12.5561398"><ele>494.0</ele><time>2026-05-02T10:35:16.994Z</time></trkpt><trkpt lat="43.3644635" lon="12.5561951"><ele>494.0</ele><time>2026-05-02T10:35:17.993Z</time></trkpt><trkpt lat="43.3645347" lon="12.5562717"><ele>494.0</ele><time>2026-05-02T10:35:19.994Z</time></trkpt><trkpt lat="43.364631" lon="12.5563661"><ele>497.0</ele><time>2026-05-02T10:35:22.001Z</time></trkpt><trkpt lat="43.3646964" lon="12.5564228"><ele>500.0</ele><time>2026-05-02T10:35:22.996Z</time></trkpt><trkpt lat="43.3647714" lon="12.5564831"><ele>503.0</ele><time>2026-05-02T10:35:23.984Z</time></trkpt><trkpt lat="43.3648509" lon="12.5565469"><ele>506.0</ele><time>2026-05-02T10:35:25.011Z</time></trkpt><trkpt lat="43.3649287" lon="12.5566323"><ele>509.0</ele><time>2026-05-02T10:35:25.999Z</time></trkpt><trkpt lat="43.3650079" lon="12.5567651"><ele>509.0</ele><time>2026-05-02T10:35:26.997Z</time></trkpt><trkpt lat="43.36509" lon="12.5569039"><ele>509.0</ele><time>2026-05-02T10:35:27.987Z</time></trkpt><trkpt lat="43.3651667" lon="12.5570208"><ele>509.0</ele><time>2026-05-02T10:35:28.996Z</time></trkpt><trkpt lat="43.3652343" lon="12.5571104"><ele>509.0</ele><time>2026-05-02T10:35:29.994Z</time></trkpt><trkpt lat="43.3652947" lon="12.5571929"><ele>509.0</ele><time>2026-05-02T10:35:31.007Z</time></trkpt><trkpt lat="43.365346" lon="12.5572649"><ele>506.66666666666663</ele><time>2026-05-02T10:35:31.985Z</time></trkpt><trkpt lat="43.3654043" lon="12.5573764"><ele>504.3333333333333</ele><time>2026-05-02T10:35:33.997Z</time></trkpt><trkpt lat="43.3654557" lon="12.5574484"><ele>502.0</ele><time>2026-05-02T10:35:37.003Z</time></trkpt><trkpt lat="43.3655191" lon="12.5574421"><ele>499.66666666666663</ele><time>2026-05-02T10:38:36.009Z</time></trkpt><trkpt lat="43.3654609" lon="12.5573177"><ele>497.3333333333333</ele><time>2026-05-02T10:38:37.996Z</time></trkpt><trkpt lat="43.3653962" lon="12.5572573"><ele>495.0</ele><time>2026-05-02T10:38:38.99Z</time></trkpt><trkpt lat="43.3653173" lon="12.5571803"><ele>495.0</ele><time>2026-05-02T10:38:39.99Z</time></trkpt><trkpt lat="43.3652254" lon="12.5570602"><ele>495.0</ele><time>2026-05-02T10:38:40.989Z</time></trkpt><trkpt lat="43.3651378" lon="12.5569177"><ele>495.0</ele><time>2026-05-02T10:38:41.992Z</time></trkpt><trkpt lat="43.3650517" lon="12.5567672"><ele>495.0</ele><time>2026-05-02T10:38:42.992Z</time></trkpt><trkpt lat="43.3649587" lon="12.5566255"><ele>493.33333333333337</ele><time>2026-05-02T10:38:43.995Z</time></trkpt><trkpt lat="43.3648469" lon="12.5564973"><ele>491.6666666666667</ele><time>2026-05-02T10:38:44.993Z</time></trkpt><trkpt lat="43.3647128" lon="12.5563761"><ele>490.0</ele><time>2026-05-02T10:38:45.998Z</time></trkpt><trkpt lat="43.3645771" lon="12.5562767"><ele>491.33333333333337</ele><time>2026-05-02T10:38:46.987Z</time></trkpt><trkpt lat="43.3644503" lon="12.5561672"><ele>492.66666666666663</ele><time>2026-05-02T10:38:48.01Z</time></trkpt><trkpt lat="43.3643383" lon="12.556019"><ele>494.0</ele><time>2026-05-02T10:38:48.994Z</time></trkpt><trkpt lat="43.3642471" lon="12.5558429"><ele>494.0</ele><time>2026-05-02T10:38:50.003Z</time></trkpt><trkpt lat="43.3641711" lon="12.5556523"><ele>494.0</ele><time>2026-05-02T10:38:50.999Z</time></trkpt><trkpt lat="43.3641019" lon="12.5554704"><ele>494.0</ele><time>2026-05-02T10:38:52.004Z</time></trkpt><trkpt lat="43.3640371" lon="12.5552863"><ele>495.25</ele><time>2026-05-02T10:38:53.002Z</time></trkpt><trkpt lat="43.3639664" lon="12.555128"><ele>496.5</ele><time>2026-05-02T10:38:54.015Z</time></trkpt><trkpt lat="43.3638833" lon="12.554973"><ele>497.75</ele><time>2026-05-02T10:38:55.004Z</time></trkpt><trkpt lat="43.3637651" lon="12.55482"><ele>499.0</ele><time>2026-05-02T10:38:55.999Z</time></trkpt><trkpt lat="43.363623" lon="12.5546819"><ele>494.0</ele><time>2026-05-02T10:38:57Z</time></trkpt><trkpt lat="43.3634595" lon="12.5545504"><ele>489.0</ele><time>2026-05-02T10:38:58Z</time></trkpt><trkpt lat="43.3632949" lon="12.5544204"><ele>484.0</ele><time>2026-05-02T10:38:58.994Z</time></trkpt><trkpt lat="43.3631461" lon="12.5543131"><ele>482.6666666666667</ele><time>2026-05-02T10:39:00.004Z</time></trkpt><trkpt lat="43.3630043" lon="12.5542045"><ele>481.33333333333337</ele><time>2026-05-02T10:39:00.995Z</time></trkpt><trkpt lat="43.3628735" lon="12.554103"><ele>480.0</ele><time>2026-05-02T10:39:01.997Z</time></trkpt><trkpt lat="43.3627495" lon="12.5540028"><ele>480.0</ele><time>2026-05-02T10:39:02.986Z</time></trkpt><trkpt lat="43.3626373" lon="12.5539151"><ele>480.0</ele><time>2026-05-02T10:39:04.001Z</time></trkpt><trkpt lat="43.3625301" lon="12.5538306"><ele>480.0</ele><time>2026-05-02T10:39:04.998Z</time></trkpt><trkpt lat="43.3624285" lon="12.5537543"><ele>480.0</ele><time>2026-05-02T10:39:05.986Z</time></trkpt><trkpt lat="43.3623286" lon="12.5536781"><ele>479.2</ele><time>2026-05-02T10:39:06.995Z</time></trkpt><trkpt lat="43.3622447" lon="12.5536042"><ele>478.4</ele><time>2026-05-02T10:39:07.992Z</time></trkpt><trkpt lat="43.3621888" lon="12.5535446"><ele>477.6</ele><time>2026-05-02T10:39:08.996Z</time></trkpt><trkpt lat="43.3621172" lon="12.5533966"><ele>476.8</ele><time>2026-05-02T10:39:10.995Z</time></trkpt><trkpt lat="43.3620825" lon="12.5532881"><ele>476.0</ele><time>2026-05-02T10:39:11.988Z</time></trkpt><trkpt lat="43.3620395" lon="12.553166"><ele>476.0</ele><time>2026-05-02T10:39:13.003Z</time></trkpt><trkpt lat="43.3619804" lon="12.5530543"><ele>476.0</ele><time>2026-05-02T10:39:14.004Z</time></trkpt><trkpt lat="43.3619079" lon="12.5529544"><ele>476.0</ele><time>2026-05-02T10:39:15.005Z</time></trkpt><trkpt lat="43.3618232" lon="12.5528914"><ele>476.0</ele><time>2026-05-02T10:39:15.995Z</time></trkpt><trkpt lat="43.3617235" lon="12.5528737"><ele>476.0</ele><time>2026-05-02T10:39:16.992Z</time></trkpt><trkpt lat="43.3616212" lon="12.5528814"><ele>476.0</ele><time>2026-05-02T10:39:17.994Z</time></trkpt><trkpt lat="43.3615248" lon="12.5529194"><ele>476.0</ele><time>2026-05-02T10:39:18.999Z</time></trkpt><trkpt lat="43.3614389" lon="12.5529894"><ele>476.0</ele><time>2026-05-02T10:39:19.998Z</time></trkpt><trkpt lat="43.3613711" lon="12.5530939"><ele>476.0</ele><time>2026-05-02T10:39:20.993Z</time></trkpt><trkpt lat="43.36133" lon="12.5532145"><ele>476.0</ele><time>2026-05-02T10:39:22.002Z</time></trkpt><trkpt lat="43.3613177" lon="12.5533503"><ele>475.5</ele><time>2026-05-02T10:39:22.99Z</time></trkpt><trkpt lat="43.361327" lon="12.5534961"><ele>475.0</ele><time>2026-05-02T10:39:24.002Z</time></trkpt><trkpt lat="43.3613635" lon="12.5536534"><ele>474.5</ele><time>2026-05-02T10:39:24.995Z</time></trkpt><trkpt lat="43.361421" lon="12.5538118"><ele>474.0</ele><time>2026-05-02T10:39:25.997Z</time></trkpt><trkpt lat="43.3614753" lon="12.5539604"><ele>474.8333333333333</ele><time>2026-05-02T10:39:26.998Z</time></trkpt><trkpt lat="43.3614892" lon="12.5540945"><ele>475.66666666666663</ele><time>2026-05-02T10:39:28Z</time></trkpt><trkpt lat="43.3614752" lon="12.5542243"><ele>476.5</ele><time>2026-05-02T10:39:29.009Z</time></trkpt><trkpt lat="43.361457" lon="12.5543465"><ele>477.3333333333333</ele><time>2026-05-02T10:39:30.01Z</time></trkpt><trkpt lat="43.3614317" lon="12.5544471"><ele>478.16666666666663</ele><time>2026-05-02T10:39:31.009Z</time></trkpt><trkpt lat="43.3614019" lon="12.5545374"><ele>479.0</ele><time>2026-05-02T10:39:31.996Z</time></trkpt><trkpt lat="43.3613621" lon="12.5546238"><ele>479.16666666666663</ele><time>2026-05-02T10:39:33Z</time></trkpt><trkpt lat="43.3613176" lon="12.5546939"><ele>479.3333333333333</ele><time>2026-05-02T10:39:34Z</time></trkpt><trkpt lat="43.3612469" lon="12.5547453"><ele>479.5</ele><time>2026-05-02T10:39:35.007Z</time></trkpt><trkpt lat="43.3611616" lon="12.5547832"><ele>479.66666666666663</ele><time>2026-05-02T10:39:35.999Z</time></trkpt><trkpt lat="43.3610745" lon="12.5548134"><ele>479.8333333333333</ele><time>2026-05-02T10:39:36.995Z</time></trkpt><trkpt lat="43.3609936" lon="12.5548675"><ele>480.0</ele><time>2026-05-02T10:39:37.998Z</time></trkpt><trkpt lat="43.360922" lon="12.5549616"><ele>480.0</ele><time>2026-05-02T10:39:39.003Z</time></trkpt><trkpt lat="43.3608673" lon="12.5550884"><ele>480.0</ele><time>2026-05-02T10:39:39.999Z</time></trkpt><trkpt lat="43.3608217" lon="12.5552259"><ele>480.0</ele><time>2026-05-02T10:39:41.003Z</time></trkpt><trkpt lat="43.3607747" lon="12.5553797"><ele>480.0</ele><time>2026-05-02T10:39:42.004Z</time></trkpt><trkpt lat="43.3607174" lon="12.5555382"><ele>480.25</ele><time>2026-05-02T10:39:43.003Z</time></trkpt><trkpt lat="43.3606686" lon="12.5556938"><ele>480.5</ele><time>2026-05-02T10:39:43.999Z</time></trkpt><trkpt lat="43.3606158" lon="12.5558429"><ele>480.75</ele><time>2026-05-02T10:39:45.003Z</time></trkpt><trkpt lat="43.3605482" lon="12.5559946"><ele>481.0</ele><time>2026-05-02T10:39:46Z</time></trkpt><trkpt lat="43.3604739" lon="12.5561425"><ele>480.0</ele><time>2026-05-02T10:39:46.99Z</time></trkpt><trkpt lat="43.3604041" lon="12.5562733"><ele>479.0</ele><time>2026-05-02T10:39:47.995Z</time></trkpt><trkpt lat="43.3603425" lon="12.5563898"><ele>478.0</ele><time>2026-05-02T10:39:49.001Z</time></trkpt><trkpt lat="43.3602872" lon="12.5564878"><ele>477.0</ele><time>2026-05-02T10:39:50.003Z</time></trkpt><trkpt lat="43.3602335" lon="12.5565806"><ele>476.0</ele><time>2026-05-02T10:39:51.002Z</time></trkpt><trkpt lat="43.3601856" lon="12.556668"><ele>476.0</ele><time>2026-05-02T10:39:52.001Z</time></trkpt><trkpt lat="43.3601424" lon="12.5567514"><ele>476.0</ele><time>2026-05-02T10:39:52.994Z</time></trkpt><trkpt lat="43.3600954" lon="12.5568303"><ele>476.0</ele><time>2026-05-02T10:39:54Z</time></trkpt><trkpt lat="43.3600298" lon="12.5569325"><ele>476.0</ele><time>2026-05-02T10:39:54.983Z</time></trkpt><trkpt lat="43.3599504" lon="12.5570676"><ele>476.0</ele><time>2026-05-02T10:39:55.986Z</time></trkpt><trkpt lat="43.3598558" lon="12.5572199"><ele>476.5</ele><time>2026-05-02T10:39:56.988Z</time></trkpt><trkpt lat="43.3597571" lon="12.557382"><ele>477.0</ele><time>2026-05-02T10:39:58.009Z</time></trkpt><trkpt lat="43.359661" lon="12.5575301"><ele>477.5</ele><time>2026-05-02T10:39:59.001Z</time></trkpt><trkpt lat="43.3595627" lon="12.5576614"><ele>478.0</ele><time>2026-05-02T10:39:59.98Z</time></trkpt><trkpt lat="43.3594813" lon="12.5577885"><ele>477.75</ele><time>2026-05-02T10:40:00.998Z</time></trkpt><trkpt lat="43.3593996" lon="12.557909"><ele>477.5</ele><time>2026-05-02T10:40:01.98Z</time></trkpt><trkpt lat="43.359322" lon="12.5580273"><ele>477.25</ele><time>2026-05-02T10:40:02.99Z</time></trkpt><trkpt lat="43.3592417" lon="12.5581488"><ele>477.0</ele><time>2026-05-02T10:40:03.995Z</time></trkpt><trkpt lat="43.3591539" lon="12.5582716"><ele>477.0</ele><time>2026-05-02T10:40:04.98Z</time></trkpt><trkpt lat="43.3590643" lon="12.558393"><ele>477.0</ele><time>2026-05-02T10:40:05.99Z</time></trkpt><trkpt lat="43.3589775" lon="12.5585332"><ele>477.0</ele><time>2026-05-02T10:40:06.975Z</time></trkpt><trkpt lat="43.358889" lon="12.5586763"><ele>477.0</ele><time>2026-05-02T10:40:08.01Z</time></trkpt><trkpt lat="43.3588004" lon="12.5588191"><ele>477.0</ele><time>2026-05-02T10:40:09.004Z</time></trkpt><trkpt lat="43.3587172" lon="12.5589589"><ele>477.0</ele><time>2026-05-02T10:40:10.007Z</time></trkpt><trkpt lat="43.358647" lon="12.5590893"><ele>477.0</ele><time>2026-05-02T10:40:11.008Z</time></trkpt><trkpt lat="43.3585808" lon="12.5592112"><ele>477.0</ele><time>2026-05-02T10:40:11.988Z</time></trkpt><trkpt lat="43.3585186" lon="12.559326"><ele>477.0</ele><time>2026-05-02T10:40:12.995Z</time></trkpt><trkpt lat="43.3584552" lon="12.5594315"><ele>477.00000000000006</ele><time>2026-05-02T10:40:14.001Z</time></trkpt><trkpt lat="43.3583922" lon="12.5595435"><ele>477.00000000000006</ele><time>2026-05-02T10:40:14.989Z</time></trkpt><trkpt lat="43.3583289" lon="12.5596533"><ele>477.0</ele><time>2026-05-02T10:40:15.981Z</time></trkpt><trkpt lat="43.3582702" lon="12.5597493"><ele>477.0</ele><time>2026-05-02T10:40:16.985Z</time></trkpt><trkpt lat="43.3582191" lon="12.5598427"><ele>476.8</ele><time>2026-05-02T10:40:17.989Z</time></trkpt><trkpt lat="43.3581652" lon="12.5599315"><ele>476.6</ele><time>2026-05-02T10:40:18.985Z</time></trkpt><trkpt lat="43.358104" lon="12.5600309"><ele>476.40000000000003</ele><time>2026-05-02T10:40:19.993Z</time></trkpt><trkpt lat="43.3580414" lon="12.5601335"><ele>476.20000000000005</ele><time>2026-05-02T10:40:21Z</time></trkpt><trkpt lat="43.3579809" lon="12.5602463"><ele>476.0</ele><time>2026-05-02T10:40:21.998Z</time></trkpt><trkpt lat="43.3579053" lon="12.5603666"><ele>476.75</ele><time>2026-05-02T10:40:22.998Z</time></trkpt><trkpt lat="43.3578275" lon="12.5604966"><ele>477.5</ele><time>2026-05-02T10:40:23.994Z</time></trkpt><trkpt lat="43.3577483" lon="12.56063"><ele>478.25</ele><time>2026-05-02T10:40:24.992Z</time></trkpt><trkpt lat="43.3576623" lon="12.5607663"><ele>479.0</ele><time>2026-05-02T10:40:25.999Z</time></trkpt><trkpt lat="43.3575679" lon="12.5609067"><ele>479.0</ele><time>2026-05-02T10:40:26.992Z</time></trkpt><trkpt lat="43.3574693" lon="12.5610514"><ele>479.0</ele><time>2026-05-02T10:40:27.989Z</time></trkpt><trkpt lat="43.3573708" lon="12.5612006"><ele>479.0</ele><time>2026-05-02T10:40:28.99Z</time></trkpt><trkpt lat="43.3572748" lon="12.5613407"><ele>479.0</ele><time>2026-05-02T10:40:30.003Z</time></trkpt><trkpt lat="43.3571903" lon="12.561472"><ele>478.0</ele><time>2026-05-02T10:40:30.994Z</time></trkpt><trkpt lat="43.3571142" lon="12.5615898"><ele>477.0</ele><time>2026-05-02T10:40:31.995Z</time></trkpt><trkpt lat="43.3570344" lon="12.5617046"><ele>476.0</ele><time>2026-05-02T10:40:32.998Z</time></trkpt><trkpt lat="43.3569498" lon="12.5618206"><ele>475.0</ele><time>2026-05-02T10:40:33.994Z</time></trkpt><trkpt lat="43.3568715" lon="12.5619365"><ele>475.4</ele><time>2026-05-02T10:40:34.993Z</time></trkpt><trkpt lat="43.3567922" lon="12.5620455"><ele>475.8</ele><time>2026-05-02T10:40:36.004Z</time></trkpt><trkpt lat="43.3567133" lon="12.5621518"><ele>476.20000000000005</ele><time>2026-05-02T10:40:36.99Z</time></trkpt><trkpt lat="43.3566425" lon="12.5622636"><ele>476.6</ele><time>2026-05-02T10:40:37.992Z</time></trkpt><trkpt lat="43.3565703" lon="12.5623711"><ele>477.0</ele><time>2026-05-02T10:40:39.002Z</time></trkpt><trkpt lat="43.3564893" lon="12.5624781"><ele>477.0</ele><time>2026-05-02T10:40:40.003Z</time></trkpt><trkpt lat="43.3564074" lon="12.5625742"><ele>477.00000000000006</ele><time>2026-05-02T10:40:40.994Z</time></trkpt><trkpt lat="43.3563294" lon="12.5626751"><ele>477.00000000000006</ele><time>2026-05-02T10:40:41.988Z</time></trkpt><trkpt lat="43.3562469" lon="12.5627743"><ele>477.0</ele><time>2026-05-02T10:40:42.999Z</time></trkpt><trkpt lat="43.3561733" lon="12.5628676"><ele>477.0</ele><time>2026-05-02T10:40:43.993Z</time></trkpt><trkpt lat="43.3561005" lon="12.5629628"><ele>476.8</ele><time>2026-05-02T10:40:45.005Z</time></trkpt><trkpt lat="43.3560218" lon="12.5630565"><ele>476.6</ele><time>2026-05-02T10:40:45.993Z</time></trkpt><trkpt lat="43.3559443" lon="12.5631535"><ele>476.40000000000003</ele><time>2026-05-02T10:40:46.995Z</time></trkpt><trkpt lat="43.3558651" lon="12.5632417"><ele>476.20000000000005</ele><time>2026-05-02T10:40:48.002Z</time></trkpt><trkpt lat="43.355785" lon="12.5633338"><ele>476.0</ele><time>2026-05-02T10:40:48.998Z</time></trkpt><trkpt lat="43.3557008" lon="12.5634272"><ele>476.0</ele><time>2026-05-02T10:40:50.01Z</time></trkpt><trkpt lat="43.3556146" lon="12.563514"><ele>476.0</ele><time>2026-05-02T10:40:50.994Z</time></trkpt><trkpt lat="43.3555345" lon="12.5636044"><ele>476.0</ele><time>2026-05-02T10:40:52.005Z</time></trkpt><trkpt lat="43.3554589" lon="12.5636944"><ele>476.0</ele><time>2026-05-02T10:40:52.992Z</time></trkpt><trkpt lat="43.355384" lon="12.5637778"><ele>476.0</ele><time>2026-05-02T10:40:53.998Z</time></trkpt><trkpt lat="43.3553096" lon="12.5638442"><ele>475.6</ele><time>2026-05-02T10:40:55.012Z</time></trkpt><trkpt lat="43.3552297" lon="12.5639133"><ele>475.20000000000005</ele><time>2026-05-02T10:40:56.002Z</time></trkpt><trkpt lat="43.3551598" lon="12.5639963"><ele>474.79999999999995</ele><time>2026-05-02T10:40:56.995Z</time></trkpt><trkpt lat="43.3550966" lon="12.5640945"><ele>474.4</ele><time>2026-05-02T10:40:57.998Z</time></trkpt><trkpt lat="43.3550351" lon="12.5641912"><ele>474.0</ele><time>2026-05-02T10:40:59.001Z</time></trkpt><trkpt lat="43.3549813" lon="12.5642755"><ele>474.0</ele><time>2026-05-02T10:40:59.994Z</time></trkpt><trkpt lat="43.3549257" lon="12.5643471"><ele>474.0</ele><time>2026-05-02T10:41:00.991Z</time></trkpt><trkpt lat="43.3548788" lon="12.564406"><ele>474.0</ele><time>2026-05-02T10:41:01.995Z</time></trkpt><trkpt lat="43.3548282" lon="12.5644604"><ele>474.0</ele><time>2026-05-02T10:41:02.994Z</time></trkpt><trkpt lat="43.3547772" lon="12.5645143"><ele>474.0</ele><time>2026-05-02T10:41:04.004Z</time></trkpt><trkpt lat="43.3546866" lon="12.56462"><ele>474.0</ele><time>2026-05-02T10:41:06Z</time></trkpt><trkpt lat="43.3546365" lon="12.5646769"><ele>474.6666666666667</ele><time>2026-05-02T10:41:07.008Z</time></trkpt><trkpt lat="43.3545455" lon="12.5647864"><ele>475.33333333333337</ele><time>2026-05-02T10:41:09.005Z</time></trkpt><trkpt lat="43.354497" lon="12.5648426"><ele>476.0</ele><time>2026-05-02T10:41:10Z</time></trkpt><trkpt lat="43.3544411" lon="12.5648953"><ele>476.6666666666667</ele><time>2026-05-02T10:41:10.991Z</time></trkpt><trkpt lat="43.3543835" lon="12.5649622"><ele>477.33333333333337</ele><time>2026-05-02T10:41:11.994Z</time></trkpt><trkpt lat="43.3543207" lon="12.565031"><ele>478.0</ele><time>2026-05-02T10:41:12.997Z</time></trkpt><trkpt lat="43.3542571" lon="12.5651086"><ele>478.00000000000006</ele><time>2026-05-02T10:41:13.994Z</time></trkpt><trkpt lat="43.3541933" lon="12.5651829"><ele>478.0</ele><time>2026-05-02T10:41:14.994Z</time></trkpt><trkpt lat="43.354134" lon="12.5652479"><ele>478.0</ele><time>2026-05-02T10:41:16.002Z</time></trkpt><trkpt lat="43.3540689" lon="12.565314"><ele>478.0</ele><time>2026-05-02T10:41:17Z</time></trkpt><trkpt lat="43.3540068" lon="12.5653832"><ele>478.00000000000006</ele><time>2026-05-02T10:41:17.983Z</time></trkpt><trkpt lat="43.3539476" lon="12.5654525"><ele>478.0</ele><time>2026-05-02T10:41:18.984Z</time></trkpt><trkpt lat="43.3538916" lon="12.5655162"><ele>478.1428571428572</ele><time>2026-05-02T10:41:20Z</time></trkpt><trkpt lat="43.3538329" lon="12.5655773"><ele>478.28571428571433</ele><time>2026-05-02T10:41:21.002Z</time></trkpt><trkpt lat="43.353779" lon="12.5656343"><ele>478.42857142857144</ele><time>2026-05-02T10:41:21.995Z</time></trkpt><trkpt lat="43.3537272" lon="12.5656932"><ele>478.5714285714286</ele><time>2026-05-02T10:41:22.993Z</time></trkpt><trkpt lat="43.3536708" lon="12.5657563"><ele>478.7142857142858</ele><time>2026-05-02T10:41:23.999Z</time></trkpt><trkpt lat="43.3536148" lon="12.5658214"><ele>478.85714285714283</ele><time>2026-05-02T10:41:24.993Z</time></trkpt><trkpt lat="43.35356" lon="12.5658848"><ele>479.0</ele><time>2026-05-02T10:41:25.998Z</time></trkpt><trkpt lat="43.3535041" lon="12.5659436"><ele>478.99999999999994</ele><time>2026-05-02T10:41:26.993Z</time></trkpt><trkpt lat="43.3534511" lon="12.5659975"><ele>479.0</ele><time>2026-05-02T10:41:27.998Z</time></trkpt><trkpt lat="43.3533985" lon="12.566054"><ele>479.0</ele><time>2026-05-02T10:41:28.997Z</time></trkpt><trkpt lat="43.3533483" lon="12.5661091"><ele>479.0</ele><time>2026-05-02T10:41:29.998Z</time></trkpt><trkpt lat="43.3532748" lon="12.5661948"><ele>478.99999999999994</ele><time>2026-05-02T10:41:32Z</time></trkpt><trkpt lat="43.3532201" lon="12.5662648"><ele>479.0</ele><time>2026-05-02T10:41:34.003Z</time></trkpt><trkpt lat="43.3531489" lon="12.5663305"><ele>479.0</ele><time>2026-05-02T10:41:36.002Z</time></trkpt><trkpt lat="43.3530559" lon="12.5664201"><ele>479.0</ele><time>2026-05-02T10:41:38Z</time></trkpt><trkpt lat="43.352973" lon="12.5665271"><ele>479.0</ele><time>2026-05-02T10:41:40.013Z</time></trkpt><trkpt lat="43.3528933" lon="12.5666207"><ele>479.0</ele><time>2026-05-02T10:41:41.991Z</time></trkpt><trkpt lat="43.352829" lon="12.5667084"><ele>479.0</ele><time>2026-05-02T10:41:43.993Z</time></trkpt><trkpt lat="43.352771" lon="12.5667946"><ele>478.99999999999994</ele><time>2026-05-02T10:41:45.991Z</time></trkpt><trkpt lat="43.352707" lon="12.5668794"><ele>479.0</ele><time>2026-05-02T10:41:48.001Z</time></trkpt><trkpt lat="43.3526499" lon="12.5669632"><ele>479.0</ele><time>2026-05-02T10:41:49.999Z</time></trkpt><trkpt lat="43.3525907" lon="12.5670388"><ele>479.0</ele><time>2026-05-02T10:41:52.001Z</time></trkpt><trkpt lat="43.3525231" lon="12.5671178"><ele>478.99999999999994</ele><time>2026-05-02T10:41:54.001Z</time></trkpt><trkpt lat="43.3524501" lon="12.5672161"><ele>479.0</ele><time>2026-05-02T10:41:56.01Z</time></trkpt><trkpt lat="43.3523528" lon="12.5673245"><ele>479.2</ele><time>2026-05-02T10:41:58.007Z</time></trkpt><trkpt lat="43.3522956" lon="12.56739"><ele>479.4</ele><time>2026-05-02T10:41:58.988Z</time></trkpt><trkpt lat="43.3522251" lon="12.5674712"><ele>479.6</ele><time>2026-05-02T10:41:59.991Z</time></trkpt><trkpt lat="43.3521573" lon="12.5675574"><ele>479.8</ele><time>2026-05-02T10:42:00.998Z</time></trkpt><trkpt lat="43.352089" lon="12.5676432"><ele>480.0</ele><time>2026-05-02T10:42:02.007Z</time></trkpt><trkpt lat="43.3520164" lon="12.5677444"><ele>480.0</ele><time>2026-05-02T10:42:02.992Z</time></trkpt><trkpt lat="43.351936" lon="12.5678463"><ele>480.0</ele><time>2026-05-02T10:42:03.997Z</time></trkpt><trkpt lat="43.3518542" lon="12.5679472"><ele>480.0</ele><time>2026-05-02T10:42:04.995Z</time></trkpt><trkpt lat="43.3517702" lon="12.5680436"><ele>480.0</ele><time>2026-05-02T10:42:05.992Z</time></trkpt><trkpt lat="43.3516891" lon="12.5681372"><ele>480.0</ele><time>2026-05-02T10:42:07Z</time></trkpt><trkpt lat="43.3516142" lon="12.5682347"><ele>480.2</ele><time>2026-05-02T10:42:08.006Z</time></trkpt><trkpt lat="43.351539" lon="12.5683285"><ele>480.4</ele><time>2026-05-02T10:42:09.004Z</time></trkpt><trkpt lat="43.3514583" lon="12.5684346"><ele>480.6</ele><time>2026-05-02T10:42:09.993Z</time></trkpt><trkpt lat="43.3513701" lon="12.5685475"><ele>480.8</ele><time>2026-05-02T10:42:10.994Z</time></trkpt><trkpt lat="43.3512851" lon="12.5686438"><ele>481.0</ele><time>2026-05-02T10:42:12.012Z</time></trkpt><trkpt lat="43.3512036" lon="12.5687384"><ele>481.00000000000006</ele><time>2026-05-02T10:42:12.999Z</time></trkpt><trkpt lat="43.3511304" lon="12.5688257"><ele>481.0</ele><time>2026-05-02T10:42:13.993Z</time></trkpt><trkpt lat="43.3510551" lon="12.56891"><ele>481.0</ele><time>2026-05-02T10:42:14.988Z</time></trkpt><trkpt lat="43.3509874" lon="12.5689904"><ele>481.0</ele><time>2026-05-02T10:42:16.003Z</time></trkpt><trkpt lat="43.350924" lon="12.5690527"><ele>481.00000000000006</ele><time>2026-05-02T10:42:16.992Z</time></trkpt><trkpt lat="43.3508672" lon="12.5691114"><ele>481.0</ele><time>2026-05-02T10:42:17.993Z</time></trkpt><trkpt lat="43.3507777" lon="12.5692085"><ele>481.0</ele><time>2026-05-02T10:42:20.026Z</time></trkpt><trkpt lat="43.3507047" lon="12.5693086"><ele>481.0</ele><time>2026-05-02T10:42:21.988Z</time></trkpt><trkpt lat="43.3506482" lon="12.5693793"><ele>481.0</ele><time>2026-05-02T10:42:23.996Z</time></trkpt><trkpt lat="43.3505914" lon="12.5694395"><ele>481.0</ele><time>2026-05-02T10:42:26.997Z</time></trkpt><trkpt lat="43.3504958" lon="12.5694675"><ele>481.0</ele><time>2026-05-02T10:42:28.996Z</time></trkpt><trkpt lat="43.3503793" lon="12.5693805"><ele>481.00000000000006</ele><time>2026-05-02T10:42:31.005Z</time></trkpt><trkpt lat="43.350312" lon="12.5693178"><ele>481.0</ele><time>2026-05-02T10:42:31.993Z</time></trkpt><trkpt lat="43.3502358" lon="12.5692469"><ele>481.0</ele><time>2026-05-02T10:42:33.004Z</time></trkpt><trkpt lat="43.3501572" lon="12.5691758"><ele>481.0</ele><time>2026-05-02T10:42:33.991Z</time></trkpt><trkpt lat="43.3500828" lon="12.5691095"><ele>481.00000000000006</ele><time>2026-05-02T10:42:34.992Z</time></trkpt><trkpt lat="43.350023" lon="12.5690526"><ele>481.0</ele><time>2026-05-02T10:42:35.996Z</time></trkpt><trkpt lat="43.3499691" lon="12.5690008"><ele>481.0</ele><time>2026-05-02T10:42:37Z</time></trkpt><trkpt lat="43.3498937" lon="12.5689385"><ele>481.0</ele><time>2026-05-02T10:42:38.002Z</time></trkpt><trkpt lat="43.3497989" lon="12.568863"><ele>481.0</ele><time>2026-05-02T10:42:39Z</time></trkpt><trkpt lat="43.3496971" lon="12.5687743"><ele>481.0</ele><time>2026-05-02T10:42:39.996Z</time></trkpt><trkpt lat="43.3495989" lon="12.5686826"><ele>481.0</ele><time>2026-05-02T10:42:40.999Z</time></trkpt><trkpt lat="43.3495026" lon="12.5686013"><ele>480.6666666666667</ele><time>2026-05-02T10:42:41.996Z</time></trkpt><trkpt lat="43.3494097" lon="12.5685187"><ele>480.33333333333337</ele><time>2026-05-02T10:42:43.007Z</time></trkpt><trkpt lat="43.3493296" lon="12.5684422"><ele>480.0</ele><time>2026-05-02T10:42:44.003Z</time></trkpt><trkpt lat="43.349255" lon="12.5683763"><ele>479.66666666666663</ele><time>2026-05-02T10:42:44.992Z</time></trkpt><trkpt lat="43.3491881" lon="12.5683164"><ele>479.3333333333333</ele><time>2026-05-02T10:42:45.992Z</time></trkpt><trkpt lat="43.3491309" lon="12.568266"><ele>479.0</ele><time>2026-05-02T10:42:46.994Z</time></trkpt><trkpt lat="43.3490203" lon="12.5682228"><ele>479.0</ele><time>2026-05-02T10:42:48.991Z</time></trkpt><trkpt lat="43.348952" lon="12.5683152"><ele>479.0</ele><time>2026-05-02T10:42:50.995Z</time></trkpt><trkpt lat="43.3489341" lon="12.5684134"><ele>479.0</ele><time>2026-05-02T10:42:51.997Z</time></trkpt><trkpt lat="43.3489071" lon="12.5685319"><ele>479.0</ele><time>2026-05-02T10:42:53Z</time></trkpt><trkpt lat="43.3488665" lon="12.5686696"><ele>479.0</ele><time>2026-05-02T10:42:53.992Z</time></trkpt><trkpt lat="43.3488015" lon="12.5688384"><ele>478.75</ele><time>2026-05-02T10:42:54.992Z</time></trkpt><trkpt lat="43.3487312" lon="12.5690275"><ele>478.5</ele><time>2026-05-02T10:42:56.004Z</time></trkpt><trkpt lat="43.3486629" lon="12.56921"><ele>478.25</ele><time>2026-05-02T10:42:56.994Z</time></trkpt><trkpt lat="43.3485963" lon="12.5693799"><ele>478.0</ele><time>2026-05-02T10:42:58.009Z</time></trkpt><trkpt lat="43.3485294" lon="12.569548"><ele>478.0</ele><time>2026-05-02T10:42:58.998Z</time></trkpt><trkpt lat="43.3484701" lon="12.569716"><ele>478.0</ele><time>2026-05-02T10:42:59.988Z</time></trkpt><trkpt lat="43.3484052" lon="12.5698808"><ele>478.0</ele><time>2026-05-02T10:43:00.989Z</time></trkpt><trkpt lat="43.3483384" lon="12.5700372"><ele>478.0</ele><time>2026-05-02T10:43:01.998Z</time></trkpt><trkpt lat="43.3482729" lon="12.5701943"><ele>478.0</ele><time>2026-05-02T10:43:02.99Z</time></trkpt><trkpt lat="43.3482076" lon="12.5703495"><ele>478.0</ele><time>2026-05-02T10:43:04.002Z</time></trkpt><trkpt lat="43.3481439" lon="12.5704914"><ele>478.0</ele><time>2026-05-02T10:43:05.007Z</time></trkpt><trkpt lat="43.3480903" lon="12.5706275"><ele>478.0</ele><time>2026-05-02T10:43:05.996Z</time></trkpt><trkpt lat="43.3480366" lon="12.5707649"><ele>478.2</ele><time>2026-05-02T10:43:06.994Z</time></trkpt><trkpt lat="43.3479807" lon="12.5708956"><ele>478.4</ele><time>2026-05-02T10:43:07.991Z</time></trkpt><trkpt lat="43.3479205" lon="12.5710284"><ele>478.59999999999997</ele><time>2026-05-02T10:43:08.997Z</time></trkpt><trkpt lat="43.3478605" lon="12.5711571"><ele>478.79999999999995</ele><time>2026-05-02T10:43:09.996Z</time></trkpt><trkpt lat="43.3478013" lon="12.57129"><ele>479.0</ele><time>2026-05-02T10:43:10.993Z</time></trkpt><trkpt lat="43.3495989" lon="12.5686826"><ele>479.0</ele><time>2026-05-02T10:42:40.999Z</time></trkpt><trkpt lat="43.3495026" lon="12.5686013"><ele>479.0</ele><time>2026-05-02T10:42:41.996Z</time></trkpt><trkpt lat="43.3494097" lon="12.5685187"><ele>479.0</ele><time>2026-05-02T10:42:43.007Z</time></trkpt><trkpt lat="43.3493296" lon="12.5684422"><ele>479.0</ele><time>2026-05-02T10:42:44.003Z</time></trkpt><trkpt lat="43.349255" lon="12.5683763"><ele>479.0</ele><time>2026-05-02T10:42:44.992Z</time></trkpt><trkpt lat="43.3491881" lon="12.5683164"><ele>478.99999999999994</ele><time>2026-05-02T10:42:45.992Z</time></trkpt><trkpt lat="43.3491309" lon="12.568266"><ele>479.0</ele><time>2026-05-02T10:42:46.994Z</time></trkpt><trkpt lat="43.3490203" lon="12.5682228"><ele>479.0</ele><time>2026-05-02T10:42:48.991Z</time></trkpt><trkpt lat="43.348952" lon="12.5683152"><ele>479.0</ele><time>2026-05-02T10:42:50.995Z</time></trkpt><trkpt lat="43.3489341" lon="12.5684134"><ele>478.99999999999994</ele><time>2026-05-02T10:42:51.997Z</time></trkpt><trkpt lat="43.3489071" lon="12.5685319"><ele>479.0</ele><time>2026-05-02T10:42:53Z</time></trkpt><trkpt lat="43.3488665" lon="12.5686696"><ele>478.75</ele><time>2026-05-02T10:42:53.992Z</time></trkpt><trkpt lat="43.3488015" lon="12.5688384"><ele>478.5</ele><time>2026-05-02T10:42:54.992Z</time></trkpt><trkpt lat="43.3487312" lon="12.5690275"><ele>478.25</ele><time>2026-05-02T10:42:56.004Z</time></trkpt><trkpt lat="43.3486629" lon="12.56921"><ele>478.0</ele><time>2026-05-02T10:42:56.994Z</time></trkpt><trkpt lat="43.3485963" lon="12.5693799"><ele>478.0</ele><time>2026-05-02T10:42:58.009Z</time></trkpt><trkpt lat="43.3485294" lon="12.569548"><ele>478.0</ele><time>2026-05-02T10:42:58.998Z</time></trkpt><trkpt lat="43.3484701" lon="12.569716"><ele>478.0</ele><time>2026-05-02T10:42:59.988Z</time></trkpt><trkpt lat="43.3484052" lon="12.5698808"><ele>478.0</ele><time>2026-05-02T10:43:00.989Z</time></trkpt><trkpt lat="43.3483384" lon="12.5700372"><ele>478.0</ele><time>2026-05-02T10:43:01.998Z</time></trkpt><trkpt lat="43.3482729" lon="12.5701943"><ele>478.0</ele><time>2026-05-02T10:43:02.99Z</time></trkpt><trkpt lat="43.3482076" lon="12.5703495"><ele>478.0</ele><time>2026-05-02T10:43:04.002Z</time></trkpt><trkpt lat="43.3481439" lon="12.5704914"><ele>478.0</ele><time>2026-05-02T10:43:05.007Z</time></trkpt><trkpt lat="43.3480903" lon="12.5706275"><ele>477.4</ele><time>2026-05-02T10:43:05.996Z</time></trkpt><trkpt lat="43.3480366" lon="12.5707649"><ele>476.79999999999995</ele><time>2026-05-02T10:43:06.994Z</time></trkpt><trkpt lat="43.3479807" lon="12.5708956"><ele>476.2</ele><time>2026-05-02T10:43:07.991Z</time></trkpt><trkpt lat="43.3479205" lon="12.5710284"><ele>475.6</ele><time>2026-05-02T10:43:08.997Z</time></trkpt><trkpt lat="43.3478605" lon="12.5711571"><ele>475.0</ele><time>2026-05-02T10:43:09.996Z</time></trkpt><trkpt lat="43.3478013" lon="12.57129"><ele>475.00000000000006</ele><time>2026-05-02T10:43:10.993Z</time></trkpt><trkpt lat="43.3477471" lon="12.5714187"><ele>475.0</ele><time>2026-05-02T10:43:12.002Z</time></trkpt><trkpt lat="43.3476973" lon="12.571522"><ele>475.0</ele><time>2026-05-02T10:43:12.999Z</time></trkpt><trkpt lat="43.3476498" lon="12.5716157"><ele>475.0</ele><time>2026-05-02T10:43:14.002Z</time></trkpt><trkpt lat="43.3476105" lon="12.571701"><ele>475.00000000000006</ele><time>2026-05-02T10:43:14.992Z</time></trkpt><trkpt lat="43.3475745" lon="12.5717984"><ele>475.0</ele><time>2026-05-02T10:43:15.991Z</time></trkpt><trkpt lat="43.34753" lon="12.5719055"><ele>475.0</ele><time>2026-05-02T10:43:16.991Z</time></trkpt><trkpt lat="43.3474808" lon="12.5720177"><ele>475.0</ele><time>2026-05-02T10:43:17.99Z</time></trkpt><trkpt lat="43.3474358" lon="12.5721263"><ele>475.0</ele><time>2026-05-02T10:43:18.992Z</time></trkpt><trkpt lat="43.3473927" lon="12.5722399"><ele>475.0</ele><time>2026-05-02T10:43:20Z</time></trkpt><trkpt lat="43.3473474" lon="12.5723655"><ele>475.0</ele><time>2026-05-02T10:43:20.986Z</time></trkpt><trkpt lat="43.34731" lon="12.5725005"><ele>475.0</ele><time>2026-05-02T10:43:21.99Z</time></trkpt><trkpt lat="43.3472849" lon="12.5726393"><ele>475.0</ele><time>2026-05-02T10:43:23.005Z</time></trkpt><trkpt lat="43.347266" lon="12.5727783"><ele>475.0</ele><time>2026-05-02T10:43:23.987Z</time></trkpt><trkpt lat="43.3472494" lon="12.5729242"><ele>475.0</ele><time>2026-05-02T10:43:24.986Z</time></trkpt><trkpt lat="43.3472289" lon="12.5730758"><ele>475.0</ele><time>2026-05-02T10:43:25.992Z</time></trkpt><trkpt lat="43.3472174" lon="12.5732281"><ele>474.6</ele><time>2026-05-02T10:43:26.985Z</time></trkpt><trkpt lat="43.3472006" lon="12.5733859"><ele>474.2</ele><time>2026-05-02T10:43:27.992Z</time></trkpt><trkpt lat="43.3471869" lon="12.573538"><ele>473.79999999999995</ele><time>2026-05-02T10:43:28.997Z</time></trkpt><trkpt lat="43.3471702" lon="12.5736815"><ele>473.4</ele><time>2026-05-02T10:43:30Z</time></trkpt><trkpt lat="43.3471567" lon="12.5738257"><ele>473.0</ele><time>2026-05-02T10:43:30.995Z</time></trkpt><trkpt lat="43.3471424" lon="12.5739722"><ele>472.99999999999994</ele><time>2026-05-02T10:43:31.988Z</time></trkpt><trkpt lat="43.3471212" lon="12.5741002"><ele>473.0</ele><time>2026-05-02T10:43:33.003Z</time></trkpt><trkpt lat="43.3470998" lon="12.5742192"><ele>473.0</ele><time>2026-05-02T10:43:34.01Z</time></trkpt><trkpt lat="43.3470733" lon="12.5743259"><ele>473.0</ele><time>2026-05-02T10:43:34.998Z</time></trkpt><trkpt lat="43.3470439" lon="12.5744275"><ele>472.99999999999994</ele><time>2026-05-02T10:43:35.998Z</time></trkpt><trkpt lat="43.3470135" lon="12.5745238"><ele>473.0</ele><time>2026-05-02T10:43:37.001Z</time></trkpt><trkpt lat="43.3469865" lon="12.5746231"><ele>473.49999999999994</ele><time>2026-05-02T10:43:37.999Z</time></trkpt><trkpt lat="43.3469538" lon="12.574727"><ele>474.0</ele><time>2026-05-02T10:43:38.997Z</time></trkpt><trkpt lat="43.3469233" lon="12.5748292"><ele>474.5</ele><time>2026-05-02T10:43:40.008Z</time></trkpt><trkpt lat="43.3468927" lon="12.5749288"><ele>475.0</ele><time>2026-05-02T10:43:40.991Z</time></trkpt><trkpt lat="43.3468632" lon="12.5750289"><ele>475.49999999999994</ele><time>2026-05-02T10:43:41.993Z</time></trkpt><trkpt lat="43.3468305" lon="12.5751265"><ele>476.0</ele><time>2026-05-02T10:43:42.996Z</time></trkpt><trkpt lat="43.3467942" lon="12.5752309"><ele>476.0</ele><time>2026-05-02T10:43:44Z</time></trkpt><trkpt lat="43.3467525" lon="12.5753462"><ele>476.0</ele><time>2026-05-02T10:43:44.988Z</time></trkpt><trkpt lat="43.3467152" lon="12.5754726"><ele>476.0</ele><time>2026-05-02T10:43:45.992Z</time></trkpt><trkpt lat="43.3466745" lon="12.5756007"><ele>476.0</ele><time>2026-05-02T10:43:47.001Z</time></trkpt><trkpt lat="43.3466365" lon="12.5757218"><ele>476.0</ele><time>2026-05-02T10:43:47.991Z</time></trkpt><trkpt lat="43.3465953" lon="12.5758414"><ele>476.4</ele><time>2026-05-02T10:43:49Z</time></trkpt><trkpt lat="43.3465582" lon="12.5759463"><ele>476.8</ele><time>2026-05-02T10:43:49.99Z</time></trkpt><trkpt lat="43.3465307" lon="12.5760312"><ele>477.19999999999993</ele><time>2026-05-02T10:43:50.996Z</time></trkpt><trkpt lat="43.3464836" lon="12.5761731"><ele>477.59999999999997</ele><time>2026-05-02T10:43:52.999Z</time></trkpt><trkpt lat="43.3464412" lon="12.5763131"><ele>478.0</ele><time>2026-05-02T10:43:54.987Z</time></trkpt><trkpt lat="43.3463964" lon="12.5764373"><ele>477.83333333333337</ele><time>2026-05-02T10:43:57.012Z</time></trkpt><trkpt lat="43.3463631" lon="12.576543"><ele>477.6666666666667</ele><time>2026-05-02T10:43:59.005Z</time></trkpt><trkpt lat="43.3463285" lon="12.5766316"><ele>477.5</ele><time>2026-05-02T10:44:00.996Z</time></trkpt><trkpt lat="43.346295" lon="12.5767135"><ele>477.33333333333337</ele><time>2026-05-02T10:44:02.995Z</time></trkpt><trkpt lat="43.3462603" lon="12.5768197"><ele>477.1666666666667</ele><time>2026-05-02T10:44:04.998Z</time></trkpt><trkpt lat="43.3462914" lon="12.5769309"><ele>477.0</ele><time>2026-05-02T10:44:06.99Z</time></trkpt><trkpt lat="43.3464009" lon="12.5769839"><ele>477.0</ele><time>2026-05-02T10:44:08.99Z</time></trkpt><trkpt lat="43.3464663" lon="12.5770091"><ele>477.00000000000006</ele><time>2026-05-02T10:44:09.99Z</time></trkpt><trkpt lat="43.3465409" lon="12.5770388"><ele>477.00000000000006</ele><time>2026-05-02T10:44:10.997Z</time></trkpt><trkpt lat="43.3466328" lon="12.5770766"><ele>477.0</ele><time>2026-05-02T10:44:11.992Z</time></trkpt><trkpt lat="43.3467372" lon="12.5771041"><ele>477.0</ele><time>2026-05-02T10:44:12.992Z</time></trkpt><trkpt lat="43.3468485" lon="12.5771247"><ele>477.0</ele><time>2026-05-02T10:44:13.995Z</time></trkpt><trkpt lat="43.3469568" lon="12.5771402"><ele>477.00000000000006</ele><time>2026-05-02T10:44:14.994Z</time></trkpt><trkpt lat="43.3470576" lon="12.5771507"><ele>477.00000000000006</ele><time>2026-05-02T10:44:15.987Z</time></trkpt><trkpt lat="43.347156" lon="12.5771518"><ele>477.0</ele><time>2026-05-02T10:44:16.997Z</time></trkpt><trkpt lat="43.3472555" lon="12.5771432"><ele>477.0</ele><time>2026-05-02T10:44:17.994Z</time></trkpt><trkpt lat="43.3473606" lon="12.5771363"><ele>478.0</ele><time>2026-05-02T10:44:19.003Z</time></trkpt><trkpt lat="43.3474627" lon="12.5771299"><ele>479.00000000000006</ele><time>2026-05-02T10:44:19.991Z</time></trkpt><trkpt lat="43.3475618" lon="12.5771129"><ele>480.00000000000006</ele><time>2026-05-02T10:44:20.99Z</time></trkpt><trkpt lat="43.3476639" lon="12.5771061"><ele>481.0</ele><time>2026-05-02T10:44:21.995Z</time></trkpt><trkpt lat="43.3477449" lon="12.5771014"><ele>482.0</ele><time>2026-05-02T10:44:22.992Z</time></trkpt><trkpt lat="43.3478228" lon="12.5770973"><ele>482.0</ele><time>2026-05-02T10:44:23.991Z</time></trkpt><trkpt lat="43.3478962" lon="12.5770911"><ele>482.00000000000006</ele><time>2026-05-02T10:44:24.989Z</time></trkpt><trkpt lat="43.3479832" lon="12.5770773"><ele>482.00000000000006</ele><time>2026-05-02T10:44:25.992Z</time></trkpt><trkpt lat="43.3480818" lon="12.5770673"><ele>482.0</ele><time>2026-05-02T10:44:26.99Z</time></trkpt><trkpt lat="43.3481885" lon="12.5770553"><ele>482.0</ele><time>2026-05-02T10:44:27.996Z</time></trkpt><trkpt lat="43.3482909" lon="12.5770429"><ele>482.3333333333333</ele><time>2026-05-02T10:44:28.994Z</time></trkpt><trkpt lat="43.3483811" lon="12.5770517"><ele>482.66666666666663</ele><time>2026-05-02T10:44:29.996Z</time></trkpt><trkpt lat="43.3484535" lon="12.5770454"><ele>483.0</ele><time>2026-05-02T10:44:30.986Z</time></trkpt><trkpt lat="43.3485165" lon="12.5770324"><ele>483.33333333333337</ele><time>2026-05-02T10:44:31.991Z</time></trkpt><trkpt lat="43.3486395" lon="12.5770177"><ele>483.6666666666667</ele><time>2026-05-02T10:44:33.991Z</time></trkpt><trkpt lat="43.3487039" lon="12.5770067"><ele>484.0</ele><time>2026-05-02T10:44:34.988Z</time></trkpt><trkpt lat="43.3487727" lon="12.5769897"><ele>484.50000000000006</ele><time>2026-05-02T10:44:35.995Z</time></trkpt><trkpt lat="43.3488445" lon="12.5769919"><ele>485.0</ele><time>2026-05-02T10:44:37.013Z</time></trkpt><trkpt lat="43.3489236" lon="12.5769676"><ele>485.5</ele><time>2026-05-02T10:44:38.031Z</time></trkpt><trkpt lat="43.3490045" lon="12.5769518"><ele>486.0</ele><time>2026-05-02T10:44:38.995Z</time></trkpt><trkpt lat="43.3490729" lon="12.5769404"><ele>486.50000000000006</ele><time>2026-05-02T10:44:39.992Z</time></trkpt><trkpt lat="43.3491395" lon="12.5769404"><ele>487.0</ele><time>2026-05-02T10:44:40.992Z</time></trkpt><trkpt lat="43.3492547" lon="12.5769327"><ele>487.28571428571433</ele><time>2026-05-02T10:44:42.984Z</time></trkpt><trkpt lat="43.349319" lon="12.5769382"><ele>487.57142857142856</ele><time>2026-05-02T10:44:43.994Z</time></trkpt><trkpt lat="43.3493868" lon="12.5769372"><ele>487.8571428571429</ele><time>2026-05-02T10:44:44.987Z</time></trkpt><trkpt lat="43.3494531" lon="12.576937"><ele>488.14285714285717</ele><time>2026-05-02T10:44:45.981Z</time></trkpt><trkpt lat="43.3495246" lon="12.5769352"><ele>488.42857142857144</ele><time>2026-05-02T10:44:46.994Z</time></trkpt><trkpt lat="43.3495963" lon="12.5769356"><ele>488.7142857142857</ele><time>2026-05-02T10:44:47.993Z</time></trkpt><trkpt lat="43.3496632" lon="12.5769332"><ele>489.0</ele><time>2026-05-02T10:44:48.994Z</time></trkpt><trkpt lat="43.3497688" lon="12.5769195"><ele>489.0</ele><time>2026-05-02T10:44:50.983Z</time></trkpt><trkpt lat="43.3498576" lon="12.5769051"><ele>489.0</ele><time>2026-05-02T10:44:52.993Z</time></trkpt><trkpt lat="43.349926" lon="12.5769008"><ele>489.0</ele><time>2026-05-02T10:44:59.991Z</time></trkpt><trkpt lat="43.3500094" lon="12.576885"><ele>489.0</ele><time>2026-05-02T10:45:02.996Z</time></trkpt><trkpt lat="43.3500956" lon="12.5768567"><ele>489.0</ele><time>2026-05-02T10:45:05.998Z</time></trkpt><trkpt lat="43.3501725" lon="12.576839"><ele>489.0</ele><time>2026-05-02T10:45:08.981Z</time></trkpt><trkpt lat="43.3502394" lon="12.5768398"><ele>489.0</ele><time>2026-05-02T10:45:10.988Z</time></trkpt><trkpt lat="43.3503113" lon="12.5768353"><ele>489.00000000000006</ele><time>2026-05-02T10:45:12.992Z</time></trkpt><trkpt lat="43.3503824" lon="12.5768501"><ele>489.0</ele><time>2026-05-02T10:45:15.004Z</time></trkpt><trkpt lat="43.3504557" lon="12.5768869"><ele>489.0</ele><time>2026-05-02T10:45:18.006Z</time></trkpt><trkpt lat="43.3504485" lon="12.5769739"><ele>489.00000000000006</ele><time>2026-05-02T10:45:19.982Z</time></trkpt><trkpt lat="43.3504337" lon="12.5770634"><ele>489.0</ele><time>2026-05-02T10:45:21.986Z</time></trkpt><trkpt lat="43.3504407" lon="12.5771619"><ele>489.0</ele><time>2026-05-02T10:45:22.995Z</time></trkpt><trkpt lat="43.3504467" lon="12.577272"><ele>488.79999999999995</ele><time>2026-05-02T10:45:23.982Z</time></trkpt><trkpt lat="43.3504399" lon="12.5774022"><ele>488.59999999999997</ele><time>2026-05-02T10:45:24.988Z</time></trkpt><trkpt lat="43.3504316" lon="12.5775367"><ele>488.4</ele><time>2026-05-02T10:45:25.995Z</time></trkpt><trkpt lat="43.3504198" lon="12.5776568"><ele>488.2</ele><time>2026-05-02T10:45:26.995Z</time></trkpt><trkpt lat="43.3504139" lon="12.5777803"><ele>488.0</ele><time>2026-05-02T10:45:27.997Z</time></trkpt><trkpt lat="43.3504049" lon="12.5779047"><ele>489.4</ele><time>2026-05-02T10:45:28.994Z</time></trkpt><trkpt lat="43.3503822" lon="12.5780164"><ele>490.79999999999995</ele><time>2026-05-02T10:45:29.999Z</time></trkpt><trkpt lat="43.3503301" lon="12.5781069"><ele>492.2</ele><time>2026-05-02T10:45:30.995Z</time></trkpt><trkpt lat="43.3502405" lon="12.5781713"><ele>493.6</ele><time>2026-05-02T10:45:32.001Z</time></trkpt><trkpt lat="43.350126" lon="12.5782334"><ele>495.0</ele><time>2026-05-02T10:45:33.017Z</time></trkpt><trkpt lat="43.35001" lon="12.5782809"><ele>495.0</ele><time>2026-05-02T10:45:33.986Z</time></trkpt><trkpt lat="43.3498759" lon="12.5783522"><ele>495.0</ele><time>2026-05-02T10:45:34.999Z</time></trkpt><trkpt lat="43.3497493" lon="12.5784131"><ele>495.0</ele><time>2026-05-02T10:45:35.993Z</time></trkpt><trkpt lat="43.3496202" lon="12.5784784"><ele>495.0</ele><time>2026-05-02T10:45:36.983Z</time></trkpt><trkpt lat="43.3494967" lon="12.5785468"><ele>494.0</ele><time>2026-05-02T10:45:38.011Z</time></trkpt><trkpt lat="43.3493745" lon="12.5786188"><ele>493.0</ele><time>2026-05-02T10:45:39Z</time></trkpt><trkpt lat="43.3492633" lon="12.5787015"><ele>492.0</ele><time>2026-05-02T10:45:39.984Z</time></trkpt><trkpt lat="43.3491633" lon="12.5787904"><ele>491.0</ele><time>2026-05-02T10:45:40.994Z</time></trkpt><trkpt lat="43.3490739" lon="12.5788811"><ele>491.8</ele><time>2026-05-02T10:45:41.985Z</time></trkpt><trkpt lat="43.3489942" lon="12.5789763"><ele>492.6</ele><time>2026-05-02T10:45:42.995Z</time></trkpt><trkpt lat="43.3489086" lon="12.5790746"><ele>493.4</ele><time>2026-05-02T10:45:43.992Z</time></trkpt><trkpt lat="43.3488243" lon="12.579173"><ele>494.2</ele><time>2026-05-02T10:45:44.995Z</time></trkpt><trkpt lat="43.3487493" lon="12.5792695"><ele>495.0</ele><time>2026-05-02T10:45:45.985Z</time></trkpt><trkpt lat="43.3486883" lon="12.5793762"><ele>495.0</ele><time>2026-05-02T10:45:46.99Z</time></trkpt><trkpt lat="43.3486339" lon="12.57949"><ele>495.0</ele><time>2026-05-02T10:45:47.984Z</time></trkpt><trkpt lat="43.3485838" lon="12.5796039"><ele>495.0</ele><time>2026-05-02T10:45:48.986Z</time></trkpt><trkpt lat="43.3485315" lon="12.579721"><ele>495.0</ele><time>2026-05-02T10:45:49.979Z</time></trkpt><trkpt lat="43.3484775" lon="12.5798332"><ele>495.0</ele><time>2026-05-02T10:45:50.991Z</time></trkpt><trkpt lat="43.3484315" lon="12.5799464"><ele>496.0</ele><time>2026-05-02T10:45:52.014Z</time></trkpt><trkpt lat="43.3483842" lon="12.580049"><ele>497.0</ele><time>2026-05-02T10:45:52.984Z</time></trkpt><trkpt lat="43.3483324" lon="12.5801541"><ele>498.0</ele><time>2026-05-02T10:45:53.992Z</time></trkpt><trkpt lat="43.3482825" lon="12.5802603"><ele>499.0</ele><time>2026-05-02T10:45:54.994Z</time></trkpt><trkpt lat="43.3482199" lon="12.5803727"><ele>500.0</ele><time>2026-05-02T10:45:55.996Z</time></trkpt><trkpt lat="43.3481617" lon="12.580497"><ele>500.0</ele><time>2026-05-02T10:45:57.004Z</time></trkpt><trkpt lat="43.3481058" lon="12.5806153"><ele>500.0</ele><time>2026-05-02T10:45:57.991Z</time></trkpt><trkpt lat="43.3480486" lon="12.5807289"><ele>500.0</ele><time>2026-05-02T10:45:58.991Z</time></trkpt><trkpt lat="43.3479835" lon="12.5808542"><ele>500.0</ele><time>2026-05-02T10:45:59.99Z</time></trkpt><trkpt lat="43.3479141" lon="12.580987"><ele>500.0</ele><time>2026-05-02T10:46:00.999Z</time></trkpt><trkpt lat="43.3478452" lon="12.5811203"><ele>501.0</ele><time>2026-05-02T10:46:01.997Z</time></trkpt><trkpt lat="43.3477771" lon="12.5812583"><ele>502.0</ele><time>2026-05-02T10:46:03.001Z</time></trkpt><trkpt lat="43.3477183" lon="12.5813818"><ele>503.0</ele><time>2026-05-02T10:46:03.993Z</time></trkpt><trkpt lat="43.3476606" lon="12.5815067"><ele>504.0</ele><time>2026-05-02T10:46:05.001Z</time></trkpt><trkpt lat="43.3475997" lon="12.5816361"><ele>505.0</ele><time>2026-05-02T10:46:05.993Z</time></trkpt><trkpt lat="43.3475388" lon="12.5817666"><ele>505.0</ele><time>2026-05-02T10:46:06.994Z</time></trkpt><trkpt lat="43.3474848" lon="12.5818973"><ele>505.0</ele><time>2026-05-02T10:46:07.991Z</time></trkpt><trkpt lat="43.3474271" lon="12.5820287"><ele>505.0</ele><time>2026-05-02T10:46:09Z</time></trkpt><trkpt lat="43.3473695" lon="12.5821499"><ele>505.0</ele><time>2026-05-02T10:46:09.983Z</time></trkpt><trkpt lat="43.3473162" lon="12.5822672"><ele>505.0</ele><time>2026-05-02T10:46:10.985Z</time></trkpt><trkpt lat="43.3472628" lon="12.5823806"><ele>505.4</ele><time>2026-05-02T10:46:11.98Z</time></trkpt><trkpt lat="43.3472161" lon="12.5824864"><ele>505.8</ele><time>2026-05-02T10:46:12.996Z</time></trkpt><trkpt lat="43.3471756" lon="12.5825986"><ele>506.20000000000005</ele><time>2026-05-02T10:46:13.983Z</time></trkpt><trkpt lat="43.3471341" lon="12.582709"><ele>506.6</ele><time>2026-05-02T10:46:14.995Z</time></trkpt><trkpt lat="43.3470993" lon="12.5828301"><ele>507.0</ele><time>2026-05-02T10:46:15.991Z</time></trkpt><trkpt lat="43.3470758" lon="12.5829442"><ele>505.40000000000003</ele><time>2026-05-02T10:46:16.983Z</time></trkpt><trkpt lat="43.3470667" lon="12.5830611"><ele>503.80000000000007</ele><time>2026-05-02T10:46:17.996Z</time></trkpt><trkpt lat="43.3470677" lon="12.583187"><ele>502.2</ele><time>2026-05-02T10:46:18.986Z</time></trkpt><trkpt lat="43.3470643" lon="12.5833284"><ele>500.6</ele><time>2026-05-02T10:46:19.987Z</time></trkpt><trkpt lat="43.347078" lon="12.5834702"><ele>499.0</ele><time>2026-05-02T10:46:20.994Z</time></trkpt><trkpt lat="43.3470807" lon="12.583613"><ele>498.79999999999995</ele><time>2026-05-02T10:46:21.986Z</time></trkpt><trkpt lat="43.3470931" lon="12.5837546"><ele>498.59999999999997</ele><time>2026-05-02T10:46:22.993Z</time></trkpt><trkpt lat="43.3471006" lon="12.5839014"><ele>498.4</ele><time>2026-05-02T10:46:23.99Z</time></trkpt><trkpt lat="43.3471152" lon="12.5840487"><ele>498.2</ele><time>2026-05-02T10:46:24.994Z</time></trkpt><trkpt lat="43.347135" lon="12.5841946"><ele>498.0</ele><time>2026-05-02T10:46:25.987Z</time></trkpt><trkpt lat="43.3471503" lon="12.5843414"><ele>498.0</ele><time>2026-05-02T10:46:27Z</time></trkpt><trkpt lat="43.3471661" lon="12.5844907"><ele>497.99999999999994</ele><time>2026-05-02T10:46:28.005Z</time></trkpt><trkpt lat="43.3471798" lon="12.5846343"><ele>497.99999999999994</ele><time>2026-05-02T10:46:28.995Z</time></trkpt><trkpt lat="43.3471907" lon="12.5847785"><ele>498.0</ele><time>2026-05-02T10:46:30.002Z</time></trkpt><trkpt lat="43.3472052" lon="12.5849316"><ele>498.0</ele><time>2026-05-02T10:46:31.006Z</time></trkpt><trkpt lat="43.3472134" lon="12.5850886"><ele>498.25</ele><time>2026-05-02T10:46:32.001Z</time></trkpt><trkpt lat="43.3472249" lon="12.5852466"><ele>498.5</ele><time>2026-05-02T10:46:32.993Z</time></trkpt><trkpt lat="43.3472382" lon="12.5853962"><ele>498.75</ele><time>2026-05-02T10:46:33.989Z</time></trkpt><trkpt lat="43.3472604" lon="12.5855534"><ele>499.0</ele><time>2026-05-02T10:46:35.009Z</time></trkpt><trkpt lat="43.3472691" lon="12.5857096"><ele>499.0</ele><time>2026-05-02T10:46:35.991Z</time></trkpt><trkpt lat="43.3472731" lon="12.5858716"><ele>499.0</ele><time>2026-05-02T10:46:36.991Z</time></trkpt><trkpt lat="43.3472837" lon="12.5860322"><ele>499.0</ele><time>2026-05-02T10:46:37.997Z</time></trkpt><trkpt lat="43.3472982" lon="12.5861963"><ele>499.0</ele><time>2026-05-02T10:46:39.002Z</time></trkpt><trkpt lat="43.3473073" lon="12.5863587"><ele>499.2</ele><time>2026-05-02T10:46:40Z</time></trkpt><trkpt lat="43.3473144" lon="12.5865106"><ele>499.4</ele><time>2026-05-02T10:46:40.998Z</time></trkpt><trkpt lat="43.3473149" lon="12.5866471"><ele>499.6</ele><time>2026-05-02T10:46:41.984Z</time></trkpt><trkpt lat="43.3473065" lon="12.5867742"><ele>499.8</ele><time>2026-05-02T10:46:42.99Z</time></trkpt><trkpt lat="43.3472879" lon="12.5868865"><ele>500.0</ele><time>2026-05-02T10:46:43.996Z</time></trkpt><trkpt lat="43.3472457" lon="12.5869992"><ele>498.4</ele><time>2026-05-02T10:46:44.993Z</time></trkpt><trkpt lat="43.3471919" lon="12.5871023"><ele>496.8</ele><time>2026-05-02T10:46:45.988Z</time></trkpt><trkpt lat="43.3471105" lon="12.5871874"><ele>495.20000000000005</ele><time>2026-05-02T10:46:46.981Z</time></trkpt><trkpt lat="43.3470153" lon="12.5872907"><ele>493.6</ele><time>2026-05-02T10:46:47.985Z</time></trkpt><trkpt lat="43.3469339" lon="12.5874032"><ele>492.0</ele><time>2026-05-02T10:46:48.992Z</time></trkpt><trkpt lat="43.3468648" lon="12.5874965"><ele>492.0</ele><time>2026-05-02T10:46:49.998Z</time></trkpt><trkpt lat="43.346784" lon="12.5875943"><ele>492.00000000000006</ele><time>2026-05-02T10:46:50.992Z</time></trkpt><trkpt lat="43.3467123" lon="12.5876926"><ele>492.00000000000006</ele><time>2026-05-02T10:46:51.985Z</time></trkpt><trkpt lat="43.3466398" lon="12.5877816"><ele>492.0</ele><time>2026-05-02T10:46:52.982Z</time></trkpt><trkpt lat="43.3465686" lon="12.5878632"><ele>492.0</ele><time>2026-05-02T10:46:53.989Z</time></trkpt><trkpt lat="43.3464978" lon="12.5879558"><ele>491.20000000000005</ele><time>2026-05-02T10:46:54.984Z</time></trkpt><trkpt lat="43.3464252" lon="12.588049"><ele>490.40000000000003</ele><time>2026-05-02T10:46:55.982Z</time></trkpt><trkpt lat="43.3463497" lon="12.5881359"><ele>489.59999999999997</ele><time>2026-05-02T10:46:56.989Z</time></trkpt><trkpt lat="43.3462802" lon="12.5882169"><ele>488.79999999999995</ele><time>2026-05-02T10:46:57.984Z</time></trkpt><trkpt lat="43.34622" lon="12.5882951"><ele>488.0</ele><time>2026-05-02T10:46:58.989Z</time></trkpt><trkpt lat="43.3461538" lon="12.5883711"><ele>488.0</ele><time>2026-05-02T10:46:59.984Z</time></trkpt><trkpt lat="43.3460819" lon="12.5884562"><ele>487.99999999999994</ele><time>2026-05-02T10:47:00.98Z</time></trkpt><trkpt lat="43.3460034" lon="12.5885518"><ele>487.99999999999994</ele><time>2026-05-02T10:47:01.99Z</time></trkpt><trkpt lat="43.3459202" lon="12.5886515"><ele>488.0</ele><time>2026-05-02T10:47:02.991Z</time></trkpt><trkpt lat="43.3458372" lon="12.5887589"><ele>488.0</ele><time>2026-05-02T10:47:03.992Z</time></trkpt><trkpt lat="43.3457403" lon="12.5888774"><ele>488.0</ele><time>2026-05-02T10:47:04.991Z</time></trkpt><trkpt lat="43.3456524" lon="12.5890088"><ele>488.0</ele><time>2026-05-02T10:47:05.993Z</time></trkpt><trkpt lat="43.3455577" lon="12.5891436"><ele>488.0</ele><time>2026-05-02T10:47:06.99Z</time></trkpt><trkpt lat="43.3454579" lon="12.589269"><ele>488.0</ele><time>2026-05-02T10:47:07.999Z</time></trkpt><trkpt lat="43.3453541" lon="12.5893943"><ele>488.5</ele><time>2026-05-02T10:47:08.989Z</time></trkpt><trkpt lat="43.3452497" lon="12.5895182"><ele>489.0</ele><time>2026-05-02T10:47:09.995Z</time></trkpt><trkpt lat="43.3451485" lon="12.5896452"><ele>489.5</ele><time>2026-05-02T10:47:10.984Z</time></trkpt><trkpt lat="43.3450446" lon="12.5897709"><ele>490.0</ele><time>2026-05-02T10:47:11.983Z</time></trkpt><trkpt lat="43.3449401" lon="12.5898962"><ele>490.0</ele><time>2026-05-02T10:47:13.002Z</time></trkpt><trkpt lat="43.3448389" lon="12.5900134"><ele>490.0</ele><time>2026-05-02T10:47:13.983Z</time></trkpt><trkpt lat="43.3447373" lon="12.590132"><ele>490.0</ele><time>2026-05-02T10:47:14.988Z</time></trkpt><trkpt lat="43.3446375" lon="12.5902558"><ele>490.0</ele><time>2026-05-02T10:47:15.984Z</time></trkpt><trkpt lat="43.3445395" lon="12.5903786"><ele>490.5</ele><time>2026-05-02T10:47:16.991Z</time></trkpt><trkpt lat="43.3444372" lon="12.5905019"><ele>491.0</ele><time>2026-05-02T10:47:17.985Z</time></trkpt><trkpt lat="43.344338" lon="12.5906333"><ele>491.5</ele><time>2026-05-02T10:47:18.987Z</time></trkpt><trkpt lat="43.3442407" lon="12.5907537"><ele>492.0</ele><time>2026-05-02T10:47:19.982Z</time></trkpt><trkpt lat="43.3441492" lon="12.5908629"><ele>492.0</ele><time>2026-05-02T10:47:20.986Z</time></trkpt><trkpt lat="43.3440555" lon="12.5909588"><ele>492.0</ele><time>2026-05-02T10:47:21.985Z</time></trkpt><trkpt lat="43.343962" lon="12.5910691"><ele>492.0</ele><time>2026-05-02T10:47:22.986Z</time></trkpt><trkpt lat="43.3438697" lon="12.5911881"><ele>492.0</ele><time>2026-05-02T10:47:23.988Z</time></trkpt><trkpt lat="43.343783" lon="12.5913187"><ele>492.75</ele><time>2026-05-02T10:47:24.981Z</time></trkpt><trkpt lat="43.3436789" lon="12.5914493"><ele>493.5</ele><time>2026-05-02T10:47:25.993Z</time></trkpt><trkpt lat="43.3435686" lon="12.5915795"><ele>494.25</ele><time>2026-05-02T10:47:26.99Z</time></trkpt><trkpt lat="43.3434588" lon="12.5917116"><ele>495.0</ele><time>2026-05-02T10:47:27.997Z</time></trkpt><trkpt lat="43.3433362" lon="12.5918419"><ele>495.0</ele><time>2026-05-02T10:47:28.994Z</time></trkpt><trkpt lat="43.3432218" lon="12.5919806"><ele>495.0</ele><time>2026-05-02T10:47:29.998Z</time></trkpt><trkpt lat="43.3431008" lon="12.5921232"><ele>495.0</ele><time>2026-05-02T10:47:30.991Z</time></trkpt><trkpt lat="43.3429687" lon="12.5922688"><ele>494.0</ele><time>2026-05-02T10:47:31.996Z</time></trkpt><trkpt lat="43.3428381" lon="12.5924176"><ele>493.0</ele><time>2026-05-02T10:47:32.996Z</time></trkpt><trkpt lat="43.3427115" lon="12.5925744"><ele>492.0</ele><time>2026-05-02T10:47:33.991Z</time></trkpt><trkpt lat="43.3425859" lon="12.5927273"><ele>493.33333333333337</ele><time>2026-05-02T10:47:34.99Z</time></trkpt><trkpt lat="43.3424671" lon="12.592871"><ele>494.6666666666667</ele><time>2026-05-02T10:47:36.002Z</time></trkpt><trkpt lat="43.3423486" lon="12.5930151"><ele>496.0</ele><time>2026-05-02T10:47:36.988Z</time></trkpt><trkpt lat="43.3422351" lon="12.5931517"><ele>494.75</ele><time>2026-05-02T10:47:37.997Z</time></trkpt><trkpt lat="43.3421287" lon="12.5932864"><ele>493.5</ele><time>2026-05-02T10:47:38.996Z</time></trkpt><trkpt lat="43.3420281" lon="12.5934045"><ele>492.25</ele><time>2026-05-02T10:47:39.984Z</time></trkpt><trkpt lat="43.3419361" lon="12.5935196"><ele>491.0</ele><time>2026-05-02T10:47:40.992Z</time></trkpt><trkpt lat="43.3418505" lon="12.5936189"><ele>490.99999999999994</ele><time>2026-05-02T10:47:41.992Z</time></trkpt><trkpt lat="43.3417699" lon="12.5937094"><ele>491.0</ele><time>2026-05-02T10:47:43Z</time></trkpt><trkpt lat="43.341697" lon="12.5937868"><ele>491.0</ele><time>2026-05-02T10:47:43.986Z</time></trkpt><trkpt lat="43.3416275" lon="12.5938391"><ele>491.0</ele><time>2026-05-02T10:47:44.982Z</time></trkpt><trkpt lat="43.3415384" lon="12.5939013"><ele>490.99999999999994</ele><time>2026-05-02T10:47:46.994Z</time></trkpt><trkpt lat="43.3414838" lon="12.5939509"><ele>491.0</ele><time>2026-05-02T10:47:59.99Z</time></trkpt><trkpt lat="43.3414071" lon="12.5940891"><ele>490.5</ele><time>2026-05-02T10:48:02.001Z</time></trkpt><trkpt lat="43.3413561" lon="12.5941898"><ele>490.0</ele><time>2026-05-02T10:48:02.993Z</time></trkpt><trkpt lat="43.3412776" lon="12.5943114"><ele>489.5</ele><time>2026-05-02T10:48:03.987Z</time></trkpt><trkpt lat="43.3411753" lon="12.5944282"><ele>489.0</ele><time>2026-05-02T10:48:04.998Z</time></trkpt><trkpt lat="43.3410624" lon="12.5945522"><ele>489.0</ele><time>2026-05-02T10:48:05.989Z</time></trkpt><trkpt lat="43.3409443" lon="12.5946833"><ele>489.0</ele><time>2026-05-02T10:48:06.985Z</time></trkpt><trkpt lat="43.340822" lon="12.5948297"><ele>489.0</ele><time>2026-05-02T10:48:07.982Z</time></trkpt><trkpt lat="43.3406904" lon="12.5949868"><ele>489.0</ele><time>2026-05-02T10:48:08.99Z</time></trkpt><trkpt lat="43.3405537" lon="12.59515"><ele>489.0</ele><time>2026-05-02T10:48:09.997Z</time></trkpt><trkpt lat="43.3404212" lon="12.5953225"><ele>489.0</ele><time>2026-05-02T10:48:11Z</time></trkpt><trkpt lat="43.340281" lon="12.5954972"><ele>488.0</ele><time>2026-05-02T10:48:12Z</time></trkpt><trkpt lat="43.3401349" lon="12.5956691"><ele>487.0</ele><time>2026-05-02T10:48:12.997Z</time></trkpt><trkpt lat="43.3399876" lon="12.595839"><ele>486.0</ele><time>2026-05-02T10:48:13.992Z</time></trkpt><trkpt lat="43.3398551" lon="12.5959824"><ele>486.0</ele><time>2026-05-02T10:48:14.99Z</time></trkpt><trkpt lat="43.3397444" lon="12.5961178"><ele>486.0</ele><time>2026-05-02T10:48:15.998Z</time></trkpt><trkpt lat="43.3396344" lon="12.5962462"><ele>486.0</ele><time>2026-05-02T10:48:16.999Z</time></trkpt><trkpt lat="43.3395338" lon="12.5963649"><ele>486.0</ele><time>2026-05-02T10:48:17.994Z</time></trkpt><trkpt lat="43.3394409" lon="12.5964723"><ele>486.0</ele><time>2026-05-02T10:48:18.999Z</time></trkpt><trkpt lat="43.3393523" lon="12.5965814"><ele>486.0</ele><time>2026-05-02T10:48:20.001Z</time></trkpt><trkpt lat="43.3392641" lon="12.5966776"><ele>486.0</ele><time>2026-05-02T10:48:20.991Z</time></trkpt><trkpt lat="43.3391759" lon="12.5967765"><ele>486.0</ele><time>2026-05-02T10:48:22.016Z</time></trkpt><trkpt lat="43.3390841" lon="12.596881"><ele>486.0</ele><time>2026-05-02T10:48:23.009Z</time></trkpt><trkpt lat="43.3389891" lon="12.5969929"><ele>486.0</ele><time>2026-05-02T10:48:24.004Z</time></trkpt><trkpt lat="43.3388928" lon="12.5971078"><ele>486.0</ele><time>2026-05-02T10:48:24.998Z</time></trkpt><trkpt lat="43.3387977" lon="12.597216"><ele>486.0</ele><time>2026-05-02T10:48:26.001Z</time></trkpt><trkpt lat="43.3387031" lon="12.597332"><ele>484.25</ele><time>2026-05-02T10:48:26.998Z</time></trkpt><trkpt lat="43.338606" lon="12.5974484"><ele>482.5</ele><time>2026-05-02T10:48:27.993Z</time></trkpt><trkpt lat="43.3385111" lon="12.5975581"><ele>480.75</ele><time>2026-05-02T10:48:28.995Z</time></trkpt><trkpt lat="43.338414" lon="12.5976742"><ele>479.0</ele><time>2026-05-02T10:48:30.003Z</time></trkpt><trkpt lat="43.3383199" lon="12.5977873"><ele>478.5</ele><time>2026-05-02T10:48:30.997Z</time></trkpt><trkpt lat="43.338216" lon="12.5979059"><ele>478.0</ele><time>2026-05-02T10:48:31.997Z</time></trkpt><trkpt lat="43.338107" lon="12.5980327"><ele>477.5</ele><time>2026-05-02T10:48:32.99Z</time></trkpt><trkpt lat="43.3380007" lon="12.5981604"><ele>477.0</ele><time>2026-05-02T10:48:33.992Z</time></trkpt><trkpt lat="43.3378895" lon="12.5982953"><ele>477.0</ele><time>2026-05-02T10:48:34.992Z</time></trkpt><trkpt lat="43.3377813" lon="12.5984292"><ele>477.0</ele><time>2026-05-02T10:48:36.001Z</time></trkpt><trkpt lat="43.3376679" lon="12.5985654"><ele>477.0</ele><time>2026-05-02T10:48:36.99Z</time></trkpt><trkpt lat="43.3375505" lon="12.5987037"><ele>477.0</ele><time>2026-05-02T10:48:38Z</time></trkpt><trkpt lat="43.3374324" lon="12.5988475"><ele>477.0</ele><time>2026-05-02T10:48:39Z</time></trkpt><trkpt lat="43.33731" lon="12.5989939"><ele>477.0</ele><time>2026-05-02T10:48:40.004Z</time></trkpt><trkpt lat="43.337188" lon="12.5991401"><ele>476.25</ele><time>2026-05-02T10:48:40.991Z</time></trkpt><trkpt lat="43.3370655" lon="12.5992772"><ele>475.5</ele><time>2026-05-02T10:48:41.992Z</time></trkpt><trkpt lat="43.3369569" lon="12.5994106"><ele>474.75</ele><time>2026-05-02T10:48:43.013Z</time></trkpt><trkpt lat="43.3368524" lon="12.5995358"><ele>474.0</ele><time>2026-05-02T10:48:44.006Z</time></trkpt><trkpt lat="43.3367494" lon="12.5996594"><ele>473.5</ele><time>2026-05-02T10:48:45.022Z</time></trkpt><trkpt lat="43.336647" lon="12.5997762"><ele>473.0</ele><time>2026-05-02T10:48:46.005Z</time></trkpt><trkpt lat="43.3365485" lon="12.5998874"><ele>472.5</ele><time>2026-05-02T10:48:47.012Z</time></trkpt><trkpt lat="43.3364517" lon="12.6000019"><ele>472.0</ele><time>2026-05-02T10:48:47.993Z</time></trkpt><trkpt lat="43.3363616" lon="12.600105"><ele>471.0</ele><time>2026-05-02T10:48:48.994Z</time></trkpt><trkpt lat="43.3362698" lon="12.6002092"><ele>470.00000000000006</ele><time>2026-05-02T10:48:49.995Z</time></trkpt><trkpt lat="43.3361826" lon="12.6003052"><ele>469.00000000000006</ele><time>2026-05-02T10:48:50.989Z</time></trkpt><trkpt lat="43.3361007" lon="12.6003881"><ele>468.0</ele><time>2026-05-02T10:48:52.007Z</time></trkpt><trkpt lat="43.3360115" lon="12.6004616"><ele>467.0</ele><time>2026-05-02T10:48:53.004Z</time></trkpt><trkpt lat="43.3359258" lon="12.6005196"><ele>466.66666666666663</ele><time>2026-05-02T10:48:53.996Z</time></trkpt><trkpt lat="43.3358289" lon="12.6005585"><ele>466.3333333333333</ele><time>2026-05-02T10:48:54.993Z</time></trkpt><trkpt lat="43.3357405" lon="12.6005872"><ele>466.0</ele><time>2026-05-02T10:48:56.018Z</time></trkpt><trkpt lat="43.3356606" lon="12.6006295"><ele>465.66666666666663</ele><time>2026-05-02T10:48:57.008Z</time></trkpt><trkpt lat="43.335594" lon="12.6007019"><ele>465.3333333333333</ele><time>2026-05-02T10:48:57.998Z</time></trkpt><trkpt lat="43.335543" lon="12.6007946"><ele>465.0</ele><time>2026-05-02T10:48:59.001Z</time></trkpt><trkpt lat="43.3355067" lon="12.6009025"><ele>464.6666666666667</ele><time>2026-05-02T10:48:59.995Z</time></trkpt><trkpt lat="43.3354706" lon="12.6010119"><ele>464.33333333333337</ele><time>2026-05-02T10:49:00.997Z</time></trkpt><trkpt lat="43.3354276" lon="12.6011137"><ele>464.0</ele><time>2026-05-02T10:49:01.991Z</time></trkpt><trkpt lat="43.3353761" lon="12.6012121"><ele>463.6666666666667</ele><time>2026-05-02T10:49:02.987Z</time></trkpt><trkpt lat="43.3353212" lon="12.6013097"><ele>463.33333333333337</ele><time>2026-05-02T10:49:03.99Z</time></trkpt><trkpt lat="43.335255" lon="12.6014015"><ele>463.0</ele><time>2026-05-02T10:49:04.992Z</time></trkpt><trkpt lat="43.3351783" lon="12.6014938"><ele>463.0</ele><time>2026-05-02T10:49:05.987Z</time></trkpt><trkpt lat="43.3350924" lon="12.6015927"><ele>463.0</ele><time>2026-05-02T10:49:07.009Z</time></trkpt><trkpt lat="43.3350058" lon="12.6016973"><ele>463.0</ele><time>2026-05-02T10:49:07.997Z</time></trkpt><trkpt lat="43.3349147" lon="12.6018145"><ele>463.0</ele><time>2026-05-02T10:49:08.997Z</time></trkpt><trkpt lat="43.3348166" lon="12.6019338"><ele>463.75</ele><time>2026-05-02T10:49:09.997Z</time></trkpt><trkpt lat="43.3347186" lon="12.6020548"><ele>464.5</ele><time>2026-05-02T10:49:10.996Z</time></trkpt><trkpt lat="43.3346198" lon="12.6021759"><ele>465.25</ele><time>2026-05-02T10:49:12.01Z</time></trkpt><trkpt lat="43.3345181" lon="12.6022965"><ele>466.0</ele><time>2026-05-02T10:49:13.001Z</time></trkpt><trkpt lat="43.3344117" lon="12.6024102"><ele>466.0</ele><time>2026-05-02T10:49:13.993Z</time></trkpt><trkpt lat="43.3343049" lon="12.6025338"><ele>466.0</ele><time>2026-05-02T10:49:14.991Z</time></trkpt><trkpt lat="43.3342003" lon="12.6026665"><ele>466.0</ele><time>2026-05-02T10:49:15.988Z</time></trkpt><trkpt lat="43.3340997" lon="12.6027868"><ele>466.0</ele><time>2026-05-02T10:49:16.982Z</time></trkpt><trkpt lat="43.3340021" lon="12.6028996"><ele>466.25</ele><time>2026-05-02T10:49:17.996Z</time></trkpt><trkpt lat="43.333911" lon="12.6030056"><ele>466.5</ele><time>2026-05-02T10:49:18.996Z</time></trkpt><trkpt lat="43.3338222" lon="12.6031069"><ele>466.75</ele><time>2026-05-02T10:49:19.995Z</time></trkpt><trkpt lat="43.3337364" lon="12.603205"><ele>467.0</ele><time>2026-05-02T10:49:20.991Z</time></trkpt><trkpt lat="43.3336541" lon="12.6033024"><ele>467.0</ele><time>2026-05-02T10:49:22.001Z</time></trkpt><trkpt lat="43.3335799" lon="12.6033873"><ele>467.00000000000006</ele><time>2026-05-02T10:49:22.984Z</time></trkpt><trkpt lat="43.3335046" lon="12.6034724"><ele>467.00000000000006</ele><time>2026-05-02T10:49:23.984Z</time></trkpt><trkpt lat="43.3334298" lon="12.6035527"><ele>467.0</ele><time>2026-05-02T10:49:24.998Z</time></trkpt><trkpt lat="43.3333492" lon="12.6036399"><ele>467.0</ele><time>2026-05-02T10:49:25.992Z</time></trkpt><trkpt lat="43.3332695" lon="12.6037313"><ele>466.5</ele><time>2026-05-02T10:49:26.997Z</time></trkpt><trkpt lat="43.333187" lon="12.6038276"><ele>466.0</ele><time>2026-05-02T10:49:27.989Z</time></trkpt><trkpt lat="43.333101" lon="12.6039276"><ele>465.5</ele><time>2026-05-02T10:49:29.004Z</time></trkpt><trkpt lat="43.333017" lon="12.6040328"><ele>465.0</ele><time>2026-05-02T10:49:29.988Z</time></trkpt><trkpt lat="43.3329289" lon="12.6041398"><ele>464.0</ele><time>2026-05-02T10:49:30.992Z</time></trkpt><trkpt lat="43.3328465" lon="12.6042553"><ele>463.0</ele><time>2026-05-02T10:49:31.993Z</time></trkpt><trkpt lat="43.3327527" lon="12.6043628"><ele>462.0</ele><time>2026-05-02T10:49:32.995Z</time></trkpt><trkpt lat="43.332659" lon="12.604466"><ele>461.0</ele><time>2026-05-02T10:49:33.991Z</time></trkpt><trkpt lat="43.332569" lon="12.6045795"><ele>461.0</ele><time>2026-05-02T10:49:34.995Z</time></trkpt><trkpt lat="43.3324774" lon="12.6046865"><ele>461.0</ele><time>2026-05-02T10:49:35.992Z</time></trkpt><trkpt lat="43.3323793" lon="12.6048068"><ele>461.0</ele><time>2026-05-02T10:49:36.99Z</time></trkpt><trkpt lat="43.3322729" lon="12.6049281"><ele>461.0</ele><time>2026-05-02T10:49:37.998Z</time></trkpt><trkpt lat="43.3321621" lon="12.605054"><ele>460.75</ele><time>2026-05-02T10:49:38.989Z</time></trkpt><trkpt lat="43.3320533" lon="12.6051826"><ele>460.5</ele><time>2026-05-02T10:49:40.005Z</time></trkpt><trkpt lat="43.3319397" lon="12.6053211"><ele>460.25</ele><time>2026-05-02T10:49:40.994Z</time></trkpt><trkpt lat="43.3318251" lon="12.6054629"><ele>460.0</ele><time>2026-05-02T10:49:41.99Z</time></trkpt><trkpt lat="43.3317003" lon="12.6056056"><ele>460.0</ele><time>2026-05-02T10:49:42.995Z</time></trkpt><trkpt lat="43.3315788" lon="12.605747"><ele>460.0</ele><time>2026-05-02T10:49:43.997Z</time></trkpt><trkpt lat="43.3314542" lon="12.6058909"><ele>460.0</ele><time>2026-05-02T10:49:44.994Z</time></trkpt><trkpt lat="43.3313273" lon="12.6060331"><ele>458.6666666666667</ele><time>2026-05-02T10:49:45.987Z</time></trkpt><trkpt lat="43.3312047" lon="12.6061758"><ele>457.33333333333337</ele><time>2026-05-02T10:49:46.991Z</time></trkpt><trkpt lat="43.331085" lon="12.606318"><ele>456.0</ele><time>2026-05-02T10:49:47.994Z</time></trkpt><trkpt lat="43.3309716" lon="12.6064528"><ele>456.0</ele><time>2026-05-02T10:49:48.986Z</time></trkpt><trkpt lat="43.3308607" lon="12.606583"><ele>456.0</ele><time>2026-05-02T10:49:49.993Z</time></trkpt><trkpt lat="43.3307532" lon="12.6067148"><ele>456.0</ele><time>2026-05-02T10:49:50.991Z</time></trkpt><trkpt lat="43.3306443" lon="12.6068475"><ele>456.0</ele><time>2026-05-02T10:49:51.987Z</time></trkpt><trkpt lat="43.3305285" lon="12.6069799"><ele>455.66666666666663</ele><time>2026-05-02T10:49:53.003Z</time></trkpt><trkpt lat="43.3304062" lon="12.6071192"><ele>455.3333333333333</ele><time>2026-05-02T10:49:53.998Z</time></trkpt><trkpt lat="43.3302872" lon="12.6072591"><ele>455.0</ele><time>2026-05-02T10:49:54.988Z</time></trkpt><trkpt lat="43.3301744" lon="12.6073953"><ele>455.0</ele><time>2026-05-02T10:49:55.99Z</time></trkpt><trkpt lat="43.3300641" lon="12.607529"><ele>455.0</ele><time>2026-05-02T10:49:56.986Z</time></trkpt><trkpt lat="43.3299546" lon="12.607661"><ele>455.0</ele><time>2026-05-02T10:49:57.991Z</time></trkpt><trkpt lat="43.3298426" lon="12.6077923"><ele>455.0</ele><time>2026-05-02T10:49:58.986Z</time></trkpt><trkpt lat="43.3297234" lon="12.6079258"><ele>454.25</ele><time>2026-05-02T10:49:59.999Z</time></trkpt><trkpt lat="43.3296203" lon="12.6080533"><ele>453.5</ele><time>2026-05-02T10:50:00.994Z</time></trkpt><trkpt lat="43.3295344" lon="12.6081502"><ele>452.75</ele><time>2026-05-02T10:50:01.99Z</time></trkpt><trkpt lat="43.3294559" lon="12.6082408"><ele>452.0</ele><time>2026-05-02T10:50:02.997Z</time></trkpt><trkpt lat="43.3293722" lon="12.6083405"><ele>452.0</ele><time>2026-05-02T10:50:03.995Z</time></trkpt><trkpt lat="43.3292839" lon="12.6084502"><ele>452.0</ele><time>2026-05-02T10:50:04.995Z</time></trkpt><trkpt lat="43.3291985" lon="12.6085706"><ele>452.0</ele><time>2026-05-02T10:50:05.99Z</time></trkpt><trkpt lat="43.3290881" lon="12.6086985"><ele>452.0</ele><time>2026-05-02T10:50:06.988Z</time></trkpt><trkpt lat="43.328974" lon="12.6088296"><ele>451.66666666666663</ele><time>2026-05-02T10:50:07.987Z</time></trkpt><trkpt lat="43.3288582" lon="12.6089593"><ele>451.33333333333337</ele><time>2026-05-02T10:50:08.993Z</time></trkpt><trkpt lat="43.328739" lon="12.6090965"><ele>451.0</ele><time>2026-05-02T10:50:09.997Z</time></trkpt><trkpt lat="43.3286219" lon="12.6092423"><ele>451.0</ele><time>2026-05-02T10:50:10.996Z</time></trkpt><trkpt lat="43.3285016" lon="12.609381"><ele>451.0</ele><time>2026-05-02T10:50:11.986Z</time></trkpt><trkpt lat="43.3283727" lon="12.6095318"><ele>451.0</ele><time>2026-05-02T10:50:12.989Z</time></trkpt><trkpt lat="43.3282358" lon="12.6096883"><ele>451.0</ele><time>2026-05-02T10:50:13.99Z</time></trkpt><trkpt lat="43.328105" lon="12.6098402"><ele>451.0</ele><time>2026-05-02T10:50:14.992Z</time></trkpt><trkpt lat="43.3279725" lon="12.6099952"><ele>451.0</ele><time>2026-05-02T10:50:15.992Z</time></trkpt><trkpt lat="43.3278386" lon="12.6101622"><ele>451.6666666666667</ele><time>2026-05-02T10:50:16.984Z</time></trkpt><trkpt lat="43.3277001" lon="12.6103279"><ele>452.33333333333337</ele><time>2026-05-02T10:50:18.004Z</time></trkpt><trkpt lat="43.3275607" lon="12.6104926"><ele>453.0</ele><time>2026-05-02T10:50:18.99Z</time></trkpt><trkpt lat="43.3274222" lon="12.6106507"><ele>453.0</ele><time>2026-05-02T10:50:19.996Z</time></trkpt><trkpt lat="43.3272875" lon="12.6108182"><ele>453.0</ele><time>2026-05-02T10:50:20.994Z</time></trkpt><trkpt lat="43.3271503" lon="12.6109838"><ele>453.0</ele><time>2026-05-02T10:50:21.994Z</time></trkpt><trkpt lat="43.3270137" lon="12.6111442"><ele>453.33333333333337</ele><time>2026-05-02T10:50:22.994Z</time></trkpt><trkpt lat="43.3268815" lon="12.6112996"><ele>453.6666666666667</ele><time>2026-05-02T10:50:23.991Z</time></trkpt><trkpt lat="43.3267515" lon="12.6114517"><ele>454.0</ele><time>2026-05-02T10:50:24.99Z</time></trkpt><trkpt lat="43.3266202" lon="12.6116119"><ele>454.0</ele><time>2026-05-02T10:50:25.992Z</time></trkpt><trkpt lat="43.3264913" lon="12.611764"><ele>454.0</ele><time>2026-05-02T10:50:26.989Z</time></trkpt><trkpt lat="43.3263532" lon="12.6119147"><ele>454.0</ele><time>2026-05-02T10:50:28Z</time></trkpt><trkpt lat="43.3262196" lon="12.6120677"><ele>454.33333333333337</ele><time>2026-05-02T10:50:28.996Z</time></trkpt><trkpt lat="43.3260782" lon="12.6122223"><ele>454.66666666666663</ele><time>2026-05-02T10:50:29.996Z</time></trkpt><trkpt lat="43.3259396" lon="12.6123853"><ele>455.0</ele><time>2026-05-02T10:50:30.993Z</time></trkpt><trkpt lat="43.3258054" lon="12.6125458"><ele>455.0</ele><time>2026-05-02T10:50:31.995Z</time></trkpt><trkpt lat="43.3256698" lon="12.6127042"><ele>455.0</ele><time>2026-05-02T10:50:32.997Z</time></trkpt><trkpt lat="43.3255416" lon="12.6128585"><ele>455.0</ele><time>2026-05-02T10:50:33.99Z</time></trkpt><trkpt lat="43.3254136" lon="12.6130148"><ele>453.3333333333333</ele><time>2026-05-02T10:50:34.994Z</time></trkpt><trkpt lat="43.3252839" lon="12.6131653"><ele>451.66666666666663</ele><time>2026-05-02T10:50:35.996Z</time></trkpt><trkpt lat="43.32515" lon="12.6133235"><ele>450.0</ele><time>2026-05-02T10:50:36.995Z</time></trkpt><trkpt lat="43.325015" lon="12.6134814"><ele>450.0</ele><time>2026-05-02T10:50:37.995Z</time></trkpt><trkpt lat="43.3248851" lon="12.613634"><ele>450.0</ele><time>2026-05-02T10:50:38.995Z</time></trkpt><trkpt lat="43.3247637" lon="12.6137871"><ele>450.0</ele><time>2026-05-02T10:50:39.995Z</time></trkpt><trkpt lat="43.3246387" lon="12.6139466"><ele>449.66666666666663</ele><time>2026-05-02T10:50:40.993Z</time></trkpt><trkpt lat="43.3245122" lon="12.6141019"><ele>449.3333333333333</ele><time>2026-05-02T10:50:41.995Z</time></trkpt><trkpt lat="43.3243794" lon="12.6142595"><ele>449.0</ele><time>2026-05-02T10:50:42.995Z</time></trkpt><trkpt lat="43.3242411" lon="12.6144227"><ele>449.3333333333333</ele><time>2026-05-02T10:50:43.987Z</time></trkpt><trkpt lat="43.3241042" lon="12.614587"><ele>449.66666666666663</ele><time>2026-05-02T10:50:44.986Z</time></trkpt><trkpt lat="43.3239644" lon="12.6147464"><ele>450.0</ele><time>2026-05-02T10:50:45.99Z</time></trkpt><trkpt lat="43.3238125" lon="12.6148988"><ele>450.0</ele><time>2026-05-02T10:50:46.994Z</time></trkpt><trkpt lat="43.3236507" lon="12.6150422"><ele>450.0</ele><time>2026-05-02T10:50:47.987Z</time></trkpt><trkpt lat="43.3234923" lon="12.6151801"><ele>450.0</ele><time>2026-05-02T10:50:48.987Z</time></trkpt><trkpt lat="43.3233333" lon="12.6153102"><ele>450.0</ele><time>2026-05-02T10:50:49.991Z</time></trkpt><trkpt lat="43.3231754" lon="12.6154325"><ele>450.0</ele><time>2026-05-02T10:50:51.004Z</time></trkpt><trkpt lat="43.3230214" lon="12.6155569"><ele>450.0</ele><time>2026-05-02T10:50:52.01Z</time></trkpt><trkpt lat="43.3228746" lon="12.6156755"><ele>450.0</ele><time>2026-05-02T10:50:52.99Z</time></trkpt><trkpt lat="43.3227347" lon="12.6157897"><ele>450.0</ele><time>2026-05-02T10:50:54.002Z</time></trkpt><trkpt lat="43.3226047" lon="12.6159"><ele>450.0</ele><time>2026-05-02T10:50:55.004Z</time></trkpt><trkpt lat="43.3224679" lon="12.6160128"><ele>450.0</ele><time>2026-05-02T10:50:56.01Z</time></trkpt><trkpt lat="43.3223309" lon="12.6161283"><ele>450.0</ele><time>2026-05-02T10:50:57.001Z</time></trkpt><trkpt lat="43.3221964" lon="12.6162402"><ele>450.0</ele><time>2026-05-02T10:50:58.008Z</time></trkpt><trkpt lat="43.32206" lon="12.6163511"><ele>449.33333333333337</ele><time>2026-05-02T10:50:58.99Z</time></trkpt><trkpt lat="43.3219211" lon="12.6164639"><ele>448.6666666666667</ele><time>2026-05-02T10:50:59.992Z</time></trkpt><trkpt lat="43.321781" lon="12.6165804"><ele>448.0</ele><time>2026-05-02T10:51:01.005Z</time></trkpt><trkpt lat="43.3216386" lon="12.616705"><ele>448.0</ele><time>2026-05-02T10:51:01.99Z</time></trkpt><trkpt lat="43.3214927" lon="12.6168386"><ele>448.0</ele><time>2026-05-02T10:51:02.991Z</time></trkpt><trkpt lat="43.3213483" lon="12.616984"><ele>448.0</ele><time>2026-05-02T10:51:03.992Z</time></trkpt><trkpt lat="43.3212066" lon="12.6171192"><ele>448.0</ele><time>2026-05-02T10:51:04.996Z</time></trkpt><trkpt lat="43.3210675" lon="12.6172519"><ele>448.0</ele><time>2026-05-02T10:51:05.995Z</time></trkpt><trkpt lat="43.3209358" lon="12.6173786"><ele>448.0</ele><time>2026-05-02T10:51:06.993Z</time></trkpt><trkpt lat="43.3207993" lon="12.617511"><ele>448.0</ele><time>2026-05-02T10:51:08Z</time></trkpt><trkpt lat="43.3206608" lon="12.617646"><ele>448.0</ele><time>2026-05-02T10:51:08.989Z</time></trkpt><trkpt lat="43.3205216" lon="12.6177818"><ele>448.0</ele><time>2026-05-02T10:51:09.997Z</time></trkpt><trkpt lat="43.3203932" lon="12.6179171"><ele>447.5</ele><time>2026-05-02T10:51:11.008Z</time></trkpt><trkpt lat="43.3202697" lon="12.6180534"><ele>447.0</ele><time>2026-05-02T10:51:12Z</time></trkpt><trkpt lat="43.3201596" lon="12.6181828"><ele>446.5</ele><time>2026-05-02T10:51:12.991Z</time></trkpt><trkpt lat="43.3200524" lon="12.618303"><ele>446.0</ele><time>2026-05-02T10:51:13.993Z</time></trkpt><trkpt lat="43.3199437" lon="12.6184269"><ele>446.0</ele><time>2026-05-02T10:51:14.986Z</time></trkpt><trkpt lat="43.3198353" lon="12.6185545"><ele>446.0</ele><time>2026-05-02T10:51:15.986Z</time></trkpt><trkpt lat="43.3197272" lon="12.6186816"><ele>446.0</ele><time>2026-05-02T10:51:16.987Z</time></trkpt><trkpt lat="43.3196089" lon="12.6188147"><ele>446.0</ele><time>2026-05-02T10:51:17.993Z</time></trkpt><trkpt lat="43.3194936" lon="12.6189291"><ele>445.5</ele><time>2026-05-02T10:51:18.999Z</time></trkpt><trkpt lat="43.319385" lon="12.6190565"><ele>445.0</ele><time>2026-05-02T10:51:19.991Z</time></trkpt><trkpt lat="43.3192769" lon="12.6191803"><ele>444.5</ele><time>2026-05-02T10:51:20.989Z</time></trkpt><trkpt lat="43.31918" lon="12.6193089"><ele>444.0</ele><time>2026-05-02T10:51:21.987Z</time></trkpt><trkpt lat="43.3190709" lon="12.6194254"><ele>443.75</ele><time>2026-05-02T10:51:22.978Z</time></trkpt><trkpt lat="43.3189648" lon="12.6195443"><ele>443.5</ele><time>2026-05-02T10:51:23.982Z</time></trkpt><trkpt lat="43.3188605" lon="12.6196666"><ele>443.25</ele><time>2026-05-02T10:51:24.988Z</time></trkpt><trkpt lat="43.3187507" lon="12.6197886"><ele>443.0</ele><time>2026-05-02T10:51:25.989Z</time></trkpt><trkpt lat="43.3186552" lon="12.6198957"><ele>443.0</ele><time>2026-05-02T10:51:26.981Z</time></trkpt><trkpt lat="43.3185629" lon="12.6200023"><ele>442.99999999999994</ele><time>2026-05-02T10:51:27.996Z</time></trkpt><trkpt lat="43.3184774" lon="12.6200999"><ele>442.99999999999994</ele><time>2026-05-02T10:51:28.987Z</time></trkpt><trkpt lat="43.3183919" lon="12.6201907"><ele>443.0</ele><time>2026-05-02T10:51:29.991Z</time></trkpt><trkpt lat="43.3183113" lon="12.6202813"><ele>443.0</ele><time>2026-05-02T10:51:30.99Z</time></trkpt><trkpt lat="43.3182268" lon="12.6203683"><ele>443.2</ele><time>2026-05-02T10:51:31.991Z</time></trkpt><trkpt lat="43.3181402" lon="12.6204512"><ele>443.4</ele><time>2026-05-02T10:51:32.986Z</time></trkpt><trkpt lat="43.3180524" lon="12.6205411"><ele>443.59999999999997</ele><time>2026-05-02T10:51:33.983Z</time></trkpt><trkpt lat="43.3179722" lon="12.6206283"><ele>443.79999999999995</ele><time>2026-05-02T10:51:34.995Z</time></trkpt><trkpt lat="43.3178895" lon="12.6207206"><ele>444.0</ele><time>2026-05-02T10:51:35.988Z</time></trkpt><trkpt lat="43.3178084" lon="12.6208106"><ele>444.0</ele><time>2026-05-02T10:51:36.994Z</time></trkpt><trkpt lat="43.3177224" lon="12.6209066"><ele>444.0</ele><time>2026-05-02T10:51:37.981Z</time></trkpt><trkpt lat="43.31763" lon="12.621006"><ele>444.0</ele><time>2026-05-02T10:51:38.998Z</time></trkpt><trkpt lat="43.3175364" lon="12.6210909"><ele>444.0</ele><time>2026-05-02T10:51:39.991Z</time></trkpt><trkpt lat="43.3174419" lon="12.621191"><ele>444.0</ele><time>2026-05-02T10:51:40.983Z</time></trkpt><trkpt lat="43.3173509" lon="12.6212928"><ele>444.0</ele><time>2026-05-02T10:51:41.991Z</time></trkpt><trkpt lat="43.3172618" lon="12.6213881"><ele>444.0</ele><time>2026-05-02T10:51:42.99Z</time></trkpt><trkpt lat="43.3171722" lon="12.6214954"><ele>444.0</ele><time>2026-05-02T10:51:43.989Z</time></trkpt><trkpt lat="43.3170818" lon="12.6215978"><ele>444.0</ele><time>2026-05-02T10:51:44.982Z</time></trkpt><trkpt lat="43.3169811" lon="12.6217052"><ele>444.0</ele><time>2026-05-02T10:51:45.983Z</time></trkpt><trkpt lat="43.3168815" lon="12.6218098"><ele>444.0</ele><time>2026-05-02T10:51:46.985Z</time></trkpt><trkpt lat="43.3167853" lon="12.6219161"><ele>444.0</ele><time>2026-05-02T10:51:47.992Z</time></trkpt><trkpt lat="43.3166925" lon="12.6220217"><ele>444.0</ele><time>2026-05-02T10:51:48.983Z</time></trkpt><trkpt lat="43.3166002" lon="12.6221288"><ele>444.0</ele><time>2026-05-02T10:51:49.984Z</time></trkpt><trkpt lat="43.3165074" lon="12.6222347"><ele>444.0</ele><time>2026-05-02T10:51:50.981Z</time></trkpt><trkpt lat="43.316409" lon="12.6223437"><ele>444.0</ele><time>2026-05-02T10:51:51.987Z</time></trkpt><trkpt lat="43.3163132" lon="12.6224599"><ele>443.5</ele><time>2026-05-02T10:51:52.996Z</time></trkpt><trkpt lat="43.3162066" lon="12.6225709"><ele>443.0</ele><time>2026-05-02T10:51:53.995Z</time></trkpt><trkpt lat="43.3160974" lon="12.6226858"><ele>442.5</ele><time>2026-05-02T10:51:54.987Z</time></trkpt><trkpt lat="43.3159814" lon="12.622806"><ele>442.0</ele><time>2026-05-02T10:51:55.995Z</time></trkpt><trkpt lat="43.3158656" lon="12.6229372"><ele>441.5</ele><time>2026-05-02T10:51:56.991Z</time></trkpt><trkpt lat="43.3157489" lon="12.6230706"><ele>441.0</ele><time>2026-05-02T10:51:57.994Z</time></trkpt><trkpt lat="43.3156355" lon="12.6231995"><ele>440.5</ele><time>2026-05-02T10:51:58.99Z</time></trkpt><trkpt lat="43.3155235" lon="12.6233266"><ele>440.0</ele><time>2026-05-02T10:51:59.991Z</time></trkpt><trkpt lat="43.3154091" lon="12.6234515"><ele>440.0</ele><time>2026-05-02T10:52:00.983Z</time></trkpt><trkpt lat="43.3152961" lon="12.6235804"><ele>440.0</ele><time>2026-05-02T10:52:01.983Z</time></trkpt><trkpt lat="43.3151841" lon="12.6237119"><ele>440.0</ele><time>2026-05-02T10:52:02.989Z</time></trkpt><trkpt lat="43.3150644" lon="12.6238317"><ele>440.0</ele><time>2026-05-02T10:52:03.981Z</time></trkpt><trkpt lat="43.3149411" lon="12.6239554"><ele>440.0</ele><time>2026-05-02T10:52:04.987Z</time></trkpt><trkpt lat="43.3148135" lon="12.6240529"><ele>440.0</ele><time>2026-05-02T10:52:05.989Z</time></trkpt><trkpt lat="43.3146885" lon="12.6241263"><ele>440.0</ele><time>2026-05-02T10:52:06.984Z</time></trkpt><trkpt lat="43.3145647" lon="12.6241678"><ele>440.0</ele><time>2026-05-02T10:52:07.986Z</time></trkpt><trkpt lat="43.3144328" lon="12.6241849"><ele>440.0</ele><time>2026-05-02T10:52:08.994Z</time></trkpt><trkpt lat="43.3143131" lon="12.6241945"><ele>440.0</ele><time>2026-05-02T10:52:09.988Z</time></trkpt><trkpt lat="43.3142263" lon="12.6241968"><ele>440.0</ele><time>2026-05-02T10:52:10.99Z</time></trkpt><trkpt lat="43.314148" lon="12.6241999"><ele>440.0</ele><time>2026-05-02T10:52:11.99Z</time></trkpt><trkpt lat="43.3140603" lon="12.6242068"><ele>440.0</ele><time>2026-05-02T10:52:12.99Z</time></trkpt><trkpt lat="43.3139519" lon="12.6242221"><ele>438.75</ele><time>2026-05-02T10:52:13.98Z</time></trkpt><trkpt lat="43.3138347" lon="12.6242528"><ele>437.5</ele><time>2026-05-02T10:52:14.998Z</time></trkpt><trkpt lat="43.3137025" lon="12.6243038"><ele>436.25</ele><time>2026-05-02T10:52:15.984Z</time></trkpt><trkpt lat="43.3135775" lon="12.624365"><ele>435.0</ele><time>2026-05-02T10:52:16.985Z</time></trkpt><trkpt lat="43.3134469" lon="12.624459"><ele>437.33333333333337</ele><time>2026-05-02T10:52:17.981Z</time></trkpt><trkpt lat="43.3133189" lon="12.6245753"><ele>439.6666666666667</ele><time>2026-05-02T10:52:18.985Z</time></trkpt><trkpt lat="43.3132026" lon="12.6247226"><ele>442.0</ele><time>2026-05-02T10:52:19.983Z</time></trkpt><trkpt lat="43.3131052" lon="12.6248845"><ele>437.6666666666667</ele><time>2026-05-02T10:52:20.988Z</time></trkpt><trkpt lat="43.3130248" lon="12.6250606"><ele>433.33333333333337</ele><time>2026-05-02T10:52:21.99Z</time></trkpt><trkpt lat="43.3129578" lon="12.625248"><ele>429.0</ele><time>2026-05-02T10:52:22.985Z</time></trkpt><trkpt lat="43.3129115" lon="12.6254457"><ele>429.0</ele><time>2026-05-02T10:52:23.986Z</time></trkpt><trkpt lat="43.3128725" lon="12.6256479"><ele>429.0</ele><time>2026-05-02T10:52:24.986Z</time></trkpt><trkpt lat="43.3128327" lon="12.6258514"><ele>429.0</ele><time>2026-05-02T10:52:25.989Z</time></trkpt><trkpt lat="43.3127965" lon="12.626056"><ele>428.66666666666663</ele><time>2026-05-02T10:52:26.982Z</time></trkpt><trkpt lat="43.3127513" lon="12.6262616"><ele>428.3333333333333</ele><time>2026-05-02T10:52:27.998Z</time></trkpt><trkpt lat="43.3127088" lon="12.6264651"><ele>428.0</ele><time>2026-05-02T10:52:28.984Z</time></trkpt><trkpt lat="43.3126669" lon="12.6266719"><ele>428.0</ele><time>2026-05-02T10:52:29.983Z</time></trkpt><trkpt lat="43.3126222" lon="12.6268728"><ele>428.0</ele><time>2026-05-02T10:52:30.986Z</time></trkpt><trkpt lat="43.3125715" lon="12.627072"><ele>428.0</ele><time>2026-05-02T10:52:31.987Z</time></trkpt><trkpt lat="43.3125193" lon="12.6272699"><ele>428.66666666666663</ele><time>2026-05-02T10:52:32.985Z</time></trkpt><trkpt lat="43.3124632" lon="12.6274653"><ele>429.33333333333337</ele><time>2026-05-02T10:52:33.99Z</time></trkpt><trkpt lat="43.3123997" lon="12.6276601"><ele>430.0</ele><time>2026-05-02T10:52:34.986Z</time></trkpt><trkpt lat="43.312323" lon="12.6278524"><ele>429.0</ele><time>2026-05-02T10:52:35.992Z</time></trkpt><trkpt lat="43.3122533" lon="12.6280405"><ele>428.0</ele><time>2026-05-02T10:52:36.993Z</time></trkpt><trkpt lat="43.3121822" lon="12.6282316"><ele>427.0</ele><time>2026-05-02T10:52:37.987Z</time></trkpt><trkpt lat="43.3121079" lon="12.6284212"><ele>427.0</ele><time>2026-05-02T10:52:39.001Z</time></trkpt><trkpt lat="43.3120373" lon="12.6286117"><ele>427.0</ele><time>2026-05-02T10:52:39.989Z</time></trkpt><trkpt lat="43.3119697" lon="12.6288002"><ele>427.0</ele><time>2026-05-02T10:52:40.998Z</time></trkpt><trkpt lat="43.3119057" lon="12.628975"><ele>427.75</ele><time>2026-05-02T10:52:41.977Z</time></trkpt><trkpt lat="43.3118398" lon="12.629146"><ele>428.5</ele><time>2026-05-02T10:52:42.991Z</time></trkpt><trkpt lat="43.3117711" lon="12.6293209"><ele>429.25</ele><time>2026-05-02T10:52:43.99Z</time></trkpt><trkpt lat="43.3116986" lon="12.6295047"><ele>430.0</ele><time>2026-05-02T10:52:44.99Z</time></trkpt><trkpt lat="43.3116273" lon="12.6296982"><ele>430.0</ele><time>2026-05-02T10:52:45.994Z</time></trkpt><trkpt lat="43.3115549" lon="12.6298995"><ele>430.0</ele><time>2026-05-02T10:52:46.985Z</time></trkpt><trkpt lat="43.3114908" lon="12.6301045"><ele>430.0</ele><time>2026-05-02T10:52:47.984Z</time></trkpt><trkpt lat="43.3114309" lon="12.6303128"><ele>428.6666666666667</ele><time>2026-05-02T10:52:48.986Z</time></trkpt><trkpt lat="43.3113815" lon="12.6305239"><ele>427.33333333333337</ele><time>2026-05-02T10:52:49.988Z</time></trkpt><trkpt lat="43.3113362" lon="12.6307345"><ele>426.0</ele><time>2026-05-02T10:52:50.992Z</time></trkpt><trkpt lat="43.3112965" lon="12.6309475"><ele>426.33333333333337</ele><time>2026-05-02T10:52:51.987Z</time></trkpt><trkpt lat="43.311268" lon="12.6311631"><ele>426.6666666666667</ele><time>2026-05-02T10:52:52.994Z</time></trkpt><trkpt lat="43.3112361" lon="12.6313816"><ele>427.0</ele><time>2026-05-02T10:52:53.992Z</time></trkpt><trkpt lat="43.3112051" lon="12.6315989"><ele>427.0</ele><time>2026-05-02T10:52:54.988Z</time></trkpt><trkpt lat="43.3111701" lon="12.6318106"><ele>427.0</ele><time>2026-05-02T10:52:55.99Z</time></trkpt><trkpt lat="43.3111359" lon="12.632024"><ele>427.0</ele><time>2026-05-02T10:52:56.995Z</time></trkpt><trkpt lat="43.3111017" lon="12.6322421"><ele>426.6666666666667</ele><time>2026-05-02T10:52:58Z</time></trkpt><trkpt lat="43.3110675" lon="12.6324617"><ele>426.33333333333337</ele><time>2026-05-02T10:52:58.993Z</time></trkpt><trkpt lat="43.3110344" lon="12.6326767"><ele>426.0</ele><time>2026-05-02T10:53:00.009Z</time></trkpt><trkpt lat="43.3109997" lon="12.6328922"><ele>426.66666666666663</ele><time>2026-05-02T10:53:00.991Z</time></trkpt><trkpt lat="43.3109598" lon="12.6331092"><ele>427.3333333333333</ele><time>2026-05-02T10:53:02.001Z</time></trkpt><trkpt lat="43.3109222" lon="12.6333212"><ele>428.0</ele><time>2026-05-02T10:53:02.988Z</time></trkpt><trkpt lat="43.3108808" lon="12.6335357"><ele>428.66666666666663</ele><time>2026-05-02T10:53:03.994Z</time></trkpt><trkpt lat="43.3108419" lon="12.6337479"><ele>429.33333333333337</ele><time>2026-05-02T10:53:04.985Z</time></trkpt><trkpt lat="43.3107963" lon="12.6339503"><ele>430.0</ele><time>2026-05-02T10:53:05.986Z</time></trkpt><trkpt lat="43.3107385" lon="12.6341408"><ele>430.0</ele><time>2026-05-02T10:53:06.991Z</time></trkpt><trkpt lat="43.3106604" lon="12.6343171"><ele>430.0</ele><time>2026-05-02T10:53:07.987Z</time></trkpt><trkpt lat="43.3105659" lon="12.634482"><ele>430.0</ele><time>2026-05-02T10:53:08.979Z</time></trkpt><trkpt lat="43.3104657" lon="12.6346353"><ele>430.5</ele><time>2026-05-02T10:53:09.983Z</time></trkpt><trkpt lat="43.3103631" lon="12.6347884"><ele>431.0</ele><time>2026-05-02T10:53:10.991Z</time></trkpt><trkpt lat="43.3102708" lon="12.6349326"><ele>431.5</ele><time>2026-05-02T10:53:11.987Z</time></trkpt><trkpt lat="43.3101815" lon="12.6350699"><ele>432.0</ele><time>2026-05-02T10:53:12.987Z</time></trkpt><trkpt lat="43.3100926" lon="12.6352153"><ele>432.0</ele><time>2026-05-02T10:53:13.986Z</time></trkpt><trkpt lat="43.309997" lon="12.6353602"><ele>432.0</ele><time>2026-05-02T10:53:15.001Z</time></trkpt><trkpt lat="43.3098972" lon="12.6355076"><ele>432.0</ele><time>2026-05-02T10:53:15.989Z</time></trkpt><trkpt lat="43.3097986" lon="12.6356557"><ele>432.0</ele><time>2026-05-02T10:53:16.992Z</time></trkpt><trkpt lat="43.3097014" lon="12.6358142"><ele>432.0</ele><time>2026-05-02T10:53:17.99Z</time></trkpt><trkpt lat="43.3095945" lon="12.635967"><ele>432.0</ele><time>2026-05-02T10:53:18.996Z</time></trkpt><trkpt lat="43.3094889" lon="12.6361214"><ele>432.0</ele><time>2026-05-02T10:53:19.996Z</time></trkpt><trkpt lat="43.3093823" lon="12.6362966"><ele>432.33333333333337</ele><time>2026-05-02T10:53:20.993Z</time></trkpt><trkpt lat="43.3092758" lon="12.6364719"><ele>432.6666666666667</ele><time>2026-05-02T10:53:21.991Z</time></trkpt><trkpt lat="43.3091696" lon="12.636648"><ele>433.0</ele><time>2026-05-02T10:53:22.999Z</time></trkpt><trkpt lat="43.3090613" lon="12.6368245"><ele>432.6666666666667</ele><time>2026-05-02T10:53:23.992Z</time></trkpt><trkpt lat="43.308946" lon="12.6369934"><ele>432.33333333333337</ele><time>2026-05-02T10:53:24.991Z</time></trkpt><trkpt lat="43.3088279" lon="12.6371722"><ele>432.0</ele><time>2026-05-02T10:53:25.99Z</time></trkpt><trkpt lat="43.3087146" lon="12.6373514"><ele>432.0</ele><time>2026-05-02T10:53:26.988Z</time></trkpt><trkpt lat="43.3086022" lon="12.6375291"><ele>432.0</ele><time>2026-05-02T10:53:27.985Z</time></trkpt><trkpt lat="43.3084912" lon="12.637702"><ele>432.0</ele><time>2026-05-02T10:53:28.985Z</time></trkpt><trkpt lat="43.3083811" lon="12.6378659"><ele>433.0</ele><time>2026-05-02T10:53:29.99Z</time></trkpt><trkpt lat="43.3082668" lon="12.638023"><ele>434.0</ele><time>2026-05-02T10:53:30.985Z</time></trkpt><trkpt lat="43.3081503" lon="12.6381818"><ele>435.0</ele><time>2026-05-02T10:53:31.99Z</time></trkpt><trkpt lat="43.3080231" lon="12.6383536"><ele>433.0</ele><time>2026-05-02T10:53:32.991Z</time></trkpt><trkpt lat="43.3078969" lon="12.6385337"><ele>431.0</ele><time>2026-05-02T10:53:34.002Z</time></trkpt><trkpt lat="43.3077689" lon="12.638714"><ele>429.0</ele><time>2026-05-02T10:53:35.004Z</time></trkpt><trkpt lat="43.3076422" lon="12.6388933"><ele>429.0</ele><time>2026-05-02T10:53:35.998Z</time></trkpt><trkpt lat="43.3075171" lon="12.6390715"><ele>429.0</ele><time>2026-05-02T10:53:36.995Z</time></trkpt><trkpt lat="43.3073978" lon="12.6392476"><ele>429.0</ele><time>2026-05-02T10:53:37.994Z</time></trkpt><trkpt lat="43.3072771" lon="12.6394252"><ele>428.33333333333337</ele><time>2026-05-02T10:53:39Z</time></trkpt><trkpt lat="43.3071581" lon="12.6396029"><ele>427.6666666666667</ele><time>2026-05-02T10:53:39.989Z</time></trkpt><trkpt lat="43.3070384" lon="12.6397799"><ele>427.0</ele><time>2026-05-02T10:53:41.005Z</time></trkpt><trkpt lat="43.3069266" lon="12.6399609"><ele>427.0</ele><time>2026-05-02T10:53:41.995Z</time></trkpt><trkpt lat="43.3068139" lon="12.6401339"><ele>427.0</ele><time>2026-05-02T10:53:42.995Z</time></trkpt><trkpt lat="43.306708" lon="12.6402893"><ele>427.0</ele><time>2026-05-02T10:53:43.994Z</time></trkpt><trkpt lat="43.3066107" lon="12.6404391"><ele>427.5</ele><time>2026-05-02T10:53:44.996Z</time></trkpt><trkpt lat="43.3065199" lon="12.6405786"><ele>428.0</ele><time>2026-05-02T10:53:45.99Z</time></trkpt><trkpt lat="43.3064368" lon="12.6407102"><ele>428.5</ele><time>2026-05-02T10:53:46.979Z</time></trkpt><trkpt lat="43.3063645" lon="12.6408272"><ele>429.0</ele><time>2026-05-02T10:53:47.982Z</time></trkpt><trkpt lat="43.3062955" lon="12.6409374"><ele>428.3333333333333</ele><time>2026-05-02T10:53:48.996Z</time></trkpt><trkpt lat="43.3062285" lon="12.6410313"><ele>427.66666666666663</ele><time>2026-05-02T10:53:49.987Z</time></trkpt><trkpt lat="43.3061711" lon="12.6411192"><ele>427.0</ele><time>2026-05-02T10:53:50.995Z</time></trkpt><trkpt lat="43.3061222" lon="12.641201"><ele>426.3333333333333</ele><time>2026-05-02T10:53:51.999Z</time></trkpt><trkpt lat="43.3060879" lon="12.641278"><ele>425.66666666666663</ele><time>2026-05-02T10:53:53.001Z</time></trkpt><trkpt lat="43.3060921" lon="12.6414342"><ele>425.0</ele><time>2026-05-02T10:53:54.981Z</time></trkpt><trkpt lat="43.3061344" lon="12.6415042"><ele>425.0</ele><time>2026-05-02T10:53:55.986Z</time></trkpt><trkpt lat="43.3061959" lon="12.6415761"><ele>425.0</ele><time>2026-05-02T10:53:56.992Z</time></trkpt><trkpt lat="43.3062737" lon="12.6416431"><ele>425.0</ele><time>2026-05-02T10:53:57.993Z</time></trkpt><trkpt lat="43.3063455" lon="12.6417325"><ele>425.0</ele><time>2026-05-02T10:53:58.988Z</time></trkpt><trkpt lat="43.3064331" lon="12.6418199"><ele>425.0</ele><time>2026-05-02T10:53:59.992Z</time></trkpt><trkpt lat="43.3065278" lon="12.6419233"><ele>428.75</ele><time>2026-05-02T10:54:00.99Z</time></trkpt><trkpt lat="43.3066272" lon="12.6420209"><ele>432.5</ele><time>2026-05-02T10:54:01.997Z</time></trkpt><trkpt lat="43.3067302" lon="12.6421318"><ele>436.25</ele><time>2026-05-02T10:54:02.994Z</time></trkpt><trkpt lat="43.3068336" lon="12.6422608"><ele>440.0</ele><time>2026-05-02T10:54:03.994Z</time></trkpt><trkpt lat="43.3069328" lon="12.6423997"><ele>440.0</ele><time>2026-05-02T10:54:04.998Z</time></trkpt><trkpt lat="43.3070166" lon="12.6425513"><ele>440.0</ele><time>2026-05-02T10:54:05.986Z</time></trkpt><trkpt lat="43.3070934" lon="12.6427064"><ele>440.0</ele><time>2026-05-02T10:54:06.996Z</time></trkpt><trkpt lat="43.3071628" lon="12.6428602"><ele>440.0</ele><time>2026-05-02T10:54:07.992Z</time></trkpt><trkpt lat="43.307239" lon="12.6430183"><ele>445.25</ele><time>2026-05-02T10:54:09Z</time></trkpt><trkpt lat="43.3073234" lon="12.6431683"><ele>450.5</ele><time>2026-05-02T10:54:10.011Z</time></trkpt><trkpt lat="43.3074102" lon="12.6433132"><ele>455.75</ele><time>2026-05-02T10:54:11.007Z</time></trkpt><trkpt lat="43.3074989" lon="12.643457"><ele>461.0</ele><time>2026-05-02T10:54:11.988Z</time></trkpt><trkpt lat="43.3075854" lon="12.643594"><ele>464.3333333333333</ele><time>2026-05-02T10:54:12.99Z</time></trkpt><trkpt lat="43.3076574" lon="12.6437135"><ele>467.66666666666663</ele><time>2026-05-02T10:54:13.985Z</time></trkpt><trkpt lat="43.3077143" lon="12.6438087"><ele>471.0</ele><time>2026-05-02T10:54:14.989Z</time></trkpt><trkpt lat="43.3077562" lon="12.6438831"><ele>474.33333333333337</ele><time>2026-05-02T10:54:15.992Z</time></trkpt><trkpt lat="43.3078008" lon="12.643965"><ele>477.6666666666667</ele><time>2026-05-02T10:54:16.992Z</time></trkpt><trkpt lat="43.3078416" lon="12.6440514"><ele>481.0</ele><time>2026-05-02T10:54:17.99Z</time></trkpt><trkpt lat="43.3078728" lon="12.6441402"><ele>481.00000000000006</ele><time>2026-05-02T10:54:18.991Z</time></trkpt><trkpt lat="43.307902" lon="12.6442393"><ele>481.0</ele><time>2026-05-02T10:54:19.99Z</time></trkpt><trkpt lat="43.3079276" lon="12.6443348"><ele>481.0</ele><time>2026-05-02T10:54:20.99Z</time></trkpt><trkpt lat="43.3079571" lon="12.6444231"><ele>481.0</ele><time>2026-05-02T10:54:21.984Z</time></trkpt><trkpt lat="43.3079957" lon="12.6444958"><ele>481.00000000000006</ele><time>2026-05-02T10:54:22.987Z</time></trkpt><trkpt lat="43.3080978" lon="12.6445696"><ele>481.0</ele><time>2026-05-02T10:54:24.992Z</time></trkpt><trkpt lat="43.3081958" lon="12.644603"><ele>482.50000000000006</ele><time>2026-05-02T10:54:26.991Z</time></trkpt><trkpt lat="43.3082963" lon="12.6446218"><ele>484.0</ele><time>2026-05-02T10:54:28.989Z</time></trkpt><trkpt lat="43.3083691" lon="12.6447078"><ele>485.5</ele><time>2026-05-02T10:54:30.99Z</time></trkpt><trkpt lat="43.308342" lon="12.6448543"><ele>487.0</ele><time>2026-05-02T10:54:32.989Z</time></trkpt><trkpt lat="43.3083011" lon="12.6449276"><ele>488.50000000000006</ele><time>2026-05-02T10:54:33.989Z</time></trkpt><trkpt lat="43.3082568" lon="12.6449949"><ele>490.0</ele><time>2026-05-02T10:54:34.998Z</time></trkpt><trkpt lat="43.3082135" lon="12.6450604"><ele>490.0</ele><time>2026-05-02T10:54:36.001Z</time></trkpt><trkpt lat="43.3081727" lon="12.6451328"><ele>490.0</ele><time>2026-05-02T10:54:36.989Z</time></trkpt><trkpt lat="43.308095" lon="12.6452603"><ele>490.0</ele><time>2026-05-02T10:54:38.99Z</time></trkpt><trkpt lat="43.3080038" lon="12.6453714"><ele>490.0</ele><time>2026-05-02T10:54:41.002Z</time></trkpt><trkpt lat="43.3079323" lon="12.6453945"><ele>490.0</ele><time>2026-05-02T10:54:41.991Z</time></trkpt><trkpt lat="43.3078555" lon="12.6454069"><ele>491.6</ele><time>2026-05-02T10:54:42.998Z</time></trkpt><trkpt lat="43.307788" lon="12.6454094"><ele>493.2</ele><time>2026-05-02T10:54:43.997Z</time></trkpt><trkpt lat="43.3076784" lon="12.6453938"><ele>494.79999999999995</ele><time>2026-05-02T10:54:45.987Z</time></trkpt><trkpt lat="43.307577" lon="12.6453652"><ele>496.4</ele><time>2026-05-02T10:54:48.002Z</time></trkpt><trkpt lat="43.3074909" lon="12.6454093"><ele>498.0</ele><time>2026-05-02T10:54:50Z</time></trkpt><trkpt lat="43.3074353" lon="12.6455517"><ele>498.0</ele><time>2026-05-02T10:54:51.991Z</time></trkpt><trkpt lat="43.3074269" lon="12.6456657"><ele>497.99999999999994</ele><time>2026-05-02T10:54:52.996Z</time></trkpt><trkpt lat="43.307431" lon="12.6457884"><ele>497.99999999999994</ele><time>2026-05-02T10:54:53.999Z</time></trkpt><trkpt lat="43.3074327" lon="12.6459195"><ele>498.0</ele><time>2026-05-02T10:54:54.987Z</time></trkpt><trkpt lat="43.3074287" lon="12.6460524"><ele>498.0</ele><time>2026-05-02T10:54:55.992Z</time></trkpt><trkpt lat="43.3074187" lon="12.6461686"><ele>499.4285714285714</ele><time>2026-05-02T10:54:56.99Z</time></trkpt><trkpt lat="43.3074117" lon="12.6462732"><ele>500.8571428571428</ele><time>2026-05-02T10:54:57.996Z</time></trkpt><trkpt lat="43.307408" lon="12.6463735"><ele>502.2857142857143</ele><time>2026-05-02T10:54:58.988Z</time></trkpt><trkpt lat="43.3074094" lon="12.6464765"><ele>503.71428571428567</ele><time>2026-05-02T10:54:59.995Z</time></trkpt><trkpt lat="43.3074091" lon="12.6465793"><ele>505.1428571428571</ele><time>2026-05-02T10:55:00.994Z</time></trkpt><trkpt lat="43.307407" lon="12.6466771"><ele>506.57142857142856</ele><time>2026-05-02T10:55:01.989Z</time></trkpt><trkpt lat="43.3074039" lon="12.6467761"><ele>508.0</ele><time>2026-05-02T10:55:02.994Z</time></trkpt><trkpt lat="43.3074024" lon="12.6468773"><ele>507.83333333333337</ele><time>2026-05-02T10:55:03.993Z</time></trkpt><trkpt lat="43.3073998" lon="12.6469728"><ele>507.6666666666667</ele><time>2026-05-02T10:55:04.983Z</time></trkpt><trkpt lat="43.3074032" lon="12.647061"><ele>507.5</ele><time>2026-05-02T10:55:05.986Z</time></trkpt><trkpt lat="43.3074104" lon="12.6471974"><ele>507.33333333333337</ele><time>2026-05-02T10:55:07.992Z</time></trkpt><trkpt lat="43.30743" lon="12.6473149"><ele>507.1666666666667</ele><time>2026-05-02T10:55:09.994Z</time></trkpt><trkpt lat="43.3074574" lon="12.647458"><ele>507.0</ele><time>2026-05-02T10:55:11.996Z</time></trkpt><trkpt lat="43.3074781" lon="12.6475476"><ele>507.0</ele><time>2026-05-02T10:55:12.997Z</time></trkpt><trkpt lat="43.3075106" lon="12.647641"><ele>507.0</ele><time>2026-05-02T10:55:14.001Z</time></trkpt><trkpt lat="43.307556" lon="12.6477398"><ele>507.0</ele><time>2026-05-02T10:55:14.993Z</time></trkpt><trkpt lat="43.3076028" lon="12.6478398"><ele>507.0</ele><time>2026-05-02T10:55:15.983Z</time></trkpt><trkpt lat="43.307649" lon="12.647937"><ele>507.0</ele><time>2026-05-02T10:55:16.989Z</time></trkpt><trkpt lat="43.3076925" lon="12.6480365"><ele>507.0</ele><time>2026-05-02T10:55:17.992Z</time></trkpt><trkpt lat="43.3077325" lon="12.6481446"><ele>505.71428571428567</ele><time>2026-05-02T10:55:18.995Z</time></trkpt><trkpt lat="43.3077525" lon="12.6482627"><ele>504.42857142857144</ele><time>2026-05-02T10:55:19.993Z</time></trkpt><trkpt lat="43.3077456" lon="12.6483684"><ele>503.1428571428571</ele><time>2026-05-02T10:55:20.995Z</time></trkpt><trkpt lat="43.3077237" lon="12.648467"><ele>501.85714285714283</ele><time>2026-05-02T10:55:21.99Z</time></trkpt><trkpt lat="43.3076934" lon="12.6485509"><ele>500.57142857142856</ele><time>2026-05-02T10:55:22.988Z</time></trkpt><trkpt lat="43.3076717" lon="12.6486329"><ele>499.2857142857143</ele><time>2026-05-02T10:55:23.995Z</time></trkpt><trkpt lat="43.3076608" lon="12.6487233"><ele>498.0</ele><time>2026-05-02T10:55:24.994Z</time></trkpt><trkpt lat="43.3076682" lon="12.6488278"><ele>497.79999999999995</ele><time>2026-05-02T10:55:25.991Z</time></trkpt><trkpt lat="43.3076945" lon="12.6489505"><ele>497.59999999999997</ele><time>2026-05-02T10:55:26.996Z</time></trkpt><trkpt lat="43.3077267" lon="12.6490904"><ele>497.40000000000003</ele><time>2026-05-02T10:55:27.988Z</time></trkpt><trkpt lat="43.3077603" lon="12.6492176"><ele>497.20000000000005</ele><time>2026-05-02T10:55:29Z</time></trkpt><trkpt lat="43.3077857" lon="12.6493387"><ele>497.0</ele><time>2026-05-02T10:55:29.999Z</time></trkpt><trkpt lat="43.3078116" lon="12.6494841"><ele>497.5</ele><time>2026-05-02T10:55:30.989Z</time></trkpt><trkpt lat="43.307823" lon="12.6496596"><ele>498.0</ele><time>2026-05-02T10:55:31.991Z</time></trkpt><trkpt lat="43.3078108" lon="12.6498313"><ele>498.5</ele><time>2026-05-02T10:55:32.988Z</time></trkpt><trkpt lat="43.3077809" lon="12.6499989"><ele>499.0</ele><time>2026-05-02T10:55:33.987Z</time></trkpt><trkpt lat="43.307752" lon="12.650134"><ele>499.0</ele><time>2026-05-02T10:55:34.997Z</time></trkpt><trkpt lat="43.3077106" lon="12.6502496"><ele>499.0</ele><time>2026-05-02T10:55:35.991Z</time></trkpt><trkpt lat="43.307647" lon="12.6503571"><ele>499.0</ele><time>2026-05-02T10:55:36.996Z</time></trkpt><trkpt lat="43.307559" lon="12.6504644"><ele>499.0</ele><time>2026-05-02T10:55:38.006Z</time></trkpt><trkpt lat="43.3074847" lon="12.6505739"><ele>499.0</ele><time>2026-05-02T10:55:38.994Z</time></trkpt><trkpt lat="43.3074357" lon="12.6506858"><ele>500.83333333333337</ele><time>2026-05-02T10:55:39.982Z</time></trkpt><trkpt lat="43.3074035" lon="12.6508012"><ele>502.6666666666667</ele><time>2026-05-02T10:55:40.997Z</time></trkpt><trkpt lat="43.3073951" lon="12.6509217"><ele>504.5</ele><time>2026-05-02T10:55:41.996Z</time></trkpt><trkpt lat="43.3074075" lon="12.6510275"><ele>506.33333333333337</ele><time>2026-05-02T10:55:42.987Z</time></trkpt><trkpt lat="43.3074496" lon="12.6511272"><ele>508.1666666666667</ele><time>2026-05-02T10:55:43.988Z</time></trkpt><trkpt lat="43.307518" lon="12.6512153"><ele>510.0</ele><time>2026-05-02T10:55:45.007Z</time></trkpt><trkpt lat="43.3075876" lon="12.6512979"><ele>510.2</ele><time>2026-05-02T10:55:46.003Z</time></trkpt><trkpt lat="43.3076468" lon="12.651388"><ele>510.4</ele><time>2026-05-02T10:55:46.991Z</time></trkpt><trkpt lat="43.3077027" lon="12.6514739"><ele>510.6</ele><time>2026-05-02T10:55:47.997Z</time></trkpt><trkpt lat="43.3077524" lon="12.6515584"><ele>510.8</ele><time>2026-05-02T10:55:48.982Z</time></trkpt><trkpt lat="43.3077982" lon="12.6516597"><ele>511.0</ele><time>2026-05-02T10:55:50Z</time></trkpt><trkpt lat="43.3078637" lon="12.6517879"><ele>511.0</ele><time>2026-05-02T10:55:50.996Z</time></trkpt><trkpt lat="43.307932" lon="12.6519273"><ele>511.0</ele><time>2026-05-02T10:55:51.992Z</time></trkpt><trkpt lat="43.3080038" lon="12.6520484"><ele>511.0</ele><time>2026-05-02T10:55:52.99Z</time></trkpt><trkpt lat="43.3080828" lon="12.6521607"><ele>511.0</ele><time>2026-05-02T10:55:54.006Z</time></trkpt><trkpt lat="43.3081647" lon="12.652245"><ele>511.00000000000006</ele><time>2026-05-02T10:55:55.002Z</time></trkpt><trkpt lat="43.3082463" lon="12.6523246"><ele>511.0</ele><time>2026-05-02T10:55:55.995Z</time></trkpt><trkpt lat="43.3083089" lon="12.652418"><ele>511.0</ele><time>2026-05-02T10:55:56.989Z</time></trkpt><trkpt lat="43.3083563" lon="12.6525257"><ele>511.0</ele><time>2026-05-02T10:55:57.998Z</time></trkpt><trkpt lat="43.3083765" lon="12.6526264"><ele>511.00000000000006</ele><time>2026-05-02T10:55:58.999Z</time></trkpt><trkpt lat="43.3083776" lon="12.6527328"><ele>511.0</ele><time>2026-05-02T10:55:59.99Z</time></trkpt><trkpt lat="43.3083744" lon="12.6528523"><ele>511.0</ele><time>2026-05-02T10:56:00.985Z</time></trkpt><trkpt lat="43.3083734" lon="12.652982"><ele>511.0</ele><time>2026-05-02T10:56:01.992Z</time></trkpt><trkpt lat="43.3083772" lon="12.653109"><ele>511.0</ele><time>2026-05-02T10:56:02.995Z</time></trkpt><trkpt lat="43.3083992" lon="12.6532343"><ele>511.0</ele><time>2026-05-02T10:56:03.991Z</time></trkpt><trkpt lat="43.3084445" lon="12.6533554"><ele>511.0</ele><time>2026-05-02T10:56:04.996Z</time></trkpt><trkpt lat="43.3085021" lon="12.6534657"><ele>511.0</ele><time>2026-05-02T10:56:05.992Z</time></trkpt><trkpt lat="43.3085774" lon="12.65358"><ele>511.0</ele><time>2026-05-02T10:56:06.995Z</time></trkpt><trkpt lat="43.3086619" lon="12.6536917"><ele>511.0</ele><time>2026-05-02T10:56:08Z</time></trkpt><trkpt lat="43.3087482" lon="12.6538181"><ele>511.0</ele><time>2026-05-02T10:56:08.998Z</time></trkpt><trkpt lat="43.3088363" lon="12.6539456"><ele>514.5</ele><time>2026-05-02T10:56:09.995Z</time></trkpt><trkpt lat="43.308915" lon="12.6540712"><ele>518.0</ele><time>2026-05-02T10:56:10.998Z</time></trkpt><trkpt lat="43.3089951" lon="12.6541781"><ele>521.5</ele><time>2026-05-02T10:56:12.006Z</time></trkpt><trkpt lat="43.3090739" lon="12.654283"><ele>525.0</ele><time>2026-05-02T10:56:12.995Z</time></trkpt><trkpt lat="43.3091582" lon="12.6543825"><ele>519.0</ele><time>2026-05-02T10:56:13.99Z</time></trkpt><trkpt lat="43.3092514" lon="12.654471"><ele>513.0</ele><time>2026-05-02T10:56:14.997Z</time></trkpt><trkpt lat="43.3093632" lon="12.6545528"><ele>507.0</ele><time>2026-05-02T10:56:15.991Z</time></trkpt><trkpt lat="43.309473" lon="12.6546145"><ele>501.0</ele><time>2026-05-02T10:56:16.991Z</time></trkpt><trkpt lat="43.3095671" lon="12.6546858"><ele>501.0</ele><time>2026-05-02T10:56:17.991Z</time></trkpt><trkpt lat="43.3096532" lon="12.6547778"><ele>501.0</ele><time>2026-05-02T10:56:18.984Z</time></trkpt><trkpt lat="43.3097304" lon="12.6549015"><ele>501.0</ele><time>2026-05-02T10:56:19.985Z</time></trkpt><trkpt lat="43.309808" lon="12.6550304"><ele>501.0</ele><time>2026-05-02T10:56:20.985Z</time></trkpt><trkpt lat="43.3098904" lon="12.6551536"><ele>500.75</ele><time>2026-05-02T10:56:21.99Z</time></trkpt><trkpt lat="43.3099827" lon="12.6552522"><ele>500.5</ele><time>2026-05-02T10:56:22.99Z</time></trkpt><trkpt lat="43.3100844" lon="12.6553439"><ele>500.25</ele><time>2026-05-02T10:56:23.992Z</time></trkpt><trkpt lat="43.3102036" lon="12.6554209"><ele>500.0</ele><time>2026-05-02T10:56:24.99Z</time></trkpt><trkpt lat="43.3103294" lon="12.6554806"><ele>500.0</ele><time>2026-05-02T10:56:25.994Z</time></trkpt><trkpt lat="43.3104708" lon="12.6555312"><ele>500.0</ele><time>2026-05-02T10:56:26.997Z</time></trkpt><trkpt lat="43.3106168" lon="12.6555677"><ele>500.0</ele><time>2026-05-02T10:56:27.994Z</time></trkpt><trkpt lat="43.3107509" lon="12.6555975"><ele>500.0</ele><time>2026-05-02T10:56:28.993Z</time></trkpt><trkpt lat="43.3108701" lon="12.6556325"><ele>500.6</ele><time>2026-05-02T10:56:29.998Z</time></trkpt><trkpt lat="43.3109775" lon="12.6556782"><ele>501.2</ele><time>2026-05-02T10:56:30.984Z</time></trkpt><trkpt lat="43.3110702" lon="12.6557379"><ele>501.79999999999995</ele><time>2026-05-02T10:56:31.985Z</time></trkpt><trkpt lat="43.3111404" lon="12.6558468"><ele>502.4</ele><time>2026-05-02T10:56:32.995Z</time></trkpt><trkpt lat="43.3112189" lon="12.655984"><ele>503.0</ele><time>2026-05-02T10:56:33.992Z</time></trkpt><trkpt lat="43.3112849" lon="12.6561306"><ele>503.0</ele><time>2026-05-02T10:56:34.989Z</time></trkpt><trkpt lat="43.3113469" lon="12.6562549"><ele>502.99999999999994</ele><time>2026-05-02T10:56:35.998Z</time></trkpt><trkpt lat="43.3114162" lon="12.6563552"><ele>502.99999999999994</ele><time>2026-05-02T10:56:37.001Z</time></trkpt><trkpt lat="43.3115052" lon="12.6564405"><ele>503.0</ele><time>2026-05-02T10:56:37.982Z</time></trkpt><trkpt lat="43.3116139" lon="12.6565057"><ele>503.0</ele><time>2026-05-02T10:56:38.993Z</time></trkpt><trkpt lat="43.3117309" lon="12.65656"><ele>505.0</ele><time>2026-05-02T10:56:39.988Z</time></trkpt><trkpt lat="43.3118399" lon="12.6566009"><ele>506.99999999999994</ele><time>2026-05-02T10:56:40.995Z</time></trkpt><trkpt lat="43.3119309" lon="12.656638"><ele>508.99999999999994</ele><time>2026-05-02T10:56:41.99Z</time></trkpt><trkpt lat="43.3120045" lon="12.6566725"><ele>511.0</ele><time>2026-05-02T10:56:43.003Z</time></trkpt><trkpt lat="43.3120747" lon="12.6567126"><ele>513.0</ele><time>2026-05-02T10:56:44.002Z</time></trkpt><trkpt lat="43.3121565" lon="12.6567636"><ele>513.6</ele><time>2026-05-02T10:56:44.993Z</time></trkpt><trkpt lat="43.3122459" lon="12.6568137"><ele>514.1999999999999</ele><time>2026-05-02T10:56:45.988Z</time></trkpt><trkpt lat="43.3123343" lon="12.6568935"><ele>514.8</ele><time>2026-05-02T10:56:46.984Z</time></trkpt><trkpt lat="43.3124043" lon="12.6570204"><ele>515.4</ele><time>2026-05-02T10:56:47.996Z</time></trkpt><trkpt lat="43.3124618" lon="12.6571506"><ele>516.0</ele><time>2026-05-02T10:56:48.986Z</time></trkpt><trkpt lat="43.3125399" lon="12.657277"><ele>516.0</ele><time>2026-05-02T10:56:49.988Z</time></trkpt><trkpt lat="43.3126355" lon="12.6573861"><ele>516.0</ele><time>2026-05-02T10:56:50.988Z</time></trkpt><trkpt lat="43.3127645" lon="12.6574613"><ele>516.0</ele><time>2026-05-02T10:56:51.988Z</time></trkpt><trkpt lat="43.3128977" lon="12.6575108"><ele>516.0</ele><time>2026-05-02T10:56:52.996Z</time></trkpt><trkpt lat="43.3130137" lon="12.6575364"><ele>518.2</ele><time>2026-05-02T10:56:53.988Z</time></trkpt><trkpt lat="43.3131302" lon="12.657534"><ele>520.4000000000001</ele><time>2026-05-02T10:56:54.991Z</time></trkpt><trkpt lat="43.3132525" lon="12.6575044"><ele>522.6</ele><time>2026-05-02T10:56:55.99Z</time></trkpt><trkpt lat="43.3133673" lon="12.6574646"><ele>524.8000000000001</ele><time>2026-05-02T10:56:56.986Z</time></trkpt><trkpt lat="43.3134549" lon="12.6574492"><ele>527.0</ele><time>2026-05-02T10:56:57.997Z</time></trkpt><trkpt lat="43.3135234" lon="12.6574937"><ele>527.0</ele><time>2026-05-02T10:56:58.993Z</time></trkpt><trkpt lat="43.3135677" lon="12.6575696"><ele>527.0</ele><time>2026-05-02T10:56:59.993Z</time></trkpt><trkpt lat="43.3135894" lon="12.6576701"><ele>527.0</ele><time>2026-05-02T10:57:00.988Z</time></trkpt><trkpt lat="43.3135752" lon="12.6577972"><ele>527.0</ele><time>2026-05-02T10:57:01.988Z</time></trkpt><trkpt lat="43.3135386" lon="12.6579259"><ele>527.0</ele><time>2026-05-02T10:57:02.987Z</time></trkpt><trkpt lat="43.3135133" lon="12.6580493"><ele>527.0</ele><time>2026-05-02T10:57:03.991Z</time></trkpt><trkpt lat="43.3135317" lon="12.6581757"><ele>526.5</ele><time>2026-05-02T10:57:04.987Z</time></trkpt><trkpt lat="43.3135895" lon="12.6583158"><ele>526.0</ele><time>2026-05-02T10:57:05.989Z</time></trkpt><trkpt lat="43.3136607" lon="12.6584681"><ele>525.5</ele><time>2026-05-02T10:57:07Z</time></trkpt><trkpt lat="43.313732" lon="12.6586204"><ele>525.0</ele><time>2026-05-02T10:57:07.993Z</time></trkpt><trkpt lat="43.3137879" lon="12.6587683"><ele>526.3333333333334</ele><time>2026-05-02T10:57:09Z</time></trkpt><trkpt lat="43.3138256" lon="12.658912"><ele>527.6666666666666</ele><time>2026-05-02T10:57:09.989Z</time></trkpt><trkpt lat="43.3138515" lon="12.6590447"><ele>529.0</ele><time>2026-05-02T10:57:10.988Z</time></trkpt><trkpt lat="43.3138683" lon="12.659162"><ele>530.3333333333333</ele><time>2026-05-02T10:57:11.985Z</time></trkpt><trkpt lat="43.3138812" lon="12.659264"><ele>531.6666666666666</ele><time>2026-05-02T10:57:13Z</time></trkpt><trkpt lat="43.313893" lon="12.6593521"><ele>533.0</ele><time>2026-05-02T10:57:13.995Z</time></trkpt><trkpt lat="43.313906" lon="12.6594393"><ele>537.8</ele><time>2026-05-02T10:57:14.982Z</time></trkpt><trkpt lat="43.313915" lon="12.6595531"><ele>542.5999999999999</ele><time>2026-05-02T10:57:15.987Z</time></trkpt><trkpt lat="43.3139246" lon="12.6596816"><ele>547.4000000000001</ele><time>2026-05-02T10:57:16.988Z</time></trkpt><trkpt lat="43.3139332" lon="12.6598177"><ele>552.2</ele><time>2026-05-02T10:57:17.986Z</time></trkpt><trkpt lat="43.3139564" lon="12.659948"><ele>557.0</ele><time>2026-05-02T10:57:18.988Z</time></trkpt><trkpt lat="43.3139798" lon="12.6600788"><ele>557.0</ele><time>2026-05-02T10:57:19.989Z</time></trkpt><trkpt lat="43.3140109" lon="12.6602011"><ele>557.0</ele><time>2026-05-02T10:57:20.984Z</time></trkpt><trkpt lat="43.3140442" lon="12.6603188"><ele>557.0</ele><time>2026-05-02T10:57:21.989Z</time></trkpt><trkpt lat="43.3140806" lon="12.6604265"><ele>557.0</ele><time>2026-05-02T10:57:22.99Z</time></trkpt><trkpt lat="43.3141143" lon="12.6605198"><ele>557.0</ele><time>2026-05-02T10:57:23.983Z</time></trkpt><trkpt lat="43.3141543" lon="12.6606242"><ele>557.0</ele><time>2026-05-02T10:57:24.986Z</time></trkpt><trkpt lat="43.3142059" lon="12.660738"><ele>556.6</ele><time>2026-05-02T10:57:25.982Z</time></trkpt><trkpt lat="43.3142648" lon="12.6608641"><ele>556.2</ele><time>2026-05-02T10:57:26.978Z</time></trkpt><trkpt lat="43.3143203" lon="12.6609876"><ele>555.8</ele><time>2026-05-02T10:57:27.989Z</time></trkpt><trkpt lat="43.3143831" lon="12.6611053"><ele>555.4</ele><time>2026-05-02T10:57:28.991Z</time></trkpt><trkpt lat="43.314451" lon="12.6612215"><ele>555.0</ele><time>2026-05-02T10:57:29.994Z</time></trkpt><trkpt lat="43.3145195" lon="12.6613433"><ele>556.25</ele><time>2026-05-02T10:57:30.985Z</time></trkpt><trkpt lat="43.3145854" lon="12.6614834"><ele>557.5</ele><time>2026-05-02T10:57:31.988Z</time></trkpt><trkpt lat="43.314656" lon="12.6616526"><ele>558.75</ele><time>2026-05-02T10:57:32.999Z</time></trkpt><trkpt lat="43.3147233" lon="12.6618404"><ele>560.0</ele><time>2026-05-02T10:57:33.992Z</time></trkpt><trkpt lat="43.3148009" lon="12.6620261"><ele>562.6666666666666</ele><time>2026-05-02T10:57:34.982Z</time></trkpt><trkpt lat="43.3148707" lon="12.6622251"><ele>565.3333333333334</ele><time>2026-05-02T10:57:35.986Z</time></trkpt><trkpt lat="43.3149346" lon="12.662433"><ele>568.0</ele><time>2026-05-02T10:57:36.989Z</time></trkpt><trkpt lat="43.3150127" lon="12.6626534"><ele>568.6666666666667</ele><time>2026-05-02T10:57:37.993Z</time></trkpt><trkpt lat="43.3150905" lon="12.6628736"><ele>569.3333333333334</ele><time>2026-05-02T10:57:38.987Z</time></trkpt><trkpt lat="43.3151693" lon="12.6630886"><ele>570.0</ele><time>2026-05-02T10:57:39.984Z</time></trkpt><trkpt lat="43.3152445" lon="12.663289"><ele>570.0</ele><time>2026-05-02T10:57:40.978Z</time></trkpt><trkpt lat="43.3153135" lon="12.663468"><ele>570.0</ele><time>2026-05-02T10:57:41.992Z</time></trkpt><trkpt lat="43.3153819" lon="12.6636316"><ele>570.0</ele><time>2026-05-02T10:57:43.002Z</time></trkpt><trkpt lat="43.3154459" lon="12.6637707"><ele>570.0</ele><time>2026-05-02T10:57:43.994Z</time></trkpt><trkpt lat="43.3155214" lon="12.663898"><ele>571.75</ele><time>2026-05-02T10:57:44.989Z</time></trkpt><trkpt lat="43.3156007" lon="12.6640159"><ele>573.5</ele><time>2026-05-02T10:57:45.988Z</time></trkpt><trkpt lat="43.3156819" lon="12.6641291"><ele>575.25</ele><time>2026-05-02T10:57:46.999Z</time></trkpt><trkpt lat="43.3157746" lon="12.664213"><ele>577.0</ele><time>2026-05-02T10:57:47.973Z</time></trkpt><trkpt lat="43.3158813" lon="12.6642815"><ele>577.0</ele><time>2026-05-02T10:57:48.981Z</time></trkpt><trkpt lat="43.3159929" lon="12.6643372"><ele>577.0</ele><time>2026-05-02T10:57:49.982Z</time></trkpt><trkpt lat="43.3161271" lon="12.6643703"><ele>577.0</ele><time>2026-05-02T10:57:50.99Z</time></trkpt><trkpt lat="43.3162726" lon="12.6644056"><ele>577.0</ele><time>2026-05-02T10:57:51.994Z</time></trkpt><trkpt lat="43.3164205" lon="12.6644431"><ele>578.8333333333334</ele><time>2026-05-02T10:57:52.99Z</time></trkpt><trkpt lat="43.3165478" lon="12.6644842"><ele>580.6666666666667</ele><time>2026-05-02T10:57:53.994Z</time></trkpt><trkpt lat="43.3166419" lon="12.6645171"><ele>582.5</ele><time>2026-05-02T10:57:54.994Z</time></trkpt><trkpt lat="43.3167064" lon="12.664569"><ele>584.3333333333334</ele><time>2026-05-02T10:57:55.99Z</time></trkpt><trkpt lat="43.3167533" lon="12.6646377"><ele>586.1666666666666</ele><time>2026-05-02T10:57:56.982Z</time></trkpt><trkpt lat="43.3167767" lon="12.6647188"><ele>588.0</ele><time>2026-05-02T10:57:57.991Z</time></trkpt><trkpt lat="43.3167676" lon="12.664809"><ele>588.0</ele><time>2026-05-02T10:57:58.984Z</time></trkpt><trkpt lat="43.3167299" lon="12.6648918"><ele>588.0</ele><time>2026-05-02T10:57:59.985Z</time></trkpt><trkpt lat="43.3166773" lon="12.6649451"><ele>588.0</ele><time>2026-05-02T10:58:01Z</time></trkpt><trkpt lat="43.3166093" lon="12.6649849"><ele>588.0</ele><time>2026-05-02T10:58:02.003Z</time></trkpt><trkpt lat="43.3165381" lon="12.6650097"><ele>588.0</ele><time>2026-05-02T10:58:02.988Z</time></trkpt><trkpt lat="43.3164565" lon="12.6650106"><ele>588.0</ele><time>2026-05-02T10:58:03.995Z</time></trkpt><trkpt lat="43.3163632" lon="12.6649869"><ele>586.8333333333334</ele><time>2026-05-02T10:58:05.012Z</time></trkpt><trkpt lat="43.3162702" lon="12.6649912"><ele>585.6666666666666</ele><time>2026-05-02T10:58:05.993Z</time></trkpt><trkpt lat="43.316187" lon="12.6650266"><ele>584.5</ele><time>2026-05-02T10:58:06.983Z</time></trkpt><trkpt lat="43.3161241" lon="12.6650807"><ele>583.3333333333333</ele><time>2026-05-02T10:58:07.991Z</time></trkpt><trkpt lat="43.3160711" lon="12.6652336"><ele>582.1666666666666</ele><time>2026-05-02T10:58:09.986Z</time></trkpt><trkpt lat="43.3160853" lon="12.6653233"><ele>581.0</ele><time>2026-05-02T10:58:10.992Z</time></trkpt><trkpt lat="43.3161186" lon="12.6654097"><ele>583.8</ele><time>2026-05-02T10:58:11.988Z</time></trkpt><trkpt lat="43.3161583" lon="12.665499"><ele>586.6</ele><time>2026-05-02T10:58:12.989Z</time></trkpt><trkpt lat="43.3162045" lon="12.6656043"><ele>589.4</ele><time>2026-05-02T10:58:13.992Z</time></trkpt><trkpt lat="43.3162664" lon="12.665707"><ele>592.2</ele><time>2026-05-02T10:58:14.989Z</time></trkpt><trkpt lat="43.3163172" lon="12.6658257"><ele>595.0</ele><time>2026-05-02T10:58:15.987Z</time></trkpt><trkpt lat="43.3163517" lon="12.6659567"><ele>598.25</ele><time>2026-05-02T10:58:16.984Z</time></trkpt><trkpt lat="43.316407" lon="12.6660946"><ele>601.5</ele><time>2026-05-02T10:58:17.982Z</time></trkpt><trkpt lat="43.3164625" lon="12.6662332"><ele>604.75</ele><time>2026-05-02T10:58:18.992Z</time></trkpt><trkpt lat="43.3165147" lon="12.6663746"><ele>608.0</ele><time>2026-05-02T10:58:19.985Z</time></trkpt><trkpt lat="43.3165585" lon="12.6665208"><ele>608.0</ele><time>2026-05-02T10:58:20.98Z</time></trkpt><trkpt lat="43.3165882" lon="12.6666738"><ele>608.0</ele><time>2026-05-02T10:58:21.991Z</time></trkpt><trkpt lat="43.3166112" lon="12.6668385"><ele>608.0</ele><time>2026-05-02T10:58:22.982Z</time></trkpt><trkpt lat="43.3166372" lon="12.6669933"><ele>608.0</ele><time>2026-05-02T10:58:23.98Z</time></trkpt><trkpt lat="43.3166641" lon="12.6671146"><ele>608.0</ele><time>2026-05-02T10:58:24.981Z</time></trkpt><trkpt lat="43.3166851" lon="12.6672221"><ele>607.8</ele><time>2026-05-02T10:58:25.988Z</time></trkpt><trkpt lat="43.3167127" lon="12.667333"><ele>607.5999999999999</ele><time>2026-05-02T10:58:26.987Z</time></trkpt><trkpt lat="43.3167378" lon="12.667446"><ele>607.4000000000001</ele><time>2026-05-02T10:58:27.991Z</time></trkpt><trkpt lat="43.3167652" lon="12.6675626"><ele>607.2</ele><time>2026-05-02T10:58:28.996Z</time></trkpt><trkpt lat="43.3167824" lon="12.667687"><ele>607.0</ele><time>2026-05-02T10:58:29.981Z</time></trkpt><trkpt lat="43.3167878" lon="12.667825"><ele>607.0</ele><time>2026-05-02T10:58:30.992Z</time></trkpt><trkpt lat="43.3167881" lon="12.6679619"><ele>607.0</ele><time>2026-05-02T10:58:31.985Z</time></trkpt><trkpt lat="43.3167852" lon="12.6680983"><ele>607.0</ele><time>2026-05-02T10:58:32.984Z</time></trkpt><trkpt lat="43.3167712" lon="12.6682282"><ele>607.0</ele><time>2026-05-02T10:58:33.986Z</time></trkpt><trkpt lat="43.3167631" lon="12.6683581"><ele>607.0</ele><time>2026-05-02T10:58:35.004Z</time></trkpt><trkpt lat="43.3167674" lon="12.6684889"><ele>606.4</ele><time>2026-05-02T10:58:35.99Z</time></trkpt><trkpt lat="43.3167914" lon="12.6686234"><ele>605.8000000000001</ele><time>2026-05-02T10:58:36.985Z</time></trkpt><trkpt lat="43.316839" lon="12.6687556"><ele>605.2</ele><time>2026-05-02T10:58:38.009Z</time></trkpt><trkpt lat="43.3169141" lon="12.6688789"><ele>604.6</ele><time>2026-05-02T10:58:39.008Z</time></trkpt><trkpt lat="43.3169926" lon="12.6689909"><ele>604.0</ele><time>2026-05-02T10:58:39.99Z</time></trkpt><trkpt lat="43.3170572" lon="12.6691005"><ele>604.0</ele><time>2026-05-02T10:58:40.993Z</time></trkpt><trkpt lat="43.317107" lon="12.6692062"><ele>604.0</ele><time>2026-05-02T10:58:41.994Z</time></trkpt><trkpt lat="43.3171433" lon="12.6693249"><ele>604.0</ele><time>2026-05-02T10:58:42.989Z</time></trkpt><trkpt lat="43.3171451" lon="12.6694618"><ele>604.0</ele><time>2026-05-02T10:58:43.993Z</time></trkpt><trkpt lat="43.3171321" lon="12.6696109"><ele>604.0</ele><time>2026-05-02T10:58:44.989Z</time></trkpt><trkpt lat="43.3171026" lon="12.6697556"><ele>603.8</ele><time>2026-05-02T10:58:45.994Z</time></trkpt><trkpt lat="43.3170668" lon="12.6698921"><ele>603.5999999999999</ele><time>2026-05-02T10:58:46.987Z</time></trkpt><trkpt lat="43.3170215" lon="12.6700194"><ele>603.4</ele><time>2026-05-02T10:58:47.994Z</time></trkpt><trkpt lat="43.3169702" lon="12.6701246"><ele>603.1999999999999</ele><time>2026-05-02T10:58:48.989Z</time></trkpt><trkpt lat="43.3169057" lon="12.6702168"><ele>603.0</ele><time>2026-05-02T10:58:49.991Z</time></trkpt><trkpt lat="43.3168217" lon="12.6703075"><ele>600.5</ele><time>2026-05-02T10:58:50.985Z</time></trkpt><trkpt lat="43.3167293" lon="12.6704076"><ele>598.0</ele><time>2026-05-02T10:58:51.987Z</time></trkpt><trkpt lat="43.3166367" lon="12.670523"><ele>595.5</ele><time>2026-05-02T10:58:53.016Z</time></trkpt><trkpt lat="43.3165635" lon="12.6706422"><ele>593.0</ele><time>2026-05-02T10:58:53.991Z</time></trkpt><trkpt lat="43.3165157" lon="12.6707701"><ele>593.0</ele><time>2026-05-02T10:58:54.987Z</time></trkpt><trkpt lat="43.3164891" lon="12.670909"><ele>593.0</ele><time>2026-05-02T10:58:55.987Z</time></trkpt><trkpt lat="43.3164804" lon="12.6710425"><ele>593.0</ele><time>2026-05-02T10:58:56.995Z</time></trkpt><trkpt lat="43.316487" lon="12.6712077"><ele>593.0</ele><time>2026-05-02T10:58:57.991Z</time></trkpt><trkpt lat="43.316504" lon="12.6713943"><ele>592.75</ele><time>2026-05-02T10:58:58.987Z</time></trkpt><trkpt lat="43.3165225" lon="12.671588"><ele>592.5</ele><time>2026-05-02T10:58:59.983Z</time></trkpt><trkpt lat="43.3165515" lon="12.6717776"><ele>592.25</ele><time>2026-05-02T10:59:00.987Z</time></trkpt><trkpt lat="43.3165878" lon="12.6719546"><ele>592.0</ele><time>2026-05-02T10:59:01.983Z</time></trkpt><trkpt lat="43.31662" lon="12.6721206"><ele>594.5</ele><time>2026-05-02T10:59:02.99Z</time></trkpt><trkpt lat="43.3166413" lon="12.6723006"><ele>597.0</ele><time>2026-05-02T10:59:03.989Z</time></trkpt><trkpt lat="43.3166431" lon="12.6725022"><ele>599.5</ele><time>2026-05-02T10:59:04.989Z</time></trkpt><trkpt lat="43.3166461" lon="12.6727145"><ele>602.0</ele><time>2026-05-02T10:59:05.987Z</time></trkpt><trkpt lat="43.3166716" lon="12.6729067"><ele>604.0</ele><time>2026-05-02T10:59:06.993Z</time></trkpt><trkpt lat="43.3167015" lon="12.6730856"><ele>606.0</ele><time>2026-05-02T10:59:07.989Z</time></trkpt><trkpt lat="43.3167507" lon="12.6732464"><ele>608.0</ele><time>2026-05-02T10:59:08.995Z</time></trkpt><trkpt lat="43.3168323" lon="12.6733904"><ele>610.0</ele><time>2026-05-02T10:59:10.012Z</time></trkpt><trkpt lat="43.316934" lon="12.6735317"><ele>611.25</ele><time>2026-05-02T10:59:10.991Z</time></trkpt><trkpt lat="43.3170375" lon="12.673673"><ele>612.5</ele><time>2026-05-02T10:59:11.987Z</time></trkpt><trkpt lat="43.3171225" lon="12.6738137"><ele>613.75</ele><time>2026-05-02T10:59:12.991Z</time></trkpt><trkpt lat="43.3171731" lon="12.6739452"><ele>615.0</ele><time>2026-05-02T10:59:13.988Z</time></trkpt><trkpt lat="43.3172176" lon="12.6740645"><ele>615.0</ele><time>2026-05-02T10:59:14.994Z</time></trkpt><trkpt lat="43.3172364" lon="12.6741787"><ele>615.0</ele><time>2026-05-02T10:59:15.981Z</time></trkpt><trkpt lat="43.3172283" lon="12.6742856"><ele>615.0</ele><time>2026-05-02T10:59:16.997Z</time></trkpt><trkpt lat="43.3171969" lon="12.6743792"><ele>615.0</ele><time>2026-05-02T10:59:17.992Z</time></trkpt><trkpt lat="43.3171432" lon="12.6744556"><ele>615.0</ele><time>2026-05-02T10:59:19.004Z</time></trkpt><trkpt lat="43.3170618" lon="12.6745142"><ele>615.0</ele><time>2026-05-02T10:59:19.988Z</time></trkpt><trkpt lat="43.3169661" lon="12.6745665"><ele>610.5</ele><time>2026-05-02T10:59:20.995Z</time></trkpt><trkpt lat="43.3168498" lon="12.6746214"><ele>606.0</ele><time>2026-05-02T10:59:22.005Z</time></trkpt><trkpt lat="43.3167227" lon="12.6746629"><ele>601.5</ele><time>2026-05-02T10:59:22.997Z</time></trkpt><trkpt lat="43.3166121" lon="12.6747277"><ele>597.0</ele><time>2026-05-02T10:59:23.987Z</time></trkpt><trkpt lat="43.3165255" lon="12.6748192"><ele>597.0</ele><time>2026-05-02T10:59:24.999Z</time></trkpt><trkpt lat="43.3164336" lon="12.6749298"><ele>597.0</ele><time>2026-05-02T10:59:25.991Z</time></trkpt><trkpt lat="43.3163518" lon="12.6750526"><ele>597.0</ele><time>2026-05-02T10:59:26.996Z</time></trkpt><trkpt lat="43.3162971" lon="12.6751807"><ele>597.0</ele><time>2026-05-02T10:59:27.995Z</time></trkpt><trkpt lat="43.3162494" lon="12.6753291"><ele>597.75</ele><time>2026-05-02T10:59:29.002Z</time></trkpt><trkpt lat="43.3162281" lon="12.6754882"><ele>598.5</ele><time>2026-05-02T10:59:29.993Z</time></trkpt><trkpt lat="43.3162182" lon="12.6756474"><ele>599.25</ele><time>2026-05-02T10:59:30.981Z</time></trkpt><trkpt lat="43.3162342" lon="12.6758107"><ele>600.0</ele><time>2026-05-02T10:59:31.99Z</time></trkpt><trkpt lat="43.3162733" lon="12.6759759"><ele>599.75</ele><time>2026-05-02T10:59:32.994Z</time></trkpt><trkpt lat="43.3163238" lon="12.6761378"><ele>599.5</ele><time>2026-05-02T10:59:33.992Z</time></trkpt><trkpt lat="43.3163652" lon="12.6762995"><ele>599.25</ele><time>2026-05-02T10:59:34.989Z</time></trkpt><trkpt lat="43.3163924" lon="12.6764671"><ele>599.0</ele><time>2026-05-02T10:59:35.992Z</time></trkpt><trkpt lat="43.3164163" lon="12.6766388"><ele>600.25</ele><time>2026-05-02T10:59:37.003Z</time></trkpt><trkpt lat="43.3164474" lon="12.6768092"><ele>601.5</ele><time>2026-05-02T10:59:37.988Z</time></trkpt><trkpt lat="43.3164973" lon="12.6769786"><ele>602.75</ele><time>2026-05-02T10:59:39.011Z</time></trkpt><trkpt lat="43.3165568" lon="12.6771547"><ele>604.0</ele><time>2026-05-02T10:59:39.988Z</time></trkpt><trkpt lat="43.3166259" lon="12.6773305"><ele>604.0</ele><time>2026-05-02T10:59:40.99Z</time></trkpt><trkpt lat="43.3166942" lon="12.6774972"><ele>604.0</ele><time>2026-05-02T10:59:42.001Z</time></trkpt><trkpt lat="43.3167468" lon="12.6776526"><ele>604.0</ele><time>2026-05-02T10:59:42.995Z</time></trkpt><trkpt lat="43.3168093" lon="12.6777902"><ele>604.0</ele><time>2026-05-02T10:59:43.985Z</time></trkpt><trkpt lat="43.3168781" lon="12.6779228"><ele>608.0</ele><time>2026-05-02T10:59:45Z</time></trkpt><trkpt lat="43.316969" lon="12.6780492"><ele>612.0</ele><time>2026-05-02T10:59:45.972Z</time></trkpt><trkpt lat="43.3170718" lon="12.6781631"><ele>616.0</ele><time>2026-05-02T10:59:46.998Z</time></trkpt><trkpt lat="43.3171824" lon="12.6782866"><ele>620.0</ele><time>2026-05-02T10:59:47.981Z</time></trkpt><trkpt lat="43.3172877" lon="12.6784259"><ele>617.0</ele><time>2026-05-02T10:59:48.986Z</time></trkpt><trkpt lat="43.3173997" lon="12.6785596"><ele>614.0</ele><time>2026-05-02T10:59:49.99Z</time></trkpt><trkpt lat="43.3175215" lon="12.6786765"><ele>611.0</ele><time>2026-05-02T10:59:50.992Z</time></trkpt><trkpt lat="43.3176484" lon="12.6787821"><ele>608.0</ele><time>2026-05-02T10:59:51.982Z</time></trkpt><trkpt lat="43.3177748" lon="12.6788815"><ele>608.0</ele><time>2026-05-02T10:59:52.979Z</time></trkpt><trkpt lat="43.3178909" lon="12.6789857"><ele>608.0</ele><time>2026-05-02T10:59:53.979Z</time></trkpt><trkpt lat="43.3180071" lon="12.6790914"><ele>608.0</ele><time>2026-05-02T10:59:54.982Z</time></trkpt><trkpt lat="43.3181247" lon="12.6791736"><ele>608.0</ele><time>2026-05-02T10:59:55.978Z</time></trkpt><trkpt lat="43.3182311" lon="12.6792287"><ele>602.75</ele><time>2026-05-02T10:59:56.987Z</time></trkpt><trkpt lat="43.3183296" lon="12.6792893"><ele>597.5</ele><time>2026-05-02T10:59:57.997Z</time></trkpt><trkpt lat="43.3184352" lon="12.6793571"><ele>592.25</ele><time>2026-05-02T10:59:58.989Z</time></trkpt><trkpt lat="43.3185307" lon="12.679444"><ele>587.0</ele><time>2026-05-02T10:59:59.984Z</time></trkpt><trkpt lat="43.3186272" lon="12.6795542"><ele>587.0</ele><time>2026-05-02T11:00:00.992Z</time></trkpt><trkpt lat="43.3187176" lon="12.6796782"><ele>587.0</ele><time>2026-05-02T11:00:02.014Z</time></trkpt><trkpt lat="43.3188076" lon="12.679811"><ele>587.0</ele><time>2026-05-02T11:00:02.994Z</time></trkpt><trkpt lat="43.3188892" lon="12.6799466"><ele>587.0</ele><time>2026-05-02T11:00:03.984Z</time></trkpt><trkpt lat="43.3189701" lon="12.6800871"><ele>588.25</ele><time>2026-05-02T11:00:04.99Z</time></trkpt><trkpt lat="43.3190461" lon="12.6802217"><ele>589.5</ele><time>2026-05-02T11:00:05.999Z</time></trkpt><trkpt lat="43.3191214" lon="12.6803527"><ele>590.75</ele><time>2026-05-02T11:00:06.99Z</time></trkpt><trkpt lat="43.3191905" lon="12.6804727"><ele>592.0</ele><time>2026-05-02T11:00:07.993Z</time></trkpt><trkpt lat="43.3192513" lon="12.6805852"><ele>591.8333333333334</ele><time>2026-05-02T11:00:08.99Z</time></trkpt><trkpt lat="43.3193174" lon="12.6806694"><ele>591.6666666666667</ele><time>2026-05-02T11:00:09.989Z</time></trkpt><trkpt lat="43.3193896" lon="12.6807301"><ele>591.5</ele><time>2026-05-02T11:00:10.989Z</time></trkpt><trkpt lat="43.3194707" lon="12.6807713"><ele>591.3333333333334</ele><time>2026-05-02T11:00:11.992Z</time></trkpt><trkpt lat="43.3195539" lon="12.6808019"><ele>591.1666666666666</ele><time>2026-05-02T11:00:12.984Z</time></trkpt><trkpt lat="43.319642" lon="12.6808358"><ele>591.0</ele><time>2026-05-02T11:00:13.989Z</time></trkpt><trkpt lat="43.3197418" lon="12.6808858"><ele>591.0</ele><time>2026-05-02T11:00:14.994Z</time></trkpt><trkpt lat="43.3198486" lon="12.6809489"><ele>591.0</ele><time>2026-05-02T11:00:16.008Z</time></trkpt><trkpt lat="43.3199481" lon="12.6810171"><ele>591.0</ele><time>2026-05-02T11:00:16.985Z</time></trkpt><trkpt lat="43.320045" lon="12.6811017"><ele>591.0</ele><time>2026-05-02T11:00:17.985Z</time></trkpt><trkpt lat="43.3201388" lon="12.6811946"><ele>587.6</ele><time>2026-05-02T11:00:18.993Z</time></trkpt><trkpt lat="43.3202164" lon="12.6813017"><ele>584.2</ele><time>2026-05-02T11:00:19.989Z</time></trkpt><trkpt lat="43.3202835" lon="12.68142"><ele>580.8</ele><time>2026-05-02T11:00:20.998Z</time></trkpt><trkpt lat="43.3203275" lon="12.6815528"><ele>577.4</ele><time>2026-05-02T11:00:21.992Z</time></trkpt><trkpt lat="43.3203638" lon="12.6816742"><ele>574.0</ele><time>2026-05-02T11:00:22.993Z</time></trkpt><trkpt lat="43.3204012" lon="12.6817876"><ele>574.0</ele><time>2026-05-02T11:00:24.005Z</time></trkpt><trkpt lat="43.3204503" lon="12.6818939"><ele>574.0</ele><time>2026-05-02T11:00:24.997Z</time></trkpt><trkpt lat="43.3205149" lon="12.6819845"><ele>574.0</ele><time>2026-05-02T11:00:25.995Z</time></trkpt><trkpt lat="43.3206011" lon="12.6820616"><ele>574.0</ele><time>2026-05-02T11:00:26.993Z</time></trkpt><trkpt lat="43.3206978" lon="12.6821347"><ele>574.0</ele><time>2026-05-02T11:00:27.992Z</time></trkpt><trkpt lat="43.3208104" lon="12.6822225"><ele>573.0</ele><time>2026-05-02T11:00:28.993Z</time></trkpt><trkpt lat="43.3209236" lon="12.6823249"><ele>572.0</ele><time>2026-05-02T11:00:30.003Z</time></trkpt><trkpt lat="43.321044" lon="12.6824085"><ele>571.0</ele><time>2026-05-02T11:00:30.99Z</time></trkpt><trkpt lat="43.3211665" lon="12.6824799"><ele>570.0</ele><time>2026-05-02T11:00:32.007Z</time></trkpt><trkpt lat="43.3212642" lon="12.6825454"><ele>570.0</ele><time>2026-05-02T11:00:32.993Z</time></trkpt><trkpt lat="43.321361" lon="12.6826071"><ele>570.0</ele><time>2026-05-02T11:00:33.986Z</time></trkpt><trkpt lat="43.3214457" lon="12.682691"><ele>570.0</ele><time>2026-05-02T11:00:35.007Z</time></trkpt><trkpt lat="43.321523" lon="12.6827895"><ele>570.0</ele><time>2026-05-02T11:00:35.987Z</time></trkpt><trkpt lat="43.3215779" lon="12.6829099"><ele>570.0</ele><time>2026-05-02T11:00:36.989Z</time></trkpt><trkpt lat="43.3216106" lon="12.6830328"><ele>571.0</ele><time>2026-05-02T11:00:37.996Z</time></trkpt><trkpt lat="43.321621" lon="12.6831638"><ele>572.0</ele><time>2026-05-02T11:00:38.996Z</time></trkpt><trkpt lat="43.3216248" lon="12.6833129"><ele>573.0</ele><time>2026-05-02T11:00:39.996Z</time></trkpt><trkpt lat="43.3216268" lon="12.6834751"><ele>574.0</ele><time>2026-05-02T11:00:41.001Z</time></trkpt><trkpt lat="43.321627" lon="12.6836602"><ele>574.0</ele><time>2026-05-02T11:00:41.987Z</time></trkpt><trkpt lat="43.3216179" lon="12.6838623"><ele>574.0</ele><time>2026-05-02T11:00:42.981Z</time></trkpt><trkpt lat="43.3215953" lon="12.6840885"><ele>574.0</ele><time>2026-05-02T11:00:43.985Z</time></trkpt><trkpt lat="43.3215635" lon="12.6843248"><ele>574.5</ele><time>2026-05-02T11:00:44.991Z</time></trkpt><trkpt lat="43.3215383" lon="12.6845346"><ele>575.0</ele><time>2026-05-02T11:00:45.992Z</time></trkpt><trkpt lat="43.3215249" lon="12.6847193"><ele>575.5</ele><time>2026-05-02T11:00:47.003Z</time></trkpt><trkpt lat="43.3215073" lon="12.6849166"><ele>576.0</ele><time>2026-05-02T11:00:47.994Z</time></trkpt><trkpt lat="43.3214933" lon="12.685117"><ele>575.5</ele><time>2026-05-02T11:00:48.999Z</time></trkpt><trkpt lat="43.321478" lon="12.6853105"><ele>575.0</ele><time>2026-05-02T11:00:50.001Z</time></trkpt><trkpt lat="43.3214726" lon="12.6855131"><ele>574.5</ele><time>2026-05-02T11:00:51.008Z</time></trkpt><trkpt lat="43.3214842" lon="12.6857095"><ele>574.0</ele><time>2026-05-02T11:00:51.991Z</time></trkpt><trkpt lat="43.321508" lon="12.6858857"><ele>574.0</ele><time>2026-05-02T11:00:52.993Z</time></trkpt><trkpt lat="43.3215329" lon="12.6860305"><ele>574.0</ele><time>2026-05-02T11:00:53.986Z</time></trkpt><trkpt lat="43.321557" lon="12.686166"><ele>574.0</ele><time>2026-05-02T11:00:54.985Z</time></trkpt><trkpt lat="43.3215996" lon="12.6862665"><ele>574.0</ele><time>2026-05-02T11:00:55.978Z</time></trkpt><trkpt lat="43.321658" lon="12.6863539"><ele>574.0</ele><time>2026-05-02T11:00:56.981Z</time></trkpt><trkpt lat="43.3217371" lon="12.6864136"><ele>572.5</ele><time>2026-05-02T11:00:57.984Z</time></trkpt><trkpt lat="43.3218293" lon="12.6864886"><ele>571.0</ele><time>2026-05-02T11:00:58.984Z</time></trkpt><trkpt lat="43.3219447" lon="12.6865787"><ele>569.5</ele><time>2026-05-02T11:00:59.99Z</time></trkpt><trkpt lat="43.3220394" lon="12.6866699"><ele>568.0</ele><time>2026-05-02T11:01:00.983Z</time></trkpt><trkpt lat="43.3221227" lon="12.686782"><ele>568.0</ele><time>2026-05-02T11:01:01.983Z</time></trkpt><trkpt lat="43.322194" lon="12.6869209"><ele>568.0</ele><time>2026-05-02T11:01:02.985Z</time></trkpt><trkpt lat="43.3222478" lon="12.6870708"><ele>568.0</ele><time>2026-05-02T11:01:03.99Z</time></trkpt><trkpt lat="43.3222999" lon="12.6872545"><ele>568.0</ele><time>2026-05-02T11:01:04.984Z</time></trkpt><trkpt lat="43.322339" lon="12.6874194"><ele>569.4</ele><time>2026-05-02T11:01:05.979Z</time></trkpt><trkpt lat="43.3223698" lon="12.6875508"><ele>570.8</ele><time>2026-05-02T11:01:06.986Z</time></trkpt><trkpt lat="43.3224121" lon="12.6876595"><ele>572.2</ele><time>2026-05-02T11:01:07.985Z</time></trkpt><trkpt lat="43.3224766" lon="12.6877489"><ele>573.6</ele><time>2026-05-02T11:01:08.978Z</time></trkpt><trkpt lat="43.3225469" lon="12.6878332"><ele>575.0</ele><time>2026-05-02T11:01:09.979Z</time></trkpt><trkpt lat="43.3226272" lon="12.6879256"><ele>575.0</ele><time>2026-05-02T11:01:10.982Z</time></trkpt><trkpt lat="43.3227019" lon="12.6880466"><ele>575.0</ele><time>2026-05-02T11:01:11.989Z</time></trkpt><trkpt lat="43.3227705" lon="12.6881912"><ele>575.0</ele><time>2026-05-02T11:01:12.976Z</time></trkpt><trkpt lat="43.3228305" lon="12.6883436"><ele>575.0</ele><time>2026-05-02T11:01:13.976Z</time></trkpt><trkpt lat="43.3228721" lon="12.6885108"><ele>575.2</ele><time>2026-05-02T11:01:14.987Z</time></trkpt><trkpt lat="43.3228905" lon="12.6886527"><ele>575.4</ele><time>2026-05-02T11:01:15.992Z</time></trkpt><trkpt lat="43.3228978" lon="12.6887981"><ele>575.6</ele><time>2026-05-02T11:01:16.978Z</time></trkpt><trkpt lat="43.3228797" lon="12.6889368"><ele>575.8</ele><time>2026-05-02T11:01:17.998Z</time></trkpt><trkpt lat="43.3228406" lon="12.6890588"><ele>576.0</ele><time>2026-05-02T11:01:18.984Z</time></trkpt><trkpt lat="43.3227872" lon="12.6891655"><ele>576.0</ele><time>2026-05-02T11:01:19.992Z</time></trkpt><trkpt lat="43.3227148" lon="12.6892639"><ele>576.0</ele><time>2026-05-02T11:01:20.986Z</time></trkpt><trkpt lat="43.3226488" lon="12.6893541"><ele>576.0</ele><time>2026-05-02T11:01:21.982Z</time></trkpt><trkpt lat="43.3225984" lon="12.6894439"><ele>576.0</ele><time>2026-05-02T11:01:22.978Z</time></trkpt><trkpt lat="43.3225697" lon="12.6895359"><ele>576.0</ele><time>2026-05-02T11:01:23.983Z</time></trkpt><trkpt lat="43.3225656" lon="12.6896392"><ele>576.0</ele><time>2026-05-02T11:01:24.975Z</time></trkpt><trkpt lat="43.3225831" lon="12.689748"><ele>575.8</ele><time>2026-05-02T11:01:25.977Z</time></trkpt><trkpt lat="43.3225948" lon="12.6898892"><ele>575.6</ele><time>2026-05-02T11:01:26.979Z</time></trkpt><trkpt lat="43.3225958" lon="12.6900386"><ele>575.4</ele><time>2026-05-02T11:01:27.985Z</time></trkpt><trkpt lat="43.3225711" lon="12.6901876"><ele>575.2</ele><time>2026-05-02T11:01:28.983Z</time></trkpt><trkpt lat="43.3225187" lon="12.690322"><ele>575.0</ele><time>2026-05-02T11:01:29.981Z</time></trkpt><trkpt lat="43.3224623" lon="12.6904492"><ele>574.1666666666666</ele><time>2026-05-02T11:01:30.993Z</time></trkpt><trkpt lat="43.3224108" lon="12.6905741"><ele>573.3333333333333</ele><time>2026-05-02T11:01:31.982Z</time></trkpt><trkpt lat="43.3223791" lon="12.6906931"><ele>572.5</ele><time>2026-05-02T11:01:32.988Z</time></trkpt><trkpt lat="43.3223514" lon="12.6908177"><ele>571.6666666666666</ele><time>2026-05-02T11:01:33.985Z</time></trkpt><trkpt lat="43.3223428" lon="12.6909243"><ele>570.8333333333334</ele><time>2026-05-02T11:01:34.984Z</time></trkpt><trkpt lat="43.3223516" lon="12.6910154"><ele>570.0</ele><time>2026-05-02T11:01:35.986Z</time></trkpt><trkpt lat="43.3223723" lon="12.6911197"><ele>568.8333333333334</ele><time>2026-05-02T11:01:36.975Z</time></trkpt><trkpt lat="43.3223796" lon="12.6912414"><ele>567.6666666666666</ele><time>2026-05-02T11:01:37.984Z</time></trkpt><trkpt lat="43.3223806" lon="12.6913722"><ele>566.5</ele><time>2026-05-02T11:01:38.985Z</time></trkpt><trkpt lat="43.3223739" lon="12.6914831"><ele>565.3333333333333</ele><time>2026-05-02T11:01:39.997Z</time></trkpt><trkpt lat="43.3223656" lon="12.6915936"><ele>564.1666666666666</ele><time>2026-05-02T11:01:40.992Z</time></trkpt><trkpt lat="43.3223472" lon="12.6916966"><ele>563.0</ele><time>2026-05-02T11:01:41.983Z</time></trkpt><trkpt lat="43.3223208" lon="12.6917928"><ele>563.0</ele><time>2026-05-02T11:01:42.978Z</time></trkpt><trkpt lat="43.3222978" lon="12.6918869"><ele>563.0</ele><time>2026-05-02T11:01:43.993Z</time></trkpt><trkpt lat="43.3222707" lon="12.6919838"><ele>563.0</ele><time>2026-05-02T11:01:44.993Z</time></trkpt><trkpt lat="43.3222431" lon="12.6920708"><ele>563.0</ele><time>2026-05-02T11:01:45.982Z</time></trkpt><trkpt lat="43.3222174" lon="12.6921631"><ele>563.0</ele><time>2026-05-02T11:01:46.985Z</time></trkpt><trkpt lat="43.3222016" lon="12.692249"><ele>563.0</ele><time>2026-05-02T11:01:47.977Z</time></trkpt><trkpt lat="43.3221927" lon="12.6923895"><ele>562.6</ele><time>2026-05-02T11:01:49.986Z</time></trkpt><trkpt lat="43.3222269" lon="12.6925565"><ele>562.1999999999999</ele><time>2026-05-02T11:01:51.986Z</time></trkpt><trkpt lat="43.3222745" lon="12.6926743"><ele>561.8</ele><time>2026-05-02T11:01:52.983Z</time></trkpt><trkpt lat="43.3223315" lon="12.692788"><ele>561.4</ele><time>2026-05-02T11:01:53.983Z</time></trkpt><trkpt lat="43.3223909" lon="12.6928901"><ele>561.0</ele><time>2026-05-02T11:01:54.984Z</time></trkpt><trkpt lat="43.3224438" lon="12.6929869"><ele>563.2</ele><time>2026-05-02T11:01:55.985Z</time></trkpt><trkpt lat="43.3224987" lon="12.6930913"><ele>565.4000000000001</ele><time>2026-05-02T11:01:56.987Z</time></trkpt><trkpt lat="43.3225511" lon="12.6931996"><ele>567.6</ele><time>2026-05-02T11:01:57.993Z</time></trkpt><trkpt lat="43.3226162" lon="12.6933045"><ele>569.8000000000001</ele><time>2026-05-02T11:01:59.001Z</time></trkpt><trkpt lat="43.3227064" lon="12.6933849"><ele>572.0</ele><time>2026-05-02T11:01:59.984Z</time></trkpt><trkpt lat="43.3227999" lon="12.6934486"><ele>572.0</ele><time>2026-05-02T11:02:00.987Z</time></trkpt><trkpt lat="43.322888" lon="12.6934983"><ele>572.0</ele><time>2026-05-02T11:02:01.985Z</time></trkpt><trkpt lat="43.322973" lon="12.6935544"><ele>572.0</ele><time>2026-05-02T11:02:02.983Z</time></trkpt><trkpt lat="43.3230421" lon="12.6936245"><ele>572.0</ele><time>2026-05-02T11:02:03.978Z</time></trkpt><trkpt lat="43.3230948" lon="12.6937051"><ele>572.0</ele><time>2026-05-02T11:02:04.983Z</time></trkpt><trkpt lat="43.3231241" lon="12.6938033"><ele>572.0</ele><time>2026-05-02T11:02:05.98Z</time></trkpt><trkpt lat="43.3231315" lon="12.6939065"><ele>567.1666666666666</ele><time>2026-05-02T11:02:06.99Z</time></trkpt><trkpt lat="43.3231226" lon="12.6940223"><ele>562.3333333333333</ele><time>2026-05-02T11:02:07.977Z</time></trkpt><trkpt lat="43.3231159" lon="12.6941393"><ele>557.5</ele><time>2026-05-02T11:02:08.99Z</time></trkpt><trkpt lat="43.3231051" lon="12.6942445"><ele>552.6666666666666</ele><time>2026-05-02T11:02:09.987Z</time></trkpt><trkpt lat="43.3230929" lon="12.6943452"><ele>547.8333333333334</ele><time>2026-05-02T11:02:10.991Z</time></trkpt><trkpt lat="43.3230624" lon="12.6944281"><ele>543.0</ele><time>2026-05-02T11:02:11.991Z</time></trkpt><trkpt lat="43.3230169" lon="12.694511"><ele>542.1999999999999</ele><time>2026-05-02T11:02:12.982Z</time></trkpt><trkpt lat="43.3229336" lon="12.6945398"><ele>541.4</ele><time>2026-05-02T11:02:13.977Z</time></trkpt><trkpt lat="43.3228417" lon="12.694525"><ele>540.5999999999999</ele><time>2026-05-02T11:02:14.988Z</time></trkpt><trkpt lat="43.3227418" lon="12.6944973"><ele>539.8</ele><time>2026-05-02T11:02:15.982Z</time></trkpt><trkpt lat="43.3226334" lon="12.6944647"><ele>539.0</ele><time>2026-05-02T11:02:16.991Z</time></trkpt><trkpt lat="43.3225321" lon="12.6944299"><ele>539.0</ele><time>2026-05-02T11:02:17.986Z</time></trkpt><trkpt lat="43.322433" lon="12.6944146"><ele>539.0</ele><time>2026-05-02T11:02:18.983Z</time></trkpt><trkpt lat="43.32234" lon="12.6944256"><ele>539.0</ele><time>2026-05-02T11:02:19.984Z</time></trkpt><trkpt lat="43.3222519" lon="12.6944436"><ele>539.0</ele><time>2026-05-02T11:02:20.991Z</time></trkpt><trkpt lat="43.3221778" lon="12.6944898"><ele>539.0</ele><time>2026-05-02T11:02:21.983Z</time></trkpt><trkpt lat="43.3221106" lon="12.694547"><ele>539.0</ele><time>2026-05-02T11:02:23Z</time></trkpt><trkpt lat="43.3220574" lon="12.6946317"><ele>543.2</ele><time>2026-05-02T11:02:23.992Z</time></trkpt><trkpt lat="43.322016" lon="12.6947403"><ele>547.4</ele><time>2026-05-02T11:02:24.989Z</time></trkpt><trkpt lat="43.3219778" lon="12.6948656"><ele>551.6</ele><time>2026-05-02T11:02:25.993Z</time></trkpt><trkpt lat="43.3219313" lon="12.6949766"><ele>555.8</ele><time>2026-05-02T11:02:27.005Z</time></trkpt><trkpt lat="43.3218804" lon="12.6950944"><ele>560.0</ele><time>2026-05-02T11:02:27.997Z</time></trkpt><trkpt lat="43.3218363" lon="12.6952161"><ele>558.2</ele><time>2026-05-02T11:02:29Z</time></trkpt><trkpt lat="43.3218108" lon="12.6953331"><ele>556.4</ele><time>2026-05-02T11:02:29.991Z</time></trkpt><trkpt lat="43.3217975" lon="12.695455"><ele>554.6</ele><time>2026-05-02T11:02:30.989Z</time></trkpt><trkpt lat="43.321798" lon="12.6955847"><ele>552.8</ele><time>2026-05-02T11:02:31.996Z</time></trkpt><trkpt lat="43.3218" lon="12.6957138"><ele>551.0</ele><time>2026-05-02T11:02:32.993Z</time></trkpt><trkpt lat="43.321804" lon="12.6958326"><ele>551.0</ele><time>2026-05-02T11:02:33.988Z</time></trkpt><trkpt lat="43.3218232" lon="12.6959605"><ele>551.0</ele><time>2026-05-02T11:02:34.997Z</time></trkpt><trkpt lat="43.3218479" lon="12.6960915"><ele>551.0</ele><time>2026-05-02T11:02:35.979Z</time></trkpt><trkpt lat="43.3218905" lon="12.6962202"><ele>551.0</ele><time>2026-05-02T11:02:36.993Z</time></trkpt><trkpt lat="43.3219349" lon="12.6963433"><ele>551.0</ele><time>2026-05-02T11:02:37.987Z</time></trkpt><trkpt lat="43.3219714" lon="12.6964696"><ele>549.6</ele><time>2026-05-02T11:02:38.994Z</time></trkpt><trkpt lat="43.322013" lon="12.6965931"><ele>548.2</ele><time>2026-05-02T11:02:40.001Z</time></trkpt><trkpt lat="43.32206" lon="12.6967114"><ele>546.8</ele><time>2026-05-02T11:02:40.975Z</time></trkpt><trkpt lat="43.3221182" lon="12.6968356"><ele>545.4</ele><time>2026-05-02T11:02:42.007Z</time></trkpt><trkpt lat="43.3221825" lon="12.6969389"><ele>544.0</ele><time>2026-05-02T11:02:42.992Z</time></trkpt><trkpt lat="43.3222411" lon="12.6970399"><ele>539.2</ele><time>2026-05-02T11:02:43.991Z</time></trkpt><trkpt lat="43.3222954" lon="12.6971577"><ele>534.4</ele><time>2026-05-02T11:02:44.984Z</time></trkpt><trkpt lat="43.3223369" lon="12.6972895"><ele>529.6</ele><time>2026-05-02T11:02:45.986Z</time></trkpt><trkpt lat="43.3223576" lon="12.6974293"><ele>524.8</ele><time>2026-05-02T11:02:46.98Z</time></trkpt><trkpt lat="43.3223622" lon="12.6975666"><ele>520.0</ele><time>2026-05-02T11:02:47.983Z</time></trkpt><trkpt lat="43.322349" lon="12.6977158"><ele>519.2</ele><time>2026-05-02T11:02:48.992Z</time></trkpt><trkpt lat="43.3223174" lon="12.6978517"><ele>518.4</ele><time>2026-05-02T11:02:49.983Z</time></trkpt><trkpt lat="43.3222913" lon="12.6979877"><ele>517.6</ele><time>2026-05-02T11:02:50.999Z</time></trkpt><trkpt lat="43.3222814" lon="12.6981188"><ele>516.8</ele><time>2026-05-02T11:02:51.982Z</time></trkpt><trkpt lat="43.3222946" lon="12.6982443"><ele>516.0</ele><time>2026-05-02T11:02:52.999Z</time></trkpt><trkpt lat="43.3223255" lon="12.6983636"><ele>516.0</ele><time>2026-05-02T11:02:53.988Z</time></trkpt><trkpt lat="43.3223742" lon="12.6984787"><ele>516.0</ele><time>2026-05-02T11:02:54.997Z</time></trkpt><trkpt lat="43.3224323" lon="12.6985868"><ele>516.0</ele><time>2026-05-02T11:02:55.998Z</time></trkpt><trkpt lat="43.3225089" lon="12.6986794"><ele>516.0</ele><time>2026-05-02T11:02:56.994Z</time></trkpt><trkpt lat="43.3226056" lon="12.6987619"><ele>516.0</ele><time>2026-05-02T11:02:58.002Z</time></trkpt><trkpt lat="43.3226936" lon="12.6988501"><ele>515.8</ele><time>2026-05-02T11:02:58.992Z</time></trkpt><trkpt lat="43.3227679" lon="12.6989421"><ele>515.6</ele><time>2026-05-02T11:02:59.999Z</time></trkpt><trkpt lat="43.3228369" lon="12.6990486"><ele>515.4</ele><time>2026-05-02T11:03:00.992Z</time></trkpt><trkpt lat="43.3229074" lon="12.6991472"><ele>515.2</ele><time>2026-05-02T11:03:01.988Z</time></trkpt><trkpt lat="43.322994" lon="12.6992193"><ele>515.0</ele><time>2026-05-02T11:03:02.985Z</time></trkpt><trkpt lat="43.3230985" lon="12.6992756"><ele>514.5</ele><time>2026-05-02T11:03:03.987Z</time></trkpt><trkpt lat="43.3232019" lon="12.6993168"><ele>514.0</ele><time>2026-05-02T11:03:04.989Z</time></trkpt><trkpt lat="43.3232995" lon="12.6993473"><ele>513.5</ele><time>2026-05-02T11:03:05.992Z</time></trkpt><trkpt lat="43.3233745" lon="12.6993929"><ele>513.0</ele><time>2026-05-02T11:03:06.99Z</time></trkpt><trkpt lat="43.3234379" lon="12.6994549"><ele>512.5</ele><time>2026-05-02T11:03:07.992Z</time></trkpt><trkpt lat="43.323494" lon="12.6995221"><ele>512.0</ele><time>2026-05-02T11:03:08.993Z</time></trkpt><trkpt lat="43.3235411" lon="12.6996077"><ele>511.99999999999994</ele><time>2026-05-02T11:03:10Z</time></trkpt><trkpt lat="43.3235783" lon="12.699704"><ele>512.0</ele><time>2026-05-02T11:03:10.999Z</time></trkpt><trkpt lat="43.3236072" lon="12.6998066"><ele>512.0</ele><time>2026-05-02T11:03:11.983Z</time></trkpt><trkpt lat="43.3236293" lon="12.6999238"><ele>512.0</ele><time>2026-05-02T11:03:13.007Z</time></trkpt><trkpt lat="43.3236445" lon="12.7000557"><ele>511.99999999999994</ele><time>2026-05-02T11:03:13.983Z</time></trkpt><trkpt lat="43.3236779" lon="12.700191"><ele>512.0</ele><time>2026-05-02T11:03:14.989Z</time></trkpt><trkpt lat="43.3237186" lon="12.700318"><ele>509.6</ele><time>2026-05-02T11:03:15.998Z</time></trkpt><trkpt lat="43.3237767" lon="12.7004369"><ele>507.20000000000005</ele><time>2026-05-02T11:03:16.993Z</time></trkpt><trkpt lat="43.323851" lon="12.7005466"><ele>504.8</ele><time>2026-05-02T11:03:17.992Z</time></trkpt><trkpt lat="43.3239315" lon="12.7006427"><ele>502.4</ele><time>2026-05-02T11:03:19Z</time></trkpt><trkpt lat="43.3240142" lon="12.7007277"><ele>500.0</ele><time>2026-05-02T11:03:19.987Z</time></trkpt><trkpt lat="43.3240955" lon="12.7008116"><ele>499.99999999999994</ele><time>2026-05-02T11:03:20.992Z</time></trkpt><trkpt lat="43.3241623" lon="12.700892"><ele>500.0</ele><time>2026-05-02T11:03:21.997Z</time></trkpt><trkpt lat="43.3242127" lon="12.7009749"><ele>500.0</ele><time>2026-05-02T11:03:22.996Z</time></trkpt><trkpt lat="43.324242" lon="12.7010655"><ele>500.0</ele><time>2026-05-02T11:03:23.988Z</time></trkpt><trkpt lat="43.3242394" lon="12.7011635"><ele>499.99999999999994</ele><time>2026-05-02T11:03:24.991Z</time></trkpt><trkpt lat="43.324209" lon="12.7012498"><ele>500.0</ele><time>2026-05-02T11:03:25.991Z</time></trkpt><trkpt lat="43.324146" lon="12.7013213"><ele>498.2</ele><time>2026-05-02T11:03:27.006Z</time></trkpt><trkpt lat="43.3240613" lon="12.7013747"><ele>496.4</ele><time>2026-05-02T11:03:27.988Z</time></trkpt><trkpt lat="43.3239774" lon="12.7014211"><ele>494.6</ele><time>2026-05-02T11:03:28.983Z</time></trkpt><trkpt lat="43.3238959" lon="12.7014521"><ele>492.8</ele><time>2026-05-02T11:03:29.997Z</time></trkpt><trkpt lat="43.323815" lon="12.7014596"><ele>491.0</ele><time>2026-05-02T11:03:30.985Z</time></trkpt><trkpt lat="43.3236975" lon="12.7014702"><ele>491.0</ele><time>2026-05-02T11:03:33.003Z</time></trkpt><trkpt lat="43.3236754" lon="12.7015791"><ele>491.0</ele><time>2026-05-02T11:03:34.99Z</time></trkpt><trkpt lat="43.3237575" lon="12.7016481"><ele>491.0</ele><time>2026-05-02T11:03:36.991Z</time></trkpt><trkpt lat="43.3238803" lon="12.7016531"><ele>491.0</ele><time>2026-05-02T11:03:38.994Z</time></trkpt><trkpt lat="43.3239497" lon="12.7016537"><ele>491.0</ele><time>2026-05-02T11:03:39.989Z</time></trkpt><trkpt lat="43.3240367" lon="12.7016497"><ele>491.0</ele><time>2026-05-02T11:03:41Z</time></trkpt><trkpt lat="43.3241399" lon="12.7016315"><ele>491.0</ele><time>2026-05-02T11:03:41.985Z</time></trkpt><trkpt lat="43.3242362" lon="12.7016001"><ele>491.0</ele><time>2026-05-02T11:03:42.991Z</time></trkpt><trkpt lat="43.324329" lon="12.7015725"><ele>491.0</ele><time>2026-05-02T11:03:43.991Z</time></trkpt><trkpt lat="43.324413" lon="12.7015378"><ele>491.0</ele><time>2026-05-02T11:03:44.986Z</time></trkpt><trkpt lat="43.3244878" lon="12.7014969"><ele>490.99999999999994</ele><time>2026-05-02T11:03:45.998Z</time></trkpt><trkpt lat="43.3245627" lon="12.7014513"><ele>491.0</ele><time>2026-05-02T11:03:46.997Z</time></trkpt><trkpt lat="43.3246296" lon="12.7014094"><ele>491.0</ele><time>2026-05-02T11:03:47.989Z</time></trkpt><trkpt lat="43.3246872" lon="12.7013498"><ele>491.0</ele><time>2026-05-02T11:03:49.003Z</time></trkpt><trkpt lat="43.3247372" lon="12.7012617"><ele>490.99999999999994</ele><time>2026-05-02T11:03:49.986Z</time></trkpt><trkpt lat="43.3247864" lon="12.7011677"><ele>491.0</ele><time>2026-05-02T11:03:50.988Z</time></trkpt><trkpt lat="43.3248218" lon="12.7010726"><ele>492.8</ele><time>2026-05-02T11:03:51.99Z</time></trkpt><trkpt lat="43.3248329" lon="12.7009703"><ele>494.6</ele><time>2026-05-02T11:03:52.998Z</time></trkpt><trkpt lat="43.3248164" lon="12.7008551"><ele>496.4</ele><time>2026-05-02T11:03:53.995Z</time></trkpt><trkpt lat="43.3247626" lon="12.7007294"><ele>498.2</ele><time>2026-05-02T11:03:54.996Z</time></trkpt><trkpt lat="43.3246951" lon="12.7006114"><ele>500.0</ele><time>2026-05-02T11:03:55.991Z</time></trkpt><trkpt lat="43.3246362" lon="12.7004955"><ele>499.99999999999994</ele><time>2026-05-02T11:03:56.992Z</time></trkpt><trkpt lat="43.3245692" lon="12.7003894"><ele>500.0</ele><time>2026-05-02T11:03:57.985Z</time></trkpt><trkpt lat="43.324499" lon="12.7003134"><ele>500.0</ele><time>2026-05-02T11:03:58.983Z</time></trkpt><trkpt lat="43.3244239" lon="12.7002546"><ele>500.0</ele><time>2026-05-02T11:04:00.006Z</time></trkpt><trkpt lat="43.3243499" lon="12.7002125"><ele>499.99999999999994</ele><time>2026-05-02T11:04:00.988Z</time></trkpt><trkpt lat="43.3242827" lon="12.7001793"><ele>500.0</ele><time>2026-05-02T11:04:01.978Z</time></trkpt><trkpt lat="43.3242128" lon="12.7000905"><ele>497.8333333333333</ele><time>2026-05-02T11:04:03.994Z</time></trkpt><trkpt lat="43.3242539" lon="12.7000102"><ele>495.66666666666663</ele><time>2026-05-02T11:04:05.994Z</time></trkpt><trkpt lat="43.3243187" lon="12.7000185"><ele>493.5</ele><time>2026-05-02T11:04:06.984Z</time></trkpt><trkpt lat="43.3243875" lon="12.7000578"><ele>491.33333333333337</ele><time>2026-05-02T11:04:07.99Z</time></trkpt><trkpt lat="43.3244687" lon="12.7000809"><ele>489.1666666666667</ele><time>2026-05-02T11:04:08.983Z</time></trkpt><trkpt lat="43.3245646" lon="12.7000905"><ele>487.0</ele><time>2026-05-02T11:04:09.995Z</time></trkpt><trkpt lat="43.3246555" lon="12.7001052"><ele>484.0</ele><time>2026-05-02T11:04:10.988Z</time></trkpt><trkpt lat="43.3247497" lon="12.7001516"><ele>481.00000000000006</ele><time>2026-05-02T11:04:11.98Z</time></trkpt><trkpt lat="43.3248383" lon="12.7002266"><ele>478.00000000000006</ele><time>2026-05-02T11:04:12.995Z</time></trkpt><trkpt lat="43.3249201" lon="12.7003033"><ele>475.0</ele><time>2026-05-02T11:04:13.988Z</time></trkpt><trkpt lat="43.3250166" lon="12.7003709"><ele>472.0</ele><time>2026-05-02T11:04:14.988Z</time></trkpt><trkpt lat="43.32512" lon="12.7004111"><ele>472.0</ele><time>2026-05-02T11:04:15.991Z</time></trkpt><trkpt lat="43.3252209" lon="12.7004479"><ele>472.00000000000006</ele><time>2026-05-02T11:04:16.979Z</time></trkpt><trkpt lat="43.3253083" lon="12.700495"><ele>472.00000000000006</ele><time>2026-05-02T11:04:17.985Z</time></trkpt><trkpt lat="43.3253915" lon="12.7005607"><ele>472.0</ele><time>2026-05-02T11:04:18.985Z</time></trkpt><trkpt lat="43.3254526" lon="12.7006495"><ele>472.0</ele><time>2026-05-02T11:04:19.983Z</time></trkpt><trkpt lat="43.3255229" lon="12.700731"><ele>467.6</ele><time>2026-05-02T11:04:20.992Z</time></trkpt><trkpt lat="43.3256009" lon="12.700791"><ele>463.20000000000005</ele><time>2026-05-02T11:04:21.995Z</time></trkpt><trkpt lat="43.325692" lon="12.7008378"><ele>458.8</ele><time>2026-05-02T11:04:22.981Z</time></trkpt><trkpt lat="43.3257839" lon="12.7008763"><ele>454.4</ele><time>2026-05-02T11:04:23.983Z</time></trkpt><trkpt lat="43.3258771" lon="12.7008958"><ele>450.0</ele><time>2026-05-02T11:04:24.981Z</time></trkpt><trkpt lat="43.3259599" lon="12.7009081"><ele>450.0</ele><time>2026-05-02T11:04:25.981Z</time></trkpt><trkpt lat="43.3260387" lon="12.7009535"><ele>450.0</ele><time>2026-05-02T11:04:26.989Z</time></trkpt><trkpt lat="43.3261122" lon="12.7010502"><ele>450.0</ele><time>2026-05-02T11:04:27.985Z</time></trkpt><trkpt lat="43.3261689" lon="12.7011478"><ele>450.0</ele><time>2026-05-02T11:04:28.987Z</time></trkpt><trkpt lat="43.3262108" lon="12.7012501"><ele>450.0</ele><time>2026-05-02T11:04:29.98Z</time></trkpt><trkpt lat="43.3262188" lon="12.7013581"><ele>450.0</ele><time>2026-05-02T11:04:30.987Z</time></trkpt><trkpt lat="43.3261924" lon="12.7014687"><ele>449.6</ele><time>2026-05-02T11:04:31.988Z</time></trkpt><trkpt lat="43.326155" lon="12.7015804"><ele>449.2</ele><time>2026-05-02T11:04:32.987Z</time></trkpt><trkpt lat="43.3261098" lon="12.7016836"><ele>448.79999999999995</ele><time>2026-05-02T11:04:33.99Z</time></trkpt><trkpt lat="43.326042" lon="12.7017769"><ele>448.4</ele><time>2026-05-02T11:04:34.99Z</time></trkpt><trkpt lat="43.3259592" lon="12.7018638"><ele>448.0</ele><time>2026-05-02T11:04:35.988Z</time></trkpt><trkpt lat="43.3258751" lon="12.7019158"><ele>443.50000000000006</ele><time>2026-05-02T11:04:36.992Z</time></trkpt><trkpt lat="43.3258021" lon="12.7019633"><ele>439.0</ele><time>2026-05-02T11:04:37.995Z</time></trkpt><trkpt lat="43.3257385" lon="12.7020045"><ele>434.5</ele><time>2026-05-02T11:04:38.987Z</time></trkpt><trkpt lat="43.3257265" lon="12.7021066"><ele>430.0</ele><time>2026-05-02T11:04:40.995Z</time></trkpt><trkpt lat="43.3258377" lon="12.7021135"><ele>425.50000000000006</ele><time>2026-05-02T11:04:42.988Z</time></trkpt><trkpt lat="43.3259109" lon="12.7020838"><ele>421.0</ele><time>2026-05-02T11:04:43.987Z</time></trkpt><trkpt lat="43.3260168" lon="12.7020615"><ele>421.0</ele><time>2026-05-02T11:04:44.985Z</time></trkpt><trkpt lat="43.3261396" lon="12.702057"><ele>421.0</ele><time>2026-05-02T11:04:45.985Z</time></trkpt><trkpt lat="43.3262701" lon="12.7020545"><ele>421.0</ele><time>2026-05-02T11:04:46.991Z</time></trkpt><trkpt lat="43.3263802" lon="12.7020491"><ele>421.0</ele><time>2026-05-02T11:04:47.986Z</time></trkpt><trkpt lat="43.3264735" lon="12.7020337"><ele>421.33333333333337</ele><time>2026-05-02T11:04:48.987Z</time></trkpt><trkpt lat="43.3265521" lon="12.701998"><ele>421.6666666666667</ele><time>2026-05-02T11:04:49.992Z</time></trkpt><trkpt lat="43.3266161" lon="12.7019343"><ele>422.0</ele><time>2026-05-02T11:04:50.991Z</time></trkpt><trkpt lat="43.3266467" lon="12.7018526"><ele>422.33333333333337</ele><time>2026-05-02T11:04:51.979Z</time></trkpt><trkpt lat="43.3266742" lon="12.7017652"><ele>422.6666666666667</ele><time>2026-05-02T11:04:52.997Z</time></trkpt><trkpt lat="43.3267914" lon="12.7017149"><ele>423.0</ele><time>2026-05-02T11:04:54.983Z</time></trkpt><trkpt lat="43.3268672" lon="12.7017572"><ele>423.0</ele><time>2026-05-02T11:04:56.006Z</time></trkpt><trkpt lat="43.3269461" lon="12.7018224"><ele>423.0</ele><time>2026-05-02T11:04:56.991Z</time></trkpt><trkpt lat="43.3270248" lon="12.7018752"><ele>423.0</ele><time>2026-05-02T11:04:57.983Z</time></trkpt><trkpt lat="43.3271015" lon="12.70191"><ele>423.0</ele><time>2026-05-02T11:04:58.984Z</time></trkpt><trkpt lat="43.3271624" lon="12.7019498"><ele>423.0</ele><time>2026-05-02T11:04:59.991Z</time></trkpt><trkpt lat="43.3272168" lon="12.7019948"><ele>423.0</ele><time>2026-05-02T11:05:00.991Z</time></trkpt><trkpt lat="43.3272287" lon="12.7021128"><ele>418.79999999999995</ele><time>2026-05-02T11:05:02.987Z</time></trkpt><trkpt lat="43.327285" lon="12.7022162"><ele>414.6</ele><time>2026-05-02T11:05:04.989Z</time></trkpt><trkpt lat="43.3273481" lon="12.7022132"><ele>410.4</ele><time>2026-05-02T11:05:05.985Z</time></trkpt><trkpt lat="43.3274588" lon="12.7021814"><ele>406.20000000000005</ele><time>2026-05-02T11:05:07.983Z</time></trkpt><trkpt lat="43.3275149" lon="12.7022221"><ele>402.0</ele><time>2026-05-02T11:05:08.986Z</time></trkpt><trkpt lat="43.3275637" lon="12.7023949"><ele>402.0</ele><time>2026-05-02T11:05:10.982Z</time></trkpt><trkpt lat="43.3275698" lon="12.7025221"><ele>402.0</ele><time>2026-05-02T11:05:11.985Z</time></trkpt><trkpt lat="43.3275632" lon="12.7026655"><ele>402.0</ele><time>2026-05-02T11:05:12.976Z</time></trkpt><trkpt lat="43.3275547" lon="12.702822"><ele>402.0</ele><time>2026-05-02T11:05:13.983Z</time></trkpt><trkpt lat="43.3275429" lon="12.7029937"><ele>402.0</ele><time>2026-05-02T11:05:14.989Z</time></trkpt><trkpt lat="43.3275278" lon="12.7031636"><ele>401.75</ele><time>2026-05-02T11:05:15.99Z</time></trkpt><trkpt lat="43.3274996" lon="12.7033316"><ele>401.5</ele><time>2026-05-02T11:05:16.988Z</time></trkpt><trkpt lat="43.3274509" lon="12.7034895"><ele>401.25</ele><time>2026-05-02T11:05:17.988Z</time></trkpt><trkpt lat="43.3273911" lon="12.7036455"><ele>401.0</ele><time>2026-05-02T11:05:18.993Z</time></trkpt><trkpt lat="43.3273263" lon="12.7037905"><ele>401.0</ele><time>2026-05-02T11:05:19.998Z</time></trkpt><trkpt lat="43.3272616" lon="12.7039291"><ele>401.0</ele><time>2026-05-02T11:05:20.989Z</time></trkpt><trkpt lat="43.3271976" lon="12.7040804"><ele>401.0</ele><time>2026-05-02T11:05:21.999Z</time></trkpt><trkpt lat="43.327131" lon="12.7042441"><ele>401.0</ele><time>2026-05-02T11:05:22.981Z</time></trkpt><trkpt lat="43.3270561" lon="12.7044143"><ele>401.0</ele><time>2026-05-02T11:05:23.991Z</time></trkpt><trkpt lat="43.3269824" lon="12.7045967"><ele>401.0</ele><time>2026-05-02T11:05:24.979Z</time></trkpt><trkpt lat="43.3269085" lon="12.7047773"><ele>401.0</ele><time>2026-05-02T11:05:25.983Z</time></trkpt><trkpt lat="43.3268314" lon="12.7049644"><ele>401.0</ele><time>2026-05-02T11:05:26.986Z</time></trkpt><trkpt lat="43.326746" lon="12.7051611"><ele>401.0</ele><time>2026-05-02T11:05:27.996Z</time></trkpt><trkpt lat="43.3266616" lon="12.7053679"><ele>401.0</ele><time>2026-05-02T11:05:28.994Z</time></trkpt><trkpt lat="43.3265791" lon="12.7055778"><ele>400.66666666666663</ele><time>2026-05-02T11:05:29.987Z</time></trkpt><trkpt lat="43.3264887" lon="12.7057896"><ele>400.33333333333337</ele><time>2026-05-02T11:05:31Z</time></trkpt><trkpt lat="43.3263953" lon="12.7060041"><ele>400.0</ele><time>2026-05-02T11:05:31.988Z</time></trkpt><trkpt lat="43.326302" lon="12.7062299"><ele>400.6666666666667</ele><time>2026-05-02T11:05:32.99Z</time></trkpt><trkpt lat="43.3262029" lon="12.7064628"><ele>401.33333333333337</ele><time>2026-05-02T11:05:33.988Z</time></trkpt><trkpt lat="43.3260958" lon="12.7066879"><ele>402.0</ele><time>2026-05-02T11:05:34.996Z</time></trkpt><trkpt lat="43.3259953" lon="12.7068937"><ele>404.33333333333337</ele><time>2026-05-02T11:05:35.981Z</time></trkpt><trkpt lat="43.3259052" lon="12.7070869"><ele>406.6666666666667</ele><time>2026-05-02T11:05:37.01Z</time></trkpt><trkpt lat="43.3258331" lon="12.7072737"><ele>409.0</ele><time>2026-05-02T11:05:37.993Z</time></trkpt><trkpt lat="43.3257654" lon="12.7074856"><ele>409.0</ele><time>2026-05-02T11:05:38.98Z</time></trkpt><trkpt lat="43.3257075" lon="12.7076984"><ele>409.0</ele><time>2026-05-02T11:05:40.005Z</time></trkpt><trkpt lat="43.3256643" lon="12.7079068"><ele>409.0</ele><time>2026-05-02T11:05:41.015Z</time></trkpt><trkpt lat="43.3256438" lon="12.7081379"><ele>411.33333333333337</ele><time>2026-05-02T11:05:41.996Z</time></trkpt><trkpt lat="43.3256345" lon="12.708366"><ele>413.66666666666663</ele><time>2026-05-02T11:05:42.988Z</time></trkpt><trkpt lat="43.3256428" lon="12.7086095"><ele>416.0</ele><time>2026-05-02T11:05:43.98Z</time></trkpt><trkpt lat="43.3256711" lon="12.708884"><ele>417.3333333333333</ele><time>2026-05-02T11:05:45.006Z</time></trkpt><trkpt lat="43.3256936" lon="12.7091458"><ele>418.66666666666663</ele><time>2026-05-02T11:05:45.985Z</time></trkpt><trkpt lat="43.3257216" lon="12.7093695"><ele>420.0</ele><time>2026-05-02T11:05:46.984Z</time></trkpt><trkpt lat="43.3257572" lon="12.7095606"><ele>420.0</ele><time>2026-05-02T11:05:47.989Z</time></trkpt><trkpt lat="43.3257995" lon="12.7097226"><ele>420.0</ele><time>2026-05-02T11:05:48.991Z</time></trkpt><trkpt lat="43.32586" lon="12.7098761"><ele>420.0</ele><time>2026-05-02T11:05:49.997Z</time></trkpt><trkpt lat="43.3259293" lon="12.7100222"><ele>420.0</ele><time>2026-05-02T11:05:50.989Z</time></trkpt><trkpt lat="43.3260169" lon="12.7101508"><ele>416.75</ele><time>2026-05-02T11:05:51.988Z</time></trkpt><trkpt lat="43.3261265" lon="12.7102851"><ele>413.5</ele><time>2026-05-02T11:05:52.981Z</time></trkpt><trkpt lat="43.3262292" lon="12.7104296"><ele>410.25</ele><time>2026-05-02T11:05:53.977Z</time></trkpt><trkpt lat="43.3263105" lon="12.7105773"><ele>407.0</ele><time>2026-05-02T11:05:54.985Z</time></trkpt><trkpt lat="43.3263738" lon="12.7107177"><ele>407.20000000000005</ele><time>2026-05-02T11:05:55.979Z</time></trkpt><trkpt lat="43.3264318" lon="12.7108495"><ele>407.4</ele><time>2026-05-02T11:05:56.996Z</time></trkpt><trkpt lat="43.3264663" lon="12.7109847"><ele>407.6</ele><time>2026-05-02T11:05:57.987Z</time></trkpt><trkpt lat="43.326491" lon="12.7111308"><ele>407.79999999999995</ele><time>2026-05-02T11:05:58.999Z</time></trkpt><trkpt lat="43.3265131" lon="12.7112729"><ele>408.0</ele><time>2026-05-02T11:05:59.989Z</time></trkpt><trkpt lat="43.3265342" lon="12.7114146"><ele>408.0</ele><time>2026-05-02T11:06:00.986Z</time></trkpt><trkpt lat="43.3265577" lon="12.711552"><ele>408.0</ele><time>2026-05-02T11:06:01.989Z</time></trkpt><trkpt lat="43.3265861" lon="12.7116801"><ele>408.0</ele><time>2026-05-02T11:06:02.997Z</time></trkpt><trkpt lat="43.3266047" lon="12.7118064"><ele>408.0</ele><time>2026-05-02T11:06:04.013Z</time></trkpt><trkpt lat="43.3266225" lon="12.7119341"><ele>408.0</ele><time>2026-05-02T11:06:04.981Z</time></trkpt><trkpt lat="43.3266352" lon="12.7120651"><ele>408.1666666666667</ele><time>2026-05-02T11:06:05.985Z</time></trkpt><trkpt lat="43.3266506" lon="12.7121921"><ele>408.33333333333337</ele><time>2026-05-02T11:06:06.986Z</time></trkpt><trkpt lat="43.3266581" lon="12.7123036"><ele>408.5</ele><time>2026-05-02T11:06:07.999Z</time></trkpt><trkpt lat="43.3266476" lon="12.7124108"><ele>408.6666666666667</ele><time>2026-05-02T11:06:08.992Z</time></trkpt><trkpt lat="43.3266139" lon="12.7125159"><ele>408.83333333333337</ele><time>2026-05-02T11:06:09.989Z</time></trkpt><trkpt lat="43.3265742" lon="12.7126036"><ele>409.0</ele><time>2026-05-02T11:06:10.991Z</time></trkpt><trkpt lat="43.3264976" lon="12.7127163"><ele>408.83333333333337</ele><time>2026-05-02T11:06:12.986Z</time></trkpt><trkpt lat="43.3263772" lon="12.7127816"><ele>408.6666666666667</ele><time>2026-05-02T11:06:15.009Z</time></trkpt><trkpt lat="43.3263094" lon="12.7127988"><ele>408.5</ele><time>2026-05-02T11:06:15.977Z</time></trkpt><trkpt lat="43.3262336" lon="12.7127895"><ele>408.33333333333337</ele><time>2026-05-02T11:06:17.991Z</time></trkpt><trkpt lat="43.3262019" lon="12.7128649"><ele>408.1666666666667</ele><time>2026-05-02T11:06:21.989Z</time></trkpt><trkpt lat="43.3262655" lon="12.7128534"><ele>408.0</ele><time>2026-05-02T11:06:29.991Z</time></trkpt><trkpt lat="43.3263453" lon="12.7128017"><ele>408.2</ele><time>2026-05-02T11:06:31.994Z</time></trkpt><trkpt lat="43.3264221" lon="12.7127634"><ele>408.4</ele><time>2026-05-02T11:06:32.986Z</time></trkpt><trkpt lat="43.3265031" lon="12.7127222"><ele>408.59999999999997</ele><time>2026-05-02T11:06:33.992Z</time></trkpt><trkpt lat="43.3265703" lon="12.7126303"><ele>408.79999999999995</ele><time>2026-05-02T11:06:34.984Z</time></trkpt><trkpt lat="43.3266258" lon="12.7124973"><ele>409.0</ele><time>2026-05-02T11:06:35.984Z</time></trkpt><trkpt lat="43.3266533" lon="12.7123482"><ele>409.0</ele><time>2026-05-02T11:06:36.976Z</time></trkpt><trkpt lat="43.3266492" lon="12.7121845"><ele>409.0</ele><time>2026-05-02T11:06:37.987Z</time></trkpt><trkpt lat="43.3266306" lon="12.7119906"><ele>409.0</ele><time>2026-05-02T11:06:38.991Z</time></trkpt><trkpt lat="43.3266019" lon="12.7117948"><ele>409.0</ele><time>2026-05-02T11:06:39.989Z</time></trkpt><trkpt lat="43.3265753" lon="12.7116033"><ele>408.75</ele><time>2026-05-02T11:06:40.992Z</time></trkpt><trkpt lat="43.3265403" lon="12.7114385"><ele>408.5</ele><time>2026-05-02T11:06:41.982Z</time></trkpt><trkpt lat="43.3265099" lon="12.7112878"><ele>408.25</ele><time>2026-05-02T11:06:42.984Z</time></trkpt><trkpt lat="43.3264858" lon="12.7111375"><ele>408.0</ele><time>2026-05-02T11:06:43.985Z</time></trkpt><trkpt lat="43.326464" lon="12.7109977"><ele>407.8333333333333</ele><time>2026-05-02T11:06:44.982Z</time></trkpt><trkpt lat="43.3264376" lon="12.7108721"><ele>407.66666666666663</ele><time>2026-05-02T11:06:45.984Z</time></trkpt><trkpt lat="43.3264048" lon="12.7107606"><ele>407.5</ele><time>2026-05-02T11:06:46.979Z</time></trkpt><trkpt lat="43.3263667" lon="12.710671"><ele>407.3333333333333</ele><time>2026-05-02T11:06:47.981Z</time></trkpt><trkpt lat="43.3263238" lon="12.7105967"><ele>407.16666666666663</ele><time>2026-05-02T11:06:48.989Z</time></trkpt><trkpt lat="43.3262806" lon="12.710533"><ele>407.0</ele><time>2026-05-02T11:06:49.991Z</time></trkpt><trkpt lat="43.3262351" lon="12.710467"><ele>406.99999999999994</ele><time>2026-05-02T11:06:50.982Z</time></trkpt><trkpt lat="43.3261798" lon="12.7103894"><ele>407.0</ele><time>2026-05-02T11:06:51.999Z</time></trkpt><trkpt lat="43.3261172" lon="12.7103046"><ele>407.0</ele><time>2026-05-02T11:06:53.004Z</time></trkpt><trkpt lat="43.3260564" lon="12.7102222"><ele>407.0</ele><time>2026-05-02T11:06:53.989Z</time></trkpt><trkpt lat="43.3260054" lon="12.7101505"><ele>406.99999999999994</ele><time>2026-05-02T11:06:54.988Z</time></trkpt><trkpt lat="43.3259268" lon="12.7100744"><ele>407.0</ele><time>2026-05-02T11:06:56.986Z</time></trkpt><trkpt lat="43.3258489" lon="12.7100464"><ele>407.99999999999994</ele><time>2026-05-02T11:19:40.981Z</time></trkpt><trkpt lat="43.3257478" lon="12.7100095"><ele>409.0</ele><time>2026-05-02T11:19:42.986Z</time></trkpt><trkpt lat="43.3256898" lon="12.7099752"><ele>410.0</ele><time>2026-05-02T11:19:43.979Z</time></trkpt><trkpt lat="43.3256207" lon="12.7099326"><ele>411.0</ele><time>2026-05-02T11:19:44.974Z</time></trkpt><trkpt lat="43.3255353" lon="12.709882"><ele>411.99999999999994</ele><time>2026-05-02T11:19:45.977Z</time></trkpt><trkpt lat="43.3254414" lon="12.7098389"><ele>413.0</ele><time>2026-05-02T11:19:46.979Z</time></trkpt><trkpt lat="43.3253385" lon="12.7097959"><ele>413.0</ele><time>2026-05-02T11:19:47.971Z</time></trkpt><trkpt lat="43.3252325" lon="12.7097668"><ele>413.0</ele><time>2026-05-02T11:19:48.974Z</time></trkpt><trkpt lat="43.3251299" lon="12.7097519"><ele>413.0</ele><time>2026-05-02T11:19:49.978Z</time></trkpt><trkpt lat="43.3250312" lon="12.7097451"><ele>413.0</ele><time>2026-05-02T11:19:50.975Z</time></trkpt><trkpt lat="43.3249422" lon="12.7097469"><ele>413.0</ele><time>2026-05-02T11:19:51.974Z</time></trkpt><trkpt lat="43.3248662" lon="12.7097506"><ele>413.0</ele><time>2026-05-02T11:19:52.976Z</time></trkpt><trkpt lat="43.3247975" lon="12.7097493"><ele>413.0</ele><time>2026-05-02T11:19:53.978Z</time></trkpt><trkpt lat="43.324735" lon="12.7097307"><ele>413.0</ele><time>2026-05-02T11:19:54.975Z</time></trkpt><trkpt lat="43.3246745" lon="12.7096984"><ele>413.0</ele><time>2026-05-02T11:19:55.981Z</time></trkpt><trkpt lat="43.3246186" lon="12.7096519"><ele>413.0</ele><time>2026-05-02T11:19:56.985Z</time></trkpt><trkpt lat="43.3245697" lon="12.7095903"><ele>413.0</ele><time>2026-05-02T11:19:57.972Z</time></trkpt><trkpt lat="43.3245249" lon="12.709511"><ele>413.0</ele><time>2026-05-02T11:19:58.978Z</time></trkpt><trkpt lat="43.3244673" lon="12.7094209"><ele>412.2</ele><time>2026-05-02T11:19:59.977Z</time></trkpt><trkpt lat="43.324398" lon="12.7093265"><ele>411.4</ele><time>2026-05-02T11:20:00.976Z</time></trkpt><trkpt lat="43.3243162" lon="12.7092463"><ele>410.59999999999997</ele><time>2026-05-02T11:20:01.976Z</time></trkpt><trkpt lat="43.3242253" lon="12.7091805"><ele>409.79999999999995</ele><time>2026-05-02T11:20:02.975Z</time></trkpt><trkpt lat="43.3241253" lon="12.7091028"><ele>409.0</ele><time>2026-05-02T11:20:03.981Z</time></trkpt><trkpt lat="43.3240103" lon="12.7090202"><ele>408.0</ele><time>2026-05-02T11:20:04.981Z</time></trkpt><trkpt lat="43.3238932" lon="12.7089356"><ele>407.0</ele><time>2026-05-02T11:20:05.983Z</time></trkpt><trkpt lat="43.3237769" lon="12.7088418"><ele>406.0</ele><time>2026-05-02T11:20:06.982Z</time></trkpt><trkpt lat="43.323666" lon="12.7087452"><ele>405.0</ele><time>2026-05-02T11:20:07.979Z</time></trkpt><trkpt lat="43.323563" lon="12.7086457"><ele>404.8</ele><time>2026-05-02T11:20:08.982Z</time></trkpt><trkpt lat="43.3234798" lon="12.7085538"><ele>404.6</ele><time>2026-05-02T11:20:09.975Z</time></trkpt><trkpt lat="43.3234079" lon="12.7084693"><ele>404.4</ele><time>2026-05-02T11:20:10.988Z</time></trkpt><trkpt lat="43.3233414" lon="12.7083884"><ele>404.2</ele><time>2026-05-02T11:20:11.975Z</time></trkpt><trkpt lat="43.3232738" lon="12.708306"><ele>404.0</ele><time>2026-05-02T11:20:12.991Z</time></trkpt><trkpt lat="43.3232069" lon="12.7082187"><ele>403.99999999999994</ele><time>2026-05-02T11:20:13.974Z</time></trkpt><trkpt lat="43.3231479" lon="12.7081418"><ele>404.0</ele><time>2026-05-02T11:20:14.979Z</time></trkpt><trkpt lat="43.3230922" lon="12.7080835"><ele>404.0</ele><time>2026-05-02T11:20:15.978Z</time></trkpt><trkpt lat="43.3230351" lon="12.7080432"><ele>404.0</ele><time>2026-05-02T11:20:16.983Z</time></trkpt><trkpt lat="43.3229734" lon="12.7080217"><ele>403.99999999999994</ele><time>2026-05-02T11:20:17.985Z</time></trkpt><trkpt lat="43.3228535" lon="12.7080289"><ele>404.0</ele><time>2026-05-02T11:20:19.978Z</time></trkpt><trkpt lat="43.3227353" lon="12.7081275"><ele>403.4</ele><time>2026-05-02T11:20:21.977Z</time></trkpt><trkpt lat="43.3226666" lon="12.7082076"><ele>402.79999999999995</ele><time>2026-05-02T11:20:22.983Z</time></trkpt><trkpt lat="43.3226028" lon="12.7083036"><ele>402.20000000000005</ele><time>2026-05-02T11:20:23.971Z</time></trkpt><trkpt lat="43.3225393" lon="12.7084142"><ele>401.6</ele><time>2026-05-02T11:20:24.988Z</time></trkpt><trkpt lat="43.3224775" lon="12.7085407"><ele>401.0</ele><time>2026-05-02T11:20:25.979Z</time></trkpt><trkpt lat="43.3224013" lon="12.7086672"><ele>401.0</ele><time>2026-05-02T11:20:26.979Z</time></trkpt><trkpt lat="43.3223161" lon="12.7087839"><ele>401.0</ele><time>2026-05-02T11:20:27.977Z</time></trkpt><trkpt lat="43.3222225" lon="12.7088775"><ele>401.0</ele><time>2026-05-02T11:20:28.983Z</time></trkpt><trkpt lat="43.322129" lon="12.7089472"><ele>401.0</ele><time>2026-05-02T11:20:29.97Z</time></trkpt><trkpt lat="43.322025" lon="12.708997"><ele>402.0</ele><time>2026-05-02T11:20:30.978Z</time></trkpt><trkpt lat="43.3219154" lon="12.7090448"><ele>403.0</ele><time>2026-05-02T11:20:31.971Z</time></trkpt><trkpt lat="43.3217931" lon="12.7090831"><ele>404.0</ele><time>2026-05-02T11:20:32.985Z</time></trkpt><trkpt lat="43.321663" lon="12.7091139"><ele>405.0</ele><time>2026-05-02T11:20:33.974Z</time></trkpt><trkpt lat="43.3215438" lon="12.709131"><ele>405.0</ele><time>2026-05-02T11:20:34.976Z</time></trkpt><trkpt lat="43.3214381" lon="12.709141"><ele>405.0</ele><time>2026-05-02T11:20:35.974Z</time></trkpt><trkpt lat="43.3213358" lon="12.7091352"><ele>405.0</ele><time>2026-05-02T11:20:36.974Z</time></trkpt><trkpt lat="43.3212358" lon="12.7091047"><ele>405.0</ele><time>2026-05-02T11:20:37.975Z</time></trkpt><trkpt lat="43.3211176" lon="12.7090506"><ele>405.0</ele><time>2026-05-02T11:20:38.979Z</time></trkpt><trkpt lat="43.3209996" lon="12.7089718"><ele>406.0</ele><time>2026-05-02T11:20:39.987Z</time></trkpt><trkpt lat="43.3208979" lon="12.708891"><ele>407.0</ele><time>2026-05-02T11:20:40.98Z</time></trkpt><trkpt lat="43.3208033" lon="12.7088164"><ele>408.0</ele><time>2026-05-02T11:20:41.979Z</time></trkpt><trkpt lat="43.3207052" lon="12.7087462"><ele>409.0</ele><time>2026-05-02T11:20:42.972Z</time></trkpt><trkpt lat="43.3206163" lon="12.708685"><ele>410.0</ele><time>2026-05-02T11:20:43.976Z</time></trkpt><trkpt lat="43.3205355" lon="12.7086447"><ele>410.16666666666663</ele><time>2026-05-02T11:20:44.976Z</time></trkpt><trkpt lat="43.3204615" lon="12.7086366"><ele>410.3333333333333</ele><time>2026-05-02T11:20:45.974Z</time></trkpt><trkpt lat="43.3203828" lon="12.7086574"><ele>410.5</ele><time>2026-05-02T11:20:46.976Z</time></trkpt><trkpt lat="43.3202977" lon="12.708675"><ele>410.66666666666663</ele><time>2026-05-02T11:20:47.991Z</time></trkpt><trkpt lat="43.3202085" lon="12.7086919"><ele>410.8333333333333</ele><time>2026-05-02T11:20:48.979Z</time></trkpt><trkpt lat="43.320113" lon="12.7087128"><ele>411.0</ele><time>2026-05-02T11:20:49.981Z</time></trkpt><trkpt lat="43.3200129" lon="12.7087351"><ele>411.0</ele><time>2026-05-02T11:20:50.971Z</time></trkpt><trkpt lat="43.3199011" lon="12.7087626"><ele>411.0</ele><time>2026-05-02T11:20:51.978Z</time></trkpt><trkpt lat="43.31978" lon="12.7087887"><ele>411.0</ele><time>2026-05-02T11:20:52.977Z</time></trkpt><trkpt lat="43.3196568" lon="12.7088183"><ele>411.0</ele><time>2026-05-02T11:20:53.98Z</time></trkpt><trkpt lat="43.3195416" lon="12.7088474"><ele>410.4</ele><time>2026-05-02T11:20:54.984Z</time></trkpt><trkpt lat="43.3194331" lon="12.7088754"><ele>409.8</ele><time>2026-05-02T11:20:55.972Z</time></trkpt><trkpt lat="43.3193274" lon="12.7089085"><ele>409.2</ele><time>2026-05-02T11:20:56.987Z</time></trkpt><trkpt lat="43.3192282" lon="12.7089598"><ele>408.59999999999997</ele><time>2026-05-02T11:20:57.983Z</time></trkpt><trkpt lat="43.3191288" lon="12.7090215"><ele>408.0</ele><time>2026-05-02T11:20:58.979Z</time></trkpt><trkpt lat="43.3190383" lon="12.7090857"><ele>408.0</ele><time>2026-05-02T11:20:59.977Z</time></trkpt><trkpt lat="43.3189517" lon="12.7091516"><ele>408.0</ele><time>2026-05-02T11:21:00.965Z</time></trkpt><trkpt lat="43.3188729" lon="12.7092157"><ele>408.0</ele><time>2026-05-02T11:21:01.976Z</time></trkpt><trkpt lat="43.3187969" lon="12.7092913"><ele>408.0</ele><time>2026-05-02T11:21:02.978Z</time></trkpt><trkpt lat="43.3187234" lon="12.709376"><ele>408.0</ele><time>2026-05-02T11:21:03.976Z</time></trkpt><trkpt lat="43.3186504" lon="12.7094856"><ele>409.75</ele><time>2026-05-02T11:21:04.976Z</time></trkpt><trkpt lat="43.318574" lon="12.709608"><ele>411.5</ele><time>2026-05-02T11:21:05.982Z</time></trkpt><trkpt lat="43.318493" lon="12.7097253"><ele>413.25</ele><time>2026-05-02T11:21:06.98Z</time></trkpt><trkpt lat="43.3184085" lon="12.7098467"><ele>415.0</ele><time>2026-05-02T11:21:07.983Z</time></trkpt><trkpt lat="43.3183227" lon="12.7099596"><ele>415.0</ele><time>2026-05-02T11:21:08.988Z</time></trkpt><trkpt lat="43.3182345" lon="12.7100782"><ele>415.0</ele><time>2026-05-02T11:21:09.985Z</time></trkpt><trkpt lat="43.3181565" lon="12.7101979"><ele>415.0</ele><time>2026-05-02T11:21:10.988Z</time></trkpt><trkpt lat="43.3180884" lon="12.7103042"><ele>415.0</ele><time>2026-05-02T11:21:11.975Z</time></trkpt><trkpt lat="43.3180305" lon="12.7104073"><ele>415.0</ele><time>2026-05-02T11:21:12.973Z</time></trkpt><trkpt lat="43.3179904" lon="12.7104978"><ele>415.7142857142857</ele><time>2026-05-02T11:21:13.977Z</time></trkpt><trkpt lat="43.3179579" lon="12.7105926"><ele>416.42857142857144</ele><time>2026-05-02T11:21:14.974Z</time></trkpt><trkpt lat="43.3179333" lon="12.710699"><ele>417.1428571428571</ele><time>2026-05-02T11:21:15.97Z</time></trkpt><trkpt lat="43.3179249" lon="12.7107997"><ele>417.8571428571429</ele><time>2026-05-02T11:21:16.986Z</time></trkpt><trkpt lat="43.3179251" lon="12.7108905"><ele>418.57142857142856</ele><time>2026-05-02T11:21:17.978Z</time></trkpt><trkpt lat="43.3179345" lon="12.7109796"><ele>419.2857142857143</ele><time>2026-05-02T11:21:18.978Z</time></trkpt><trkpt lat="43.3179525" lon="12.7110761"><ele>420.0</ele><time>2026-05-02T11:21:19.983Z</time></trkpt><trkpt lat="43.3179794" lon="12.7111689"><ele>421.1666666666667</ele><time>2026-05-02T11:21:20.98Z</time></trkpt><trkpt lat="43.3179832" lon="12.711258"><ele>422.33333333333337</ele><time>2026-05-02T11:21:21.974Z</time></trkpt><trkpt lat="43.3179597" lon="12.7114219"><ele>423.5</ele><time>2026-05-02T11:21:23.979Z</time></trkpt><trkpt lat="43.3179541" lon="12.7115259"><ele>424.6666666666667</ele><time>2026-05-02T11:21:25.977Z</time></trkpt><trkpt lat="43.317896" lon="12.7116048"><ele>425.83333333333337</ele><time>2026-05-02T11:22:00.98Z</time></trkpt><trkpt lat="43.3178434" lon="12.7116621"><ele>427.0</ele><time>2026-05-02T11:22:03.984Z</time></trkpt><trkpt lat="43.3179258" lon="12.7116028"><ele>427.00000000000006</ele><time>2026-05-02T11:22:08.978Z</time></trkpt><trkpt lat="43.3179608" lon="12.7114934"><ele>427.0</ele><time>2026-05-02T11:22:10.973Z</time></trkpt><trkpt lat="43.3179856" lon="12.7114133"><ele>427.0</ele><time>2026-05-02T11:22:12.978Z</time></trkpt><trkpt lat="43.3179856" lon="12.7113147"><ele>427.0</ele><time>2026-05-02T11:22:14.987Z</time></trkpt><trkpt lat="43.3179861" lon="12.7111899"><ele>427.00000000000006</ele><time>2026-05-02T11:22:16.981Z</time></trkpt><trkpt lat="43.3179735" lon="12.7110717"><ele>427.0</ele><time>2026-05-02T11:22:18.97Z</time></trkpt><trkpt lat="43.3179448" lon="12.7109436"><ele>425.83333333333337</ele><time>2026-05-02T11:22:20.978Z</time></trkpt><trkpt lat="43.317931" lon="12.7108108"><ele>424.6666666666667</ele><time>2026-05-02T11:22:22.983Z</time></trkpt><trkpt lat="43.3179262" lon="12.7106824"><ele>423.5</ele><time>2026-05-02T11:22:24.989Z</time></trkpt><trkpt lat="43.3179472" lon="12.7105671"><ele>422.33333333333337</ele><time>2026-05-02T11:22:26.978Z</time></trkpt><trkpt lat="43.3179379" lon="12.7104585"><ele>421.1666666666667</ele><time>2026-05-02T11:22:29.99Z</time></trkpt><trkpt lat="43.3178769" lon="12.7103797"><ele>420.0</ele><time>2026-05-02T11:22:31.979Z</time></trkpt><trkpt lat="43.3178036" lon="12.7102452"><ele>418.8</ele><time>2026-05-02T11:22:33.98Z</time></trkpt><trkpt lat="43.3177344" lon="12.7101178"><ele>417.6</ele><time>2026-05-02T11:22:35.977Z</time></trkpt><trkpt lat="43.3176731" lon="12.7100072"><ele>416.4</ele><time>2026-05-02T11:22:37.979Z</time></trkpt><trkpt lat="43.3176121" lon="12.7098888"><ele>415.2</ele><time>2026-05-02T11:22:39.979Z</time></trkpt><trkpt lat="43.3175502" lon="12.7097872"><ele>414.0</ele><time>2026-05-02T11:22:41.979Z</time></trkpt><trkpt lat="43.3174895" lon="12.7097057"><ele>414.0</ele><time>2026-05-02T11:22:43.979Z</time></trkpt><trkpt lat="43.31742" lon="12.7096112"><ele>414.0</ele><time>2026-05-02T11:22:45.977Z</time></trkpt><trkpt lat="43.3173523" lon="12.7095066"><ele>414.0</ele><time>2026-05-02T11:22:47.984Z</time></trkpt><trkpt lat="43.3172917" lon="12.7094089"><ele>414.0</ele><time>2026-05-02T11:22:49.979Z</time></trkpt><trkpt lat="43.3172473" lon="12.7093191"><ele>414.0</ele><time>2026-05-02T11:22:51.978Z</time></trkpt><trkpt lat="43.3171992" lon="12.7092103"><ele>412.1666666666667</ele><time>2026-05-02T11:22:53.981Z</time></trkpt><trkpt lat="43.3171356" lon="12.7090868"><ele>410.33333333333337</ele><time>2026-05-02T11:22:55.98Z</time></trkpt><trkpt lat="43.3170755" lon="12.7090127"><ele>408.5</ele><time>2026-05-02T11:22:57.978Z</time></trkpt><trkpt lat="43.3169992" lon="12.7089558"><ele>406.6666666666667</ele><time>2026-05-02T11:23:00.976Z</time></trkpt><trkpt lat="43.3169101" lon="12.7089167"><ele>404.83333333333337</ele><time>2026-05-02T11:23:03.972Z</time></trkpt><trkpt lat="43.3168461" lon="12.7089102"><ele>403.0</ele><time>2026-05-02T11:23:05.977Z</time></trkpt><trkpt lat="43.3167734" lon="12.7089028"><ele>403.0</ele><time>2026-05-02T11:23:07.974Z</time></trkpt><trkpt lat="43.3166724" lon="12.7088749"><ele>403.0</ele><time>2026-05-02T11:23:09.97Z</time></trkpt><trkpt lat="43.3165888" lon="12.7087862"><ele>403.0</ele><time>2026-05-02T11:23:11.983Z</time></trkpt><trkpt lat="43.3165243" lon="12.7086634"><ele>403.0</ele><time>2026-05-02T11:23:13.98Z</time></trkpt><trkpt lat="43.3164643" lon="12.708511"><ele>403.0</ele><time>2026-05-02T11:23:15.985Z</time></trkpt><trkpt lat="43.3164271" lon="12.7084149"><ele>401.2</ele><time>2026-05-02T11:23:16.989Z</time></trkpt><trkpt lat="43.3163871" lon="12.7082945"><ele>399.4</ele><time>2026-05-02T11:23:17.978Z</time></trkpt><trkpt lat="43.3163463" lon="12.7081472"><ele>397.59999999999997</ele><time>2026-05-02T11:23:18.982Z</time></trkpt><trkpt lat="43.3163034" lon="12.7079962"><ele>395.79999999999995</ele><time>2026-05-02T11:23:19.99Z</time></trkpt><trkpt lat="43.316264" lon="12.7078539"><ele>394.0</ele><time>2026-05-02T11:23:20.975Z</time></trkpt><trkpt lat="43.3162258" lon="12.7077208"><ele>393.33333333333337</ele><time>2026-05-02T11:23:21.983Z</time></trkpt><trkpt lat="43.3161956" lon="12.7076044"><ele>392.6666666666667</ele><time>2026-05-02T11:23:22.976Z</time></trkpt><trkpt lat="43.3161622" lon="12.7074977"><ele>392.0</ele><time>2026-05-02T11:23:23.981Z</time></trkpt><trkpt lat="43.3161212" lon="12.7074001"><ele>391.33333333333337</ele><time>2026-05-02T11:23:24.974Z</time></trkpt><trkpt lat="43.3160803" lon="12.7073141"><ele>390.6666666666667</ele><time>2026-05-02T11:23:25.979Z</time></trkpt><trkpt lat="43.3160079" lon="12.7072023"><ele>390.0</ele><time>2026-05-02T11:23:27.977Z</time></trkpt><trkpt lat="43.3159463" lon="12.7071236"><ele>390.0</ele><time>2026-05-02T11:23:29.979Z</time></trkpt><trkpt lat="43.3158787" lon="12.707047"><ele>390.0</ele><time>2026-05-02T11:23:31.979Z</time></trkpt><trkpt lat="43.3158294" lon="12.706992"><ele>390.0</ele><time>2026-05-02T11:23:32.976Z</time></trkpt><trkpt lat="43.3157724" lon="12.7069305"><ele>390.0</ele><time>2026-05-02T11:23:33.98Z</time></trkpt><trkpt lat="43.3157173" lon="12.7068857"><ele>390.0</ele><time>2026-05-02T11:23:34.97Z</time></trkpt><trkpt lat="43.3156464" lon="12.7068669"><ele>390.0</ele><time>2026-05-02T11:23:36.981Z</time></trkpt><trkpt lat="43.3156041" lon="12.7069339"><ele>390.0</ele><time>2026-05-02T11:23:38.978Z</time></trkpt><trkpt lat="43.3155783" lon="12.7070662"><ele>391.3333333333333</ele><time>2026-05-02T11:23:40.979Z</time></trkpt><trkpt lat="43.3155369" lon="12.7071416"><ele>392.66666666666663</ele><time>2026-05-02T11:23:41.989Z</time></trkpt><trkpt lat="43.3154832" lon="12.7072333"><ele>394.0</ele><time>2026-05-02T11:23:42.978Z</time></trkpt><trkpt lat="43.3154243" lon="12.7073285"><ele>395.3333333333333</ele><time>2026-05-02T11:23:43.977Z</time></trkpt><trkpt lat="43.3153675" lon="12.7074229"><ele>396.66666666666663</ele><time>2026-05-02T11:23:44.985Z</time></trkpt><trkpt lat="43.3153083" lon="12.7075113"><ele>398.0</ele><time>2026-05-02T11:23:45.983Z</time></trkpt><trkpt lat="43.3152544" lon="12.7075848"><ele>397.99999999999994</ele><time>2026-05-02T11:23:46.977Z</time></trkpt><trkpt lat="43.3152047" lon="12.7076586"><ele>398.0</ele><time>2026-05-02T11:23:47.978Z</time></trkpt><trkpt lat="43.3151564" lon="12.707737"><ele>398.0</ele><time>2026-05-02T11:23:48.983Z</time></trkpt><trkpt lat="43.3151085" lon="12.7078183"><ele>398.0</ele><time>2026-05-02T11:23:49.987Z</time></trkpt><trkpt lat="43.3150604" lon="12.7078992"><ele>397.99999999999994</ele><time>2026-05-02T11:23:50.987Z</time></trkpt><trkpt lat="43.3150097" lon="12.7079713"><ele>398.0</ele><time>2026-05-02T11:23:51.978Z</time></trkpt><trkpt lat="43.3149523" lon="12.7080429"><ele>398.57142857142856</ele><time>2026-05-02T11:23:52.983Z</time></trkpt><trkpt lat="43.3148972" lon="12.708103"><ele>399.1428571428571</ele><time>2026-05-02T11:23:53.982Z</time></trkpt><trkpt lat="43.3148464" lon="12.7081596"><ele>399.71428571428567</ele><time>2026-05-02T11:23:54.984Z</time></trkpt><trkpt lat="43.3147934" lon="12.7082145"><ele>400.2857142857143</ele><time>2026-05-02T11:23:55.981Z</time></trkpt><trkpt lat="43.3147376" lon="12.708274"><ele>400.8571428571429</ele><time>2026-05-02T11:23:56.977Z</time></trkpt><trkpt lat="43.3146761" lon="12.708337"><ele>401.4285714285714</ele><time>2026-05-02T11:23:57.985Z</time></trkpt><trkpt lat="43.3146075" lon="12.7084057"><ele>402.0</ele><time>2026-05-02T11:23:58.983Z</time></trkpt><trkpt lat="43.3145348" lon="12.7084667"><ele>402.0</ele><time>2026-05-02T11:23:59.978Z</time></trkpt><trkpt lat="43.314456" lon="12.708527"><ele>402.0</ele><time>2026-05-02T11:24:00.979Z</time></trkpt><trkpt lat="43.3143602" lon="12.7085737"><ele>402.0</ele><time>2026-05-02T11:24:01.98Z</time></trkpt><trkpt lat="43.3142536" lon="12.7086184"><ele>402.0</ele><time>2026-05-02T11:24:02.976Z</time></trkpt><trkpt lat="43.3141427" lon="12.7086464"><ele>402.0</ele><time>2026-05-02T11:24:03.975Z</time></trkpt><trkpt lat="43.3140351" lon="12.7086521"><ele>404.5</ele><time>2026-05-02T11:24:04.973Z</time></trkpt><trkpt lat="43.3139233" lon="12.7086607"><ele>407.0</ele><time>2026-05-02T11:24:05.978Z</time></trkpt><trkpt lat="43.3138124" lon="12.7086763"><ele>409.5</ele><time>2026-05-02T11:24:06.99Z</time></trkpt><trkpt lat="43.3136959" lon="12.7087119"><ele>412.0</ele><time>2026-05-02T11:24:07.977Z</time></trkpt><trkpt lat="43.313576" lon="12.7087604"><ele>414.75</ele><time>2026-05-02T11:24:08.983Z</time></trkpt><trkpt lat="43.3134545" lon="12.7088112"><ele>417.5</ele><time>2026-05-02T11:24:09.98Z</time></trkpt><trkpt lat="43.3133467" lon="12.7088702"><ele>420.25</ele><time>2026-05-02T11:24:10.992Z</time></trkpt><trkpt lat="43.3132471" lon="12.7089354"><ele>423.0</ele><time>2026-05-02T11:24:11.98Z</time></trkpt><trkpt lat="43.3131582" lon="12.709015"><ele>423.0</ele><time>2026-05-02T11:24:12.989Z</time></trkpt><trkpt lat="43.3130831" lon="12.7090966"><ele>423.0</ele><time>2026-05-02T11:24:13.98Z</time></trkpt><trkpt lat="43.3130076" lon="12.7091936"><ele>423.0</ele><time>2026-05-02T11:24:14.986Z</time></trkpt><trkpt lat="43.312934" lon="12.7092883"><ele>423.0</ele><time>2026-05-02T11:24:15.975Z</time></trkpt><trkpt lat="43.3128562" lon="12.7093734"><ele>423.0</ele><time>2026-05-02T11:24:16.982Z</time></trkpt><trkpt lat="43.3127717" lon="12.7094449"><ele>425.4</ele><time>2026-05-02T11:24:17.976Z</time></trkpt><trkpt lat="43.3126781" lon="12.7095095"><ele>427.79999999999995</ele><time>2026-05-02T11:24:18.98Z</time></trkpt><trkpt lat="43.3125839" lon="12.7095578"><ele>430.2</ele><time>2026-05-02T11:24:19.978Z</time></trkpt><trkpt lat="43.3125035" lon="12.7095857"><ele>432.6</ele><time>2026-05-02T11:24:20.979Z</time></trkpt><trkpt lat="43.3124147" lon="12.7095921"><ele>435.0</ele><time>2026-05-02T11:24:21.984Z</time></trkpt><trkpt lat="43.3123306" lon="12.7095864"><ele>435.0</ele><time>2026-05-02T11:24:22.983Z</time></trkpt><trkpt lat="43.3122479" lon="12.7095694"><ele>435.0</ele><time>2026-05-02T11:24:23.972Z</time></trkpt><trkpt lat="43.3121648" lon="12.7095304"><ele>435.0</ele><time>2026-05-02T11:24:24.987Z</time></trkpt><trkpt lat="43.312079" lon="12.7094938"><ele>435.0</ele><time>2026-05-02T11:24:25.98Z</time></trkpt><trkpt lat="43.3119809" lon="12.7095133"><ele>435.0</ele><time>2026-05-02T11:24:27.974Z</time></trkpt><trkpt lat="43.3119119" lon="12.7096129"><ele>434.28571428571433</ele><time>2026-05-02T11:24:29.977Z</time></trkpt><trkpt lat="43.3118799" lon="12.709695"><ele>433.57142857142856</ele><time>2026-05-02T11:24:30.972Z</time></trkpt><trkpt lat="43.3118622" lon="12.7097898"><ele>432.8571428571429</ele><time>2026-05-02T11:24:31.977Z</time></trkpt><trkpt lat="43.3118561" lon="12.7098854"><ele>432.14285714285717</ele><time>2026-05-02T11:24:32.986Z</time></trkpt><trkpt lat="43.3118638" lon="12.709986"><ele>431.42857142857144</ele><time>2026-05-02T11:24:33.984Z</time></trkpt><trkpt lat="43.3118721" lon="12.7100917"><ele>430.7142857142857</ele><time>2026-05-02T11:24:34.981Z</time></trkpt><trkpt lat="43.3118814" lon="12.7101971"><ele>430.0</ele><time>2026-05-02T11:24:35.977Z</time></trkpt><trkpt lat="43.3118886" lon="12.7103157"><ele>428.8</ele><time>2026-05-02T11:24:36.992Z</time></trkpt><trkpt lat="43.3118981" lon="12.710446"><ele>427.6</ele><time>2026-05-02T11:24:37.979Z</time></trkpt><trkpt lat="43.3119047" lon="12.7105762"><ele>426.4</ele><time>2026-05-02T11:24:38.978Z</time></trkpt><trkpt lat="43.3119106" lon="12.7107035"><ele>425.2</ele><time>2026-05-02T11:24:39.98Z</time></trkpt><trkpt lat="43.3119248" lon="12.7108259"><ele>424.0</ele><time>2026-05-02T11:24:40.986Z</time></trkpt><trkpt lat="43.3119475" lon="12.7109472"><ele>424.00000000000006</ele><time>2026-05-02T11:24:41.987Z</time></trkpt><trkpt lat="43.3119853" lon="12.7110707"><ele>424.0</ele><time>2026-05-02T11:24:42.988Z</time></trkpt><trkpt lat="43.3120345" lon="12.7111881"><ele>424.0</ele><time>2026-05-02T11:24:43.994Z</time></trkpt><trkpt lat="43.3120829" lon="12.7113007"><ele>424.0</ele><time>2026-05-02T11:24:44.978Z</time></trkpt><trkpt lat="43.3121312" lon="12.7113975"><ele>424.00000000000006</ele><time>2026-05-02T11:24:45.985Z</time></trkpt><trkpt lat="43.3121695" lon="12.7114815"><ele>424.0</ele><time>2026-05-02T11:24:46.98Z</time></trkpt><trkpt lat="43.3121961" lon="12.711561"><ele>423.79999999999995</ele><time>2026-05-02T11:24:47.982Z</time></trkpt><trkpt lat="43.3122381" lon="12.7117213"><ele>423.59999999999997</ele><time>2026-05-02T11:24:49.979Z</time></trkpt><trkpt lat="43.3122744" lon="12.7118891"><ele>423.4</ele><time>2026-05-02T11:24:51.987Z</time></trkpt><trkpt lat="43.3122864" lon="12.7119748"><ele>423.2</ele><time>2026-05-02T11:24:52.982Z</time></trkpt><trkpt lat="43.3122944" lon="12.7120695"><ele>423.0</ele><time>2026-05-02T11:24:53.981Z</time></trkpt><trkpt lat="43.3123007" lon="12.7121658"><ele>423.0</ele><time>2026-05-02T11:24:54.987Z</time></trkpt><trkpt lat="43.3123133" lon="12.7122632"><ele>423.0</ele><time>2026-05-02T11:24:55.984Z</time></trkpt><trkpt lat="43.3123321" lon="12.7123638"><ele>423.0</ele><time>2026-05-02T11:24:56.978Z</time></trkpt><trkpt lat="43.3123507" lon="12.7124564"><ele>423.0</ele><time>2026-05-02T11:24:57.999Z</time></trkpt><trkpt lat="43.3123664" lon="12.7125491"><ele>423.0</ele><time>2026-05-02T11:24:58.963Z</time></trkpt><trkpt lat="43.3123783" lon="12.7126434"><ele>423.0</ele><time>2026-05-02T11:24:59.977Z</time></trkpt><trkpt lat="43.3123942" lon="12.7127335"><ele>423.0</ele><time>2026-05-02T11:25:00.964Z</time></trkpt><trkpt lat="43.3124116" lon="12.7128298"><ele>421.57142857142856</ele><time>2026-05-02T11:25:01.984Z</time></trkpt><trkpt lat="43.3124309" lon="12.7129244"><ele>420.14285714285717</ele><time>2026-05-02T11:25:02.984Z</time></trkpt><trkpt lat="43.3124608" lon="12.7130047"><ele>418.7142857142857</ele><time>2026-05-02T11:25:03.963Z</time></trkpt><trkpt lat="43.3124858" lon="12.7130879"><ele>417.2857142857143</ele><time>2026-05-02T11:25:05.008Z</time></trkpt><trkpt lat="43.3125115" lon="12.7131731"><ele>415.8571428571429</ele><time>2026-05-02T11:25:05.969Z</time></trkpt><trkpt lat="43.3125503" lon="12.7132549"><ele>414.42857142857144</ele><time>2026-05-02T11:25:06.979Z</time></trkpt><trkpt lat="43.3125907" lon="12.7133391"><ele>413.0</ele><time>2026-05-02T11:25:07.975Z</time></trkpt><trkpt lat="43.312628" lon="12.713423"><ele>413.0</ele><time>2026-05-02T11:25:08.969Z</time></trkpt><trkpt lat="43.3126646" lon="12.713499"><ele>413.0</ele><time>2026-05-02T11:25:09.999Z</time></trkpt><trkpt lat="43.3127297" lon="12.7136276"><ele>413.0</ele><time>2026-05-02T11:25:11.971Z</time></trkpt><trkpt lat="43.3127593" lon="12.7137705"><ele>413.0</ele><time>2026-05-02T11:25:13.986Z</time></trkpt><trkpt lat="43.3127381" lon="12.7138876"><ele>413.0</ele><time>2026-05-02T11:25:15.98Z</time></trkpt><trkpt lat="43.3126557" lon="12.7139702"><ele>411.99999999999994</ele><time>2026-05-02T11:25:17.977Z</time></trkpt><trkpt lat="43.3125755" lon="12.714049"><ele>411.0</ele><time>2026-05-02T11:25:19.987Z</time></trkpt><trkpt lat="43.3124847" lon="12.7140566"><ele>410.0</ele><time>2026-05-02T11:25:21.976Z</time></trkpt><trkpt lat="43.3123882" lon="12.7139862"><ele>409.0</ele><time>2026-05-02T11:25:23.969Z</time></trkpt><trkpt lat="43.3123416" lon="12.7139276"><ele>407.99999999999994</ele><time>2026-05-02T11:25:24.982Z</time></trkpt><trkpt lat="43.3122616" lon="12.7138859"><ele>407.0</ele><time>2026-05-02T11:25:25.97Z</time></trkpt><trkpt lat="43.3121642" lon="12.7138368"><ele>407.0</ele><time>2026-05-02T11:25:26.991Z</time></trkpt><trkpt lat="43.3120652" lon="12.7137836"><ele>407.0</ele><time>2026-05-02T11:25:27.992Z</time></trkpt><trkpt lat="43.3119623" lon="12.7137258"><ele>407.0</ele><time>2026-05-02T11:25:28.976Z</time></trkpt><trkpt lat="43.3118641" lon="12.713639"><ele>407.0</ele><time>2026-05-02T11:25:29.979Z</time></trkpt><trkpt lat="43.3117624" lon="12.7135368"><ele>407.0</ele><time>2026-05-02T11:25:30.974Z</time></trkpt><trkpt lat="43.3116688" lon="12.7134331"><ele>407.0</ele><time>2026-05-02T11:25:31.985Z</time></trkpt><trkpt lat="43.311576" lon="12.713328"><ele>407.0</ele><time>2026-05-02T11:25:32.979Z</time></trkpt><trkpt lat="43.3114815" lon="12.7132126"><ele>407.0</ele><time>2026-05-02T11:25:33.974Z</time></trkpt><trkpt lat="43.3113904" lon="12.7130775"><ele>410.0</ele><time>2026-05-02T11:25:34.973Z</time></trkpt><trkpt lat="43.3112867" lon="12.7129409"><ele>413.0</ele><time>2026-05-02T11:25:35.976Z</time></trkpt><trkpt lat="43.3111671" lon="12.7127905"><ele>416.0</ele><time>2026-05-02T11:25:36.975Z</time></trkpt><trkpt lat="43.3110445" lon="12.7126446"><ele>416.0</ele><time>2026-05-02T11:25:37.974Z</time></trkpt><trkpt lat="43.3109175" lon="12.7124972"><ele>416.0</ele><time>2026-05-02T11:25:38.99Z</time></trkpt><trkpt lat="43.3107878" lon="12.7123521"><ele>416.0</ele><time>2026-05-02T11:25:39.974Z</time></trkpt><trkpt lat="43.3106622" lon="12.7122075"><ele>417.5</ele><time>2026-05-02T11:25:40.973Z</time></trkpt><trkpt lat="43.3105484" lon="12.7120747"><ele>419.0</ele><time>2026-05-02T11:25:41.968Z</time></trkpt><trkpt lat="43.3104472" lon="12.711954"><ele>420.5</ele><time>2026-05-02T11:25:42.975Z</time></trkpt><trkpt lat="43.3103492" lon="12.7118368"><ele>422.0</ele><time>2026-05-02T11:25:43.977Z</time></trkpt><trkpt lat="43.3102617" lon="12.7117322"><ele>422.0</ele><time>2026-05-02T11:25:44.983Z</time></trkpt><trkpt lat="43.3101753" lon="12.7116269"><ele>422.0</ele><time>2026-05-02T11:25:45.986Z</time></trkpt><trkpt lat="43.3100863" lon="12.7115275"><ele>422.0</ele><time>2026-05-02T11:25:46.991Z</time></trkpt><trkpt lat="43.3100019" lon="12.7114349"><ele>422.0</ele><time>2026-05-02T11:25:47.972Z</time></trkpt><trkpt lat="43.3099201" lon="12.7113456"><ele>422.0</ele><time>2026-05-02T11:25:48.977Z</time></trkpt><trkpt lat="43.3098313" lon="12.7112552"><ele>420.25</ele><time>2026-05-02T11:25:49.967Z</time></trkpt><trkpt lat="43.3097295" lon="12.7111699"><ele>418.5</ele><time>2026-05-02T11:25:50.986Z</time></trkpt><trkpt lat="43.3096146" lon="12.7110731"><ele>416.75</ele><time>2026-05-02T11:25:51.973Z</time></trkpt><trkpt lat="43.3094811" lon="12.7109798"><ele>415.0</ele><time>2026-05-02T11:25:52.975Z</time></trkpt><trkpt lat="43.3093449" lon="12.7108832"><ele>415.0</ele><time>2026-05-02T11:25:53.976Z</time></trkpt><trkpt lat="43.3092098" lon="12.7107959"><ele>415.0</ele><time>2026-05-02T11:25:54.973Z</time></trkpt><trkpt lat="43.3090808" lon="12.7107219"><ele>415.0</ele><time>2026-05-02T11:25:55.973Z</time></trkpt><trkpt lat="43.3089657" lon="12.7106604"><ele>415.0</ele><time>2026-05-02T11:25:56.981Z</time></trkpt><trkpt lat="43.308852" lon="12.7106071"><ele>415.6</ele><time>2026-05-02T11:25:57.976Z</time></trkpt><trkpt lat="43.3087426" lon="12.7105627"><ele>416.2</ele><time>2026-05-02T11:25:58.978Z</time></trkpt><trkpt lat="43.3086338" lon="12.710546"><ele>416.79999999999995</ele><time>2026-05-02T11:25:59.97Z</time></trkpt><trkpt lat="43.3085284" lon="12.7105418"><ele>417.4</ele><time>2026-05-02T11:26:00.981Z</time></trkpt><trkpt lat="43.308421" lon="12.7105483"><ele>418.0</ele><time>2026-05-02T11:26:01.976Z</time></trkpt><trkpt lat="43.3083099" lon="12.7105688"><ele>418.0</ele><time>2026-05-02T11:26:02.982Z</time></trkpt><trkpt lat="43.308205" lon="12.7105846"><ele>418.0</ele><time>2026-05-02T11:26:03.99Z</time></trkpt><trkpt lat="43.3080916" lon="12.7105999"><ele>418.0</ele><time>2026-05-02T11:26:04.983Z</time></trkpt><trkpt lat="43.307973" lon="12.7105855"><ele>418.0</ele><time>2026-05-02T11:26:05.97Z</time></trkpt><trkpt lat="43.3078514" lon="12.7105403"><ele>414.33333333333337</ele><time>2026-05-02T11:26:06.978Z</time></trkpt><trkpt lat="43.3077204" lon="12.710464"><ele>410.66666666666663</ele><time>2026-05-02T11:26:07.978Z</time></trkpt><trkpt lat="43.307579" lon="12.7103465"><ele>407.0</ele><time>2026-05-02T11:26:08.98Z</time></trkpt><trkpt lat="43.3074394" lon="12.7102091"><ele>405.66666666666663</ele><time>2026-05-02T11:26:09.979Z</time></trkpt><trkpt lat="43.307311" lon="12.7100771"><ele>404.33333333333337</ele><time>2026-05-02T11:26:10.981Z</time></trkpt><trkpt lat="43.307185" lon="12.7099503"><ele>403.0</ele><time>2026-05-02T11:26:11.984Z</time></trkpt><trkpt lat="43.3070679" lon="12.7098244"><ele>402.5</ele><time>2026-05-02T11:26:12.992Z</time></trkpt><trkpt lat="43.3069569" lon="12.7097153"><ele>402.0</ele><time>2026-05-02T11:26:13.972Z</time></trkpt><trkpt lat="43.3068351" lon="12.7096477"><ele>401.5</ele><time>2026-05-02T11:26:14.983Z</time></trkpt><trkpt lat="43.3067055" lon="12.7096109"><ele>401.0</ele><time>2026-05-02T11:26:15.977Z</time></trkpt><trkpt lat="43.3065541" lon="12.7095924"><ele>400.3333333333333</ele><time>2026-05-02T11:26:16.987Z</time></trkpt><trkpt lat="43.3063832" lon="12.7095609"><ele>399.66666666666663</ele><time>2026-05-02T11:26:17.988Z</time></trkpt><trkpt lat="43.3062182" lon="12.7095443"><ele>399.0</ele><time>2026-05-02T11:26:18.979Z</time></trkpt><trkpt lat="43.306066" lon="12.7095311"><ele>399.0</ele><time>2026-05-02T11:26:19.985Z</time></trkpt><trkpt lat="43.3059245" lon="12.7095194"><ele>399.0</ele><time>2026-05-02T11:26:20.979Z</time></trkpt><trkpt lat="43.3057885" lon="12.7095179"><ele>399.0</ele><time>2026-05-02T11:26:21.984Z</time></trkpt><trkpt lat="43.3056533" lon="12.709525"><ele>399.0</ele><time>2026-05-02T11:26:22.97Z</time></trkpt><trkpt lat="43.3055025" lon="12.7095388"><ele>398.33333333333337</ele><time>2026-05-02T11:26:23.979Z</time></trkpt><trkpt lat="43.3053513" lon="12.7095706"><ele>397.6666666666667</ele><time>2026-05-02T11:26:24.981Z</time></trkpt><trkpt lat="43.3051866" lon="12.7096203"><ele>397.0</ele><time>2026-05-02T11:26:25.984Z</time></trkpt><trkpt lat="43.3050231" lon="12.7096686"><ele>397.0</ele><time>2026-05-02T11:26:26.975Z</time></trkpt><trkpt lat="43.3048711" lon="12.7097063"><ele>397.0</ele><time>2026-05-02T11:26:27.979Z</time></trkpt><trkpt lat="43.3047284" lon="12.7097348"><ele>397.0</ele><time>2026-05-02T11:26:28.978Z</time></trkpt><trkpt lat="43.3045906" lon="12.7097496"><ele>397.0</ele><time>2026-05-02T11:26:29.976Z</time></trkpt><trkpt lat="43.304468" lon="12.7097379"><ele>396.25</ele><time>2026-05-02T11:26:30.976Z</time></trkpt><trkpt lat="43.3043493" lon="12.7096863"><ele>395.5</ele><time>2026-05-02T11:26:31.975Z</time></trkpt><trkpt lat="43.3042283" lon="12.7095958"><ele>394.75</ele><time>2026-05-02T11:26:32.984Z</time></trkpt><trkpt lat="43.3041043" lon="12.7094719"><ele>394.0</ele><time>2026-05-02T11:26:33.981Z</time></trkpt><trkpt lat="43.3039737" lon="12.7093364"><ele>392.6666666666667</ele><time>2026-05-02T11:26:34.971Z</time></trkpt><trkpt lat="43.3038455" lon="12.7092096"><ele>391.33333333333337</ele><time>2026-05-02T11:26:35.978Z</time></trkpt><trkpt lat="43.3037203" lon="12.7090862"><ele>390.0</ele><time>2026-05-02T11:26:36.976Z</time></trkpt><trkpt lat="43.3035994" lon="12.7089654"><ele>390.0</ele><time>2026-05-02T11:26:37.974Z</time></trkpt><trkpt lat="43.3034813" lon="12.7088514"><ele>390.0</ele><time>2026-05-02T11:26:38.981Z</time></trkpt><trkpt lat="43.3033746" lon="12.7087449"><ele>390.0</ele><time>2026-05-02T11:26:39.985Z</time></trkpt><trkpt lat="43.3032734" lon="12.7086385"><ele>390.0</ele><time>2026-05-02T11:26:40.976Z</time></trkpt><trkpt lat="43.3031839" lon="12.7085379"><ele>389.75</ele><time>2026-05-02T11:26:41.983Z</time></trkpt><trkpt lat="43.3031083" lon="12.7084203"><ele>389.5</ele><time>2026-05-02T11:26:42.982Z</time></trkpt><trkpt lat="43.303046" lon="12.7082779"><ele>389.25</ele><time>2026-05-02T11:26:43.98Z</time></trkpt><trkpt lat="43.3029952" lon="12.7081111"><ele>389.0</ele><time>2026-05-02T11:26:44.972Z</time></trkpt><trkpt lat="43.3029618" lon="12.7079502"><ele>390.0</ele><time>2026-05-02T11:26:45.979Z</time></trkpt><trkpt lat="43.3029306" lon="12.7077929"><ele>391.0</ele><time>2026-05-02T11:26:46.975Z</time></trkpt><trkpt lat="43.3028975" lon="12.707666"><ele>392.0</ele><time>2026-05-02T11:26:47.987Z</time></trkpt><trkpt lat="43.3028573" lon="12.7075452"><ele>393.0</ele><time>2026-05-02T11:26:48.976Z</time></trkpt><trkpt lat="43.302801" lon="12.7074263"><ele>394.0</ele><time>2026-05-02T11:26:49.98Z</time></trkpt><trkpt lat="43.3027338" lon="12.7073312"><ele>394.0</ele><time>2026-05-02T11:26:50.984Z</time></trkpt><trkpt lat="43.3026564" lon="12.7072511"><ele>394.0</ele><time>2026-05-02T11:26:51.973Z</time></trkpt><trkpt lat="43.302566" lon="12.7071919"><ele>394.0</ele><time>2026-05-02T11:26:52.978Z</time></trkpt><trkpt lat="43.3024622" lon="12.707152"><ele>394.0</ele><time>2026-05-02T11:26:53.982Z</time></trkpt><trkpt lat="43.3023404" lon="12.7071367"><ele>394.0</ele><time>2026-05-02T11:26:54.977Z</time></trkpt><trkpt lat="43.3022086" lon="12.7071317"><ele>394.33333333333337</ele><time>2026-05-02T11:26:55.985Z</time></trkpt><trkpt lat="43.3020482" lon="12.7071303"><ele>394.66666666666663</ele><time>2026-05-02T11:26:56.986Z</time></trkpt><trkpt lat="43.3018782" lon="12.7071235"><ele>395.0</ele><time>2026-05-02T11:26:57.983Z</time></trkpt><trkpt lat="43.301706" lon="12.7071177"><ele>395.0</ele><time>2026-05-02T11:26:58.978Z</time></trkpt><trkpt lat="43.3015306" lon="12.7071172"><ele>395.0</ele><time>2026-05-02T11:26:59.985Z</time></trkpt><trkpt lat="43.301364" lon="12.707124"><ele>395.0</ele><time>2026-05-02T11:27:00.981Z</time></trkpt><trkpt lat="43.3012093" lon="12.7071359"><ele>394.75</ele><time>2026-05-02T11:27:01.983Z</time></trkpt><trkpt lat="43.301061" lon="12.7071473"><ele>394.5</ele><time>2026-05-02T11:27:02.977Z</time></trkpt><trkpt lat="43.3009158" lon="12.7071698"><ele>394.25</ele><time>2026-05-02T11:27:03.974Z</time></trkpt><trkpt lat="43.3007755" lon="12.707201"><ele>394.0</ele><time>2026-05-02T11:27:04.978Z</time></trkpt><trkpt lat="43.3006312" lon="12.7072517"><ele>392.0</ele><time>2026-05-02T11:27:05.981Z</time></trkpt><trkpt lat="43.3004803" lon="12.7073299"><ele>390.0</ele><time>2026-05-02T11:27:06.979Z</time></trkpt><trkpt lat="43.3003374" lon="12.7074299"><ele>388.0</ele><time>2026-05-02T11:27:07.987Z</time></trkpt><trkpt lat="43.3001976" lon="12.7075493"><ele>388.0</ele><time>2026-05-02T11:27:08.974Z</time></trkpt><trkpt lat="43.3000622" lon="12.7076676"><ele>388.0</ele><time>2026-05-02T11:27:09.982Z</time></trkpt><trkpt lat="43.2999334" lon="12.7077791"><ele>388.0</ele><time>2026-05-02T11:27:10.988Z</time></trkpt><trkpt lat="43.2997997" lon="12.7078773"><ele>389.33333333333337</ele><time>2026-05-02T11:27:11.98Z</time></trkpt><trkpt lat="43.2996617" lon="12.7079539"><ele>390.66666666666663</ele><time>2026-05-02T11:27:12.979Z</time></trkpt><trkpt lat="43.2995187" lon="12.7080162"><ele>392.0</ele><time>2026-05-02T11:27:13.98Z</time></trkpt><trkpt lat="43.2993717" lon="12.7080678"><ele>392.0</ele><time>2026-05-02T11:27:14.994Z</time></trkpt><trkpt lat="43.2992143" lon="12.7081092"><ele>392.0</ele><time>2026-05-02T11:27:15.997Z</time></trkpt><trkpt lat="43.2990596" lon="12.7081321"><ele>392.0</ele><time>2026-05-02T11:27:16.982Z</time></trkpt><trkpt lat="43.2989023" lon="12.7081322"><ele>392.0</ele><time>2026-05-02T11:27:17.986Z</time></trkpt><trkpt lat="43.2987308" lon="12.7081191"><ele>392.0</ele><time>2026-05-02T11:27:18.997Z</time></trkpt><trkpt lat="43.2985586" lon="12.7081015"><ele>392.0</ele><time>2026-05-02T11:27:19.977Z</time></trkpt><trkpt lat="43.2983868" lon="12.7080948"><ele>392.0</ele><time>2026-05-02T11:27:20.976Z</time></trkpt><trkpt lat="43.2982267" lon="12.7080829"><ele>392.0</ele><time>2026-05-02T11:27:21.979Z</time></trkpt><trkpt lat="43.2980748" lon="12.7080694"><ele>392.0</ele><time>2026-05-02T11:27:22.98Z</time></trkpt><trkpt lat="43.2979276" lon="12.7080535"><ele>391.0</ele><time>2026-05-02T11:27:23.983Z</time></trkpt><trkpt lat="43.297793" lon="12.7080396"><ele>390.0</ele><time>2026-05-02T11:27:24.984Z</time></trkpt><trkpt lat="43.2976729" lon="12.7080359"><ele>389.0</ele><time>2026-05-02T11:27:25.992Z</time></trkpt><trkpt lat="43.2975443" lon="12.7080584"><ele>388.0</ele><time>2026-05-02T11:27:26.975Z</time></trkpt><trkpt lat="43.2974113" lon="12.7081147"><ele>388.0</ele><time>2026-05-02T11:27:27.977Z</time></trkpt><trkpt lat="43.2972838" lon="12.7081913"><ele>388.0</ele><time>2026-05-02T11:27:28.994Z</time></trkpt><trkpt lat="43.2971464" lon="12.7082787"><ele>388.0</ele><time>2026-05-02T11:27:29.984Z</time></trkpt><trkpt lat="43.2970125" lon="12.7083962"><ele>388.0</ele><time>2026-05-02T11:27:30.983Z</time></trkpt><trkpt lat="43.2968823" lon="12.7085365"><ele>390.0</ele><time>2026-05-02T11:27:31.982Z</time></trkpt><trkpt lat="43.2967684" lon="12.7086735"><ele>392.0</ele><time>2026-05-02T11:27:32.983Z</time></trkpt><trkpt lat="43.2966621" lon="12.7087983"><ele>394.0</ele><time>2026-05-02T11:27:33.977Z</time></trkpt><trkpt lat="43.2965619" lon="12.7088992"><ele>396.0</ele><time>2026-05-02T11:27:34.979Z</time></trkpt><trkpt lat="43.2964668" lon="12.7089751"><ele>395.25</ele><time>2026-05-02T11:27:35.988Z</time></trkpt><trkpt lat="43.2963605" lon="12.7090421"><ele>394.5</ele><time>2026-05-02T11:27:36.983Z</time></trkpt><trkpt lat="43.2962361" lon="12.7090974"><ele>393.75</ele><time>2026-05-02T11:27:37.983Z</time></trkpt><trkpt lat="43.2961036" lon="12.7091264"><ele>393.0</ele><time>2026-05-02T11:27:38.979Z</time></trkpt><trkpt lat="43.2959585" lon="12.709128"><ele>393.0</ele><time>2026-05-02T11:27:40.002Z</time></trkpt><trkpt lat="43.2958026" lon="12.7091072"><ele>393.0</ele><time>2026-05-02T11:27:40.98Z</time></trkpt><trkpt lat="43.2956505" lon="12.7090687"><ele>393.0</ele><time>2026-05-02T11:27:41.992Z</time></trkpt><trkpt lat="43.2954881" lon="12.7090252"><ele>394.33333333333337</ele><time>2026-05-02T11:27:42.993Z</time></trkpt><trkpt lat="43.295309" lon="12.7089832"><ele>395.6666666666667</ele><time>2026-05-02T11:27:43.976Z</time></trkpt><trkpt lat="43.2951178" lon="12.7089544"><ele>397.0</ele><time>2026-05-02T11:27:44.985Z</time></trkpt><trkpt lat="43.2949308" lon="12.7089338"><ele>397.0</ele><time>2026-05-02T11:27:45.982Z</time></trkpt><trkpt lat="43.2947548" lon="12.7089167"><ele>397.0</ele><time>2026-05-02T11:27:46.974Z</time></trkpt><trkpt lat="43.2945924" lon="12.7089024"><ele>397.0</ele><time>2026-05-02T11:27:47.981Z</time></trkpt><trkpt lat="43.2944402" lon="12.70889"><ele>395.75</ele><time>2026-05-02T11:27:48.982Z</time></trkpt><trkpt lat="43.294295" lon="12.7088732"><ele>394.5</ele><time>2026-05-02T11:27:49.98Z</time></trkpt><trkpt lat="43.2941471" lon="12.7088289"><ele>393.25</ele><time>2026-05-02T11:27:50.978Z</time></trkpt><trkpt lat="43.294007" lon="12.7087684"><ele>392.0</ele><time>2026-05-02T11:27:51.983Z</time></trkpt><trkpt lat="43.2938764" lon="12.7087009"><ele>389.0</ele><time>2026-05-02T11:27:52.977Z</time></trkpt><trkpt lat="43.2937536" lon="12.7086361"><ele>386.0</ele><time>2026-05-02T11:27:53.984Z</time></trkpt><trkpt lat="43.2936247" lon="12.7085765"><ele>383.0</ele><time>2026-05-02T11:27:54.984Z</time></trkpt><trkpt lat="43.2934927" lon="12.7085297"><ele>380.0</ele><time>2026-05-02T11:27:55.983Z</time></trkpt><trkpt lat="43.2933484" lon="12.7085112"><ele>379.6666666666667</ele><time>2026-05-02T11:27:56.987Z</time></trkpt><trkpt lat="43.2931886" lon="12.7085035"><ele>379.3333333333333</ele><time>2026-05-02T11:27:57.979Z</time></trkpt><trkpt lat="43.2930191" lon="12.708507"><ele>379.0</ele><time>2026-05-02T11:27:58.976Z</time></trkpt><trkpt lat="43.2928325" lon="12.7085224"><ele>379.0</ele><time>2026-05-02T11:27:59.981Z</time></trkpt><trkpt lat="43.2926455" lon="12.7085347"><ele>379.0</ele><time>2026-05-02T11:28:00.987Z</time></trkpt><trkpt lat="43.2924736" lon="12.7085528"><ele>379.0</ele><time>2026-05-02T11:28:01.976Z</time></trkpt><trkpt lat="43.2922933" lon="12.7085762"><ele>380.66666666666663</ele><time>2026-05-02T11:28:02.984Z</time></trkpt><trkpt lat="43.292111" lon="12.7086087"><ele>382.3333333333333</ele><time>2026-05-02T11:28:03.983Z</time></trkpt><trkpt lat="43.291915" lon="12.7086565"><ele>384.0</ele><time>2026-05-02T11:28:04.979Z</time></trkpt><trkpt lat="43.2917053" lon="12.7087153"><ele>384.0</ele><time>2026-05-02T11:28:05.999Z</time></trkpt><trkpt lat="43.2914803" lon="12.7087796"><ele>384.0</ele><time>2026-05-02T11:28:07Z</time></trkpt><trkpt lat="43.2912652" lon="12.7088385"><ele>384.0</ele><time>2026-05-02T11:28:08.001Z</time></trkpt><trkpt lat="43.291058" lon="12.708885"><ele>384.33333333333337</ele><time>2026-05-02T11:28:08.98Z</time></trkpt><trkpt lat="43.2908641" lon="12.7089292"><ele>384.6666666666667</ele><time>2026-05-02T11:28:09.981Z</time></trkpt><trkpt lat="43.2906905" lon="12.7089736"><ele>385.0</ele><time>2026-05-02T11:28:10.984Z</time></trkpt><trkpt lat="43.2905127" lon="12.7090126"><ele>385.6666666666667</ele><time>2026-05-02T11:28:11.981Z</time></trkpt><trkpt lat="43.2903264" lon="12.7090447"><ele>386.33333333333337</ele><time>2026-05-02T11:28:12.978Z</time></trkpt><trkpt lat="43.29014" lon="12.7090581"><ele>387.0</ele><time>2026-05-02T11:28:13.987Z</time></trkpt><trkpt lat="43.2899524" lon="12.7090676"><ele>387.0</ele><time>2026-05-02T11:28:14.983Z</time></trkpt><trkpt lat="43.289763" lon="12.7090723"><ele>387.0</ele><time>2026-05-02T11:28:15.98Z</time></trkpt><trkpt lat="43.2895765" lon="12.7090723"><ele>387.0</ele><time>2026-05-02T11:28:16.983Z</time></trkpt><trkpt lat="43.289392" lon="12.7090624"><ele>386.66666666666663</ele><time>2026-05-02T11:28:17.986Z</time></trkpt><trkpt lat="43.2892141" lon="12.7090559"><ele>386.3333333333333</ele><time>2026-05-02T11:28:18.986Z</time></trkpt><trkpt lat="43.2890498" lon="12.7090475"><ele>386.0</ele><time>2026-05-02T11:28:19.98Z</time></trkpt><trkpt lat="43.2888932" lon="12.7090236"><ele>387.3333333333333</ele><time>2026-05-02T11:28:20.98Z</time></trkpt><trkpt lat="43.2887208" lon="12.7089867"><ele>388.66666666666663</ele><time>2026-05-02T11:28:21.979Z</time></trkpt><trkpt lat="43.2885318" lon="12.7089565"><ele>390.0</ele><time>2026-05-02T11:28:22.981Z</time></trkpt><trkpt lat="43.2883316" lon="12.708918"><ele>390.0</ele><time>2026-05-02T11:28:23.98Z</time></trkpt><trkpt lat="43.2881292" lon="12.7088745"><ele>390.0</ele><time>2026-05-02T11:28:24.989Z</time></trkpt><trkpt lat="43.2879213" lon="12.7088336"><ele>390.0</ele><time>2026-05-02T11:28:25.974Z</time></trkpt><trkpt lat="43.2877146" lon="12.7087885"><ele>391.66666666666663</ele><time>2026-05-02T11:28:26.977Z</time></trkpt><trkpt lat="43.2875118" lon="12.7087421"><ele>393.3333333333333</ele><time>2026-05-02T11:28:27.977Z</time></trkpt><trkpt lat="43.287305" lon="12.7086937"><ele>395.0</ele><time>2026-05-02T11:28:28.975Z</time></trkpt><trkpt lat="43.287095" lon="12.708648"><ele>396.3333333333333</ele><time>2026-05-02T11:28:29.978Z</time></trkpt><trkpt lat="43.2868873" lon="12.7086043"><ele>397.66666666666663</ele><time>2026-05-02T11:28:30.985Z</time></trkpt><trkpt lat="43.2866864" lon="12.7085584"><ele>399.0</ele><time>2026-05-02T11:28:31.975Z</time></trkpt><trkpt lat="43.2864926" lon="12.7085078"><ele>393.0</ele><time>2026-05-02T11:28:32.982Z</time></trkpt><trkpt lat="43.2862932" lon="12.708462"><ele>387.0</ele><time>2026-05-02T11:28:33.981Z</time></trkpt><trkpt lat="43.2860872" lon="12.7084105"><ele>381.0</ele><time>2026-05-02T11:28:34.974Z</time></trkpt><trkpt lat="43.2858935" lon="12.7083701"><ele>381.0</ele><time>2026-05-02T11:28:35.983Z</time></trkpt><trkpt lat="43.2857207" lon="12.7083397"><ele>381.0</ele><time>2026-05-02T11:28:36.981Z</time></trkpt><trkpt lat="43.2855635" lon="12.7083103"><ele>381.0</ele><time>2026-05-02T11:28:37.98Z</time></trkpt><trkpt lat="43.2854184" lon="12.7082896"><ele>380.3333333333333</ele><time>2026-05-02T11:28:38.991Z</time></trkpt><trkpt lat="43.2852668" lon="12.7082871"><ele>379.66666666666663</ele><time>2026-05-02T11:28:39.982Z</time></trkpt><trkpt lat="43.2851103" lon="12.7083121"><ele>379.0</ele><time>2026-05-02T11:28:40.979Z</time></trkpt><trkpt lat="43.2849636" lon="12.708349"><ele>379.0</ele><time>2026-05-02T11:28:41.99Z</time></trkpt><trkpt lat="43.2848291" lon="12.7083883"><ele>379.0</ele><time>2026-05-02T11:28:42.978Z</time></trkpt><trkpt lat="43.284709" lon="12.7084212"><ele>379.0</ele><time>2026-05-02T11:28:43.982Z</time></trkpt><trkpt lat="43.2846051" lon="12.7084508"><ele>379.0</ele><time>2026-05-02T11:28:44.984Z</time></trkpt><trkpt lat="43.2845142" lon="12.7084708"><ele>378.16666666666663</ele><time>2026-05-02T11:28:45.981Z</time></trkpt><trkpt lat="43.2844341" lon="12.7084869"><ele>377.3333333333333</ele><time>2026-05-02T11:28:46.988Z</time></trkpt><trkpt lat="43.2843668" lon="12.7085012"><ele>376.5</ele><time>2026-05-02T11:28:47.983Z</time></trkpt><trkpt lat="43.28428" lon="12.7085351"><ele>375.6666666666667</ele><time>2026-05-02T11:28:49.988Z</time></trkpt><trkpt lat="43.2842275" lon="12.7086131"><ele>374.83333333333337</ele><time>2026-05-02T11:28:53.006Z</time></trkpt><trkpt lat="43.2842881" lon="12.7086786"><ele>374.0</ele><time>2026-05-02T11:28:56.989Z</time></trkpt><trkpt lat="43.2843436" lon="12.7087635"><ele>373.79999999999995</ele><time>2026-05-02T11:28:58.994Z</time></trkpt><trkpt lat="43.284404" lon="12.7089009"><ele>373.59999999999997</ele><time>2026-05-02T11:29:00.978Z</time></trkpt><trkpt lat="43.2844398" lon="12.7089893"><ele>373.4</ele><time>2026-05-02T11:29:01.985Z</time></trkpt><trkpt lat="43.2844885" lon="12.7090716"><ele>373.2</ele><time>2026-05-02T11:29:02.982Z</time></trkpt><trkpt lat="43.2845423" lon="12.7091645"><ele>373.0</ele><time>2026-05-02T11:29:03.982Z</time></trkpt><trkpt lat="43.2846089" lon="12.7092697"><ele>373.0</ele><time>2026-05-02T11:29:04.979Z</time></trkpt><trkpt lat="43.2846746" lon="12.7093903"><ele>373.0</ele><time>2026-05-02T11:29:05.983Z</time></trkpt><trkpt lat="43.2847391" lon="12.7095181"><ele>373.0</ele><time>2026-05-02T11:29:06.978Z</time></trkpt><trkpt lat="43.2847968" lon="12.7096308"><ele>373.0</ele><time>2026-05-02T11:29:07.979Z</time></trkpt><trkpt lat="43.2848565" lon="12.7097452"><ele>373.0</ele><time>2026-05-02T11:29:08.985Z</time></trkpt><trkpt lat="43.284921" lon="12.7098611"><ele>373.0</ele><time>2026-05-02T11:29:10.005Z</time></trkpt><trkpt lat="43.2849935" lon="12.7099964"><ele>373.0</ele><time>2026-05-02T11:29:10.99Z</time></trkpt><trkpt lat="43.2850773" lon="12.7101518"><ele>373.0</ele><time>2026-05-02T11:29:11.985Z</time></trkpt><trkpt lat="43.2851759" lon="12.7103185"><ele>373.0</ele><time>2026-05-02T11:29:12.982Z</time></trkpt><trkpt lat="43.2852755" lon="12.7105031"><ele>373.0</ele><time>2026-05-02T11:29:13.977Z</time></trkpt><trkpt lat="43.2853815" lon="12.7107102"><ele>373.0</ele><time>2026-05-02T11:29:14.982Z</time></trkpt><trkpt lat="43.2854894" lon="12.7109294"><ele>373.0</ele><time>2026-05-02T11:29:15.985Z</time></trkpt><trkpt lat="43.2855945" lon="12.7111544"><ele>373.0</ele><time>2026-05-02T11:29:16.983Z</time></trkpt><trkpt lat="43.2856942" lon="12.711371"><ele>373.0</ele><time>2026-05-02T11:29:17.981Z</time></trkpt><trkpt lat="43.2857777" lon="12.7115742"><ele>373.0</ele><time>2026-05-02T11:29:18.98Z</time></trkpt><trkpt lat="43.2858614" lon="12.7117709"><ele>373.3333333333333</ele><time>2026-05-02T11:29:19.981Z</time></trkpt><trkpt lat="43.2859623" lon="12.711979"><ele>373.6666666666667</ele><time>2026-05-02T11:29:20.993Z</time></trkpt><trkpt lat="43.286085" lon="12.7121951"><ele>374.0</ele><time>2026-05-02T11:29:21.981Z</time></trkpt><trkpt lat="43.2862123" lon="12.7123968"><ele>374.0</ele><time>2026-05-02T11:29:22.98Z</time></trkpt><trkpt lat="43.2863394" lon="12.7125855"><ele>374.0</ele><time>2026-05-02T11:29:23.983Z</time></trkpt><trkpt lat="43.286455" lon="12.7127846"><ele>374.0</ele><time>2026-05-02T11:29:24.981Z</time></trkpt><trkpt lat="43.2865646" lon="12.7129988"><ele>374.6666666666667</ele><time>2026-05-02T11:29:25.984Z</time></trkpt><trkpt lat="43.2866534" lon="12.7132298"><ele>375.3333333333333</ele><time>2026-05-02T11:29:26.984Z</time></trkpt><trkpt lat="43.2867344" lon="12.7134823"><ele>376.0</ele><time>2026-05-02T11:29:27.986Z</time></trkpt><trkpt lat="43.2868043" lon="12.7137476"><ele>376.0</ele><time>2026-05-02T11:29:28.982Z</time></trkpt><trkpt lat="43.2868717" lon="12.7140326"><ele>376.0</ele><time>2026-05-02T11:29:29.98Z</time></trkpt><trkpt lat="43.2869387" lon="12.7143314"><ele>376.0</ele><time>2026-05-02T11:29:30.991Z</time></trkpt><trkpt lat="43.287007" lon="12.7146421"><ele>374.5</ele><time>2026-05-02T11:29:31.979Z</time></trkpt><trkpt lat="43.2870772" lon="12.7149586"><ele>373.0</ele><time>2026-05-02T11:29:32.978Z</time></trkpt><trkpt lat="43.2871445" lon="12.7152712"><ele>373.0</ele><time>2026-05-02T11:29:33.985Z</time></trkpt><trkpt lat="43.2872019" lon="12.7155606"><ele>373.0</ele><time>2026-05-02T11:29:34.978Z</time></trkpt><trkpt lat="43.2872554" lon="12.715844"><ele>373.0</ele><time>2026-05-02T11:29:35.989Z</time></trkpt><trkpt lat="43.2873186" lon="12.7161495"><ele>375.5</ele><time>2026-05-02T11:29:36.986Z</time></trkpt><trkpt lat="43.2873857" lon="12.7164618"><ele>378.0</ele><time>2026-05-02T11:29:37.982Z</time></trkpt><trkpt lat="43.2874501" lon="12.7167683"><ele>377.0</ele><time>2026-05-02T11:29:38.975Z</time></trkpt><trkpt lat="43.2875071" lon="12.7170668"><ele>376.0</ele><time>2026-05-02T11:29:39.982Z</time></trkpt><trkpt lat="43.2875612" lon="12.7173601"><ele>375.0</ele><time>2026-05-02T11:29:40.988Z</time></trkpt><trkpt lat="43.2876114" lon="12.7176365"><ele>375.0</ele><time>2026-05-02T11:29:41.98Z</time></trkpt><trkpt lat="43.287661" lon="12.7178942"><ele>375.0</ele><time>2026-05-02T11:29:42.982Z</time></trkpt><trkpt lat="43.2877125" lon="12.7181422"><ele>375.0</ele><time>2026-05-02T11:29:43.977Z</time></trkpt><trkpt lat="43.2877618" lon="12.7183796"><ele>375.6666666666667</ele><time>2026-05-02T11:29:44.987Z</time></trkpt><trkpt lat="43.2878079" lon="12.7186068"><ele>376.33333333333337</ele><time>2026-05-02T11:29:45.979Z</time></trkpt><trkpt lat="43.2878526" lon="12.7188295"><ele>377.0</ele><time>2026-05-02T11:29:46.98Z</time></trkpt><trkpt lat="43.2878996" lon="12.7190441"><ele>377.0</ele><time>2026-05-02T11:29:47.982Z</time></trkpt><trkpt lat="43.2879545" lon="12.7192525"><ele>377.0</ele><time>2026-05-02T11:29:48.984Z</time></trkpt><trkpt lat="43.2880147" lon="12.7194505"><ele>377.0</ele><time>2026-05-02T11:29:49.976Z</time></trkpt><trkpt lat="43.2880836" lon="12.7196401"><ele>380.0</ele><time>2026-05-02T11:29:50.983Z</time></trkpt><trkpt lat="43.2881603" lon="12.7198246"><ele>383.0</ele><time>2026-05-02T11:29:51.981Z</time></trkpt><trkpt lat="43.2882448" lon="12.7200027"><ele>386.0</ele><time>2026-05-02T11:29:52.981Z</time></trkpt><trkpt lat="43.2883486" lon="12.7201695"><ele>386.66666666666663</ele><time>2026-05-02T11:29:53.978Z</time></trkpt><trkpt lat="43.2884664" lon="12.7203421"><ele>387.33333333333337</ele><time>2026-05-02T11:29:54.984Z</time></trkpt><trkpt lat="43.2885953" lon="12.7205121"><ele>388.0</ele><time>2026-05-02T11:29:55.983Z</time></trkpt><trkpt lat="43.2887367" lon="12.7206846"><ele>388.0</ele><time>2026-05-02T11:29:56.984Z</time></trkpt><trkpt lat="43.2888811" lon="12.72086"><ele>388.0</ele><time>2026-05-02T11:29:57.984Z</time></trkpt><trkpt lat="43.289019" lon="12.721023"><ele>388.0</ele><time>2026-05-02T11:29:58.985Z</time></trkpt><trkpt lat="43.2891353" lon="12.7211701"><ele>391.0</ele><time>2026-05-02T11:29:59.981Z</time></trkpt><trkpt lat="43.2892394" lon="12.7212969"><ele>394.0</ele><time>2026-05-02T11:30:00.983Z</time></trkpt><trkpt lat="43.2893242" lon="12.7214071"><ele>397.0</ele><time>2026-05-02T11:30:01.98Z</time></trkpt><trkpt lat="43.2894017" lon="12.7215265"><ele>400.0</ele><time>2026-05-02T11:30:02.993Z</time></trkpt><trkpt lat="43.2894791" lon="12.7216625"><ele>400.0</ele><time>2026-05-02T11:30:03.981Z</time></trkpt><trkpt lat="43.2895699" lon="12.7218192"><ele>400.0</ele><time>2026-05-02T11:30:04.983Z</time></trkpt><trkpt lat="43.2896658" lon="12.7219903"><ele>400.0</ele><time>2026-05-02T11:30:05.976Z</time></trkpt><trkpt lat="43.2897589" lon="12.7221734"><ele>402.6666666666667</ele><time>2026-05-02T11:30:06.98Z</time></trkpt><trkpt lat="43.2898387" lon="12.722357"><ele>405.33333333333337</ele><time>2026-05-02T11:30:07.976Z</time></trkpt><trkpt lat="43.2899037" lon="12.7225422"><ele>408.0</ele><time>2026-05-02T11:30:08.992Z</time></trkpt><trkpt lat="43.2899567" lon="12.722736"><ele>408.0</ele><time>2026-05-02T11:30:09.986Z</time></trkpt><trkpt lat="43.2900033" lon="12.7229305"><ele>408.0</ele><time>2026-05-02T11:30:10.979Z</time></trkpt><trkpt lat="43.2900446" lon="12.7231093"><ele>408.0</ele><time>2026-05-02T11:30:11.985Z</time></trkpt><trkpt lat="43.2900779" lon="12.7232691"><ele>408.0</ele><time>2026-05-02T11:30:12.991Z</time></trkpt><trkpt lat="43.2901147" lon="12.7234089"><ele>408.0</ele><time>2026-05-02T11:30:13.991Z</time></trkpt><trkpt lat="43.2901469" lon="12.7235361"><ele>408.0</ele><time>2026-05-02T11:30:14.985Z</time></trkpt><trkpt lat="43.2902067" lon="12.7236643"><ele>408.0</ele><time>2026-05-02T11:30:15.985Z</time></trkpt><trkpt lat="43.2902853" lon="12.7238001"><ele>408.0</ele><time>2026-05-02T11:30:16.989Z</time></trkpt><trkpt lat="43.2903835" lon="12.7239309"><ele>408.25</ele><time>2026-05-02T11:30:17.988Z</time></trkpt><trkpt lat="43.2904838" lon="12.7240654"><ele>408.5</ele><time>2026-05-02T11:30:18.981Z</time></trkpt><trkpt lat="43.290573" lon="12.7241883"><ele>408.75</ele><time>2026-05-02T11:30:19.988Z</time></trkpt><trkpt lat="43.29066" lon="12.7243023"><ele>409.0</ele><time>2026-05-02T11:30:21.004Z</time></trkpt><trkpt lat="43.2907393" lon="12.724408"><ele>410.6</ele><time>2026-05-02T11:30:21.981Z</time></trkpt><trkpt lat="43.2908128" lon="12.7245018"><ele>412.2</ele><time>2026-05-02T11:30:22.982Z</time></trkpt><trkpt lat="43.2908686" lon="12.7245801"><ele>413.8</ele><time>2026-05-02T11:30:23.98Z</time></trkpt><trkpt lat="43.2909124" lon="12.7246423"><ele>415.40000000000003</ele><time>2026-05-02T11:30:24.986Z</time></trkpt><trkpt lat="43.2909321" lon="12.7247507"><ele>417.0</ele><time>2026-05-02T11:30:26.976Z</time></trkpt><trkpt lat="43.2908542" lon="12.7248904"><ele>417.0</ele><time>2026-05-02T11:30:28.982Z</time></trkpt><trkpt lat="43.2907805" lon="12.7249602"><ele>417.0</ele><time>2026-05-02T11:30:29.98Z</time></trkpt><trkpt lat="43.2906942" lon="12.7250421"><ele>417.0</ele><time>2026-05-02T11:30:30.982Z</time></trkpt><trkpt lat="43.2905921" lon="12.7251425"><ele>417.0</ele><time>2026-05-02T11:30:31.98Z</time></trkpt><trkpt lat="43.2904765" lon="12.7252429"><ele>415.0</ele><time>2026-05-02T11:30:32.978Z</time></trkpt><trkpt lat="43.2903559" lon="12.7253295"><ele>413.0</ele><time>2026-05-02T11:30:33.983Z</time></trkpt><trkpt lat="43.2902293" lon="12.7254119"><ele>411.0</ele><time>2026-05-02T11:30:34.992Z</time></trkpt><trkpt lat="43.2901026" lon="12.7254847"><ele>409.0</ele><time>2026-05-02T11:30:35.98Z</time></trkpt><trkpt lat="43.2899741" lon="12.7255637"><ele>409.0</ele><time>2026-05-02T11:30:36.985Z</time></trkpt><trkpt lat="43.2898319" lon="12.7256578"><ele>409.0</ele><time>2026-05-02T11:30:37.983Z</time></trkpt><trkpt lat="43.2896737" lon="12.7257532"><ele>409.0</ele><time>2026-05-02T11:30:38.982Z</time></trkpt><trkpt lat="43.2894983" lon="12.7258413"><ele>406.33333333333337</ele><time>2026-05-02T11:30:39.984Z</time></trkpt><trkpt lat="43.2893119" lon="12.7259273"><ele>403.66666666666663</ele><time>2026-05-02T11:30:40.986Z</time></trkpt><trkpt lat="43.2891256" lon="12.7260188"><ele>401.0</ele><time>2026-05-02T11:30:41.979Z</time></trkpt><trkpt lat="43.2889558" lon="12.7261031"><ele>400.3333333333333</ele><time>2026-05-02T11:30:42.973Z</time></trkpt><trkpt lat="43.2887958" lon="12.7261845"><ele>399.66666666666663</ele><time>2026-05-02T11:30:43.986Z</time></trkpt><trkpt lat="43.2886382" lon="12.7262471"><ele>399.0</ele><time>2026-05-02T11:30:44.98Z</time></trkpt><trkpt lat="43.2884776" lon="12.7262819"><ele>399.0</ele><time>2026-05-02T11:30:45.987Z</time></trkpt><trkpt lat="43.2883155" lon="12.7262969"><ele>399.0</ele><time>2026-05-02T11:30:46.981Z</time></trkpt><trkpt lat="43.2881521" lon="12.7262913"><ele>399.0</ele><time>2026-05-02T11:30:47.993Z</time></trkpt><trkpt lat="43.2879758" lon="12.7262607"><ele>397.33333333333337</ele><time>2026-05-02T11:30:48.998Z</time></trkpt><trkpt lat="43.2877879" lon="12.72623"><ele>395.6666666666667</ele><time>2026-05-02T11:30:49.979Z</time></trkpt><trkpt lat="43.2875973" lon="12.7261971"><ele>394.0</ele><time>2026-05-02T11:30:50.976Z</time></trkpt><trkpt lat="43.2874086" lon="12.7261737"><ele>394.0</ele><time>2026-05-02T11:30:51.983Z</time></trkpt><trkpt lat="43.2872085" lon="12.7261442"><ele>394.0</ele><time>2026-05-02T11:30:52.978Z</time></trkpt><trkpt lat="43.287001" lon="12.7260963"><ele>394.0</ele><time>2026-05-02T11:30:53.98Z</time></trkpt><trkpt lat="43.2867981" lon="12.7260456"><ele>394.0</ele><time>2026-05-02T11:30:54.983Z</time></trkpt><trkpt lat="43.2866101" lon="12.7259951"><ele>394.0</ele><time>2026-05-02T11:30:55.977Z</time></trkpt><trkpt lat="43.2864354" lon="12.7259592"><ele>394.0</ele><time>2026-05-02T11:30:56.981Z</time></trkpt><trkpt lat="43.2862709" lon="12.7259203"><ele>393.0</ele><time>2026-05-02T11:30:57.981Z</time></trkpt><trkpt lat="43.2861242" lon="12.7258849"><ele>392.0</ele><time>2026-05-02T11:30:58.975Z</time></trkpt><trkpt lat="43.2859797" lon="12.7258473"><ele>391.0</ele><time>2026-05-02T11:30:59.972Z</time></trkpt><trkpt lat="43.2858291" lon="12.725789"><ele>391.0</ele><time>2026-05-02T11:31:00.974Z</time></trkpt><trkpt lat="43.2856739" lon="12.7256905"><ele>391.0</ele><time>2026-05-02T11:31:01.978Z</time></trkpt><trkpt lat="43.285528" lon="12.7255657"><ele>391.0</ele><time>2026-05-02T11:31:02.983Z</time></trkpt><trkpt lat="43.2854009" lon="12.7254525"><ele>389.5</ele><time>2026-05-02T11:31:03.975Z</time></trkpt><trkpt lat="43.285273" lon="12.7253486"><ele>388.0</ele><time>2026-05-02T11:31:04.985Z</time></trkpt><trkpt lat="43.2851577" lon="12.7252958"><ele>386.5</ele><time>2026-05-02T11:31:05.977Z</time></trkpt><trkpt lat="43.2850394" lon="12.7252961"><ele>385.0</ele><time>2026-05-02T11:31:06.98Z</time></trkpt><trkpt lat="43.2849245" lon="12.7253413"><ele>385.0</ele><time>2026-05-02T11:31:07.985Z</time></trkpt><trkpt lat="43.2848109" lon="12.7254229"><ele>385.0</ele><time>2026-05-02T11:31:08.99Z</time></trkpt><trkpt lat="43.2846939" lon="12.7255398"><ele>385.0</ele><time>2026-05-02T11:31:09.982Z</time></trkpt><trkpt lat="43.2845803" lon="12.725684"><ele>385.0</ele><time>2026-05-02T11:31:10.99Z</time></trkpt><trkpt lat="43.2844502" lon="12.7258471"><ele>385.6666666666667</ele><time>2026-05-02T11:31:11.98Z</time></trkpt><trkpt lat="43.2843038" lon="12.7260201"><ele>386.33333333333337</ele><time>2026-05-02T11:31:13.006Z</time></trkpt><trkpt lat="43.2841549" lon="12.7262221"><ele>387.0</ele><time>2026-05-02T11:31:13.987Z</time></trkpt><trkpt lat="43.284026" lon="12.7264223"><ele>388.33333333333337</ele><time>2026-05-02T11:31:14.989Z</time></trkpt><trkpt lat="43.2839176" lon="12.7266108"><ele>389.6666666666667</ele><time>2026-05-02T11:31:15.983Z</time></trkpt><trkpt lat="43.2837964" lon="12.7267922"><ele>391.0</ele><time>2026-05-02T11:31:16.989Z</time></trkpt><trkpt lat="43.2836549" lon="12.7269757"><ele>393.6666666666667</ele><time>2026-05-02T11:31:17.981Z</time></trkpt><trkpt lat="43.2834922" lon="12.7271512"><ele>396.33333333333337</ele><time>2026-05-02T11:31:18.984Z</time></trkpt><trkpt lat="43.2833352" lon="12.7273125"><ele>399.0</ele><time>2026-05-02T11:31:19.982Z</time></trkpt><trkpt lat="43.2831911" lon="12.7274486"><ele>398.5</ele><time>2026-05-02T11:31:20.978Z</time></trkpt><trkpt lat="43.2830611" lon="12.7275745"><ele>398.0</ele><time>2026-05-02T11:31:21.976Z</time></trkpt><trkpt lat="43.2829414" lon="12.7276837"><ele>397.5</ele><time>2026-05-02T11:31:22.992Z</time></trkpt><trkpt lat="43.2828326" lon="12.7277957"><ele>397.0</ele><time>2026-05-02T11:31:23.983Z</time></trkpt><trkpt lat="43.2827283" lon="12.7279018"><ele>397.0</ele><time>2026-05-02T11:31:24.981Z</time></trkpt><trkpt lat="43.2826308" lon="12.728018"><ele>397.0</ele><time>2026-05-02T11:31:25.98Z</time></trkpt><trkpt lat="43.2825423" lon="12.7281225"><ele>397.0</ele><time>2026-05-02T11:31:26.992Z</time></trkpt><trkpt lat="43.2824648" lon="12.7282138"><ele>397.0</ele><time>2026-05-02T11:31:27.971Z</time></trkpt><trkpt lat="43.2824019" lon="12.7282861"><ele>397.0</ele><time>2026-05-02T11:31:28.983Z</time></trkpt><trkpt lat="43.2823445" lon="12.7283349"><ele>394.6</ele><time>2026-05-02T11:31:29.974Z</time></trkpt><trkpt lat="43.2822321" lon="12.7283696"><ele>392.20000000000005</ele><time>2026-05-02T11:31:31.976Z</time></trkpt><trkpt lat="43.2821491" lon="12.7282925"><ele>389.8</ele><time>2026-05-02T11:31:33.974Z</time></trkpt><trkpt lat="43.2821289" lon="12.7282025"><ele>387.4</ele><time>2026-05-02T11:31:34.974Z</time></trkpt><trkpt lat="43.2821297" lon="12.7280995"><ele>385.0</ele><time>2026-05-02T11:31:35.987Z</time></trkpt><trkpt lat="43.2821419" lon="12.7279613"><ele>385.0</ele><time>2026-05-02T11:31:36.985Z</time></trkpt><trkpt lat="43.2821541" lon="12.7277979"><ele>385.0</ele><time>2026-05-02T11:31:37.982Z</time></trkpt><trkpt lat="43.2821476" lon="12.7276227"><ele>385.0</ele><time>2026-05-02T11:31:38.979Z</time></trkpt><trkpt lat="43.2821341" lon="12.7274589"><ele>385.0</ele><time>2026-05-02T11:31:39.987Z</time></trkpt><trkpt lat="43.2821051" lon="12.7272954"><ele>384.75</ele><time>2026-05-02T11:31:40.982Z</time></trkpt><trkpt lat="43.2820525" lon="12.7271363"><ele>384.5</ele><time>2026-05-02T11:31:41.988Z</time></trkpt><trkpt lat="43.2819663" lon="12.7269862"><ele>384.25</ele><time>2026-05-02T11:31:42.984Z</time></trkpt><trkpt lat="43.281857" lon="12.7268426"><ele>384.0</ele><time>2026-05-02T11:31:43.982Z</time></trkpt><trkpt lat="43.281731" lon="12.7266714"><ele>384.0</ele><time>2026-05-02T11:31:44.988Z</time></trkpt><trkpt lat="43.2815897" lon="12.726485"><ele>384.0</ele><time>2026-05-02T11:31:45.987Z</time></trkpt><trkpt lat="43.2814361" lon="12.7262629"><ele>384.0</ele><time>2026-05-02T11:31:46.991Z</time></trkpt><trkpt lat="43.2812615" lon="12.7260208"><ele>383.5</ele><time>2026-05-02T11:31:47.988Z</time></trkpt><trkpt lat="43.2810751" lon="12.7257724"><ele>383.0</ele><time>2026-05-02T11:31:48.988Z</time></trkpt><trkpt lat="43.2808958" lon="12.7255329"><ele>383.0</ele><time>2026-05-02T11:31:49.994Z</time></trkpt><trkpt lat="43.2807427" lon="12.7253202"><ele>383.0</ele><time>2026-05-02T11:31:50.986Z</time></trkpt><trkpt lat="43.2805991" lon="12.7251269"><ele>383.0</ele><time>2026-05-02T11:31:51.98Z</time></trkpt><trkpt lat="43.2804761" lon="12.7249529"><ele>383.75</ele><time>2026-05-02T11:31:52.987Z</time></trkpt><trkpt lat="43.2803569" lon="12.7247984"><ele>384.5</ele><time>2026-05-02T11:31:53.979Z</time></trkpt><trkpt lat="43.280259" lon="12.7246641"><ele>385.25</ele><time>2026-05-02T11:31:54.983Z</time></trkpt><trkpt lat="43.280175" lon="12.7245535"><ele>386.0</ele><time>2026-05-02T11:31:55.997Z</time></trkpt><trkpt lat="43.2801009" lon="12.7244797"><ele>385.99999999999994</ele><time>2026-05-02T11:31:56.988Z</time></trkpt><trkpt lat="43.2800187" lon="12.7244561"><ele>386.0</ele><time>2026-05-02T11:31:57.987Z</time></trkpt><trkpt lat="43.2799444" lon="12.7244825"><ele>386.0</ele><time>2026-05-02T11:31:58.981Z</time></trkpt><trkpt lat="43.2798907" lon="12.72455"><ele>386.0</ele><time>2026-05-02T11:31:59.988Z</time></trkpt><trkpt lat="43.27985" lon="12.7246463"><ele>385.99999999999994</ele><time>2026-05-02T11:32:00.979Z</time></trkpt><trkpt lat="43.2798043" lon="12.7247773"><ele>386.0</ele><time>2026-05-02T11:32:01.982Z</time></trkpt><trkpt lat="43.2797556" lon="12.724922"><ele>387.66666666666663</ele><time>2026-05-02T11:32:02.978Z</time></trkpt><trkpt lat="43.2796516" lon="12.7250808"><ele>389.33333333333337</ele><time>2026-05-02T11:32:03.976Z</time></trkpt><trkpt lat="43.2795488" lon="12.7252907"><ele>391.0</ele><time>2026-05-02T11:32:04.988Z</time></trkpt><trkpt lat="43.2794649" lon="12.7255144"><ele>391.6666666666667</ele><time>2026-05-02T11:32:05.981Z</time></trkpt><trkpt lat="43.2793954" lon="12.725757"><ele>392.33333333333337</ele><time>2026-05-02T11:32:06.987Z</time></trkpt><trkpt lat="43.2793441" lon="12.726017"><ele>393.0</ele><time>2026-05-02T11:32:07.983Z</time></trkpt><trkpt lat="43.2792955" lon="12.726252"><ele>393.0</ele><time>2026-05-02T11:32:08.982Z</time></trkpt><trkpt lat="43.2792423" lon="12.7264696"><ele>393.0</ele><time>2026-05-02T11:32:09.986Z</time></trkpt><trkpt lat="43.279173" lon="12.7266477"><ele>393.0</ele><time>2026-05-02T11:32:10.976Z</time></trkpt><trkpt lat="43.2790827" lon="12.7267898"><ele>393.5</ele><time>2026-05-02T11:32:11.979Z</time></trkpt><trkpt lat="43.2789738" lon="12.7269033"><ele>394.0</ele><time>2026-05-02T11:32:12.981Z</time></trkpt><trkpt lat="43.2788493" lon="12.7269687"><ele>394.5</ele><time>2026-05-02T11:32:13.978Z</time></trkpt><trkpt lat="43.2787246" lon="12.7269822"><ele>395.0</ele><time>2026-05-02T11:32:14.978Z</time></trkpt><trkpt lat="43.2785868" lon="12.726943"><ele>396.3333333333333</ele><time>2026-05-02T11:32:15.988Z</time></trkpt><trkpt lat="43.2784472" lon="12.7268526"><ele>397.66666666666663</ele><time>2026-05-02T11:32:16.99Z</time></trkpt><trkpt lat="43.2782985" lon="12.7267473"><ele>399.0</ele><time>2026-05-02T11:32:17.985Z</time></trkpt><trkpt lat="43.2781388" lon="12.7266416"><ele>399.0</ele><time>2026-05-02T11:32:18.986Z</time></trkpt><trkpt lat="43.277989" lon="12.7265572"><ele>399.0</ele><time>2026-05-02T11:32:19.978Z</time></trkpt><trkpt lat="43.2778629" lon="12.7264946"><ele>399.0</ele><time>2026-05-02T11:32:20.984Z</time></trkpt><trkpt lat="43.2777406" lon="12.7264722"><ele>399.0</ele><time>2026-05-02T11:32:21.978Z</time></trkpt><trkpt lat="43.2776203" lon="12.7265066"><ele>399.0</ele><time>2026-05-02T11:32:22.98Z</time></trkpt><trkpt lat="43.2775038" lon="12.7265991"><ele>399.0</ele><time>2026-05-02T11:32:23.982Z</time></trkpt><trkpt lat="43.2773912" lon="12.7267242"><ele>399.0</ele><time>2026-05-02T11:32:24.973Z</time></trkpt><trkpt lat="43.2772689" lon="12.7268911"><ele>401.33333333333337</ele><time>2026-05-02T11:32:25.989Z</time></trkpt><trkpt lat="43.2771423" lon="12.7270855"><ele>403.6666666666667</ele><time>2026-05-02T11:32:26.98Z</time></trkpt><trkpt lat="43.2769964" lon="12.7272931"><ele>406.0</ele><time>2026-05-02T11:32:27.984Z</time></trkpt><trkpt lat="43.2768278" lon="12.7275232"><ele>405.5</ele><time>2026-05-02T11:32:28.983Z</time></trkpt><trkpt lat="43.276655" lon="12.7277611"><ele>405.0</ele><time>2026-05-02T11:32:29.998Z</time></trkpt><trkpt lat="43.276491" lon="12.7279959"><ele>407.0</ele><time>2026-05-02T11:32:30.988Z</time></trkpt><trkpt lat="43.2763308" lon="12.7282271"><ele>409.0</ele><time>2026-05-02T11:32:31.979Z</time></trkpt><trkpt lat="43.2761649" lon="12.7284707"><ele>406.0</ele><time>2026-05-02T11:32:32.986Z</time></trkpt><trkpt lat="43.2759899" lon="12.7287261"><ele>403.0</ele><time>2026-05-02T11:32:33.981Z</time></trkpt><trkpt lat="43.2757998" lon="12.7289985"><ele>403.5</ele><time>2026-05-02T11:32:34.989Z</time></trkpt><trkpt lat="43.275597" lon="12.729285"><ele>404.0</ele><time>2026-05-02T11:32:35.981Z</time></trkpt><trkpt lat="43.2753982" lon="12.7295647"><ele>404.5</ele><time>2026-05-02T11:32:36.99Z</time></trkpt><trkpt lat="43.2752167" lon="12.7298282"><ele>405.0</ele><time>2026-05-02T11:32:37.979Z</time></trkpt><trkpt lat="43.2750519" lon="12.7300719"><ele>406.0</ele><time>2026-05-02T11:32:38.983Z</time></trkpt><trkpt lat="43.2748923" lon="12.7303156"><ele>407.0</ele><time>2026-05-02T11:32:39.984Z</time></trkpt><trkpt lat="43.2747338" lon="12.7305635"><ele>410.5</ele><time>2026-05-02T11:32:40.978Z</time></trkpt><trkpt lat="43.27458" lon="12.7308142"><ele>414.0</ele><time>2026-05-02T11:32:41.985Z</time></trkpt><trkpt lat="43.2744282" lon="12.731061"><ele>414.0</ele><time>2026-05-02T11:32:42.981Z</time></trkpt><trkpt lat="43.2742707" lon="12.7313169"><ele>414.0</ele><time>2026-05-02T11:32:43.99Z</time></trkpt><trkpt lat="43.2741105" lon="12.7315817"><ele>414.0</ele><time>2026-05-02T11:32:44.989Z</time></trkpt><trkpt lat="43.2739389" lon="12.7318575"><ele>414.0</ele><time>2026-05-02T11:32:45.989Z</time></trkpt><trkpt lat="43.2737693" lon="12.7321343"><ele>413.5</ele><time>2026-05-02T11:32:46.981Z</time></trkpt><trkpt lat="43.2735933" lon="12.7324119"><ele>413.0</ele><time>2026-05-02T11:32:47.979Z</time></trkpt><trkpt lat="43.2734222" lon="12.7326884"><ele>412.0</ele><time>2026-05-02T11:32:48.985Z</time></trkpt><trkpt lat="43.2732524" lon="12.7329711"><ele>411.0</ele><time>2026-05-02T11:32:49.984Z</time></trkpt><trkpt lat="43.273084" lon="12.7332421"><ele>413.5</ele><time>2026-05-02T11:32:50.984Z</time></trkpt><trkpt lat="43.2729204" lon="12.7334924"><ele>416.0</ele><time>2026-05-02T11:32:51.983Z</time></trkpt><trkpt lat="43.2727589" lon="12.7337518"><ele>416.0</ele><time>2026-05-02T11:32:52.994Z</time></trkpt><trkpt lat="43.272594" lon="12.7340201"><ele>416.0</ele><time>2026-05-02T11:32:53.987Z</time></trkpt><trkpt lat="43.2724216" lon="12.7342921"><ele>417.0</ele><time>2026-05-02T11:32:54.983Z</time></trkpt><trkpt lat="43.2722491" lon="12.7345602"><ele>418.0</ele><time>2026-05-02T11:32:55.983Z</time></trkpt><trkpt lat="43.2720832" lon="12.7348205"><ele>418.0</ele><time>2026-05-02T11:32:56.979Z</time></trkpt><trkpt lat="43.2719256" lon="12.7350665"><ele>418.0</ele><time>2026-05-02T11:32:57.976Z</time></trkpt><trkpt lat="43.2717633" lon="12.7353024"><ele>419.0</ele><time>2026-05-02T11:32:58.977Z</time></trkpt><trkpt lat="43.2716064" lon="12.7355188"><ele>420.0</ele><time>2026-05-02T11:32:59.982Z</time></trkpt><trkpt lat="43.2714557" lon="12.7357374"><ele>421.0</ele><time>2026-05-02T11:33:00.985Z</time></trkpt><trkpt lat="43.2713089" lon="12.7359465"><ele>422.33333333333337</ele><time>2026-05-02T11:33:01.981Z</time></trkpt><trkpt lat="43.2711668" lon="12.7361413"><ele>423.66666666666663</ele><time>2026-05-02T11:33:02.975Z</time></trkpt><trkpt lat="43.271024" lon="12.7363411"><ele>425.0</ele><time>2026-05-02T11:33:03.986Z</time></trkpt><trkpt lat="43.270881" lon="12.7365465"><ele>425.0</ele><time>2026-05-02T11:33:04.983Z</time></trkpt><trkpt lat="43.2707278" lon="12.7367589"><ele>425.0</ele><time>2026-05-02T11:33:05.976Z</time></trkpt><trkpt lat="43.2705633" lon="12.7369816"><ele>425.0</ele><time>2026-05-02T11:33:06.976Z</time></trkpt><trkpt lat="43.2704009" lon="12.7372093"><ele>427.0</ele><time>2026-05-02T11:33:07.982Z</time></trkpt><trkpt lat="43.2702361" lon="12.7374499"><ele>429.0</ele><time>2026-05-02T11:33:09.001Z</time></trkpt><trkpt lat="43.2700623" lon="12.7377005"><ele>429.5</ele><time>2026-05-02T11:33:09.993Z</time></trkpt><trkpt lat="43.269881" lon="12.7379526"><ele>430.0</ele><time>2026-05-02T11:33:10.983Z</time></trkpt><trkpt lat="43.2697084" lon="12.7381944"><ele>430.0</ele><time>2026-05-02T11:33:11.982Z</time></trkpt><trkpt lat="43.2695389" lon="12.73843"><ele>430.0</ele><time>2026-05-02T11:33:12.985Z</time></trkpt><trkpt lat="43.2693742" lon="12.7386599"><ele>429.0</ele><time>2026-05-02T11:33:13.98Z</time></trkpt><trkpt lat="43.2692132" lon="12.7388829"><ele>428.0</ele><time>2026-05-02T11:33:14.987Z</time></trkpt><trkpt lat="43.2690617" lon="12.7390995"><ele>427.0</ele><time>2026-05-02T11:33:15.995Z</time></trkpt><trkpt lat="43.2689241" lon="12.7393018"><ele>429.33333333333337</ele><time>2026-05-02T11:33:16.986Z</time></trkpt><trkpt lat="43.2687939" lon="12.7394971"><ele>431.66666666666663</ele><time>2026-05-02T11:33:17.985Z</time></trkpt><trkpt lat="43.2686721" lon="12.7396822"><ele>434.0</ele><time>2026-05-02T11:33:18.984Z</time></trkpt><trkpt lat="43.2685498" lon="12.739856"><ele>434.0</ele><time>2026-05-02T11:33:19.98Z</time></trkpt><trkpt lat="43.2684332" lon="12.7400181"><ele>434.0</ele><time>2026-05-02T11:33:20.978Z</time></trkpt><trkpt lat="43.268327" lon="12.7401643"><ele>434.0</ele><time>2026-05-02T11:33:21.981Z</time></trkpt><trkpt lat="43.2682363" lon="12.7402924"><ele>434.0</ele><time>2026-05-02T11:33:22.968Z</time></trkpt><trkpt lat="43.2681585" lon="12.7404043"><ele>435.0</ele><time>2026-05-02T11:33:23.979Z</time></trkpt><trkpt lat="43.2680998" lon="12.7404993"><ele>436.0</ele><time>2026-05-02T11:33:24.976Z</time></trkpt><trkpt lat="43.2680472" lon="12.7405707"><ele>437.0</ele><time>2026-05-02T11:33:25.978Z</time></trkpt><trkpt lat="43.267937" lon="12.740607"><ele>438.0</ele><time>2026-05-02T11:33:27.972Z</time></trkpt><trkpt lat="43.2678718" lon="12.7405576"><ele>439.0</ele><time>2026-05-02T11:33:28.977Z</time></trkpt><trkpt lat="43.2677571" lon="12.7405308"><ele>439.0</ele><time>2026-05-02T11:33:29.984Z</time></trkpt><trkpt lat="43.2676485" lon="12.7404796"><ele>439.0</ele><time>2026-05-02T11:33:30.99Z</time></trkpt><trkpt lat="43.2675234" lon="12.7404316"><ele>439.0</ele><time>2026-05-02T11:33:31.977Z</time></trkpt><trkpt lat="43.2673899" lon="12.7403492"><ele>439.0</ele><time>2026-05-02T11:33:32.997Z</time></trkpt><trkpt lat="43.2672452" lon="12.7402668"><ele>442.33333333333337</ele><time>2026-05-02T11:33:33.986Z</time></trkpt><trkpt lat="43.2671073" lon="12.7401583"><ele>445.66666666666663</ele><time>2026-05-02T11:33:34.98Z</time></trkpt><trkpt lat="43.2669785" lon="12.7400254"><ele>449.0</ele><time>2026-05-02T11:33:35.988Z</time></trkpt><trkpt lat="43.2668673" lon="12.7398624"><ele>449.0</ele><time>2026-05-02T11:33:36.976Z</time></trkpt><trkpt lat="43.2667425" lon="12.7396679"><ele>449.0</ele><time>2026-05-02T11:33:37.981Z</time></trkpt><trkpt lat="43.2666282" lon="12.7394699"><ele>449.0</ele><time>2026-05-02T11:33:38.976Z</time></trkpt><trkpt lat="43.2665187" lon="12.7392894"><ele>452.66666666666663</ele><time>2026-05-02T11:33:39.976Z</time></trkpt><trkpt lat="43.2664216" lon="12.7391188"><ele>456.33333333333337</ele><time>2026-05-02T11:33:40.981Z</time></trkpt><trkpt lat="43.2663335" lon="12.7389526"><ele>460.0</ele><time>2026-05-02T11:33:41.985Z</time></trkpt><trkpt lat="43.2662381" lon="12.7387761"><ele>460.0</ele><time>2026-05-02T11:33:42.981Z</time></trkpt><trkpt lat="43.2661302" lon="12.7385984"><ele>460.0</ele><time>2026-05-02T11:33:43.983Z</time></trkpt><trkpt lat="43.2660056" lon="12.7384132"><ele>460.0</ele><time>2026-05-02T11:33:44.984Z</time></trkpt><trkpt lat="43.2658748" lon="12.7382212"><ele>462.0</ele><time>2026-05-02T11:33:45.988Z</time></trkpt><trkpt lat="43.2657527" lon="12.7380414"><ele>464.0</ele><time>2026-05-02T11:33:46.981Z</time></trkpt><trkpt lat="43.2656434" lon="12.7378708"><ele>466.0</ele><time>2026-05-02T11:33:47.982Z</time></trkpt><trkpt lat="43.2655546" lon="12.7376998"><ele>469.33333333333337</ele><time>2026-05-02T11:33:48.978Z</time></trkpt><trkpt lat="43.2654794" lon="12.7375159"><ele>472.66666666666663</ele><time>2026-05-02T11:33:49.993Z</time></trkpt><trkpt lat="43.2653991" lon="12.7373404"><ele>476.0</ele><time>2026-05-02T11:33:50.982Z</time></trkpt><trkpt lat="43.26532" lon="12.7371602"><ele>476.0</ele><time>2026-05-02T11:33:51.981Z</time></trkpt><trkpt lat="43.2652353" lon="12.7369897"><ele>476.0</ele><time>2026-05-02T11:33:52.988Z</time></trkpt><trkpt lat="43.2651672" lon="12.7368248"><ele>476.0</ele><time>2026-05-02T11:33:53.972Z</time></trkpt><trkpt lat="43.2650981" lon="12.7366464"><ele>476.0</ele><time>2026-05-02T11:33:54.977Z</time></trkpt><trkpt lat="43.2650276" lon="12.7364587"><ele>476.75</ele><time>2026-05-02T11:33:55.98Z</time></trkpt><trkpt lat="43.264949" lon="12.7362812"><ele>477.5</ele><time>2026-05-02T11:33:56.979Z</time></trkpt><trkpt lat="43.2648764" lon="12.7361494"><ele>478.25</ele><time>2026-05-02T11:33:57.978Z</time></trkpt><trkpt lat="43.2648042" lon="12.7360504"><ele>479.0</ele><time>2026-05-02T11:33:58.971Z</time></trkpt><trkpt lat="43.2647484" lon="12.735976"><ele>480.4</ele><time>2026-05-02T11:33:59.98Z</time></trkpt><trkpt lat="43.2646579" lon="12.7359073"><ele>481.79999999999995</ele><time>2026-05-02T11:34:01.972Z</time></trkpt><trkpt lat="43.2645337" lon="12.7359772"><ele>483.20000000000005</ele><time>2026-05-02T11:34:03.97Z</time></trkpt><trkpt lat="43.2644597" lon="12.7360392"><ele>484.6</ele><time>2026-05-02T11:34:04.975Z</time></trkpt><trkpt lat="43.2643895" lon="12.736095"><ele>486.0</ele><time>2026-05-02T11:34:05.979Z</time></trkpt><trkpt lat="43.264324" lon="12.7361611"><ele>486.0</ele><time>2026-05-02T11:34:07.972Z</time></trkpt><trkpt lat="43.2642674" lon="12.7360764"><ele>486.0</ele><time>2026-05-02T11:34:09.975Z</time></trkpt><trkpt lat="43.2642399" lon="12.7359706"><ele>486.0</ele><time>2026-05-02T11:34:10.972Z</time></trkpt><trkpt lat="43.2642002" lon="12.7358673"><ele>486.0</ele><time>2026-05-02T11:34:11.981Z</time></trkpt><trkpt lat="43.2641303" lon="12.7357717"><ele>486.0</ele><time>2026-05-02T11:34:12.978Z</time></trkpt><trkpt lat="43.264061" lon="12.7356844"><ele>486.0</ele><time>2026-05-02T11:34:13.972Z</time></trkpt><trkpt lat="43.2639873" lon="12.7356032"><ele>486.6</ele><time>2026-05-02T11:34:14.989Z</time></trkpt><trkpt lat="43.2639079" lon="12.7355214"><ele>487.20000000000005</ele><time>2026-05-02T11:34:15.977Z</time></trkpt><trkpt lat="43.2638252" lon="12.7354494"><ele>487.79999999999995</ele><time>2026-05-02T11:34:16.977Z</time></trkpt><trkpt lat="43.2637475" lon="12.7353709"><ele>488.4</ele><time>2026-05-02T11:34:17.973Z</time></trkpt><trkpt lat="43.2636751" lon="12.7352938"><ele>489.0</ele><time>2026-05-02T11:34:18.971Z</time></trkpt><trkpt lat="43.2636149" lon="12.7352217"><ele>490.0</ele><time>2026-05-02T11:34:19.97Z</time></trkpt><trkpt lat="43.2635639" lon="12.7351618"><ele>491.0</ele><time>2026-05-02T11:34:20.975Z</time></trkpt><trkpt lat="43.2634672" lon="12.7350677"><ele>492.0</ele><time>2026-05-02T11:34:22.977Z</time></trkpt><trkpt lat="43.2634155" lon="12.7350159"><ele>493.0</ele><time>2026-05-02T11:34:23.983Z</time></trkpt><trkpt lat="43.2633557" lon="12.7349476"><ele>494.0</ele><time>2026-05-02T11:34:24.991Z</time></trkpt><trkpt lat="43.2632974" lon="12.7348726"><ele>495.0</ele><time>2026-05-02T11:34:25.987Z</time></trkpt><trkpt lat="43.2632314" lon="12.7347981"><ele>495.0</ele><time>2026-05-02T11:34:26.973Z</time></trkpt><trkpt lat="43.2631627" lon="12.734721"><ele>495.0</ele><time>2026-05-02T11:34:27.976Z</time></trkpt><trkpt lat="43.2630929" lon="12.7346611"><ele>495.0</ele><time>2026-05-02T11:34:28.971Z</time></trkpt><trkpt lat="43.2630198" lon="12.7345947"><ele>495.0</ele><time>2026-05-02T11:34:29.973Z</time></trkpt><trkpt lat="43.2629502" lon="12.7345117"><ele>495.0</ele><time>2026-05-02T11:34:30.973Z</time></trkpt><trkpt lat="43.2628788" lon="12.7344376"><ele>495.0</ele><time>2026-05-02T11:34:31.982Z</time></trkpt><trkpt lat="43.2628115" lon="12.7343658"><ele>496.1666666666667</ele><time>2026-05-02T11:34:32.98Z</time></trkpt><trkpt lat="43.2627494" lon="12.7342911"><ele>497.33333333333337</ele><time>2026-05-02T11:34:33.975Z</time></trkpt><trkpt lat="43.2627009" lon="12.734204"><ele>498.5</ele><time>2026-05-02T11:34:34.975Z</time></trkpt><trkpt lat="43.2626651" lon="12.7341182"><ele>499.6666666666667</ele><time>2026-05-02T11:34:35.976Z</time></trkpt><trkpt lat="43.2626327" lon="12.7340258"><ele>500.83333333333337</ele><time>2026-05-02T11:34:36.98Z</time></trkpt><trkpt lat="43.2625922" lon="12.7339333"><ele>502.0</ele><time>2026-05-02T11:34:37.974Z</time></trkpt><trkpt lat="43.2625508" lon="12.7338549"><ele>502.00000000000006</ele><time>2026-05-02T11:34:38.976Z</time></trkpt><trkpt lat="43.2624904" lon="12.7337528"><ele>502.0</ele><time>2026-05-02T11:34:40.976Z</time></trkpt><trkpt lat="43.2624254" lon="12.7336625"><ele>502.0</ele><time>2026-05-02T11:34:42.978Z</time></trkpt><trkpt lat="43.2623806" lon="12.7336011"><ele>502.0</ele><time>2026-05-02T11:34:43.972Z</time></trkpt><trkpt lat="43.2623305" lon="12.7335176"><ele>502.00000000000006</ele><time>2026-05-02T11:34:45.003Z</time></trkpt><trkpt lat="43.2622812" lon="12.7334238"><ele>502.0</ele><time>2026-05-02T11:34:45.973Z</time></trkpt><trkpt lat="43.2622188" lon="12.7333187"><ele>505.6</ele><time>2026-05-02T11:34:46.965Z</time></trkpt><trkpt lat="43.2621398" lon="12.7332167"><ele>509.20000000000005</ele><time>2026-05-02T11:34:47.971Z</time></trkpt><trkpt lat="43.2620685" lon="12.7331307"><ele>512.8</ele><time>2026-05-02T11:34:48.972Z</time></trkpt><trkpt lat="43.2620104" lon="12.7330563"><ele>516.4</ele><time>2026-05-02T11:34:49.982Z</time></trkpt><trkpt lat="43.261922" lon="12.7329609"><ele>520.0</ele><time>2026-05-02T11:34:51.97Z</time></trkpt><trkpt lat="43.2618568" lon="12.7328993"><ele>520.0</ele><time>2026-05-02T11:34:54.975Z</time></trkpt><trkpt lat="43.2619229" lon="12.7329819"><ele>520.0</ele><time>2026-05-02T11:35:03.986Z</time></trkpt><trkpt lat="43.2619982" lon="12.7330614"><ele>520.0</ele><time>2026-05-02T11:35:04.971Z</time></trkpt><trkpt lat="43.2620898" lon="12.733168"><ele>520.0</ele><time>2026-05-02T11:35:05.974Z</time></trkpt><trkpt lat="43.2621744" lon="12.7332761"><ele>520.0</ele><time>2026-05-02T11:35:06.972Z</time></trkpt><trkpt lat="43.2622546" lon="12.7333918"><ele>516.4</ele><time>2026-05-02T11:35:07.976Z</time></trkpt><trkpt lat="43.2623366" lon="12.7335232"><ele>512.8</ele><time>2026-05-02T11:35:08.974Z</time></trkpt><trkpt lat="43.2624041" lon="12.7336519"><ele>509.20000000000005</ele><time>2026-05-02T11:35:09.975Z</time></trkpt><trkpt lat="43.2624707" lon="12.7337633"><ele>505.6</ele><time>2026-05-02T11:35:10.978Z</time></trkpt><trkpt lat="43.2625364" lon="12.7338722"><ele>502.0</ele><time>2026-05-02T11:35:11.989Z</time></trkpt><trkpt lat="43.2625984" lon="12.7339976"><ele>502.0</ele><time>2026-05-02T11:35:12.968Z</time></trkpt><trkpt lat="43.2626516" lon="12.7341283"><ele>502.00000000000006</ele><time>2026-05-02T11:35:13.978Z</time></trkpt><trkpt lat="43.2627116" lon="12.7342567"><ele>502.00000000000006</ele><time>2026-05-02T11:35:14.983Z</time></trkpt><trkpt lat="43.2627833" lon="12.7343565"><ele>502.0</ele><time>2026-05-02T11:35:15.977Z</time></trkpt><trkpt lat="43.2628645" lon="12.7344447"><ele>502.0</ele><time>2026-05-02T11:35:16.978Z</time></trkpt><trkpt lat="43.262934" lon="12.7345195"><ele>501.33333333333337</ele><time>2026-05-02T11:35:17.976Z</time></trkpt><trkpt lat="43.2629959" lon="12.7345806"><ele>500.6666666666667</ele><time>2026-05-02T11:35:18.972Z</time></trkpt><trkpt lat="43.2630545" lon="12.7346425"><ele>500.0</ele><time>2026-05-02T11:35:19.974Z</time></trkpt><trkpt lat="43.2631107" lon="12.7347033"><ele>499.33333333333337</ele><time>2026-05-02T11:35:20.974Z</time></trkpt><trkpt lat="43.263212" lon="12.7348144"><ele>498.6666666666667</ele><time>2026-05-02T11:35:23.008Z</time></trkpt><trkpt lat="43.2632574" lon="12.7348777"><ele>498.0</ele><time>2026-05-02T11:35:23.973Z</time></trkpt><trkpt lat="43.263308" lon="12.7349324"><ele>497.5</ele><time>2026-05-02T11:35:24.972Z</time></trkpt><trkpt lat="43.2633987" lon="12.7350106"><ele>497.0</ele><time>2026-05-02T11:35:26.976Z</time></trkpt><trkpt lat="43.2634819" lon="12.73508"><ele>496.5</ele><time>2026-05-02T11:35:28.981Z</time></trkpt><trkpt lat="43.2635445" lon="12.7350415"><ele>496.0</ele><time>2026-05-02T11:35:32.982Z</time></trkpt><trkpt lat="43.2634758" lon="12.7350444"><ele>495.5</ele><time>2026-05-02T11:43:45.973Z</time></trkpt><trkpt lat="43.2633999" lon="12.7349929"><ele>495.0</ele><time>2026-05-02T11:43:54.977Z</time></trkpt><trkpt lat="43.2633359" lon="12.7349414"><ele>495.0</ele><time>2026-05-02T11:43:55.968Z</time></trkpt><trkpt lat="43.2632647" lon="12.7348647"><ele>495.0</ele><time>2026-05-02T11:43:56.97Z</time></trkpt><trkpt lat="43.2631861" lon="12.7347808"><ele>495.0</ele><time>2026-05-02T11:43:57.974Z</time></trkpt><trkpt lat="43.2630811" lon="12.7346729"><ele>495.0</ele><time>2026-05-02T11:43:58.978Z</time></trkpt><trkpt lat="43.2629432" lon="12.7345226"><ele>496.75</ele><time>2026-05-02T11:43:59.972Z</time></trkpt><trkpt lat="43.2628245" lon="12.734388"><ele>498.5</ele><time>2026-05-02T11:44:00.977Z</time></trkpt><trkpt lat="43.2627201" lon="12.7342557"><ele>500.25</ele><time>2026-05-02T11:44:01.976Z</time></trkpt><trkpt lat="43.2626288" lon="12.7340939"><ele>502.0</ele><time>2026-05-02T11:44:02.986Z</time></trkpt><trkpt lat="43.2625447" lon="12.7339112"><ele>502.0</ele><time>2026-05-02T11:44:03.972Z</time></trkpt><trkpt lat="43.2624537" lon="12.7337328"><ele>502.0</ele><time>2026-05-02T11:44:04.975Z</time></trkpt><trkpt lat="43.2623679" lon="12.7335631"><ele>502.0</ele><time>2026-05-02T11:44:05.978Z</time></trkpt><trkpt lat="43.2622757" lon="12.7334104"><ele>506.5</ele><time>2026-05-02T11:44:06.971Z</time></trkpt><trkpt lat="43.262178" lon="12.7332674"><ele>511.0</ele><time>2026-05-02T11:44:07.975Z</time></trkpt><trkpt lat="43.2620718" lon="12.7331292"><ele>515.5</ele><time>2026-05-02T11:44:08.984Z</time></trkpt><trkpt lat="43.2619513" lon="12.732995"><ele>520.0</ele><time>2026-05-02T11:44:09.966Z</time></trkpt><trkpt lat="43.2618252" lon="12.7328674"><ele>520.0</ele><time>2026-05-02T11:44:10.973Z</time></trkpt><trkpt lat="43.2616967" lon="12.7327408"><ele>520.0</ele><time>2026-05-02T11:44:11.973Z</time></trkpt><trkpt lat="43.2615674" lon="12.7326108"><ele>520.0</ele><time>2026-05-02T11:44:12.977Z</time></trkpt><trkpt lat="43.2614388" lon="12.7324606"><ele>521.75</ele><time>2026-05-02T11:44:13.974Z</time></trkpt><trkpt lat="43.2613258" lon="12.732294"><ele>523.5</ele><time>2026-05-02T11:44:14.976Z</time></trkpt><trkpt lat="43.2612313" lon="12.7321458"><ele>525.25</ele><time>2026-05-02T11:44:15.975Z</time></trkpt><trkpt lat="43.2611525" lon="12.7320224"><ele>527.0</ele><time>2026-05-02T11:44:16.978Z</time></trkpt><trkpt lat="43.2610798" lon="12.7319204"><ele>525.4</ele><time>2026-05-02T11:44:17.975Z</time></trkpt><trkpt lat="43.2610169" lon="12.7318554"><ele>523.8000000000001</ele><time>2026-05-02T11:44:18.97Z</time></trkpt><trkpt lat="43.2609459" lon="12.7317914"><ele>522.2</ele><time>2026-05-02T11:44:19.98Z</time></trkpt><trkpt lat="43.2608637" lon="12.7317254"><ele>520.6</ele><time>2026-05-02T11:44:20.964Z</time></trkpt><trkpt lat="43.2607668" lon="12.7316516"><ele>519.0</ele><time>2026-05-02T11:44:21.974Z</time></trkpt><trkpt lat="43.2606541" lon="12.7315668"><ele>521.0</ele><time>2026-05-02T11:44:22.967Z</time></trkpt><trkpt lat="43.2605416" lon="12.7314907"><ele>523.0</ele><time>2026-05-02T11:44:23.977Z</time></trkpt><trkpt lat="43.2604251" lon="12.731423"><ele>525.0</ele><time>2026-05-02T11:44:24.973Z</time></trkpt><trkpt lat="43.2603289" lon="12.7313654"><ele>527.0</ele><time>2026-05-02T11:44:25.985Z</time></trkpt><trkpt lat="43.2602473" lon="12.7313218"><ele>529.0</ele><time>2026-05-02T11:44:26.976Z</time></trkpt><trkpt lat="43.26018" lon="12.7312859"><ele>529.0</ele><time>2026-05-02T11:44:27.978Z</time></trkpt><trkpt lat="43.2600868" lon="12.7312273"><ele>529.0</ele><time>2026-05-02T11:44:29.98Z</time></trkpt><trkpt lat="43.2600009" lon="12.7311464"><ele>529.0</ele><time>2026-05-02T11:44:31.983Z</time></trkpt><trkpt lat="43.2599505" lon="12.7310168"><ele>529.0</ele><time>2026-05-02T11:44:33.983Z</time></trkpt><trkpt lat="43.2599278" lon="12.7308285"><ele>529.75</ele><time>2026-05-02T11:44:35.968Z</time></trkpt><trkpt lat="43.2599256" lon="12.7306893"><ele>530.5</ele><time>2026-05-02T11:44:36.978Z</time></trkpt><trkpt lat="43.259952" lon="12.730536"><ele>531.25</ele><time>2026-05-02T11:44:37.974Z</time></trkpt><trkpt lat="43.259988" lon="12.730363"><ele>532.0</ele><time>2026-05-02T11:44:38.98Z</time></trkpt><trkpt lat="43.2600244" lon="12.730177"><ele>534.25</ele><time>2026-05-02T11:44:39.981Z</time></trkpt><trkpt lat="43.2600405" lon="12.7299832"><ele>536.5</ele><time>2026-05-02T11:44:40.984Z</time></trkpt><trkpt lat="43.2600396" lon="12.7298003"><ele>538.75</ele><time>2026-05-02T11:44:41.975Z</time></trkpt><trkpt lat="43.2600429" lon="12.729628"><ele>541.0</ele><time>2026-05-02T11:44:42.966Z</time></trkpt><trkpt lat="43.2600735" lon="12.7294638"><ele>543.25</ele><time>2026-05-02T11:44:43.988Z</time></trkpt><trkpt lat="43.2601289" lon="12.7293022"><ele>545.5</ele><time>2026-05-02T11:44:44.978Z</time></trkpt><trkpt lat="43.2601929" lon="12.7291537"><ele>547.75</ele><time>2026-05-02T11:44:45.97Z</time></trkpt><trkpt lat="43.2602277" lon="12.7289954"><ele>550.0</ele><time>2026-05-02T11:44:46.971Z</time></trkpt><trkpt lat="43.2602256" lon="12.7288292"><ele>550.0</ele><time>2026-05-02T11:44:47.968Z</time></trkpt><trkpt lat="43.2601924" lon="12.7286716"><ele>550.0</ele><time>2026-05-02T11:44:48.966Z</time></trkpt><trkpt lat="43.2601477" lon="12.7285117"><ele>550.0</ele><time>2026-05-02T11:44:49.985Z</time></trkpt><trkpt lat="43.2601001" lon="12.7283155"><ele>550.0</ele><time>2026-05-02T11:44:50.974Z</time></trkpt><trkpt lat="43.2600766" lon="12.7281074"><ele>553.5</ele><time>2026-05-02T11:44:51.967Z</time></trkpt><trkpt lat="43.2600959" lon="12.7279128"><ele>557.0</ele><time>2026-05-02T11:44:52.964Z</time></trkpt><trkpt lat="43.2601435" lon="12.7277318"><ele>560.5</ele><time>2026-05-02T11:44:53.968Z</time></trkpt><trkpt lat="43.2602057" lon="12.7275716"><ele>564.0</ele><time>2026-05-02T11:44:54.964Z</time></trkpt><trkpt lat="43.2602694" lon="12.7274304"><ele>565.8</ele><time>2026-05-02T11:44:55.971Z</time></trkpt><trkpt lat="43.2602937" lon="12.7272969"><ele>567.5999999999999</ele><time>2026-05-02T11:44:56.981Z</time></trkpt><trkpt lat="43.2602808" lon="12.7271591"><ele>569.4</ele><time>2026-05-02T11:44:57.982Z</time></trkpt><trkpt lat="43.2602333" lon="12.7270136"><ele>571.1999999999999</ele><time>2026-05-02T11:44:58.988Z</time></trkpt><trkpt lat="43.2601725" lon="12.7268737"><ele>573.0</ele><time>2026-05-02T11:44:59.983Z</time></trkpt><trkpt lat="43.2600709" lon="12.726716"><ele>573.0</ele><time>2026-05-02T11:45:00.974Z</time></trkpt><trkpt lat="43.2599609" lon="12.7265499"><ele>573.0</ele><time>2026-05-02T11:45:01.983Z</time></trkpt><trkpt lat="43.259861" lon="12.7263696"><ele>573.0</ele><time>2026-05-02T11:45:02.973Z</time></trkpt><trkpt lat="43.2597946" lon="12.7261743"><ele>579.75</ele><time>2026-05-02T11:45:03.976Z</time></trkpt><trkpt lat="43.2597614" lon="12.7260024"><ele>586.5</ele><time>2026-05-02T11:45:04.978Z</time></trkpt><trkpt lat="43.2597298" lon="12.7258623"><ele>593.25</ele><time>2026-05-02T11:45:05.97Z</time></trkpt><trkpt lat="43.2596732" lon="12.7257402"><ele>600.0</ele><time>2026-05-02T11:45:06.971Z</time></trkpt><trkpt lat="43.2595965" lon="12.7256361"><ele>600.0</ele><time>2026-05-02T11:45:07.966Z</time></trkpt><trkpt lat="43.2595246" lon="12.72555"><ele>600.0</ele><time>2026-05-02T11:45:08.973Z</time></trkpt><trkpt lat="43.259442" lon="12.7254826"><ele>600.0</ele><time>2026-05-02T11:45:09.968Z</time></trkpt><trkpt lat="43.2593577" lon="12.7254382"><ele>600.0</ele><time>2026-05-02T11:45:10.964Z</time></trkpt><trkpt lat="43.2592542" lon="12.725388"><ele>600.0</ele><time>2026-05-02T11:45:11.971Z</time></trkpt><trkpt lat="43.2591653" lon="12.7253356"><ele>600.0</ele><time>2026-05-02T11:45:12.973Z</time></trkpt><trkpt lat="43.259081" lon="12.7252732"><ele>600.0</ele><time>2026-05-02T11:45:13.968Z</time></trkpt><trkpt lat="43.2590047" lon="12.7251835"><ele>600.0</ele><time>2026-05-02T11:45:14.972Z</time></trkpt><trkpt lat="43.2589415" lon="12.7250624"><ele>600.0</ele><time>2026-05-02T11:45:15.968Z</time></trkpt><trkpt lat="43.2588856" lon="12.7249215"><ele>600.0</ele><time>2026-05-02T11:45:16.968Z</time></trkpt><trkpt lat="43.2588239" lon="12.7247664"><ele>601.25</ele><time>2026-05-02T11:45:17.971Z</time></trkpt><trkpt lat="43.2587439" lon="12.7246355"><ele>602.5</ele><time>2026-05-02T11:45:18.973Z</time></trkpt><trkpt lat="43.2586453" lon="12.7244971"><ele>603.75</ele><time>2026-05-02T11:45:19.963Z</time></trkpt><trkpt lat="43.2585373" lon="12.7243588"><ele>605.0</ele><time>2026-05-02T11:45:20.966Z</time></trkpt><trkpt lat="43.2584384" lon="12.7242326"><ele>605.0</ele><time>2026-05-02T11:45:21.976Z</time></trkpt><trkpt lat="43.2583645" lon="12.7240806"><ele>605.0</ele><time>2026-05-02T11:45:22.975Z</time></trkpt><trkpt lat="43.2583133" lon="12.7239091"><ele>605.0</ele><time>2026-05-02T11:45:23.964Z</time></trkpt><trkpt lat="43.2582759" lon="12.7237288"><ele>605.0</ele><time>2026-05-02T11:45:24.971Z</time></trkpt><trkpt lat="43.2582183" lon="12.7235784"><ele>601.5</ele><time>2026-05-02T11:45:25.967Z</time></trkpt><trkpt lat="43.25814" lon="12.7234475"><ele>598.0</ele><time>2026-05-02T11:45:26.97Z</time></trkpt><trkpt lat="43.2580439" lon="12.7233284"><ele>594.5</ele><time>2026-05-02T11:45:27.972Z</time></trkpt><trkpt lat="43.2579166" lon="12.7232136"><ele>591.0</ele><time>2026-05-02T11:45:28.967Z</time></trkpt><trkpt lat="43.2577731" lon="12.7230971"><ele>598.3333333333334</ele><time>2026-05-02T11:45:29.978Z</time></trkpt><trkpt lat="43.2576319" lon="12.7229731"><ele>605.6666666666667</ele><time>2026-05-02T11:45:30.976Z</time></trkpt><trkpt lat="43.2575174" lon="12.7228304"><ele>613.0</ele><time>2026-05-02T11:45:31.967Z</time></trkpt><trkpt lat="43.2574127" lon="12.7226742"><ele>613.0</ele><time>2026-05-02T11:45:32.968Z</time></trkpt><trkpt lat="43.2573284" lon="12.7224992"><ele>613.0</ele><time>2026-05-02T11:45:33.972Z</time></trkpt><trkpt lat="43.2572751" lon="12.7223012"><ele>613.0</ele><time>2026-05-02T11:45:34.983Z</time></trkpt><trkpt lat="43.2572473" lon="12.7220713"><ele>626.0</ele><time>2026-05-02T11:45:35.988Z</time></trkpt><trkpt lat="43.2572188" lon="12.7218376"><ele>639.0</ele><time>2026-05-02T11:45:36.976Z</time></trkpt><trkpt lat="43.2571843" lon="12.7216174"><ele>652.0</ele><time>2026-05-02T11:45:37.986Z</time></trkpt><trkpt lat="43.2571383" lon="12.7214142"><ele>652.0</ele><time>2026-05-02T11:45:38.98Z</time></trkpt><trkpt lat="43.257071" lon="12.7212151"><ele>652.0</ele><time>2026-05-02T11:45:39.969Z</time></trkpt><trkpt lat="43.2569959" lon="12.7210097"><ele>652.0</ele><time>2026-05-02T11:45:40.978Z</time></trkpt><trkpt lat="43.2569339" lon="12.7208135"><ele>652.25</ele><time>2026-05-02T11:45:41.97Z</time></trkpt><trkpt lat="43.2568882" lon="12.7206285"><ele>652.5</ele><time>2026-05-02T11:45:42.96Z</time></trkpt><trkpt lat="43.2568921" lon="12.7204295"><ele>652.75</ele><time>2026-05-02T11:45:43.977Z</time></trkpt><trkpt lat="43.256916" lon="12.7202332"><ele>653.0</ele><time>2026-05-02T11:45:44.98Z</time></trkpt><trkpt lat="43.2569715" lon="12.7200379"><ele>653.0</ele><time>2026-05-02T11:45:45.983Z</time></trkpt><trkpt lat="43.2570436" lon="12.719865"><ele>653.0</ele><time>2026-05-02T11:45:46.963Z</time></trkpt><trkpt lat="43.2571202" lon="12.7196923"><ele>653.0</ele><time>2026-05-02T11:45:47.976Z</time></trkpt><trkpt lat="43.2571707" lon="12.7195236"><ele>653.0</ele><time>2026-05-02T11:45:48.982Z</time></trkpt><trkpt lat="43.2571932" lon="12.7193791"><ele>652.6666666666666</ele><time>2026-05-02T11:45:49.973Z</time></trkpt><trkpt lat="43.2571828" lon="12.7192646"><ele>652.3333333333333</ele><time>2026-05-02T11:45:50.965Z</time></trkpt><trkpt lat="43.257146" lon="12.7191788"><ele>652.0</ele><time>2026-05-02T11:45:51.981Z</time></trkpt><trkpt lat="43.257083" lon="12.7191432"><ele>651.6666666666666</ele><time>2026-05-02T11:45:53.985Z</time></trkpt><trkpt lat="43.2569909" lon="12.7191522"><ele>651.3333333333334</ele><time>2026-05-02T11:45:55.981Z</time></trkpt><trkpt lat="43.2568657" lon="12.7191242"><ele>651.0</ele><time>2026-05-02T11:45:57.975Z</time></trkpt><trkpt lat="43.2567811" lon="12.7190763"><ele>651.0</ele><time>2026-05-02T11:45:59.973Z</time></trkpt><trkpt lat="43.2567222" lon="12.7190206"><ele>651.0</ele><time>2026-05-02T11:46:02.976Z</time></trkpt><trkpt lat="43.2566696" lon="12.7189678"><ele>651.0</ele><time>2026-05-02T11:46:04.969Z</time></trkpt><trkpt lat="43.2565441" lon="12.7188142"><ele>651.0</ele><time>2026-05-02T11:46:06.964Z</time></trkpt><trkpt lat="43.256465" lon="12.7187056"><ele>651.0</ele><time>2026-05-02T11:46:07.979Z</time></trkpt><trkpt lat="43.2563721" lon="12.7186094"><ele>652.25</ele><time>2026-05-02T11:46:08.986Z</time></trkpt><trkpt lat="43.2562603" lon="12.718536"><ele>653.5</ele><time>2026-05-02T11:46:09.98Z</time></trkpt><trkpt lat="43.2561234" lon="12.7184639"><ele>654.75</ele><time>2026-05-02T11:46:10.972Z</time></trkpt><trkpt lat="43.2559886" lon="12.7183914"><ele>656.0</ele><time>2026-05-02T11:46:11.966Z</time></trkpt><trkpt lat="43.255857" lon="12.7183135"><ele>656.0</ele><time>2026-05-02T11:46:12.971Z</time></trkpt><trkpt lat="43.2557359" lon="12.7182344"><ele>656.0</ele><time>2026-05-02T11:46:13.978Z</time></trkpt><trkpt lat="43.2556317" lon="12.7181548"><ele>656.0</ele><time>2026-05-02T11:46:14.973Z</time></trkpt><trkpt lat="43.2555525" lon="12.7180647"><ele>656.0</ele><time>2026-05-02T11:46:15.976Z</time></trkpt><trkpt lat="43.2554767" lon="12.7179771"><ele>657.1666666666666</ele><time>2026-05-02T11:46:16.976Z</time></trkpt><trkpt lat="43.2554059" lon="12.7179112"><ele>658.3333333333333</ele><time>2026-05-02T11:46:17.99Z</time></trkpt><trkpt lat="43.2553261" lon="12.7178843"><ele>659.5</ele><time>2026-05-02T11:46:18.989Z</time></trkpt><trkpt lat="43.2552462" lon="12.7178855"><ele>660.6666666666666</ele><time>2026-05-02T11:46:19.999Z</time></trkpt><trkpt lat="43.2551662" lon="12.7179297"><ele>661.8333333333334</ele><time>2026-05-02T11:46:20.994Z</time></trkpt><trkpt lat="43.2550886" lon="12.7180074"><ele>663.0</ele><time>2026-05-02T11:46:21.974Z</time></trkpt><trkpt lat="43.2549979" lon="12.7180917"><ele>663.0</ele><time>2026-05-02T11:46:22.988Z</time></trkpt><trkpt lat="43.2549158" lon="12.7181838"><ele>663.0</ele><time>2026-05-02T11:46:23.994Z</time></trkpt><trkpt lat="43.254844" lon="12.7182747"><ele>663.0</ele><time>2026-05-02T11:46:24.974Z</time></trkpt><trkpt lat="43.2547843" lon="12.7183711"><ele>663.0</ele><time>2026-05-02T11:46:25.972Z</time></trkpt><trkpt lat="43.2547402" lon="12.718475"><ele>663.0</ele><time>2026-05-02T11:46:26.966Z</time></trkpt><trkpt lat="43.2547069" lon="12.7185979"><ele>659.5</ele><time>2026-05-02T11:46:27.978Z</time></trkpt><trkpt lat="43.2546818" lon="12.7187621"><ele>656.0</ele><time>2026-05-02T11:46:28.979Z</time></trkpt><trkpt lat="43.2546564" lon="12.7189279"><ele>652.5</ele><time>2026-05-02T11:46:29.971Z</time></trkpt><trkpt lat="43.2546402" lon="12.7190957"><ele>649.0</ele><time>2026-05-02T11:46:30.972Z</time></trkpt><trkpt lat="43.2546344" lon="12.7192789"><ele>648.0</ele><time>2026-05-02T11:46:31.974Z</time></trkpt><trkpt lat="43.2546411" lon="12.7194791"><ele>647.0</ele><time>2026-05-02T11:46:32.976Z</time></trkpt><trkpt lat="43.2546511" lon="12.7196732"><ele>646.0</ele><time>2026-05-02T11:46:33.973Z</time></trkpt><trkpt lat="43.2546616" lon="12.7198589"><ele>645.0</ele><time>2026-05-02T11:46:34.99Z</time></trkpt><trkpt lat="43.2546648" lon="12.7200297"><ele>645.0</ele><time>2026-05-02T11:46:35.974Z</time></trkpt><trkpt lat="43.2546629" lon="12.7201897"><ele>645.0</ele><time>2026-05-02T11:46:36.984Z</time></trkpt><trkpt lat="43.2546545" lon="12.7203411"><ele>645.0</ele><time>2026-05-02T11:46:37.973Z</time></trkpt><trkpt lat="43.2546506" lon="12.7204829"><ele>645.0</ele><time>2026-05-02T11:46:38.977Z</time></trkpt><trkpt lat="43.2546593" lon="12.7206193"><ele>645.0</ele><time>2026-05-02T11:46:39.972Z</time></trkpt><trkpt lat="43.2546804" lon="12.7207629"><ele>645.0</ele><time>2026-05-02T11:46:40.97Z</time></trkpt><trkpt lat="43.2547279" lon="12.7209395"><ele>645.0</ele><time>2026-05-02T11:46:41.98Z</time></trkpt><trkpt lat="43.2547761" lon="12.7211264"><ele>645.0</ele><time>2026-05-02T11:46:42.967Z</time></trkpt><trkpt lat="43.2548229" lon="12.7212956"><ele>645.0</ele><time>2026-05-02T11:46:43.981Z</time></trkpt><trkpt lat="43.2548619" lon="12.7214707"><ele>648.5</ele><time>2026-05-02T11:46:44.966Z</time></trkpt><trkpt lat="43.2548824" lon="12.7216599"><ele>652.0</ele><time>2026-05-02T11:46:45.976Z</time></trkpt><trkpt lat="43.2548992" lon="12.7218644"><ele>655.5</ele><time>2026-05-02T11:46:46.971Z</time></trkpt><trkpt lat="43.2549179" lon="12.7220662"><ele>659.0</ele><time>2026-05-02T11:46:47.974Z</time></trkpt><trkpt lat="43.254932" lon="12.7222401"><ele>659.25</ele><time>2026-05-02T11:46:48.98Z</time></trkpt><trkpt lat="43.2549617" lon="12.72239"><ele>659.5</ele><time>2026-05-02T11:46:49.968Z</time></trkpt><trkpt lat="43.2550039" lon="12.722534"><ele>659.75</ele><time>2026-05-02T11:46:50.987Z</time></trkpt><trkpt lat="43.2550572" lon="12.72267"><ele>660.0</ele><time>2026-05-02T11:46:51.968Z</time></trkpt><trkpt lat="43.2551248" lon="12.7228041"><ele>660.0</ele><time>2026-05-02T11:46:52.982Z</time></trkpt><trkpt lat="43.2552072" lon="12.7229492"><ele>660.0</ele><time>2026-05-02T11:46:53.98Z</time></trkpt><trkpt lat="43.2552969" lon="12.7230855"><ele>660.0</ele><time>2026-05-02T11:46:54.977Z</time></trkpt><trkpt lat="43.2553638" lon="12.7232117"><ele>660.0</ele><time>2026-05-02T11:46:55.967Z</time></trkpt><trkpt lat="43.2554066" lon="12.7233272"><ele>660.0</ele><time>2026-05-02T11:46:56.973Z</time></trkpt><trkpt lat="43.2554328" lon="12.7234282"><ele>660.0</ele><time>2026-05-02T11:46:57.978Z</time></trkpt><trkpt lat="43.2554437" lon="12.7235222"><ele>660.0</ele><time>2026-05-02T11:46:58.978Z</time></trkpt><trkpt lat="43.2554523" lon="12.7236235"><ele>660.0</ele><time>2026-05-02T11:46:59.978Z</time></trkpt><trkpt lat="43.2554631" lon="12.7237389"><ele>660.0</ele><time>2026-05-02T11:47:00.975Z</time></trkpt><trkpt lat="43.2554744" lon="12.7238683"><ele>660.0</ele><time>2026-05-02T11:47:01.975Z</time></trkpt><trkpt lat="43.2554869" lon="12.7239967"><ele>659.0</ele><time>2026-05-02T11:47:02.99Z</time></trkpt><trkpt lat="43.2555091" lon="12.7241285"><ele>658.0</ele><time>2026-05-02T11:47:03.974Z</time></trkpt><trkpt lat="43.2555465" lon="12.7242757"><ele>657.0</ele><time>2026-05-02T11:47:04.983Z</time></trkpt><trkpt lat="43.2555895" lon="12.7244247"><ele>656.0</ele><time>2026-05-02T11:47:05.973Z</time></trkpt><trkpt lat="43.2556337" lon="12.7245948"><ele>660.5</ele><time>2026-05-02T11:47:06.976Z</time></trkpt><trkpt lat="43.2556731" lon="12.7247799"><ele>665.0</ele><time>2026-05-02T11:47:07.974Z</time></trkpt><trkpt lat="43.2557117" lon="12.7249572"><ele>669.5</ele><time>2026-05-02T11:47:08.974Z</time></trkpt><trkpt lat="43.2557403" lon="12.7251234"><ele>674.0</ele><time>2026-05-02T11:47:09.973Z</time></trkpt><trkpt lat="43.2557473" lon="12.7252948"><ele>675.25</ele><time>2026-05-02T11:47:10.977Z</time></trkpt><trkpt lat="43.2557446" lon="12.7254744"><ele>676.5</ele><time>2026-05-02T11:47:11.974Z</time></trkpt><trkpt lat="43.2557296" lon="12.7256567"><ele>677.75</ele><time>2026-05-02T11:47:12.964Z</time></trkpt><trkpt lat="43.2557141" lon="12.725837"><ele>679.0</ele><time>2026-05-02T11:47:13.973Z</time></trkpt><trkpt lat="43.2556746" lon="12.726003"><ele>676.75</ele><time>2026-05-02T11:47:14.965Z</time></trkpt><trkpt lat="43.2556147" lon="12.7261541"><ele>674.5</ele><time>2026-05-02T11:47:15.972Z</time></trkpt><trkpt lat="43.2555411" lon="12.7263089"><ele>672.25</ele><time>2026-05-02T11:47:16.979Z</time></trkpt><trkpt lat="43.2554639" lon="12.7264807"><ele>670.0</ele><time>2026-05-02T11:47:17.972Z</time></trkpt><trkpt lat="43.2553761" lon="12.7266616"><ele>670.0</ele><time>2026-05-02T11:47:18.975Z</time></trkpt><trkpt lat="43.2552841" lon="12.7268447"><ele>670.0</ele><time>2026-05-02T11:47:19.965Z</time></trkpt><trkpt lat="43.2551804" lon="12.7270271"><ele>670.0</ele><time>2026-05-02T11:47:20.975Z</time></trkpt><trkpt lat="43.2550759" lon="12.727187"><ele>673.25</ele><time>2026-05-02T11:47:21.974Z</time></trkpt><trkpt lat="43.2549783" lon="12.7273284"><ele>676.5</ele><time>2026-05-02T11:47:22.97Z</time></trkpt><trkpt lat="43.2548958" lon="12.7274812"><ele>679.75</ele><time>2026-05-02T11:47:23.971Z</time></trkpt><trkpt lat="43.2548049" lon="12.7276412"><ele>683.0</ele><time>2026-05-02T11:47:24.965Z</time></trkpt><trkpt lat="43.2547067" lon="12.7278283"><ele>683.0</ele><time>2026-05-02T11:47:25.97Z</time></trkpt><trkpt lat="43.2546063" lon="12.7280017"><ele>683.0</ele><time>2026-05-02T11:47:26.972Z</time></trkpt><trkpt lat="43.2545098" lon="12.7281447"><ele>683.0</ele><time>2026-05-02T11:47:27.965Z</time></trkpt><trkpt lat="43.2544297" lon="12.7282644"><ele>683.0</ele><time>2026-05-02T11:47:28.974Z</time></trkpt><trkpt lat="43.2543682" lon="12.7283875"><ele>683.0</ele><time>2026-05-02T11:47:29.972Z</time></trkpt><trkpt lat="43.2543083" lon="12.7285339"><ele>683.0</ele><time>2026-05-02T11:47:30.968Z</time></trkpt><trkpt lat="43.2542441" lon="12.728698"><ele>683.0</ele><time>2026-05-02T11:47:31.971Z</time></trkpt><trkpt lat="43.2541757" lon="12.7288576"><ele>683.0</ele><time>2026-05-02T11:47:32.969Z</time></trkpt><trkpt lat="43.2541113" lon="12.7290059"><ele>684.2</ele><time>2026-05-02T11:47:33.976Z</time></trkpt><trkpt lat="43.2540535" lon="12.7291302"><ele>685.4</ele><time>2026-05-02T11:47:34.971Z</time></trkpt><trkpt lat="43.2540025" lon="12.7292303"><ele>686.6</ele><time>2026-05-02T11:47:35.975Z</time></trkpt><trkpt lat="43.2539488" lon="12.72932"><ele>687.8000000000001</ele><time>2026-05-02T11:47:36.97Z</time></trkpt><trkpt lat="43.2538815" lon="12.7293891"><ele>689.0</ele><time>2026-05-02T11:47:37.979Z</time></trkpt><trkpt lat="43.2538097" lon="12.7294507"><ele>685.6666666666666</ele><time>2026-05-02T11:47:38.97Z</time></trkpt><trkpt lat="43.2537376" lon="12.729499"><ele>682.3333333333333</ele><time>2026-05-02T11:47:39.979Z</time></trkpt><trkpt lat="43.2536642" lon="12.7295428"><ele>679.0</ele><time>2026-05-02T11:47:40.982Z</time></trkpt><trkpt lat="43.2535804" lon="12.7295834"><ele>675.6666666666666</ele><time>2026-05-02T11:47:41.981Z</time></trkpt><trkpt lat="43.2534958" lon="12.7296258"><ele>672.3333333333334</ele><time>2026-05-02T11:47:42.981Z</time></trkpt><trkpt lat="43.2534089" lon="12.7296679"><ele>669.0</ele><time>2026-05-02T11:47:43.967Z</time></trkpt><trkpt lat="43.2533197" lon="12.7296963"><ele>669.0</ele><time>2026-05-02T11:47:44.953Z</time></trkpt><trkpt lat="43.2532255" lon="12.7297103"><ele>669.0</ele><time>2026-05-02T11:47:45.986Z</time></trkpt><trkpt lat="43.253135" lon="12.7297127"><ele>669.0</ele><time>2026-05-02T11:47:46.99Z</time></trkpt><trkpt lat="43.2530473" lon="12.7296915"><ele>669.0</ele><time>2026-05-02T11:47:47.972Z</time></trkpt><trkpt lat="43.2529528" lon="12.7296608"><ele>669.0</ele><time>2026-05-02T11:47:48.987Z</time></trkpt><trkpt lat="43.2528519" lon="12.7296201"><ele>666.0</ele><time>2026-05-02T11:47:49.99Z</time></trkpt><trkpt lat="43.2527425" lon="12.7295682"><ele>663.0</ele><time>2026-05-02T11:47:50.98Z</time></trkpt><trkpt lat="43.2526351" lon="12.7295092"><ele>660.0</ele><time>2026-05-02T11:47:51.981Z</time></trkpt><trkpt lat="43.2525231" lon="12.7294645"><ele>657.0</ele><time>2026-05-02T11:47:52.981Z</time></trkpt><trkpt lat="43.252403" lon="12.729433"><ele>654.25</ele><time>2026-05-02T11:47:53.975Z</time></trkpt><trkpt lat="43.2522755" lon="12.7294133"><ele>651.5</ele><time>2026-05-02T11:47:54.983Z</time></trkpt><trkpt lat="43.2521529" lon="12.729398"><ele>648.75</ele><time>2026-05-02T11:47:55.979Z</time></trkpt><trkpt lat="43.2520321" lon="12.7293871"><ele>646.0</ele><time>2026-05-02T11:47:56.971Z</time></trkpt><trkpt lat="43.251911" lon="12.7293769"><ele>646.0</ele><time>2026-05-02T11:47:57.968Z</time></trkpt><trkpt lat="43.2517943" lon="12.7293841"><ele>646.0</ele><time>2026-05-02T11:47:58.973Z</time></trkpt><trkpt lat="43.2516864" lon="12.7294022"><ele>646.0</ele><time>2026-05-02T11:47:59.973Z</time></trkpt><trkpt lat="43.2515873" lon="12.7294139"><ele>646.0</ele><time>2026-05-02T11:48:00.974Z</time></trkpt><trkpt lat="43.2514956" lon="12.7294378"><ele>646.0</ele><time>2026-05-02T11:48:01.982Z</time></trkpt><trkpt lat="43.2514074" lon="12.7294741"><ele>645.1666666666667</ele><time>2026-05-02T11:48:02.99Z</time></trkpt><trkpt lat="43.2513266" lon="12.72953"><ele>644.3333333333334</ele><time>2026-05-02T11:48:03.968Z</time></trkpt><trkpt lat="43.2512474" lon="12.7296049"><ele>643.5</ele><time>2026-05-02T11:48:04.966Z</time></trkpt><trkpt lat="43.2511721" lon="12.7296653"><ele>642.6666666666666</ele><time>2026-05-02T11:48:05.975Z</time></trkpt><trkpt lat="43.2511032" lon="12.7296883"><ele>641.8333333333333</ele><time>2026-05-02T11:48:06.97Z</time></trkpt><trkpt lat="43.251037" lon="12.7296987"><ele>641.0</ele><time>2026-05-02T11:48:07.971Z</time></trkpt><trkpt lat="43.2509488" lon="12.7296876"><ele>641.0</ele><time>2026-05-02T11:48:08.974Z</time></trkpt><trkpt lat="43.2508556" lon="12.7296646"><ele>641.0</ele><time>2026-05-02T11:48:09.968Z</time></trkpt><trkpt lat="43.250761" lon="12.7296341"><ele>641.0</ele><time>2026-05-02T11:48:10.983Z</time></trkpt><trkpt lat="43.2506633" lon="12.7296137"><ele>641.0</ele><time>2026-05-02T11:48:11.975Z</time></trkpt><trkpt lat="43.2505636" lon="12.7296237"><ele>641.0</ele><time>2026-05-02T11:48:12.981Z</time></trkpt><trkpt lat="43.2504634" lon="12.7296525"><ele>641.4</ele><time>2026-05-02T11:48:13.968Z</time></trkpt><trkpt lat="43.2503775" lon="12.7297081"><ele>641.8</ele><time>2026-05-02T11:48:14.979Z</time></trkpt><trkpt lat="43.2502931" lon="12.7297874"><ele>642.1999999999999</ele><time>2026-05-02T11:48:15.965Z</time></trkpt><trkpt lat="43.2502118" lon="12.7298646"><ele>642.5999999999999</ele><time>2026-05-02T11:48:16.97Z</time></trkpt><trkpt lat="43.2501342" lon="12.729942"><ele>643.0</ele><time>2026-05-02T11:48:17.991Z</time></trkpt><trkpt lat="43.2500536" lon="12.7300147"><ele>643.0</ele><time>2026-05-02T11:48:18.982Z</time></trkpt><trkpt lat="43.2499734" lon="12.7300874"><ele>643.0</ele><time>2026-05-02T11:48:19.968Z</time></trkpt><trkpt lat="43.2498941" lon="12.7301682"><ele>643.0</ele><time>2026-05-02T11:48:20.981Z</time></trkpt><trkpt lat="43.2498038" lon="12.7302662"><ele>643.0</ele><time>2026-05-02T11:48:21.984Z</time></trkpt><trkpt lat="43.2497203" lon="12.7303739"><ele>643.0</ele><time>2026-05-02T11:48:22.973Z</time></trkpt><trkpt lat="43.2496322" lon="12.7304935"><ele>640.75</ele><time>2026-05-02T11:48:23.99Z</time></trkpt><trkpt lat="43.2495544" lon="12.7306132"><ele>638.5</ele><time>2026-05-02T11:48:24.977Z</time></trkpt><trkpt lat="43.2494771" lon="12.7307249"><ele>636.25</ele><time>2026-05-02T11:48:25.975Z</time></trkpt><trkpt lat="43.2494" lon="12.730842"><ele>634.0</ele><time>2026-05-02T11:48:26.974Z</time></trkpt><trkpt lat="43.2493303" lon="12.7309583"><ele>628.6</ele><time>2026-05-02T11:48:27.992Z</time></trkpt><trkpt lat="43.2492647" lon="12.7310702"><ele>623.2</ele><time>2026-05-02T11:48:28.986Z</time></trkpt><trkpt lat="43.2492131" lon="12.731176"><ele>617.8000000000001</ele><time>2026-05-02T11:48:29.962Z</time></trkpt><trkpt lat="43.2491734" lon="12.7312936"><ele>612.4</ele><time>2026-05-02T11:48:30.977Z</time></trkpt><trkpt lat="43.2491263" lon="12.7314181"><ele>607.0</ele><time>2026-05-02T11:48:31.991Z</time></trkpt><trkpt lat="43.249096" lon="12.7315558"><ele>607.0</ele><time>2026-05-02T11:48:32.975Z</time></trkpt><trkpt lat="43.2490786" lon="12.7316923"><ele>607.0</ele><time>2026-05-02T11:48:33.984Z</time></trkpt><trkpt lat="43.2490549" lon="12.7318141"><ele>607.0</ele><time>2026-05-02T11:48:34.98Z</time></trkpt><trkpt lat="43.2490156" lon="12.7319318"><ele>607.0</ele><time>2026-05-02T11:48:35.97Z</time></trkpt><trkpt lat="43.2489556" lon="12.7320402"><ele>607.0</ele><time>2026-05-02T11:48:36.964Z</time></trkpt><trkpt lat="43.2488818" lon="12.7321448"><ele>606.8000000000001</ele><time>2026-05-02T11:48:37.978Z</time></trkpt><trkpt lat="43.2488008" lon="12.7322439"><ele>606.6</ele><time>2026-05-02T11:48:38.967Z</time></trkpt><trkpt lat="43.2487237" lon="12.7323485"><ele>606.4000000000001</ele><time>2026-05-02T11:48:39.987Z</time></trkpt><trkpt lat="43.2486561" lon="12.7324553"><ele>606.2</ele><time>2026-05-02T11:48:40.978Z</time></trkpt><trkpt lat="43.2485898" lon="12.7325647"><ele>606.0</ele><time>2026-05-02T11:48:41.97Z</time></trkpt><trkpt lat="43.2485331" lon="12.7326765"><ele>603.4</ele><time>2026-05-02T11:48:42.979Z</time></trkpt><trkpt lat="43.2484784" lon="12.7327961"><ele>600.8</ele><time>2026-05-02T11:48:43.985Z</time></trkpt><trkpt lat="43.2484336" lon="12.7329344"><ele>598.1999999999999</ele><time>2026-05-02T11:48:44.983Z</time></trkpt><trkpt lat="43.2483987" lon="12.733082"><ele>595.6</ele><time>2026-05-02T11:48:45.978Z</time></trkpt><trkpt lat="43.2483697" lon="12.7332375"><ele>593.0</ele><time>2026-05-02T11:48:46.983Z</time></trkpt><trkpt lat="43.248343" lon="12.7333965"><ele>593.0</ele><time>2026-05-02T11:48:47.975Z</time></trkpt><trkpt lat="43.2483218" lon="12.7335494"><ele>593.0</ele><time>2026-05-02T11:48:48.97Z</time></trkpt><trkpt lat="43.2482954" lon="12.7336889"><ele>593.0</ele><time>2026-05-02T11:48:49.97Z</time></trkpt><trkpt lat="43.2482736" lon="12.7338057"><ele>593.0</ele><time>2026-05-02T11:48:50.981Z</time></trkpt><trkpt lat="43.2482474" lon="12.7339171"><ele>593.0</ele><time>2026-05-02T11:48:51.97Z</time></trkpt><trkpt lat="43.2482067" lon="12.7340092"><ele>593.3333333333333</ele><time>2026-05-02T11:48:52.966Z</time></trkpt><trkpt lat="43.2481511" lon="12.7340864"><ele>593.6666666666666</ele><time>2026-05-02T11:48:53.976Z</time></trkpt><trkpt lat="43.2480897" lon="12.7341644"><ele>594.0</ele><time>2026-05-02T11:48:54.97Z</time></trkpt><trkpt lat="43.2480259" lon="12.7342465"><ele>594.3333333333334</ele><time>2026-05-02T11:48:55.981Z</time></trkpt><trkpt lat="43.2479702" lon="12.7343441"><ele>594.6666666666667</ele><time>2026-05-02T11:48:56.977Z</time></trkpt><trkpt lat="43.2479231" lon="12.7344311"><ele>595.0</ele><time>2026-05-02T11:48:57.98Z</time></trkpt><trkpt lat="43.2478743" lon="12.7345131"><ele>592.3333333333334</ele><time>2026-05-02T11:48:58.982Z</time></trkpt><trkpt lat="43.2478122" lon="12.7345676"><ele>589.6666666666667</ele><time>2026-05-02T11:48:59.972Z</time></trkpt><trkpt lat="43.2477361" lon="12.7345986"><ele>587.0</ele><time>2026-05-02T11:49:00.98Z</time></trkpt><trkpt lat="43.2476586" lon="12.7346453"><ele>584.3333333333334</ele><time>2026-05-02T11:49:01.974Z</time></trkpt><trkpt lat="43.247592" lon="12.734698"><ele>581.6666666666666</ele><time>2026-05-02T11:49:02.976Z</time></trkpt><trkpt lat="43.2475148" lon="12.7347548"><ele>579.0</ele><time>2026-05-02T11:49:03.98Z</time></trkpt><trkpt lat="43.2474309" lon="12.7348127"><ele>579.0</ele><time>2026-05-02T11:49:04.977Z</time></trkpt><trkpt lat="43.2473544" lon="12.7348655"><ele>579.0</ele><time>2026-05-02T11:49:05.978Z</time></trkpt><trkpt lat="43.2472829" lon="12.734923"><ele>579.0</ele><time>2026-05-02T11:49:06.986Z</time></trkpt><trkpt lat="43.247213" lon="12.734993"><ele>579.0</ele><time>2026-05-02T11:49:07.978Z</time></trkpt><trkpt lat="43.2471496" lon="12.7350599"><ele>579.0</ele><time>2026-05-02T11:49:08.98Z</time></trkpt><trkpt lat="43.2470849" lon="12.7351236"><ele>579.0</ele><time>2026-05-02T11:49:09.974Z</time></trkpt><trkpt lat="43.2470136" lon="12.7351895"><ele>574.4</ele><time>2026-05-02T11:49:10.971Z</time></trkpt><trkpt lat="43.2469401" lon="12.7352489"><ele>569.8</ele><time>2026-05-02T11:49:11.966Z</time></trkpt><trkpt lat="43.2468615" lon="12.7352996"><ele>565.2</ele><time>2026-05-02T11:49:12.974Z</time></trkpt><trkpt lat="43.24677" lon="12.7353481"><ele>560.6</ele><time>2026-05-02T11:49:13.982Z</time></trkpt><trkpt lat="43.2466818" lon="12.7354136"><ele>556.0</ele><time>2026-05-02T11:49:14.974Z</time></trkpt><trkpt lat="43.2465928" lon="12.7354829"><ele>556.0</ele><time>2026-05-02T11:49:15.979Z</time></trkpt><trkpt lat="43.246518" lon="12.735563"><ele>556.0</ele><time>2026-05-02T11:49:16.977Z</time></trkpt><trkpt lat="43.2464528" lon="12.7356486"><ele>556.0</ele><time>2026-05-02T11:49:17.972Z</time></trkpt><trkpt lat="43.246394" lon="12.7357362"><ele>556.0</ele><time>2026-05-02T11:49:18.972Z</time></trkpt><trkpt lat="43.2463379" lon="12.7358276"><ele>556.0</ele><time>2026-05-02T11:49:19.989Z</time></trkpt><trkpt lat="43.2462812" lon="12.7359217"><ele>556.0</ele><time>2026-05-02T11:49:20.977Z</time></trkpt><trkpt lat="43.246213" lon="12.7359957"><ele>555.3333333333334</ele><time>2026-05-02T11:49:21.996Z</time></trkpt><trkpt lat="43.2461402" lon="12.7360513"><ele>554.6666666666667</ele><time>2026-05-02T11:49:22.977Z</time></trkpt><trkpt lat="43.2460546" lon="12.7360958"><ele>554.0</ele><time>2026-05-02T11:49:23.975Z</time></trkpt><trkpt lat="43.2459798" lon="12.7361439"><ele>553.3333333333334</ele><time>2026-05-02T11:49:25Z</time></trkpt><trkpt lat="43.2459134" lon="12.7362157"><ele>552.6666666666666</ele><time>2026-05-02T11:49:25.972Z</time></trkpt><trkpt lat="43.245858" lon="12.7362928"><ele>552.0</ele><time>2026-05-02T11:49:26.971Z</time></trkpt><trkpt lat="43.2457981" lon="12.736372"><ele>550.1666666666666</ele><time>2026-05-02T11:49:27.985Z</time></trkpt><trkpt lat="43.2457378" lon="12.7364478"><ele>548.3333333333334</ele><time>2026-05-02T11:49:28.973Z</time></trkpt><trkpt lat="43.2456776" lon="12.7365289"><ele>546.5</ele><time>2026-05-02T11:49:29.976Z</time></trkpt><trkpt lat="43.2456156" lon="12.7366141"><ele>544.6666666666667</ele><time>2026-05-02T11:49:30.978Z</time></trkpt><trkpt lat="43.2455579" lon="12.736694"><ele>542.8333333333334</ele><time>2026-05-02T11:49:31.967Z</time></trkpt><trkpt lat="43.2455069" lon="12.7367665"><ele>541.0</ele><time>2026-05-02T11:49:32.983Z</time></trkpt><trkpt lat="43.245436" lon="12.7368555"><ele>541.0</ele><time>2026-05-02T11:49:34.978Z</time></trkpt><trkpt lat="43.2453424" lon="12.7368588"><ele>541.0</ele><time>2026-05-02T11:49:36.972Z</time></trkpt><trkpt lat="43.2452388" lon="12.7367585"><ele>541.0</ele><time>2026-05-02T11:49:38.977Z</time></trkpt><trkpt lat="43.2451663" lon="12.7367117"><ele>541.0</ele><time>2026-05-02T11:49:39.979Z</time></trkpt><trkpt lat="43.2450724" lon="12.7366755"><ele>541.0</ele><time>2026-05-02T11:49:40.985Z</time></trkpt><trkpt lat="43.2449761" lon="12.7366585"><ele>541.0</ele><time>2026-05-02T11:49:41.985Z</time></trkpt><trkpt lat="43.2448738" lon="12.736689"><ele>541.0</ele><time>2026-05-02T11:49:42.991Z</time></trkpt><trkpt lat="43.2447653" lon="12.7367432"><ele>541.0</ele><time>2026-05-02T11:49:43.98Z</time></trkpt><trkpt lat="43.2446621" lon="12.7367826"><ele>541.0</ele><time>2026-05-02T11:49:44.986Z</time></trkpt><trkpt lat="43.2445713" lon="12.7368239"><ele>541.0</ele><time>2026-05-02T11:49:45.983Z</time></trkpt><trkpt lat="43.2444849" lon="12.7368391"><ele>541.2</ele><time>2026-05-02T11:49:46.98Z</time></trkpt><trkpt lat="43.2443955" lon="12.7368159"><ele>541.4000000000001</ele><time>2026-05-02T11:49:47.975Z</time></trkpt><trkpt lat="43.2443136" lon="12.7367582"><ele>541.6</ele><time>2026-05-02T11:49:48.985Z</time></trkpt><trkpt lat="43.2442328" lon="12.7366519"><ele>541.8000000000001</ele><time>2026-05-02T11:49:49.964Z</time></trkpt><trkpt lat="43.2441477" lon="12.7365523"><ele>542.0</ele><time>2026-05-02T11:49:51.005Z</time></trkpt><trkpt lat="43.2440405" lon="12.7364475"><ele>539.6666666666666</ele><time>2026-05-02T11:49:51.976Z</time></trkpt><trkpt lat="43.2439258" lon="12.7363072"><ele>537.3333333333334</ele><time>2026-05-02T11:49:52.985Z</time></trkpt><trkpt lat="43.2438007" lon="12.7361253"><ele>535.0</ele><time>2026-05-02T11:49:53.988Z</time></trkpt><trkpt lat="43.2436859" lon="12.7359644"><ele>538.4</ele><time>2026-05-02T11:49:54.979Z</time></trkpt><trkpt lat="43.2435691" lon="12.7358336"><ele>541.8</ele><time>2026-05-02T11:49:55.968Z</time></trkpt><trkpt lat="43.2434643" lon="12.7357408"><ele>545.2</ele><time>2026-05-02T11:49:56.974Z</time></trkpt><trkpt lat="43.2433663" lon="12.7356868"><ele>548.6</ele><time>2026-05-02T11:49:57.989Z</time></trkpt><trkpt lat="43.2433017" lon="12.7356614"><ele>552.0</ele><time>2026-05-02T11:49:58.967Z</time></trkpt><trkpt lat="43.2431856" lon="12.7356248"><ele>549.8000000000001</ele><time>2026-05-02T11:50:00.978Z</time></trkpt><trkpt lat="43.2430488" lon="12.7355892"><ele>547.6</ele><time>2026-05-02T11:50:02.976Z</time></trkpt><trkpt lat="43.2429632" lon="12.7355436"><ele>545.4000000000001</ele><time>2026-05-02T11:50:03.982Z</time></trkpt><trkpt lat="43.2428726" lon="12.735472"><ele>543.2</ele><time>2026-05-02T11:50:04.989Z</time></trkpt><trkpt lat="43.2427842" lon="12.7353912"><ele>541.0</ele><time>2026-05-02T11:50:05.987Z</time></trkpt><trkpt lat="43.2427028" lon="12.7353336"><ele>541.0</ele><time>2026-05-02T11:50:06.973Z</time></trkpt><trkpt lat="43.2426381" lon="12.7352837"><ele>541.0</ele><time>2026-05-02T11:50:07.98Z</time></trkpt><trkpt lat="43.2425786" lon="12.7352451"><ele>541.0</ele><time>2026-05-02T11:50:08.984Z</time></trkpt><trkpt lat="43.2425208" lon="12.7352015"><ele>541.0</ele><time>2026-05-02T11:50:09.985Z</time></trkpt><trkpt lat="43.2424237" lon="12.735137"><ele>541.0</ele><time>2026-05-02T11:50:11.967Z</time></trkpt><trkpt lat="43.2423283" lon="12.7350906"><ele>541.0</ele><time>2026-05-02T11:50:13.987Z</time></trkpt><trkpt lat="43.2422061" lon="12.7350473"><ele>542.2</ele><time>2026-05-02T11:50:15.969Z</time></trkpt><trkpt lat="43.2420985" lon="12.7350135"><ele>543.4000000000001</ele><time>2026-05-02T11:50:17.982Z</time></trkpt><trkpt lat="43.2419877" lon="12.7349698"><ele>544.6</ele><time>2026-05-02T11:50:19.98Z</time></trkpt><trkpt lat="43.2418908" lon="12.7349158"><ele>545.8000000000001</ele><time>2026-05-02T11:50:21.972Z</time></trkpt><trkpt lat="43.241822" lon="12.7348596"><ele>547.0</ele><time>2026-05-02T11:50:23.986Z</time></trkpt><trkpt lat="43.2417565" lon="12.7347975"><ele>547.0</ele><time>2026-05-02T11:50:26.99Z</time></trkpt><trkpt lat="43.2416882" lon="12.7347325"><ele>547.0</ele><time>2026-05-02T11:50:29.978Z</time></trkpt><trkpt lat="43.2416413" lon="12.7346696"><ele>547.0</ele><time>2026-05-02T11:52:11.981Z</time></trkpt><trkpt lat="43.2415745" lon="12.7346203"><ele>547.0</ele><time>2026-05-02T11:52:13.977Z</time></trkpt><trkpt lat="43.2414708" lon="12.7345716"><ele>547.0</ele><time>2026-05-02T11:52:15.976Z</time></trkpt><trkpt lat="43.2413544" lon="12.7345552"><ele>545.0</ele><time>2026-05-02T11:52:17.969Z</time></trkpt><trkpt lat="43.2412436" lon="12.7345622"><ele>543.0</ele><time>2026-05-02T11:52:19.968Z</time></trkpt><trkpt lat="43.2411275" lon="12.7346092"><ele>541.0</ele><time>2026-05-02T11:52:21.991Z</time></trkpt><trkpt lat="43.2410619" lon="12.73465"><ele>539.0</ele><time>2026-05-02T11:52:22.975Z</time></trkpt><trkpt lat="43.2409935" lon="12.7346879"><ele>537.0</ele><time>2026-05-02T11:52:23.968Z</time></trkpt><trkpt lat="43.2409272" lon="12.7347197"><ele>535.0</ele><time>2026-05-02T11:52:24.977Z</time></trkpt><trkpt lat="43.2408617" lon="12.7347302"><ele>535.0</ele><time>2026-05-02T11:52:25.975Z</time></trkpt><trkpt lat="43.2407918" lon="12.7347341"><ele>535.0</ele><time>2026-05-02T11:52:26.987Z</time></trkpt><trkpt lat="43.2407284" lon="12.7347327"><ele>535.0</ele><time>2026-05-02T11:52:27.975Z</time></trkpt><trkpt lat="43.2406573" lon="12.734718"><ele>535.0</ele><time>2026-05-02T11:52:28.98Z</time></trkpt><trkpt lat="43.2405903" lon="12.7346925"><ele>535.0</ele><time>2026-05-02T11:52:29.968Z</time></trkpt><trkpt lat="43.2405201" lon="12.7346558"><ele>535.0</ele><time>2026-05-02T11:52:30.975Z</time></trkpt><trkpt lat="43.2404454" lon="12.7346266"><ele>535.0</ele><time>2026-05-02T11:52:31.969Z</time></trkpt><trkpt lat="43.2403648" lon="12.73459"><ele>532.1666666666667</ele><time>2026-05-02T11:52:32.976Z</time></trkpt><trkpt lat="43.240284" lon="12.7345559"><ele>529.3333333333334</ele><time>2026-05-02T11:52:33.984Z</time></trkpt><trkpt lat="43.2402059" lon="12.734524"><ele>526.5</ele><time>2026-05-02T11:52:34.976Z</time></trkpt><trkpt lat="43.2401278" lon="12.7344882"><ele>523.6666666666666</ele><time>2026-05-02T11:52:35.975Z</time></trkpt><trkpt lat="43.2400471" lon="12.7344584"><ele>520.8333333333333</ele><time>2026-05-02T11:52:36.974Z</time></trkpt><trkpt lat="43.2399622" lon="12.7344316"><ele>518.0</ele><time>2026-05-02T11:52:37.972Z</time></trkpt><trkpt lat="43.2398744" lon="12.734403"><ele>516.1999999999999</ele><time>2026-05-02T11:52:38.983Z</time></trkpt><trkpt lat="43.2397856" lon="12.7343705"><ele>514.4</ele><time>2026-05-02T11:52:39.97Z</time></trkpt><trkpt lat="43.2396908" lon="12.7343387"><ele>512.5999999999999</ele><time>2026-05-02T11:52:40.971Z</time></trkpt><trkpt lat="43.2395896" lon="12.7343341"><ele>510.79999999999995</ele><time>2026-05-02T11:52:41.97Z</time></trkpt><trkpt lat="43.2394789" lon="12.7343539"><ele>509.0</ele><time>2026-05-02T11:52:42.96Z</time></trkpt><trkpt lat="43.2393642" lon="12.7343928"><ele>507.25</ele><time>2026-05-02T11:52:43.985Z</time></trkpt><trkpt lat="43.2392473" lon="12.7344349"><ele>505.5</ele><time>2026-05-02T11:52:44.975Z</time></trkpt><trkpt lat="43.2391294" lon="12.7344662"><ele>503.75</ele><time>2026-05-02T11:52:45.97Z</time></trkpt><trkpt lat="43.2390035" lon="12.7344993"><ele>502.0</ele><time>2026-05-02T11:52:46.973Z</time></trkpt><trkpt lat="43.2388649" lon="12.7345336"><ele>500.0</ele><time>2026-05-02T11:52:47.974Z</time></trkpt><trkpt lat="43.2387346" lon="12.7345811"><ele>498.00000000000006</ele><time>2026-05-02T11:52:48.969Z</time></trkpt><trkpt lat="43.2386246" lon="12.7346238"><ele>496.00000000000006</ele><time>2026-05-02T11:52:49.972Z</time></trkpt><trkpt lat="43.2385234" lon="12.7346617"><ele>494.0</ele><time>2026-05-02T11:52:50.974Z</time></trkpt><trkpt lat="43.2384409" lon="12.7347033"><ele>492.0</ele><time>2026-05-02T11:52:51.973Z</time></trkpt><trkpt lat="43.2383743" lon="12.7347397"><ele>492.0</ele><time>2026-05-02T11:52:52.981Z</time></trkpt><trkpt lat="43.238282" lon="12.7348313"><ele>492.00000000000006</ele><time>2026-05-02T11:52:54.968Z</time></trkpt><trkpt lat="43.2382656" lon="12.7350252"><ele>492.00000000000006</ele><time>2026-05-02T11:52:56.971Z</time></trkpt><trkpt lat="43.2382869" lon="12.735153"><ele>492.0</ele><time>2026-05-02T11:52:57.971Z</time></trkpt><trkpt lat="43.2382817" lon="12.7352829"><ele>492.0</ele><time>2026-05-02T11:52:58.975Z</time></trkpt><trkpt lat="43.2382353" lon="12.7354206"><ele>490.40000000000003</ele><time>2026-05-02T11:52:59.966Z</time></trkpt><trkpt lat="43.2381841" lon="12.7355406"><ele>488.80000000000007</ele><time>2026-05-02T11:53:00.984Z</time></trkpt><trkpt lat="43.2381168" lon="12.7356512"><ele>487.2</ele><time>2026-05-02T11:53:01.974Z</time></trkpt><trkpt lat="43.2380403" lon="12.7357556"><ele>485.6</ele><time>2026-05-02T11:53:02.963Z</time></trkpt><trkpt lat="43.2379543" lon="12.7358419"><ele>484.0</ele><time>2026-05-02T11:53:03.972Z</time></trkpt><trkpt lat="43.2378605" lon="12.735913"><ele>482.75</ele><time>2026-05-02T11:53:04.983Z</time></trkpt><trkpt lat="43.2377563" lon="12.7359736"><ele>481.5</ele><time>2026-05-02T11:53:05.968Z</time></trkpt><trkpt lat="43.2376401" lon="12.7360401"><ele>480.25</ele><time>2026-05-02T11:53:06.979Z</time></trkpt><trkpt lat="43.2375103" lon="12.7361062"><ele>479.0</ele><time>2026-05-02T11:53:07.98Z</time></trkpt><trkpt lat="43.2373729" lon="12.7361769"><ele>480.66666666666663</ele><time>2026-05-02T11:53:08.978Z</time></trkpt><trkpt lat="43.2372352" lon="12.7362465"><ele>482.33333333333337</ele><time>2026-05-02T11:53:09.974Z</time></trkpt><trkpt lat="43.2370916" lon="12.7362989"><ele>484.0</ele><time>2026-05-02T11:53:10.971Z</time></trkpt><trkpt lat="43.2369377" lon="12.7363258"><ele>484.0</ele><time>2026-05-02T11:53:11.98Z</time></trkpt><trkpt lat="43.2368031" lon="12.7363259"><ele>484.0</ele><time>2026-05-02T11:53:12.972Z</time></trkpt><trkpt lat="43.2366839" lon="12.7363147"><ele>484.0</ele><time>2026-05-02T11:53:13.98Z</time></trkpt><trkpt lat="43.2365781" lon="12.7363145"><ele>484.0</ele><time>2026-05-02T11:53:14.98Z</time></trkpt><trkpt lat="43.2364698" lon="12.7363263"><ele>482.4</ele><time>2026-05-02T11:53:15.979Z</time></trkpt><trkpt lat="43.2363565" lon="12.7363594"><ele>480.79999999999995</ele><time>2026-05-02T11:53:16.97Z</time></trkpt><trkpt lat="43.2362502" lon="12.7364113"><ele>479.20000000000005</ele><time>2026-05-02T11:53:17.98Z</time></trkpt><trkpt lat="43.2361464" lon="12.7364771"><ele>477.6</ele><time>2026-05-02T11:53:18.971Z</time></trkpt><trkpt lat="43.2360589" lon="12.7365522"><ele>476.0</ele><time>2026-05-02T11:53:19.963Z</time></trkpt><trkpt lat="43.2359872" lon="12.7366371"><ele>475.99999999999994</ele><time>2026-05-02T11:53:20.976Z</time></trkpt><trkpt lat="43.2359443" lon="12.7367394"><ele>476.0</ele><time>2026-05-02T11:53:21.977Z</time></trkpt><trkpt lat="43.2359203" lon="12.7368439"><ele>476.0</ele><time>2026-05-02T11:53:22.968Z</time></trkpt><trkpt lat="43.2359179" lon="12.7369596"><ele>476.0</ele><time>2026-05-02T11:53:23.974Z</time></trkpt><trkpt lat="43.2359356" lon="12.7370921"><ele>475.99999999999994</ele><time>2026-05-02T11:53:24.977Z</time></trkpt><trkpt lat="43.2359662" lon="12.737219"><ele>476.0</ele><time>2026-05-02T11:53:25.989Z</time></trkpt><trkpt lat="43.2359916" lon="12.7373462"><ele>476.25</ele><time>2026-05-02T11:53:26.974Z</time></trkpt><trkpt lat="43.236004" lon="12.737472"><ele>476.5</ele><time>2026-05-02T11:53:27.975Z</time></trkpt><trkpt lat="43.2359814" lon="12.7376182"><ele>476.75</ele><time>2026-05-02T11:53:28.979Z</time></trkpt><trkpt lat="43.2359461" lon="12.7377736"><ele>477.0</ele><time>2026-05-02T11:53:29.973Z</time></trkpt><trkpt lat="43.2358949" lon="12.7379411"><ele>475.5</ele><time>2026-05-02T11:53:30.971Z</time></trkpt><trkpt lat="43.2358506" lon="12.7381148"><ele>474.0</ele><time>2026-05-02T11:53:31.966Z</time></trkpt><trkpt lat="43.235808" lon="12.738288"><ele>472.5</ele><time>2026-05-02T11:53:32.975Z</time></trkpt><trkpt lat="43.2357715" lon="12.7384503"><ele>471.0</ele><time>2026-05-02T11:53:33.972Z</time></trkpt><trkpt lat="43.2357423" lon="12.7386068"><ele>468.75</ele><time>2026-05-02T11:53:34.977Z</time></trkpt><trkpt lat="43.2357144" lon="12.7387567"><ele>466.5</ele><time>2026-05-02T11:53:35.978Z</time></trkpt><trkpt lat="43.2356826" lon="12.7389097"><ele>464.25</ele><time>2026-05-02T11:53:36.983Z</time></trkpt><trkpt lat="43.2356349" lon="12.7390513"><ele>462.0</ele><time>2026-05-02T11:53:37.976Z</time></trkpt><trkpt lat="43.2355689" lon="12.7391733"><ele>459.75</ele><time>2026-05-02T11:53:38.975Z</time></trkpt><trkpt lat="43.2354771" lon="12.7392761"><ele>457.5</ele><time>2026-05-02T11:53:39.973Z</time></trkpt><trkpt lat="43.2353571" lon="12.7393807"><ele>455.25</ele><time>2026-05-02T11:53:40.975Z</time></trkpt><trkpt lat="43.2352257" lon="12.7394898"><ele>453.0</ele><time>2026-05-02T11:53:41.979Z</time></trkpt><trkpt lat="43.2350966" lon="12.7396077"><ele>451.25</ele><time>2026-05-02T11:53:42.978Z</time></trkpt><trkpt lat="43.2349733" lon="12.7397387"><ele>449.5</ele><time>2026-05-02T11:53:43.98Z</time></trkpt><trkpt lat="43.2348647" lon="12.7398778"><ele>447.75</ele><time>2026-05-02T11:53:44.969Z</time></trkpt><trkpt lat="43.2347665" lon="12.7400102"><ele>446.0</ele><time>2026-05-02T11:53:45.972Z</time></trkpt><trkpt lat="43.2346771" lon="12.7401306"><ele>445.4</ele><time>2026-05-02T11:53:46.982Z</time></trkpt><trkpt lat="43.2346028" lon="12.7402327"><ele>444.8</ele><time>2026-05-02T11:53:47.978Z</time></trkpt><trkpt lat="43.2345456" lon="12.7403113"><ele>444.19999999999993</ele><time>2026-05-02T11:53:48.982Z</time></trkpt><trkpt lat="43.2344565" lon="12.7403642"><ele>443.59999999999997</ele><time>2026-05-02T11:53:50.985Z</time></trkpt><trkpt lat="43.2344061" lon="12.7402968"><ele>443.0</ele><time>2026-05-02T11:53:52.996Z</time></trkpt><trkpt lat="43.2343851" lon="12.7401006"><ele>442.25</ele><time>2026-05-02T11:53:54.977Z</time></trkpt><trkpt lat="43.2343855" lon="12.7399584"><ele>441.5</ele><time>2026-05-02T11:53:55.974Z</time></trkpt><trkpt lat="43.2343503" lon="12.7397721"><ele>440.75</ele><time>2026-05-02T11:53:56.974Z</time></trkpt><trkpt lat="43.2343079" lon="12.7395495"><ele>440.0</ele><time>2026-05-02T11:53:57.978Z</time></trkpt><trkpt lat="43.2342677" lon="12.7392948"><ele>440.0</ele><time>2026-05-02T11:53:58.979Z</time></trkpt><trkpt lat="43.2342231" lon="12.7390197"><ele>440.0</ele><time>2026-05-02T11:53:59.976Z</time></trkpt><trkpt lat="43.2341756" lon="12.7387478"><ele>440.0</ele><time>2026-05-02T11:54:00.981Z</time></trkpt><trkpt lat="43.234137" lon="12.7384921"><ele>439.66666666666663</ele><time>2026-05-02T11:54:01.974Z</time></trkpt><trkpt lat="43.2340865" lon="12.7382423"><ele>439.33333333333337</ele><time>2026-05-02T11:54:02.971Z</time></trkpt><trkpt lat="43.2340155" lon="12.7379944"><ele>439.0</ele><time>2026-05-02T11:54:03.969Z</time></trkpt><trkpt lat="43.2339153" lon="12.7377394"><ele>440.0</ele><time>2026-05-02T11:54:04.978Z</time></trkpt><trkpt lat="43.2337916" lon="12.7374518"><ele>441.0</ele><time>2026-05-02T11:54:05.966Z</time></trkpt><trkpt lat="43.2336551" lon="12.7371653"><ele>444.0</ele><time>2026-05-02T11:54:06.966Z</time></trkpt><trkpt lat="43.2335256" lon="12.7368749"><ele>447.0</ele><time>2026-05-02T11:54:07.967Z</time></trkpt><trkpt lat="43.2334053" lon="12.7365933"><ele>447.0</ele><time>2026-05-02T11:54:08.976Z</time></trkpt><trkpt lat="43.2332955" lon="12.7363229"><ele>447.0</ele><time>2026-05-02T11:54:09.98Z</time></trkpt><trkpt lat="43.2331878" lon="12.73606"><ele>447.0</ele><time>2026-05-02T11:54:10.974Z</time></trkpt><trkpt lat="43.2330792" lon="12.7357899"><ele>446.0</ele><time>2026-05-02T11:54:11.969Z</time></trkpt><trkpt lat="43.2329737" lon="12.7355151"><ele>445.0</ele><time>2026-05-02T11:54:12.97Z</time></trkpt><trkpt lat="43.2328713" lon="12.7352424"><ele>445.0</ele><time>2026-05-02T11:54:13.974Z</time></trkpt><trkpt lat="43.2327699" lon="12.7349843"><ele>445.0</ele><time>2026-05-02T11:54:14.974Z</time></trkpt><trkpt lat="43.2326719" lon="12.7347334"><ele>445.0</ele><time>2026-05-02T11:54:15.966Z</time></trkpt><trkpt lat="43.2325717" lon="12.7344821"><ele>446.0</ele><time>2026-05-02T11:54:16.973Z</time></trkpt><trkpt lat="43.2324739" lon="12.7342334"><ele>447.0</ele><time>2026-05-02T11:54:17.971Z</time></trkpt><trkpt lat="43.2323787" lon="12.7339768"><ele>448.0</ele><time>2026-05-02T11:54:18.964Z</time></trkpt><trkpt lat="43.232288" lon="12.7337242"><ele>445.6666666666667</ele><time>2026-05-02T11:54:19.97Z</time></trkpt><trkpt lat="43.2322032" lon="12.7334763"><ele>443.33333333333337</ele><time>2026-05-02T11:54:20.968Z</time></trkpt><trkpt lat="43.2321271" lon="12.7332312"><ele>441.0</ele><time>2026-05-02T11:54:21.978Z</time></trkpt><trkpt lat="43.2320672" lon="12.7329618"><ele>441.0</ele><time>2026-05-02T11:54:22.961Z</time></trkpt><trkpt lat="43.2320108" lon="12.7326767"><ele>441.0</ele><time>2026-05-02T11:54:23.967Z</time></trkpt><trkpt lat="43.2319657" lon="12.7324022"><ele>441.0</ele><time>2026-05-02T11:54:24.964Z</time></trkpt><trkpt lat="43.2319157" lon="12.7321322"><ele>440.66666666666663</ele><time>2026-05-02T11:54:25.96Z</time></trkpt><trkpt lat="43.231867" lon="12.7318606"><ele>440.3333333333333</ele><time>2026-05-02T11:54:26.97Z</time></trkpt><trkpt lat="43.231828" lon="12.7315824"><ele>440.0</ele><time>2026-05-02T11:54:27.97Z</time></trkpt><trkpt lat="43.2317872" lon="12.7313163"><ele>440.0</ele><time>2026-05-02T11:54:28.974Z</time></trkpt><trkpt lat="43.2317504" lon="12.7310627"><ele>440.0</ele><time>2026-05-02T11:54:29.971Z</time></trkpt><trkpt lat="43.2317186" lon="12.7308181"><ele>440.0</ele><time>2026-05-02T11:54:30.969Z</time></trkpt><trkpt lat="43.2316809" lon="12.7305796"><ele>439.3333333333333</ele><time>2026-05-02T11:54:31.975Z</time></trkpt><trkpt lat="43.2316272" lon="12.7303666"><ele>438.66666666666663</ele><time>2026-05-02T11:54:32.976Z</time></trkpt><trkpt lat="43.2315578" lon="12.7301773"><ele>438.0</ele><time>2026-05-02T11:54:33.976Z</time></trkpt><trkpt lat="43.2314651" lon="12.7300076"><ele>438.0</ele><time>2026-05-02T11:54:34.97Z</time></trkpt><trkpt lat="43.2313595" lon="12.7298658"><ele>438.0</ele><time>2026-05-02T11:54:35.969Z</time></trkpt><trkpt lat="43.2312494" lon="12.7297357"><ele>438.0</ele><time>2026-05-02T11:54:36.968Z</time></trkpt><trkpt lat="43.2311522" lon="12.7296224"><ele>438.0</ele><time>2026-05-02T11:54:37.968Z</time></trkpt><trkpt lat="43.2310615" lon="12.7294994"><ele>438.25</ele><time>2026-05-02T11:54:38.967Z</time></trkpt><trkpt lat="43.2309892" lon="12.7293731"><ele>438.5</ele><time>2026-05-02T11:54:39.983Z</time></trkpt><trkpt lat="43.2309292" lon="12.7292275"><ele>438.75</ele><time>2026-05-02T11:54:40.969Z</time></trkpt><trkpt lat="43.2308811" lon="12.7290432"><ele>439.0</ele><time>2026-05-02T11:54:41.988Z</time></trkpt><trkpt lat="43.2308387" lon="12.7288183"><ele>439.0</ele><time>2026-05-02T11:54:42.968Z</time></trkpt><trkpt lat="43.2308053" lon="12.7285665"><ele>439.0</ele><time>2026-05-02T11:54:43.965Z</time></trkpt><trkpt lat="43.2307745" lon="12.7283205"><ele>439.0</ele><time>2026-05-02T11:54:44.977Z</time></trkpt><trkpt lat="43.2307485" lon="12.7280927"><ele>439.0</ele><time>2026-05-02T11:54:45.966Z</time></trkpt><trkpt lat="43.2307212" lon="12.7278861"><ele>439.0</ele><time>2026-05-02T11:54:46.972Z</time></trkpt><trkpt lat="43.2306966" lon="12.7276757"><ele>439.0</ele><time>2026-05-02T11:54:47.972Z</time></trkpt><trkpt lat="43.2306695" lon="12.7274685"><ele>437.75</ele><time>2026-05-02T11:54:48.964Z</time></trkpt><trkpt lat="43.230641" lon="12.7272669"><ele>436.5</ele><time>2026-05-02T11:54:49.975Z</time></trkpt><trkpt lat="43.2306019" lon="12.7270722"><ele>435.25</ele><time>2026-05-02T11:54:50.97Z</time></trkpt><trkpt lat="43.2305503" lon="12.7268829"><ele>434.0</ele><time>2026-05-02T11:54:51.976Z</time></trkpt><trkpt lat="43.230472" lon="12.726697"><ele>434.0</ele><time>2026-05-02T11:54:52.971Z</time></trkpt><trkpt lat="43.2303627" lon="12.7265178"><ele>434.0</ele><time>2026-05-02T11:54:53.979Z</time></trkpt><trkpt lat="43.2302436" lon="12.7263469"><ele>434.0</ele><time>2026-05-02T11:54:54.966Z</time></trkpt><trkpt lat="43.2301286" lon="12.7261992"><ele>434.0</ele><time>2026-05-02T11:54:55.981Z</time></trkpt><trkpt lat="43.2300099" lon="12.7260691"><ele>434.0</ele><time>2026-05-02T11:54:56.983Z</time></trkpt><trkpt lat="43.2298807" lon="12.7259409"><ele>434.0</ele><time>2026-05-02T11:54:57.975Z</time></trkpt><trkpt lat="43.2297509" lon="12.7258195"><ele>433.0</ele><time>2026-05-02T11:54:58.972Z</time></trkpt><trkpt lat="43.22963" lon="12.7256863"><ele>432.0</ele><time>2026-05-02T11:54:59.972Z</time></trkpt><trkpt lat="43.2295187" lon="12.7255486"><ele>431.0</ele><time>2026-05-02T11:55:00.969Z</time></trkpt><trkpt lat="43.2294097" lon="12.7254104"><ele>431.0</ele><time>2026-05-02T11:55:01.969Z</time></trkpt><trkpt lat="43.2292986" lon="12.7252684"><ele>431.0</ele><time>2026-05-02T11:55:02.968Z</time></trkpt><trkpt lat="43.2291878" lon="12.7251225"><ele>431.0</ele><time>2026-05-02T11:55:03.969Z</time></trkpt><trkpt lat="43.2290873" lon="12.7249591"><ele>430.0</ele><time>2026-05-02T11:55:04.965Z</time></trkpt><trkpt lat="43.2290036" lon="12.7247768"><ele>429.0</ele><time>2026-05-02T11:55:05.96Z</time></trkpt><trkpt lat="43.2289409" lon="12.7245761"><ele>428.0</ele><time>2026-05-02T11:55:06.96Z</time></trkpt><trkpt lat="43.2288961" lon="12.724363"><ele>427.3333333333333</ele><time>2026-05-02T11:55:07.964Z</time></trkpt><trkpt lat="43.2288535" lon="12.7241573"><ele>426.66666666666663</ele><time>2026-05-02T11:55:08.968Z</time></trkpt><trkpt lat="43.2288197" lon="12.7239516"><ele>426.0</ele><time>2026-05-02T11:55:09.96Z</time></trkpt><trkpt lat="43.2287967" lon="12.7237426"><ele>425.66666666666663</ele><time>2026-05-02T11:55:10.975Z</time></trkpt><trkpt lat="43.2287946" lon="12.7235277"><ele>425.3333333333333</ele><time>2026-05-02T11:55:11.971Z</time></trkpt><trkpt lat="43.2288142" lon="12.723323"><ele>425.0</ele><time>2026-05-02T11:55:12.977Z</time></trkpt><trkpt lat="43.2288723" lon="12.7231123"><ele>425.0</ele><time>2026-05-02T11:55:13.974Z</time></trkpt><trkpt lat="43.2289473" lon="12.7229031"><ele>425.0</ele><time>2026-05-02T11:55:14.987Z</time></trkpt><trkpt lat="43.2290201" lon="12.7227029"><ele>425.0</ele><time>2026-05-02T11:55:15.964Z</time></trkpt><trkpt lat="43.2290771" lon="12.7225012"><ele>426.66666666666663</ele><time>2026-05-02T11:55:16.971Z</time></trkpt><trkpt lat="43.2291247" lon="12.7222802"><ele>428.33333333333337</ele><time>2026-05-02T11:55:17.975Z</time></trkpt><trkpt lat="43.229164" lon="12.7220556"><ele>430.0</ele><time>2026-05-02T11:55:18.973Z</time></trkpt><trkpt lat="43.2291944" lon="12.7218446"><ele>430.0</ele><time>2026-05-02T11:55:19.981Z</time></trkpt><trkpt lat="43.2292235" lon="12.7216412"><ele>430.0</ele><time>2026-05-02T11:55:20.969Z</time></trkpt><trkpt lat="43.2292534" lon="12.7214581"><ele>430.0</ele><time>2026-05-02T11:55:21.972Z</time></trkpt><trkpt lat="43.2292795" lon="12.7212878"><ele>430.0</ele><time>2026-05-02T11:55:22.976Z</time></trkpt><trkpt lat="43.2293049" lon="12.7211165"><ele>429.75</ele><time>2026-05-02T11:55:23.967Z</time></trkpt><trkpt lat="43.2293197" lon="12.7209422"><ele>429.5</ele><time>2026-05-02T11:55:24.978Z</time></trkpt><trkpt lat="43.2293214" lon="12.720759"><ele>429.25</ele><time>2026-05-02T11:55:25.966Z</time></trkpt><trkpt lat="43.2292985" lon="12.7205692"><ele>429.0</ele><time>2026-05-02T11:55:26.976Z</time></trkpt><trkpt lat="43.2292465" lon="12.7203985"><ele>429.0</ele><time>2026-05-02T11:55:27.972Z</time></trkpt><trkpt lat="43.2291605" lon="12.7202424"><ele>429.0</ele><time>2026-05-02T11:55:28.971Z</time></trkpt><trkpt lat="43.2290479" lon="12.7200893"><ele>429.0</ele><time>2026-05-02T11:55:29.981Z</time></trkpt><trkpt lat="43.2289127" lon="12.7199232"><ele>427.33333333333337</ele><time>2026-05-02T11:55:30.982Z</time></trkpt><trkpt lat="43.2287697" lon="12.7197364"><ele>425.6666666666667</ele><time>2026-05-02T11:55:31.986Z</time></trkpt><trkpt lat="43.2286288" lon="12.719547"><ele>424.0</ele><time>2026-05-02T11:55:32.982Z</time></trkpt><trkpt lat="43.2284908" lon="12.7193685"><ele>424.0</ele><time>2026-05-02T11:55:33.967Z</time></trkpt><trkpt lat="43.2283613" lon="12.7192092"><ele>424.0</ele><time>2026-05-02T11:55:34.992Z</time></trkpt><trkpt lat="43.2282395" lon="12.7190503"><ele>424.0</ele><time>2026-05-02T11:55:35.982Z</time></trkpt><trkpt lat="43.2281198" lon="12.7188934"><ele>423.6666666666667</ele><time>2026-05-02T11:55:36.965Z</time></trkpt><trkpt lat="43.2279986" lon="12.71874"><ele>423.33333333333337</ele><time>2026-05-02T11:55:37.97Z</time></trkpt><trkpt lat="43.2278776" lon="12.7185909"><ele>423.0</ele><time>2026-05-02T11:55:38.97Z</time></trkpt><trkpt lat="43.2277635" lon="12.7184447"><ele>423.0</ele><time>2026-05-02T11:55:39.971Z</time></trkpt><trkpt lat="43.2276532" lon="12.7183001"><ele>423.0</ele><time>2026-05-02T11:55:40.975Z</time></trkpt><trkpt lat="43.2275472" lon="12.7181428"><ele>423.0</ele><time>2026-05-02T11:55:41.973Z</time></trkpt><trkpt lat="43.2274518" lon="12.7179676"><ele>423.0</ele><time>2026-05-02T11:55:42.969Z</time></trkpt><trkpt lat="43.227373" lon="12.7177716"><ele>423.0</ele><time>2026-05-02T11:55:43.967Z</time></trkpt><trkpt lat="43.2273035" lon="12.7175551"><ele>423.0</ele><time>2026-05-02T11:55:44.965Z</time></trkpt><trkpt lat="43.2272559" lon="12.7172987"><ele>421.66666666666663</ele><time>2026-05-02T11:55:45.97Z</time></trkpt><trkpt lat="43.2272111" lon="12.7170346"><ele>420.3333333333333</ele><time>2026-05-02T11:55:46.988Z</time></trkpt><trkpt lat="43.2271696" lon="12.7167826"><ele>419.0</ele><time>2026-05-02T11:55:47.97Z</time></trkpt><trkpt lat="43.227131" lon="12.7165418"><ele>419.0</ele><time>2026-05-02T11:55:48.967Z</time></trkpt><trkpt lat="43.2270909" lon="12.716319"><ele>419.0</ele><time>2026-05-02T11:55:49.968Z</time></trkpt><trkpt lat="43.2270518" lon="12.7161054"><ele>419.0</ele><time>2026-05-02T11:55:50.965Z</time></trkpt><trkpt lat="43.2270175" lon="12.7158957"><ele>419.0</ele><time>2026-05-02T11:55:51.968Z</time></trkpt><trkpt lat="43.2269849" lon="12.7156926"><ele>419.0</ele><time>2026-05-02T11:55:52.973Z</time></trkpt><trkpt lat="43.22694" lon="12.7155"><ele>419.0</ele><time>2026-05-02T11:55:53.973Z</time></trkpt><trkpt lat="43.2268806" lon="12.7153173"><ele>419.0</ele><time>2026-05-02T11:55:54.976Z</time></trkpt><trkpt lat="43.2268014" lon="12.715147"><ele>417.0</ele><time>2026-05-02T11:55:55.972Z</time></trkpt><trkpt lat="43.2266865" lon="12.7149739"><ele>415.0</ele><time>2026-05-02T11:55:56.972Z</time></trkpt><trkpt lat="43.2265719" lon="12.7148096"><ele>413.0</ele><time>2026-05-02T11:55:57.984Z</time></trkpt><trkpt lat="43.2264646" lon="12.7146626"><ele>413.0</ele><time>2026-05-02T11:55:58.984Z</time></trkpt><trkpt lat="43.2263612" lon="12.7145174"><ele>413.0</ele><time>2026-05-02T11:55:59.971Z</time></trkpt><trkpt lat="43.2262584" lon="12.7143757"><ele>413.0</ele><time>2026-05-02T11:56:00.973Z</time></trkpt><trkpt lat="43.2261622" lon="12.7142336"><ele>413.0</ele><time>2026-05-02T11:56:01.982Z</time></trkpt><trkpt lat="43.2260675" lon="12.7140914"><ele>414.3333333333333</ele><time>2026-05-02T11:56:02.973Z</time></trkpt><trkpt lat="43.2259789" lon="12.7139234"><ele>415.66666666666663</ele><time>2026-05-02T11:56:03.977Z</time></trkpt><trkpt lat="43.2259052" lon="12.7137337"><ele>417.0</ele><time>2026-05-02T11:56:04.972Z</time></trkpt><trkpt lat="43.2258325" lon="12.713527"><ele>418.66666666666663</ele><time>2026-05-02T11:56:05.972Z</time></trkpt><trkpt lat="43.2257753" lon="12.7133229"><ele>420.3333333333333</ele><time>2026-05-02T11:56:06.975Z</time></trkpt><trkpt lat="43.2257256" lon="12.7131209"><ele>422.0</ele><time>2026-05-02T11:56:07.967Z</time></trkpt><trkpt lat="43.2256749" lon="12.7129177"><ele>418.3333333333333</ele><time>2026-05-02T11:56:08.971Z</time></trkpt><trkpt lat="43.2256272" lon="12.7127142"><ele>414.66666666666663</ele><time>2026-05-02T11:56:09.977Z</time></trkpt><trkpt lat="43.2255744" lon="12.7125151"><ele>411.0</ele><time>2026-05-02T11:56:10.972Z</time></trkpt><trkpt lat="43.2255237" lon="12.7123181"><ele>411.0</ele><time>2026-05-02T11:56:11.967Z</time></trkpt><trkpt lat="43.2254689" lon="12.71212"><ele>411.0</ele><time>2026-05-02T11:56:12.968Z</time></trkpt><trkpt lat="43.2254163" lon="12.7119208"><ele>411.0</ele><time>2026-05-02T11:56:13.967Z</time></trkpt><trkpt lat="43.2253584" lon="12.7117271"><ele>411.33333333333337</ele><time>2026-05-02T11:56:14.968Z</time></trkpt><trkpt lat="43.2252891" lon="12.7115334"><ele>411.6666666666667</ele><time>2026-05-02T11:56:15.969Z</time></trkpt><trkpt lat="43.2252105" lon="12.7113484"><ele>412.0</ele><time>2026-05-02T11:56:16.968Z</time></trkpt><trkpt lat="43.2251316" lon="12.7111592"><ele>412.6666666666667</ele><time>2026-05-02T11:56:17.982Z</time></trkpt><trkpt lat="43.2250559" lon="12.7109714"><ele>413.33333333333337</ele><time>2026-05-02T11:56:18.968Z</time></trkpt><trkpt lat="43.2249815" lon="12.7107911"><ele>414.0</ele><time>2026-05-02T11:56:19.965Z</time></trkpt><trkpt lat="43.2248969" lon="12.7106018"><ele>412.66666666666663</ele><time>2026-05-02T11:56:20.975Z</time></trkpt><trkpt lat="43.2248077" lon="12.7104058"><ele>411.3333333333333</ele><time>2026-05-02T11:56:21.974Z</time></trkpt><trkpt lat="43.2247213" lon="12.7101988"><ele>410.0</ele><time>2026-05-02T11:56:22.97Z</time></trkpt><trkpt lat="43.2246403" lon="12.7099808"><ele>409.0</ele><time>2026-05-02T11:56:23.975Z</time></trkpt><trkpt lat="43.224569" lon="12.7097555"><ele>408.0</ele><time>2026-05-02T11:56:24.965Z</time></trkpt><trkpt lat="43.2245015" lon="12.7095118"><ele>407.0</ele><time>2026-05-02T11:56:25.967Z</time></trkpt><trkpt lat="43.224438" lon="12.7092664"><ele>407.0</ele><time>2026-05-02T11:56:26.972Z</time></trkpt><trkpt lat="43.2243787" lon="12.7090349"><ele>407.0</ele><time>2026-05-02T11:56:27.971Z</time></trkpt><trkpt lat="43.2243237" lon="12.7088107"><ele>407.0</ele><time>2026-05-02T11:56:28.979Z</time></trkpt><trkpt lat="43.2242724" lon="12.7085895"><ele>408.66666666666663</ele><time>2026-05-02T11:56:29.977Z</time></trkpt><trkpt lat="43.2242229" lon="12.7083747"><ele>410.33333333333337</ele><time>2026-05-02T11:56:30.971Z</time></trkpt><trkpt lat="43.2241706" lon="12.7081581"><ele>412.0</ele><time>2026-05-02T11:56:31.967Z</time></trkpt><trkpt lat="43.2241193" lon="12.7079399"><ele>413.33333333333337</ele><time>2026-05-02T11:56:32.968Z</time></trkpt><trkpt lat="43.2240684" lon="12.7077224"><ele>414.66666666666663</ele><time>2026-05-02T11:56:33.973Z</time></trkpt><trkpt lat="43.2240195" lon="12.7075089"><ele>416.0</ele><time>2026-05-02T11:56:34.971Z</time></trkpt><trkpt lat="43.2239706" lon="12.7072972"><ele>413.3333333333333</ele><time>2026-05-02T11:56:35.966Z</time></trkpt><trkpt lat="43.2239239" lon="12.7070892"><ele>410.66666666666663</ele><time>2026-05-02T11:56:36.977Z</time></trkpt><trkpt lat="43.2238709" lon="12.7068781"><ele>408.0</ele><time>2026-05-02T11:56:37.974Z</time></trkpt><trkpt lat="43.2238074" lon="12.7066795"><ele>406.66666666666663</ele><time>2026-05-02T11:56:38.973Z</time></trkpt><trkpt lat="43.2237276" lon="12.7064978"><ele>405.3333333333333</ele><time>2026-05-02T11:56:39.963Z</time></trkpt><trkpt lat="43.2236226" lon="12.7063277"><ele>404.0</ele><time>2026-05-02T11:56:40.987Z</time></trkpt><trkpt lat="43.2234977" lon="12.7061713"><ele>403.66666666666663</ele><time>2026-05-02T11:56:41.978Z</time></trkpt><trkpt lat="43.2233615" lon="12.7060423"><ele>403.33333333333337</ele><time>2026-05-02T11:56:42.973Z</time></trkpt><trkpt lat="43.2232181" lon="12.7059287"><ele>403.0</ele><time>2026-05-02T11:56:43.97Z</time></trkpt><trkpt lat="43.223075" lon="12.705828"><ele>403.0</ele><time>2026-05-02T11:56:44.969Z</time></trkpt><trkpt lat="43.2229326" lon="12.7057294"><ele>403.0</ele><time>2026-05-02T11:56:45.986Z</time></trkpt><trkpt lat="43.2228037" lon="12.7056372"><ele>403.0</ele><time>2026-05-02T11:56:46.973Z</time></trkpt><trkpt lat="43.2226835" lon="12.7055485"><ele>403.0</ele><time>2026-05-02T11:56:47.975Z</time></trkpt><trkpt lat="43.2225789" lon="12.7054681"><ele>403.0</ele><time>2026-05-02T11:56:48.982Z</time></trkpt><trkpt lat="43.2224877" lon="12.7054031"><ele>403.0</ele><time>2026-05-02T11:56:49.974Z</time></trkpt><trkpt lat="43.2224068" lon="12.7053556"><ele>403.0</ele><time>2026-05-02T11:56:50.968Z</time></trkpt><trkpt lat="43.2223231" lon="12.7053419"><ele>403.0</ele><time>2026-05-02T11:56:51.967Z</time></trkpt><trkpt lat="43.2222381" lon="12.7053767"><ele>403.0</ele><time>2026-05-02T11:56:52.977Z</time></trkpt><trkpt lat="43.2221603" lon="12.7054439"><ele>402.25</ele><time>2026-05-02T11:56:53.978Z</time></trkpt><trkpt lat="43.2220867" lon="12.7055186"><ele>401.5</ele><time>2026-05-02T11:56:54.965Z</time></trkpt><trkpt lat="43.2219874" lon="12.7056202"><ele>400.75</ele><time>2026-05-02T11:56:55.974Z</time></trkpt><trkpt lat="43.2218666" lon="12.7057211"><ele>400.0</ele><time>2026-05-02T11:56:56.971Z</time></trkpt><trkpt lat="43.2217294" lon="12.7058137"><ele>400.0</ele><time>2026-05-02T11:56:57.962Z</time></trkpt><trkpt lat="43.2215804" lon="12.7059052"><ele>400.0</ele><time>2026-05-02T11:56:58.978Z</time></trkpt><trkpt lat="43.2214195" lon="12.7060165"><ele>400.0</ele><time>2026-05-02T11:56:59.988Z</time></trkpt><trkpt lat="43.2212593" lon="12.7061339"><ele>401.5</ele><time>2026-05-02T11:57:00.974Z</time></trkpt><trkpt lat="43.2211155" lon="12.7062362"><ele>403.0</ele><time>2026-05-02T11:57:01.969Z</time></trkpt><trkpt lat="43.2209835" lon="12.7063233"><ele>404.5</ele><time>2026-05-02T11:57:02.962Z</time></trkpt><trkpt lat="43.220859" lon="12.706392"><ele>406.0</ele><time>2026-05-02T11:57:03.977Z</time></trkpt><trkpt lat="43.2207486" lon="12.7064353"><ele>409.83333333333337</ele><time>2026-05-02T11:57:04.982Z</time></trkpt><trkpt lat="43.2206411" lon="12.7064598"><ele>413.6666666666667</ele><time>2026-05-02T11:57:05.967Z</time></trkpt><trkpt lat="43.2205482" lon="12.7064649"><ele>417.5</ele><time>2026-05-02T11:57:06.981Z</time></trkpt><trkpt lat="43.2204705" lon="12.7064835"><ele>421.33333333333337</ele><time>2026-05-02T11:57:07.976Z</time></trkpt><trkpt lat="43.2204007" lon="12.7065232"><ele>425.1666666666667</ele><time>2026-05-02T11:57:08.982Z</time></trkpt><trkpt lat="43.220341" lon="12.7065914"><ele>429.0</ele><time>2026-05-02T11:57:09.968Z</time></trkpt><trkpt lat="43.2202994" lon="12.7066809"><ele>429.0</ele><time>2026-05-02T11:57:10.96Z</time></trkpt><trkpt lat="43.2202591" lon="12.706761"><ele>429.0</ele><time>2026-05-02T11:57:11.969Z</time></trkpt><trkpt lat="43.220229" lon="12.7068438"><ele>429.0</ele><time>2026-05-02T11:57:12.971Z</time></trkpt><trkpt lat="43.2201942" lon="12.7069956"><ele>429.0</ele><time>2026-05-02T11:57:14.962Z</time></trkpt><trkpt lat="43.2201682" lon="12.7071344"><ele>429.0</ele><time>2026-05-02T11:57:16.966Z</time></trkpt><trkpt lat="43.2201102" lon="12.7072483"><ele>430.4</ele><time>2026-05-02T11:57:19.96Z</time></trkpt><trkpt lat="43.2200306" lon="12.7073438"><ele>431.79999999999995</ele><time>2026-05-02T11:57:21.967Z</time></trkpt><trkpt lat="43.2199323" lon="12.7074003"><ele>433.20000000000005</ele><time>2026-05-02T11:57:23.963Z</time></trkpt><trkpt lat="43.2198263" lon="12.7074535"><ele>434.6</ele><time>2026-05-02T11:57:25.983Z</time></trkpt><trkpt lat="43.2197393" lon="12.7075024"><ele>436.0</ele><time>2026-05-02T11:57:27.964Z</time></trkpt><trkpt lat="43.2196474" lon="12.7075406"><ele>436.6</ele><time>2026-05-02T11:57:29.966Z</time></trkpt><trkpt lat="43.2195441" lon="12.7075094"><ele>437.20000000000005</ele><time>2026-05-02T11:57:31.969Z</time></trkpt><trkpt lat="43.2194871" lon="12.7073988"><ele>437.79999999999995</ele><time>2026-05-02T11:57:33.976Z</time></trkpt><trkpt lat="43.219465" lon="12.7072174"><ele>438.4</ele><time>2026-05-02T11:57:35.976Z</time></trkpt><trkpt lat="43.2194484" lon="12.7070843"><ele>439.0</ele><time>2026-05-02T11:57:36.97Z</time></trkpt><trkpt lat="43.2194285" lon="12.7069479"><ele>438.2</ele><time>2026-05-02T11:57:37.967Z</time></trkpt><trkpt lat="43.2194036" lon="12.7068099"><ele>437.4</ele><time>2026-05-02T11:57:38.967Z</time></trkpt><trkpt lat="43.2193755" lon="12.70667"><ele>436.6</ele><time>2026-05-02T11:57:39.97Z</time></trkpt><trkpt lat="43.2193562" lon="12.7065202"><ele>435.8</ele><time>2026-05-02T11:57:40.976Z</time></trkpt><trkpt lat="43.2193429" lon="12.7063671"><ele>435.0</ele><time>2026-05-02T11:57:41.975Z</time></trkpt><trkpt lat="43.2193262" lon="12.7062078"><ele>434.4</ele><time>2026-05-02T11:57:42.971Z</time></trkpt><trkpt lat="43.2193087" lon="12.7060533"><ele>433.8</ele><time>2026-05-02T11:57:43.962Z</time></trkpt><trkpt lat="43.2192907" lon="12.7059071"><ele>433.20000000000005</ele><time>2026-05-02T11:57:44.978Z</time></trkpt><trkpt lat="43.2192691" lon="12.705763"><ele>432.6</ele><time>2026-05-02T11:57:45.966Z</time></trkpt><trkpt lat="43.2192469" lon="12.7056244"><ele>432.0</ele><time>2026-05-02T11:57:46.975Z</time></trkpt><trkpt lat="43.2192128" lon="12.7054767"><ele>432.0</ele><time>2026-05-02T11:57:47.971Z</time></trkpt><trkpt lat="43.2191686" lon="12.7053408"><ele>432.0</ele><time>2026-05-02T11:57:48.971Z</time></trkpt><trkpt lat="43.2191373" lon="12.705218"><ele>432.0</ele><time>2026-05-02T11:57:49.968Z</time></trkpt><trkpt lat="43.219108" lon="12.7051073"><ele>432.0</ele><time>2026-05-02T11:57:50.971Z</time></trkpt><trkpt lat="43.2190796" lon="12.7050064"><ele>432.0</ele><time>2026-05-02T11:57:51.981Z</time></trkpt><trkpt lat="43.219048" lon="12.7049051"><ele>432.0</ele><time>2026-05-02T11:57:52.972Z</time></trkpt><trkpt lat="43.2190112" lon="12.7048039"><ele>432.40000000000003</ele><time>2026-05-02T11:57:53.976Z</time></trkpt><trkpt lat="43.2189543" lon="12.7046931"><ele>432.80000000000007</ele><time>2026-05-02T11:57:54.978Z</time></trkpt><trkpt lat="43.218889" lon="12.7045946"><ele>433.2</ele><time>2026-05-02T11:57:55.968Z</time></trkpt><trkpt lat="43.2188206" lon="12.7045056"><ele>433.6</ele><time>2026-05-02T11:57:56.968Z</time></trkpt><trkpt lat="43.2187424" lon="12.7044282"><ele>434.0</ele><time>2026-05-02T11:57:57.968Z</time></trkpt><trkpt lat="43.2186502" lon="12.7043599"><ele>431.99999999999994</ele><time>2026-05-02T11:57:58.984Z</time></trkpt><trkpt lat="43.218568" lon="12.7042873"><ele>430.0</ele><time>2026-05-02T11:57:59.974Z</time></trkpt><trkpt lat="43.2185008" lon="12.7042204"><ele>428.0</ele><time>2026-05-02T11:58:00.98Z</time></trkpt><trkpt lat="43.2184552" lon="12.7041533"><ele>426.0</ele><time>2026-05-02T11:58:01.985Z</time></trkpt><trkpt lat="43.2184216" lon="12.7040707"><ele>423.99999999999994</ele><time>2026-05-02T11:58:02.973Z</time></trkpt><trkpt lat="43.2183951" lon="12.7039793"><ele>422.0</ele><time>2026-05-02T11:58:03.971Z</time></trkpt><trkpt lat="43.2183675" lon="12.7038993"><ele>421.99999999999994</ele><time>2026-05-02T11:58:04.989Z</time></trkpt><trkpt lat="43.2183179" lon="12.7038319"><ele>422.0</ele><time>2026-05-02T11:58:05.974Z</time></trkpt><trkpt lat="43.2182554" lon="12.7037864"><ele>422.0</ele><time>2026-05-02T11:58:06.972Z</time></trkpt><trkpt lat="43.2181733" lon="12.7037632"><ele>422.0</ele><time>2026-05-02T11:58:07.982Z</time></trkpt><trkpt lat="43.218082" lon="12.7037298"><ele>421.99999999999994</ele><time>2026-05-02T11:58:08.968Z</time></trkpt><trkpt lat="43.2179962" lon="12.7036886"><ele>422.0</ele><time>2026-05-02T11:58:09.979Z</time></trkpt><trkpt lat="43.2179241" lon="12.7036183"><ele>420.8</ele><time>2026-05-02T11:58:10.979Z</time></trkpt><trkpt lat="43.2178704" lon="12.7035371"><ele>419.6</ele><time>2026-05-02T11:58:11.963Z</time></trkpt><trkpt lat="43.2178222" lon="12.7034398"><ele>418.40000000000003</ele><time>2026-05-02T11:58:12.969Z</time></trkpt><trkpt lat="43.2177715" lon="12.7033125"><ele>417.20000000000005</ele><time>2026-05-02T11:58:13.971Z</time></trkpt><trkpt lat="43.2177308" lon="12.703178"><ele>416.0</ele><time>2026-05-02T11:58:14.967Z</time></trkpt><trkpt lat="43.2176853" lon="12.7030485"><ele>416.0</ele><time>2026-05-02T11:58:15.967Z</time></trkpt><trkpt lat="43.2176466" lon="12.7029197"><ele>416.0</ele><time>2026-05-02T11:58:16.972Z</time></trkpt><trkpt lat="43.2176074" lon="12.7028096"><ele>416.0</ele><time>2026-05-02T11:58:17.98Z</time></trkpt><trkpt lat="43.2175623" lon="12.7027008"><ele>416.0</ele><time>2026-05-02T11:58:18.962Z</time></trkpt><trkpt lat="43.217511" lon="12.702579"><ele>416.0</ele><time>2026-05-02T11:58:19.968Z</time></trkpt><trkpt lat="43.2174565" lon="12.7024729"><ele>414.20000000000005</ele><time>2026-05-02T11:58:20.972Z</time></trkpt><trkpt lat="43.2173934" lon="12.702385"><ele>412.40000000000003</ele><time>2026-05-02T11:58:21.968Z</time></trkpt><trkpt lat="43.2173121" lon="12.7023102"><ele>410.6</ele><time>2026-05-02T11:58:22.966Z</time></trkpt><trkpt lat="43.217225" lon="12.7022625"><ele>408.8</ele><time>2026-05-02T11:58:23.978Z</time></trkpt><trkpt lat="43.2171428" lon="12.702232"><ele>407.0</ele><time>2026-05-02T11:58:24.976Z</time></trkpt><trkpt lat="43.2170594" lon="12.7022252"><ele>407.0</ele><time>2026-05-02T11:58:25.976Z</time></trkpt><trkpt lat="43.2169684" lon="12.7022338"><ele>407.0</ele><time>2026-05-02T11:58:26.984Z</time></trkpt><trkpt lat="43.2168699" lon="12.7022546"><ele>407.0</ele><time>2026-05-02T11:58:27.972Z</time></trkpt><trkpt lat="43.2167594" lon="12.7022769"><ele>407.0</ele><time>2026-05-02T11:58:28.983Z</time></trkpt><trkpt lat="43.2166457" lon="12.7022962"><ele>407.0</ele><time>2026-05-02T11:58:29.981Z</time></trkpt><trkpt lat="43.2165268" lon="12.7023178"><ele>406.25</ele><time>2026-05-02T11:58:30.975Z</time></trkpt><trkpt lat="43.2164011" lon="12.702346"><ele>405.5</ele><time>2026-05-02T11:58:31.967Z</time></trkpt><trkpt lat="43.2162728" lon="12.7023731"><ele>404.75</ele><time>2026-05-02T11:58:32.974Z</time></trkpt><trkpt lat="43.2161396" lon="12.7024041"><ele>404.0</ele><time>2026-05-02T11:58:33.972Z</time></trkpt><trkpt lat="43.2160192" lon="12.702435"><ele>404.0</ele><time>2026-05-02T11:58:34.965Z</time></trkpt><trkpt lat="43.2158995" lon="12.7024681"><ele>404.0</ele><time>2026-05-02T11:58:35.965Z</time></trkpt><trkpt lat="43.2157743" lon="12.7025137"><ele>404.0</ele><time>2026-05-02T11:58:36.974Z</time></trkpt><trkpt lat="43.2156431" lon="12.702579"><ele>404.0</ele><time>2026-05-02T11:58:37.987Z</time></trkpt><trkpt lat="43.2155097" lon="12.7026445"><ele>404.75</ele><time>2026-05-02T11:58:38.973Z</time></trkpt><trkpt lat="43.2153831" lon="12.7027063"><ele>405.5</ele><time>2026-05-02T11:58:39.987Z</time></trkpt><trkpt lat="43.2152744" lon="12.7027559"><ele>406.25</ele><time>2026-05-02T11:58:40.974Z</time></trkpt><trkpt lat="43.2151784" lon="12.7028148"><ele>407.0</ele><time>2026-05-02T11:58:41.972Z</time></trkpt><trkpt lat="43.2150775" lon="12.7028993"><ele>407.0</ele><time>2026-05-02T11:58:42.964Z</time></trkpt><trkpt lat="43.2149873" lon="12.7030099"><ele>407.0</ele><time>2026-05-02T11:58:43.959Z</time></trkpt><trkpt lat="43.2148889" lon="12.7031404"><ele>407.0</ele><time>2026-05-02T11:58:44.962Z</time></trkpt><trkpt lat="43.2147969" lon="12.7032566"><ele>407.0</ele><time>2026-05-02T11:58:45.963Z</time></trkpt><trkpt lat="43.2147073" lon="12.7033523"><ele>405.6</ele><time>2026-05-02T11:58:46.975Z</time></trkpt><trkpt lat="43.2146216" lon="12.7034234"><ele>404.20000000000005</ele><time>2026-05-02T11:58:47.974Z</time></trkpt><trkpt lat="43.2145343" lon="12.7034762"><ele>402.8</ele><time>2026-05-02T11:58:48.974Z</time></trkpt><trkpt lat="43.2144553" lon="12.7035197"><ele>401.4</ele><time>2026-05-02T11:58:49.966Z</time></trkpt><trkpt lat="43.214375" lon="12.7035434"><ele>400.0</ele><time>2026-05-02T11:58:50.964Z</time></trkpt><trkpt lat="43.2142796" lon="12.7035673"><ele>402.75</ele><time>2026-05-02T11:58:51.982Z</time></trkpt><trkpt lat="43.2141638" lon="12.7035927"><ele>405.5</ele><time>2026-05-02T11:58:52.968Z</time></trkpt><trkpt lat="43.2140471" lon="12.7036181"><ele>408.25</ele><time>2026-05-02T11:58:53.968Z</time></trkpt><trkpt lat="43.2139218" lon="12.7036257"><ele>411.0</ele><time>2026-05-02T11:58:54.968Z</time></trkpt><trkpt lat="43.2137972" lon="12.7036315"><ele>411.75</ele><time>2026-05-02T11:58:55.969Z</time></trkpt><trkpt lat="43.21367" lon="12.7036456"><ele>412.5</ele><time>2026-05-02T11:58:56.966Z</time></trkpt><trkpt lat="43.2135397" lon="12.7036625"><ele>413.25</ele><time>2026-05-02T11:58:57.972Z</time></trkpt><trkpt lat="43.2134277" lon="12.7036805"><ele>414.0</ele><time>2026-05-02T11:58:58.974Z</time></trkpt><trkpt lat="43.2133198" lon="12.7036835"><ele>414.0</ele><time>2026-05-02T11:58:59.97Z</time></trkpt><trkpt lat="43.213222" lon="12.7036855"><ele>414.0</ele><time>2026-05-02T11:59:00.961Z</time></trkpt><trkpt lat="43.2131307" lon="12.7036948"><ele>414.0</ele><time>2026-05-02T11:59:01.962Z</time></trkpt><trkpt lat="43.2130308" lon="12.7037372"><ele>414.0</ele><time>2026-05-02T11:59:02.968Z</time></trkpt><trkpt lat="43.2129299" lon="12.7038071"><ele>414.0</ele><time>2026-05-02T11:59:03.974Z</time></trkpt><trkpt lat="43.2128309" lon="12.7039072"><ele>412.75</ele><time>2026-05-02T11:59:04.963Z</time></trkpt><trkpt lat="43.2127342" lon="12.704027"><ele>411.5</ele><time>2026-05-02T11:59:05.969Z</time></trkpt><trkpt lat="43.2126247" lon="12.7041567"><ele>410.25</ele><time>2026-05-02T11:59:06.965Z</time></trkpt><trkpt lat="43.2125024" lon="12.7042962"><ele>409.0</ele><time>2026-05-02T11:59:07.968Z</time></trkpt><trkpt lat="43.2123741" lon="12.704444"><ele>410.25</ele><time>2026-05-02T11:59:08.989Z</time></trkpt><trkpt lat="43.2122509" lon="12.7045822"><ele>411.5</ele><time>2026-05-02T11:59:09.974Z</time></trkpt><trkpt lat="43.2121346" lon="12.704704"><ele>412.75</ele><time>2026-05-02T11:59:10.971Z</time></trkpt><trkpt lat="43.2120295" lon="12.7048224"><ele>414.0</ele><time>2026-05-02T11:59:11.96Z</time></trkpt><trkpt lat="43.21193" lon="12.7049253"><ele>414.0</ele><time>2026-05-02T11:59:12.968Z</time></trkpt><trkpt lat="43.2118325" lon="12.7050054"><ele>414.0</ele><time>2026-05-02T11:59:13.969Z</time></trkpt><trkpt lat="43.2117341" lon="12.7050743"><ele>414.0</ele><time>2026-05-02T11:59:14.967Z</time></trkpt><trkpt lat="43.2116239" lon="12.7051291"><ele>414.0</ele><time>2026-05-02T11:59:15.961Z</time></trkpt><trkpt lat="43.2115123" lon="12.7051696"><ele>414.4</ele><time>2026-05-02T11:59:16.967Z</time></trkpt><trkpt lat="43.2114013" lon="12.7051745"><ele>414.79999999999995</ele><time>2026-05-02T11:59:17.96Z</time></trkpt><trkpt lat="43.211289" lon="12.7051577"><ele>415.20000000000005</ele><time>2026-05-02T11:59:18.978Z</time></trkpt><trkpt lat="43.211181" lon="12.7051132"><ele>415.6</ele><time>2026-05-02T11:59:19.974Z</time></trkpt><trkpt lat="43.2110791" lon="12.705052"><ele>416.0</ele><time>2026-05-02T11:59:20.962Z</time></trkpt><trkpt lat="43.2109716" lon="12.7049611"><ele>416.0</ele><time>2026-05-02T11:59:21.972Z</time></trkpt><trkpt lat="43.2108465" lon="12.7048518"><ele>416.0</ele><time>2026-05-02T11:59:22.982Z</time></trkpt><trkpt lat="43.2107115" lon="12.7047292"><ele>416.0</ele><time>2026-05-02T11:59:23.974Z</time></trkpt><trkpt lat="43.2105759" lon="12.7046163"><ele>417.0</ele><time>2026-05-02T11:59:24.969Z</time></trkpt><trkpt lat="43.2104375" lon="12.7045166"><ele>418.0</ele><time>2026-05-02T11:59:25.97Z</time></trkpt><trkpt lat="43.2103121" lon="12.7044181"><ele>419.0</ele><time>2026-05-02T11:59:26.97Z</time></trkpt><trkpt lat="43.2102114" lon="12.7043275"><ele>420.0</ele><time>2026-05-02T11:59:27.978Z</time></trkpt><trkpt lat="43.2101265" lon="12.7042528"><ele>420.0</ele><time>2026-05-02T11:59:28.974Z</time></trkpt><trkpt lat="43.210041" lon="12.7042092"><ele>420.0</ele><time>2026-05-02T11:59:29.974Z</time></trkpt><trkpt lat="43.2099537" lon="12.7041714"><ele>420.0</ele><time>2026-05-02T11:59:30.98Z</time></trkpt><trkpt lat="43.2098641" lon="12.7041139"><ele>420.0</ele><time>2026-05-02T11:59:31.978Z</time></trkpt><trkpt lat="43.2097679" lon="12.7040516"><ele>420.0</ele><time>2026-05-02T11:59:32.98Z</time></trkpt><trkpt lat="43.2096753" lon="12.7040107"><ele>421.1666666666667</ele><time>2026-05-02T11:59:33.981Z</time></trkpt><trkpt lat="43.2095881" lon="12.7039921"><ele>422.33333333333337</ele><time>2026-05-02T11:59:34.994Z</time></trkpt><trkpt lat="43.2095033" lon="12.703976"><ele>423.5</ele><time>2026-05-02T11:59:35.971Z</time></trkpt><trkpt lat="43.2094306" lon="12.7039723"><ele>424.6666666666667</ele><time>2026-05-02T11:59:36.966Z</time></trkpt><trkpt lat="43.2093527" lon="12.7039802"><ele>425.83333333333337</ele><time>2026-05-02T11:59:37.986Z</time></trkpt><trkpt lat="43.2092766" lon="12.704009"><ele>427.0</ele><time>2026-05-02T11:59:38.973Z</time></trkpt><trkpt lat="43.2092053" lon="12.7040614"><ele>427.00000000000006</ele><time>2026-05-02T11:59:39.964Z</time></trkpt><trkpt lat="43.2091271" lon="12.7041257"><ele>427.0</ele><time>2026-05-02T11:59:40.964Z</time></trkpt><trkpt lat="43.2090553" lon="12.7041885"><ele>427.0</ele><time>2026-05-02T11:59:41.963Z</time></trkpt><trkpt lat="43.2089837" lon="12.7042358"><ele>427.0</ele><time>2026-05-02T11:59:42.965Z</time></trkpt><trkpt lat="43.2089" lon="12.7042552"><ele>427.00000000000006</ele><time>2026-05-02T11:59:43.962Z</time></trkpt><trkpt lat="43.2088102" lon="12.7042713"><ele>427.0</ele><time>2026-05-02T11:59:44.965Z</time></trkpt><trkpt lat="43.2087145" lon="12.7042637"><ele>428.40000000000003</ele><time>2026-05-02T11:59:45.973Z</time></trkpt><trkpt lat="43.2086128" lon="12.7042641"><ele>429.80000000000007</ele><time>2026-05-02T11:59:46.97Z</time></trkpt><trkpt lat="43.2085103" lon="12.7042888"><ele>431.2</ele><time>2026-05-02T11:59:47.97Z</time></trkpt><trkpt lat="43.2083998" lon="12.7043075"><ele>432.6</ele><time>2026-05-02T11:59:48.965Z</time></trkpt><trkpt lat="43.2082809" lon="12.7043223"><ele>434.0</ele><time>2026-05-02T11:59:49.978Z</time></trkpt><trkpt lat="43.2081664" lon="12.704314"><ele>436.6</ele><time>2026-05-02T11:59:50.985Z</time></trkpt><trkpt lat="43.2080623" lon="12.7042776"><ele>439.2</ele><time>2026-05-02T11:59:51.981Z</time></trkpt><trkpt lat="43.2079614" lon="12.704234"><ele>441.80000000000007</ele><time>2026-05-02T11:59:52.974Z</time></trkpt><trkpt lat="43.207874" lon="12.7041835"><ele>444.40000000000003</ele><time>2026-05-02T11:59:53.986Z</time></trkpt><trkpt lat="43.2077867" lon="12.7041361"><ele>447.0</ele><time>2026-05-02T11:59:54.982Z</time></trkpt><trkpt lat="43.207701" lon="12.7040777"><ele>447.0</ele><time>2026-05-02T11:59:55.973Z</time></trkpt><trkpt lat="43.2076294" lon="12.7040217"><ele>447.00000000000006</ele><time>2026-05-02T11:59:56.981Z</time></trkpt><trkpt lat="43.2075339" lon="12.7039975"><ele>447.00000000000006</ele><time>2026-05-02T11:59:58.974Z</time></trkpt><trkpt lat="43.2074889" lon="12.704059"><ele>447.0</ele><time>2026-05-02T12:00:00.965Z</time></trkpt><trkpt lat="43.2074546" lon="12.7042087"><ele>447.0</ele><time>2026-05-02T12:00:10.966Z</time></trkpt><trkpt lat="43.2074246" lon="12.7043756"><ele>449.0</ele><time>2026-05-02T12:00:12.969Z</time></trkpt><trkpt lat="43.2074207" lon="12.7045468"><ele>451.0</ele><time>2026-05-02T12:00:14.965Z</time></trkpt><trkpt lat="43.2074318" lon="12.704635"><ele>453.0</ele><time>2026-05-02T12:00:15.969Z</time></trkpt><trkpt lat="43.2074531" lon="12.7047344"><ele>455.0</ele><time>2026-05-02T12:00:16.963Z</time></trkpt><trkpt lat="43.2074795" lon="12.7048411"><ele>457.0</ele><time>2026-05-02T12:00:17.959Z</time></trkpt><trkpt lat="43.2075148" lon="12.7049417"><ele>459.0</ele><time>2026-05-02T12:00:18.967Z</time></trkpt><trkpt lat="43.2075739" lon="12.7050268"><ele>459.0</ele><time>2026-05-02T12:00:19.972Z</time></trkpt><trkpt lat="43.2076488" lon="12.7051075"><ele>459.0</ele><time>2026-05-02T12:00:20.959Z</time></trkpt><trkpt lat="43.2077411" lon="12.7051846"><ele>459.0</ele><time>2026-05-02T12:00:21.976Z</time></trkpt><trkpt lat="43.207843" lon="12.7052327"><ele>459.0</ele><time>2026-05-02T12:00:22.976Z</time></trkpt><trkpt lat="43.2079449" lon="12.7052687"><ele>459.0</ele><time>2026-05-02T12:00:23.983Z</time></trkpt><trkpt lat="43.2080467" lon="12.7053086"><ele>461.4</ele><time>2026-05-02T12:00:24.966Z</time></trkpt><trkpt lat="43.2081307" lon="12.7053477"><ele>463.79999999999995</ele><time>2026-05-02T12:00:25.965Z</time></trkpt><trkpt lat="43.2082147" lon="12.7053933"><ele>466.20000000000005</ele><time>2026-05-02T12:00:26.967Z</time></trkpt><trkpt lat="43.2083061" lon="12.705454"><ele>468.6</ele><time>2026-05-02T12:00:27.977Z</time></trkpt><trkpt lat="43.2083998" lon="12.7055251"><ele>471.0</ele><time>2026-05-02T12:00:28.964Z</time></trkpt><trkpt lat="43.2084776" lon="12.7056005"><ele>471.0</ele><time>2026-05-02T12:00:29.969Z</time></trkpt><trkpt lat="43.2085407" lon="12.7056669"><ele>471.0</ele><time>2026-05-02T12:00:30.965Z</time></trkpt><trkpt lat="43.2086142" lon="12.7057918"><ele>471.0</ele><time>2026-05-02T12:00:32.972Z</time></trkpt><trkpt lat="43.2086524" lon="12.7059511"><ele>471.0</ele><time>2026-05-02T12:00:34.97Z</time></trkpt><trkpt lat="43.2086709" lon="12.7060496"><ele>471.0</ele><time>2026-05-02T12:00:35.971Z</time></trkpt><trkpt lat="43.2086831" lon="12.7061507"><ele>473.4</ele><time>2026-05-02T12:00:36.971Z</time></trkpt><trkpt lat="43.2086863" lon="12.7062435"><ele>475.8</ele><time>2026-05-02T12:00:37.977Z</time></trkpt><trkpt lat="43.2086679" lon="12.7063869"><ele>478.19999999999993</ele><time>2026-05-02T12:00:39.968Z</time></trkpt><trkpt lat="43.2086254" lon="12.7065185"><ele>480.59999999999997</ele><time>2026-05-02T12:00:41.974Z</time></trkpt><trkpt lat="43.2085476" lon="12.7066153"><ele>483.0</ele><time>2026-05-02T12:00:43.98Z</time></trkpt><trkpt lat="43.208426" lon="12.7066818"><ele>483.0</ele><time>2026-05-02T12:00:45.965Z</time></trkpt><trkpt lat="43.2083437" lon="12.7067047"><ele>483.0</ele><time>2026-05-02T12:00:46.986Z</time></trkpt><trkpt lat="43.2082632" lon="12.7067372"><ele>483.0</ele><time>2026-05-02T12:00:47.973Z</time></trkpt><trkpt lat="43.2081976" lon="12.7067505"><ele>483.0</ele><time>2026-05-02T12:00:48.978Z</time></trkpt><trkpt lat="43.2080737" lon="12.7067065"><ele>483.0</ele><time>2026-05-02T12:00:50.983Z</time></trkpt><trkpt lat="43.2080157" lon="12.7066596"><ele>483.0</ele><time>2026-05-02T12:00:51.975Z</time></trkpt><trkpt lat="43.207958" lon="12.7065829"><ele>484.6666666666667</ele><time>2026-05-02T12:00:52.972Z</time></trkpt><trkpt lat="43.2078991" lon="12.7065073"><ele>486.33333333333337</ele><time>2026-05-02T12:00:53.976Z</time></trkpt><trkpt lat="43.2078277" lon="12.7064434"><ele>488.0</ele><time>2026-05-02T12:00:54.966Z</time></trkpt><trkpt lat="43.2077422" lon="12.7063951"><ele>489.6666666666667</ele><time>2026-05-02T12:00:55.974Z</time></trkpt><trkpt lat="43.2076559" lon="12.7063655"><ele>491.33333333333337</ele><time>2026-05-02T12:00:56.984Z</time></trkpt><trkpt lat="43.2075713" lon="12.7063465"><ele>493.0</ele><time>2026-05-02T12:00:57.972Z</time></trkpt><trkpt lat="43.2074821" lon="12.706349"><ele>493.00000000000006</ele><time>2026-05-02T12:00:58.975Z</time></trkpt><trkpt lat="43.207392" lon="12.7063558"><ele>493.0</ele><time>2026-05-02T12:00:59.961Z</time></trkpt><trkpt lat="43.2073022" lon="12.7063667"><ele>493.0</ele><time>2026-05-02T12:01:00.975Z</time></trkpt><trkpt lat="43.2072381" lon="12.7063945"><ele>493.0</ele><time>2026-05-02T12:01:01.971Z</time></trkpt><trkpt lat="43.2071844" lon="12.7064497"><ele>493.00000000000006</ele><time>2026-05-02T12:01:02.987Z</time></trkpt><trkpt lat="43.207135" lon="12.7065175"><ele>493.0</ele><time>2026-05-02T12:01:03.972Z</time></trkpt><trkpt lat="43.2070908" lon="12.7065917"><ele>495.4</ele><time>2026-05-02T12:01:04.979Z</time></trkpt><trkpt lat="43.2070522" lon="12.7066795"><ele>497.79999999999995</ele><time>2026-05-02T12:01:05.976Z</time></trkpt><trkpt lat="43.2070106" lon="12.7067722"><ele>500.2</ele><time>2026-05-02T12:01:06.972Z</time></trkpt><trkpt lat="43.2069707" lon="12.7068654"><ele>502.6</ele><time>2026-05-02T12:01:07.963Z</time></trkpt><trkpt lat="43.2068907" lon="12.7069941"><ele>505.0</ele><time>2026-05-02T12:01:09.981Z</time></trkpt><trkpt lat="43.2068008" lon="12.7070647"><ele>506.4</ele><time>2026-05-02T12:01:11.977Z</time></trkpt><trkpt lat="43.2066755" lon="12.7071038"><ele>507.8</ele><time>2026-05-02T12:01:13.968Z</time></trkpt><trkpt lat="43.2066193" lon="12.707153"><ele>509.20000000000005</ele><time>2026-05-02T12:01:14.97Z</time></trkpt><trkpt lat="43.2065432" lon="12.7072733"><ele>510.6</ele><time>2026-05-02T12:01:16.969Z</time></trkpt><trkpt lat="43.2064788" lon="12.7074264"><ele>512.0</ele><time>2026-05-02T12:01:18.97Z</time></trkpt><trkpt lat="43.2064533" lon="12.707514"><ele>511.99999999999994</ele><time>2026-05-02T12:01:19.965Z</time></trkpt><trkpt lat="43.2064429" lon="12.7076027"><ele>512.0</ele><time>2026-05-02T12:01:20.982Z</time></trkpt><trkpt lat="43.2064342" lon="12.7077446"><ele>512.0</ele><time>2026-05-02T12:01:22.979Z</time></trkpt><trkpt lat="43.2064257" lon="12.7078344"><ele>512.0</ele><time>2026-05-02T12:01:23.972Z</time></trkpt><trkpt lat="43.2064254" lon="12.7079338"><ele>511.99999999999994</ele><time>2026-05-02T12:01:24.97Z</time></trkpt><trkpt lat="43.206425" lon="12.7080305"><ele>512.0</ele><time>2026-05-02T12:01:25.963Z</time></trkpt><trkpt lat="43.2064318" lon="12.7081404"><ele>513.8333333333333</ele><time>2026-05-02T12:01:26.964Z</time></trkpt><trkpt lat="43.2064464" lon="12.7082468"><ele>515.6666666666666</ele><time>2026-05-02T12:01:27.962Z</time></trkpt><trkpt lat="43.2064633" lon="12.7083615"><ele>517.5</ele><time>2026-05-02T12:01:28.97Z</time></trkpt><trkpt lat="43.2064776" lon="12.708487"><ele>519.3333333333334</ele><time>2026-05-02T12:01:29.962Z</time></trkpt><trkpt lat="43.2064992" lon="12.7086135"><ele>521.1666666666667</ele><time>2026-05-02T12:01:30.971Z</time></trkpt><trkpt lat="43.2065188" lon="12.7087343"><ele>523.0</ele><time>2026-05-02T12:01:31.963Z</time></trkpt><trkpt lat="43.2065352" lon="12.7088303"><ele>527.4</ele><time>2026-05-02T12:01:32.973Z</time></trkpt><trkpt lat="43.206551" lon="12.7089208"><ele>531.8</ele><time>2026-05-02T12:01:33.986Z</time></trkpt><trkpt lat="43.206575" lon="12.7090084"><ele>536.2</ele><time>2026-05-02T12:01:34.969Z</time></trkpt><trkpt lat="43.2066265" lon="12.7091681"><ele>540.6</ele><time>2026-05-02T12:01:36.973Z</time></trkpt><trkpt lat="43.2067086" lon="12.7092986"><ele>545.0</ele><time>2026-05-02T12:01:38.969Z</time></trkpt><trkpt lat="43.2068247" lon="12.7093989"><ele>547.6</ele><time>2026-05-02T12:01:40.981Z</time></trkpt><trkpt lat="43.2069123" lon="12.7094532"><ele>550.2</ele><time>2026-05-02T12:01:41.97Z</time></trkpt><trkpt lat="43.2069972" lon="12.7095146"><ele>552.8</ele><time>2026-05-02T12:01:42.955Z</time></trkpt><trkpt lat="43.20707" lon="12.7095593"><ele>555.4</ele><time>2026-05-02T12:01:43.968Z</time></trkpt><trkpt lat="43.207171" lon="12.7096163"><ele>558.0</ele><time>2026-05-02T12:01:45.962Z</time></trkpt><trkpt lat="43.2072369" lon="12.7096646"><ele>558.0</ele><time>2026-05-02T12:01:47.966Z</time></trkpt><trkpt lat="43.2072772" lon="12.709769"><ele>558.0</ele><time>2026-05-02T12:02:00.963Z</time></trkpt><trkpt lat="43.207292" lon="12.7099543"><ele>558.0</ele><time>2026-05-02T12:02:02.969Z</time></trkpt><trkpt lat="43.2072714" lon="12.7100669"><ele>558.0</ele><time>2026-05-02T12:02:03.968Z</time></trkpt><trkpt lat="43.2072293" lon="12.7101788"><ele>558.0</ele><time>2026-05-02T12:02:04.97Z</time></trkpt><trkpt lat="43.2071657" lon="12.7102741"><ele>561.1666666666666</ele><time>2026-05-02T12:02:05.963Z</time></trkpt><trkpt lat="43.2070985" lon="12.7103466"><ele>564.3333333333334</ele><time>2026-05-02T12:02:06.971Z</time></trkpt><trkpt lat="43.2070211" lon="12.7103766"><ele>567.5</ele><time>2026-05-02T12:02:07.959Z</time></trkpt><trkpt lat="43.2069468" lon="12.7103787"><ele>570.6666666666667</ele><time>2026-05-02T12:02:08.967Z</time></trkpt><trkpt lat="43.2068592" lon="12.710365"><ele>573.8333333333334</ele><time>2026-05-02T12:02:09.977Z</time></trkpt><trkpt lat="43.2067564" lon="12.7103486"><ele>577.0</ele><time>2026-05-02T12:02:10.973Z</time></trkpt><trkpt lat="43.2066438" lon="12.7103421"><ele>577.0</ele><time>2026-05-02T12:02:11.971Z</time></trkpt><trkpt lat="43.206522" lon="12.7103302"><ele>577.0</ele><time>2026-05-02T12:02:12.966Z</time></trkpt><trkpt lat="43.2063925" lon="12.7103052"><ele>577.0</ele><time>2026-05-02T12:02:13.968Z</time></trkpt><trkpt lat="43.206277" lon="12.7102818"><ele>577.0</ele><time>2026-05-02T12:02:14.97Z</time></trkpt><trkpt lat="43.2061731" lon="12.7102576"><ele>575.6666666666667</ele><time>2026-05-02T12:02:15.979Z</time></trkpt><trkpt lat="43.206092" lon="12.7102567"><ele>574.3333333333334</ele><time>2026-05-02T12:02:16.981Z</time></trkpt><trkpt lat="43.2060352" lon="12.7103335"><ele>573.0</ele><time>2026-05-02T12:02:18.971Z</time></trkpt><trkpt lat="43.2060411" lon="12.7104517"><ele>571.6666666666666</ele><time>2026-05-02T12:02:20.983Z</time></trkpt><trkpt lat="43.2060735" lon="12.710593"><ele>570.3333333333333</ele><time>2026-05-02T12:02:22.989Z</time></trkpt><trkpt lat="43.2060439" lon="12.7106733"><ele>569.0</ele><time>2026-05-02T12:02:23.973Z</time></trkpt><trkpt lat="43.2059991" lon="12.7107661"><ele>569.0</ele><time>2026-05-02T12:02:24.976Z</time></trkpt><trkpt lat="43.205957" lon="12.7108601"><ele>569.0</ele><time>2026-05-02T12:02:25.973Z</time></trkpt><trkpt lat="43.20592" lon="12.7109573"><ele>569.0</ele><time>2026-05-02T12:02:26.971Z</time></trkpt><trkpt lat="43.205891" lon="12.7110582"><ele>569.0</ele><time>2026-05-02T12:02:27.976Z</time></trkpt><trkpt lat="43.2058813" lon="12.7111649"><ele>569.0</ele><time>2026-05-02T12:02:28.973Z</time></trkpt><trkpt lat="43.20589" lon="12.711279"><ele>569.0</ele><time>2026-05-02T12:02:29.968Z</time></trkpt><trkpt lat="43.205906" lon="12.7113935"><ele>571.3333333333333</ele><time>2026-05-02T12:02:30.967Z</time></trkpt><trkpt lat="43.2059281" lon="12.7115043"><ele>573.6666666666666</ele><time>2026-05-02T12:02:31.975Z</time></trkpt><trkpt lat="43.2059572" lon="12.7116064"><ele>576.0</ele><time>2026-05-02T12:02:32.973Z</time></trkpt><trkpt lat="43.2060034" lon="12.7117163"><ele>578.3333333333334</ele><time>2026-05-02T12:02:33.974Z</time></trkpt><trkpt lat="43.206061" lon="12.7118224"><ele>580.6666666666667</ele><time>2026-05-02T12:02:34.971Z</time></trkpt><trkpt lat="43.2061221" lon="12.7119195"><ele>583.0</ele><time>2026-05-02T12:02:35.968Z</time></trkpt><trkpt lat="43.2061809" lon="12.711998"><ele>585.4</ele><time>2026-05-02T12:02:36.968Z</time></trkpt><trkpt lat="43.2062666" lon="12.7120943"><ele>587.8</ele><time>2026-05-02T12:02:38.972Z</time></trkpt><trkpt lat="43.2063237" lon="12.7121536"><ele>590.2</ele><time>2026-05-02T12:02:41.975Z</time></trkpt><trkpt lat="43.206384" lon="12.7122431"><ele>592.6</ele><time>2026-05-02T12:02:44.972Z</time></trkpt><trkpt lat="43.2064624" lon="12.7123502"><ele>595.0</ele><time>2026-05-02T12:02:46.964Z</time></trkpt><trkpt lat="43.2065104" lon="12.7124167"><ele>595.3333333333334</ele><time>2026-05-02T12:02:47.964Z</time></trkpt><trkpt lat="43.2065581" lon="12.7124843"><ele>595.6666666666667</ele><time>2026-05-02T12:02:48.963Z</time></trkpt><trkpt lat="43.2066104" lon="12.7125655"><ele>596.0</ele><time>2026-05-02T12:02:49.972Z</time></trkpt><trkpt lat="43.2066538" lon="12.7126596"><ele>596.3333333333334</ele><time>2026-05-02T12:02:50.971Z</time></trkpt><trkpt lat="43.2066917" lon="12.7127604"><ele>596.6666666666666</ele><time>2026-05-02T12:02:51.963Z</time></trkpt><trkpt lat="43.2067316" lon="12.7128653"><ele>597.0</ele><time>2026-05-02T12:02:52.969Z</time></trkpt><trkpt lat="43.2067873" lon="12.7129832"><ele>599.2</ele><time>2026-05-02T12:02:53.968Z</time></trkpt><trkpt lat="43.206859" lon="12.7131028"><ele>601.4000000000001</ele><time>2026-05-02T12:02:54.967Z</time></trkpt><trkpt lat="43.2069221" lon="12.7132123"><ele>603.5999999999999</ele><time>2026-05-02T12:02:55.972Z</time></trkpt><trkpt lat="43.2069797" lon="12.7133062"><ele>605.8</ele><time>2026-05-02T12:02:56.971Z</time></trkpt><trkpt lat="43.2070332" lon="12.7133934"><ele>608.0</ele><time>2026-05-02T12:02:57.976Z</time></trkpt><trkpt lat="43.2070754" lon="12.7134637"><ele>608.0</ele><time>2026-05-02T12:02:58.975Z</time></trkpt><trkpt lat="43.2071095" lon="12.713542"><ele>608.0</ele><time>2026-05-02T12:02:59.975Z</time></trkpt><trkpt lat="43.2071203" lon="12.7136317"><ele>608.0</ele><time>2026-05-02T12:03:00.967Z</time></trkpt><trkpt lat="43.2070975" lon="12.7137163"><ele>608.0</ele><time>2026-05-02T12:03:01.972Z</time></trkpt><trkpt lat="43.2070555" lon="12.7138001"><ele>608.0</ele><time>2026-05-02T12:03:02.979Z</time></trkpt><trkpt lat="43.206998" lon="12.7138867"><ele>608.0</ele><time>2026-05-02T12:03:03.966Z</time></trkpt><trkpt lat="43.2069162" lon="12.7139758"><ele>609.75</ele><time>2026-05-02T12:03:04.974Z</time></trkpt><trkpt lat="43.2068095" lon="12.7140576"><ele>611.5</ele><time>2026-05-02T12:03:05.974Z</time></trkpt><trkpt lat="43.2066898" lon="12.7141288"><ele>613.25</ele><time>2026-05-02T12:03:06.981Z</time></trkpt><trkpt lat="43.2065731" lon="12.7141928"><ele>615.0</ele><time>2026-05-02T12:03:07.979Z</time></trkpt><trkpt lat="43.2064683" lon="12.7142436"><ele>615.8</ele><time>2026-05-02T12:03:08.986Z</time></trkpt><trkpt lat="43.2063597" lon="12.7142509"><ele>616.6</ele><time>2026-05-02T12:03:09.979Z</time></trkpt><trkpt lat="43.2062562" lon="12.714242"><ele>617.4</ele><time>2026-05-02T12:03:10.974Z</time></trkpt><trkpt lat="43.2061645" lon="12.7142468"><ele>618.2</ele><time>2026-05-02T12:03:11.995Z</time></trkpt><trkpt lat="43.2060817" lon="12.7142823"><ele>619.0</ele><time>2026-05-02T12:03:12.992Z</time></trkpt><trkpt lat="43.206003" lon="12.7143485"><ele>619.4</ele><time>2026-05-02T12:03:13.979Z</time></trkpt><trkpt lat="43.2059305" lon="12.714441"><ele>619.8</ele><time>2026-05-02T12:03:14.971Z</time></trkpt><trkpt lat="43.205836" lon="12.7145609"><ele>620.2</ele><time>2026-05-02T12:03:15.971Z</time></trkpt><trkpt lat="43.2057531" lon="12.7146656"><ele>620.6</ele><time>2026-05-02T12:03:16.983Z</time></trkpt><trkpt lat="43.2056902" lon="12.7147442"><ele>621.0</ele><time>2026-05-02T12:03:17.974Z</time></trkpt><trkpt lat="43.2056421" lon="12.7148056"><ele>621.0</ele><time>2026-05-02T12:03:18.987Z</time></trkpt><trkpt lat="43.2055883" lon="12.7149264"><ele>621.0</ele><time>2026-05-02T12:03:20.976Z</time></trkpt><trkpt lat="43.2056121" lon="12.7150682"><ele>621.0</ele><time>2026-05-02T12:03:22.967Z</time></trkpt><trkpt lat="43.2056703" lon="12.7151594"><ele>621.0</ele><time>2026-05-02T12:03:23.972Z</time></trkpt><trkpt lat="43.2057473" lon="12.7152756"><ele>621.0</ele><time>2026-05-02T12:03:24.984Z</time></trkpt><trkpt lat="43.2058077" lon="12.7153868"><ele>624.75</ele><time>2026-05-02T12:03:25.975Z</time></trkpt><trkpt lat="43.2058512" lon="12.7155329"><ele>628.5</ele><time>2026-05-02T12:03:26.968Z</time></trkpt><trkpt lat="43.2058865" lon="12.7157026"><ele>632.25</ele><time>2026-05-02T12:03:27.968Z</time></trkpt><trkpt lat="43.2059081" lon="12.7158692"><ele>636.0</ele><time>2026-05-02T12:03:28.97Z</time></trkpt><trkpt lat="43.2059181" lon="12.7160176"><ele>637.6666666666666</ele><time>2026-05-02T12:03:29.968Z</time></trkpt><trkpt lat="43.2059061" lon="12.7161483"><ele>639.3333333333334</ele><time>2026-05-02T12:03:30.973Z</time></trkpt><trkpt lat="43.2058824" lon="12.7162757"><ele>641.0</ele><time>2026-05-02T12:03:31.971Z</time></trkpt><trkpt lat="43.2058371" lon="12.7163594"><ele>642.6666666666667</ele><time>2026-05-02T12:03:32.974Z</time></trkpt><trkpt lat="43.2057762" lon="12.7163912"><ele>644.3333333333334</ele><time>2026-05-02T12:03:33.965Z</time></trkpt><trkpt lat="43.2057128" lon="12.7163797"><ele>646.0</ele><time>2026-05-02T12:03:34.972Z</time></trkpt><trkpt lat="43.205622" lon="12.7163673"><ele>648.25</ele><time>2026-05-02T12:03:35.987Z</time></trkpt><trkpt lat="43.2055095" lon="12.7163725"><ele>650.5</ele><time>2026-05-02T12:03:36.977Z</time></trkpt><trkpt lat="43.2053944" lon="12.7164366"><ele>652.75</ele><time>2026-05-02T12:03:37.985Z</time></trkpt><trkpt lat="43.2052764" lon="12.7165259"><ele>655.0</ele><time>2026-05-02T12:03:38.979Z</time></trkpt><trkpt lat="43.2051648" lon="12.716601"><ele>655.0</ele><time>2026-05-02T12:03:39.972Z</time></trkpt><trkpt lat="43.2050597" lon="12.7166716"><ele>655.0</ele><time>2026-05-02T12:03:40.972Z</time></trkpt><trkpt lat="43.2049581" lon="12.7167585"><ele>655.0</ele><time>2026-05-02T12:03:41.972Z</time></trkpt><trkpt lat="43.2048642" lon="12.7168846"><ele>655.0</ele><time>2026-05-02T12:03:42.974Z</time></trkpt><trkpt lat="43.2047749" lon="12.7170382"><ele>654.75</ele><time>2026-05-02T12:03:43.977Z</time></trkpt><trkpt lat="43.2046983" lon="12.7171972"><ele>654.5</ele><time>2026-05-02T12:03:44.97Z</time></trkpt><trkpt lat="43.2046366" lon="12.7173548"><ele>654.25</ele><time>2026-05-02T12:03:45.97Z</time></trkpt><trkpt lat="43.2045841" lon="12.7175552"><ele>654.0</ele><time>2026-05-02T12:03:46.973Z</time></trkpt><trkpt lat="43.2045286" lon="12.7177707"><ele>654.0</ele><time>2026-05-02T12:03:47.967Z</time></trkpt><trkpt lat="43.2044801" lon="12.7179774"><ele>654.0</ele><time>2026-05-02T12:03:48.974Z</time></trkpt><trkpt lat="43.2044425" lon="12.7181596"><ele>654.0</ele><time>2026-05-02T12:03:49.967Z</time></trkpt><trkpt lat="43.2044224" lon="12.7183194"><ele>654.0</ele><time>2026-05-02T12:03:50.989Z</time></trkpt><trkpt lat="43.2044252" lon="12.7184524"><ele>653.1666666666666</ele><time>2026-05-02T12:03:51.97Z</time></trkpt><trkpt lat="43.2044415" lon="12.7185706"><ele>652.3333333333334</ele><time>2026-05-02T12:03:52.973Z</time></trkpt><trkpt lat="43.2044596" lon="12.7186855"><ele>651.5</ele><time>2026-05-02T12:03:53.97Z</time></trkpt><trkpt lat="43.2044821" lon="12.7187954"><ele>650.6666666666667</ele><time>2026-05-02T12:03:54.964Z</time></trkpt><trkpt lat="43.204512" lon="12.718887"><ele>649.8333333333334</ele><time>2026-05-02T12:03:55.975Z</time></trkpt><trkpt lat="43.2045441" lon="12.7189779"><ele>649.0</ele><time>2026-05-02T12:03:56.967Z</time></trkpt><trkpt lat="43.2045727" lon="12.7190553"><ele>649.0</ele><time>2026-05-02T12:03:57.975Z</time></trkpt><trkpt lat="43.2046121" lon="12.7191384"><ele>649.0</ele><time>2026-05-02T12:03:58.961Z</time></trkpt><trkpt lat="43.2046505" lon="12.719251"><ele>649.0</ele><time>2026-05-02T12:03:59.965Z</time></trkpt><trkpt lat="43.2046942" lon="12.719419"><ele>649.0</ele><time>2026-05-02T12:04:00.966Z</time></trkpt><trkpt lat="43.2047399" lon="12.7196034"><ele>649.0</ele><time>2026-05-02T12:04:01.97Z</time></trkpt><trkpt lat="43.204777" lon="12.7197943"><ele>647.75</ele><time>2026-05-02T12:04:02.97Z</time></trkpt><trkpt lat="43.2048147" lon="12.7199787"><ele>646.5</ele><time>2026-05-02T12:04:03.965Z</time></trkpt><trkpt lat="43.204846" lon="12.7201626"><ele>645.25</ele><time>2026-05-02T12:04:04.977Z</time></trkpt><trkpt lat="43.2048685" lon="12.7203322"><ele>644.0</ele><time>2026-05-02T12:04:05.971Z</time></trkpt><trkpt lat="43.2048929" lon="12.7204794"><ele>644.6666666666666</ele><time>2026-05-02T12:04:06.975Z</time></trkpt><trkpt lat="43.2049079" lon="12.7206132"><ele>645.3333333333333</ele><time>2026-05-02T12:04:07.97Z</time></trkpt><trkpt lat="43.2049192" lon="12.7207432"><ele>646.0</ele><time>2026-05-02T12:04:08.971Z</time></trkpt><trkpt lat="43.2049188" lon="12.7208641"><ele>646.6666666666666</ele><time>2026-05-02T12:04:09.973Z</time></trkpt><trkpt lat="43.2049029" lon="12.7209755"><ele>647.3333333333334</ele><time>2026-05-02T12:04:10.966Z</time></trkpt><trkpt lat="43.2048809" lon="12.7210753"><ele>648.0</ele><time>2026-05-02T12:04:11.963Z</time></trkpt><trkpt lat="43.2048571" lon="12.7211579"><ele>645.1999999999999</ele><time>2026-05-02T12:04:12.958Z</time></trkpt><trkpt lat="43.2047867" lon="12.7212641"><ele>642.4</ele><time>2026-05-02T12:04:14.967Z</time></trkpt><trkpt lat="43.2046849" lon="12.7212861"><ele>639.5999999999999</ele><time>2026-05-02T12:04:16.968Z</time></trkpt><trkpt lat="43.2046678" lon="12.7214268"><ele>636.8</ele><time>2026-05-02T12:04:18.958Z</time></trkpt><trkpt lat="43.2047129" lon="12.7215198"><ele>634.0</ele><time>2026-05-02T12:04:19.965Z</time></trkpt><trkpt lat="43.2047762" lon="12.7216186"><ele>635.0</ele><time>2026-05-02T12:04:20.972Z</time></trkpt><trkpt lat="43.2048662" lon="12.7217303"><ele>636.0</ele><time>2026-05-02T12:04:21.967Z</time></trkpt><trkpt lat="43.2049721" lon="12.7218457"><ele>637.0</ele><time>2026-05-02T12:04:22.98Z</time></trkpt><trkpt lat="43.2050778" lon="12.7219626"><ele>638.0</ele><time>2026-05-02T12:04:23.969Z</time></trkpt><trkpt lat="43.2051791" lon="12.7220564"><ele>638.0</ele><time>2026-05-02T12:04:24.957Z</time></trkpt><trkpt lat="43.205265" lon="12.7221405"><ele>638.0</ele><time>2026-05-02T12:04:25.971Z</time></trkpt><trkpt lat="43.2053395" lon="12.7222365"><ele>638.0</ele><time>2026-05-02T12:04:26.966Z</time></trkpt><trkpt lat="43.2054074" lon="12.7223354"><ele>638.0</ele><time>2026-05-02T12:04:27.969Z</time></trkpt><trkpt lat="43.2054735" lon="12.7224522"><ele>638.0</ele><time>2026-05-02T12:04:28.962Z</time></trkpt><trkpt lat="43.205538" lon="12.7225985"><ele>638.1999999999999</ele><time>2026-05-02T12:04:29.971Z</time></trkpt><trkpt lat="43.2055979" lon="12.7227512"><ele>638.4</ele><time>2026-05-02T12:04:30.959Z</time></trkpt><trkpt lat="43.2056506" lon="12.722894"><ele>638.5999999999999</ele><time>2026-05-02T12:04:31.97Z</time></trkpt><trkpt lat="43.2056934" lon="12.7230264"><ele>638.8</ele><time>2026-05-02T12:04:32.986Z</time></trkpt><trkpt lat="43.2057238" lon="12.7231458"><ele>639.0</ele><time>2026-05-02T12:04:33.97Z</time></trkpt><trkpt lat="43.2057393" lon="12.7232392"><ele>639.0</ele><time>2026-05-02T12:04:34.971Z</time></trkpt><trkpt lat="43.2057229" lon="12.7233269"><ele>639.0</ele><time>2026-05-02T12:04:35.973Z</time></trkpt><trkpt lat="43.2056778" lon="12.7233983"><ele>639.0</ele><time>2026-05-02T12:04:36.976Z</time></trkpt><trkpt lat="43.2056196" lon="12.7234645"><ele>639.0</ele><time>2026-05-02T12:04:37.966Z</time></trkpt><trkpt lat="43.2055378" lon="12.7235242"><ele>639.0</ele><time>2026-05-02T12:04:38.969Z</time></trkpt><trkpt lat="43.20544" lon="12.7235839"><ele>639.0</ele><time>2026-05-02T12:04:39.988Z</time></trkpt><trkpt lat="43.2053629" lon="12.7236721"><ele>640.4</ele><time>2026-05-02T12:04:40.969Z</time></trkpt><trkpt lat="43.2052981" lon="12.7237758"><ele>641.8</ele><time>2026-05-02T12:04:41.974Z</time></trkpt><trkpt lat="43.2052452" lon="12.7238966"><ele>643.1999999999999</ele><time>2026-05-02T12:04:42.981Z</time></trkpt><trkpt lat="43.2052179" lon="12.7240487"><ele>644.5999999999999</ele><time>2026-05-02T12:04:43.987Z</time></trkpt><trkpt lat="43.2052004" lon="12.7242148"><ele>646.0</ele><time>2026-05-02T12:04:44.979Z</time></trkpt><trkpt lat="43.2051962" lon="12.724394"><ele>646.0</ele><time>2026-05-02T12:04:45.973Z</time></trkpt><trkpt lat="43.2052014" lon="12.7245836"><ele>646.0</ele><time>2026-05-02T12:04:46.978Z</time></trkpt><trkpt lat="43.2052048" lon="12.724755"><ele>646.0</ele><time>2026-05-02T12:04:47.964Z</time></trkpt><trkpt lat="43.2052108" lon="12.7249058"><ele>646.0</ele><time>2026-05-02T12:04:48.973Z</time></trkpt><trkpt lat="43.205212" lon="12.7250338"><ele>646.0</ele><time>2026-05-02T12:04:49.971Z</time></trkpt><trkpt lat="43.2052276" lon="12.7251502"><ele>646.0</ele><time>2026-05-02T12:04:50.981Z</time></trkpt><trkpt lat="43.2052541" lon="12.7252591"><ele>646.0</ele><time>2026-05-02T12:04:51.976Z</time></trkpt><trkpt lat="43.2052924" lon="12.7253554"><ele>646.0</ele><time>2026-05-02T12:04:52.973Z</time></trkpt><trkpt lat="43.2053487" lon="12.7254538"><ele>646.0</ele><time>2026-05-02T12:04:53.972Z</time></trkpt><trkpt lat="43.2054127" lon="12.7255459"><ele>646.0</ele><time>2026-05-02T12:04:54.973Z</time></trkpt><trkpt lat="43.2054848" lon="12.7256384"><ele>645.1999999999999</ele><time>2026-05-02T12:04:55.98Z</time></trkpt><trkpt lat="43.205565" lon="12.7257337"><ele>644.4</ele><time>2026-05-02T12:04:56.97Z</time></trkpt><trkpt lat="43.2056469" lon="12.7258258"><ele>643.6</ele><time>2026-05-02T12:04:57.967Z</time></trkpt><trkpt lat="43.2057271" lon="12.7259159"><ele>642.8</ele><time>2026-05-02T12:04:58.972Z</time></trkpt><trkpt lat="43.205791" lon="12.7260073"><ele>642.0</ele><time>2026-05-02T12:04:59.971Z</time></trkpt><trkpt lat="43.2058428" lon="12.72611"><ele>642.0</ele><time>2026-05-02T12:05:00.968Z</time></trkpt><trkpt lat="43.2058926" lon="12.726235"><ele>642.0</ele><time>2026-05-02T12:05:01.966Z</time></trkpt><trkpt lat="43.2059423" lon="12.7263973"><ele>642.0</ele><time>2026-05-02T12:05:02.973Z</time></trkpt><trkpt lat="43.2059925" lon="12.7266"><ele>642.0</ele><time>2026-05-02T12:05:03.965Z</time></trkpt><trkpt lat="43.2060392" lon="12.7268349"><ele>642.3333333333334</ele><time>2026-05-02T12:05:04.965Z</time></trkpt><trkpt lat="43.2060998" lon="12.7270797"><ele>642.6666666666667</ele><time>2026-05-02T12:05:05.963Z</time></trkpt><trkpt lat="43.2061627" lon="12.727317"><ele>643.0</ele><time>2026-05-02T12:05:07.019Z</time></trkpt><trkpt lat="43.206218" lon="12.7275403"><ele>640.0</ele><time>2026-05-02T12:05:07.969Z</time></trkpt><trkpt lat="43.2062834" lon="12.7277528"><ele>637.0</ele><time>2026-05-02T12:05:08.982Z</time></trkpt><trkpt lat="43.206365" lon="12.727959"><ele>634.0</ele><time>2026-05-02T12:05:09.965Z</time></trkpt><trkpt lat="43.206454" lon="12.7281625"><ele>641.0</ele><time>2026-05-02T12:05:10.973Z</time></trkpt><trkpt lat="43.2065551" lon="12.728358"><ele>648.0</ele><time>2026-05-02T12:05:11.969Z</time></trkpt><trkpt lat="43.2066428" lon="12.7285478"><ele>655.0</ele><time>2026-05-02T12:05:12.971Z</time></trkpt><trkpt lat="43.2067187" lon="12.7287301"><ele>655.0</ele><time>2026-05-02T12:05:13.964Z</time></trkpt><trkpt lat="43.2067739" lon="12.7288861"><ele>655.0</ele><time>2026-05-02T12:05:14.972Z</time></trkpt><trkpt lat="43.206846" lon="12.7290234"><ele>655.0</ele><time>2026-05-02T12:05:15.97Z</time></trkpt><trkpt lat="43.2069302" lon="12.7291567"><ele>655.0</ele><time>2026-05-02T12:05:16.973Z</time></trkpt><trkpt lat="43.207045" lon="12.7292981"><ele>652.3333333333334</ele><time>2026-05-02T12:05:17.971Z</time></trkpt><trkpt lat="43.2071648" lon="12.7294707"><ele>649.6666666666666</ele><time>2026-05-02T12:05:18.964Z</time></trkpt><trkpt lat="43.2072881" lon="12.7296678"><ele>647.0</ele><time>2026-05-02T12:05:19.978Z</time></trkpt><trkpt lat="43.2074101" lon="12.7298517"><ele>652.0</ele><time>2026-05-02T12:05:20.975Z</time></trkpt><trkpt lat="43.2075271" lon="12.7300062"><ele>657.0</ele><time>2026-05-02T12:05:21.968Z</time></trkpt><trkpt lat="43.2076317" lon="12.7301397"><ele>662.0</ele><time>2026-05-02T12:05:22.97Z</time></trkpt><trkpt lat="43.2077327" lon="12.7302604"><ele>667.0</ele><time>2026-05-02T12:05:23.966Z</time></trkpt><trkpt lat="43.2078311" lon="12.7303869"><ele>667.5</ele><time>2026-05-02T12:05:24.967Z</time></trkpt><trkpt lat="43.2079336" lon="12.7305139"><ele>668.0</ele><time>2026-05-02T12:05:25.968Z</time></trkpt><trkpt lat="43.2080313" lon="12.7306489"><ele>668.5</ele><time>2026-05-02T12:05:26.966Z</time></trkpt><trkpt lat="43.2081213" lon="12.7307991"><ele>669.0</ele><time>2026-05-02T12:05:27.961Z</time></trkpt><trkpt lat="43.2082129" lon="12.7309359"><ele>669.25</ele><time>2026-05-02T12:05:28.966Z</time></trkpt><trkpt lat="43.2083088" lon="12.7310643"><ele>669.5</ele><time>2026-05-02T12:05:29.963Z</time></trkpt><trkpt lat="43.2084187" lon="12.7311787"><ele>669.75</ele><time>2026-05-02T12:05:30.968Z</time></trkpt><trkpt lat="43.2085293" lon="12.7312852"><ele>670.0</ele><time>2026-05-02T12:05:31.964Z</time></trkpt><trkpt lat="43.2086297" lon="12.7313936"><ele>670.0</ele><time>2026-05-02T12:05:32.966Z</time></trkpt><trkpt lat="43.208721" lon="12.7314987"><ele>670.0</ele><time>2026-05-02T12:05:33.971Z</time></trkpt><trkpt lat="43.2088028" lon="12.731604"><ele>670.0</ele><time>2026-05-02T12:05:34.965Z</time></trkpt><trkpt lat="43.2088792" lon="12.7317251"><ele>670.0</ele><time>2026-05-02T12:05:35.973Z</time></trkpt><trkpt lat="43.2089489" lon="12.7318595"><ele>672.0</ele><time>2026-05-02T12:05:36.965Z</time></trkpt><trkpt lat="43.2090078" lon="12.7320145"><ele>674.0</ele><time>2026-05-02T12:05:37.972Z</time></trkpt><trkpt lat="43.2090635" lon="12.732175"><ele>676.0</ele><time>2026-05-02T12:05:38.972Z</time></trkpt><trkpt lat="43.2091165" lon="12.7323388"><ele>678.0</ele><time>2026-05-02T12:05:39.971Z</time></trkpt><trkpt lat="43.2091763" lon="12.7324879"><ele>678.0</ele><time>2026-05-02T12:05:40.99Z</time></trkpt><trkpt lat="43.2092353" lon="12.732633"><ele>678.0</ele><time>2026-05-02T12:05:41.979Z</time></trkpt><trkpt lat="43.2093109" lon="12.7327754"><ele>678.0</ele><time>2026-05-02T12:05:42.969Z</time></trkpt><trkpt lat="43.2093897" lon="12.7329023"><ele>678.0</ele><time>2026-05-02T12:05:43.969Z</time></trkpt><trkpt lat="43.2094569" lon="12.733019"><ele>677.0</ele><time>2026-05-02T12:05:44.982Z</time></trkpt><trkpt lat="43.2095295" lon="12.7331354"><ele>676.0</ele><time>2026-05-02T12:05:45.971Z</time></trkpt><trkpt lat="43.209609" lon="12.7332414"><ele>675.0</ele><time>2026-05-02T12:05:46.973Z</time></trkpt><trkpt lat="43.2096965" lon="12.733336"><ele>674.0</ele><time>2026-05-02T12:05:47.989Z</time></trkpt><trkpt lat="43.2097751" lon="12.7334255"><ele>673.0</ele><time>2026-05-02T12:05:48.961Z</time></trkpt><trkpt lat="43.2098556" lon="12.7335055"><ele>672.5999999999999</ele><time>2026-05-02T12:05:49.978Z</time></trkpt><trkpt lat="43.2099352" lon="12.7335744"><ele>672.1999999999999</ele><time>2026-05-02T12:05:50.97Z</time></trkpt><trkpt lat="43.2100113" lon="12.733656"><ele>671.8</ele><time>2026-05-02T12:05:51.97Z</time></trkpt><trkpt lat="43.2100778" lon="12.7337784"><ele>671.4</ele><time>2026-05-02T12:05:52.971Z</time></trkpt><trkpt lat="43.2101293" lon="12.7339317"><ele>671.0</ele><time>2026-05-02T12:05:53.97Z</time></trkpt><trkpt lat="43.2101694" lon="12.7341087"><ele>671.0</ele><time>2026-05-02T12:05:54.967Z</time></trkpt><trkpt lat="43.2101927" lon="12.7343026"><ele>671.0</ele><time>2026-05-02T12:05:55.969Z</time></trkpt><trkpt lat="43.2102076" lon="12.7345138"><ele>671.0</ele><time>2026-05-02T12:05:56.965Z</time></trkpt><trkpt lat="43.2102302" lon="12.7347153"><ele>671.0</ele><time>2026-05-02T12:05:57.969Z</time></trkpt><trkpt lat="43.2102617" lon="12.7348873"><ele>671.0</ele><time>2026-05-02T12:05:58.978Z</time></trkpt><trkpt lat="43.2102894" lon="12.7350379"><ele>671.0</ele><time>2026-05-02T12:05:59.968Z</time></trkpt><trkpt lat="43.2103125" lon="12.7351574"><ele>671.0</ele><time>2026-05-02T12:06:00.97Z</time></trkpt><trkpt lat="43.2103279" lon="12.7352889"><ele>671.0</ele><time>2026-05-02T12:06:01.964Z</time></trkpt><trkpt lat="43.2103395" lon="12.735449"><ele>671.0</ele><time>2026-05-02T12:06:02.978Z</time></trkpt><trkpt lat="43.2103677" lon="12.7356294"><ele>673.6666666666666</ele><time>2026-05-02T12:06:03.98Z</time></trkpt><trkpt lat="43.210419" lon="12.7358068"><ele>676.3333333333334</ele><time>2026-05-02T12:06:04.98Z</time></trkpt><trkpt lat="43.2104996" lon="12.7359843"><ele>679.0</ele><time>2026-05-02T12:06:05.972Z</time></trkpt><trkpt lat="43.2105951" lon="12.7361652"><ele>678.5</ele><time>2026-05-02T12:06:06.963Z</time></trkpt><trkpt lat="43.2106987" lon="12.7363258"><ele>678.0</ele><time>2026-05-02T12:06:07.963Z</time></trkpt><trkpt lat="43.2107819" lon="12.7364757"><ele>677.5</ele><time>2026-05-02T12:06:08.969Z</time></trkpt><trkpt lat="43.2108602" lon="12.7366253"><ele>677.0</ele><time>2026-05-02T12:06:09.965Z</time></trkpt><trkpt lat="43.2109205" lon="12.7367793"><ele>678.25</ele><time>2026-05-02T12:06:10.969Z</time></trkpt><trkpt lat="43.2109761" lon="12.7369543"><ele>679.5</ele><time>2026-05-02T12:06:11.97Z</time></trkpt><trkpt lat="43.2110333" lon="12.7371313"><ele>680.75</ele><time>2026-05-02T12:06:12.973Z</time></trkpt><trkpt lat="43.2110987" lon="12.7373147"><ele>682.0</ele><time>2026-05-02T12:06:13.971Z</time></trkpt><trkpt lat="43.2111717" lon="12.7374958"><ele>682.0</ele><time>2026-05-02T12:06:14.984Z</time></trkpt><trkpt lat="43.2112505" lon="12.7376816"><ele>682.0</ele><time>2026-05-02T12:06:15.97Z</time></trkpt><trkpt lat="43.2113339" lon="12.7378549"><ele>682.0</ele><time>2026-05-02T12:06:16.971Z</time></trkpt><trkpt lat="43.2114193" lon="12.7380249"><ele>677.75</ele><time>2026-05-02T12:06:17.971Z</time></trkpt><trkpt lat="43.2115092" lon="12.738183"><ele>673.5</ele><time>2026-05-02T12:06:18.978Z</time></trkpt><trkpt lat="43.211601" lon="12.7383334"><ele>669.25</ele><time>2026-05-02T12:06:19.978Z</time></trkpt><trkpt lat="43.2116893" lon="12.7384772"><ele>665.0</ele><time>2026-05-02T12:06:20.984Z</time></trkpt><trkpt lat="43.2117691" lon="12.7386085"><ele>663.8</ele><time>2026-05-02T12:06:21.982Z</time></trkpt><trkpt lat="43.2118362" lon="12.7387139"><ele>662.6</ele><time>2026-05-02T12:06:22.968Z</time></trkpt><trkpt lat="43.2118899" lon="12.7388019"><ele>661.4000000000001</ele><time>2026-05-02T12:06:23.981Z</time></trkpt><trkpt lat="43.2119415" lon="12.7389139"><ele>660.2</ele><time>2026-05-02T12:06:25.969Z</time></trkpt><trkpt lat="43.2118512" lon="12.7389762"><ele>659.0</ele><time>2026-05-02T12:06:28.98Z</time></trkpt><trkpt lat="43.2117659" lon="12.7389498"><ele>659.0</ele><time>2026-05-02T12:06:29.972Z</time></trkpt><trkpt lat="43.2116511" lon="12.7388793"><ele>659.0</ele><time>2026-05-02T12:06:30.959Z</time></trkpt><trkpt lat="43.211509" lon="12.7388029"><ele>659.0</ele><time>2026-05-02T12:06:31.969Z</time></trkpt><trkpt lat="43.2113435" lon="12.73872"><ele>658.75</ele><time>2026-05-02T12:06:32.976Z</time></trkpt><trkpt lat="43.2111865" lon="12.7386469"><ele>658.5</ele><time>2026-05-02T12:06:33.97Z</time></trkpt><trkpt lat="43.2110534" lon="12.7385903"><ele>658.25</ele><time>2026-05-02T12:06:34.969Z</time></trkpt><trkpt lat="43.2109161" lon="12.7385567"><ele>658.0</ele><time>2026-05-02T12:06:35.976Z</time></trkpt><trkpt lat="43.2107635" lon="12.7385459"><ele>657.0</ele><time>2026-05-02T12:06:36.991Z</time></trkpt><trkpt lat="43.2106184" lon="12.738576"><ele>656.0</ele><time>2026-05-02T12:06:37.98Z</time></trkpt><trkpt lat="43.2104857" lon="12.7386259"><ele>655.0</ele><time>2026-05-02T12:06:38.98Z</time></trkpt><trkpt lat="43.2103636" lon="12.7386662"><ele>654.0</ele><time>2026-05-02T12:06:39.976Z</time></trkpt><trkpt lat="43.2102375" lon="12.7386605"><ele>654.0</ele><time>2026-05-02T12:06:40.976Z</time></trkpt><trkpt lat="43.2101211" lon="12.7386011"><ele>654.0</ele><time>2026-05-02T12:06:41.969Z</time></trkpt><trkpt lat="43.2100066" lon="12.7385029"><ele>654.0</ele><time>2026-05-02T12:06:42.975Z</time></trkpt><trkpt lat="43.2098916" lon="12.7383681"><ele>654.0</ele><time>2026-05-02T12:06:43.963Z</time></trkpt><trkpt lat="43.2097666" lon="12.7382007"><ele>659.3333333333334</ele><time>2026-05-02T12:06:44.973Z</time></trkpt><trkpt lat="43.2096455" lon="12.7380527"><ele>664.6666666666667</ele><time>2026-05-02T12:06:45.97Z</time></trkpt><trkpt lat="43.209516" lon="12.7379456"><ele>670.0</ele><time>2026-05-02T12:06:46.962Z</time></trkpt><trkpt lat="43.209377" lon="12.7378661"><ele>670.0</ele><time>2026-05-02T12:06:47.97Z</time></trkpt><trkpt lat="43.209237" lon="12.7378262"><ele>670.0</ele><time>2026-05-02T12:06:48.97Z</time></trkpt><trkpt lat="43.2090884" lon="12.737819"><ele>670.0</ele><time>2026-05-02T12:06:49.972Z</time></trkpt><trkpt lat="43.2089482" lon="12.7378536"><ele>670.0</ele><time>2026-05-02T12:06:50.97Z</time></trkpt><trkpt lat="43.2088011" lon="12.7379232"><ele>672.3333333333334</ele><time>2026-05-02T12:06:51.968Z</time></trkpt><trkpt lat="43.2086389" lon="12.7379943"><ele>674.6666666666666</ele><time>2026-05-02T12:06:52.97Z</time></trkpt><trkpt lat="43.208479" lon="12.7380532"><ele>677.0</ele><time>2026-05-02T12:06:53.974Z</time></trkpt><trkpt lat="43.2083223" lon="12.7380868"><ele>677.6666666666666</ele><time>2026-05-02T12:06:54.974Z</time></trkpt><trkpt lat="43.2081589" lon="12.7380919"><ele>678.3333333333334</ele><time>2026-05-02T12:06:55.974Z</time></trkpt><trkpt lat="43.2079922" lon="12.7380838"><ele>679.0</ele><time>2026-05-02T12:06:56.985Z</time></trkpt><trkpt lat="43.2078364" lon="12.7380571"><ele>679.0</ele><time>2026-05-02T12:06:57.979Z</time></trkpt><trkpt lat="43.2076798" lon="12.7380549"><ele>679.0</ele><time>2026-05-02T12:06:58.967Z</time></trkpt><trkpt lat="43.2075224" lon="12.7380851"><ele>679.0</ele><time>2026-05-02T12:06:59.968Z</time></trkpt><trkpt lat="43.2073653" lon="12.7381508"><ele>678.3333333333334</ele><time>2026-05-02T12:07:00.975Z</time></trkpt><trkpt lat="43.2072079" lon="12.7382391"><ele>677.6666666666666</ele><time>2026-05-02T12:07:02.002Z</time></trkpt><trkpt lat="43.207056" lon="12.7383311"><ele>677.0</ele><time>2026-05-02T12:07:02.977Z</time></trkpt><trkpt lat="43.2069113" lon="12.7384118"><ele>677.0</ele><time>2026-05-02T12:07:03.968Z</time></trkpt><trkpt lat="43.2067872" lon="12.7384862"><ele>677.0</ele><time>2026-05-02T12:07:04.965Z</time></trkpt><trkpt lat="43.206685" lon="12.7385465"><ele>677.0</ele><time>2026-05-02T12:07:05.978Z</time></trkpt><trkpt lat="43.2066004" lon="12.7385931"><ele>677.0</ele><time>2026-05-02T12:07:06.977Z</time></trkpt><trkpt lat="43.2065408" lon="12.7386335"><ele>677.0</ele><time>2026-05-02T12:07:07.963Z</time></trkpt><trkpt lat="43.2064738" lon="12.7387285"><ele>678.4285714285713</ele><time>2026-05-02T12:07:09.987Z</time></trkpt><trkpt lat="43.2064494" lon="12.7388398"><ele>679.8571428571429</ele><time>2026-05-02T12:07:11.972Z</time></trkpt><trkpt lat="43.2064188" lon="12.7389304"><ele>681.2857142857142</ele><time>2026-05-02T12:07:13.976Z</time></trkpt><trkpt lat="43.2063725" lon="12.7390245"><ele>682.7142857142857</ele><time>2026-05-02T12:07:16.973Z</time></trkpt><trkpt lat="43.2063407" lon="12.7391113"><ele>684.1428571428571</ele><time>2026-05-02T12:07:21.976Z</time></trkpt><trkpt lat="43.2062938" lon="12.7391862"><ele>685.5714285714286</ele><time>2026-05-02T12:07:24.972Z</time></trkpt><trkpt lat="43.20625" lon="12.7392541"><ele>687.0</ele><time>2026-05-02T12:07:26.982Z</time></trkpt><trkpt lat="43.2061927" lon="12.7393343"><ele>686.4000000000001</ele><time>2026-05-02T12:07:29.982Z</time></trkpt><trkpt lat="43.2061375" lon="12.7394275"><ele>685.8000000000001</ele><time>2026-05-02T12:07:32.986Z</time></trkpt><trkpt lat="43.2060622" lon="12.7395271"><ele>685.2</ele><time>2026-05-02T12:07:35.974Z</time></trkpt><trkpt lat="43.2059763" lon="12.7396157"><ele>684.6</ele><time>2026-05-02T12:07:37.967Z</time></trkpt><trkpt lat="43.2059151" lon="12.7396975"><ele>684.0</ele><time>2026-05-02T12:07:38.978Z</time></trkpt><trkpt lat="43.2058317" lon="12.7397975"><ele>684.0</ele><time>2026-05-02T12:07:39.972Z</time></trkpt><trkpt lat="43.2057496" lon="12.7399116"><ele>684.0</ele><time>2026-05-02T12:07:40.969Z</time></trkpt><trkpt lat="43.2056691" lon="12.7400295"><ele>684.0</ele><time>2026-05-02T12:07:41.979Z</time></trkpt><trkpt lat="43.2055821" lon="12.7401353"><ele>684.0</ele><time>2026-05-02T12:07:42.965Z</time></trkpt><trkpt lat="43.2054894" lon="12.7402476"><ele>685.2</ele><time>2026-05-02T12:07:43.963Z</time></trkpt><trkpt lat="43.2054042" lon="12.7403559"><ele>686.4000000000001</ele><time>2026-05-02T12:07:44.976Z</time></trkpt><trkpt lat="43.2053227" lon="12.7404495"><ele>687.6</ele><time>2026-05-02T12:07:45.972Z</time></trkpt><trkpt lat="43.2052479" lon="12.7405328"><ele>688.8</ele><time>2026-05-02T12:07:46.97Z</time></trkpt><trkpt lat="43.2051601" lon="12.7405983"><ele>690.0</ele><time>2026-05-02T12:07:47.964Z</time></trkpt><trkpt lat="43.2050603" lon="12.7406418"><ele>690.0</ele><time>2026-05-02T12:07:48.966Z</time></trkpt><trkpt lat="43.2049515" lon="12.7406786"><ele>690.0</ele><time>2026-05-02T12:07:49.965Z</time></trkpt><trkpt lat="43.2048384" lon="12.740718"><ele>690.0</ele><time>2026-05-02T12:07:50.966Z</time></trkpt><trkpt lat="43.204733" lon="12.7408"><ele>690.0</ele><time>2026-05-02T12:07:51.985Z</time></trkpt><trkpt lat="43.2046431" lon="12.7409019"><ele>689.3333333333334</ele><time>2026-05-02T12:07:53.026Z</time></trkpt><trkpt lat="43.2045864" lon="12.7410188"><ele>688.6666666666666</ele><time>2026-05-02T12:07:53.962Z</time></trkpt><trkpt lat="43.204544" lon="12.7411396"><ele>688.0</ele><time>2026-05-02T12:07:54.973Z</time></trkpt><trkpt lat="43.2045307" lon="12.7412463"><ele>687.3333333333333</ele><time>2026-05-02T12:07:55.962Z</time></trkpt><trkpt lat="43.2045359" lon="12.7413484"><ele>686.6666666666666</ele><time>2026-05-02T12:07:56.968Z</time></trkpt><trkpt lat="43.204551" lon="12.7414398"><ele>686.0</ele><time>2026-05-02T12:07:57.961Z</time></trkpt><trkpt lat="43.2045925" lon="12.7415344"><ele>686.0</ele><time>2026-05-02T12:07:58.968Z</time></trkpt><trkpt lat="43.2046473" lon="12.7416328"><ele>686.0</ele><time>2026-05-02T12:07:59.968Z</time></trkpt><trkpt lat="43.2047228" lon="12.7417556"><ele>686.0</ele><time>2026-05-02T12:08:00.973Z</time></trkpt><trkpt lat="43.2048253" lon="12.7418869"><ele>686.0</ele><time>2026-05-02T12:08:01.969Z</time></trkpt><trkpt lat="43.2049417" lon="12.7420364"><ele>683.0</ele><time>2026-05-02T12:08:02.975Z</time></trkpt><trkpt lat="43.2050584" lon="12.7421935"><ele>680.0</ele><time>2026-05-02T12:08:03.972Z</time></trkpt><trkpt lat="43.205178" lon="12.7423497"><ele>677.0</ele><time>2026-05-02T12:08:04.977Z</time></trkpt><trkpt lat="43.2053051" lon="12.7425065"><ele>677.0</ele><time>2026-05-02T12:08:05.971Z</time></trkpt><trkpt lat="43.205422" lon="12.7426668"><ele>677.0</ele><time>2026-05-02T12:08:06.963Z</time></trkpt><trkpt lat="43.205536" lon="12.7428209"><ele>677.0</ele><time>2026-05-02T12:08:07.972Z</time></trkpt><trkpt lat="43.2056387" lon="12.7429739"><ele>679.0</ele><time>2026-05-02T12:08:08.974Z</time></trkpt><trkpt lat="43.2057464" lon="12.7431124"><ele>681.0</ele><time>2026-05-02T12:08:09.965Z</time></trkpt><trkpt lat="43.2058519" lon="12.7432587"><ele>683.0</ele><time>2026-05-02T12:08:10.978Z</time></trkpt><trkpt lat="43.2059649" lon="12.7434008"><ele>683.0</ele><time>2026-05-02T12:08:11.985Z</time></trkpt><trkpt lat="43.206071" lon="12.7435327"><ele>683.0</ele><time>2026-05-02T12:08:12.961Z</time></trkpt><trkpt lat="43.2061715" lon="12.7436619"><ele>683.0</ele><time>2026-05-02T12:08:13.964Z</time></trkpt><trkpt lat="43.2062709" lon="12.7437754"><ele>683.0</ele><time>2026-05-02T12:08:14.966Z</time></trkpt><trkpt lat="43.2063662" lon="12.7438814"><ele>682.5999999999999</ele><time>2026-05-02T12:08:15.976Z</time></trkpt><trkpt lat="43.2064488" lon="12.7439862"><ele>682.1999999999999</ele><time>2026-05-02T12:08:16.992Z</time></trkpt><trkpt lat="43.2065155" lon="12.7440919"><ele>681.8</ele><time>2026-05-02T12:08:17.97Z</time></trkpt><trkpt lat="43.2065787" lon="12.7441985"><ele>681.4</ele><time>2026-05-02T12:08:18.986Z</time></trkpt><trkpt lat="43.2066383" lon="12.7443079"><ele>681.0</ele><time>2026-05-02T12:08:19.963Z</time></trkpt><trkpt lat="43.2066925" lon="12.7444275"><ele>679.8</ele><time>2026-05-02T12:08:20.967Z</time></trkpt><trkpt lat="43.2067476" lon="12.7445381"><ele>678.5999999999999</ele><time>2026-05-02T12:08:21.965Z</time></trkpt><trkpt lat="43.2068028" lon="12.7446466"><ele>677.4</ele><time>2026-05-02T12:08:22.969Z</time></trkpt><trkpt lat="43.2068551" lon="12.74476"><ele>676.2</ele><time>2026-05-02T12:08:23.972Z</time></trkpt><trkpt lat="43.206901" lon="12.7448833"><ele>675.0</ele><time>2026-05-02T12:08:24.977Z</time></trkpt><trkpt lat="43.2069344" lon="12.7450148"><ele>675.0</ele><time>2026-05-02T12:08:25.984Z</time></trkpt><trkpt lat="43.2069581" lon="12.7451414"><ele>675.0</ele><time>2026-05-02T12:08:26.968Z</time></trkpt><trkpt lat="43.2069778" lon="12.7452605"><ele>675.0</ele><time>2026-05-02T12:08:27.969Z</time></trkpt><trkpt lat="43.2069952" lon="12.7453749"><ele>675.0</ele><time>2026-05-02T12:08:28.972Z</time></trkpt><trkpt lat="43.2070161" lon="12.7454792"><ele>675.0</ele><time>2026-05-02T12:08:29.972Z</time></trkpt><trkpt lat="43.2070418" lon="12.7455772"><ele>675.0</ele><time>2026-05-02T12:08:30.972Z</time></trkpt><trkpt lat="43.207081" lon="12.7456659"><ele>672.8333333333334</ele><time>2026-05-02T12:08:31.967Z</time></trkpt><trkpt lat="43.207128" lon="12.7457541"><ele>670.6666666666666</ele><time>2026-05-02T12:08:32.964Z</time></trkpt><trkpt lat="43.2071834" lon="12.7458382"><ele>668.5</ele><time>2026-05-02T12:08:33.976Z</time></trkpt><trkpt lat="43.207246" lon="12.7459218"><ele>666.3333333333333</ele><time>2026-05-02T12:08:34.969Z</time></trkpt><trkpt lat="43.2073097" lon="12.7460157"><ele>664.1666666666666</ele><time>2026-05-02T12:08:35.966Z</time></trkpt><trkpt lat="43.2073647" lon="12.746095"><ele>662.0</ele><time>2026-05-02T12:08:36.978Z</time></trkpt><trkpt lat="43.2074174" lon="12.7461797"><ele>660.3333333333333</ele><time>2026-05-02T12:08:37.97Z</time></trkpt><trkpt lat="43.2074546" lon="12.7462669"><ele>658.6666666666666</ele><time>2026-05-02T12:08:38.965Z</time></trkpt><trkpt lat="43.2074847" lon="12.7463708"><ele>657.0</ele><time>2026-05-02T12:08:39.966Z</time></trkpt><trkpt lat="43.2074951" lon="12.7464731"><ele>655.3333333333334</ele><time>2026-05-02T12:08:40.968Z</time></trkpt><trkpt lat="43.2075014" lon="12.7465744"><ele>653.6666666666667</ele><time>2026-05-02T12:08:41.965Z</time></trkpt><trkpt lat="43.2075096" lon="12.7466632"><ele>652.0</ele><time>2026-05-02T12:08:42.973Z</time></trkpt><trkpt lat="43.2075487" lon="12.7468005"><ele>650.0</ele><time>2026-05-02T12:08:44.969Z</time></trkpt><trkpt lat="43.2076491" lon="12.7468794"><ele>648.0</ele><time>2026-05-02T12:08:46.981Z</time></trkpt><trkpt lat="43.2077041" lon="12.7469215"><ele>646.0</ele><time>2026-05-02T12:08:47.965Z</time></trkpt><trkpt lat="43.2077571" lon="12.7470405"><ele>644.0</ele><time>2026-05-02T12:08:49.965Z</time></trkpt><trkpt lat="43.2077352" lon="12.7471767"><ele>642.0</ele><time>2026-05-02T12:08:51.973Z</time></trkpt><trkpt lat="43.2076337" lon="12.7472656"><ele>641.9999999999999</ele><time>2026-05-02T12:08:53.972Z</time></trkpt><trkpt lat="43.2075712" lon="12.7472886"><ele>642.0</ele><time>2026-05-02T12:08:54.974Z</time></trkpt><trkpt lat="43.2075057" lon="12.7472947"><ele>642.0</ele><time>2026-05-02T12:08:55.978Z</time></trkpt><trkpt lat="43.2074425" lon="12.7472904"><ele>642.0</ele><time>2026-05-02T12:08:56.975Z</time></trkpt><trkpt lat="43.2073736" lon="12.7472891"><ele>642.0</ele><time>2026-05-02T12:08:57.973Z</time></trkpt><trkpt lat="43.2073107" lon="12.7472802"><ele>641.9999999999999</ele><time>2026-05-02T12:08:58.961Z</time></trkpt><trkpt lat="43.2072062" lon="12.7472667"><ele>642.0</ele><time>2026-05-02T12:09:00.977Z</time></trkpt><trkpt lat="43.2071224" lon="12.7473175"><ele>639.8000000000001</ele><time>2026-05-02T12:09:02.967Z</time></trkpt><trkpt lat="43.2071097" lon="12.7474344"><ele>637.6</ele><time>2026-05-02T12:09:04.963Z</time></trkpt><trkpt lat="43.2071116" lon="12.7475953"><ele>635.4000000000001</ele><time>2026-05-02T12:09:06.969Z</time></trkpt><trkpt lat="43.207065" lon="12.7477571"><ele>633.2</ele><time>2026-05-02T12:09:08.962Z</time></trkpt><trkpt lat="43.2070248" lon="12.7478246"><ele>631.0</ele><time>2026-05-02T12:09:09.959Z</time></trkpt><trkpt lat="43.2069774" lon="12.7478877"><ele>629.4</ele><time>2026-05-02T12:09:10.976Z</time></trkpt><trkpt lat="43.206932" lon="12.7479527"><ele>627.8</ele><time>2026-05-02T12:09:11.97Z</time></trkpt><trkpt lat="43.2068613" lon="12.7480804"><ele>626.1999999999999</ele><time>2026-05-02T12:09:13.972Z</time></trkpt><trkpt lat="43.2068187" lon="12.7482538"><ele>624.6</ele><time>2026-05-02T12:09:15.978Z</time></trkpt><trkpt lat="43.2068049" lon="12.748341"><ele>623.0</ele><time>2026-05-02T12:09:16.964Z</time></trkpt><trkpt lat="43.2067913" lon="12.7484433"><ele>623.0</ele><time>2026-05-02T12:09:17.96Z</time></trkpt><trkpt lat="43.2067832" lon="12.7485361"><ele>623.0</ele><time>2026-05-02T12:09:18.961Z</time></trkpt><trkpt lat="43.2067745" lon="12.7486223"><ele>623.0</ele><time>2026-05-02T12:09:19.967Z</time></trkpt><trkpt lat="43.2067804" lon="12.7487544"><ele>623.0</ele><time>2026-05-02T12:09:21.979Z</time></trkpt><trkpt lat="43.2067742" lon="12.7488889"><ele>623.0</ele><time>2026-05-02T12:09:23.97Z</time></trkpt><trkpt lat="43.2067668" lon="12.7489826"><ele>623.0</ele><time>2026-05-02T12:09:24.972Z</time></trkpt><trkpt lat="43.2067655" lon="12.7491482"><ele>621.8333333333333</ele><time>2026-05-02T12:09:26.97Z</time></trkpt><trkpt lat="43.2067584" lon="12.7492358"><ele>620.6666666666666</ele><time>2026-05-02T12:09:27.971Z</time></trkpt><trkpt lat="43.2067472" lon="12.7493307"><ele>619.5</ele><time>2026-05-02T12:09:28.97Z</time></trkpt><trkpt lat="43.2067371" lon="12.7494251"><ele>618.3333333333334</ele><time>2026-05-02T12:09:29.967Z</time></trkpt><trkpt lat="43.2067287" lon="12.7495162"><ele>617.1666666666667</ele><time>2026-05-02T12:09:30.969Z</time></trkpt><trkpt lat="43.2067042" lon="12.7496817"><ele>616.0</ele><time>2026-05-02T12:09:32.973Z</time></trkpt><trkpt lat="43.2066428" lon="12.7498321"><ele>614.0</ele><time>2026-05-02T12:09:34.969Z</time></trkpt><trkpt lat="43.2065839" lon="12.749894"><ele>612.0</ele><time>2026-05-02T12:09:35.966Z</time></trkpt><trkpt lat="43.2065202" lon="12.7499424"><ele>610.0</ele><time>2026-05-02T12:09:36.972Z</time></trkpt><trkpt lat="43.2064508" lon="12.749969"><ele>608.0</ele><time>2026-05-02T12:09:37.984Z</time></trkpt><trkpt lat="43.2063775" lon="12.7499699"><ele>606.0</ele><time>2026-05-02T12:09:38.99Z</time></trkpt><trkpt lat="43.2062972" lon="12.7499543"><ele>604.0</ele><time>2026-05-02T12:09:39.97Z</time></trkpt><trkpt lat="43.2062218" lon="12.7499318"><ele>601.3333333333334</ele><time>2026-05-02T12:09:40.982Z</time></trkpt><trkpt lat="43.2061472" lon="12.7499021"><ele>598.6666666666667</ele><time>2026-05-02T12:09:41.974Z</time></trkpt><trkpt lat="43.2060726" lon="12.7498709"><ele>596.0</ele><time>2026-05-02T12:09:42.982Z</time></trkpt><trkpt lat="43.2060015" lon="12.7498455"><ele>593.3333333333334</ele><time>2026-05-02T12:09:43.967Z</time></trkpt><trkpt lat="43.2059374" lon="12.7498076"><ele>590.6666666666666</ele><time>2026-05-02T12:09:44.968Z</time></trkpt><trkpt lat="43.2058747" lon="12.7497611"><ele>588.0</ele><time>2026-05-02T12:09:45.981Z</time></trkpt><trkpt lat="43.2058027" lon="12.7496322"><ele>588.0</ele><time>2026-05-02T12:09:47.979Z</time></trkpt><trkpt lat="43.2057304" lon="12.749532"><ele>588.0</ele><time>2026-05-02T12:09:49.972Z</time></trkpt><trkpt lat="43.2056681" lon="12.7495951"><ele>588.0</ele><time>2026-05-02T12:09:51.963Z</time></trkpt><trkpt lat="43.205696" lon="12.7497412"><ele>588.0</ele><time>2026-05-02T12:09:53.969Z</time></trkpt><trkpt lat="43.2057085" lon="12.7498273"><ele>588.0</ele><time>2026-05-02T12:09:54.966Z</time></trkpt><trkpt lat="43.2057221" lon="12.7499293"><ele>588.0</ele><time>2026-05-02T12:09:55.961Z</time></trkpt><trkpt lat="43.2057353" lon="12.7500382"><ele>588.0</ele><time>2026-05-02T12:09:56.973Z</time></trkpt><trkpt lat="43.2057572" lon="12.7501511"><ele>588.0</ele><time>2026-05-02T12:09:57.979Z</time></trkpt><trkpt lat="43.2057797" lon="12.7502593"><ele>588.0</ele><time>2026-05-02T12:09:58.968Z</time></trkpt><trkpt lat="43.2058012" lon="12.7503654"><ele>588.0</ele><time>2026-05-02T12:09:59.967Z</time></trkpt><trkpt lat="43.2058228" lon="12.7504791"><ele>588.0</ele><time>2026-05-02T12:10:00.967Z</time></trkpt><trkpt lat="43.2058463" lon="12.7505956"><ele>588.0</ele><time>2026-05-02T12:10:01.973Z</time></trkpt><trkpt lat="43.2058737" lon="12.750698"><ele>585.1666666666666</ele><time>2026-05-02T12:10:02.97Z</time></trkpt><trkpt lat="43.2059028" lon="12.7507948"><ele>582.3333333333334</ele><time>2026-05-02T12:10:03.978Z</time></trkpt><trkpt lat="43.205931" lon="12.750901"><ele>579.5</ele><time>2026-05-02T12:10:04.97Z</time></trkpt><trkpt lat="43.2059599" lon="12.7510046"><ele>576.6666666666667</ele><time>2026-05-02T12:10:05.969Z</time></trkpt><trkpt lat="43.2059819" lon="12.7511239"><ele>573.8333333333334</ele><time>2026-05-02T12:10:06.969Z</time></trkpt><trkpt lat="43.2060048" lon="12.7512358"><ele>571.0</ele><time>2026-05-02T12:10:07.97Z</time></trkpt><trkpt lat="43.2060299" lon="12.7513531"><ele>569.0</ele><time>2026-05-02T12:10:08.962Z</time></trkpt><trkpt lat="43.2060549" lon="12.7514646"><ele>567.0</ele><time>2026-05-02T12:10:09.973Z</time></trkpt><trkpt lat="43.2060827" lon="12.7515639"><ele>565.0</ele><time>2026-05-02T12:10:10.971Z</time></trkpt><trkpt lat="43.2061259" lon="12.7516672"><ele>563.0</ele><time>2026-05-02T12:10:11.968Z</time></trkpt><trkpt lat="43.206178" lon="12.7517575"><ele>561.0</ele><time>2026-05-02T12:10:12.968Z</time></trkpt><trkpt lat="43.20625" lon="12.751828"><ele>559.0</ele><time>2026-05-02T12:10:13.973Z</time></trkpt><trkpt lat="43.2063209" lon="12.7518933"><ele>557.0</ele><time>2026-05-02T12:10:14.97Z</time></trkpt><trkpt lat="43.2063912" lon="12.751959"><ele>555.0</ele><time>2026-05-02T12:10:15.969Z</time></trkpt><trkpt lat="43.2064476" lon="12.7520284"><ele>553.0</ele><time>2026-05-02T12:10:16.97Z</time></trkpt><trkpt lat="43.2064966" lon="12.7521273"><ele>551.0</ele><time>2026-05-02T12:10:17.971Z</time></trkpt><trkpt lat="43.2065406" lon="12.7522484"><ele>549.0</ele><time>2026-05-02T12:10:18.961Z</time></trkpt><trkpt lat="43.2065774" lon="12.7523706"><ele>547.0</ele><time>2026-05-02T12:10:19.966Z</time></trkpt><trkpt lat="43.2066116" lon="12.7524879"><ele>547.0</ele><time>2026-05-02T12:10:20.978Z</time></trkpt><trkpt lat="43.2066393" lon="12.7526141"><ele>547.0</ele><time>2026-05-02T12:10:21.969Z</time></trkpt><trkpt lat="43.2066599" lon="12.7527417"><ele>547.0</ele><time>2026-05-02T12:10:22.965Z</time></trkpt><trkpt lat="43.2066671" lon="12.7528798"><ele>547.0</ele><time>2026-05-02T12:10:23.97Z</time></trkpt><trkpt lat="43.2066605" lon="12.7530152"><ele>547.0</ele><time>2026-05-02T12:10:24.97Z</time></trkpt><trkpt lat="43.206655" lon="12.7531467"><ele>544.8000000000001</ele><time>2026-05-02T12:10:25.971Z</time></trkpt><trkpt lat="43.2066582" lon="12.7532907"><ele>542.6</ele><time>2026-05-02T12:10:26.978Z</time></trkpt><trkpt lat="43.2066774" lon="12.7534331"><ele>540.4000000000001</ele><time>2026-05-02T12:10:27.962Z</time></trkpt><trkpt lat="43.2067098" lon="12.7535713"><ele>538.2</ele><time>2026-05-02T12:10:28.969Z</time></trkpt><trkpt lat="43.2067507" lon="12.7537006"><ele>536.0</ele><time>2026-05-02T12:10:29.965Z</time></trkpt><trkpt lat="43.2067931" lon="12.7538204"><ele>534.1666666666666</ele><time>2026-05-02T12:10:30.963Z</time></trkpt><trkpt lat="43.2068351" lon="12.7539295"><ele>532.3333333333333</ele><time>2026-05-02T12:10:31.972Z</time></trkpt><trkpt lat="43.2068567" lon="12.7540166"><ele>530.5</ele><time>2026-05-02T12:10:32.985Z</time></trkpt><trkpt lat="43.2068598" lon="12.7541153"><ele>528.6666666666666</ele><time>2026-05-02T12:10:33.972Z</time></trkpt><trkpt lat="43.2068335" lon="12.7542164"><ele>526.8333333333334</ele><time>2026-05-02T12:10:34.968Z</time></trkpt><trkpt lat="43.2067929" lon="12.7543097"><ele>525.0</ele><time>2026-05-02T12:10:35.969Z</time></trkpt><trkpt lat="43.2067398" lon="12.7543897"><ele>523.5</ele><time>2026-05-02T12:10:36.974Z</time></trkpt><trkpt lat="43.2067125" lon="12.7544878"><ele>522.0</ele><time>2026-05-02T12:10:37.967Z</time></trkpt><trkpt lat="43.2067067" lon="12.754582"><ele>520.5</ele><time>2026-05-02T12:10:38.969Z</time></trkpt><trkpt lat="43.2067257" lon="12.7546843"><ele>519.0</ele><time>2026-05-02T12:10:39.972Z</time></trkpt><trkpt lat="43.2067569" lon="12.7547893"><ele>517.5</ele><time>2026-05-02T12:10:40.974Z</time></trkpt><trkpt lat="43.2067913" lon="12.7548969"><ele>516.0</ele><time>2026-05-02T12:10:41.968Z</time></trkpt><trkpt lat="43.2068192" lon="12.7550112"><ele>516.0</ele><time>2026-05-02T12:10:42.963Z</time></trkpt><trkpt lat="43.206827" lon="12.755129"><ele>516.0</ele><time>2026-05-02T12:10:43.975Z</time></trkpt><trkpt lat="43.2068129" lon="12.755265"><ele>516.0</ele><time>2026-05-02T12:10:44.976Z</time></trkpt><trkpt lat="43.2067836" lon="12.755411"><ele>516.0</ele><time>2026-05-02T12:10:45.974Z</time></trkpt><trkpt lat="43.2067442" lon="12.7555632"><ele>516.0</ele><time>2026-05-02T12:10:46.972Z</time></trkpt><trkpt lat="43.2067148" lon="12.7557159"><ele>514.6</ele><time>2026-05-02T12:10:47.965Z</time></trkpt><trkpt lat="43.2066944" lon="12.7558706"><ele>513.2</ele><time>2026-05-02T12:10:48.979Z</time></trkpt><trkpt lat="43.2066838" lon="12.7560168"><ele>511.79999999999995</ele><time>2026-05-02T12:10:49.972Z</time></trkpt><trkpt lat="43.2066759" lon="12.7561523"><ele>510.4</ele><time>2026-05-02T12:10:50.973Z</time></trkpt><trkpt lat="43.2066723" lon="12.7562956"><ele>509.0</ele><time>2026-05-02T12:10:51.972Z</time></trkpt><trkpt lat="43.2066689" lon="12.7564469"><ele>507.5</ele><time>2026-05-02T12:10:52.972Z</time></trkpt><trkpt lat="43.2066648" lon="12.7566028"><ele>506.0</ele><time>2026-05-02T12:10:53.967Z</time></trkpt><trkpt lat="43.2066685" lon="12.7567596"><ele>504.5</ele><time>2026-05-02T12:10:54.967Z</time></trkpt><trkpt lat="43.2066858" lon="12.7569097"><ele>503.0</ele><time>2026-05-02T12:10:55.968Z</time></trkpt><trkpt lat="43.2067125" lon="12.7570708"><ele>501.75</ele><time>2026-05-02T12:10:56.973Z</time></trkpt><trkpt lat="43.206753" lon="12.7572392"><ele>500.5</ele><time>2026-05-02T12:10:57.969Z</time></trkpt><trkpt lat="43.2068014" lon="12.757417"><ele>499.25</ele><time>2026-05-02T12:10:58.969Z</time></trkpt><trkpt lat="43.2068423" lon="12.7576041"><ele>498.0</ele><time>2026-05-02T12:10:59.975Z</time></trkpt><trkpt lat="43.2068757" lon="12.7578077"><ele>497.25</ele><time>2026-05-02T12:11:00.977Z</time></trkpt><trkpt lat="43.2069034" lon="12.7579926"><ele>496.5</ele><time>2026-05-02T12:11:01.971Z</time></trkpt><trkpt lat="43.2069294" lon="12.7581593"><ele>495.75</ele><time>2026-05-02T12:11:02.969Z</time></trkpt><trkpt lat="43.2069569" lon="12.7583081"><ele>495.0</ele><time>2026-05-02T12:11:03.971Z</time></trkpt><trkpt lat="43.2069991" lon="12.7584428"><ele>494.6</ele><time>2026-05-02T12:11:04.97Z</time></trkpt><trkpt lat="43.2070449" lon="12.75857"><ele>494.2</ele><time>2026-05-02T12:11:05.971Z</time></trkpt><trkpt lat="43.2070922" lon="12.7587002"><ele>493.79999999999995</ele><time>2026-05-02T12:11:06.962Z</time></trkpt><trkpt lat="43.207132" lon="12.7588145"><ele>493.4</ele><time>2026-05-02T12:11:07.964Z</time></trkpt><trkpt lat="43.2071678" lon="12.7589157"><ele>493.0</ele><time>2026-05-02T12:11:08.966Z</time></trkpt><trkpt lat="43.2072003" lon="12.759011"><ele>493.00000000000006</ele><time>2026-05-02T12:11:09.964Z</time></trkpt><trkpt lat="43.2072293" lon="12.7591023"><ele>493.0</ele><time>2026-05-02T12:11:10.966Z</time></trkpt><trkpt lat="43.2072551" lon="12.7591886"><ele>493.0</ele><time>2026-05-02T12:11:11.971Z</time></trkpt><trkpt lat="43.2073075" lon="12.7593466"><ele>493.0</ele><time>2026-05-02T12:11:13.966Z</time></trkpt><trkpt lat="43.2073409" lon="12.7594445"><ele>493.00000000000006</ele><time>2026-05-02T12:11:14.974Z</time></trkpt><trkpt lat="43.20739" lon="12.7595665"><ele>493.0</ele><time>2026-05-02T12:11:15.97Z</time></trkpt><trkpt lat="43.2074454" lon="12.7597035"><ele>493.0</ele><time>2026-05-02T12:11:16.969Z</time></trkpt><trkpt lat="43.2074994" lon="12.7598385"><ele>492.99999999999994</ele><time>2026-05-02T12:11:17.979Z</time></trkpt><trkpt lat="43.207547" lon="12.7599755"><ele>492.99999999999994</ele><time>2026-05-02T12:11:18.977Z</time></trkpt><trkpt lat="43.2075864" lon="12.7601119"><ele>493.0</ele><time>2026-05-02T12:11:19.972Z</time></trkpt><trkpt lat="43.2076144" lon="12.7602339"><ele>493.0</ele><time>2026-05-02T12:11:20.98Z</time></trkpt><trkpt lat="43.2076391" lon="12.7603587"><ele>493.0</ele><time>2026-05-02T12:11:21.963Z</time></trkpt><trkpt lat="43.2076627" lon="12.7604871"><ele>492.99999999999994</ele><time>2026-05-02T12:11:22.966Z</time></trkpt><trkpt lat="43.2076841" lon="12.7606133"><ele>492.99999999999994</ele><time>2026-05-02T12:11:23.964Z</time></trkpt><trkpt lat="43.2077073" lon="12.7607488"><ele>493.0</ele><time>2026-05-02T12:11:24.964Z</time></trkpt><trkpt lat="43.2077336" lon="12.7609044"><ele>493.0</ele><time>2026-05-02T12:11:25.978Z</time></trkpt><trkpt lat="43.2077614" lon="12.761065"><ele>491.5</ele><time>2026-05-02T12:11:26.973Z</time></trkpt><trkpt lat="43.2077874" lon="12.7612298"><ele>490.0</ele><time>2026-05-02T12:11:27.969Z</time></trkpt><trkpt lat="43.2078158" lon="12.761394"><ele>488.5</ele><time>2026-05-02T12:11:28.967Z</time></trkpt><trkpt lat="43.2078437" lon="12.7615619"><ele>487.0</ele><time>2026-05-02T12:11:29.971Z</time></trkpt><trkpt lat="43.2078733" lon="12.7617276"><ele>485.0</ele><time>2026-05-02T12:11:30.972Z</time></trkpt><trkpt lat="43.2079018" lon="12.7619023"><ele>483.0</ele><time>2026-05-02T12:11:31.974Z</time></trkpt><trkpt lat="43.2079329" lon="12.7620739"><ele>481.0</ele><time>2026-05-02T12:11:32.972Z</time></trkpt><trkpt lat="43.2079688" lon="12.7622414"><ele>479.0</ele><time>2026-05-02T12:11:33.968Z</time></trkpt><trkpt lat="43.20801" lon="12.7624034"><ele>479.0</ele><time>2026-05-02T12:11:34.97Z</time></trkpt><trkpt lat="43.2080566" lon="12.7625632"><ele>479.0</ele><time>2026-05-02T12:11:35.987Z</time></trkpt><trkpt lat="43.2081115" lon="12.7627231"><ele>479.0</ele><time>2026-05-02T12:11:36.971Z</time></trkpt><trkpt lat="43.2081741" lon="12.7628891"><ele>479.0</ele><time>2026-05-02T12:11:37.965Z</time></trkpt><trkpt lat="43.2082337" lon="12.7630461"><ele>477.75</ele><time>2026-05-02T12:11:38.969Z</time></trkpt><trkpt lat="43.2082865" lon="12.7632039"><ele>476.5</ele><time>2026-05-02T12:11:39.954Z</time></trkpt><trkpt lat="43.208338" lon="12.7633623"><ele>475.25</ele><time>2026-05-02T12:11:40.971Z</time></trkpt><trkpt lat="43.2083824" lon="12.7635181"><ele>474.0</ele><time>2026-05-02T12:11:41.973Z</time></trkpt><trkpt lat="43.2084055" lon="12.7636653"><ele>473.4</ele><time>2026-05-02T12:11:42.969Z</time></trkpt><trkpt lat="43.2084164" lon="12.7637889"><ele>472.79999999999995</ele><time>2026-05-02T12:11:43.973Z</time></trkpt><trkpt lat="43.2084262" lon="12.7639399"><ele>472.20000000000005</ele><time>2026-05-02T12:11:45.968Z</time></trkpt><trkpt lat="43.2085023" lon="12.7639726"><ele>471.6</ele><time>2026-05-02T12:11:47.969Z</time></trkpt><trkpt lat="43.2086109" lon="12.7639552"><ele>471.0</ele><time>2026-05-02T12:11:49.969Z</time></trkpt><trkpt lat="43.2086888" lon="12.7639466"><ele>471.00000000000006</ele><time>2026-05-02T12:11:51.97Z</time></trkpt><trkpt lat="43.2087731" lon="12.7639537"><ele>471.0</ele><time>2026-05-02T12:11:54.975Z</time></trkpt><trkpt lat="43.2088411" lon="12.7639547"><ele>471.00000000000006</ele><time>2026-05-02T12:11:57.979Z</time></trkpt><trkpt lat="43.2089055" lon="12.7639526"><ele>471.00000000000006</ele><time>2026-05-02T12:12:00.973Z</time></trkpt><trkpt lat="43.2089774" lon="12.7639565"><ele>471.0</ele><time>2026-05-02T12:12:05.962Z</time></trkpt><trkpt lat="43.2089192" lon="12.7639094"><ele>471.00000000000006</ele><time>2026-05-02T12:12:14.973Z</time></trkpt><trkpt lat="43.2088377" lon="12.7639315"><ele>471.00000000000006</ele><time>2026-05-02T12:12:16.986Z</time></trkpt><trkpt lat="43.2087201" lon="12.763954"><ele>471.0</ele><time>2026-05-02T12:12:18.964Z</time></trkpt><trkpt lat="43.2086221" lon="12.7639544"><ele>471.0</ele><time>2026-05-02T12:12:20.977Z</time></trkpt><trkpt lat="43.2085563" lon="12.7639579"><ele>471.0</ele><time>2026-05-02T12:12:21.977Z</time></trkpt><trkpt lat="43.2084618" lon="12.7639575"><ele>471.0</ele><time>2026-05-02T12:12:23.972Z</time></trkpt><trkpt lat="43.2083998" lon="12.7639897"><ele>471.0</ele><time>2026-05-02T12:12:25.969Z</time></trkpt><trkpt lat="43.2083684" lon="12.7641176"><ele>471.0</ele><time>2026-05-02T12:12:27.968Z</time></trkpt><trkpt lat="43.2083535" lon="12.7642241"><ele>471.0</ele><time>2026-05-02T12:12:28.973Z</time></trkpt><trkpt lat="43.2083295" lon="12.7643393"><ele>471.0</ele><time>2026-05-02T12:12:29.971Z</time></trkpt><trkpt lat="43.2082998" lon="12.7644677"><ele>471.0</ele><time>2026-05-02T12:12:30.971Z</time></trkpt><trkpt lat="43.2082863" lon="12.7646035"><ele>471.0</ele><time>2026-05-02T12:12:31.973Z</time></trkpt><trkpt lat="43.2082876" lon="12.7647331"><ele>471.0</ele><time>2026-05-02T12:12:32.982Z</time></trkpt><trkpt lat="43.208296" lon="12.7648666"><ele>471.0</ele><time>2026-05-02T12:12:33.958Z</time></trkpt><trkpt lat="43.2083068" lon="12.765009"><ele>471.0</ele><time>2026-05-02T12:12:34.967Z</time></trkpt><trkpt lat="43.208318" lon="12.7651575"><ele>471.0</ele><time>2026-05-02T12:12:35.971Z</time></trkpt><trkpt lat="43.208324" lon="12.7653045"><ele>471.0</ele><time>2026-05-02T12:12:36.96Z</time></trkpt><trkpt lat="43.208331" lon="12.765458"><ele>471.0</ele><time>2026-05-02T12:12:37.97Z</time></trkpt><trkpt lat="43.2083229" lon="12.7656091"><ele>471.0</ele><time>2026-05-02T12:12:38.968Z</time></trkpt><trkpt lat="43.2083055" lon="12.7657487"><ele>471.0</ele><time>2026-05-02T12:12:39.972Z</time></trkpt><trkpt lat="43.2082765" lon="12.7659016"><ele>471.0</ele><time>2026-05-02T12:12:40.96Z</time></trkpt><trkpt lat="43.2082504" lon="12.7660569"><ele>471.0</ele><time>2026-05-02T12:12:41.973Z</time></trkpt><trkpt lat="43.2082304" lon="12.7661976"><ele>471.0</ele><time>2026-05-02T12:12:42.96Z</time></trkpt><trkpt lat="43.2082231" lon="12.7663171"><ele>471.4</ele><time>2026-05-02T12:12:43.954Z</time></trkpt><trkpt lat="43.2082206" lon="12.7664326"><ele>471.8</ele><time>2026-05-02T12:12:44.976Z</time></trkpt><trkpt lat="43.2082177" lon="12.7665387"><ele>472.19999999999993</ele><time>2026-05-02T12:12:45.968Z</time></trkpt><trkpt lat="43.2082163" lon="12.7666607"><ele>472.59999999999997</ele><time>2026-05-02T12:12:46.973Z</time></trkpt><trkpt lat="43.2082109" lon="12.76682"><ele>473.0</ele><time>2026-05-02T12:12:47.972Z</time></trkpt><trkpt lat="43.2082001" lon="12.7670039"><ele>473.66666666666663</ele><time>2026-05-02T12:12:48.968Z</time></trkpt><trkpt lat="43.208189" lon="12.7672233"><ele>474.33333333333337</ele><time>2026-05-02T12:12:49.97Z</time></trkpt><trkpt lat="43.2081781" lon="12.7674507"><ele>475.0</ele><time>2026-05-02T12:12:50.976Z</time></trkpt><trkpt lat="43.2081713" lon="12.7676618"><ele>475.5</ele><time>2026-05-02T12:12:51.968Z</time></trkpt><trkpt lat="43.2081643" lon="12.7678468"><ele>476.0</ele><time>2026-05-02T12:12:52.965Z</time></trkpt><trkpt lat="43.2081555" lon="12.7680159"><ele>476.5</ele><time>2026-05-02T12:12:53.966Z</time></trkpt><trkpt lat="43.2081461" lon="12.7681636"><ele>477.0</ele><time>2026-05-02T12:12:54.977Z</time></trkpt><trkpt lat="43.2081399" lon="12.768295"><ele>477.8333333333333</ele><time>2026-05-02T12:12:55.967Z</time></trkpt><trkpt lat="43.2081279" lon="12.7684097"><ele>478.66666666666663</ele><time>2026-05-02T12:12:56.981Z</time></trkpt><trkpt lat="43.2081269" lon="12.7685046"><ele>479.5</ele><time>2026-05-02T12:12:57.979Z</time></trkpt><trkpt lat="43.2081135" lon="12.7686137"><ele>480.3333333333333</ele><time>2026-05-02T12:12:59.962Z</time></trkpt><trkpt lat="43.2080968" lon="12.7687791"><ele>481.16666666666663</ele><time>2026-05-02T12:15:29.973Z</time></trkpt><trkpt lat="43.2080971" lon="12.7688689"><ele>482.0</ele><time>2026-05-02T12:15:30.971Z</time></trkpt><trkpt lat="43.2080955" lon="12.7690245"><ele>482.0</ele><time>2026-05-02T12:15:32.99Z</time></trkpt><trkpt lat="43.2080758" lon="12.7691244"><ele>482.00000000000006</ele><time>2026-05-02T12:15:34.977Z</time></trkpt><trkpt lat="43.2080082" lon="12.769207"><ele>482.00000000000006</ele><time>2026-05-02T12:15:36.973Z</time></trkpt><trkpt lat="43.2079334" lon="12.769255"><ele>482.0</ele><time>2026-05-02T12:15:37.97Z</time></trkpt><trkpt lat="43.2078335" lon="12.7693043"><ele>482.0</ele><time>2026-05-02T12:15:38.97Z</time></trkpt><trkpt lat="43.2077196" lon="12.7693519"><ele>482.0</ele><time>2026-05-02T12:15:39.967Z</time></trkpt><trkpt lat="43.207609" lon="12.7693971"><ele>482.0</ele><time>2026-05-02T12:15:40.964Z</time></trkpt><trkpt lat="43.207515" lon="12.7694438"><ele>482.0</ele><time>2026-05-02T12:15:41.972Z</time></trkpt><trkpt lat="43.2074083" lon="12.7694998"><ele>482.0</ele><time>2026-05-02T12:15:42.971Z</time></trkpt><trkpt lat="43.2072926" lon="12.7695584"><ele>482.0</ele><time>2026-05-02T12:15:43.964Z</time></trkpt><trkpt lat="43.2071765" lon="12.7696211"><ele>482.0</ele><time>2026-05-02T12:15:44.969Z</time></trkpt><trkpt lat="43.207063" lon="12.7696767"><ele>482.0</ele><time>2026-05-02T12:15:45.977Z</time></trkpt><trkpt lat="43.2069485" lon="12.7697353"><ele>482.0</ele><time>2026-05-02T12:15:46.966Z</time></trkpt><trkpt lat="43.206816" lon="12.7698036"><ele>482.0</ele><time>2026-05-02T12:15:47.967Z</time></trkpt><trkpt lat="43.2066717" lon="12.7698804"><ele>482.0</ele><time>2026-05-02T12:15:48.968Z</time></trkpt><trkpt lat="43.2065195" lon="12.7699589"><ele>482.0</ele><time>2026-05-02T12:15:49.974Z</time></trkpt><trkpt lat="43.2063581" lon="12.7700458"><ele>482.3333333333333</ele><time>2026-05-02T12:15:50.962Z</time></trkpt><trkpt lat="43.2061989" lon="12.7701256"><ele>482.66666666666663</ele><time>2026-05-02T12:15:51.964Z</time></trkpt><trkpt lat="43.2060392" lon="12.7702037"><ele>483.0</ele><time>2026-05-02T12:15:52.966Z</time></trkpt><trkpt lat="43.205883" lon="12.7702824"><ele>481.33333333333337</ele><time>2026-05-02T12:15:53.97Z</time></trkpt><trkpt lat="43.2057317" lon="12.7703532"><ele>479.6666666666667</ele><time>2026-05-02T12:15:54.974Z</time></trkpt><trkpt lat="43.2055881" lon="12.7704227"><ele>478.0</ele><time>2026-05-02T12:15:55.98Z</time></trkpt><trkpt lat="43.2054453" lon="12.7704972"><ele>477.33333333333337</ele><time>2026-05-02T12:15:56.983Z</time></trkpt><trkpt lat="43.205287" lon="12.7705742"><ele>476.66666666666663</ele><time>2026-05-02T12:15:57.972Z</time></trkpt><trkpt lat="43.205132" lon="12.7706534"><ele>476.0</ele><time>2026-05-02T12:15:58.975Z</time></trkpt><trkpt lat="43.2049937" lon="12.7707136"><ele>476.0</ele><time>2026-05-02T12:15:59.976Z</time></trkpt><trkpt lat="43.2048688" lon="12.7707748"><ele>476.0</ele><time>2026-05-02T12:16:00.974Z</time></trkpt><trkpt lat="43.2047504" lon="12.7708308"><ele>476.0</ele><time>2026-05-02T12:16:01.97Z</time></trkpt><trkpt lat="43.2046421" lon="12.7708842"><ele>476.0</ele><time>2026-05-02T12:16:02.968Z</time></trkpt><trkpt lat="43.204542" lon="12.7709322"><ele>475.6</ele><time>2026-05-02T12:16:03.966Z</time></trkpt><trkpt lat="43.2044471" lon="12.7709755"><ele>475.20000000000005</ele><time>2026-05-02T12:16:04.969Z</time></trkpt><trkpt lat="43.204355" lon="12.7710159"><ele>474.79999999999995</ele><time>2026-05-02T12:16:05.981Z</time></trkpt><trkpt lat="43.2042736" lon="12.7710515"><ele>474.4</ele><time>2026-05-02T12:16:06.973Z</time></trkpt><trkpt lat="43.2042026" lon="12.77109"><ele>474.0</ele><time>2026-05-02T12:16:07.969Z</time></trkpt><trkpt lat="43.2041265" lon="12.7711815"><ele>474.0</ele><time>2026-05-02T12:16:09.968Z</time></trkpt><trkpt lat="43.204135" lon="12.7713085"><ele>474.0</ele><time>2026-05-02T12:16:11.975Z</time></trkpt><trkpt lat="43.2041676" lon="12.7713882"><ele>474.0</ele><time>2026-05-02T12:16:12.971Z</time></trkpt><trkpt lat="43.2042219" lon="12.7714714"><ele>474.0</ele><time>2026-05-02T12:16:13.961Z</time></trkpt><trkpt lat="43.204263" lon="12.7716078"><ele>474.0</ele><time>2026-05-02T12:16:14.968Z</time></trkpt><trkpt lat="43.2043137" lon="12.7717624"><ele>475.33333333333337</ele><time>2026-05-02T12:16:15.976Z</time></trkpt><trkpt lat="43.2043567" lon="12.7719452"><ele>476.6666666666667</ele><time>2026-05-02T12:16:16.971Z</time></trkpt><trkpt lat="43.2043897" lon="12.7721545"><ele>478.0</ele><time>2026-05-02T12:16:17.964Z</time></trkpt><trkpt lat="43.2044162" lon="12.7723742"><ele>478.0</ele><time>2026-05-02T12:16:18.967Z</time></trkpt><trkpt lat="43.2044217" lon="12.7725884"><ele>478.0</ele><time>2026-05-02T12:16:19.962Z</time></trkpt><trkpt lat="43.2044366" lon="12.7727967"><ele>478.0</ele><time>2026-05-02T12:16:20.979Z</time></trkpt><trkpt lat="43.2044453" lon="12.7730087"><ele>478.25</ele><time>2026-05-02T12:16:21.958Z</time></trkpt><trkpt lat="43.2044551" lon="12.7732123"><ele>478.5</ele><time>2026-05-02T12:16:22.956Z</time></trkpt><trkpt lat="43.2044673" lon="12.7733925"><ele>478.75</ele><time>2026-05-02T12:16:23.968Z</time></trkpt><trkpt lat="43.2044801" lon="12.7735615"><ele>479.0</ele><time>2026-05-02T12:16:24.982Z</time></trkpt><trkpt lat="43.2045029" lon="12.7737251"><ele>479.0</ele><time>2026-05-02T12:16:25.965Z</time></trkpt><trkpt lat="43.204533" lon="12.7738928"><ele>479.0</ele><time>2026-05-02T12:16:26.965Z</time></trkpt><trkpt lat="43.2045777" lon="12.7740711"><ele>479.0</ele><time>2026-05-02T12:16:27.962Z</time></trkpt><trkpt lat="43.2046343" lon="12.774257"><ele>479.0</ele><time>2026-05-02T12:16:28.969Z</time></trkpt><trkpt lat="43.2046859" lon="12.7744399"><ele>479.0</ele><time>2026-05-02T12:16:29.972Z</time></trkpt><trkpt lat="43.2047374" lon="12.7746185"><ele>479.0</ele><time>2026-05-02T12:16:30.978Z</time></trkpt><trkpt lat="43.2047835" lon="12.7747905"><ele>479.0</ele><time>2026-05-02T12:16:31.966Z</time></trkpt><trkpt lat="43.204826" lon="12.7749554"><ele>479.0</ele><time>2026-05-02T12:16:32.966Z</time></trkpt><trkpt lat="43.2048628" lon="12.7750998"><ele>480.0</ele><time>2026-05-02T12:16:33.964Z</time></trkpt><trkpt lat="43.204894" lon="12.775219"><ele>481.0</ele><time>2026-05-02T12:16:34.975Z</time></trkpt><trkpt lat="43.2049289" lon="12.7753304"><ele>482.0</ele><time>2026-05-02T12:16:35.971Z</time></trkpt><trkpt lat="43.2049631" lon="12.7754461"><ele>483.0</ele><time>2026-05-02T12:16:36.98Z</time></trkpt><trkpt lat="43.2049978" lon="12.7755678"><ele>484.0</ele><time>2026-05-02T12:16:37.968Z</time></trkpt><trkpt lat="43.205029" lon="12.7756899"><ele>484.0</ele><time>2026-05-02T12:16:38.971Z</time></trkpt><trkpt lat="43.2050594" lon="12.7758304"><ele>484.0</ele><time>2026-05-02T12:16:39.964Z</time></trkpt><trkpt lat="43.2050846" lon="12.7759893"><ele>484.0</ele><time>2026-05-02T12:16:40.974Z</time></trkpt><trkpt lat="43.2051127" lon="12.7761478"><ele>484.0</ele><time>2026-05-02T12:16:41.966Z</time></trkpt><trkpt lat="43.2051451" lon="12.7763099"><ele>484.25</ele><time>2026-05-02T12:16:42.98Z</time></trkpt><trkpt lat="43.2051755" lon="12.7764683"><ele>484.5</ele><time>2026-05-02T12:16:43.979Z</time></trkpt><trkpt lat="43.2052159" lon="12.7766282"><ele>484.75</ele><time>2026-05-02T12:16:44.972Z</time></trkpt><trkpt lat="43.2052642" lon="12.7767766"><ele>485.0</ele><time>2026-05-02T12:16:45.97Z</time></trkpt><trkpt lat="43.205313" lon="12.7769078"><ele>485.2</ele><time>2026-05-02T12:16:46.966Z</time></trkpt><trkpt lat="43.2053637" lon="12.7770386"><ele>485.4</ele><time>2026-05-02T12:16:47.977Z</time></trkpt><trkpt lat="43.2054142" lon="12.7771679"><ele>485.6</ele><time>2026-05-02T12:16:48.964Z</time></trkpt><trkpt lat="43.2054662" lon="12.7773009"><ele>485.8</ele><time>2026-05-02T12:16:49.964Z</time></trkpt><trkpt lat="43.2055189" lon="12.7774369"><ele>486.0</ele><time>2026-05-02T12:16:50.96Z</time></trkpt><trkpt lat="43.2055725" lon="12.7775773"><ele>486.4</ele><time>2026-05-02T12:16:51.967Z</time></trkpt><trkpt lat="43.2056395" lon="12.7777209"><ele>486.8</ele><time>2026-05-02T12:16:52.966Z</time></trkpt><trkpt lat="43.2056978" lon="12.7778544"><ele>487.19999999999993</ele><time>2026-05-02T12:16:53.966Z</time></trkpt><trkpt lat="43.2057506" lon="12.7779728"><ele>487.59999999999997</ele><time>2026-05-02T12:16:54.964Z</time></trkpt><trkpt lat="43.2058004" lon="12.778082"><ele>488.0</ele><time>2026-05-02T12:16:55.963Z</time></trkpt><trkpt lat="43.2058492" lon="12.7781955"><ele>488.79999999999995</ele><time>2026-05-02T12:16:56.966Z</time></trkpt><trkpt lat="43.2058956" lon="12.7783178"><ele>489.59999999999997</ele><time>2026-05-02T12:16:57.968Z</time></trkpt><trkpt lat="43.2059482" lon="12.7784454"><ele>490.40000000000003</ele><time>2026-05-02T12:16:58.958Z</time></trkpt><trkpt lat="43.2060016" lon="12.7785862"><ele>491.20000000000005</ele><time>2026-05-02T12:16:59.963Z</time></trkpt><trkpt lat="43.2060603" lon="12.7787393"><ele>492.0</ele><time>2026-05-02T12:17:00.963Z</time></trkpt><trkpt lat="43.2061189" lon="12.7788903"><ele>492.0</ele><time>2026-05-02T12:17:01.969Z</time></trkpt><trkpt lat="43.206178" lon="12.7790458"><ele>492.0</ele><time>2026-05-02T12:17:02.974Z</time></trkpt><trkpt lat="43.2062271" lon="12.7792132"><ele>492.0</ele><time>2026-05-02T12:17:03.964Z</time></trkpt><trkpt lat="43.2062742" lon="12.7793758"><ele>492.0</ele><time>2026-05-02T12:17:04.963Z</time></trkpt><trkpt lat="43.2063191" lon="12.7795445"><ele>492.5</ele><time>2026-05-02T12:17:05.969Z</time></trkpt><trkpt lat="43.2063677" lon="12.7797236"><ele>493.0</ele><time>2026-05-02T12:17:06.97Z</time></trkpt><trkpt lat="43.2064066" lon="12.7799003"><ele>493.5</ele><time>2026-05-02T12:17:07.966Z</time></trkpt><trkpt lat="43.2064416" lon="12.7800764"><ele>494.0</ele><time>2026-05-02T12:17:08.962Z</time></trkpt><trkpt lat="43.2064676" lon="12.7802434"><ele>494.25</ele><time>2026-05-02T12:17:09.971Z</time></trkpt><trkpt lat="43.206492" lon="12.7804101"><ele>494.5</ele><time>2026-05-02T12:17:10.975Z</time></trkpt><trkpt lat="43.206514" lon="12.7805795"><ele>494.75</ele><time>2026-05-02T12:17:11.965Z</time></trkpt><trkpt lat="43.2065329" lon="12.780754"><ele>495.0</ele><time>2026-05-02T12:17:12.963Z</time></trkpt><trkpt lat="43.2065482" lon="12.7809361"><ele>496.25</ele><time>2026-05-02T12:17:13.972Z</time></trkpt><trkpt lat="43.206569" lon="12.7811182"><ele>497.5</ele><time>2026-05-02T12:17:14.968Z</time></trkpt><trkpt lat="43.2065867" lon="12.7813063"><ele>498.75</ele><time>2026-05-02T12:17:15.968Z</time></trkpt><trkpt lat="43.2066" lon="12.7814937"><ele>500.0</ele><time>2026-05-02T12:17:16.964Z</time></trkpt><trkpt lat="43.2066107" lon="12.7816821"><ele>500.5</ele><time>2026-05-02T12:17:17.965Z</time></trkpt><trkpt lat="43.2066218" lon="12.7818662"><ele>501.0</ele><time>2026-05-02T12:17:18.967Z</time></trkpt><trkpt lat="43.206638" lon="12.7820422"><ele>501.5</ele><time>2026-05-02T12:17:19.967Z</time></trkpt><trkpt lat="43.2066499" lon="12.7822065"><ele>502.0</ele><time>2026-05-02T12:17:20.977Z</time></trkpt><trkpt lat="43.2066619" lon="12.782358"><ele>502.0</ele><time>2026-05-02T12:17:21.974Z</time></trkpt><trkpt lat="43.2066793" lon="12.7824867"><ele>502.00000000000006</ele><time>2026-05-02T12:17:22.972Z</time></trkpt><trkpt lat="43.2066921" lon="12.7825965"><ele>502.00000000000006</ele><time>2026-05-02T12:17:23.965Z</time></trkpt><trkpt lat="43.2067105" lon="12.7826921"><ele>502.0</ele><time>2026-05-02T12:17:24.972Z</time></trkpt><trkpt lat="43.2067525" lon="12.7828421"><ele>502.0</ele><time>2026-05-02T12:17:26.969Z</time></trkpt><trkpt lat="43.2068432" lon="12.7829393"><ele>502.50000000000006</ele><time>2026-05-02T12:17:28.967Z</time></trkpt><trkpt lat="43.2069107" lon="12.7829602"><ele>503.0</ele><time>2026-05-02T12:17:29.975Z</time></trkpt><trkpt lat="43.2069979" lon="12.7829807"><ele>503.5</ele><time>2026-05-02T12:17:30.968Z</time></trkpt><trkpt lat="43.2070892" lon="12.7830022"><ele>504.0</ele><time>2026-05-02T12:17:31.964Z</time></trkpt><trkpt lat="43.2071742" lon="12.7830498"><ele>504.50000000000006</ele><time>2026-05-02T12:17:32.983Z</time></trkpt><trkpt lat="43.2072371" lon="12.7831166"><ele>505.0</ele><time>2026-05-02T12:17:33.973Z</time></trkpt><trkpt lat="43.2072783" lon="12.7832073"><ele>505.0</ele><time>2026-05-02T12:17:34.978Z</time></trkpt><trkpt lat="43.2072887" lon="12.783323"><ele>505.0</ele><time>2026-05-02T12:17:35.981Z</time></trkpt><trkpt lat="43.2072747" lon="12.7834543"><ele>505.0</ele><time>2026-05-02T12:17:36.97Z</time></trkpt><trkpt lat="43.2072573" lon="12.7836214"><ele>505.0</ele><time>2026-05-02T12:17:37.978Z</time></trkpt><trkpt lat="43.2072516" lon="12.7838158"><ele>505.0</ele><time>2026-05-02T12:17:38.973Z</time></trkpt><trkpt lat="43.2072556" lon="12.7840011"><ele>506.25</ele><time>2026-05-02T12:17:39.968Z</time></trkpt><trkpt lat="43.2072565" lon="12.784171"><ele>507.5</ele><time>2026-05-02T12:17:40.989Z</time></trkpt><trkpt lat="43.2072558" lon="12.7843388"><ele>508.75</ele><time>2026-05-02T12:17:41.979Z</time></trkpt><trkpt lat="43.2072525" lon="12.7845084"><ele>510.0</ele><time>2026-05-02T12:17:42.986Z</time></trkpt><trkpt lat="43.2072592" lon="12.7846605"><ele>511.0</ele><time>2026-05-02T12:17:43.972Z</time></trkpt><trkpt lat="43.207267" lon="12.7848008"><ele>512.0</ele><time>2026-05-02T12:17:44.968Z</time></trkpt><trkpt lat="43.2072754" lon="12.7849494"><ele>513.0</ele><time>2026-05-02T12:17:45.97Z</time></trkpt><trkpt lat="43.2072807" lon="12.7851115"><ele>514.0</ele><time>2026-05-02T12:17:46.968Z</time></trkpt><trkpt lat="43.2072785" lon="12.7852692"><ele>515.0</ele><time>2026-05-02T12:17:47.971Z</time></trkpt><trkpt lat="43.2072783" lon="12.7854128"><ele>516.25</ele><time>2026-05-02T12:17:48.969Z</time></trkpt><trkpt lat="43.2072792" lon="12.7855634"><ele>517.5</ele><time>2026-05-02T12:17:49.966Z</time></trkpt><trkpt lat="43.207285" lon="12.7857331"><ele>518.75</ele><time>2026-05-02T12:17:50.973Z</time></trkpt><trkpt lat="43.2072936" lon="12.785898"><ele>520.0</ele><time>2026-05-02T12:17:51.973Z</time></trkpt><trkpt lat="43.2073008" lon="12.7860383"><ele>520.8333333333334</ele><time>2026-05-02T12:17:52.974Z</time></trkpt><trkpt lat="43.2073062" lon="12.7861487"><ele>521.6666666666667</ele><time>2026-05-02T12:17:53.971Z</time></trkpt><trkpt lat="43.2073179" lon="12.7862479"><ele>522.5</ele><time>2026-05-02T12:17:54.97Z</time></trkpt><trkpt lat="43.2073253" lon="12.7863827"><ele>523.3333333333334</ele><time>2026-05-02T12:17:56.971Z</time></trkpt><trkpt lat="43.207336" lon="12.7864883"><ele>524.1666666666666</ele><time>2026-05-02T12:17:59.969Z</time></trkpt><trkpt lat="43.2073426" lon="12.7865895"><ele>525.0</ele><time>2026-05-02T12:18:07.971Z</time></trkpt><trkpt lat="43.2073592" lon="12.7867829"><ele>526.4</ele><time>2026-05-02T12:18:09.971Z</time></trkpt><trkpt lat="43.2073842" lon="12.7869204"><ele>527.8</ele><time>2026-05-02T12:18:10.963Z</time></trkpt><trkpt lat="43.2074115" lon="12.787075"><ele>529.2</ele><time>2026-05-02T12:18:11.972Z</time></trkpt><trkpt lat="43.2074406" lon="12.7872194"><ele>530.6</ele><time>2026-05-02T12:18:12.973Z</time></trkpt><trkpt lat="43.2074695" lon="12.7873375"><ele>532.0</ele><time>2026-05-02T12:18:13.97Z</time></trkpt><trkpt lat="43.2075059" lon="12.7874462"><ele>532.0</ele><time>2026-05-02T12:18:14.96Z</time></trkpt><trkpt lat="43.2075277" lon="12.7875599"><ele>532.0</ele><time>2026-05-02T12:18:15.997Z</time></trkpt><trkpt lat="43.2075405" lon="12.7876751"><ele>532.0</ele><time>2026-05-02T12:18:16.998Z</time></trkpt><trkpt lat="43.2075479" lon="12.7878018"><ele>532.0</ele><time>2026-05-02T12:18:17.964Z</time></trkpt><trkpt lat="43.2075548" lon="12.7879208"><ele>532.0</ele><time>2026-05-02T12:18:18.962Z</time></trkpt><trkpt lat="43.207555" lon="12.7880373"><ele>532.0</ele><time>2026-05-02T12:18:19.96Z</time></trkpt><trkpt lat="43.2075514" lon="12.7881518"><ele>532.6666666666667</ele><time>2026-05-02T12:18:20.981Z</time></trkpt><trkpt lat="43.207546" lon="12.7882604"><ele>533.3333333333334</ele><time>2026-05-02T12:18:21.969Z</time></trkpt><trkpt lat="43.2075491" lon="12.7883702"><ele>534.0</ele><time>2026-05-02T12:18:22.968Z</time></trkpt><trkpt lat="43.2075551" lon="12.7884889"><ele>534.6666666666666</ele><time>2026-05-02T12:18:23.974Z</time></trkpt><trkpt lat="43.2075597" lon="12.7886125"><ele>535.3333333333333</ele><time>2026-05-02T12:18:24.974Z</time></trkpt><trkpt lat="43.2075742" lon="12.7887315"><ele>536.0</ele><time>2026-05-02T12:18:25.965Z</time></trkpt><trkpt lat="43.2075961" lon="12.7888567"><ele>536.8333333333333</ele><time>2026-05-02T12:18:26.957Z</time></trkpt><trkpt lat="43.2076102" lon="12.7889736"><ele>537.6666666666666</ele><time>2026-05-02T12:18:27.966Z</time></trkpt><trkpt lat="43.2076373" lon="12.7890779"><ele>538.5</ele><time>2026-05-02T12:18:28.968Z</time></trkpt><trkpt lat="43.2076662" lon="12.7891738"><ele>539.3333333333334</ele><time>2026-05-02T12:18:29.977Z</time></trkpt><trkpt lat="43.207686" lon="12.7892737"><ele>540.1666666666667</ele><time>2026-05-02T12:18:30.974Z</time></trkpt><trkpt lat="43.2077084" lon="12.789373"><ele>541.0</ele><time>2026-05-02T12:18:31.966Z</time></trkpt><trkpt lat="43.2077315" lon="12.7894615"><ele>542.0</ele><time>2026-05-02T12:18:32.965Z</time></trkpt><trkpt lat="43.2077616" lon="12.789539"><ele>543.0</ele><time>2026-05-02T12:18:33.966Z</time></trkpt><trkpt lat="43.2077977" lon="12.7896175"><ele>544.0</ele><time>2026-05-02T12:18:34.978Z</time></trkpt><trkpt lat="43.2078496" lon="12.7896938"><ele>545.0</ele><time>2026-05-02T12:18:35.957Z</time></trkpt><trkpt lat="43.2079134" lon="12.7897722"><ele>546.0</ele><time>2026-05-02T12:18:36.958Z</time></trkpt><trkpt lat="43.2079825" lon="12.7898626"><ele>547.0</ele><time>2026-05-02T12:18:37.979Z</time></trkpt><trkpt lat="43.2080463" lon="12.7899687"><ele>547.0</ele><time>2026-05-02T12:18:38.964Z</time></trkpt><trkpt lat="43.208108" lon="12.7900843"><ele>547.0</ele><time>2026-05-02T12:18:39.964Z</time></trkpt><trkpt lat="43.2081734" lon="12.7902199"><ele>547.0</ele><time>2026-05-02T12:18:40.971Z</time></trkpt><trkpt lat="43.2082237" lon="12.79036"><ele>547.0</ele><time>2026-05-02T12:18:41.974Z</time></trkpt><trkpt lat="43.2082627" lon="12.7904998"><ele>547.0</ele><time>2026-05-02T12:18:42.981Z</time></trkpt><trkpt lat="43.2082935" lon="12.7906446"><ele>547.0</ele><time>2026-05-02T12:18:43.972Z</time></trkpt><trkpt lat="43.2083204" lon="12.7907918"><ele>547.0</ele><time>2026-05-02T12:18:44.975Z</time></trkpt><trkpt lat="43.2083483" lon="12.7909301"><ele>547.0</ele><time>2026-05-02T12:18:45.964Z</time></trkpt><trkpt lat="43.2083736" lon="12.7910561"><ele>547.0</ele><time>2026-05-02T12:18:46.981Z</time></trkpt><trkpt lat="43.2084009" lon="12.7911729"><ele>547.0</ele><time>2026-05-02T12:18:47.98Z</time></trkpt><trkpt lat="43.2084313" lon="12.7913021"><ele>548.25</ele><time>2026-05-02T12:18:48.978Z</time></trkpt><trkpt lat="43.20847" lon="12.7914338"><ele>549.5</ele><time>2026-05-02T12:18:49.977Z</time></trkpt><trkpt lat="43.2085119" lon="12.7915817"><ele>550.75</ele><time>2026-05-02T12:18:50.975Z</time></trkpt><trkpt lat="43.2085477" lon="12.7917481"><ele>552.0</ele><time>2026-05-02T12:18:51.969Z</time></trkpt><trkpt lat="43.2085788" lon="12.7919093"><ele>553.75</ele><time>2026-05-02T12:18:52.971Z</time></trkpt><trkpt lat="43.2085905" lon="12.7920758"><ele>555.5</ele><time>2026-05-02T12:18:53.979Z</time></trkpt><trkpt lat="43.2085916" lon="12.7922308"><ele>557.25</ele><time>2026-05-02T12:18:54.972Z</time></trkpt><trkpt lat="43.2085829" lon="12.7924022"><ele>559.0</ele><time>2026-05-02T12:18:55.967Z</time></trkpt><trkpt lat="43.2085648" lon="12.7925729"><ele>560.1666666666667</ele><time>2026-05-02T12:18:56.968Z</time></trkpt><trkpt lat="43.2085459" lon="12.7927211"><ele>561.3333333333334</ele><time>2026-05-02T12:18:57.964Z</time></trkpt><trkpt lat="43.2085248" lon="12.7928377"><ele>562.5</ele><time>2026-05-02T12:18:58.975Z</time></trkpt><trkpt lat="43.2085092" lon="12.7929355"><ele>563.6666666666666</ele><time>2026-05-02T12:18:59.978Z</time></trkpt><trkpt lat="43.2084939" lon="12.7930256"><ele>564.8333333333333</ele><time>2026-05-02T12:19:00.962Z</time></trkpt><trkpt lat="43.2084701" lon="12.7931165"><ele>566.0</ele><time>2026-05-02T12:19:01.966Z</time></trkpt><trkpt lat="43.2084289" lon="12.7932266"><ele>566.0</ele><time>2026-05-02T12:19:02.97Z</time></trkpt><trkpt lat="43.20837" lon="12.7933561"><ele>566.0</ele><time>2026-05-02T12:19:03.958Z</time></trkpt><trkpt lat="43.2083118" lon="12.7935136"><ele>566.0</ele><time>2026-05-02T12:19:04.967Z</time></trkpt><trkpt lat="43.2082382" lon="12.7936808"><ele>566.0</ele><time>2026-05-02T12:19:05.962Z</time></trkpt><trkpt lat="43.2081738" lon="12.7938178"><ele>570.5</ele><time>2026-05-02T12:19:06.965Z</time></trkpt><trkpt lat="43.208122" lon="12.793919"><ele>575.0</ele><time>2026-05-02T12:19:07.967Z</time></trkpt><trkpt lat="43.2080841" lon="12.7940098"><ele>579.5</ele><time>2026-05-02T12:19:08.965Z</time></trkpt><trkpt lat="43.2080604" lon="12.7941067"><ele>584.0</ele><time>2026-05-02T12:19:09.964Z</time></trkpt><trkpt lat="43.2080613" lon="12.7942309"><ele>588.5</ele><time>2026-05-02T12:19:10.967Z</time></trkpt><trkpt lat="43.208085" lon="12.7943714"><ele>593.0</ele><time>2026-05-02T12:19:11.972Z</time></trkpt><trkpt lat="43.2081329" lon="12.7945165"><ele>590.75</ele><time>2026-05-02T12:19:12.983Z</time></trkpt><trkpt lat="43.208198" lon="12.7946674"><ele>588.5</ele><time>2026-05-02T12:19:13.969Z</time></trkpt><trkpt lat="43.2082858" lon="12.7948314"><ele>586.25</ele><time>2026-05-02T12:19:14.967Z</time></trkpt><trkpt lat="43.2083836" lon="12.7949873"><ele>584.0</ele><time>2026-05-02T12:19:15.972Z</time></trkpt><trkpt lat="43.2084813" lon="12.79512"><ele>586.5</ele><time>2026-05-02T12:19:16.978Z</time></trkpt><trkpt lat="43.2085684" lon="12.7952291"><ele>589.0</ele><time>2026-05-02T12:19:17.972Z</time></trkpt><trkpt lat="43.2086554" lon="12.7953439"><ele>591.5</ele><time>2026-05-02T12:19:18.965Z</time></trkpt><trkpt lat="43.2087278" lon="12.795458"><ele>594.0</ele><time>2026-05-02T12:19:19.973Z</time></trkpt><trkpt lat="43.2087888" lon="12.7955887"><ele>594.0</ele><time>2026-05-02T12:19:20.974Z</time></trkpt><trkpt lat="43.2088321" lon="12.7957184"><ele>594.0</ele><time>2026-05-02T12:19:21.976Z</time></trkpt><trkpt lat="43.2088656" lon="12.7958728"><ele>594.0</ele><time>2026-05-02T12:19:22.969Z</time></trkpt><trkpt lat="43.2088941" lon="12.7960394"><ele>594.0</ele><time>2026-05-02T12:19:23.967Z</time></trkpt><trkpt lat="43.208928" lon="12.7961888"><ele>597.0</ele><time>2026-05-02T12:19:24.96Z</time></trkpt><trkpt lat="43.2089755" lon="12.7963227"><ele>600.0</ele><time>2026-05-02T12:19:25.96Z</time></trkpt><trkpt lat="43.2090445" lon="12.7964626"><ele>603.0</ele><time>2026-05-02T12:19:26.968Z</time></trkpt><trkpt lat="43.2091204" lon="12.7966087"><ele>606.0</ele><time>2026-05-02T12:19:27.96Z</time></trkpt><trkpt lat="43.2092076" lon="12.7967544"><ele>607.6</ele><time>2026-05-02T12:19:28.964Z</time></trkpt><trkpt lat="43.2092908" lon="12.7968915"><ele>609.2</ele><time>2026-05-02T12:19:29.969Z</time></trkpt><trkpt lat="43.2093586" lon="12.7970129"><ele>610.8</ele><time>2026-05-02T12:19:30.96Z</time></trkpt><trkpt lat="43.2094021" lon="12.7971186"><ele>612.4</ele><time>2026-05-02T12:19:31.966Z</time></trkpt><trkpt lat="43.2094442" lon="12.7972417"><ele>614.0</ele><time>2026-05-02T12:19:32.962Z</time></trkpt><trkpt lat="43.2094646" lon="12.7973634"><ele>614.0</ele><time>2026-05-02T12:19:33.972Z</time></trkpt><trkpt lat="43.2094565" lon="12.7974743"><ele>614.0</ele><time>2026-05-02T12:19:34.962Z</time></trkpt><trkpt lat="43.2093866" lon="12.7975771"><ele>614.0</ele><time>2026-05-02T12:19:36.958Z</time></trkpt><trkpt lat="43.2093223" lon="12.7976113"><ele>614.0</ele><time>2026-05-02T12:19:37.964Z</time></trkpt><trkpt lat="43.2092431" lon="12.7976121"><ele>614.0</ele><time>2026-05-02T12:19:38.968Z</time></trkpt><trkpt lat="43.2091558" lon="12.7975874"><ele>614.0</ele><time>2026-05-02T12:19:39.976Z</time></trkpt><trkpt lat="43.2090733" lon="12.7975564"><ele>615.2</ele><time>2026-05-02T12:19:40.976Z</time></trkpt><trkpt lat="43.2089871" lon="12.7975264"><ele>616.4</ele><time>2026-05-02T12:19:41.975Z</time></trkpt><trkpt lat="43.2088795" lon="12.7975857"><ele>617.6</ele><time>2026-05-02T12:19:42.966Z</time></trkpt><trkpt lat="43.2087728" lon="12.7976551"><ele>618.8</ele><time>2026-05-02T12:19:43.968Z</time></trkpt><trkpt lat="43.2086881" lon="12.7977046"><ele>620.0</ele><time>2026-05-02T12:19:44.964Z</time></trkpt><trkpt lat="43.2086147" lon="12.7977594"><ele>623.6</ele><time>2026-05-02T12:19:45.984Z</time></trkpt><trkpt lat="43.2085632" lon="12.7978359"><ele>627.2</ele><time>2026-05-02T12:19:46.964Z</time></trkpt><trkpt lat="43.2085357" lon="12.7979481"><ele>630.8</ele><time>2026-05-02T12:19:47.965Z</time></trkpt><trkpt lat="43.2085207" lon="12.7980938"><ele>634.4</ele><time>2026-05-02T12:19:48.958Z</time></trkpt><trkpt lat="43.2084994" lon="12.798241"><ele>638.0</ele><time>2026-05-02T12:19:49.961Z</time></trkpt><trkpt lat="43.2084543" lon="12.7983818"><ele>643.5999999999999</ele><time>2026-05-02T12:19:50.976Z</time></trkpt><trkpt lat="43.2083873" lon="12.7985119"><ele>649.1999999999999</ele><time>2026-05-02T12:19:51.955Z</time></trkpt><trkpt lat="43.2083195" lon="12.7985949"><ele>654.8</ele><time>2026-05-02T12:19:52.963Z</time></trkpt><trkpt lat="43.2082192" lon="12.798629"><ele>660.4</ele><time>2026-05-02T12:19:53.961Z</time></trkpt><trkpt lat="43.2081193" lon="12.7986357"><ele>666.0</ele><time>2026-05-02T12:19:54.972Z</time></trkpt><trkpt lat="43.2079978" lon="12.7986008"><ele>666.0</ele><time>2026-05-02T12:19:55.951Z</time></trkpt><trkpt lat="43.2078796" lon="12.7985602"><ele>666.0</ele><time>2026-05-02T12:19:56.965Z</time></trkpt><trkpt lat="43.2077766" lon="12.798551"><ele>666.0</ele><time>2026-05-02T12:19:57.953Z</time></trkpt><trkpt lat="43.2076998" lon="12.7985759"><ele>666.0</ele><time>2026-05-02T12:19:58.967Z</time></trkpt><trkpt lat="43.2076124" lon="12.7987199"><ele>666.0</ele><time>2026-05-02T12:20:00.966Z</time></trkpt><trkpt lat="43.2075545" lon="12.7988337"><ele>666.0</ele><time>2026-05-02T12:20:01.96Z</time></trkpt><trkpt lat="43.2074917" lon="12.7989553"><ele>666.0</ele><time>2026-05-02T12:20:02.975Z</time></trkpt><trkpt lat="43.2074252" lon="12.7990561"><ele>666.0</ele><time>2026-05-02T12:20:03.978Z</time></trkpt><trkpt lat="43.207359" lon="12.7991071"><ele>666.0</ele><time>2026-05-02T12:20:04.971Z</time></trkpt><trkpt lat="43.2072905" lon="12.7991065"><ele>666.0</ele><time>2026-05-02T12:20:05.958Z</time></trkpt><trkpt lat="43.2072303" lon="12.799078"><ele>666.0</ele><time>2026-05-02T12:20:06.961Z</time></trkpt><trkpt lat="43.2071626" lon="12.7989237"><ele>672.4</ele><time>2026-05-02T12:20:08.982Z</time></trkpt><trkpt lat="43.2071535" lon="12.7987999"><ele>678.8</ele><time>2026-05-02T12:20:09.974Z</time></trkpt><trkpt lat="43.2071623" lon="12.7986551"><ele>685.1999999999999</ele><time>2026-05-02T12:20:10.983Z</time></trkpt><trkpt lat="43.2072044" lon="12.7985144"><ele>691.5999999999999</ele><time>2026-05-02T12:20:11.971Z</time></trkpt><trkpt lat="43.2072581" lon="12.7983772"><ele>698.0</ele><time>2026-05-02T12:20:12.971Z</time></trkpt><trkpt lat="43.2072952" lon="12.7982539"><ele>698.0</ele><time>2026-05-02T12:20:13.976Z</time></trkpt><trkpt lat="43.2073064" lon="12.798147"><ele>698.0</ele><time>2026-05-02T12:20:14.982Z</time></trkpt><trkpt lat="43.2072851" lon="12.7980397"><ele>698.0</ele><time>2026-05-02T12:20:15.961Z</time></trkpt><trkpt lat="43.2072309" lon="12.7979453"><ele>698.0</ele><time>2026-05-02T12:20:16.969Z</time></trkpt><trkpt lat="43.2071522" lon="12.7978664"><ele>698.0</ele><time>2026-05-02T12:20:17.967Z</time></trkpt><trkpt lat="43.2070677" lon="12.7978029"><ele>698.0</ele><time>2026-05-02T12:20:18.965Z</time></trkpt><trkpt lat="43.206991" lon="12.7977352"><ele>696.3333333333333</ele><time>2026-05-02T12:20:19.97Z</time></trkpt><trkpt lat="43.2069089" lon="12.7976622"><ele>694.6666666666666</ele><time>2026-05-02T12:20:20.969Z</time></trkpt><trkpt lat="43.2068432" lon="12.7975936"><ele>693.0</ele><time>2026-05-02T12:20:21.968Z</time></trkpt><trkpt lat="43.2067828" lon="12.7975259"><ele>691.3333333333334</ele><time>2026-05-02T12:20:22.968Z</time></trkpt><trkpt lat="43.2067212" lon="12.7974555"><ele>689.6666666666667</ele><time>2026-05-02T12:20:23.979Z</time></trkpt><trkpt lat="43.2066693" lon="12.7973888"><ele>688.0</ele><time>2026-05-02T12:20:24.965Z</time></trkpt><trkpt lat="43.2066245" lon="12.7973175"><ele>688.0000000000001</ele><time>2026-05-02T12:20:25.971Z</time></trkpt><trkpt lat="43.2065855" lon="12.7972446"><ele>688.0</ele><time>2026-05-02T12:20:26.968Z</time></trkpt><trkpt lat="43.2065519" lon="12.7971663"><ele>688.0</ele><time>2026-05-02T12:20:27.965Z</time></trkpt><trkpt lat="43.2065151" lon="12.7970856"><ele>688.0</ele><time>2026-05-02T12:20:28.965Z</time></trkpt><trkpt lat="43.2064814" lon="12.7970093"><ele>688.0</ele><time>2026-05-02T12:20:29.96Z</time></trkpt><trkpt lat="43.2064405" lon="12.7969409"><ele>688.0000000000001</ele><time>2026-05-02T12:20:30.959Z</time></trkpt><trkpt lat="43.2063621" lon="12.7968853"><ele>688.0</ele><time>2026-05-02T12:20:32.965Z</time></trkpt><trkpt lat="43.2062873" lon="12.796905"><ele>692.1666666666667</ele><time>2026-05-02T12:20:35.97Z</time></trkpt><trkpt lat="43.20623" lon="12.7969414"><ele>696.3333333333334</ele><time>2026-05-02T12:20:39.977Z</time></trkpt><trkpt lat="43.2061427" lon="12.7969621"><ele>700.5</ele><time>2026-05-02T12:20:45.982Z</time></trkpt><trkpt lat="43.2060794" lon="12.7970018"><ele>704.6666666666666</ele><time>2026-05-02T12:20:49.98Z</time></trkpt><trkpt lat="43.2059815" lon="12.7970683"><ele>708.8333333333333</ele><time>2026-05-02T12:20:52.976Z</time></trkpt><trkpt lat="43.2058972" lon="12.7970894"><ele>713.0</ele><time>2026-05-02T12:20:54.976Z</time></trkpt><trkpt lat="43.2057869" lon="12.7970744"><ele>713.0</ele><time>2026-05-02T12:20:56.962Z</time></trkpt><trkpt lat="43.2057236" lon="12.7970636"><ele>713.0</ele><time>2026-05-02T12:20:57.96Z</time></trkpt><trkpt lat="43.2056407" lon="12.7970661"><ele>713.0</ele><time>2026-05-02T12:20:59.963Z</time></trkpt><trkpt lat="43.2055725" lon="12.7970504"><ele>713.0</ele><time>2026-05-02T12:21:02.974Z</time></trkpt><trkpt lat="43.2054674" lon="12.7970244"><ele>713.0</ele><time>2026-05-02T12:21:04.971Z</time></trkpt><trkpt lat="43.2053947" lon="12.7970248"><ele>713.0</ele><time>2026-05-02T12:21:05.97Z</time></trkpt><trkpt lat="43.2053185" lon="12.7970178"><ele>714.1666666666666</ele><time>2026-05-02T12:21:06.967Z</time></trkpt><trkpt lat="43.205234" lon="12.7970034"><ele>715.3333333333333</ele><time>2026-05-02T12:21:07.958Z</time></trkpt><trkpt lat="43.2051531" lon="12.7969931"><ele>716.5</ele><time>2026-05-02T12:21:08.98Z</time></trkpt><trkpt lat="43.2050707" lon="12.7969982"><ele>717.6666666666666</ele><time>2026-05-02T12:21:09.955Z</time></trkpt><trkpt lat="43.2049973" lon="12.7970124"><ele>718.8333333333334</ele><time>2026-05-02T12:21:10.967Z</time></trkpt><trkpt lat="43.2049231" lon="12.797044"><ele>720.0</ele><time>2026-05-02T12:21:11.975Z</time></trkpt><trkpt lat="43.2048448" lon="12.7971012"><ele>721.2</ele><time>2026-05-02T12:21:12.957Z</time></trkpt><trkpt lat="43.2047641" lon="12.7971692"><ele>722.4</ele><time>2026-05-02T12:21:13.966Z</time></trkpt><trkpt lat="43.2046774" lon="12.797235"><ele>723.5999999999999</ele><time>2026-05-02T12:21:14.973Z</time></trkpt><trkpt lat="43.2045858" lon="12.7972948"><ele>724.8</ele><time>2026-05-02T12:21:15.971Z</time></trkpt><trkpt lat="43.204499" lon="12.7973444"><ele>726.0</ele><time>2026-05-02T12:21:16.962Z</time></trkpt><trkpt lat="43.2043984" lon="12.7973898"><ele>726.0</ele><time>2026-05-02T12:21:17.971Z</time></trkpt><trkpt lat="43.2042821" lon="12.7974222"><ele>726.0</ele><time>2026-05-02T12:21:18.965Z</time></trkpt><trkpt lat="43.2041657" lon="12.7974562"><ele>726.0</ele><time>2026-05-02T12:21:19.964Z</time></trkpt><trkpt lat="43.2040381" lon="12.7974713"><ele>726.0</ele><time>2026-05-02T12:21:20.982Z</time></trkpt><trkpt lat="43.2039128" lon="12.7974722"><ele>726.5999999999999</ele><time>2026-05-02T12:21:21.963Z</time></trkpt><trkpt lat="43.2037954" lon="12.7974624"><ele>727.2</ele><time>2026-05-02T12:21:22.97Z</time></trkpt><trkpt lat="43.2036882" lon="12.7974444"><ele>727.8</ele><time>2026-05-02T12:21:23.965Z</time></trkpt><trkpt lat="43.2036059" lon="12.7974323"><ele>728.4000000000001</ele><time>2026-05-02T12:21:24.969Z</time></trkpt><trkpt lat="43.2035289" lon="12.7974494"><ele>729.0</ele><time>2026-05-02T12:21:25.964Z</time></trkpt><trkpt lat="43.2034672" lon="12.7974859"><ele>729.0</ele><time>2026-05-02T12:21:26.966Z</time></trkpt><trkpt lat="43.2034118" lon="12.7975324"><ele>729.0</ele><time>2026-05-02T12:21:27.961Z</time></trkpt><trkpt lat="43.2033372" lon="12.7975959"><ele>729.0</ele><time>2026-05-02T12:21:28.973Z</time></trkpt><trkpt lat="43.2032456" lon="12.7976502"><ele>729.0</ele><time>2026-05-02T12:21:29.97Z</time></trkpt><trkpt lat="43.2031422" lon="12.7976817"><ele>729.0</ele><time>2026-05-02T12:21:30.964Z</time></trkpt><trkpt lat="43.2030304" lon="12.7977281"><ele>736.0</ele><time>2026-05-02T12:21:31.973Z</time></trkpt><trkpt lat="43.2028928" lon="12.7977776"><ele>743.0</ele><time>2026-05-02T12:21:32.971Z</time></trkpt><trkpt lat="43.2027432" lon="12.797827"><ele>750.0</ele><time>2026-05-02T12:21:33.964Z</time></trkpt><trkpt lat="43.2025838" lon="12.7978806"><ele>750.0</ele><time>2026-05-02T12:21:34.968Z</time></trkpt><trkpt lat="43.202435" lon="12.797941"><ele>750.0</ele><time>2026-05-02T12:21:35.987Z</time></trkpt><trkpt lat="43.2022866" lon="12.7979946"><ele>750.0</ele><time>2026-05-02T12:21:36.969Z</time></trkpt><trkpt lat="43.202142" lon="12.7980411"><ele>751.0</ele><time>2026-05-02T12:21:37.965Z</time></trkpt><trkpt lat="43.2019949" lon="12.7980826"><ele>752.0</ele><time>2026-05-02T12:21:38.978Z</time></trkpt><trkpt lat="43.2018569" lon="12.7981266"><ele>753.0</ele><time>2026-05-02T12:21:39.986Z</time></trkpt><trkpt lat="43.2017294" lon="12.7981634"><ele>754.0</ele><time>2026-05-02T12:21:40.964Z</time></trkpt><trkpt lat="43.201625" lon="12.7982068"><ele>754.0</ele><time>2026-05-02T12:21:41.983Z</time></trkpt><trkpt lat="43.2015222" lon="12.7982587"><ele>754.0</ele><time>2026-05-02T12:21:42.993Z</time></trkpt><trkpt lat="43.2014193" lon="12.7983223"><ele>754.0</ele><time>2026-05-02T12:21:43.958Z</time></trkpt><trkpt lat="43.2012991" lon="12.7984002"><ele>754.0</ele><time>2026-05-02T12:21:44.976Z</time></trkpt><trkpt lat="43.2011707" lon="12.7984854"><ele>760.0</ele><time>2026-05-02T12:21:45.966Z</time></trkpt><trkpt lat="43.2010443" lon="12.7985618"><ele>766.0</ele><time>2026-05-02T12:21:46.981Z</time></trkpt><trkpt lat="43.2009296" lon="12.7986328"><ele>772.0</ele><time>2026-05-02T12:21:47.971Z</time></trkpt><trkpt lat="43.2008249" lon="12.7986869"><ele>778.0</ele><time>2026-05-02T12:21:48.996Z</time></trkpt><trkpt lat="43.2007164" lon="12.7987391"><ele>779.5</ele><time>2026-05-02T12:21:49.98Z</time></trkpt><trkpt lat="43.2006026" lon="12.7987929"><ele>781.0</ele><time>2026-05-02T12:21:50.975Z</time></trkpt><trkpt lat="43.2004689" lon="12.7988159"><ele>782.5</ele><time>2026-05-02T12:21:51.964Z</time></trkpt><trkpt lat="43.2003041" lon="12.7988196"><ele>784.0</ele><time>2026-05-02T12:21:52.983Z</time></trkpt><trkpt lat="43.2001509" lon="12.7988148"><ele>784.0</ele><time>2026-05-02T12:21:53.974Z</time></trkpt><trkpt lat="43.2000038" lon="12.7988049"><ele>784.0</ele><time>2026-05-02T12:21:54.977Z</time></trkpt><trkpt lat="43.1998627" lon="12.7987945"><ele>784.0</ele><time>2026-05-02T12:21:55.976Z</time></trkpt><trkpt lat="43.1997271" lon="12.7987905"><ele>784.0</ele><time>2026-05-02T12:21:56.959Z</time></trkpt><trkpt lat="43.1996189" lon="12.7987922"><ele>784.9999999999999</ele><time>2026-05-02T12:21:57.969Z</time></trkpt><trkpt lat="43.1995191" lon="12.7987877"><ele>786.0</ele><time>2026-05-02T12:21:58.973Z</time></trkpt><trkpt lat="43.1994412" lon="12.7987843"><ele>787.0</ele><time>2026-05-02T12:21:59.964Z</time></trkpt><trkpt lat="43.1993507" lon="12.7988142"><ele>788.0</ele><time>2026-05-02T12:22:01.964Z</time></trkpt><trkpt lat="43.1994255" lon="12.7989152"><ele>788.9999999999999</ele><time>2026-05-02T12:22:04.972Z</time></trkpt><trkpt lat="43.1994898" lon="12.7989309"><ele>790.0</ele><time>2026-05-02T12:22:05.957Z</time></trkpt><trkpt lat="43.199556" lon="12.798939"><ele>789.9999999999999</ele><time>2026-05-02T12:22:06.97Z</time></trkpt><trkpt lat="43.1996265" lon="12.7989625"><ele>790.0</ele><time>2026-05-02T12:22:07.975Z</time></trkpt><trkpt lat="43.1997049" lon="12.7990019"><ele>790.0</ele><time>2026-05-02T12:22:08.968Z</time></trkpt><trkpt lat="43.199784" lon="12.7990329"><ele>790.0</ele><time>2026-05-02T12:22:09.97Z</time></trkpt><trkpt lat="43.1998449" lon="12.7990655"><ele>789.9999999999999</ele><time>2026-05-02T12:22:10.975Z</time></trkpt><trkpt lat="43.1999184" lon="12.7991589"><ele>790.0</ele><time>2026-05-02T12:22:12.958Z</time></trkpt><trkpt lat="43.1999637" lon="12.7992815"><ele>794.0</ele><time>2026-05-02T12:22:14.967Z</time></trkpt><trkpt lat="43.2000488" lon="12.7993914"><ele>798.0</ele><time>2026-05-02T12:22:16.972Z</time></trkpt><trkpt lat="43.2001077" lon="12.7994543"><ele>802.0</ele><time>2026-05-02T12:22:17.983Z</time></trkpt><trkpt lat="43.2001712" lon="12.7995212"><ele>806.0</ele><time>2026-05-02T12:22:18.975Z</time></trkpt><trkpt lat="43.2002438" lon="12.7995933"><ele>810.0</ele><time>2026-05-02T12:22:19.967Z</time></trkpt><trkpt lat="43.2003268" lon="12.7996712"><ele>810.0</ele><time>2026-05-02T12:22:20.982Z</time></trkpt><trkpt lat="43.2004205" lon="12.7997347"><ele>810.0</ele><time>2026-05-02T12:22:21.982Z</time></trkpt><trkpt lat="43.2005275" lon="12.7998076"><ele>810.0</ele><time>2026-05-02T12:22:22.958Z</time></trkpt><trkpt lat="43.2006421" lon="12.7998807"><ele>810.0</ele><time>2026-05-02T12:22:23.963Z</time></trkpt><trkpt lat="43.2007581" lon="12.799944"><ele>808.0</ele><time>2026-05-02T12:22:24.962Z</time></trkpt><trkpt lat="43.2008661" lon="12.8000032"><ele>806.0</ele><time>2026-05-02T12:22:25.968Z</time></trkpt><trkpt lat="43.2009646" lon="12.8000666"><ele>804.0</ele><time>2026-05-02T12:22:26.968Z</time></trkpt><trkpt lat="43.2010685" lon="12.800138"><ele>802.0</ele><time>2026-05-02T12:22:27.969Z</time></trkpt><trkpt lat="43.2011775" lon="12.8002061"><ele>806.75</ele><time>2026-05-02T12:22:28.966Z</time></trkpt><trkpt lat="43.2012922" lon="12.8002762"><ele>811.5</ele><time>2026-05-02T12:22:29.964Z</time></trkpt><trkpt lat="43.2014213" lon="12.800331"><ele>816.25</ele><time>2026-05-02T12:22:30.964Z</time></trkpt><trkpt lat="43.2015582" lon="12.8003814"><ele>821.0</ele><time>2026-05-02T12:22:31.961Z</time></trkpt><trkpt lat="43.2017014" lon="12.8004279"><ele>821.0</ele><time>2026-05-02T12:22:32.963Z</time></trkpt><trkpt lat="43.2018385" lon="12.8004746"><ele>821.0</ele><time>2026-05-02T12:22:33.961Z</time></trkpt><trkpt lat="43.2019737" lon="12.8005144"><ele>821.0</ele><time>2026-05-02T12:22:34.959Z</time></trkpt><trkpt lat="43.2021023" lon="12.8005464"><ele>821.0</ele><time>2026-05-02T12:22:35.963Z</time></trkpt><trkpt lat="43.2022241" lon="12.8005962"><ele>821.0</ele><time>2026-05-02T12:22:36.959Z</time></trkpt><trkpt lat="43.2023222" lon="12.8006488"><ele>821.0</ele><time>2026-05-02T12:22:37.962Z</time></trkpt><trkpt lat="43.202403" lon="12.8006999"><ele>821.0</ele><time>2026-05-02T12:22:38.964Z</time></trkpt><trkpt lat="43.2024599" lon="12.8007459"><ele>821.0</ele><time>2026-05-02T12:22:39.974Z</time></trkpt><trkpt lat="43.2025424" lon="12.8008512"><ele>821.0</ele><time>2026-05-02T12:22:41.966Z</time></trkpt><trkpt lat="43.2026027" lon="12.800956"><ele>823.5999999999999</ele><time>2026-05-02T12:22:43.985Z</time></trkpt><trkpt lat="43.2026646" lon="12.801077"><ele>826.2</ele><time>2026-05-02T12:22:45.973Z</time></trkpt><trkpt lat="43.2027119" lon="12.8011549"><ele>828.8</ele><time>2026-05-02T12:22:46.966Z</time></trkpt><trkpt lat="43.2027688" lon="12.8012454"><ele>831.4000000000001</ele><time>2026-05-02T12:22:47.965Z</time></trkpt><trkpt lat="43.2028305" lon="12.8013412"><ele>834.0</ele><time>2026-05-02T12:22:48.974Z</time></trkpt><trkpt lat="43.2028927" lon="12.8014479"><ele>834.0</ele><time>2026-05-02T12:22:49.975Z</time></trkpt><trkpt lat="43.2029382" lon="12.8015548"><ele>834.0</ele><time>2026-05-02T12:22:50.957Z</time></trkpt><trkpt lat="43.202968" lon="12.8016597"><ele>834.0</ele><time>2026-05-02T12:22:51.962Z</time></trkpt><trkpt lat="43.2029845" lon="12.8017672"><ele>834.0</ele><time>2026-05-02T12:22:52.978Z</time></trkpt><trkpt lat="43.2030094" lon="12.8018714"><ele>834.0</ele><time>2026-05-02T12:22:53.971Z</time></trkpt><trkpt lat="43.2030243" lon="12.801968"><ele>834.0</ele><time>2026-05-02T12:22:54.96Z</time></trkpt><trkpt lat="43.203006" lon="12.8021089"><ele>836.1666666666666</ele><time>2026-05-02T12:22:56.973Z</time></trkpt><trkpt lat="43.2029307" lon="12.8021193"><ele>838.3333333333333</ele><time>2026-05-02T12:23:02.984Z</time></trkpt><trkpt lat="43.2028594" lon="12.8020365"><ele>840.5</ele><time>2026-05-02T12:23:04.991Z</time></trkpt><trkpt lat="43.202799" lon="12.8019884"><ele>842.6666666666666</ele><time>2026-05-02T12:23:05.966Z</time></trkpt><trkpt lat="43.2027266" lon="12.8019331"><ele>844.8333333333333</ele><time>2026-05-02T12:23:06.957Z</time></trkpt><trkpt lat="43.2026525" lon="12.8018779"><ele>847.0</ele><time>2026-05-02T12:23:07.955Z</time></trkpt><trkpt lat="43.2025232" lon="12.8018416"><ele>845.8333333333333</ele><time>2026-05-02T12:23:09.979Z</time></trkpt><trkpt lat="43.2023884" lon="12.8018111"><ele>844.6666666666666</ele><time>2026-05-02T12:23:11.959Z</time></trkpt><trkpt lat="43.2023179" lon="12.8018034"><ele>843.5</ele><time>2026-05-02T12:23:12.961Z</time></trkpt><trkpt lat="43.2022391" lon="12.8018002"><ele>842.3333333333333</ele><time>2026-05-02T12:23:13.973Z</time></trkpt><trkpt lat="43.2021725" lon="12.8018018"><ele>841.1666666666666</ele><time>2026-05-02T12:23:14.971Z</time></trkpt><trkpt lat="43.2020974" lon="12.8018055"><ele>840.0</ele><time>2026-05-02T12:23:15.966Z</time></trkpt><trkpt lat="43.2020052" lon="12.8018014"><ele>840.0</ele><time>2026-05-02T12:23:16.97Z</time></trkpt><trkpt lat="43.201911" lon="12.8018003"><ele>840.0</ele><time>2026-05-02T12:23:17.965Z</time></trkpt><trkpt lat="43.2018226" lon="12.8017971"><ele>840.0</ele><time>2026-05-02T12:23:18.967Z</time></trkpt><trkpt lat="43.2017366" lon="12.8017903"><ele>840.0</ele><time>2026-05-02T12:23:19.967Z</time></trkpt><trkpt lat="43.2016414" lon="12.8017753"><ele>840.0</ele><time>2026-05-02T12:23:20.975Z</time></trkpt><trkpt lat="43.2015477" lon="12.801765"><ele>838.8</ele><time>2026-05-02T12:23:21.97Z</time></trkpt><trkpt lat="43.2014689" lon="12.801757"><ele>837.6</ele><time>2026-05-02T12:23:22.997Z</time></trkpt><trkpt lat="43.2013668" lon="12.8017754"><ele>836.4000000000001</ele><time>2026-05-02T12:23:24.964Z</time></trkpt><trkpt lat="43.2013436" lon="12.8019106"><ele>835.2</ele><time>2026-05-02T12:23:27.968Z</time></trkpt><trkpt lat="43.2014131" lon="12.8020344"><ele>834.0</ele><time>2026-05-02T12:23:29.98Z</time></trkpt><trkpt lat="43.2014615" lon="12.8021032"><ele>837.0</ele><time>2026-05-02T12:23:30.971Z</time></trkpt><trkpt lat="43.2015122" lon="12.8021756"><ele>840.0</ele><time>2026-05-02T12:23:31.965Z</time></trkpt><trkpt lat="43.201579" lon="12.8022477"><ele>843.0</ele><time>2026-05-02T12:23:32.976Z</time></trkpt><trkpt lat="43.2016493" lon="12.8023201"><ele>846.0</ele><time>2026-05-02T12:23:33.962Z</time></trkpt><trkpt lat="43.2016895" lon="12.8023904"><ele>849.0</ele><time>2026-05-02T12:23:34.959Z</time></trkpt><trkpt lat="43.2017123" lon="12.8024731"><ele>852.0</ele><time>2026-05-02T12:23:35.969Z</time></trkpt><trkpt lat="43.2016907" lon="12.8026204"><ele>855.0</ele><time>2026-05-02T12:23:37.975Z</time></trkpt><trkpt lat="43.2016147" lon="12.8027021"><ele>858.0</ele><time>2026-05-02T12:23:39.964Z</time></trkpt><trkpt lat="43.2014813" lon="12.8027381"><ele>861.0</ele><time>2026-05-02T12:23:41.974Z</time></trkpt><trkpt lat="43.2013889" lon="12.8027612"><ele>864.0</ele><time>2026-05-02T12:23:42.971Z</time></trkpt><trkpt lat="43.2012888" lon="12.8027851"><ele>867.0</ele><time>2026-05-02T12:23:43.976Z</time></trkpt><trkpt lat="43.2011808" lon="12.8028264"><ele>867.4000000000001</ele><time>2026-05-02T12:23:44.974Z</time></trkpt><trkpt lat="43.2010727" lon="12.802869"><ele>867.8000000000001</ele><time>2026-05-02T12:23:45.976Z</time></trkpt><trkpt lat="43.2009716" lon="12.8029115"><ele>868.2</ele><time>2026-05-02T12:23:46.966Z</time></trkpt><trkpt lat="43.2008796" lon="12.8029582"><ele>868.6</ele><time>2026-05-02T12:23:47.977Z</time></trkpt><trkpt lat="43.2007993" lon="12.8029998"><ele>869.0</ele><time>2026-05-02T12:23:48.968Z</time></trkpt><trkpt lat="43.2007239" lon="12.8030467"><ele>865.8000000000001</ele><time>2026-05-02T12:23:49.975Z</time></trkpt><trkpt lat="43.2006453" lon="12.8030998"><ele>862.6000000000001</ele><time>2026-05-02T12:23:50.964Z</time></trkpt><trkpt lat="43.200562" lon="12.8031646"><ele>859.4</ele><time>2026-05-02T12:23:51.975Z</time></trkpt><trkpt lat="43.2004696" lon="12.8032428"><ele>856.2</ele><time>2026-05-02T12:23:52.97Z</time></trkpt><trkpt lat="43.2003707" lon="12.8033409"><ele>853.0</ele><time>2026-05-02T12:23:53.963Z</time></trkpt><trkpt lat="43.2002816" lon="12.8034341"><ele>857.5999999999999</ele><time>2026-05-02T12:23:54.966Z</time></trkpt><trkpt lat="43.2001961" lon="12.8035268"><ele>862.1999999999999</ele><time>2026-05-02T12:23:55.978Z</time></trkpt><trkpt lat="43.2001119" lon="12.8036291"><ele>866.8</ele><time>2026-05-02T12:23:56.971Z</time></trkpt><trkpt lat="43.2000286" lon="12.803737"><ele>871.4</ele><time>2026-05-02T12:23:57.969Z</time></trkpt><trkpt lat="43.1999535" lon="12.803845"><ele>876.0</ele><time>2026-05-02T12:23:58.956Z</time></trkpt><trkpt lat="43.1998743" lon="12.8039683"><ele>873.5</ele><time>2026-05-02T12:23:59.977Z</time></trkpt><trkpt lat="43.1997844" lon="12.8040916"><ele>871.0</ele><time>2026-05-02T12:24:00.96Z</time></trkpt><trkpt lat="43.1997012" lon="12.8042048"><ele>868.5</ele><time>2026-05-02T12:24:01.964Z</time></trkpt><trkpt lat="43.1996308" lon="12.8043209"><ele>866.0</ele><time>2026-05-02T12:24:02.968Z</time></trkpt><trkpt lat="43.1995637" lon="12.8044457"><ele>866.0</ele><time>2026-05-02T12:24:03.966Z</time></trkpt><trkpt lat="43.1994909" lon="12.8045881"><ele>866.0</ele><time>2026-05-02T12:24:04.96Z</time></trkpt><trkpt lat="43.199404" lon="12.8047521"><ele>866.0</ele><time>2026-05-02T12:24:05.969Z</time></trkpt><trkpt lat="43.1993141" lon="12.8049189"><ele>866.0</ele><time>2026-05-02T12:24:06.965Z</time></trkpt><trkpt lat="43.1992344" lon="12.805088"><ele>863.75</ele><time>2026-05-02T12:24:07.96Z</time></trkpt><trkpt lat="43.1991594" lon="12.8052415"><ele>861.5</ele><time>2026-05-02T12:24:08.951Z</time></trkpt><trkpt lat="43.1990811" lon="12.8053926"><ele>859.25</ele><time>2026-05-02T12:24:09.953Z</time></trkpt><trkpt lat="43.1989996" lon="12.805545"><ele>857.0</ele><time>2026-05-02T12:24:10.971Z</time></trkpt><trkpt lat="43.1989206" lon="12.8056992"><ele>857.0</ele><time>2026-05-02T12:24:11.955Z</time></trkpt><trkpt lat="43.1988372" lon="12.8058505"><ele>857.0</ele><time>2026-05-02T12:24:12.972Z</time></trkpt><trkpt lat="43.1987588" lon="12.8059876"><ele>857.0</ele><time>2026-05-02T12:24:13.968Z</time></trkpt><trkpt lat="43.1986832" lon="12.8061078"><ele>857.0</ele><time>2026-05-02T12:24:14.957Z</time></trkpt><trkpt lat="43.1986044" lon="12.8062048"><ele>861.0</ele><time>2026-05-02T12:24:15.967Z</time></trkpt><trkpt lat="43.1985262" lon="12.8063085"><ele>865.0</ele><time>2026-05-02T12:24:16.969Z</time></trkpt><trkpt lat="43.1984678" lon="12.8064198"><ele>869.0</ele><time>2026-05-02T12:24:17.969Z</time></trkpt><trkpt lat="43.1984001" lon="12.8065114"><ele>873.0</ele><time>2026-05-02T12:24:18.966Z</time></trkpt><trkpt lat="43.1983375" lon="12.8066045"><ele>877.0</ele><time>2026-05-02T12:24:19.962Z</time></trkpt><trkpt lat="43.1982825" lon="12.8066952"><ele>877.0</ele><time>2026-05-02T12:24:20.976Z</time></trkpt><trkpt lat="43.1982242" lon="12.8067657"><ele>877.0</ele><time>2026-05-02T12:24:21.977Z</time></trkpt><trkpt lat="43.1981069" lon="12.8068022"><ele>877.0</ele><time>2026-05-02T12:24:23.964Z</time></trkpt><trkpt lat="43.1980348" lon="12.8067927"><ele>877.0</ele><time>2026-05-02T12:24:24.972Z</time></trkpt><trkpt lat="43.1979482" lon="12.806816"><ele>877.0</ele><time>2026-05-02T12:24:25.974Z</time></trkpt><trkpt lat="43.1978477" lon="12.8068419"><ele>878.75</ele><time>2026-05-02T12:24:26.972Z</time></trkpt><trkpt lat="43.1977464" lon="12.8068857"><ele>880.5</ele><time>2026-05-02T12:24:27.971Z</time></trkpt><trkpt lat="43.1976472" lon="12.8069368"><ele>882.25</ele><time>2026-05-02T12:24:28.964Z</time></trkpt><trkpt lat="43.1975417" lon="12.8069895"><ele>884.0</ele><time>2026-05-02T12:24:29.976Z</time></trkpt><trkpt lat="43.1974162" lon="12.807043"><ele>883.8000000000001</ele><time>2026-05-02T12:24:30.972Z</time></trkpt><trkpt lat="43.1972965" lon="12.8071039"><ele>883.6000000000001</ele><time>2026-05-02T12:24:31.989Z</time></trkpt><trkpt lat="43.1971881" lon="12.8071625"><ele>883.4</ele><time>2026-05-02T12:24:32.962Z</time></trkpt><trkpt lat="43.1970963" lon="12.8072046"><ele>883.2</ele><time>2026-05-02T12:24:33.971Z</time></trkpt><trkpt lat="43.1970142" lon="12.8072126"><ele>883.0</ele><time>2026-05-02T12:24:34.972Z</time></trkpt><trkpt lat="43.1969261" lon="12.8071569"><ele>883.0</ele><time>2026-05-02T12:24:35.968Z</time></trkpt><trkpt lat="43.1968293" lon="12.8071335"><ele>883.0</ele><time>2026-05-02T12:24:36.979Z</time></trkpt><trkpt lat="43.1966953" lon="12.8071185"><ele>883.0</ele><time>2026-05-02T12:24:37.975Z</time></trkpt><trkpt lat="43.1965333" lon="12.8071023"><ele>883.0</ele><time>2026-05-02T12:24:38.975Z</time></trkpt><trkpt lat="43.1963872" lon="12.8070783"><ele>882.0</ele><time>2026-05-02T12:24:39.973Z</time></trkpt><trkpt lat="43.1962459" lon="12.8070588"><ele>881.0</ele><time>2026-05-02T12:24:40.992Z</time></trkpt><trkpt lat="43.1961053" lon="12.8070408"><ele>880.0</ele><time>2026-05-02T12:24:41.964Z</time></trkpt><trkpt lat="43.1959646" lon="12.807012"><ele>879.0</ele><time>2026-05-02T12:24:42.964Z</time></trkpt><trkpt lat="43.1958277" lon="12.8069992"><ele>879.0</ele><time>2026-05-02T12:24:43.978Z</time></trkpt><trkpt lat="43.1956771" lon="12.8070052"><ele>879.0</ele><time>2026-05-02T12:24:44.983Z</time></trkpt><trkpt lat="43.1955274" lon="12.8070114"><ele>879.0</ele><time>2026-05-02T12:24:45.966Z</time></trkpt><trkpt lat="43.1953942" lon="12.8070106"><ele>879.0</ele><time>2026-05-02T12:24:46.963Z</time></trkpt><trkpt lat="43.1952836" lon="12.8070285"><ele>877.3333333333334</ele><time>2026-05-02T12:24:47.965Z</time></trkpt><trkpt lat="43.1951913" lon="12.8070588"><ele>875.6666666666667</ele><time>2026-05-02T12:24:48.971Z</time></trkpt><trkpt lat="43.1951188" lon="12.8071047"><ele>874.0</ele><time>2026-05-02T12:24:49.966Z</time></trkpt><trkpt lat="43.1950571" lon="12.8071633"><ele>872.3333333333334</ele><time>2026-05-02T12:24:50.972Z</time></trkpt><trkpt lat="43.1950133" lon="12.8072454"><ele>870.6666666666667</ele><time>2026-05-02T12:24:51.967Z</time></trkpt><trkpt lat="43.1949724" lon="12.8073648"><ele>869.0</ele><time>2026-05-02T12:24:52.97Z</time></trkpt><trkpt lat="43.1949371" lon="12.8074944"><ele>869.0</ele><time>2026-05-02T12:24:53.966Z</time></trkpt><trkpt lat="43.194906" lon="12.8076413"><ele>869.0</ele><time>2026-05-02T12:24:54.968Z</time></trkpt><trkpt lat="43.1948785" lon="12.8077987"><ele>869.0</ele><time>2026-05-02T12:24:55.967Z</time></trkpt><trkpt lat="43.1948539" lon="12.8079711"><ele>869.0</ele><time>2026-05-02T12:24:56.985Z</time></trkpt><trkpt lat="43.1948244" lon="12.8081447"><ele>869.0</ele><time>2026-05-02T12:24:57.985Z</time></trkpt><trkpt lat="43.1947987" lon="12.8083106"><ele>869.0</ele><time>2026-05-02T12:24:58.97Z</time></trkpt><trkpt lat="43.1947769" lon="12.8084661"><ele>869.0</ele><time>2026-05-02T12:24:59.966Z</time></trkpt><trkpt lat="43.194759" lon="12.8086177"><ele>869.0</ele><time>2026-05-02T12:25:00.963Z</time></trkpt><trkpt lat="43.1947344" lon="12.8087694"><ele>869.0</ele><time>2026-05-02T12:25:01.976Z</time></trkpt><trkpt lat="43.1947119" lon="12.8089269"><ele>869.0000000000001</ele><time>2026-05-02T12:25:02.959Z</time></trkpt><trkpt lat="43.1946906" lon="12.809068"><ele>869.0000000000001</ele><time>2026-05-02T12:25:03.972Z</time></trkpt><trkpt lat="43.1946688" lon="12.8092054"><ele>869.0</ele><time>2026-05-02T12:25:04.967Z</time></trkpt><trkpt lat="43.1946569" lon="12.8093386"><ele>869.0</ele><time>2026-05-02T12:25:05.968Z</time></trkpt><trkpt lat="43.1946444" lon="12.809474"><ele>869.6666666666667</ele><time>2026-05-02T12:25:06.976Z</time></trkpt><trkpt lat="43.1946404" lon="12.809606"><ele>870.3333333333334</ele><time>2026-05-02T12:25:07.971Z</time></trkpt><trkpt lat="43.1946538" lon="12.809725"><ele>871.0</ele><time>2026-05-02T12:25:08.969Z</time></trkpt><trkpt lat="43.1946762" lon="12.8098405"><ele>871.6666666666667</ele><time>2026-05-02T12:25:09.971Z</time></trkpt><trkpt lat="43.1946979" lon="12.809961"><ele>872.3333333333334</ele><time>2026-05-02T12:25:10.964Z</time></trkpt><trkpt lat="43.1947096" lon="12.8100784"><ele>873.0</ele><time>2026-05-02T12:25:11.96Z</time></trkpt><trkpt lat="43.1947222" lon="12.8101816"><ele>873.4</ele><time>2026-05-02T12:25:12.966Z</time></trkpt><trkpt lat="43.19473" lon="12.8102772"><ele>873.8</ele><time>2026-05-02T12:25:13.966Z</time></trkpt><trkpt lat="43.1947481" lon="12.8104346"><ele>874.2</ele><time>2026-05-02T12:25:15.975Z</time></trkpt><trkpt lat="43.1947455" lon="12.8105749"><ele>874.6</ele><time>2026-05-02T12:25:17.967Z</time></trkpt><trkpt lat="43.1947318" lon="12.8107419"><ele>875.0</ele><time>2026-05-02T12:25:19.967Z</time></trkpt><trkpt lat="43.1947392" lon="12.8108623"><ele>875.0</ele><time>2026-05-02T12:25:20.973Z</time></trkpt><trkpt lat="43.1947662" lon="12.8110066"><ele>875.0</ele><time>2026-05-02T12:25:21.969Z</time></trkpt><trkpt lat="43.1947914" lon="12.8111675"><ele>875.0</ele><time>2026-05-02T12:25:22.965Z</time></trkpt><trkpt lat="43.1948226" lon="12.8113386"><ele>875.0</ele><time>2026-05-02T12:25:23.964Z</time></trkpt><trkpt lat="43.1948562" lon="12.8115181"><ele>881.5</ele><time>2026-05-02T12:25:24.965Z</time></trkpt><trkpt lat="43.1948887" lon="12.8116984"><ele>888.0</ele><time>2026-05-02T12:25:25.974Z</time></trkpt><trkpt lat="43.1949186" lon="12.8118779"><ele>894.5</ele><time>2026-05-02T12:25:26.976Z</time></trkpt><trkpt lat="43.1949444" lon="12.8120655"><ele>901.0</ele><time>2026-05-02T12:25:27.983Z</time></trkpt><trkpt lat="43.1949564" lon="12.8122788"><ele>902.25</ele><time>2026-05-02T12:25:28.963Z</time></trkpt><trkpt lat="43.1949543" lon="12.8124797"><ele>903.5</ele><time>2026-05-02T12:25:29.969Z</time></trkpt><trkpt lat="43.1949499" lon="12.8126613"><ele>904.75</ele><time>2026-05-02T12:25:30.976Z</time></trkpt><trkpt lat="43.1949445" lon="12.8128218"><ele>906.0</ele><time>2026-05-02T12:25:31.964Z</time></trkpt><trkpt lat="43.1949285" lon="12.8129859"><ele>907.5999999999999</ele><time>2026-05-02T12:25:32.963Z</time></trkpt><trkpt lat="43.1949112" lon="12.8131473"><ele>909.1999999999999</ele><time>2026-05-02T12:25:33.961Z</time></trkpt><trkpt lat="43.1948937" lon="12.8133016"><ele>910.8000000000001</ele><time>2026-05-02T12:25:34.965Z</time></trkpt><trkpt lat="43.1948802" lon="12.8134481"><ele>912.4000000000001</ele><time>2026-05-02T12:25:35.959Z</time></trkpt><trkpt lat="43.1948571" lon="12.8135815"><ele>914.0</ele><time>2026-05-02T12:25:36.962Z</time></trkpt><trkpt lat="43.1948417" lon="12.8136993"><ele>915.1666666666667</ele><time>2026-05-02T12:25:37.971Z</time></trkpt><trkpt lat="43.1948505" lon="12.8137984"><ele>916.3333333333334</ele><time>2026-05-02T12:25:38.962Z</time></trkpt><trkpt lat="43.1948695" lon="12.8138982"><ele>917.5</ele><time>2026-05-02T12:25:39.965Z</time></trkpt><trkpt lat="43.1948928" lon="12.8139819"><ele>918.6666666666667</ele><time>2026-05-02T12:25:40.961Z</time></trkpt><trkpt lat="43.1948769" lon="12.8140874"><ele>919.8333333333334</ele><time>2026-05-02T12:25:42.961Z</time></trkpt><trkpt lat="43.1947865" lon="12.8141584"><ele>921.0</ele><time>2026-05-02T12:25:44.966Z</time></trkpt><trkpt lat="43.1947254" lon="12.8142111"><ele>919.8333333333334</ele><time>2026-05-02T12:25:45.992Z</time></trkpt><trkpt lat="43.19469" lon="12.8143063"><ele>918.6666666666667</ele><time>2026-05-02T12:25:46.966Z</time></trkpt><trkpt lat="43.1946668" lon="12.8144266"><ele>917.5</ele><time>2026-05-02T12:25:47.976Z</time></trkpt><trkpt lat="43.1946621" lon="12.8145487"><ele>916.3333333333334</ele><time>2026-05-02T12:25:48.965Z</time></trkpt><trkpt lat="43.1946532" lon="12.8146565"><ele>915.1666666666667</ele><time>2026-05-02T12:25:49.976Z</time></trkpt><trkpt lat="43.1946212" lon="12.8147383"><ele>914.0</ele><time>2026-05-02T12:25:50.98Z</time></trkpt><trkpt lat="43.1945606" lon="12.8147951"><ele>914.0000000000001</ele><time>2026-05-02T12:25:51.957Z</time></trkpt><trkpt lat="43.1944965" lon="12.8148473"><ele>914.0</ele><time>2026-05-02T12:25:52.975Z</time></trkpt><trkpt lat="43.1944379" lon="12.8148986"><ele>914.0</ele><time>2026-05-02T12:25:53.965Z</time></trkpt><trkpt lat="43.1943773" lon="12.8149464"><ele>914.0</ele><time>2026-05-02T12:25:54.97Z</time></trkpt><trkpt lat="43.1943275" lon="12.8150228"><ele>914.0000000000001</ele><time>2026-05-02T12:25:55.973Z</time></trkpt><trkpt lat="43.1942823" lon="12.8151129"><ele>914.0</ele><time>2026-05-02T12:25:56.976Z</time></trkpt><trkpt lat="43.194225" lon="12.81521"><ele>914.25</ele><time>2026-05-02T12:25:57.969Z</time></trkpt><trkpt lat="43.1941402" lon="12.815309"><ele>914.5</ele><time>2026-05-02T12:25:58.968Z</time></trkpt><trkpt lat="43.1940422" lon="12.8154327"><ele>914.75</ele><time>2026-05-02T12:25:59.963Z</time></trkpt><trkpt lat="43.1939376" lon="12.8155599"><ele>915.0</ele><time>2026-05-02T12:26:00.971Z</time></trkpt><trkpt lat="43.1938414" lon="12.8156668"><ele>915.0</ele><time>2026-05-02T12:26:01.963Z</time></trkpt><trkpt lat="43.1937501" lon="12.8157592"><ele>915.0</ele><time>2026-05-02T12:26:02.977Z</time></trkpt><trkpt lat="43.1936726" lon="12.8158366"><ele>915.0</ele><time>2026-05-02T12:26:03.978Z</time></trkpt><trkpt lat="43.193611" lon="12.815912"><ele>915.0</ele><time>2026-05-02T12:26:04.972Z</time></trkpt><trkpt lat="43.1935572" lon="12.8160013"><ele>915.0</ele><time>2026-05-02T12:26:05.977Z</time></trkpt><trkpt lat="43.1935033" lon="12.816102"><ele>915.6</ele><time>2026-05-02T12:26:06.969Z</time></trkpt><trkpt lat="43.1934358" lon="12.8161988"><ele>916.2</ele><time>2026-05-02T12:26:07.965Z</time></trkpt><trkpt lat="43.1933635" lon="12.8162962"><ele>916.8</ele><time>2026-05-02T12:26:08.964Z</time></trkpt><trkpt lat="43.1932939" lon="12.8163973"><ele>917.4</ele><time>2026-05-02T12:26:09.975Z</time></trkpt><trkpt lat="43.193229" lon="12.8165063"><ele>918.0</ele><time>2026-05-02T12:26:10.977Z</time></trkpt><trkpt lat="43.193168" lon="12.8165982"><ele>918.0</ele><time>2026-05-02T12:26:11.968Z</time></trkpt><trkpt lat="43.1930799" lon="12.8166733"><ele>918.0</ele><time>2026-05-02T12:26:12.967Z</time></trkpt><trkpt lat="43.1929803" lon="12.8167523"><ele>918.0</ele><time>2026-05-02T12:26:13.972Z</time></trkpt><trkpt lat="43.1928758" lon="12.8168271"><ele>918.0</ele><time>2026-05-02T12:26:14.977Z</time></trkpt><trkpt lat="43.1927664" lon="12.8169125"><ele>919.5</ele><time>2026-05-02T12:26:15.966Z</time></trkpt><trkpt lat="43.1926481" lon="12.8170069"><ele>921.0</ele><time>2026-05-02T12:26:16.987Z</time></trkpt><trkpt lat="43.1925188" lon="12.8171084"><ele>922.5</ele><time>2026-05-02T12:26:17.965Z</time></trkpt><trkpt lat="43.1923913" lon="12.8172135"><ele>924.0</ele><time>2026-05-02T12:26:18.963Z</time></trkpt><trkpt lat="43.1922627" lon="12.8173179"><ele>924.0</ele><time>2026-05-02T12:26:19.961Z</time></trkpt><trkpt lat="43.1921434" lon="12.8174358"><ele>924.0</ele><time>2026-05-02T12:26:20.963Z</time></trkpt><trkpt lat="43.1920264" lon="12.8175552"><ele>924.0</ele><time>2026-05-02T12:26:21.963Z</time></trkpt><trkpt lat="43.1919091" lon="12.817679"><ele>924.0</ele><time>2026-05-02T12:26:22.976Z</time></trkpt><trkpt lat="43.1918079" lon="12.8178025"><ele>923.4000000000001</ele><time>2026-05-02T12:26:23.964Z</time></trkpt><trkpt lat="43.1917231" lon="12.8179201"><ele>922.8000000000001</ele><time>2026-05-02T12:26:24.969Z</time></trkpt><trkpt lat="43.1916501" lon="12.8180373"><ele>922.1999999999999</ele><time>2026-05-02T12:26:25.969Z</time></trkpt><trkpt lat="43.1915822" lon="12.8181429"><ele>921.5999999999999</ele><time>2026-05-02T12:26:26.968Z</time></trkpt><trkpt lat="43.1915152" lon="12.8182686"><ele>921.0</ele><time>2026-05-02T12:26:27.967Z</time></trkpt><trkpt lat="43.1914697" lon="12.818407"><ele>926.4</ele><time>2026-05-02T12:26:28.976Z</time></trkpt><trkpt lat="43.1914393" lon="12.8185564"><ele>931.8</ele><time>2026-05-02T12:26:29.972Z</time></trkpt><trkpt lat="43.1914062" lon="12.8187073"><ele>937.1999999999999</ele><time>2026-05-02T12:26:30.966Z</time></trkpt><trkpt lat="43.1913787" lon="12.8188488"><ele>942.5999999999999</ele><time>2026-05-02T12:26:31.966Z</time></trkpt><trkpt lat="43.1913513" lon="12.8189723"><ele>948.0</ele><time>2026-05-02T12:26:32.953Z</time></trkpt><trkpt lat="43.1913289" lon="12.8190612"><ele>948.0</ele><time>2026-05-02T12:26:33.965Z</time></trkpt><trkpt lat="43.1912334" lon="12.8191323"><ele>948.0</ele><time>2026-05-02T12:26:35.963Z</time></trkpt><trkpt lat="43.1911192" lon="12.8190677"><ele>948.0</ele><time>2026-05-02T12:26:37.974Z</time></trkpt><trkpt lat="43.1910541" lon="12.8190404"><ele>948.0</ele><time>2026-05-02T12:26:38.973Z</time></trkpt><trkpt lat="43.190956" lon="12.8190752"><ele>948.0</ele><time>2026-05-02T12:26:40.963Z</time></trkpt><trkpt lat="43.1908286" lon="12.8191294"><ele>948.0</ele><time>2026-05-02T12:26:42.977Z</time></trkpt><trkpt lat="43.1907555" lon="12.8191683"><ele>948.0</ele><time>2026-05-02T12:26:43.984Z</time></trkpt><trkpt lat="43.1906839" lon="12.8192111"><ele>948.0</ele><time>2026-05-02T12:26:44.993Z</time></trkpt><trkpt lat="43.1906116" lon="12.819271"><ele>948.0</ele><time>2026-05-02T12:26:45.984Z</time></trkpt><trkpt lat="43.1905384" lon="12.8193441"><ele>948.0</ele><time>2026-05-02T12:26:46.969Z</time></trkpt><trkpt lat="43.1904647" lon="12.819439"><ele>948.0</ele><time>2026-05-02T12:26:47.961Z</time></trkpt><trkpt lat="43.1903996" lon="12.8195403"><ele>951.4</ele><time>2026-05-02T12:26:48.964Z</time></trkpt><trkpt lat="43.1903474" lon="12.8196419"><ele>954.8</ele><time>2026-05-02T12:26:49.977Z</time></trkpt><trkpt lat="43.1902991" lon="12.819742"><ele>958.2</ele><time>2026-05-02T12:26:50.966Z</time></trkpt><trkpt lat="43.1902529" lon="12.8198417"><ele>961.6</ele><time>2026-05-02T12:26:51.958Z</time></trkpt><trkpt lat="43.1901721" lon="12.819933"><ele>965.0</ele><time>2026-05-02T12:26:53.958Z</time></trkpt><trkpt lat="43.1900836" lon="12.8198658"><ele>965.0</ele><time>2026-05-02T12:26:55.966Z</time></trkpt><trkpt lat="43.1900233" lon="12.8197949"><ele>965.0</ele><time>2026-05-02T12:26:56.96Z</time></trkpt><trkpt lat="43.1899512" lon="12.8197381"><ele>965.0</ele><time>2026-05-02T12:26:57.97Z</time></trkpt><trkpt lat="43.1898514" lon="12.8196914"><ele>965.0</ele><time>2026-05-02T12:26:58.972Z</time></trkpt><trkpt lat="43.1897449" lon="12.8196474"><ele>965.0</ele><time>2026-05-02T12:26:59.958Z</time></trkpt><trkpt lat="43.1896393" lon="12.819612"><ele>966.0</ele><time>2026-05-02T12:27:00.976Z</time></trkpt><trkpt lat="43.1895396" lon="12.8196012"><ele>967.0</ele><time>2026-05-02T12:27:01.973Z</time></trkpt><trkpt lat="43.1894525" lon="12.8196041"><ele>968.0</ele><time>2026-05-02T12:27:02.965Z</time></trkpt><trkpt lat="43.1893613" lon="12.819616"><ele>969.0</ele><time>2026-05-02T12:27:03.972Z</time></trkpt><trkpt lat="43.1892764" lon="12.8196484"><ele>970.0</ele><time>2026-05-02T12:27:04.981Z</time></trkpt><trkpt lat="43.1891803" lon="12.8196965"><ele>969.9999999999999</ele><time>2026-05-02T12:27:05.959Z</time></trkpt><trkpt lat="43.1890884" lon="12.8197506"><ele>970.0</ele><time>2026-05-02T12:27:06.98Z</time></trkpt><trkpt lat="43.1889998" lon="12.819804"><ele>970.0</ele><time>2026-05-02T12:27:07.984Z</time></trkpt><trkpt lat="43.1889181" lon="12.8198554"><ele>970.0</ele><time>2026-05-02T12:27:08.975Z</time></trkpt><trkpt lat="43.1888576" lon="12.8199062"><ele>969.9999999999999</ele><time>2026-05-02T12:27:09.97Z</time></trkpt><trkpt lat="43.1888038" lon="12.8199708"><ele>970.0</ele><time>2026-05-02T12:27:10.965Z</time></trkpt><trkpt lat="43.1886838" lon="12.8200274"><ele>970.3333333333333</ele><time>2026-05-02T12:27:12.983Z</time></trkpt><trkpt lat="43.1886064" lon="12.8200209"><ele>970.6666666666666</ele><time>2026-05-02T12:27:13.984Z</time></trkpt><trkpt lat="43.1885253" lon="12.8200321"><ele>971.0</ele><time>2026-05-02T12:27:14.968Z</time></trkpt><trkpt lat="43.1884434" lon="12.820072"><ele>971.3333333333333</ele><time>2026-05-02T12:27:15.979Z</time></trkpt><trkpt lat="43.1883614" lon="12.8201098"><ele>971.6666666666666</ele><time>2026-05-02T12:27:16.971Z</time></trkpt><trkpt lat="43.1882761" lon="12.8201548"><ele>972.0</ele><time>2026-05-02T12:27:17.968Z</time></trkpt><trkpt lat="43.1881963" lon="12.8202081"><ele>974.1666666666666</ele><time>2026-05-02T12:27:18.968Z</time></trkpt><trkpt lat="43.1881163" lon="12.8202589"><ele>976.3333333333333</ele><time>2026-05-02T12:27:19.965Z</time></trkpt><trkpt lat="43.1880404" lon="12.8203092"><ele>978.5</ele><time>2026-05-02T12:27:20.965Z</time></trkpt><trkpt lat="43.1879586" lon="12.8203734"><ele>980.6666666666666</ele><time>2026-05-02T12:27:21.967Z</time></trkpt><trkpt lat="43.1878832" lon="12.8204455"><ele>982.8333333333333</ele><time>2026-05-02T12:27:22.977Z</time></trkpt><trkpt lat="43.1878229" lon="12.8205224"><ele>985.0</ele><time>2026-05-02T12:27:23.971Z</time></trkpt><trkpt lat="43.1877673" lon="12.8206132"><ele>985.0</ele><time>2026-05-02T12:27:24.98Z</time></trkpt><trkpt lat="43.1877177" lon="12.8207252"><ele>985.0</ele><time>2026-05-02T12:27:25.978Z</time></trkpt><trkpt lat="43.1876642" lon="12.8208319"><ele>985.0</ele><time>2026-05-02T12:27:26.969Z</time></trkpt><trkpt lat="43.1876027" lon="12.8209164"><ele>985.0</ele><time>2026-05-02T12:27:27.978Z</time></trkpt><trkpt lat="43.1875242" lon="12.8209957"><ele>985.0</ele><time>2026-05-02T12:27:28.98Z</time></trkpt><trkpt lat="43.1874437" lon="12.8210443"><ele>988.2</ele><time>2026-05-02T12:27:29.968Z</time></trkpt><trkpt lat="43.1873573" lon="12.8210899"><ele>991.4</ele><time>2026-05-02T12:27:30.983Z</time></trkpt><trkpt lat="43.1872709" lon="12.821147"><ele>994.5999999999999</ele><time>2026-05-02T12:27:31.989Z</time></trkpt><trkpt lat="43.1871847" lon="12.8212151"><ele>997.8</ele><time>2026-05-02T12:27:32.978Z</time></trkpt><trkpt lat="43.1871047" lon="12.8212953"><ele>1001.0</ele><time>2026-05-02T12:27:33.967Z</time></trkpt><trkpt lat="43.1870246" lon="12.8213825"><ele>1001.0</ele><time>2026-05-02T12:27:34.982Z</time></trkpt><trkpt lat="43.1869215" lon="12.8214712"><ele>1001.0</ele><time>2026-05-02T12:27:35.969Z</time></trkpt><trkpt lat="43.1868151" lon="12.8215569"><ele>1001.0</ele><time>2026-05-02T12:27:36.963Z</time></trkpt><trkpt lat="43.186708" lon="12.8216514"><ele>1001.0</ele><time>2026-05-02T12:27:37.979Z</time></trkpt><trkpt lat="43.1866039" lon="12.8217509"><ele>1004.4</ele><time>2026-05-02T12:27:38.982Z</time></trkpt><trkpt lat="43.1865146" lon="12.8218606"><ele>1007.8</ele><time>2026-05-02T12:27:39.962Z</time></trkpt><trkpt lat="43.1864408" lon="12.8219638"><ele>1011.1999999999999</ele><time>2026-05-02T12:27:40.985Z</time></trkpt><trkpt lat="43.1863789" lon="12.8220473"><ele>1014.5999999999999</ele><time>2026-05-02T12:27:41.985Z</time></trkpt><trkpt lat="43.1863176" lon="12.8221078"><ele>1018.0</ele><time>2026-05-02T12:27:42.963Z</time></trkpt><trkpt lat="43.1862177" lon="12.8221256"><ele>1018.1666666666666</ele><time>2026-05-02T12:27:44.97Z</time></trkpt><trkpt lat="43.1861094" lon="12.8220974"><ele>1018.3333333333333</ele><time>2026-05-02T12:27:46.982Z</time></trkpt><trkpt lat="43.1859989" lon="12.8220914"><ele>1018.5</ele><time>2026-05-02T12:27:48.965Z</time></trkpt><trkpt lat="43.1859366" lon="12.8221077"><ele>1018.6666666666667</ele><time>2026-05-02T12:27:49.97Z</time></trkpt><trkpt lat="43.1858723" lon="12.8221316"><ele>1018.8333333333334</ele><time>2026-05-02T12:27:50.984Z</time></trkpt><trkpt lat="43.185807" lon="12.8221683"><ele>1019.0</ele><time>2026-05-02T12:27:51.973Z</time></trkpt><trkpt lat="43.1857144" lon="12.8222314"><ele>1019.0</ele><time>2026-05-02T12:27:53.975Z</time></trkpt></trkseg></trk></gpx>